<?xml version='1.0' encoding='UTF-8'?><gpx version="1.1" creator="JPX - https://github.com/jenetics/jpx" xmlns="http://www.topografix.com/GPX/1/1"><trk><trkseg><trkpt lat="45.7698974" lon="11.7503889"><ele>131.0</ele><time>2026-04-25T06:06:50.915Z</time></trkpt><trkpt lat="45.7698641" lon="11.7502556"><ele>131.0</ele><time>2026-04-25T06:06:51.915Z</time></trkpt><trkpt lat="45.7698352" lon="11.7501026"><ele>131.0</ele><time>2026-04-25T06:06:52.911Z</time></trkpt><trkpt lat="45.7698119" lon="11.7499659"><ele>131.0</ele><time>2026-04-25T06:06:53.914Z</time></trkpt><trkpt lat="45.7697939" lon="11.7498571"><ele>131.0</ele><time>2026-04-25T06:06:54.91Z</time></trkpt><trkpt lat="45.7697656" lon="11.7496444"><ele>131.0</ele><time>2026-04-25T06:06:56.912Z</time></trkpt><trkpt lat="45.7697569" lon="11.7495368"><ele>131.0</ele><time>2026-04-25T06:06:57.918Z</time></trkpt><trkpt lat="45.7697457" lon="11.7494095"><ele>131.0</ele><time>2026-04-25T06:06:58.936Z</time></trkpt><trkpt lat="45.7697305" lon="11.749274"><ele>131.0</ele><time>2026-04-25T06:06:59.913Z</time></trkpt><trkpt lat="45.769707" lon="11.7491253"><ele>131.0</ele><time>2026-04-25T06:07:00.918Z</time></trkpt><trkpt lat="45.7696908" lon="11.7489725"><ele>130.75</ele><time>2026-04-25T06:07:01.919Z</time></trkpt><trkpt lat="45.7696745" lon="11.7488083"><ele>130.5</ele><time>2026-04-25T06:07:02.927Z</time></trkpt><trkpt lat="45.7696615" lon="11.7486394"><ele>130.25</ele><time>2026-04-25T06:07:03.922Z</time></trkpt><trkpt lat="45.7696398" lon="11.7484657"><ele>130.0</ele><time>2026-04-25T06:07:04.921Z</time></trkpt><trkpt lat="45.7696192" lon="11.7482888"><ele>130.0</ele><time>2026-04-25T06:07:05.924Z</time></trkpt><trkpt lat="45.7695985" lon="11.7481115"><ele>130.0</ele><time>2026-04-25T06:07:06.921Z</time></trkpt><trkpt lat="45.7695783" lon="11.7479316"><ele>130.0</ele><time>2026-04-25T06:07:07.914Z</time></trkpt><trkpt lat="45.7695582" lon="11.7477501"><ele>130.0</ele><time>2026-04-25T06:07:08.937Z</time></trkpt><trkpt lat="45.7695361" lon="11.7475646"><ele>130.5</ele><time>2026-04-25T06:07:09.926Z</time></trkpt><trkpt lat="45.7695128" lon="11.7473755"><ele>131.0</ele><time>2026-04-25T06:07:10.942Z</time></trkpt><trkpt lat="45.7694907" lon="11.7471912"><ele>131.5</ele><time>2026-04-25T06:07:11.944Z</time></trkpt><trkpt lat="45.7694662" lon="11.7469983"><ele>132.0</ele><time>2026-04-25T06:07:12.938Z</time></trkpt><trkpt lat="45.7694413" lon="11.7468072"><ele>132.33333333333334</ele><time>2026-04-25T06:07:13.94Z</time></trkpt><trkpt lat="45.7694196" lon="11.7466148"><ele>132.66666666666669</ele><time>2026-04-25T06:07:14.941Z</time></trkpt><trkpt lat="45.769396" lon="11.7464213"><ele>133.0</ele><time>2026-04-25T06:07:15.923Z</time></trkpt><trkpt lat="45.7693492" lon="11.7460293"><ele>133.5</ele><time>2026-04-25T06:07:17.941Z</time></trkpt><trkpt lat="45.7693273" lon="11.7458419"><ele>134.0</ele><time>2026-04-25T06:07:18.938Z</time></trkpt><trkpt lat="45.7693076" lon="11.745665"><ele>134.5</ele><time>2026-04-25T06:07:19.942Z</time></trkpt><trkpt lat="45.7692871" lon="11.7454961"><ele>135.0</ele><time>2026-04-25T06:07:20.942Z</time></trkpt><trkpt lat="45.7692676" lon="11.7453329"><ele>135.2</ele><time>2026-04-25T06:07:21.942Z</time></trkpt><trkpt lat="45.7692487" lon="11.7451764"><ele>135.4</ele><time>2026-04-25T06:07:22.938Z</time></trkpt><trkpt lat="45.769231" lon="11.7450345"><ele>135.6</ele><time>2026-04-25T06:07:23.924Z</time></trkpt><trkpt lat="45.7692178" lon="11.7449009"><ele>135.8</ele><time>2026-04-25T06:07:24.916Z</time></trkpt><trkpt lat="45.7692063" lon="11.7447665"><ele>136.0</ele><time>2026-04-25T06:07:25.933Z</time></trkpt><trkpt lat="45.7691884" lon="11.744621"><ele>136.0</ele><time>2026-04-25T06:07:26.949Z</time></trkpt><trkpt lat="45.7691757" lon="11.7444597"><ele>136.0</ele><time>2026-04-25T06:07:27.94Z</time></trkpt><trkpt lat="45.7691595" lon="11.7442742"><ele>136.0</ele><time>2026-04-25T06:07:28.925Z</time></trkpt><trkpt lat="45.7691319" lon="11.7440718"><ele>136.0</ele><time>2026-04-25T06:07:29.945Z</time></trkpt><trkpt lat="45.7691065" lon="11.7438673"><ele>135.75</ele><time>2026-04-25T06:07:30.934Z</time></trkpt><trkpt lat="45.7690862" lon="11.743676"><ele>135.5</ele><time>2026-04-25T06:07:31.939Z</time></trkpt><trkpt lat="45.7690677" lon="11.7435101"><ele>135.25</ele><time>2026-04-25T06:07:32.911Z</time></trkpt><trkpt lat="45.7690486" lon="11.7433491"><ele>135.0</ele><time>2026-04-25T06:07:33.934Z</time></trkpt><trkpt lat="45.7690315" lon="11.7431842"><ele>135.0</ele><time>2026-04-25T06:07:34.94Z</time></trkpt><trkpt lat="45.769014" lon="11.7430097"><ele>135.0</ele><time>2026-04-25T06:07:35.915Z</time></trkpt><trkpt lat="45.768999" lon="11.7428353"><ele>135.0</ele><time>2026-04-25T06:07:36.921Z</time></trkpt><trkpt lat="45.7689601" lon="11.7424944"><ele>135.0</ele><time>2026-04-25T06:07:38.929Z</time></trkpt><trkpt lat="45.7689389" lon="11.7423235"><ele>135.0</ele><time>2026-04-25T06:07:39.926Z</time></trkpt><trkpt lat="45.7689132" lon="11.7421326"><ele>135.0</ele><time>2026-04-25T06:07:40.906Z</time></trkpt><trkpt lat="45.7688914" lon="11.7419431"><ele>135.0</ele><time>2026-04-25T06:07:41.929Z</time></trkpt><trkpt lat="45.7688668" lon="11.7417642"><ele>135.2</ele><time>2026-04-25T06:07:42.917Z</time></trkpt><trkpt lat="45.7688482" lon="11.7415872"><ele>135.4</ele><time>2026-04-25T06:07:43.924Z</time></trkpt><trkpt lat="45.7688282" lon="11.7414209"><ele>135.6</ele><time>2026-04-25T06:07:44.942Z</time></trkpt><trkpt lat="45.7688084" lon="11.741256"><ele>135.8</ele><time>2026-04-25T06:07:45.925Z</time></trkpt><trkpt lat="45.7687932" lon="11.7411322"><ele>136.0</ele><time>2026-04-25T06:07:46.922Z</time></trkpt><trkpt lat="45.768784" lon="11.7410362"><ele>136.0</ele><time>2026-04-25T06:07:47.928Z</time></trkpt><trkpt lat="45.7687596" lon="11.7408996"><ele>136.0</ele><time>2026-04-25T06:07:49.924Z</time></trkpt><trkpt lat="45.7687504" lon="11.7407976"><ele>136.0</ele><time>2026-04-25T06:07:51.928Z</time></trkpt><trkpt lat="45.7687388" lon="11.7406569"><ele>136.0</ele><time>2026-04-25T06:07:53.932Z</time></trkpt><trkpt lat="45.7687178" lon="11.7404822"><ele>136.0</ele><time>2026-04-25T06:07:55.937Z</time></trkpt><trkpt lat="45.7687025" lon="11.7403747"><ele>136.0</ele><time>2026-04-25T06:07:56.92Z</time></trkpt><trkpt lat="45.7686827" lon="11.7402663"><ele>136.0</ele><time>2026-04-25T06:07:57.925Z</time></trkpt><trkpt lat="45.7686399" lon="11.7400187"><ele>136.0</ele><time>2026-04-25T06:07:59.945Z</time></trkpt><trkpt lat="45.7686239" lon="11.7398838"><ele>136.0</ele><time>2026-04-25T06:08:00.938Z</time></trkpt><trkpt lat="45.7686065" lon="11.7397582"><ele>136.0</ele><time>2026-04-25T06:08:01.931Z</time></trkpt><trkpt lat="45.7685952" lon="11.7396564"><ele>136.0</ele><time>2026-04-25T06:08:02.939Z</time></trkpt><trkpt lat="45.7685837" lon="11.7395519"><ele>136.0</ele><time>2026-04-25T06:08:03.925Z</time></trkpt><trkpt lat="45.7685711" lon="11.7394562"><ele>136.0</ele><time>2026-04-25T06:08:04.932Z</time></trkpt><trkpt lat="45.7685612" lon="11.7393636"><ele>136.0</ele><time>2026-04-25T06:08:05.935Z</time></trkpt><trkpt lat="45.7685352" lon="11.7391831"><ele>136.0</ele><time>2026-04-25T06:08:07.935Z</time></trkpt><trkpt lat="45.7685173" lon="11.7390408"><ele>136.0</ele><time>2026-04-25T06:08:09.925Z</time></trkpt><trkpt lat="45.768504" lon="11.7389398"><ele>136.0</ele><time>2026-04-25T06:08:11.922Z</time></trkpt><trkpt lat="45.7684874" lon="11.7387579"><ele>136.0</ele><time>2026-04-25T06:09:01.918Z</time></trkpt><trkpt lat="45.7684979" lon="11.7385546"><ele>136.0</ele><time>2026-04-25T06:09:03.916Z</time></trkpt><trkpt lat="45.7685857" lon="11.7384317"><ele>136.0</ele><time>2026-04-25T06:09:05.918Z</time></trkpt><trkpt lat="45.7686771" lon="11.7384036"><ele>136.0</ele><time>2026-04-25T06:09:06.923Z</time></trkpt><trkpt lat="45.7688066" lon="11.7383914"><ele>136.0</ele><time>2026-04-25T06:09:07.934Z</time></trkpt><trkpt lat="45.768947" lon="11.7383893"><ele>136.0</ele><time>2026-04-25T06:09:08.918Z</time></trkpt><trkpt lat="45.7690976" lon="11.7383936"><ele>136.0</ele><time>2026-04-25T06:09:09.912Z</time></trkpt><trkpt lat="45.7692408" lon="11.7383856"><ele>133.75</ele><time>2026-04-25T06:09:10.922Z</time></trkpt><trkpt lat="45.7693726" lon="11.7383867"><ele>131.5</ele><time>2026-04-25T06:09:11.92Z</time></trkpt><trkpt lat="45.7694997" lon="11.7383915"><ele>129.25</ele><time>2026-04-25T06:09:12.925Z</time></trkpt><trkpt lat="45.7696291" lon="11.7384416"><ele>127.0</ele><time>2026-04-25T06:09:13.919Z</time></trkpt><trkpt lat="45.769756" lon="11.7384897"><ele>129.33333333333334</ele><time>2026-04-25T06:09:14.938Z</time></trkpt><trkpt lat="45.7698784" lon="11.73861"><ele>131.66666666666666</ele><time>2026-04-25T06:09:15.921Z</time></trkpt><trkpt lat="45.7700056" lon="11.738741"><ele>134.0</ele><time>2026-04-25T06:09:16.931Z</time></trkpt><trkpt lat="45.7701368" lon="11.7388836"><ele>131.0</ele><time>2026-04-25T06:09:17.94Z</time></trkpt><trkpt lat="45.7702754" lon="11.7390337"><ele>128.0</ele><time>2026-04-25T06:09:18.944Z</time></trkpt><trkpt lat="45.7704144" lon="11.7391792"><ele>125.0</ele><time>2026-04-25T06:09:19.918Z</time></trkpt><trkpt lat="45.77056" lon="11.739325"><ele>125.66666666666666</ele><time>2026-04-25T06:09:20.932Z</time></trkpt><trkpt lat="45.7707067" lon="11.7394665"><ele>126.33333333333334</ele><time>2026-04-25T06:09:21.94Z</time></trkpt><trkpt lat="45.7708543" lon="11.7396114"><ele>127.0</ele><time>2026-04-25T06:09:22.933Z</time></trkpt><trkpt lat="45.7711394" lon="11.7398902"><ele>127.0</ele><time>2026-04-25T06:09:24.941Z</time></trkpt><trkpt lat="45.7713113" lon="11.7400043"><ele>127.0</ele><time>2026-04-25T06:09:25.942Z</time></trkpt><trkpt lat="45.7714974" lon="11.7400816"><ele>127.0</ele><time>2026-04-25T06:09:26.942Z</time></trkpt><trkpt lat="45.7716926" lon="11.7401587"><ele>128.66666666666669</ele><time>2026-04-25T06:09:27.945Z</time></trkpt><trkpt lat="45.7718893" lon="11.7402395"><ele>130.33333333333334</ele><time>2026-04-25T06:09:28.935Z</time></trkpt><trkpt lat="45.7720869" lon="11.7403134"><ele>132.0</ele><time>2026-04-25T06:09:29.943Z</time></trkpt><trkpt lat="45.7722896" lon="11.7403686"><ele>132.0</ele><time>2026-04-25T06:09:30.938Z</time></trkpt><trkpt lat="45.7724972" lon="11.7403991"><ele>132.0</ele><time>2026-04-25T06:09:31.931Z</time></trkpt><trkpt lat="45.7727027" lon="11.7404238"><ele>132.0</ele><time>2026-04-25T06:09:32.935Z</time></trkpt><trkpt lat="45.772904" lon="11.7404493"><ele>132.66666666666666</ele><time>2026-04-25T06:09:33.93Z</time></trkpt><trkpt lat="45.7731021" lon="11.740472"><ele>133.33333333333331</ele><time>2026-04-25T06:09:34.92Z</time></trkpt><trkpt lat="45.7732916" lon="11.7405016"><ele>134.0</ele><time>2026-04-25T06:09:35.943Z</time></trkpt><trkpt lat="45.7734673" lon="11.7405475"><ele>134.0</ele><time>2026-04-25T06:09:36.946Z</time></trkpt><trkpt lat="45.7736258" lon="11.7406171"><ele>134.0</ele><time>2026-04-25T06:09:37.935Z</time></trkpt><trkpt lat="45.7737813" lon="11.7406877"><ele>134.0</ele><time>2026-04-25T06:09:38.937Z</time></trkpt><trkpt lat="45.7739222" lon="11.7407802"><ele>134.0</ele><time>2026-04-25T06:09:39.941Z</time></trkpt><trkpt lat="45.7740624" lon="11.7408807"><ele>134.0</ele><time>2026-04-25T06:09:40.932Z</time></trkpt><trkpt lat="45.7742134" lon="11.7409833"><ele>134.0</ele><time>2026-04-25T06:09:41.934Z</time></trkpt><trkpt lat="45.7743516" lon="11.7410524"><ele>135.0</ele><time>2026-04-25T06:09:42.919Z</time></trkpt><trkpt lat="45.7744881" lon="11.741087"><ele>136.0</ele><time>2026-04-25T06:09:43.944Z</time></trkpt><trkpt lat="45.7747517" lon="11.7411325"><ele>137.0</ele><time>2026-04-25T06:09:45.923Z</time></trkpt><trkpt lat="45.7748881" lon="11.741147"><ele>137.0</ele><time>2026-04-25T06:09:46.941Z</time></trkpt><trkpt lat="45.7750249" lon="11.7411655"><ele>137.0</ele><time>2026-04-25T06:09:47.94Z</time></trkpt><trkpt lat="45.7751639" lon="11.741185"><ele>137.0</ele><time>2026-04-25T06:09:48.952Z</time></trkpt><trkpt lat="45.7752941" lon="11.7412163"><ele>137.0</ele><time>2026-04-25T06:09:49.92Z</time></trkpt><trkpt lat="45.7754221" lon="11.741269"><ele>136.0</ele><time>2026-04-25T06:09:50.922Z</time></trkpt><trkpt lat="45.7755517" lon="11.7413445"><ele>135.0</ele><time>2026-04-25T06:09:51.923Z</time></trkpt><trkpt lat="45.7756741" lon="11.7414428"><ele>134.0</ele><time>2026-04-25T06:09:52.926Z</time></trkpt><trkpt lat="45.7757927" lon="11.7415421"><ele>133.0</ele><time>2026-04-25T06:09:53.925Z</time></trkpt><trkpt lat="45.7759095" lon="11.7416418"><ele>133.0</ele><time>2026-04-25T06:09:54.914Z</time></trkpt><trkpt lat="45.7760183" lon="11.7417362"><ele>133.0</ele><time>2026-04-25T06:09:55.921Z</time></trkpt><trkpt lat="45.7761252" lon="11.7418268"><ele>133.0</ele><time>2026-04-25T06:09:56.948Z</time></trkpt><trkpt lat="45.7762369" lon="11.7419138"><ele>133.0</ele><time>2026-04-25T06:09:57.937Z</time></trkpt><trkpt lat="45.7763529" lon="11.7419824"><ele>133.25</ele><time>2026-04-25T06:09:58.926Z</time></trkpt><trkpt lat="45.7764759" lon="11.7420436"><ele>133.5</ele><time>2026-04-25T06:09:59.944Z</time></trkpt><trkpt lat="45.7766083" lon="11.7420888"><ele>133.75</ele><time>2026-04-25T06:10:00.926Z</time></trkpt><trkpt lat="45.7767423" lon="11.7421086"><ele>134.0</ele><time>2026-04-25T06:10:01.93Z</time></trkpt><trkpt lat="45.7768787" lon="11.7421135"><ele>134.0</ele><time>2026-04-25T06:10:02.932Z</time></trkpt><trkpt lat="45.777009" lon="11.7421201"><ele>134.0</ele><time>2026-04-25T06:10:03.932Z</time></trkpt><trkpt lat="45.777136" lon="11.74213"><ele>134.0</ele><time>2026-04-25T06:10:04.924Z</time></trkpt><trkpt lat="45.777373" lon="11.7421464"><ele>134.0</ele><time>2026-04-25T06:10:06.95Z</time></trkpt><trkpt lat="45.7774889" lon="11.7421506"><ele>134.0</ele><time>2026-04-25T06:10:07.936Z</time></trkpt><trkpt lat="45.7776057" lon="11.7421474"><ele>134.0</ele><time>2026-04-25T06:10:08.917Z</time></trkpt><trkpt lat="45.7777221" lon="11.7421337"><ele>134.0</ele><time>2026-04-25T06:10:09.945Z</time></trkpt><trkpt lat="45.7778369" lon="11.7421144"><ele>134.25</ele><time>2026-04-25T06:10:10.924Z</time></trkpt><trkpt lat="45.7779494" lon="11.7420869"><ele>134.5</ele><time>2026-04-25T06:10:11.912Z</time></trkpt><trkpt lat="45.7780612" lon="11.742054"><ele>134.75</ele><time>2026-04-25T06:10:12.933Z</time></trkpt><trkpt lat="45.7781691" lon="11.7420105"><ele>135.0</ele><time>2026-04-25T06:10:13.918Z</time></trkpt><trkpt lat="45.7782751" lon="11.7419576"><ele>135.0</ele><time>2026-04-25T06:10:14.928Z</time></trkpt><trkpt lat="45.7783814" lon="11.7419007"><ele>135.0</ele><time>2026-04-25T06:10:15.942Z</time></trkpt><trkpt lat="45.7784791" lon="11.7418433"><ele>135.0</ele><time>2026-04-25T06:10:16.95Z</time></trkpt><trkpt lat="45.778568" lon="11.7417888"><ele>135.0</ele><time>2026-04-25T06:10:17.942Z</time></trkpt><trkpt lat="45.7786512" lon="11.7417404"><ele>135.0</ele><time>2026-04-25T06:10:18.941Z</time></trkpt><trkpt lat="45.7787309" lon="11.7416926"><ele>135.0</ele><time>2026-04-25T06:10:19.942Z</time></trkpt><trkpt lat="45.7788102" lon="11.7416446"><ele>135.0</ele><time>2026-04-25T06:10:20.921Z</time></trkpt><trkpt lat="45.7788911" lon="11.7416036"><ele>135.0</ele><time>2026-04-25T06:10:21.92Z</time></trkpt><trkpt lat="45.7789725" lon="11.7415651"><ele>135.0</ele><time>2026-04-25T06:10:22.919Z</time></trkpt><trkpt lat="45.7790546" lon="11.7415268"><ele>135.0</ele><time>2026-04-25T06:10:23.921Z</time></trkpt><trkpt lat="45.7791367" lon="11.7414919"><ele>135.0</ele><time>2026-04-25T06:10:24.909Z</time></trkpt><trkpt lat="45.7792161" lon="11.7414596"><ele>136.0</ele><time>2026-04-25T06:10:25.924Z</time></trkpt><trkpt lat="45.7793863" lon="11.7413894"><ele>137.0</ele><time>2026-04-25T06:10:28.924Z</time></trkpt><trkpt lat="45.7795167" lon="11.7413426"><ele>138.0</ele><time>2026-04-25T06:10:30.927Z</time></trkpt><trkpt lat="45.7796019" lon="11.7413076"><ele>139.0</ele><time>2026-04-25T06:10:31.923Z</time></trkpt><trkpt lat="45.7796881" lon="11.7412829"><ele>139.0</ele><time>2026-04-25T06:10:32.912Z</time></trkpt><trkpt lat="45.7797797" lon="11.7412377"><ele>139.0</ele><time>2026-04-25T06:10:33.928Z</time></trkpt><trkpt lat="45.77988" lon="11.7411826"><ele>139.0</ele><time>2026-04-25T06:10:34.921Z</time></trkpt><trkpt lat="45.7799871" lon="11.7411304"><ele>139.0</ele><time>2026-04-25T06:10:35.916Z</time></trkpt><trkpt lat="45.7800992" lon="11.7410778"><ele>139.0</ele><time>2026-04-25T06:10:36.924Z</time></trkpt><trkpt lat="45.7802148" lon="11.7410314"><ele>138.0</ele><time>2026-04-25T06:10:37.913Z</time></trkpt><trkpt lat="45.7803351" lon="11.7409719"><ele>137.0</ele><time>2026-04-25T06:10:38.922Z</time></trkpt><trkpt lat="45.7804613" lon="11.7409141"><ele>136.0</ele><time>2026-04-25T06:10:39.922Z</time></trkpt><trkpt lat="45.7805915" lon="11.7408514"><ele>135.0</ele><time>2026-04-25T06:10:40.922Z</time></trkpt><trkpt lat="45.7807273" lon="11.7407876"><ele>135.0</ele><time>2026-04-25T06:10:41.932Z</time></trkpt><trkpt lat="45.7808656" lon="11.7407233"><ele>135.0</ele><time>2026-04-25T06:10:42.93Z</time></trkpt><trkpt lat="45.7810089" lon="11.740662"><ele>135.0</ele><time>2026-04-25T06:10:43.922Z</time></trkpt><trkpt lat="45.7811552" lon="11.7406002"><ele>135.0</ele><time>2026-04-25T06:10:44.929Z</time></trkpt><trkpt lat="45.7812983" lon="11.7405365"><ele>136.0</ele><time>2026-04-25T06:10:45.94Z</time></trkpt><trkpt lat="45.7814419" lon="11.7404737"><ele>137.0</ele><time>2026-04-25T06:10:46.915Z</time></trkpt><trkpt lat="45.7817389" lon="11.7403416"><ele>137.66666666666666</ele><time>2026-04-25T06:10:48.903Z</time></trkpt><trkpt lat="45.7818947" lon="11.7402666"><ele>138.33333333333334</ele><time>2026-04-25T06:10:49.922Z</time></trkpt><trkpt lat="45.782055" lon="11.7401849"><ele>139.0</ele><time>2026-04-25T06:10:50.916Z</time></trkpt><trkpt lat="45.7822105" lon="11.7400956"><ele>139.0</ele><time>2026-04-25T06:10:51.931Z</time></trkpt><trkpt lat="45.782363" lon="11.7399976"><ele>139.0</ele><time>2026-04-25T06:10:52.922Z</time></trkpt><trkpt lat="45.782519" lon="11.7398991"><ele>139.0</ele><time>2026-04-25T06:10:53.913Z</time></trkpt><trkpt lat="45.7826725" lon="11.7397876"><ele>139.33333333333334</ele><time>2026-04-25T06:10:54.927Z</time></trkpt><trkpt lat="45.7828233" lon="11.7396702"><ele>139.66666666666666</ele><time>2026-04-25T06:10:55.917Z</time></trkpt><trkpt lat="45.7829721" lon="11.7395424"><ele>140.0</ele><time>2026-04-25T06:10:56.898Z</time></trkpt><trkpt lat="45.7831184" lon="11.7394131"><ele>140.33333333333331</ele><time>2026-04-25T06:10:57.925Z</time></trkpt><trkpt lat="45.7832596" lon="11.7392832"><ele>140.66666666666666</ele><time>2026-04-25T06:10:58.927Z</time></trkpt><trkpt lat="45.7833875" lon="11.7391527"><ele>141.0</ele><time>2026-04-25T06:10:59.924Z</time></trkpt><trkpt lat="45.7835055" lon="11.7390141"><ele>141.0</ele><time>2026-04-25T06:11:00.925Z</time></trkpt><trkpt lat="45.7836148" lon="11.7388914"><ele>141.0</ele><time>2026-04-25T06:11:01.909Z</time></trkpt><trkpt lat="45.7837196" lon="11.7387684"><ele>141.0</ele><time>2026-04-25T06:11:02.926Z</time></trkpt><trkpt lat="45.7838125" lon="11.7386478"><ele>141.0</ele><time>2026-04-25T06:11:03.92Z</time></trkpt><trkpt lat="45.7839073" lon="11.7385273"><ele>141.0</ele><time>2026-04-25T06:11:04.919Z</time></trkpt><trkpt lat="45.7840037" lon="11.7384051"><ele>141.0</ele><time>2026-04-25T06:11:05.92Z</time></trkpt><trkpt lat="45.7841045" lon="11.7382792"><ele>141.0</ele><time>2026-04-25T06:11:06.917Z</time></trkpt><trkpt lat="45.7842045" lon="11.7381475"><ele>141.0</ele><time>2026-04-25T06:11:07.912Z</time></trkpt><trkpt lat="45.7844035" lon="11.7379241"><ele>141.0</ele><time>2026-04-25T06:11:09.916Z</time></trkpt><trkpt lat="45.7844955" lon="11.7378196"><ele>141.0</ele><time>2026-04-25T06:11:10.91Z</time></trkpt><trkpt lat="45.7845855" lon="11.7377118"><ele>141.0</ele><time>2026-04-25T06:11:11.921Z</time></trkpt><trkpt lat="45.7846793" lon="11.7376035"><ele>141.0</ele><time>2026-04-25T06:11:12.919Z</time></trkpt><trkpt lat="45.7847702" lon="11.7374937"><ele>141.25</ele><time>2026-04-25T06:11:13.916Z</time></trkpt><trkpt lat="45.7848674" lon="11.7373847"><ele>141.5</ele><time>2026-04-25T06:11:14.916Z</time></trkpt><trkpt lat="45.7849662" lon="11.7372674"><ele>141.75</ele><time>2026-04-25T06:11:15.924Z</time></trkpt><trkpt lat="45.7850659" lon="11.7371598"><ele>142.0</ele><time>2026-04-25T06:11:16.903Z</time></trkpt><trkpt lat="45.7851647" lon="11.7370345"><ele>141.75</ele><time>2026-04-25T06:11:17.913Z</time></trkpt><trkpt lat="45.7852669" lon="11.7369076"><ele>141.5</ele><time>2026-04-25T06:11:18.935Z</time></trkpt><trkpt lat="45.7853675" lon="11.7367806"><ele>141.25</ele><time>2026-04-25T06:11:19.908Z</time></trkpt><trkpt lat="45.7854698" lon="11.7366481"><ele>141.0</ele><time>2026-04-25T06:11:20.902Z</time></trkpt><trkpt lat="45.785565" lon="11.7365239"><ele>141.0</ele><time>2026-04-25T06:11:21.912Z</time></trkpt><trkpt lat="45.7856555" lon="11.7364082"><ele>141.0</ele><time>2026-04-25T06:11:22.923Z</time></trkpt><trkpt lat="45.7857413" lon="11.7362989"><ele>141.0</ele><time>2026-04-25T06:11:23.918Z</time></trkpt><trkpt lat="45.7858267" lon="11.7361933"><ele>141.0</ele><time>2026-04-25T06:11:24.924Z</time></trkpt><trkpt lat="45.7859135" lon="11.736085"><ele>141.0</ele><time>2026-04-25T06:11:25.924Z</time></trkpt><trkpt lat="45.7860026" lon="11.7359767"><ele>141.0</ele><time>2026-04-25T06:11:26.915Z</time></trkpt><trkpt lat="45.7860962" lon="11.7358689"><ele>141.0</ele><time>2026-04-25T06:11:27.92Z</time></trkpt><trkpt lat="45.786191" lon="11.7357562"><ele>141.0</ele><time>2026-04-25T06:11:28.935Z</time></trkpt><trkpt lat="45.7863814" lon="11.7355195"><ele>141.25</ele><time>2026-04-25T06:11:30.937Z</time></trkpt><trkpt lat="45.7864778" lon="11.7353983"><ele>141.5</ele><time>2026-04-25T06:11:31.937Z</time></trkpt><trkpt lat="45.7865766" lon="11.7352743"><ele>141.75</ele><time>2026-04-25T06:11:32.938Z</time></trkpt><trkpt lat="45.7866745" lon="11.735148"><ele>142.0</ele><time>2026-04-25T06:11:33.929Z</time></trkpt><trkpt lat="45.7867718" lon="11.7350183"><ele>142.0</ele><time>2026-04-25T06:11:34.937Z</time></trkpt><trkpt lat="45.7868703" lon="11.7348908"><ele>142.0</ele><time>2026-04-25T06:11:35.937Z</time></trkpt><trkpt lat="45.7869715" lon="11.734765"><ele>142.0</ele><time>2026-04-25T06:11:36.94Z</time></trkpt><trkpt lat="45.7870721" lon="11.7346386"><ele>142.0</ele><time>2026-04-25T06:11:37.93Z</time></trkpt><trkpt lat="45.7871722" lon="11.7345129"><ele>142.0</ele><time>2026-04-25T06:11:38.945Z</time></trkpt><trkpt lat="45.787268" lon="11.7343954"><ele>142.0</ele><time>2026-04-25T06:11:39.923Z</time></trkpt><trkpt lat="45.7873586" lon="11.7342873"><ele>142.0</ele><time>2026-04-25T06:11:40.94Z</time></trkpt><trkpt lat="45.7874441" lon="11.7341837"><ele>142.0</ele><time>2026-04-25T06:11:41.957Z</time></trkpt><trkpt lat="45.7875249" lon="11.7340826"><ele>141.75</ele><time>2026-04-25T06:11:42.934Z</time></trkpt><trkpt lat="45.7876039" lon="11.7339772"><ele>141.5</ele><time>2026-04-25T06:11:43.921Z</time></trkpt><trkpt lat="45.7876892" lon="11.7339045"><ele>141.25</ele><time>2026-04-25T06:11:44.951Z</time></trkpt><trkpt lat="45.7877755" lon="11.7337803"><ele>141.0</ele><time>2026-04-25T06:11:45.943Z</time></trkpt><trkpt lat="45.7878636" lon="11.7336579"><ele>141.0</ele><time>2026-04-25T06:11:46.926Z</time></trkpt><trkpt lat="45.7879404" lon="11.7335183"><ele>141.0</ele><time>2026-04-25T06:11:47.94Z</time></trkpt><trkpt lat="45.7880186" lon="11.7333774"><ele>141.0</ele><time>2026-04-25T06:11:48.945Z</time></trkpt><trkpt lat="45.7880982" lon="11.7332319"><ele>141.0</ele><time>2026-04-25T06:11:49.929Z</time></trkpt><trkpt lat="45.7882556" lon="11.7329387"><ele>141.0</ele><time>2026-04-25T06:11:51.932Z</time></trkpt><trkpt lat="45.7883281" lon="11.7328025"><ele>141.0</ele><time>2026-04-25T06:11:52.916Z</time></trkpt><trkpt lat="45.7883984" lon="11.7326738"><ele>141.0</ele><time>2026-04-25T06:11:53.927Z</time></trkpt><trkpt lat="45.7884648" lon="11.7325498"><ele>141.0</ele><time>2026-04-25T06:11:54.938Z</time></trkpt><trkpt lat="45.788532" lon="11.7324282"><ele>141.6</ele><time>2026-04-25T06:11:55.918Z</time></trkpt><trkpt lat="45.7885985" lon="11.7323129"><ele>142.2</ele><time>2026-04-25T06:11:56.916Z</time></trkpt><trkpt lat="45.788663" lon="11.7322002"><ele>142.8</ele><time>2026-04-25T06:11:57.931Z</time></trkpt><trkpt lat="45.7887238" lon="11.7320885"><ele>143.4</ele><time>2026-04-25T06:11:58.924Z</time></trkpt><trkpt lat="45.7887775" lon="11.7319863"><ele>144.0</ele><time>2026-04-25T06:11:59.933Z</time></trkpt><trkpt lat="45.788827" lon="11.7318934"><ele>143.57142857142858</ele><time>2026-04-25T06:12:00.929Z</time></trkpt><trkpt lat="45.7888748" lon="11.7318079"><ele>143.14285714285714</ele><time>2026-04-25T06:12:01.932Z</time></trkpt><trkpt lat="45.7889225" lon="11.7317305"><ele>142.71428571428572</ele><time>2026-04-25T06:12:02.937Z</time></trkpt><trkpt lat="45.7889743" lon="11.731657"><ele>142.28571428571428</ele><time>2026-04-25T06:12:03.925Z</time></trkpt><trkpt lat="45.7890302" lon="11.7315862"><ele>141.85714285714286</ele><time>2026-04-25T06:12:04.912Z</time></trkpt><trkpt lat="45.7890895" lon="11.7315221"><ele>141.42857142857144</ele><time>2026-04-25T06:12:05.919Z</time></trkpt><trkpt lat="45.7891425" lon="11.7314565"><ele>141.0</ele><time>2026-04-25T06:12:06.92Z</time></trkpt><trkpt lat="45.7891815" lon="11.7313829"><ele>141.0</ele><time>2026-04-25T06:12:07.92Z</time></trkpt><trkpt lat="45.7892078" lon="11.7312942"><ele>141.0</ele><time>2026-04-25T06:12:08.925Z</time></trkpt><trkpt lat="45.7892381" lon="11.7311965"><ele>141.0</ele><time>2026-04-25T06:12:09.936Z</time></trkpt><trkpt lat="45.7892808" lon="11.7310962"><ele>141.0</ele><time>2026-04-25T06:12:10.931Z</time></trkpt><trkpt lat="45.7893913" lon="11.7308854"><ele>141.0</ele><time>2026-04-25T06:12:12.921Z</time></trkpt><trkpt lat="45.7894528" lon="11.7307697"><ele>141.0</ele><time>2026-04-25T06:12:13.925Z</time></trkpt><trkpt lat="45.7895187" lon="11.7306499"><ele>141.0</ele><time>2026-04-25T06:12:14.907Z</time></trkpt><trkpt lat="45.7895865" lon="11.7305257"><ele>141.0</ele><time>2026-04-25T06:12:15.922Z</time></trkpt><trkpt lat="45.7896578" lon="11.7303975"><ele>141.0</ele><time>2026-04-25T06:12:16.923Z</time></trkpt><trkpt lat="45.7897315" lon="11.7302667"><ele>141.0</ele><time>2026-04-25T06:12:17.931Z</time></trkpt><trkpt lat="45.7898049" lon="11.7301311"><ele>140.5</ele><time>2026-04-25T06:12:18.92Z</time></trkpt><trkpt lat="45.7898778" lon="11.7299929"><ele>140.0</ele><time>2026-04-25T06:12:19.918Z</time></trkpt><trkpt lat="45.789949" lon="11.7298527"><ele>139.5</ele><time>2026-04-25T06:12:20.918Z</time></trkpt><trkpt lat="45.7900179" lon="11.7297114"><ele>139.0</ele><time>2026-04-25T06:12:21.928Z</time></trkpt><trkpt lat="45.7900847" lon="11.7295706"><ele>139.0</ele><time>2026-04-25T06:12:22.916Z</time></trkpt><trkpt lat="45.7901451" lon="11.7294353"><ele>139.0</ele><time>2026-04-25T06:12:23.923Z</time></trkpt><trkpt lat="45.7902028" lon="11.7292989"><ele>139.0</ele><time>2026-04-25T06:12:24.932Z</time></trkpt><trkpt lat="45.7902606" lon="11.7291552"><ele>139.0</ele><time>2026-04-25T06:12:25.912Z</time></trkpt><trkpt lat="45.7903214" lon="11.7290083"><ele>139.25</ele><time>2026-04-25T06:12:26.91Z</time></trkpt><trkpt lat="45.7903864" lon="11.7288615"><ele>139.5</ele><time>2026-04-25T06:12:27.916Z</time></trkpt><trkpt lat="45.7904512" lon="11.7287117"><ele>139.75</ele><time>2026-04-25T06:12:28.929Z</time></trkpt><trkpt lat="45.7905112" lon="11.7285514"><ele>140.0</ele><time>2026-04-25T06:12:29.932Z</time></trkpt><trkpt lat="45.7905722" lon="11.7283848"><ele>140.0</ele><time>2026-04-25T06:12:30.917Z</time></trkpt><trkpt lat="45.7906366" lon="11.7282306"><ele>140.0</ele><time>2026-04-25T06:12:31.903Z</time></trkpt><trkpt lat="45.7907707" lon="11.7279288"><ele>140.0</ele><time>2026-04-25T06:12:33.908Z</time></trkpt><trkpt lat="45.7908347" lon="11.7277696"><ele>139.0</ele><time>2026-04-25T06:12:34.919Z</time></trkpt><trkpt lat="45.7908975" lon="11.7276128"><ele>138.0</ele><time>2026-04-25T06:12:35.912Z</time></trkpt><trkpt lat="45.7909633" lon="11.727458"><ele>137.0</ele><time>2026-04-25T06:12:36.911Z</time></trkpt><trkpt lat="45.7910312" lon="11.7273078"><ele>136.0</ele><time>2026-04-25T06:12:37.913Z</time></trkpt><trkpt lat="45.7910979" lon="11.7271548"><ele>137.25</ele><time>2026-04-25T06:12:38.923Z</time></trkpt><trkpt lat="45.7911624" lon="11.7270025"><ele>138.5</ele><time>2026-04-25T06:12:39.913Z</time></trkpt><trkpt lat="45.7912257" lon="11.7268417"><ele>139.75</ele><time>2026-04-25T06:12:40.914Z</time></trkpt><trkpt lat="45.7912977" lon="11.7266609"><ele>141.0</ele><time>2026-04-25T06:12:41.932Z</time></trkpt><trkpt lat="45.7913926" lon="11.7264469"><ele>141.0</ele><time>2026-04-25T06:12:42.922Z</time></trkpt><trkpt lat="45.7915064" lon="11.7262213"><ele>141.0</ele><time>2026-04-25T06:12:43.932Z</time></trkpt><trkpt lat="45.7916136" lon="11.7260117"><ele>141.0</ele><time>2026-04-25T06:12:44.925Z</time></trkpt><trkpt lat="45.7917274" lon="11.7258077"><ele>142.0</ele><time>2026-04-25T06:12:45.918Z</time></trkpt><trkpt lat="45.7918535" lon="11.7256067"><ele>143.0</ele><time>2026-04-25T06:12:46.917Z</time></trkpt><trkpt lat="45.7919913" lon="11.725408"><ele>144.0</ele><time>2026-04-25T06:12:47.929Z</time></trkpt><trkpt lat="45.7921324" lon="11.7252165"><ele>141.33333333333334</ele><time>2026-04-25T06:12:48.925Z</time></trkpt><trkpt lat="45.7922768" lon="11.7250271"><ele>138.66666666666669</ele><time>2026-04-25T06:12:49.932Z</time></trkpt><trkpt lat="45.7924288" lon="11.7248319"><ele>136.0</ele><time>2026-04-25T06:12:50.915Z</time></trkpt><trkpt lat="45.7925786" lon="11.7246429"><ele>136.0</ele><time>2026-04-25T06:12:51.915Z</time></trkpt><trkpt lat="45.792723" lon="11.7244587"><ele>136.0</ele><time>2026-04-25T06:12:52.928Z</time></trkpt><trkpt lat="45.7930094" lon="11.7241094"><ele>136.0</ele><time>2026-04-25T06:12:54.918Z</time></trkpt><trkpt lat="45.7931654" lon="11.7239535"><ele>136.0</ele><time>2026-04-25T06:12:55.92Z</time></trkpt><trkpt lat="45.793332" lon="11.723813"><ele>136.0</ele><time>2026-04-25T06:12:56.921Z</time></trkpt><trkpt lat="45.7935018" lon="11.7236881"><ele>137.66666666666669</ele><time>2026-04-25T06:12:57.913Z</time></trkpt><trkpt lat="45.7936707" lon="11.7235773"><ele>139.33333333333334</ele><time>2026-04-25T06:12:58.914Z</time></trkpt><trkpt lat="45.7938396" lon="11.7234776"><ele>141.0</ele><time>2026-04-25T06:12:59.913Z</time></trkpt><trkpt lat="45.7940111" lon="11.7233882"><ele>137.66666666666666</ele><time>2026-04-25T06:13:00.921Z</time></trkpt><trkpt lat="45.7941714" lon="11.7233111"><ele>134.33333333333331</ele><time>2026-04-25T06:13:01.924Z</time></trkpt><trkpt lat="45.7943393" lon="11.7232347"><ele>131.0</ele><time>2026-04-25T06:13:02.924Z</time></trkpt><trkpt lat="45.794507" lon="11.723163"><ele>130.66666666666666</ele><time>2026-04-25T06:13:03.913Z</time></trkpt><trkpt lat="45.7946809" lon="11.7230859"><ele>130.33333333333334</ele><time>2026-04-25T06:13:04.931Z</time></trkpt><trkpt lat="45.7948565" lon="11.723004"><ele>130.0</ele><time>2026-04-25T06:13:05.919Z</time></trkpt><trkpt lat="45.7950289" lon="11.7229208"><ele>129.33333333333334</ele><time>2026-04-25T06:13:06.914Z</time></trkpt><trkpt lat="45.7952032" lon="11.7228359"><ele>128.66666666666666</ele><time>2026-04-25T06:13:07.917Z</time></trkpt><trkpt lat="45.7953748" lon="11.7227474"><ele>128.0</ele><time>2026-04-25T06:13:08.924Z</time></trkpt><trkpt lat="45.7955478" lon="11.7226591"><ele>128.0</ele><time>2026-04-25T06:13:09.915Z</time></trkpt><trkpt lat="45.7957187" lon="11.7225718"><ele>128.0</ele><time>2026-04-25T06:13:10.922Z</time></trkpt><trkpt lat="45.7958895" lon="11.722485"><ele>128.0</ele><time>2026-04-25T06:13:11.923Z</time></trkpt><trkpt lat="45.7960613" lon="11.7224008"><ele>128.5</ele><time>2026-04-25T06:13:12.92Z</time></trkpt><trkpt lat="45.7962341" lon="11.7223158"><ele>129.0</ele><time>2026-04-25T06:13:13.922Z</time></trkpt><trkpt lat="45.7965849" lon="11.7221361"><ele>129.0</ele><time>2026-04-25T06:13:15.923Z</time></trkpt><trkpt lat="45.7967623" lon="11.7220428"><ele>129.0</ele><time>2026-04-25T06:13:16.917Z</time></trkpt><trkpt lat="45.7969377" lon="11.7219549"><ele>129.0</ele><time>2026-04-25T06:13:17.921Z</time></trkpt><trkpt lat="45.7971087" lon="11.7218722"><ele>128.0</ele><time>2026-04-25T06:13:18.92Z</time></trkpt><trkpt lat="45.7972751" lon="11.7217921"><ele>127.0</ele><time>2026-04-25T06:13:19.917Z</time></trkpt><trkpt lat="45.797437" lon="11.7217113"><ele>126.0</ele><time>2026-04-25T06:13:20.923Z</time></trkpt><trkpt lat="45.7975997" lon="11.7216312"><ele>126.33333333333334</ele><time>2026-04-25T06:13:21.922Z</time></trkpt><trkpt lat="45.7977621" lon="11.7215497"><ele>126.66666666666667</ele><time>2026-04-25T06:13:22.921Z</time></trkpt><trkpt lat="45.7979261" lon="11.7214701"><ele>127.0</ele><time>2026-04-25T06:13:23.919Z</time></trkpt><trkpt lat="45.7980899" lon="11.721389"><ele>127.0</ele><time>2026-04-25T06:13:24.904Z</time></trkpt><trkpt lat="45.7982537" lon="11.7213031"><ele>127.0</ele><time>2026-04-25T06:13:25.925Z</time></trkpt><trkpt lat="45.7984125" lon="11.7212114"><ele>127.0</ele><time>2026-04-25T06:13:26.931Z</time></trkpt><trkpt lat="45.7985757" lon="11.7211242"><ele>126.66666666666667</ele><time>2026-04-25T06:13:27.916Z</time></trkpt><trkpt lat="45.7987411" lon="11.7210434"><ele>126.33333333333334</ele><time>2026-04-25T06:13:28.923Z</time></trkpt><trkpt lat="45.7989075" lon="11.7209616"><ele>126.0</ele><time>2026-04-25T06:13:29.923Z</time></trkpt><trkpt lat="45.7990742" lon="11.7208752"><ele>126.0</ele><time>2026-04-25T06:13:30.913Z</time></trkpt><trkpt lat="45.7992402" lon="11.7207909"><ele>126.0</ele><time>2026-04-25T06:13:31.915Z</time></trkpt><trkpt lat="45.7994063" lon="11.7207045"><ele>126.0</ele><time>2026-04-25T06:13:32.922Z</time></trkpt><trkpt lat="45.7995764" lon="11.7206186"><ele>128.5</ele><time>2026-04-25T06:13:33.924Z</time></trkpt><trkpt lat="45.7997504" lon="11.7205327"><ele>131.0</ele><time>2026-04-25T06:13:34.92Z</time></trkpt><trkpt lat="45.8001026" lon="11.7203551"><ele>131.0</ele><time>2026-04-25T06:13:36.916Z</time></trkpt><trkpt lat="45.8002804" lon="11.7202643"><ele>131.0</ele><time>2026-04-25T06:13:37.916Z</time></trkpt><trkpt lat="45.8004588" lon="11.7201737"><ele>131.0</ele><time>2026-04-25T06:13:38.921Z</time></trkpt><trkpt lat="45.8006366" lon="11.7200833"><ele>130.33333333333331</ele><time>2026-04-25T06:13:39.922Z</time></trkpt><trkpt lat="45.8008135" lon="11.7199929"><ele>129.66666666666666</ele><time>2026-04-25T06:13:40.915Z</time></trkpt><trkpt lat="45.8009904" lon="11.7199033"><ele>129.0</ele><time>2026-04-25T06:13:41.921Z</time></trkpt><trkpt lat="45.8011669" lon="11.7198156"><ele>129.0</ele><time>2026-04-25T06:13:42.922Z</time></trkpt><trkpt lat="45.8013462" lon="11.7197272"><ele>129.0</ele><time>2026-04-25T06:13:43.922Z</time></trkpt><trkpt lat="45.8015268" lon="11.7196373"><ele>129.0</ele><time>2026-04-25T06:13:44.932Z</time></trkpt><trkpt lat="45.8017084" lon="11.7195452"><ele>130.0</ele><time>2026-04-25T06:13:45.909Z</time></trkpt><trkpt lat="45.8018924" lon="11.7194535"><ele>131.0</ele><time>2026-04-25T06:13:46.916Z</time></trkpt><trkpt lat="45.8020753" lon="11.7193644"><ele>132.0</ele><time>2026-04-25T06:13:47.918Z</time></trkpt><trkpt lat="45.8022573" lon="11.7192758"><ele>130.33333333333334</ele><time>2026-04-25T06:13:48.917Z</time></trkpt><trkpt lat="45.8024388" lon="11.7191835"><ele>128.66666666666669</ele><time>2026-04-25T06:13:49.91Z</time></trkpt><trkpt lat="45.8026199" lon="11.719089"><ele>127.0</ele><time>2026-04-25T06:13:50.914Z</time></trkpt><trkpt lat="45.8028016" lon="11.7189964"><ele>127.0</ele><time>2026-04-25T06:13:51.916Z</time></trkpt><trkpt lat="45.8029849" lon="11.7189044"><ele>127.0</ele><time>2026-04-25T06:13:52.921Z</time></trkpt><trkpt lat="45.8031701" lon="11.7188102"><ele>127.0</ele><time>2026-04-25T06:13:53.92Z</time></trkpt><trkpt lat="45.8033586" lon="11.7187139"><ele>126.0</ele><time>2026-04-25T06:13:54.906Z</time></trkpt><trkpt lat="45.8035501" lon="11.7186168"><ele>125.0</ele><time>2026-04-25T06:13:55.924Z</time></trkpt><trkpt lat="45.8039429" lon="11.7184336"><ele>125.0</ele><time>2026-04-25T06:13:57.921Z</time></trkpt><trkpt lat="45.8041367" lon="11.7183558"><ele>125.0</ele><time>2026-04-25T06:13:58.922Z</time></trkpt><trkpt lat="45.8043287" lon="11.7182974"><ele>125.0</ele><time>2026-04-25T06:13:59.916Z</time></trkpt><trkpt lat="45.8045248" lon="11.7182573"><ele>126.0</ele><time>2026-04-25T06:14:00.921Z</time></trkpt><trkpt lat="45.8047243" lon="11.7182339"><ele>127.0</ele><time>2026-04-25T06:14:01.935Z</time></trkpt><trkpt lat="45.8049263" lon="11.7182255"><ele>128.0</ele><time>2026-04-25T06:14:02.92Z</time></trkpt><trkpt lat="45.805128" lon="11.7182245"><ele>129.66666666666666</ele><time>2026-04-25T06:14:03.93Z</time></trkpt><trkpt lat="45.8053327" lon="11.7182241"><ele>131.33333333333334</ele><time>2026-04-25T06:14:04.926Z</time></trkpt><trkpt lat="45.8055395" lon="11.7182181"><ele>133.0</ele><time>2026-04-25T06:14:05.914Z</time></trkpt><trkpt lat="45.8057494" lon="11.7182054"><ele>133.0</ele><time>2026-04-25T06:14:06.913Z</time></trkpt><trkpt lat="45.8059615" lon="11.7181922"><ele>133.0</ele><time>2026-04-25T06:14:07.919Z</time></trkpt><trkpt lat="45.8061745" lon="11.7181796"><ele>133.0</ele><time>2026-04-25T06:14:08.922Z</time></trkpt><trkpt lat="45.8063876" lon="11.7181652"><ele>132.0</ele><time>2026-04-25T06:14:09.914Z</time></trkpt><trkpt lat="45.8066" lon="11.7181464"><ele>131.0</ele><time>2026-04-25T06:14:10.919Z</time></trkpt><trkpt lat="45.8068125" lon="11.7181261"><ele>130.0</ele><time>2026-04-25T06:14:11.936Z</time></trkpt><trkpt lat="45.8070292" lon="11.7181092"><ele>127.0</ele><time>2026-04-25T06:14:12.931Z</time></trkpt><trkpt lat="45.8072572" lon="11.7180913"><ele>124.0</ele><time>2026-04-25T06:14:13.916Z</time></trkpt><trkpt lat="45.8074911" lon="11.7180688"><ele>125.5</ele><time>2026-04-25T06:14:14.91Z</time></trkpt><trkpt lat="45.8077263" lon="11.7180401"><ele>127.0</ele><time>2026-04-25T06:14:15.94Z</time></trkpt><trkpt lat="45.8079626" lon="11.7180008"><ele>127.0</ele><time>2026-04-25T06:14:16.923Z</time></trkpt><trkpt lat="45.8084412" lon="11.7179091"><ele>124.0</ele><time>2026-04-25T06:14:18.928Z</time></trkpt><trkpt lat="45.8086828" lon="11.7178604"><ele>121.0</ele><time>2026-04-25T06:14:19.92Z</time></trkpt><trkpt lat="45.808927" lon="11.7178093"><ele>121.0</ele><time>2026-04-25T06:14:20.919Z</time></trkpt><trkpt lat="45.8091724" lon="11.7177575"><ele>121.0</ele><time>2026-04-25T06:14:21.934Z</time></trkpt><trkpt lat="45.8094184" lon="11.7177079"><ele>121.0</ele><time>2026-04-25T06:14:22.918Z</time></trkpt><trkpt lat="45.809664" lon="11.7176595"><ele>121.0</ele><time>2026-04-25T06:14:23.927Z</time></trkpt><trkpt lat="45.809913" lon="11.717614"><ele>121.5</ele><time>2026-04-25T06:14:24.917Z</time></trkpt><trkpt lat="45.8101626" lon="11.7175731"><ele>122.0</ele><time>2026-04-25T06:14:25.93Z</time></trkpt><trkpt lat="45.8104116" lon="11.7175364"><ele>122.0</ele><time>2026-04-25T06:14:26.929Z</time></trkpt><trkpt lat="45.8106584" lon="11.7175015"><ele>122.0</ele><time>2026-04-25T06:14:27.929Z</time></trkpt><trkpt lat="45.8109035" lon="11.7174625"><ele>122.5</ele><time>2026-04-25T06:14:28.924Z</time></trkpt><trkpt lat="45.8111464" lon="11.7174181"><ele>123.0</ele><time>2026-04-25T06:14:29.93Z</time></trkpt><trkpt lat="45.8113878" lon="11.7173717"><ele>123.0</ele><time>2026-04-25T06:14:30.923Z</time></trkpt><trkpt lat="45.8116312" lon="11.7173319"><ele>123.0</ele><time>2026-04-25T06:14:31.921Z</time></trkpt><trkpt lat="45.8118695" lon="11.7172805"><ele>124.0</ele><time>2026-04-25T06:14:32.921Z</time></trkpt><trkpt lat="45.8121055" lon="11.7172364"><ele>125.0</ele><time>2026-04-25T06:14:33.916Z</time></trkpt><trkpt lat="45.8123392" lon="11.7171908"><ele>125.0</ele><time>2026-04-25T06:14:34.922Z</time></trkpt><trkpt lat="45.8125723" lon="11.7171435"><ele>125.0</ele><time>2026-04-25T06:14:35.913Z</time></trkpt><trkpt lat="45.8128033" lon="11.7171033"><ele>125.0</ele><time>2026-04-25T06:14:36.921Z</time></trkpt><trkpt lat="45.8130305" lon="11.7170572"><ele>125.0</ele><time>2026-04-25T06:14:37.918Z</time></trkpt><trkpt lat="45.8134852" lon="11.7169722"><ele>124.5</ele><time>2026-04-25T06:14:39.931Z</time></trkpt><trkpt lat="45.8137109" lon="11.7169289"><ele>124.0</ele><time>2026-04-25T06:14:40.926Z</time></trkpt><trkpt lat="45.8139341" lon="11.7168852"><ele>123.66666666666667</ele><time>2026-04-25T06:14:41.924Z</time></trkpt><trkpt lat="45.8141544" lon="11.716843"><ele>123.33333333333334</ele><time>2026-04-25T06:14:42.919Z</time></trkpt><trkpt lat="45.8143715" lon="11.7168043"><ele>123.0</ele><time>2026-04-25T06:14:43.922Z</time></trkpt><trkpt lat="45.8145849" lon="11.7167661"><ele>123.0</ele><time>2026-04-25T06:14:44.926Z</time></trkpt><trkpt lat="45.8147947" lon="11.7167243"><ele>123.0</ele><time>2026-04-25T06:14:45.905Z</time></trkpt><trkpt lat="45.8150076" lon="11.7166839"><ele>123.0</ele><time>2026-04-25T06:14:46.919Z</time></trkpt><trkpt lat="45.815222" lon="11.7166415"><ele>123.0</ele><time>2026-04-25T06:14:47.905Z</time></trkpt><trkpt lat="45.8154357" lon="11.7165983"><ele>123.0</ele><time>2026-04-25T06:14:48.925Z</time></trkpt><trkpt lat="45.8156501" lon="11.7165528"><ele>123.0</ele><time>2026-04-25T06:14:49.945Z</time></trkpt><trkpt lat="45.8158612" lon="11.7165058"><ele>123.33333333333334</ele><time>2026-04-25T06:14:50.918Z</time></trkpt><trkpt lat="45.8160656" lon="11.7164586"><ele>123.66666666666667</ele><time>2026-04-25T06:14:51.908Z</time></trkpt><trkpt lat="45.8162597" lon="11.7164132"><ele>124.0</ele><time>2026-04-25T06:14:52.932Z</time></trkpt><trkpt lat="45.8164435" lon="11.7163738"><ele>124.0</ele><time>2026-04-25T06:14:53.912Z</time></trkpt><trkpt lat="45.8166164" lon="11.7163409"><ele>124.0</ele><time>2026-04-25T06:14:54.916Z</time></trkpt><trkpt lat="45.8167758" lon="11.7162985"><ele>124.0</ele><time>2026-04-25T06:14:55.918Z</time></trkpt><trkpt lat="45.8169264" lon="11.7162683"><ele>124.66666666666667</ele><time>2026-04-25T06:14:56.922Z</time></trkpt><trkpt lat="45.8170702" lon="11.7162404"><ele>125.33333333333334</ele><time>2026-04-25T06:14:57.914Z</time></trkpt><trkpt lat="45.817204" lon="11.7162043"><ele>126.0</ele><time>2026-04-25T06:14:58.91Z</time></trkpt><trkpt lat="45.8174595" lon="11.7160666"><ele>126.0</ele><time>2026-04-25T06:15:00.921Z</time></trkpt><trkpt lat="45.8175907" lon="11.7159705"><ele>126.0</ele><time>2026-04-25T06:15:01.933Z</time></trkpt><trkpt lat="45.8177171" lon="11.7158573"><ele>126.0</ele><time>2026-04-25T06:15:02.92Z</time></trkpt><trkpt lat="45.8178411" lon="11.7157389"><ele>126.0</ele><time>2026-04-25T06:15:03.901Z</time></trkpt><trkpt lat="45.8179671" lon="11.7156201"><ele>126.0</ele><time>2026-04-25T06:15:04.924Z</time></trkpt><trkpt lat="45.8180885" lon="11.7155028"><ele>126.0</ele><time>2026-04-25T06:15:05.917Z</time></trkpt><trkpt lat="45.8182008" lon="11.7153912"><ele>126.0</ele><time>2026-04-25T06:15:06.93Z</time></trkpt><trkpt lat="45.8183054" lon="11.715291"><ele>126.0</ele><time>2026-04-25T06:15:07.924Z</time></trkpt><trkpt lat="45.8183977" lon="11.7151847"><ele>127.25</ele><time>2026-04-25T06:15:08.926Z</time></trkpt><trkpt lat="45.8184987" lon="11.7150887"><ele>128.5</ele><time>2026-04-25T06:15:09.916Z</time></trkpt><trkpt lat="45.8186008" lon="11.7149885"><ele>129.75</ele><time>2026-04-25T06:15:10.92Z</time></trkpt><trkpt lat="45.8187008" lon="11.7148838"><ele>131.0</ele><time>2026-04-25T06:15:11.918Z</time></trkpt><trkpt lat="45.8188017" lon="11.7147759"><ele>131.0</ele><time>2026-04-25T06:15:12.918Z</time></trkpt><trkpt lat="45.8188984" lon="11.7146753"><ele>131.0</ele><time>2026-04-25T06:15:13.91Z</time></trkpt><trkpt lat="45.8189941" lon="11.714577"><ele>131.0</ele><time>2026-04-25T06:15:14.932Z</time></trkpt><trkpt lat="45.819083" lon="11.7144826"><ele>131.0</ele><time>2026-04-25T06:15:15.923Z</time></trkpt><trkpt lat="45.8191714" lon="11.7143895"><ele>130.25</ele><time>2026-04-25T06:15:16.936Z</time></trkpt><trkpt lat="45.8192601" lon="11.7142915"><ele>129.5</ele><time>2026-04-25T06:15:17.93Z</time></trkpt><trkpt lat="45.8193464" lon="11.7141993"><ele>128.75</ele><time>2026-04-25T06:15:18.938Z</time></trkpt><trkpt lat="45.819427" lon="11.7141082"><ele>128.0</ele><time>2026-04-25T06:15:19.927Z</time></trkpt><trkpt lat="45.8195809" lon="11.713916"><ele>128.75</ele><time>2026-04-25T06:15:21.92Z</time></trkpt><trkpt lat="45.8196659" lon="11.7138213"><ele>129.5</ele><time>2026-04-25T06:15:22.918Z</time></trkpt><trkpt lat="45.8197577" lon="11.7137305"><ele>130.25</ele><time>2026-04-25T06:15:23.926Z</time></trkpt><trkpt lat="45.8198533" lon="11.7136359"><ele>131.0</ele><time>2026-04-25T06:15:24.903Z</time></trkpt><trkpt lat="45.8199537" lon="11.7135481"><ele>131.0</ele><time>2026-04-25T06:15:25.923Z</time></trkpt><trkpt lat="45.8200519" lon="11.7134533"><ele>131.0</ele><time>2026-04-25T06:15:26.912Z</time></trkpt><trkpt lat="45.8201537" lon="11.7133572"><ele>131.0</ele><time>2026-04-25T06:15:27.924Z</time></trkpt><trkpt lat="45.8202587" lon="11.7132596"><ele>131.0</ele><time>2026-04-25T06:15:28.928Z</time></trkpt><trkpt lat="45.8203673" lon="11.7131602"><ele>132.25</ele><time>2026-04-25T06:15:29.924Z</time></trkpt><trkpt lat="45.8204752" lon="11.7130572"><ele>133.5</ele><time>2026-04-25T06:15:30.921Z</time></trkpt><trkpt lat="45.8205846" lon="11.7129621"><ele>134.75</ele><time>2026-04-25T06:15:31.925Z</time></trkpt><trkpt lat="45.8206956" lon="11.7128576"><ele>136.0</ele><time>2026-04-25T06:15:32.924Z</time></trkpt><trkpt lat="45.8208081" lon="11.7127563"><ele>136.0</ele><time>2026-04-25T06:15:33.922Z</time></trkpt><trkpt lat="45.8209247" lon="11.7126487"><ele>136.0</ele><time>2026-04-25T06:15:34.919Z</time></trkpt><trkpt lat="45.821041" lon="11.7125337"><ele>136.0</ele><time>2026-04-25T06:15:35.909Z</time></trkpt><trkpt lat="45.8211639" lon="11.7124167"><ele>136.0</ele><time>2026-04-25T06:15:36.917Z</time></trkpt><trkpt lat="45.821291" lon="11.7122959"><ele>136.0</ele><time>2026-04-25T06:15:37.923Z</time></trkpt><trkpt lat="45.8214202" lon="11.7121712"><ele>136.0</ele><time>2026-04-25T06:15:38.915Z</time></trkpt><trkpt lat="45.8215509" lon="11.7120413"><ele>136.0</ele><time>2026-04-25T06:15:39.922Z</time></trkpt><trkpt lat="45.8216835" lon="11.7119102"><ele>135.0</ele><time>2026-04-25T06:15:40.904Z</time></trkpt><trkpt lat="45.8219439" lon="11.7116622"><ele>134.0</ele><time>2026-04-25T06:15:42.955Z</time></trkpt><trkpt lat="45.8220667" lon="11.7115475"><ele>134.0</ele><time>2026-04-25T06:15:43.94Z</time></trkpt><trkpt lat="45.822186" lon="11.7114346"><ele>134.0</ele><time>2026-04-25T06:15:44.94Z</time></trkpt><trkpt lat="45.8223117" lon="11.7113168"><ele>134.0</ele><time>2026-04-25T06:15:45.902Z</time></trkpt><trkpt lat="45.8224419" lon="11.711197"><ele>134.0</ele><time>2026-04-25T06:15:46.922Z</time></trkpt><trkpt lat="45.8225635" lon="11.7110808"><ele>134.25</ele><time>2026-04-25T06:15:47.921Z</time></trkpt><trkpt lat="45.8226795" lon="11.7109699"><ele>134.5</ele><time>2026-04-25T06:15:48.923Z</time></trkpt><trkpt lat="45.8227967" lon="11.7108613"><ele>134.75</ele><time>2026-04-25T06:15:49.915Z</time></trkpt><trkpt lat="45.8229129" lon="11.710752"><ele>135.0</ele><time>2026-04-25T06:15:50.904Z</time></trkpt><trkpt lat="45.8230302" lon="11.7106393"><ele>135.0</ele><time>2026-04-25T06:15:51.916Z</time></trkpt><trkpt lat="45.8231513" lon="11.7105291"><ele>135.0</ele><time>2026-04-25T06:15:52.911Z</time></trkpt><trkpt lat="45.8232691" lon="11.7104088"><ele>135.0</ele><time>2026-04-25T06:15:53.919Z</time></trkpt><trkpt lat="45.8233892" lon="11.7102811"><ele>135.0</ele><time>2026-04-25T06:15:54.92Z</time></trkpt><trkpt lat="45.8235124" lon="11.7101594"><ele>135.33333333333334</ele><time>2026-04-25T06:15:55.93Z</time></trkpt><trkpt lat="45.8236323" lon="11.7100257"><ele>135.66666666666669</ele><time>2026-04-25T06:15:56.914Z</time></trkpt><trkpt lat="45.8237532" lon="11.709883"><ele>136.0</ele><time>2026-04-25T06:15:57.912Z</time></trkpt><trkpt lat="45.8238716" lon="11.7097305"><ele>136.0</ele><time>2026-04-25T06:15:58.921Z</time></trkpt><trkpt lat="45.8239846" lon="11.7095691"><ele>136.0</ele><time>2026-04-25T06:15:59.916Z</time></trkpt><trkpt lat="45.8240898" lon="11.7093989"><ele>136.0</ele><time>2026-04-25T06:16:00.92Z</time></trkpt><trkpt lat="45.8241923" lon="11.709224"><ele>135.0</ele><time>2026-04-25T06:16:01.914Z</time></trkpt><trkpt lat="45.8243905" lon="11.7088657"><ele>134.0</ele><time>2026-04-25T06:16:03.916Z</time></trkpt><trkpt lat="45.8244918" lon="11.7086878"><ele>134.0</ele><time>2026-04-25T06:16:04.918Z</time></trkpt><trkpt lat="45.8245917" lon="11.7085081"><ele>134.0</ele><time>2026-04-25T06:16:05.902Z</time></trkpt><trkpt lat="45.8246933" lon="11.7083283"><ele>134.0</ele><time>2026-04-25T06:16:06.919Z</time></trkpt><trkpt lat="45.8247923" lon="11.7081507"><ele>134.0</ele><time>2026-04-25T06:16:07.927Z</time></trkpt><trkpt lat="45.8248876" lon="11.7079775"><ele>134.0</ele><time>2026-04-25T06:16:08.912Z</time></trkpt><trkpt lat="45.8249796" lon="11.70781"><ele>134.0</ele><time>2026-04-25T06:16:09.918Z</time></trkpt><trkpt lat="45.8250686" lon="11.707647"><ele>134.0</ele><time>2026-04-25T06:16:10.923Z</time></trkpt><trkpt lat="45.8251554" lon="11.7074902"><ele>135.25</ele><time>2026-04-25T06:16:11.906Z</time></trkpt><trkpt lat="45.8252416" lon="11.7073338"><ele>136.5</ele><time>2026-04-25T06:16:12.914Z</time></trkpt><trkpt lat="45.8253177" lon="11.7071692"><ele>137.75</ele><time>2026-04-25T06:16:13.923Z</time></trkpt><trkpt lat="45.8254104" lon="11.7070265"><ele>139.0</ele><time>2026-04-25T06:16:14.91Z</time></trkpt><trkpt lat="45.8254942" lon="11.7068785"><ele>139.0</ele><time>2026-04-25T06:16:15.919Z</time></trkpt><trkpt lat="45.8255775" lon="11.7067361"><ele>139.0</ele><time>2026-04-25T06:16:16.92Z</time></trkpt><trkpt lat="45.8256632" lon="11.7065905"><ele>139.0</ele><time>2026-04-25T06:16:17.906Z</time></trkpt><trkpt lat="45.8257575" lon="11.7064411"><ele>139.0</ele><time>2026-04-25T06:16:18.928Z</time></trkpt><trkpt lat="45.8258604" lon="11.7062945"><ele>139.0</ele><time>2026-04-25T06:16:19.906Z</time></trkpt><trkpt lat="45.8259678" lon="11.7061537"><ele>139.0</ele><time>2026-04-25T06:16:20.894Z</time></trkpt><trkpt lat="45.8260855" lon="11.7060206"><ele>139.0</ele><time>2026-04-25T06:16:21.911Z</time></trkpt><trkpt lat="45.8262112" lon="11.7058975"><ele>139.0</ele><time>2026-04-25T06:16:22.909Z</time></trkpt><trkpt lat="45.8264775" lon="11.705685"><ele>138.33333333333334</ele><time>2026-04-25T06:16:24.921Z</time></trkpt><trkpt lat="45.8266165" lon="11.7055833"><ele>137.66666666666666</ele><time>2026-04-25T06:16:25.916Z</time></trkpt><trkpt lat="45.8267533" lon="11.7054828"><ele>137.0</ele><time>2026-04-25T06:16:26.921Z</time></trkpt><trkpt lat="45.8268891" lon="11.7053782"><ele>137.0</ele><time>2026-04-25T06:16:27.923Z</time></trkpt><trkpt lat="45.8270278" lon="11.7052723"><ele>137.0</ele><time>2026-04-25T06:16:28.917Z</time></trkpt><trkpt lat="45.8271675" lon="11.7051654"><ele>137.0</ele><time>2026-04-25T06:16:29.921Z</time></trkpt><trkpt lat="45.8273077" lon="11.7050551"><ele>137.66666666666666</ele><time>2026-04-25T06:16:30.916Z</time></trkpt><trkpt lat="45.8274469" lon="11.7049418"><ele>138.33333333333334</ele><time>2026-04-25T06:16:31.914Z</time></trkpt><trkpt lat="45.827586" lon="11.7048263"><ele>139.0</ele><time>2026-04-25T06:16:32.925Z</time></trkpt><trkpt lat="45.8277286" lon="11.704707"><ele>139.0</ele><time>2026-04-25T06:16:33.914Z</time></trkpt><trkpt lat="45.8278756" lon="11.7045859"><ele>139.0</ele><time>2026-04-25T06:16:34.925Z</time></trkpt><trkpt lat="45.8280258" lon="11.7044616"><ele>139.0</ele><time>2026-04-25T06:16:35.909Z</time></trkpt><trkpt lat="45.8281802" lon="11.7043369"><ele>139.0</ele><time>2026-04-25T06:16:36.924Z</time></trkpt><trkpt lat="45.8283356" lon="11.7042087"><ele>139.0</ele><time>2026-04-25T06:16:37.911Z</time></trkpt><trkpt lat="45.8284922" lon="11.7040752"><ele>139.0</ele><time>2026-04-25T06:16:38.925Z</time></trkpt><trkpt lat="45.8286508" lon="11.7039426"><ele>139.0</ele><time>2026-04-25T06:16:39.922Z</time></trkpt><trkpt lat="45.828814" lon="11.703814"><ele>139.0</ele><time>2026-04-25T06:16:40.913Z</time></trkpt><trkpt lat="45.8289776" lon="11.703683"><ele>139.0</ele><time>2026-04-25T06:16:41.915Z</time></trkpt><trkpt lat="45.8291407" lon="11.7035506"><ele>140.5</ele><time>2026-04-25T06:16:42.908Z</time></trkpt><trkpt lat="45.8293046" lon="11.7034197"><ele>142.0</ele><time>2026-04-25T06:16:43.911Z</time></trkpt><trkpt lat="45.8296324" lon="11.7031648"><ele>142.0</ele><time>2026-04-25T06:16:45.912Z</time></trkpt><trkpt lat="45.829794" lon="11.7030355"><ele>142.0</ele><time>2026-04-25T06:16:46.913Z</time></trkpt><trkpt lat="45.8299537" lon="11.7029056"><ele>142.0</ele><time>2026-04-25T06:16:47.918Z</time></trkpt><trkpt lat="45.8301123" lon="11.7027789"><ele>140.0</ele><time>2026-04-25T06:16:48.912Z</time></trkpt><trkpt lat="45.8302703" lon="11.7026554"><ele>138.0</ele><time>2026-04-25T06:16:49.906Z</time></trkpt><trkpt lat="45.830426" lon="11.7025311"><ele>136.0</ele><time>2026-04-25T06:16:50.906Z</time></trkpt><trkpt lat="45.83058" lon="11.7024055"><ele>136.0</ele><time>2026-04-25T06:16:51.909Z</time></trkpt><trkpt lat="45.830731" lon="11.7022733"><ele>136.0</ele><time>2026-04-25T06:16:52.927Z</time></trkpt><trkpt lat="45.8308775" lon="11.7021322"><ele>136.0</ele><time>2026-04-25T06:16:53.911Z</time></trkpt><trkpt lat="45.8310234" lon="11.7019798"><ele>139.33333333333334</ele><time>2026-04-25T06:16:54.914Z</time></trkpt><trkpt lat="45.8311725" lon="11.7018118"><ele>142.66666666666666</ele><time>2026-04-25T06:16:55.924Z</time></trkpt><trkpt lat="45.8313166" lon="11.7016275"><ele>146.0</ele><time>2026-04-25T06:16:56.915Z</time></trkpt><trkpt lat="45.8314559" lon="11.7014303"><ele>146.0</ele><time>2026-04-25T06:16:57.918Z</time></trkpt><trkpt lat="45.8315911" lon="11.7012216"><ele>146.0</ele><time>2026-04-25T06:16:58.918Z</time></trkpt><trkpt lat="45.8317198" lon="11.7010001"><ele>146.0</ele><time>2026-04-25T06:16:59.914Z</time></trkpt><trkpt lat="45.8318421" lon="11.7007678"><ele>147.66666666666666</ele><time>2026-04-25T06:17:00.911Z</time></trkpt><trkpt lat="45.8319561" lon="11.7005249"><ele>149.33333333333334</ele><time>2026-04-25T06:17:01.915Z</time></trkpt><trkpt lat="45.8320611" lon="11.7002764"><ele>151.0</ele><time>2026-04-25T06:17:02.925Z</time></trkpt><trkpt lat="45.8321557" lon="11.7000266"><ele>146.0</ele><time>2026-04-25T06:17:03.911Z</time></trkpt><trkpt lat="45.8322386" lon="11.699784"><ele>141.0</ele><time>2026-04-25T06:17:04.918Z</time></trkpt><trkpt lat="45.8323892" lon="11.6993147"><ele>140.66666666666666</ele><time>2026-04-25T06:17:06.929Z</time></trkpt><trkpt lat="45.8324648" lon="11.6990885"><ele>140.33333333333331</ele><time>2026-04-25T06:17:07.912Z</time></trkpt><trkpt lat="45.8325404" lon="11.6988568"><ele>140.0</ele><time>2026-04-25T06:17:08.917Z</time></trkpt><trkpt lat="45.8326192" lon="11.6986205"><ele>143.33333333333331</ele><time>2026-04-25T06:17:09.92Z</time></trkpt><trkpt lat="45.8326991" lon="11.6983917"><ele>146.66666666666666</ele><time>2026-04-25T06:17:10.907Z</time></trkpt><trkpt lat="45.8327873" lon="11.6981714"><ele>150.0</ele><time>2026-04-25T06:17:11.912Z</time></trkpt><trkpt lat="45.8328835" lon="11.6979589"><ele>150.0</ele><time>2026-04-25T06:17:12.928Z</time></trkpt><trkpt lat="45.8329881" lon="11.6977571"><ele>150.0</ele><time>2026-04-25T06:17:13.906Z</time></trkpt><trkpt lat="45.8330974" lon="11.6975646"><ele>150.0</ele><time>2026-04-25T06:17:14.91Z</time></trkpt><trkpt lat="45.8332132" lon="11.6973801"><ele>146.33333333333334</ele><time>2026-04-25T06:17:15.914Z</time></trkpt><trkpt lat="45.8333359" lon="11.6972043"><ele>142.66666666666669</ele><time>2026-04-25T06:17:16.907Z</time></trkpt><trkpt lat="45.8334647" lon="11.697036"><ele>139.0</ele><time>2026-04-25T06:17:17.908Z</time></trkpt><trkpt lat="45.8335943" lon="11.6968721"><ele>138.33333333333334</ele><time>2026-04-25T06:17:18.926Z</time></trkpt><trkpt lat="45.8337255" lon="11.6967138"><ele>137.66666666666666</ele><time>2026-04-25T06:17:19.905Z</time></trkpt><trkpt lat="45.8338533" lon="11.6965569"><ele>137.0</ele><time>2026-04-25T06:17:20.908Z</time></trkpt><trkpt lat="45.8339785" lon="11.6964003"><ele>137.0</ele><time>2026-04-25T06:17:21.903Z</time></trkpt><trkpt lat="45.8341031" lon="11.6962474"><ele>137.0</ele><time>2026-04-25T06:17:22.906Z</time></trkpt><trkpt lat="45.8342246" lon="11.6960977"><ele>137.0</ele><time>2026-04-25T06:17:23.928Z</time></trkpt><trkpt lat="45.8343447" lon="11.695949"><ele>136.5</ele><time>2026-04-25T06:17:24.916Z</time></trkpt><trkpt lat="45.8344648" lon="11.6958001"><ele>136.0</ele><time>2026-04-25T06:17:25.915Z</time></trkpt><trkpt lat="45.8347168" lon="11.6954928"><ele>136.0</ele><time>2026-04-25T06:17:27.925Z</time></trkpt><trkpt lat="45.8348441" lon="11.6953362"><ele>136.0</ele><time>2026-04-25T06:17:28.913Z</time></trkpt><trkpt lat="45.8349659" lon="11.695185"><ele>136.0</ele><time>2026-04-25T06:17:29.924Z</time></trkpt><trkpt lat="45.8350815" lon="11.6950418"><ele>137.33333333333334</ele><time>2026-04-25T06:17:30.93Z</time></trkpt><trkpt lat="45.8351957" lon="11.6949006"><ele>138.66666666666666</ele><time>2026-04-25T06:17:31.925Z</time></trkpt><trkpt lat="45.8353133" lon="11.6947545"><ele>140.0</ele><time>2026-04-25T06:17:32.911Z</time></trkpt><trkpt lat="45.8354338" lon="11.6946061"><ele>140.0</ele><time>2026-04-25T06:17:33.917Z</time></trkpt><trkpt lat="45.8355572" lon="11.6944561"><ele>140.0</ele><time>2026-04-25T06:17:34.897Z</time></trkpt><trkpt lat="45.8356806" lon="11.6943031"><ele>140.0</ele><time>2026-04-25T06:17:35.908Z</time></trkpt><trkpt lat="45.8358018" lon="11.6941529"><ele>140.25</ele><time>2026-04-25T06:17:36.921Z</time></trkpt><trkpt lat="45.8359161" lon="11.6940103"><ele>140.5</ele><time>2026-04-25T06:17:37.914Z</time></trkpt><trkpt lat="45.8360239" lon="11.6938739"><ele>140.75</ele><time>2026-04-25T06:17:38.918Z</time></trkpt><trkpt lat="45.8361322" lon="11.69374"><ele>141.0</ele><time>2026-04-25T06:17:39.91Z</time></trkpt><trkpt lat="45.8362409" lon="11.693606"><ele>140.5</ele><time>2026-04-25T06:17:40.928Z</time></trkpt><trkpt lat="45.8363509" lon="11.6934706"><ele>140.0</ele><time>2026-04-25T06:17:41.906Z</time></trkpt><trkpt lat="45.8364615" lon="11.6933345"><ele>139.5</ele><time>2026-04-25T06:17:42.922Z</time></trkpt><trkpt lat="45.8365681" lon="11.6932022"><ele>139.0</ele><time>2026-04-25T06:17:43.914Z</time></trkpt><trkpt lat="45.8366694" lon="11.693078"><ele>139.0</ele><time>2026-04-25T06:17:44.915Z</time></trkpt><trkpt lat="45.8367655" lon="11.6929598"><ele>139.0</ele><time>2026-04-25T06:17:45.918Z</time></trkpt><trkpt lat="45.8368578" lon="11.692844"><ele>139.0</ele><time>2026-04-25T06:17:46.927Z</time></trkpt><trkpt lat="45.8370447" lon="11.6926077"><ele>140.0</ele><time>2026-04-25T06:17:48.933Z</time></trkpt><trkpt lat="45.8371427" lon="11.6924877"><ele>141.0</ele><time>2026-04-25T06:17:49.915Z</time></trkpt><trkpt lat="45.837243" lon="11.6923646"><ele>142.0</ele><time>2026-04-25T06:17:50.922Z</time></trkpt><trkpt lat="45.8373447" lon="11.6922373"><ele>143.0</ele><time>2026-04-25T06:17:51.924Z</time></trkpt><trkpt lat="45.8374482" lon="11.6921084"><ele>143.0</ele><time>2026-04-25T06:17:52.912Z</time></trkpt><trkpt lat="45.8375507" lon="11.6919761"><ele>143.0</ele><time>2026-04-25T06:17:53.925Z</time></trkpt><trkpt lat="45.8376526" lon="11.6918391"><ele>143.0</ele><time>2026-04-25T06:17:54.917Z</time></trkpt><trkpt lat="45.8377531" lon="11.6916957"><ele>143.0</ele><time>2026-04-25T06:17:55.925Z</time></trkpt><trkpt lat="45.8378536" lon="11.6915446"><ele>142.66666666666666</ele><time>2026-04-25T06:17:56.918Z</time></trkpt><trkpt lat="45.8379553" lon="11.6913848"><ele>142.33333333333334</ele><time>2026-04-25T06:17:57.937Z</time></trkpt><trkpt lat="45.8380542" lon="11.6912163"><ele>142.0</ele><time>2026-04-25T06:17:58.917Z</time></trkpt><trkpt lat="45.8381512" lon="11.6910427"><ele>141.66666666666669</ele><time>2026-04-25T06:17:59.909Z</time></trkpt><trkpt lat="45.8382466" lon="11.6908668"><ele>141.33333333333334</ele><time>2026-04-25T06:18:00.927Z</time></trkpt><trkpt lat="45.8383392" lon="11.6906909"><ele>141.0</ele><time>2026-04-25T06:18:01.906Z</time></trkpt><trkpt lat="45.8384273" lon="11.6905212"><ele>141.75</ele><time>2026-04-25T06:18:02.908Z</time></trkpt><trkpt lat="45.8385137" lon="11.690357"><ele>142.5</ele><time>2026-04-25T06:18:03.915Z</time></trkpt><trkpt lat="45.8385985" lon="11.6901958"><ele>143.25</ele><time>2026-04-25T06:18:04.926Z</time></trkpt><trkpt lat="45.8386827" lon="11.6900345"><ele>144.0</ele><time>2026-04-25T06:18:05.912Z</time></trkpt><trkpt lat="45.8387665" lon="11.6898723"><ele>144.66666666666666</ele><time>2026-04-25T06:18:06.91Z</time></trkpt><trkpt lat="45.8388497" lon="11.689709"><ele>145.33333333333331</ele><time>2026-04-25T06:18:07.928Z</time></trkpt><trkpt lat="45.839017" lon="11.6893807"><ele>146.0</ele><time>2026-04-25T06:18:09.919Z</time></trkpt><trkpt lat="45.8391025" lon="11.6892159"><ele>146.5</ele><time>2026-04-25T06:18:10.919Z</time></trkpt><trkpt lat="45.8391884" lon="11.6890509"><ele>147.0</ele><time>2026-04-25T06:18:11.919Z</time></trkpt><trkpt lat="45.8392756" lon="11.6888864"><ele>147.5</ele><time>2026-04-25T06:18:12.917Z</time></trkpt><trkpt lat="45.8393625" lon="11.6887207"><ele>148.0</ele><time>2026-04-25T06:18:13.925Z</time></trkpt><trkpt lat="45.8394499" lon="11.6885544"><ele>148.5</ele><time>2026-04-25T06:18:14.919Z</time></trkpt><trkpt lat="45.8395371" lon="11.688388"><ele>149.0</ele><time>2026-04-25T06:18:15.927Z</time></trkpt><trkpt lat="45.8396233" lon="11.6882214"><ele>149.5</ele><time>2026-04-25T06:18:16.918Z</time></trkpt><trkpt lat="45.8397091" lon="11.6880561"><ele>150.0</ele><time>2026-04-25T06:18:17.914Z</time></trkpt><trkpt lat="45.8397932" lon="11.6878944"><ele>149.25</ele><time>2026-04-25T06:18:18.909Z</time></trkpt><trkpt lat="45.8398732" lon="11.687742"><ele>148.5</ele><time>2026-04-25T06:18:19.923Z</time></trkpt><trkpt lat="45.8399493" lon="11.6875938"><ele>147.75</ele><time>2026-04-25T06:18:20.915Z</time></trkpt><trkpt lat="45.8400263" lon="11.6874453"><ele>147.0</ele><time>2026-04-25T06:18:21.909Z</time></trkpt><trkpt lat="45.8401082" lon="11.6872921"><ele>146.75</ele><time>2026-04-25T06:18:22.929Z</time></trkpt><trkpt lat="45.8401944" lon="11.6871318"><ele>146.5</ele><time>2026-04-25T06:18:23.931Z</time></trkpt><trkpt lat="45.8402832" lon="11.6869646"><ele>146.25</ele><time>2026-04-25T06:18:24.929Z</time></trkpt><trkpt lat="45.8403741" lon="11.6867904"><ele>146.0</ele><time>2026-04-25T06:18:25.904Z</time></trkpt><trkpt lat="45.8404683" lon="11.6866102"><ele>146.0</ele><time>2026-04-25T06:18:26.918Z</time></trkpt><trkpt lat="45.840566" lon="11.6864258"><ele>146.0</ele><time>2026-04-25T06:18:27.917Z</time></trkpt><trkpt lat="45.840665" lon="11.6862366"><ele>146.0</ele><time>2026-04-25T06:18:28.907Z</time></trkpt><trkpt lat="45.8408657" lon="11.6858524"><ele>146.66666666666666</ele><time>2026-04-25T06:18:30.921Z</time></trkpt><trkpt lat="45.840965" lon="11.685656"><ele>147.33333333333334</ele><time>2026-04-25T06:18:31.915Z</time></trkpt><trkpt lat="45.8410601" lon="11.6854554"><ele>148.0</ele><time>2026-04-25T06:18:32.914Z</time></trkpt><trkpt lat="45.8411499" lon="11.6852511"><ele>148.0</ele><time>2026-04-25T06:18:33.917Z</time></trkpt><trkpt lat="45.8412342" lon="11.6850451"><ele>148.0</ele><time>2026-04-25T06:18:34.919Z</time></trkpt><trkpt lat="45.8413139" lon="11.684838"><ele>148.0</ele><time>2026-04-25T06:18:35.918Z</time></trkpt><trkpt lat="45.841389" lon="11.6846301"><ele>147.66666666666669</ele><time>2026-04-25T06:18:36.921Z</time></trkpt><trkpt lat="45.8414601" lon="11.6844222"><ele>147.33333333333334</ele><time>2026-04-25T06:18:37.926Z</time></trkpt><trkpt lat="45.8415274" lon="11.6842166"><ele>147.0</ele><time>2026-04-25T06:18:38.909Z</time></trkpt><trkpt lat="45.8415896" lon="11.684008"><ele>147.0</ele><time>2026-04-25T06:18:39.93Z</time></trkpt><trkpt lat="45.8416496" lon="11.6837916"><ele>147.0</ele><time>2026-04-25T06:18:40.93Z</time></trkpt><trkpt lat="45.8417095" lon="11.6835715"><ele>147.0</ele><time>2026-04-25T06:18:41.929Z</time></trkpt><trkpt lat="45.8417698" lon="11.6833509"><ele>148.66666666666666</ele><time>2026-04-25T06:18:42.921Z</time></trkpt><trkpt lat="45.841828" lon="11.6831362"><ele>150.33333333333331</ele><time>2026-04-25T06:18:43.909Z</time></trkpt><trkpt lat="45.8418826" lon="11.6829298"><ele>152.0</ele><time>2026-04-25T06:18:44.912Z</time></trkpt><trkpt lat="45.8419365" lon="11.6827284"><ele>152.0</ele><time>2026-04-25T06:18:45.93Z</time></trkpt><trkpt lat="45.8419915" lon="11.6825303"><ele>152.0</ele><time>2026-04-25T06:18:46.917Z</time></trkpt><trkpt lat="45.8420438" lon="11.6823336"><ele>152.0</ele><time>2026-04-25T06:18:47.925Z</time></trkpt><trkpt lat="45.8420955" lon="11.682139"><ele>152.0</ele><time>2026-04-25T06:18:48.92Z</time></trkpt><trkpt lat="45.8421486" lon="11.6819471"><ele>150.33333333333331</ele><time>2026-04-25T06:18:49.952Z</time></trkpt><trkpt lat="45.8422552" lon="11.6815641"><ele>148.66666666666666</ele><time>2026-04-25T06:18:51.924Z</time></trkpt><trkpt lat="45.8423095" lon="11.681372"><ele>147.0</ele><time>2026-04-25T06:18:52.928Z</time></trkpt><trkpt lat="45.8423659" lon="11.681179"><ele>145.0</ele><time>2026-04-25T06:18:53.931Z</time></trkpt><trkpt lat="45.8424224" lon="11.6809843"><ele>143.0</ele><time>2026-04-25T06:18:54.937Z</time></trkpt><trkpt lat="45.8424806" lon="11.6807885"><ele>141.0</ele><time>2026-04-25T06:18:55.919Z</time></trkpt><trkpt lat="45.8425451" lon="11.680584"><ele>141.0</ele><time>2026-04-25T06:18:56.936Z</time></trkpt><trkpt lat="45.8426182" lon="11.6803754"><ele>141.0</ele><time>2026-04-25T06:18:57.922Z</time></trkpt><trkpt lat="45.8426982" lon="11.6801636"><ele>141.0</ele><time>2026-04-25T06:18:58.94Z</time></trkpt><trkpt lat="45.8427823" lon="11.679948"><ele>142.0</ele><time>2026-04-25T06:18:59.932Z</time></trkpt><trkpt lat="45.8428697" lon="11.6797361"><ele>143.0</ele><time>2026-04-25T06:19:00.917Z</time></trkpt><trkpt lat="45.8429608" lon="11.6795242"><ele>144.0</ele><time>2026-04-25T06:19:01.929Z</time></trkpt><trkpt lat="45.8430556" lon="11.6793123"><ele>144.0</ele><time>2026-04-25T06:19:02.914Z</time></trkpt><trkpt lat="45.8431523" lon="11.679102"><ele>144.0</ele><time>2026-04-25T06:19:03.922Z</time></trkpt><trkpt lat="45.8432466" lon="11.6788949"><ele>144.0</ele><time>2026-04-25T06:19:04.915Z</time></trkpt><trkpt lat="45.8433368" lon="11.678698"><ele>143.66666666666666</ele><time>2026-04-25T06:19:05.901Z</time></trkpt><trkpt lat="45.843423" lon="11.6785114"><ele>143.33333333333331</ele><time>2026-04-25T06:19:06.917Z</time></trkpt><trkpt lat="45.8435051" lon="11.6783333"><ele>143.0</ele><time>2026-04-25T06:19:07.92Z</time></trkpt><trkpt lat="45.8435852" lon="11.6781595"><ele>143.33333333333331</ele><time>2026-04-25T06:19:08.931Z</time></trkpt><trkpt lat="45.8436638" lon="11.6779855"><ele>143.66666666666666</ele><time>2026-04-25T06:19:09.933Z</time></trkpt><trkpt lat="45.8437437" lon="11.6778119"><ele>144.0</ele><time>2026-04-25T06:19:10.935Z</time></trkpt><trkpt lat="45.8439113" lon="11.6774507"><ele>144.0</ele><time>2026-04-25T06:19:12.919Z</time></trkpt><trkpt lat="45.8439976" lon="11.6772625"><ele>144.0</ele><time>2026-04-25T06:19:13.909Z</time></trkpt><trkpt lat="45.8440856" lon="11.6770703"><ele>144.0</ele><time>2026-04-25T06:19:14.921Z</time></trkpt><trkpt lat="45.8441731" lon="11.6768732"><ele>143.66666666666666</ele><time>2026-04-25T06:19:15.92Z</time></trkpt><trkpt lat="45.8442596" lon="11.6766703"><ele>143.33333333333331</ele><time>2026-04-25T06:19:16.917Z</time></trkpt><trkpt lat="45.8443426" lon="11.6764651"><ele>143.0</ele><time>2026-04-25T06:19:17.91Z</time></trkpt><trkpt lat="45.8444227" lon="11.676263"><ele>145.66666666666666</ele><time>2026-04-25T06:19:18.921Z</time></trkpt><trkpt lat="45.8445" lon="11.676064"><ele>148.33333333333334</ele><time>2026-04-25T06:19:19.92Z</time></trkpt><trkpt lat="45.8445791" lon="11.6758774"><ele>151.0</ele><time>2026-04-25T06:19:20.909Z</time></trkpt><trkpt lat="45.8446594" lon="11.6757059"><ele>151.0</ele><time>2026-04-25T06:19:21.924Z</time></trkpt><trkpt lat="45.8447418" lon="11.6755466"><ele>151.0</ele><time>2026-04-25T06:19:22.91Z</time></trkpt><trkpt lat="45.8448253" lon="11.6754037"><ele>151.0</ele><time>2026-04-25T06:19:23.919Z</time></trkpt><trkpt lat="45.8449152" lon="11.6752702"><ele>151.0</ele><time>2026-04-25T06:19:24.921Z</time></trkpt><trkpt lat="45.8450064" lon="11.6751487"><ele>151.0</ele><time>2026-04-25T06:19:25.906Z</time></trkpt><trkpt lat="45.8451132" lon="11.6750306"><ele>151.0</ele><time>2026-04-25T06:19:26.922Z</time></trkpt><trkpt lat="45.8452174" lon="11.6749133"><ele>151.0</ele><time>2026-04-25T06:19:27.917Z</time></trkpt><trkpt lat="45.8453207" lon="11.6748004"><ele>151.0</ele><time>2026-04-25T06:19:28.922Z</time></trkpt><trkpt lat="45.8454259" lon="11.6746828"><ele>151.0</ele><time>2026-04-25T06:19:29.918Z</time></trkpt><trkpt lat="45.8455335" lon="11.6745563"><ele>151.0</ele><time>2026-04-25T06:19:30.928Z</time></trkpt><trkpt lat="45.845651" lon="11.6744256"><ele>151.0</ele><time>2026-04-25T06:19:31.938Z</time></trkpt><trkpt lat="45.8458612" lon="11.6741867"><ele>152.0</ele><time>2026-04-25T06:19:33.929Z</time></trkpt><trkpt lat="45.8459581" lon="11.674082"><ele>153.0</ele><time>2026-04-25T06:19:34.92Z</time></trkpt><trkpt lat="45.8460521" lon="11.6739778"><ele>154.0</ele><time>2026-04-25T06:19:35.915Z</time></trkpt><trkpt lat="45.846139" lon="11.6738502"><ele>155.0</ele><time>2026-04-25T06:19:36.91Z</time></trkpt><trkpt lat="45.8462175" lon="11.6736902"><ele>154.25</ele><time>2026-04-25T06:19:37.914Z</time></trkpt><trkpt lat="45.8462799" lon="11.6735127"><ele>153.5</ele><time>2026-04-25T06:19:38.908Z</time></trkpt><trkpt lat="45.8463276" lon="11.6733458"><ele>152.75</ele><time>2026-04-25T06:19:39.908Z</time></trkpt><trkpt lat="45.8463701" lon="11.6731917"><ele>152.0</ele><time>2026-04-25T06:19:40.92Z</time></trkpt><trkpt lat="45.8464117" lon="11.6730481"><ele>152.0</ele><time>2026-04-25T06:19:41.92Z</time></trkpt><trkpt lat="45.8464534" lon="11.6729153"><ele>152.0</ele><time>2026-04-25T06:19:42.911Z</time></trkpt><trkpt lat="45.8465035" lon="11.6727862"><ele>152.0</ele><time>2026-04-25T06:19:43.907Z</time></trkpt><trkpt lat="45.8465626" lon="11.6726716"><ele>152.0</ele><time>2026-04-25T06:19:44.916Z</time></trkpt><trkpt lat="45.8466294" lon="11.6725663"><ele>152.0</ele><time>2026-04-25T06:19:45.91Z</time></trkpt><trkpt lat="45.8466938" lon="11.6724689"><ele>154.0</ele><time>2026-04-25T06:19:46.921Z</time></trkpt><trkpt lat="45.8467666" lon="11.6723608"><ele>156.0</ele><time>2026-04-25T06:19:47.924Z</time></trkpt><trkpt lat="45.8468433" lon="11.672248"><ele>158.0</ele><time>2026-04-25T06:19:48.92Z</time></trkpt><trkpt lat="45.8469204" lon="11.6721458"><ele>160.0</ele><time>2026-04-25T06:19:49.916Z</time></trkpt><trkpt lat="45.8470076" lon="11.6720422"><ele>162.0</ele><time>2026-04-25T06:19:50.924Z</time></trkpt><trkpt lat="45.8471042" lon="11.6719403"><ele>157.0</ele><time>2026-04-25T06:19:51.922Z</time></trkpt><trkpt lat="45.8472108" lon="11.6718446"><ele>152.0</ele><time>2026-04-25T06:19:52.918Z</time></trkpt><trkpt lat="45.84744" lon="11.6716536"><ele>147.0</ele><time>2026-04-25T06:19:54.908Z</time></trkpt><trkpt lat="45.847555" lon="11.6715576"><ele>150.75</ele><time>2026-04-25T06:19:55.914Z</time></trkpt><trkpt lat="45.8476691" lon="11.6714511"><ele>154.5</ele><time>2026-04-25T06:19:56.902Z</time></trkpt><trkpt lat="45.8477814" lon="11.6713403"><ele>158.25</ele><time>2026-04-25T06:19:57.921Z</time></trkpt><trkpt lat="45.8478968" lon="11.6712266"><ele>162.0</ele><time>2026-04-25T06:19:58.925Z</time></trkpt><trkpt lat="45.8480088" lon="11.6711111"><ele>158.75</ele><time>2026-04-25T06:19:59.921Z</time></trkpt><trkpt lat="45.8481187" lon="11.6710007"><ele>155.5</ele><time>2026-04-25T06:20:00.918Z</time></trkpt><trkpt lat="45.8482118" lon="11.6708989"><ele>152.25</ele><time>2026-04-25T06:20:01.904Z</time></trkpt><trkpt lat="45.8483012" lon="11.6707989"><ele>149.0</ele><time>2026-04-25T06:20:02.915Z</time></trkpt><trkpt lat="45.8483893" lon="11.6707038"><ele>153.5</ele><time>2026-04-25T06:20:03.923Z</time></trkpt><trkpt lat="45.848479" lon="11.6706042"><ele>158.0</ele><time>2026-04-25T06:20:04.919Z</time></trkpt><trkpt lat="45.8485724" lon="11.6705057"><ele>162.5</ele><time>2026-04-25T06:20:05.903Z</time></trkpt><trkpt lat="45.8486722" lon="11.6704053"><ele>167.0</ele><time>2026-04-25T06:20:06.919Z</time></trkpt><trkpt lat="45.8487745" lon="11.6703039"><ele>162.5</ele><time>2026-04-25T06:20:07.898Z</time></trkpt><trkpt lat="45.8488861" lon="11.6701998"><ele>158.0</ele><time>2026-04-25T06:20:08.916Z</time></trkpt><trkpt lat="45.8490036" lon="11.6700962"><ele>153.5</ele><time>2026-04-25T06:20:09.923Z</time></trkpt><trkpt lat="45.8491251" lon="11.6699971"><ele>149.0</ele><time>2026-04-25T06:20:10.928Z</time></trkpt><trkpt lat="45.8492514" lon="11.6699006"><ele>155.33333333333331</ele><time>2026-04-25T06:20:11.913Z</time></trkpt><trkpt lat="45.8493789" lon="11.6698084"><ele>161.66666666666666</ele><time>2026-04-25T06:20:12.923Z</time></trkpt><trkpt lat="45.8495052" lon="11.6697198"><ele>168.0</ele><time>2026-04-25T06:20:13.896Z</time></trkpt><trkpt lat="45.8497543" lon="11.6695493"><ele>168.0</ele><time>2026-04-25T06:20:15.901Z</time></trkpt><trkpt lat="45.8498768" lon="11.6694631"><ele>168.0</ele><time>2026-04-25T06:20:16.917Z</time></trkpt><trkpt lat="45.8500027" lon="11.6693791"><ele>168.0</ele><time>2026-04-25T06:20:17.923Z</time></trkpt><trkpt lat="45.8501325" lon="11.6692955"><ele>168.0</ele><time>2026-04-25T06:20:18.9Z</time></trkpt><trkpt lat="45.850263" lon="11.669211"><ele>164.33333333333334</ele><time>2026-04-25T06:20:19.914Z</time></trkpt><trkpt lat="45.850402" lon="11.6691199"><ele>160.66666666666669</ele><time>2026-04-25T06:20:20.912Z</time></trkpt><trkpt lat="45.8505432" lon="11.6690302"><ele>157.0</ele><time>2026-04-25T06:20:21.913Z</time></trkpt><trkpt lat="45.8506881" lon="11.6689395"><ele>157.0</ele><time>2026-04-25T06:20:22.935Z</time></trkpt><trkpt lat="45.850836" lon="11.6688456"><ele>157.0</ele><time>2026-04-25T06:20:23.935Z</time></trkpt><trkpt lat="45.8509849" lon="11.6687513"><ele>157.0</ele><time>2026-04-25T06:20:24.931Z</time></trkpt><trkpt lat="45.8511359" lon="11.6686565"><ele>154.33333333333334</ele><time>2026-04-25T06:20:25.908Z</time></trkpt><trkpt lat="45.8512877" lon="11.6685604"><ele>151.66666666666666</ele><time>2026-04-25T06:20:26.918Z</time></trkpt><trkpt lat="45.8514401" lon="11.6684621"><ele>149.0</ele><time>2026-04-25T06:20:27.91Z</time></trkpt><trkpt lat="45.8515938" lon="11.6683633"><ele>149.0</ele><time>2026-04-25T06:20:28.908Z</time></trkpt><trkpt lat="45.8517458" lon="11.6682568"><ele>149.0</ele><time>2026-04-25T06:20:29.919Z</time></trkpt><trkpt lat="45.8518947" lon="11.6681396"><ele>149.0</ele><time>2026-04-25T06:20:30.918Z</time></trkpt><trkpt lat="45.852038" lon="11.6680082"><ele>148.33333333333331</ele><time>2026-04-25T06:20:31.916Z</time></trkpt><trkpt lat="45.8521782" lon="11.6678693"><ele>147.66666666666666</ele><time>2026-04-25T06:20:32.914Z</time></trkpt><trkpt lat="45.852315" lon="11.6677241"><ele>147.0</ele><time>2026-04-25T06:20:33.912Z</time></trkpt><trkpt lat="45.8524498" lon="11.6675773"><ele>151.5</ele><time>2026-04-25T06:20:34.921Z</time></trkpt><trkpt lat="45.852709" lon="11.6672783"><ele>156.0</ele><time>2026-04-25T06:20:36.914Z</time></trkpt><trkpt lat="45.8528279" lon="11.6671191"><ele>156.0</ele><time>2026-04-25T06:20:37.916Z</time></trkpt><trkpt lat="45.8529417" lon="11.6669559"><ele>156.0</ele><time>2026-04-25T06:20:38.918Z</time></trkpt><trkpt lat="45.8530539" lon="11.6667879"><ele>156.0</ele><time>2026-04-25T06:20:39.924Z</time></trkpt><trkpt lat="45.853166" lon="11.6666204"><ele>156.33333333333334</ele><time>2026-04-25T06:20:40.914Z</time></trkpt><trkpt lat="45.8532771" lon="11.6664535"><ele>156.66666666666669</ele><time>2026-04-25T06:20:41.907Z</time></trkpt><trkpt lat="45.8533868" lon="11.6662869"><ele>157.0</ele><time>2026-04-25T06:20:42.928Z</time></trkpt><trkpt lat="45.8534961" lon="11.6661217"><ele>154.66666666666669</ele><time>2026-04-25T06:20:43.924Z</time></trkpt><trkpt lat="45.8536068" lon="11.6659585"><ele>152.33333333333334</ele><time>2026-04-25T06:20:44.917Z</time></trkpt><trkpt lat="45.8537261" lon="11.665803"><ele>150.0</ele><time>2026-04-25T06:20:45.912Z</time></trkpt><trkpt lat="45.8538545" lon="11.6656557"><ele>150.0</ele><time>2026-04-25T06:20:46.913Z</time></trkpt><trkpt lat="45.8539891" lon="11.665513"><ele>150.0</ele><time>2026-04-25T06:20:47.914Z</time></trkpt><trkpt lat="45.8541284" lon="11.6653753"><ele>150.0</ele><time>2026-04-25T06:20:48.906Z</time></trkpt><trkpt lat="45.8542707" lon="11.6652415"><ele>153.66666666666666</ele><time>2026-04-25T06:20:49.91Z</time></trkpt><trkpt lat="45.854413" lon="11.6651132"><ele>157.33333333333331</ele><time>2026-04-25T06:20:50.925Z</time></trkpt><trkpt lat="45.8545539" lon="11.6649895"><ele>161.0</ele><time>2026-04-25T06:20:51.91Z</time></trkpt><trkpt lat="45.8546955" lon="11.664872"><ele>161.0</ele><time>2026-04-25T06:20:52.9Z</time></trkpt><trkpt lat="45.8548418" lon="11.6647649"><ele>161.0</ele><time>2026-04-25T06:20:53.915Z</time></trkpt><trkpt lat="45.8549857" lon="11.6646627"><ele>161.0</ele><time>2026-04-25T06:20:54.907Z</time></trkpt><trkpt lat="45.8551308" lon="11.6645596"><ele>157.5</ele><time>2026-04-25T06:20:55.913Z</time></trkpt><trkpt lat="45.8554243" lon="11.6643489"><ele>154.0</ele><time>2026-04-25T06:20:57.916Z</time></trkpt><trkpt lat="45.8555738" lon="11.6642466"><ele>154.0</ele><time>2026-04-25T06:20:58.915Z</time></trkpt><trkpt lat="45.8557176" lon="11.6641411"><ele>154.0</ele><time>2026-04-25T06:20:59.918Z</time></trkpt><trkpt lat="45.8558603" lon="11.6640318"><ele>154.0</ele><time>2026-04-25T06:21:00.917Z</time></trkpt><trkpt lat="45.8559899" lon="11.6639136"><ele>156.33333333333334</ele><time>2026-04-25T06:21:01.92Z</time></trkpt><trkpt lat="45.8561154" lon="11.6637611"><ele>158.66666666666666</ele><time>2026-04-25T06:21:02.918Z</time></trkpt><trkpt lat="45.8562378" lon="11.6636122"><ele>161.0</ele><time>2026-04-25T06:21:03.917Z</time></trkpt><trkpt lat="45.8563414" lon="11.6634431"><ele>161.0</ele><time>2026-04-25T06:21:04.91Z</time></trkpt><trkpt lat="45.856446" lon="11.6633036"><ele>161.0</ele><time>2026-04-25T06:21:05.927Z</time></trkpt><trkpt lat="45.8565384" lon="11.6631779"><ele>161.0</ele><time>2026-04-25T06:21:06.898Z</time></trkpt><trkpt lat="45.8566311" lon="11.6630395"><ele>161.0</ele><time>2026-04-25T06:21:07.922Z</time></trkpt><trkpt lat="45.8567141" lon="11.6629126"><ele>161.0</ele><time>2026-04-25T06:21:08.899Z</time></trkpt><trkpt lat="45.8567848" lon="11.6628043"><ele>161.0</ele><time>2026-04-25T06:21:09.912Z</time></trkpt><trkpt lat="45.8568489" lon="11.6627059"><ele>161.0</ele><time>2026-04-25T06:21:10.904Z</time></trkpt><trkpt lat="45.8569151" lon="11.6625993"><ele>161.0</ele><time>2026-04-25T06:21:11.915Z</time></trkpt><trkpt lat="45.8569839" lon="11.6625005"><ele>161.0</ele><time>2026-04-25T06:21:12.908Z</time></trkpt><trkpt lat="45.8570515" lon="11.6624041"><ele>161.75</ele><time>2026-04-25T06:21:13.917Z</time></trkpt><trkpt lat="45.8571142" lon="11.662309"><ele>162.5</ele><time>2026-04-25T06:21:14.91Z</time></trkpt><trkpt lat="45.8571733" lon="11.6622215"><ele>163.25</ele><time>2026-04-25T06:21:15.918Z</time></trkpt><trkpt lat="45.8572256" lon="11.6621479"><ele>164.0</ele><time>2026-04-25T06:21:16.921Z</time></trkpt><trkpt lat="45.8573728" lon="11.661951"><ele>162.25</ele><time>2026-04-25T06:21:20.913Z</time></trkpt><trkpt lat="45.8574289" lon="11.6618964"><ele>160.5</ele><time>2026-04-25T06:21:22.915Z</time></trkpt><trkpt lat="45.8575182" lon="11.6618223"><ele>158.75</ele><time>2026-04-25T06:22:19.895Z</time></trkpt><trkpt lat="45.8576689" lon="11.661699"><ele>157.0</ele><time>2026-04-25T06:22:23.913Z</time></trkpt><trkpt lat="45.8577668" lon="11.6616124"><ele>157.0</ele><time>2026-04-25T06:22:25.917Z</time></trkpt><trkpt lat="45.8578233" lon="11.6615599"><ele>157.0</ele><time>2026-04-25T06:22:26.911Z</time></trkpt><trkpt lat="45.8578882" lon="11.6615024"><ele>157.0</ele><time>2026-04-25T06:22:27.904Z</time></trkpt><trkpt lat="45.85796" lon="11.6614419"><ele>157.0</ele><time>2026-04-25T06:22:28.902Z</time></trkpt><trkpt lat="45.858037" lon="11.6613842"><ele>157.0</ele><time>2026-04-25T06:22:29.911Z</time></trkpt><trkpt lat="45.8581154" lon="11.6613163"><ele>157.0</ele><time>2026-04-25T06:22:30.915Z</time></trkpt><trkpt lat="45.8581925" lon="11.661246"><ele>157.0</ele><time>2026-04-25T06:22:31.92Z</time></trkpt><trkpt lat="45.8582778" lon="11.6611798"><ele>157.0</ele><time>2026-04-25T06:22:32.911Z</time></trkpt><trkpt lat="45.858361" lon="11.6611074"><ele>157.0</ele><time>2026-04-25T06:22:33.913Z</time></trkpt><trkpt lat="45.8584511" lon="11.6610376"><ele>157.0</ele><time>2026-04-25T06:22:34.902Z</time></trkpt><trkpt lat="45.8585447" lon="11.6609842"><ele>157.0</ele><time>2026-04-25T06:22:35.927Z</time></trkpt><trkpt lat="45.8586412" lon="11.6609219"><ele>156.5</ele><time>2026-04-25T06:22:36.941Z</time></trkpt><trkpt lat="45.8587369" lon="11.660879"><ele>156.0</ele><time>2026-04-25T06:22:37.911Z</time></trkpt><trkpt lat="45.8588439" lon="11.6608417"><ele>155.5</ele><time>2026-04-25T06:22:38.921Z</time></trkpt><trkpt lat="45.8589603" lon="11.6608074"><ele>155.0</ele><time>2026-04-25T06:22:39.916Z</time></trkpt><trkpt lat="45.8590897" lon="11.6607819"><ele>155.0</ele><time>2026-04-25T06:22:40.912Z</time></trkpt><trkpt lat="45.8593551" lon="11.6607505"><ele>155.0</ele><time>2026-04-25T06:22:42.924Z</time></trkpt><trkpt lat="45.8594764" lon="11.6607429"><ele>155.0</ele><time>2026-04-25T06:22:43.916Z</time></trkpt><trkpt lat="45.859596" lon="11.6607382"><ele>155.0</ele><time>2026-04-25T06:22:44.92Z</time></trkpt><trkpt lat="45.8597191" lon="11.6607334"><ele>155.0</ele><time>2026-04-25T06:22:45.914Z</time></trkpt><trkpt lat="45.8598459" lon="11.6607302"><ele>155.0</ele><time>2026-04-25T06:22:46.944Z</time></trkpt><trkpt lat="45.8599782" lon="11.6607289"><ele>155.0</ele><time>2026-04-25T06:22:47.93Z</time></trkpt><trkpt lat="45.8601121" lon="11.660726"><ele>155.5</ele><time>2026-04-25T06:22:48.927Z</time></trkpt><trkpt lat="45.8602491" lon="11.660726"><ele>156.0</ele><time>2026-04-25T06:22:49.91Z</time></trkpt><trkpt lat="45.8603883" lon="11.6607294"><ele>156.5</ele><time>2026-04-25T06:22:50.908Z</time></trkpt><trkpt lat="45.860528" lon="11.6607372"><ele>157.0</ele><time>2026-04-25T06:22:51.92Z</time></trkpt><trkpt lat="45.8606709" lon="11.6607492"><ele>157.0</ele><time>2026-04-25T06:22:52.904Z</time></trkpt><trkpt lat="45.8608202" lon="11.6607662"><ele>157.0</ele><time>2026-04-25T06:22:53.909Z</time></trkpt><trkpt lat="45.8609734" lon="11.6607852"><ele>157.0</ele><time>2026-04-25T06:22:54.909Z</time></trkpt><trkpt lat="45.8611306" lon="11.6608128"><ele>157.0</ele><time>2026-04-25T06:22:55.922Z</time></trkpt><trkpt lat="45.8612848" lon="11.6608476"><ele>157.0</ele><time>2026-04-25T06:22:56.918Z</time></trkpt><trkpt lat="45.8614366" lon="11.660889"><ele>157.0</ele><time>2026-04-25T06:22:57.912Z</time></trkpt><trkpt lat="45.8615878" lon="11.6609378"><ele>157.0</ele><time>2026-04-25T06:22:58.907Z</time></trkpt><trkpt lat="45.8617367" lon="11.6609897"><ele>157.0</ele><time>2026-04-25T06:22:59.9Z</time></trkpt><trkpt lat="45.861885" lon="11.6610412"><ele>157.0</ele><time>2026-04-25T06:23:00.912Z</time></trkpt><trkpt lat="45.8620339" lon="11.6610929"><ele>157.0</ele><time>2026-04-25T06:23:01.913Z</time></trkpt><trkpt lat="45.8623387" lon="11.6611909"><ele>157.0</ele><time>2026-04-25T06:23:03.916Z</time></trkpt><trkpt lat="45.8624934" lon="11.6612541"><ele>156.66666666666669</ele><time>2026-04-25T06:23:04.914Z</time></trkpt><trkpt lat="45.8626475" lon="11.6613245"><ele>156.33333333333334</ele><time>2026-04-25T06:23:05.899Z</time></trkpt><trkpt lat="45.8627931" lon="11.6613949"><ele>156.0</ele><time>2026-04-25T06:23:06.915Z</time></trkpt><trkpt lat="45.8629363" lon="11.6614719"><ele>156.0</ele><time>2026-04-25T06:23:07.909Z</time></trkpt><trkpt lat="45.8630872" lon="11.6615577"><ele>156.0</ele><time>2026-04-25T06:23:08.907Z</time></trkpt><trkpt lat="45.8632449" lon="11.6616486"><ele>156.0</ele><time>2026-04-25T06:23:09.912Z</time></trkpt><trkpt lat="45.8634039" lon="11.6617389"><ele>155.33333333333334</ele><time>2026-04-25T06:23:10.903Z</time></trkpt><trkpt lat="45.863555" lon="11.6618271"><ele>154.66666666666669</ele><time>2026-04-25T06:23:11.916Z</time></trkpt><trkpt lat="45.863707" lon="11.6619285"><ele>154.0</ele><time>2026-04-25T06:23:12.912Z</time></trkpt><trkpt lat="45.8638601" lon="11.6620411"><ele>153.66666666666669</ele><time>2026-04-25T06:23:13.92Z</time></trkpt><trkpt lat="45.8640105" lon="11.6621683"><ele>153.33333333333334</ele><time>2026-04-25T06:23:14.906Z</time></trkpt><trkpt lat="45.8641618" lon="11.6623053"><ele>153.0</ele><time>2026-04-25T06:23:15.915Z</time></trkpt><trkpt lat="45.864314" lon="11.662446"><ele>153.0</ele><time>2026-04-25T06:23:16.905Z</time></trkpt><trkpt lat="45.8644646" lon="11.6625873"><ele>153.0</ele><time>2026-04-25T06:23:17.91Z</time></trkpt><trkpt lat="45.8646128" lon="11.6627348"><ele>153.0</ele><time>2026-04-25T06:23:18.905Z</time></trkpt><trkpt lat="45.8647555" lon="11.662894"><ele>152.0</ele><time>2026-04-25T06:23:19.916Z</time></trkpt><trkpt lat="45.8648906" lon="11.6630636"><ele>151.0</ele><time>2026-04-25T06:23:20.896Z</time></trkpt><trkpt lat="45.8650195" lon="11.6632468"><ele>150.0</ele><time>2026-04-25T06:23:21.902Z</time></trkpt><trkpt lat="45.8651407" lon="11.6634423"><ele>150.5</ele><time>2026-04-25T06:23:22.925Z</time></trkpt><trkpt lat="45.8653728" lon="11.6638536"><ele>151.0</ele><time>2026-04-25T06:23:24.916Z</time></trkpt><trkpt lat="45.8654846" lon="11.6640618"><ele>151.0</ele><time>2026-04-25T06:23:25.915Z</time></trkpt><trkpt lat="45.8655985" lon="11.6642704"><ele>151.0</ele><time>2026-04-25T06:23:26.914Z</time></trkpt><trkpt lat="45.8657133" lon="11.6644783"><ele>151.0</ele><time>2026-04-25T06:23:27.906Z</time></trkpt><trkpt lat="45.8658335" lon="11.6646838"><ele>151.66666666666669</ele><time>2026-04-25T06:23:28.929Z</time></trkpt><trkpt lat="45.8659587" lon="11.664882"><ele>152.33333333333334</ele><time>2026-04-25T06:23:29.922Z</time></trkpt><trkpt lat="45.8660904" lon="11.6650743"><ele>153.0</ele><time>2026-04-25T06:23:30.915Z</time></trkpt><trkpt lat="45.8662288" lon="11.6652608"><ele>156.66666666666666</ele><time>2026-04-25T06:23:31.916Z</time></trkpt><trkpt lat="45.866375" lon="11.6654426"><ele>160.33333333333331</ele><time>2026-04-25T06:23:32.908Z</time></trkpt><trkpt lat="45.86653" lon="11.6656247"><ele>164.0</ele><time>2026-04-25T06:23:33.901Z</time></trkpt><trkpt lat="45.8666858" lon="11.6658077"><ele>162.0</ele><time>2026-04-25T06:23:34.898Z</time></trkpt><trkpt lat="45.8668548" lon="11.6660008"><ele>160.0</ele><time>2026-04-25T06:23:35.912Z</time></trkpt><trkpt lat="45.8670244" lon="11.6661914"><ele>158.0</ele><time>2026-04-25T06:23:36.921Z</time></trkpt><trkpt lat="45.8671884" lon="11.6663827"><ele>160.0</ele><time>2026-04-25T06:23:37.923Z</time></trkpt><trkpt lat="45.8673597" lon="11.6665779"><ele>162.0</ele><time>2026-04-25T06:23:38.909Z</time></trkpt><trkpt lat="45.8675323" lon="11.6667754"><ele>164.0</ele><time>2026-04-25T06:23:39.911Z</time></trkpt><trkpt lat="45.8676999" lon="11.6669747"><ele>164.0</ele><time>2026-04-25T06:23:40.919Z</time></trkpt><trkpt lat="45.8678681" lon="11.66718"><ele>164.0</ele><time>2026-04-25T06:23:41.913Z</time></trkpt><trkpt lat="45.8680311" lon="11.6673954"><ele>164.0</ele><time>2026-04-25T06:23:42.919Z</time></trkpt><trkpt lat="45.8681906" lon="11.6676141"><ele>160.0</ele><time>2026-04-25T06:23:43.915Z</time></trkpt><trkpt lat="45.8685037" lon="11.6680573"><ele>156.0</ele><time>2026-04-25T06:23:45.899Z</time></trkpt><trkpt lat="45.8686603" lon="11.6682762"><ele>156.0</ele><time>2026-04-25T06:23:46.921Z</time></trkpt><trkpt lat="45.8688153" lon="11.6684955"><ele>156.0</ele><time>2026-04-25T06:23:47.904Z</time></trkpt><trkpt lat="45.8689718" lon="11.6687145"><ele>156.0</ele><time>2026-04-25T06:23:48.907Z</time></trkpt><trkpt lat="45.8691289" lon="11.6689414"><ele>155.5</ele><time>2026-04-25T06:23:49.923Z</time></trkpt><trkpt lat="45.8692873" lon="11.669173"><ele>155.0</ele><time>2026-04-25T06:23:50.905Z</time></trkpt><trkpt lat="45.8694475" lon="11.6694107"><ele>160.5</ele><time>2026-04-25T06:23:51.916Z</time></trkpt><trkpt lat="45.8696091" lon="11.6696468"><ele>166.0</ele><time>2026-04-25T06:23:52.916Z</time></trkpt><trkpt lat="45.8697738" lon="11.669885"><ele>166.0</ele><time>2026-04-25T06:23:53.914Z</time></trkpt><trkpt lat="45.8699391" lon="11.6701238"><ele>166.0</ele><time>2026-04-25T06:23:54.904Z</time></trkpt><trkpt lat="45.8701044" lon="11.6703606"><ele>162.5</ele><time>2026-04-25T06:23:55.92Z</time></trkpt><trkpt lat="45.8702701" lon="11.6705964"><ele>159.0</ele><time>2026-04-25T06:23:56.911Z</time></trkpt><trkpt lat="45.8704332" lon="11.6708349"><ele>159.0</ele><time>2026-04-25T06:23:57.913Z</time></trkpt><trkpt lat="45.8705964" lon="11.671074"><ele>159.0</ele><time>2026-04-25T06:23:58.902Z</time></trkpt><trkpt lat="45.8707589" lon="11.6713116"><ele>158.0</ele><time>2026-04-25T06:23:59.924Z</time></trkpt><trkpt lat="45.8709226" lon="11.6715469"><ele>157.0</ele><time>2026-04-25T06:24:00.914Z</time></trkpt><trkpt lat="45.8710892" lon="11.6717767"><ele>159.0</ele><time>2026-04-25T06:24:01.918Z</time></trkpt><trkpt lat="45.8712573" lon="11.6720061"><ele>161.0</ele><time>2026-04-25T06:24:02.91Z</time></trkpt><trkpt lat="45.8714221" lon="11.6722342"><ele>161.0</ele><time>2026-04-25T06:24:03.909Z</time></trkpt><trkpt lat="45.8715858" lon="11.6724644"><ele>161.0</ele><time>2026-04-25T06:24:04.925Z</time></trkpt><trkpt lat="45.8718913" lon="11.6729457"><ele>158.5</ele><time>2026-04-25T06:24:06.934Z</time></trkpt><trkpt lat="45.8720204" lon="11.6732121"><ele>156.0</ele><time>2026-04-25T06:24:07.915Z</time></trkpt><trkpt lat="45.8721361" lon="11.6735035"><ele>158.0</ele><time>2026-04-25T06:24:08.908Z</time></trkpt><trkpt lat="45.8722394" lon="11.6738168"><ele>160.0</ele><time>2026-04-25T06:24:09.913Z</time></trkpt><trkpt lat="45.8723176" lon="11.6741515"><ele>163.0</ele><time>2026-04-25T06:24:10.914Z</time></trkpt><trkpt lat="45.8723894" lon="11.6745018"><ele>166.0</ele><time>2026-04-25T06:24:11.912Z</time></trkpt><trkpt lat="45.8724793" lon="11.6748182"><ele>166.0</ele><time>2026-04-25T06:24:12.925Z</time></trkpt><trkpt lat="45.8725841" lon="11.6751015"><ele>166.0</ele><time>2026-04-25T06:24:13.919Z</time></trkpt><trkpt lat="45.8727006" lon="11.6753591"><ele>166.0</ele><time>2026-04-25T06:24:14.907Z</time></trkpt><trkpt lat="45.872831" lon="11.6756022"><ele>167.33333333333334</ele><time>2026-04-25T06:24:15.91Z</time></trkpt><trkpt lat="45.8729759" lon="11.6758282"><ele>168.66666666666666</ele><time>2026-04-25T06:24:16.908Z</time></trkpt><trkpt lat="45.8731352" lon="11.6760368"><ele>170.0</ele><time>2026-04-25T06:24:17.91Z</time></trkpt><trkpt lat="45.8733025" lon="11.6762232"><ele>175.66666666666666</ele><time>2026-04-25T06:24:18.913Z</time></trkpt><trkpt lat="45.8734781" lon="11.6763913"><ele>181.33333333333334</ele><time>2026-04-25T06:24:19.916Z</time></trkpt><trkpt lat="45.8736571" lon="11.6765422"><ele>187.0</ele><time>2026-04-25T06:24:20.906Z</time></trkpt><trkpt lat="45.873854" lon="11.6766933"><ele>187.0</ele><time>2026-04-25T06:24:21.915Z</time></trkpt><trkpt lat="45.8740638" lon="11.6768596"><ele>187.0</ele><time>2026-04-25T06:24:22.914Z</time></trkpt><trkpt lat="45.8742797" lon="11.6770332"><ele>208.0</ele><time>2026-04-25T06:24:23.909Z</time></trkpt><trkpt lat="45.8744871" lon="11.67719"><ele>229.0</ele><time>2026-04-25T06:24:24.912Z</time></trkpt><trkpt lat="45.8746922" lon="11.6773226"><ele>229.0</ele><time>2026-04-25T06:24:25.91Z</time></trkpt><trkpt lat="45.8751002" lon="11.6775336"><ele>229.0</ele><time>2026-04-25T06:24:27.916Z</time></trkpt><trkpt lat="45.8753035" lon="11.6776168"><ele>217.33333333333331</ele><time>2026-04-25T06:24:28.909Z</time></trkpt><trkpt lat="45.8755023" lon="11.677711"><ele>205.66666666666669</ele><time>2026-04-25T06:24:29.905Z</time></trkpt><trkpt lat="45.8757022" lon="11.6778242"><ele>194.0</ele><time>2026-04-25T06:24:30.915Z</time></trkpt><trkpt lat="45.8758937" lon="11.6779507"><ele>188.0</ele><time>2026-04-25T06:24:31.913Z</time></trkpt><trkpt lat="45.8760929" lon="11.6780782"><ele>182.0</ele><time>2026-04-25T06:24:32.923Z</time></trkpt><trkpt lat="45.8762864" lon="11.6782169"><ele>176.0</ele><time>2026-04-25T06:24:33.898Z</time></trkpt><trkpt lat="45.8764832" lon="11.6783517"><ele>176.0</ele><time>2026-04-25T06:24:34.916Z</time></trkpt><trkpt lat="45.8766787" lon="11.6784945"><ele>176.0</ele><time>2026-04-25T06:24:35.908Z</time></trkpt><trkpt lat="45.8768735" lon="11.6786334"><ele>176.0</ele><time>2026-04-25T06:24:36.907Z</time></trkpt><trkpt lat="45.8770655" lon="11.6787935"><ele>178.0</ele><time>2026-04-25T06:24:37.923Z</time></trkpt><trkpt lat="45.8772562" lon="11.6789597"><ele>180.0</ele><time>2026-04-25T06:24:38.909Z</time></trkpt><trkpt lat="45.8774481" lon="11.6791271"><ele>182.0</ele><time>2026-04-25T06:24:39.902Z</time></trkpt><trkpt lat="45.8776405" lon="11.6792865"><ele>183.33333333333331</ele><time>2026-04-25T06:24:40.923Z</time></trkpt><trkpt lat="45.8778359" lon="11.6794399"><ele>184.66666666666666</ele><time>2026-04-25T06:24:41.906Z</time></trkpt><trkpt lat="45.8780374" lon="11.6795784"><ele>186.0</ele><time>2026-04-25T06:24:42.915Z</time></trkpt><trkpt lat="45.8782484" lon="11.6796922"><ele>177.0</ele><time>2026-04-25T06:24:43.906Z</time></trkpt><trkpt lat="45.8784675" lon="11.6797896"><ele>168.0</ele><time>2026-04-25T06:24:44.912Z</time></trkpt><trkpt lat="45.8786959" lon="11.6798687"><ele>168.0</ele><time>2026-04-25T06:24:45.917Z</time></trkpt><trkpt lat="45.8789284" lon="11.6799323"><ele>168.0</ele><time>2026-04-25T06:24:46.93Z</time></trkpt><trkpt lat="45.8794011" lon="11.6800551"><ele>165.5</ele><time>2026-04-25T06:24:48.901Z</time></trkpt><trkpt lat="45.8796285" lon="11.6801308"><ele>163.0</ele><time>2026-04-25T06:24:49.93Z</time></trkpt><trkpt lat="45.8798488" lon="11.6802135"><ele>164.5</ele><time>2026-04-25T06:24:50.913Z</time></trkpt><trkpt lat="45.8800666" lon="11.6803023"><ele>166.0</ele><time>2026-04-25T06:24:51.914Z</time></trkpt><trkpt lat="45.8802835" lon="11.6804002"><ele>166.0</ele><time>2026-04-25T06:24:52.916Z</time></trkpt><trkpt lat="45.8804981" lon="11.6805048"><ele>166.0</ele><time>2026-04-25T06:24:53.918Z</time></trkpt><trkpt lat="45.8807136" lon="11.6806229"><ele>166.0</ele><time>2026-04-25T06:24:54.908Z</time></trkpt><trkpt lat="45.8809271" lon="11.6807551"><ele>166.0</ele><time>2026-04-25T06:24:55.913Z</time></trkpt><trkpt lat="45.8811381" lon="11.6808989"><ele>166.0</ele><time>2026-04-25T06:24:56.914Z</time></trkpt><trkpt lat="45.8813456" lon="11.6810562"><ele>166.0</ele><time>2026-04-25T06:24:57.911Z</time></trkpt><trkpt lat="45.8815478" lon="11.6812208"><ele>166.0</ele><time>2026-04-25T06:24:58.914Z</time></trkpt><trkpt lat="45.8817448" lon="11.6813966"><ele>166.0</ele><time>2026-04-25T06:24:59.917Z</time></trkpt><trkpt lat="45.8819358" lon="11.6815826"><ele>164.0</ele><time>2026-04-25T06:25:00.92Z</time></trkpt><trkpt lat="45.8821266" lon="11.6817648"><ele>162.0</ele><time>2026-04-25T06:25:01.914Z</time></trkpt><trkpt lat="45.8823082" lon="11.6819672"><ele>161.5</ele><time>2026-04-25T06:25:02.926Z</time></trkpt><trkpt lat="45.8824948" lon="11.6821614"><ele>161.0</ele><time>2026-04-25T06:25:03.915Z</time></trkpt><trkpt lat="45.8826794" lon="11.6823598"><ele>161.0</ele><time>2026-04-25T06:25:04.908Z</time></trkpt><trkpt lat="45.8828651" lon="11.6825701"><ele>161.0</ele><time>2026-04-25T06:25:05.904Z</time></trkpt><trkpt lat="45.8830496" lon="11.6827737"><ele>162.0</ele><time>2026-04-25T06:25:06.92Z</time></trkpt><trkpt lat="45.8832314" lon="11.6829844"><ele>163.0</ele><time>2026-04-25T06:25:07.903Z</time></trkpt><trkpt lat="45.8835974" lon="11.6833914"><ele>163.0</ele><time>2026-04-25T06:25:09.935Z</time></trkpt><trkpt lat="45.8837808" lon="11.6835921"><ele>163.0</ele><time>2026-04-25T06:25:10.919Z</time></trkpt><trkpt lat="45.8839642" lon="11.6837915"><ele>166.5</ele><time>2026-04-25T06:25:11.917Z</time></trkpt><trkpt lat="45.884146" lon="11.6839885"><ele>170.0</ele><time>2026-04-25T06:25:12.907Z</time></trkpt><trkpt lat="45.8843316" lon="11.6841821"><ele>170.0</ele><time>2026-04-25T06:25:13.917Z</time></trkpt><trkpt lat="45.8845162" lon="11.6843744"><ele>170.0</ele><time>2026-04-25T06:25:14.909Z</time></trkpt><trkpt lat="45.8847007" lon="11.6845692"><ele>177.0</ele><time>2026-04-25T06:25:15.914Z</time></trkpt><trkpt lat="45.884885" lon="11.6847658"><ele>184.0</ele><time>2026-04-25T06:25:16.922Z</time></trkpt><trkpt lat="45.8850695" lon="11.6849609"><ele>179.5</ele><time>2026-04-25T06:25:17.925Z</time></trkpt><trkpt lat="45.8852547" lon="11.6851555"><ele>175.0</ele><time>2026-04-25T06:25:18.924Z</time></trkpt><trkpt lat="45.8854411" lon="11.6853553"><ele>175.0</ele><time>2026-04-25T06:25:19.92Z</time></trkpt><trkpt lat="45.885626" lon="11.6855551"><ele>175.0</ele><time>2026-04-25T06:25:20.918Z</time></trkpt><trkpt lat="45.8858098" lon="11.6857527"><ele>174.0</ele><time>2026-04-25T06:25:21.907Z</time></trkpt><trkpt lat="45.8859949" lon="11.6859519"><ele>173.0</ele><time>2026-04-25T06:25:22.922Z</time></trkpt><trkpt lat="45.8861824" lon="11.68615"><ele>173.0</ele><time>2026-04-25T06:25:23.914Z</time></trkpt><trkpt lat="45.886373" lon="11.6863389"><ele>173.0</ele><time>2026-04-25T06:25:24.921Z</time></trkpt><trkpt lat="45.8865605" lon="11.686538"><ele>173.0</ele><time>2026-04-25T06:25:25.903Z</time></trkpt><trkpt lat="45.8867528" lon="11.6867064"><ele>173.0</ele><time>2026-04-25T06:25:26.937Z</time></trkpt><trkpt lat="45.8869439" lon="11.6868786"><ele>176.5</ele><time>2026-04-25T06:25:27.921Z</time></trkpt><trkpt lat="45.8871282" lon="11.6870526"><ele>180.0</ele><time>2026-04-25T06:25:28.927Z</time></trkpt><trkpt lat="45.8874931" lon="11.6874093"><ele>180.0</ele><time>2026-04-25T06:25:30.912Z</time></trkpt><trkpt lat="45.8876803" lon="11.6875822"><ele>180.0</ele><time>2026-04-25T06:25:31.906Z</time></trkpt><trkpt lat="45.8878678" lon="11.6877576"><ele>180.0</ele><time>2026-04-25T06:25:32.922Z</time></trkpt><trkpt lat="45.8880517" lon="11.6879378"><ele>180.0</ele><time>2026-04-25T06:25:33.916Z</time></trkpt><trkpt lat="45.888235" lon="11.6881253"><ele>180.0</ele><time>2026-04-25T06:25:34.915Z</time></trkpt><trkpt lat="45.8884201" lon="11.6883185"><ele>184.0</ele><time>2026-04-25T06:25:35.914Z</time></trkpt><trkpt lat="45.8886053" lon="11.6885157"><ele>188.0</ele><time>2026-04-25T06:25:36.919Z</time></trkpt><trkpt lat="45.8887928" lon="11.6887168"><ele>188.0</ele><time>2026-04-25T06:25:37.917Z</time></trkpt><trkpt lat="45.8889807" lon="11.6889197"><ele>188.0</ele><time>2026-04-25T06:25:38.92Z</time></trkpt><trkpt lat="45.8891706" lon="11.6891215"><ele>188.0</ele><time>2026-04-25T06:25:39.917Z</time></trkpt><trkpt lat="45.8893602" lon="11.689323"><ele>188.0</ele><time>2026-04-25T06:25:40.914Z</time></trkpt><trkpt lat="45.889551" lon="11.6895223"><ele>188.0</ele><time>2026-04-25T06:25:41.921Z</time></trkpt><trkpt lat="45.8897446" lon="11.6897171"><ele>188.0</ele><time>2026-04-25T06:25:42.92Z</time></trkpt><trkpt lat="45.8899422" lon="11.6899042"><ele>178.0</ele><time>2026-04-25T06:25:43.919Z</time></trkpt><trkpt lat="45.8901468" lon="11.6900771"><ele>168.0</ele><time>2026-04-25T06:25:44.913Z</time></trkpt><trkpt lat="45.8903562" lon="11.6902393"><ele>175.5</ele><time>2026-04-25T06:25:45.929Z</time></trkpt><trkpt lat="45.8905691" lon="11.6903924"><ele>183.0</ele><time>2026-04-25T06:25:46.909Z</time></trkpt><trkpt lat="45.8907838" lon="11.6905395"><ele>178.0</ele><time>2026-04-25T06:25:47.919Z</time></trkpt><trkpt lat="45.8909977" lon="11.6906847"><ele>173.0</ele><time>2026-04-25T06:25:48.918Z</time></trkpt><trkpt lat="45.8912122" lon="11.6908231"><ele>173.0</ele><time>2026-04-25T06:25:49.915Z</time></trkpt><trkpt lat="45.8916466" lon="11.691053"><ele>176.0</ele><time>2026-04-25T06:25:51.915Z</time></trkpt><trkpt lat="45.8918655" lon="11.6911337"><ele>179.0</ele><time>2026-04-25T06:25:52.91Z</time></trkpt><trkpt lat="45.8920877" lon="11.691187"><ele>179.0</ele><time>2026-04-25T06:25:53.907Z</time></trkpt><trkpt lat="45.8923126" lon="11.6912183"><ele>179.0</ele><time>2026-04-25T06:25:54.918Z</time></trkpt><trkpt lat="45.8925374" lon="11.6912254"><ele>177.0</ele><time>2026-04-25T06:25:55.916Z</time></trkpt><trkpt lat="45.8927604" lon="11.6912133"><ele>175.0</ele><time>2026-04-25T06:25:56.914Z</time></trkpt><trkpt lat="45.8929793" lon="11.6911825"><ele>173.0</ele><time>2026-04-25T06:25:57.925Z</time></trkpt><trkpt lat="45.8931968" lon="11.6911392"><ele>173.0</ele><time>2026-04-25T06:25:58.921Z</time></trkpt><trkpt lat="45.8934124" lon="11.6910902"><ele>173.0</ele><time>2026-04-25T06:25:59.906Z</time></trkpt><trkpt lat="45.8936263" lon="11.6910418"><ele>173.0</ele><time>2026-04-25T06:26:00.906Z</time></trkpt><trkpt lat="45.8938385" lon="11.690996"><ele>173.0</ele><time>2026-04-25T06:26:01.921Z</time></trkpt><trkpt lat="45.8940496" lon="11.6909538"><ele>173.0</ele><time>2026-04-25T06:26:02.918Z</time></trkpt><trkpt lat="45.8942613" lon="11.6909127"><ele>173.0</ele><time>2026-04-25T06:26:03.92Z</time></trkpt><trkpt lat="45.8944734" lon="11.6908745"><ele>174.0</ele><time>2026-04-25T06:26:04.919Z</time></trkpt><trkpt lat="45.8946873" lon="11.6908395"><ele>175.0</ele><time>2026-04-25T06:26:05.917Z</time></trkpt><trkpt lat="45.8949024" lon="11.6908136"><ele>176.0</ele><time>2026-04-25T06:26:06.926Z</time></trkpt><trkpt lat="45.8951176" lon="11.6908007"><ele>176.33333333333331</ele><time>2026-04-25T06:26:07.915Z</time></trkpt><trkpt lat="45.8953355" lon="11.6907989"><ele>176.66666666666666</ele><time>2026-04-25T06:26:08.921Z</time></trkpt><trkpt lat="45.8955534" lon="11.690807"><ele>177.0</ele><time>2026-04-25T06:26:09.937Z</time></trkpt><trkpt lat="45.8957702" lon="11.690822"><ele>176.5</ele><time>2026-04-25T06:26:10.91Z</time></trkpt><trkpt lat="45.8962025" lon="11.6908488"><ele>176.0</ele><time>2026-04-25T06:26:12.919Z</time></trkpt><trkpt lat="45.896418" lon="11.6908588"><ele>176.0</ele><time>2026-04-25T06:26:13.93Z</time></trkpt><trkpt lat="45.8966327" lon="11.6908697"><ele>176.0</ele><time>2026-04-25T06:26:14.919Z</time></trkpt><trkpt lat="45.8968457" lon="11.6908909"><ele>176.0</ele><time>2026-04-25T06:26:15.919Z</time></trkpt><trkpt lat="45.8970552" lon="11.69093"><ele>174.66666666666666</ele><time>2026-04-25T06:26:16.924Z</time></trkpt><trkpt lat="45.8972608" lon="11.6909922"><ele>173.33333333333334</ele><time>2026-04-25T06:26:17.928Z</time></trkpt><trkpt lat="45.8974617" lon="11.6910759"><ele>172.0</ele><time>2026-04-25T06:26:18.921Z</time></trkpt><trkpt lat="45.8976579" lon="11.6911815"><ele>172.0</ele><time>2026-04-25T06:26:19.922Z</time></trkpt><trkpt lat="45.8978484" lon="11.69131"><ele>172.0</ele><time>2026-04-25T06:26:20.913Z</time></trkpt><trkpt lat="45.8980324" lon="11.6914562"><ele>172.0</ele><time>2026-04-25T06:26:21.922Z</time></trkpt><trkpt lat="45.8982093" lon="11.6916209"><ele>172.0</ele><time>2026-04-25T06:26:22.912Z</time></trkpt><trkpt lat="45.8983773" lon="11.6918024"><ele>172.0</ele><time>2026-04-25T06:26:23.933Z</time></trkpt><trkpt lat="45.8985377" lon="11.692002"><ele>172.0</ele><time>2026-04-25T06:26:24.903Z</time></trkpt><trkpt lat="45.8986965" lon="11.6922056"><ele>172.33333333333334</ele><time>2026-04-25T06:26:25.922Z</time></trkpt><trkpt lat="45.8988298" lon="11.6924394"><ele>172.66666666666666</ele><time>2026-04-25T06:26:26.916Z</time></trkpt><trkpt lat="45.8989579" lon="11.6926795"><ele>173.0</ele><time>2026-04-25T06:26:27.921Z</time></trkpt><trkpt lat="45.8990727" lon="11.6929353"><ele>173.0</ele><time>2026-04-25T06:26:28.904Z</time></trkpt><trkpt lat="45.8991717" lon="11.6932016"><ele>173.0</ele><time>2026-04-25T06:26:29.913Z</time></trkpt><trkpt lat="45.8992577" lon="11.6934761"><ele>173.0</ele><time>2026-04-25T06:26:30.921Z</time></trkpt><trkpt lat="45.8993279" lon="11.6937582"><ele>173.5</ele><time>2026-04-25T06:26:31.92Z</time></trkpt><trkpt lat="45.8994351" lon="11.694339"><ele>174.0</ele><time>2026-04-25T06:26:33.921Z</time></trkpt><trkpt lat="45.8994812" lon="11.6946368"><ele>174.0</ele><time>2026-04-25T06:26:34.921Z</time></trkpt><trkpt lat="45.8995286" lon="11.6949377"><ele>174.0</ele><time>2026-04-25T06:26:35.917Z</time></trkpt><trkpt lat="45.8995787" lon="11.6952394"><ele>174.0</ele><time>2026-04-25T06:26:36.919Z</time></trkpt><trkpt lat="45.8996287" lon="11.6955397"><ele>174.0</ele><time>2026-04-25T06:26:37.913Z</time></trkpt><trkpt lat="45.8996791" lon="11.6958394"><ele>174.0</ele><time>2026-04-25T06:26:38.915Z</time></trkpt><trkpt lat="45.8997292" lon="11.6961336"><ele>174.0</ele><time>2026-04-25T06:26:39.914Z</time></trkpt><trkpt lat="45.8997777" lon="11.6964123"><ele>174.33333333333334</ele><time>2026-04-25T06:26:40.927Z</time></trkpt><trkpt lat="45.8998243" lon="11.6966758"><ele>174.66666666666669</ele><time>2026-04-25T06:26:41.909Z</time></trkpt><trkpt lat="45.8998692" lon="11.6969241"><ele>175.0</ele><time>2026-04-25T06:26:42.928Z</time></trkpt><trkpt lat="45.8999121" lon="11.6971568"><ele>176.66666666666669</ele><time>2026-04-25T06:26:43.917Z</time></trkpt><trkpt lat="45.8999625" lon="11.6973819"><ele>178.33333333333334</ele><time>2026-04-25T06:26:44.916Z</time></trkpt><trkpt lat="45.9000216" lon="11.6976087"><ele>180.0</ele><time>2026-04-25T06:26:45.923Z</time></trkpt><trkpt lat="45.9000782" lon="11.6978483"><ele>178.33333333333334</ele><time>2026-04-25T06:26:46.911Z</time></trkpt><trkpt lat="45.9001301" lon="11.6980943"><ele>176.66666666666669</ele><time>2026-04-25T06:26:47.914Z</time></trkpt><trkpt lat="45.9001831" lon="11.6983435"><ele>175.0</ele><time>2026-04-25T06:26:48.921Z</time></trkpt><trkpt lat="45.9002355" lon="11.6985914"><ele>174.33333333333334</ele><time>2026-04-25T06:26:49.925Z</time></trkpt><trkpt lat="45.9002889" lon="11.6988394"><ele>173.66666666666666</ele><time>2026-04-25T06:26:50.906Z</time></trkpt><trkpt lat="45.9003436" lon="11.6990845"><ele>173.0</ele><time>2026-04-25T06:26:51.927Z</time></trkpt><trkpt lat="45.9003984" lon="11.699323"><ele>173.5</ele><time>2026-04-25T06:26:52.91Z</time></trkpt><trkpt lat="45.9005085" lon="11.6997979"><ele>174.0</ele><time>2026-04-25T06:26:54.927Z</time></trkpt><trkpt lat="45.9005693" lon="11.7000365"><ele>174.0</ele><time>2026-04-25T06:26:55.936Z</time></trkpt><trkpt lat="45.9006298" lon="11.7002832"><ele>174.0</ele><time>2026-04-25T06:26:56.925Z</time></trkpt><trkpt lat="45.9006885" lon="11.7005371"><ele>174.0</ele><time>2026-04-25T06:26:57.927Z</time></trkpt><trkpt lat="45.9007442" lon="11.7007925"><ele>174.0</ele><time>2026-04-25T06:26:58.909Z</time></trkpt><trkpt lat="45.9008031" lon="11.701045"><ele>174.0</ele><time>2026-04-25T06:26:59.924Z</time></trkpt><trkpt lat="45.900863" lon="11.7012951"><ele>174.0</ele><time>2026-04-25T06:27:00.921Z</time></trkpt><trkpt lat="45.9009221" lon="11.7015419"><ele>174.33333333333334</ele><time>2026-04-25T06:27:01.906Z</time></trkpt><trkpt lat="45.9009775" lon="11.7017838"><ele>174.66666666666669</ele><time>2026-04-25T06:27:02.91Z</time></trkpt><trkpt lat="45.9010311" lon="11.7020249"><ele>175.0</ele><time>2026-04-25T06:27:03.915Z</time></trkpt><trkpt lat="45.9010829" lon="11.7022656"><ele>175.33333333333334</ele><time>2026-04-25T06:27:04.925Z</time></trkpt><trkpt lat="45.9011352" lon="11.7025052"><ele>175.66666666666666</ele><time>2026-04-25T06:27:05.925Z</time></trkpt><trkpt lat="45.9011902" lon="11.7027429"><ele>176.0</ele><time>2026-04-25T06:27:06.91Z</time></trkpt><trkpt lat="45.9012469" lon="11.702979"><ele>177.0</ele><time>2026-04-25T06:27:07.925Z</time></trkpt><trkpt lat="45.9013071" lon="11.7032148"><ele>178.0</ele><time>2026-04-25T06:27:08.908Z</time></trkpt><trkpt lat="45.9013697" lon="11.7034513"><ele>179.0</ele><time>2026-04-25T06:27:09.929Z</time></trkpt><trkpt lat="45.9014334" lon="11.7036903"><ele>179.66666666666666</ele><time>2026-04-25T06:27:10.921Z</time></trkpt><trkpt lat="45.9014979" lon="11.7039322"><ele>180.33333333333334</ele><time>2026-04-25T06:27:11.917Z</time></trkpt><trkpt lat="45.9015625" lon="11.7041751"><ele>181.0</ele><time>2026-04-25T06:27:12.908Z</time></trkpt><trkpt lat="45.9016245" lon="11.7044192"><ele>181.0</ele><time>2026-04-25T06:27:13.911Z</time></trkpt><trkpt lat="45.9017313" lon="11.7049119"><ele>181.0</ele><time>2026-04-25T06:27:15.912Z</time></trkpt><trkpt lat="45.9017765" lon="11.7051609"><ele>178.66666666666669</ele><time>2026-04-25T06:27:16.913Z</time></trkpt><trkpt lat="45.9018182" lon="11.7054113"><ele>176.33333333333334</ele><time>2026-04-25T06:27:17.924Z</time></trkpt><trkpt lat="45.9018581" lon="11.7056631"><ele>174.0</ele><time>2026-04-25T06:27:18.911Z</time></trkpt><trkpt lat="45.9018989" lon="11.7059256"><ele>174.0</ele><time>2026-04-25T06:27:19.914Z</time></trkpt><trkpt lat="45.9019418" lon="11.7061982"><ele>174.0</ele><time>2026-04-25T06:27:20.909Z</time></trkpt><trkpt lat="45.9019877" lon="11.70648"><ele>174.0</ele><time>2026-04-25T06:27:21.916Z</time></trkpt><trkpt lat="45.9020343" lon="11.7067674"><ele>175.0</ele><time>2026-04-25T06:27:22.911Z</time></trkpt><trkpt lat="45.9020808" lon="11.7070565"><ele>176.0</ele><time>2026-04-25T06:27:23.917Z</time></trkpt><trkpt lat="45.9021269" lon="11.7073462"><ele>177.0</ele><time>2026-04-25T06:27:24.916Z</time></trkpt><trkpt lat="45.9021753" lon="11.7076335"><ele>178.66666666666666</ele><time>2026-04-25T06:27:25.921Z</time></trkpt><trkpt lat="45.9022216" lon="11.7079205"><ele>180.33333333333331</ele><time>2026-04-25T06:27:26.919Z</time></trkpt><trkpt lat="45.9022665" lon="11.708205"><ele>182.0</ele><time>2026-04-25T06:27:27.916Z</time></trkpt><trkpt lat="45.9023089" lon="11.7084887"><ele>186.66666666666666</ele><time>2026-04-25T06:27:28.919Z</time></trkpt><trkpt lat="45.902349" lon="11.7087706"><ele>191.33333333333331</ele><time>2026-04-25T06:27:29.913Z</time></trkpt><trkpt lat="45.9023847" lon="11.7090512"><ele>196.0</ele><time>2026-04-25T06:27:30.922Z</time></trkpt><trkpt lat="45.9024149" lon="11.7093308"><ele>195.33333333333331</ele><time>2026-04-25T06:27:31.918Z</time></trkpt><trkpt lat="45.9024391" lon="11.7096105"><ele>194.66666666666669</ele><time>2026-04-25T06:27:32.911Z</time></trkpt><trkpt lat="45.9024626" lon="11.7098888"><ele>194.0</ele><time>2026-04-25T06:27:33.921Z</time></trkpt><trkpt lat="45.9024876" lon="11.7101665"><ele>191.5</ele><time>2026-04-25T06:27:34.925Z</time></trkpt><trkpt lat="45.9025485" lon="11.7107246"><ele>189.0</ele><time>2026-04-25T06:27:36.919Z</time></trkpt><trkpt lat="45.9025812" lon="11.7110076"><ele>184.66666666666666</ele><time>2026-04-25T06:27:37.914Z</time></trkpt><trkpt lat="45.9026184" lon="11.7112934"><ele>180.33333333333331</ele><time>2026-04-25T06:27:38.92Z</time></trkpt><trkpt lat="45.9026564" lon="11.7115824"><ele>176.0</ele><time>2026-04-25T06:27:39.911Z</time></trkpt><trkpt lat="45.902698" lon="11.7118736"><ele>176.66666666666666</ele><time>2026-04-25T06:27:40.918Z</time></trkpt><trkpt lat="45.9027428" lon="11.7121708"><ele>177.33333333333334</ele><time>2026-04-25T06:27:41.904Z</time></trkpt><trkpt lat="45.9027892" lon="11.7124728"><ele>178.0</ele><time>2026-04-25T06:27:42.927Z</time></trkpt><trkpt lat="45.9028419" lon="11.7127755"><ele>179.33333333333334</ele><time>2026-04-25T06:27:43.907Z</time></trkpt><trkpt lat="45.9029041" lon="11.7130765"><ele>180.66666666666666</ele><time>2026-04-25T06:27:44.914Z</time></trkpt><trkpt lat="45.9029838" lon="11.7133649"><ele>182.0</ele><time>2026-04-25T06:27:45.919Z</time></trkpt><trkpt lat="45.9030893" lon="11.7136375"><ele>180.66666666666666</ele><time>2026-04-25T06:27:46.919Z</time></trkpt><trkpt lat="45.9032077" lon="11.7138965"><ele>179.33333333333334</ele><time>2026-04-25T06:27:47.909Z</time></trkpt><trkpt lat="45.903341" lon="11.7141475"><ele>178.0</ele><time>2026-04-25T06:27:48.904Z</time></trkpt><trkpt lat="45.9034777" lon="11.7143905"><ele>179.66666666666669</ele><time>2026-04-25T06:27:49.917Z</time></trkpt><trkpt lat="45.903622" lon="11.7146237"><ele>181.33333333333334</ele><time>2026-04-25T06:27:50.914Z</time></trkpt><trkpt lat="45.9037685" lon="11.7148516"><ele>183.0</ele><time>2026-04-25T06:27:51.919Z</time></trkpt><trkpt lat="45.9039149" lon="11.7150785"><ele>182.66666666666666</ele><time>2026-04-25T06:27:52.908Z</time></trkpt><trkpt lat="45.9040603" lon="11.7153047"><ele>182.33333333333331</ele><time>2026-04-25T06:27:53.914Z</time></trkpt><trkpt lat="45.9042024" lon="11.7155273"><ele>182.0</ele><time>2026-04-25T06:27:54.926Z</time></trkpt><trkpt lat="45.9043395" lon="11.7157389"><ele>184.5</ele><time>2026-04-25T06:27:55.908Z</time></trkpt><trkpt lat="45.9045901" lon="11.7161299"><ele>187.0</ele><time>2026-04-25T06:27:57.927Z</time></trkpt><trkpt lat="45.9047083" lon="11.716313"><ele>187.0</ele><time>2026-04-25T06:27:58.917Z</time></trkpt><trkpt lat="45.9048198" lon="11.7164869"><ele>187.0</ele><time>2026-04-25T06:27:59.912Z</time></trkpt><trkpt lat="45.9049239" lon="11.7166475"><ele>187.0</ele><time>2026-04-25T06:28:00.925Z</time></trkpt><trkpt lat="45.9050222" lon="11.7167989"><ele>186.5</ele><time>2026-04-25T06:28:01.921Z</time></trkpt><trkpt lat="45.9051191" lon="11.7169527"><ele>186.0</ele><time>2026-04-25T06:28:02.899Z</time></trkpt><trkpt lat="45.9052132" lon="11.7171173"><ele>185.5</ele><time>2026-04-25T06:28:03.914Z</time></trkpt><trkpt lat="45.9053041" lon="11.7172948"><ele>185.0</ele><time>2026-04-25T06:28:04.92Z</time></trkpt><trkpt lat="45.9054073" lon="11.7174828"><ele>185.0</ele><time>2026-04-25T06:28:05.916Z</time></trkpt><trkpt lat="45.9055384" lon="11.7176948"><ele>185.0</ele><time>2026-04-25T06:28:06.914Z</time></trkpt><trkpt lat="45.9056951" lon="11.7179366"><ele>185.0</ele><time>2026-04-25T06:28:07.914Z</time></trkpt><trkpt lat="45.9058745" lon="11.7182127"><ele>187.0</ele><time>2026-04-25T06:28:08.923Z</time></trkpt><trkpt lat="45.9060695" lon="11.7185137"><ele>189.0</ele><time>2026-04-25T06:28:09.911Z</time></trkpt><trkpt lat="45.9062794" lon="11.7188349"><ele>190.5</ele><time>2026-04-25T06:28:10.908Z</time></trkpt><trkpt lat="45.9064983" lon="11.7191776"><ele>192.0</ele><time>2026-04-25T06:28:11.905Z</time></trkpt><trkpt lat="45.9067188" lon="11.7195212"><ele>192.0</ele><time>2026-04-25T06:28:12.92Z</time></trkpt><trkpt lat="45.9069483" lon="11.7198746"><ele>192.0</ele><time>2026-04-25T06:28:13.929Z</time></trkpt><trkpt lat="45.9071865" lon="11.720245"><ele>191.5</ele><time>2026-04-25T06:28:14.917Z</time></trkpt><trkpt lat="45.907433" lon="11.7206295"><ele>191.0</ele><time>2026-04-25T06:28:15.913Z</time></trkpt><trkpt lat="45.9076877" lon="11.7210259"><ele>190.0</ele><time>2026-04-25T06:28:16.912Z</time></trkpt><trkpt lat="45.9082091" lon="11.7218394"><ele>191.0</ele><time>2026-04-25T06:28:18.909Z</time></trkpt><trkpt lat="45.9084579" lon="11.7222119"><ele>192.0</ele><time>2026-04-25T06:28:19.916Z</time></trkpt><trkpt lat="45.9087051" lon="11.7225441"><ele>191.0</ele><time>2026-04-25T06:28:20.924Z</time></trkpt><trkpt lat="45.9089711" lon="11.7228524"><ele>190.0</ele><time>2026-04-25T06:28:21.916Z</time></trkpt><trkpt lat="45.9092573" lon="11.7231404"><ele>189.0</ele><time>2026-04-25T06:28:22.925Z</time></trkpt><trkpt lat="45.9095617" lon="11.7234044"><ele>188.0</ele><time>2026-04-25T06:28:23.911Z</time></trkpt><trkpt lat="45.9098848" lon="11.7236425"><ele>189.0</ele><time>2026-04-25T06:28:24.923Z</time></trkpt><trkpt lat="45.9102104" lon="11.7238608"><ele>190.0</ele><time>2026-04-25T06:28:25.919Z</time></trkpt><trkpt lat="45.9105361" lon="11.7240403"><ele>190.0</ele><time>2026-04-25T06:28:26.901Z</time></trkpt><trkpt lat="45.9108429" lon="11.7242058"><ele>190.0</ele><time>2026-04-25T06:28:27.919Z</time></trkpt><trkpt lat="45.911142" lon="11.7243683"><ele>189.5</ele><time>2026-04-25T06:28:28.93Z</time></trkpt><trkpt lat="45.9114383" lon="11.7245296"><ele>189.0</ele><time>2026-04-25T06:28:29.908Z</time></trkpt><trkpt lat="45.9117284" lon="11.7246831"><ele>192.0</ele><time>2026-04-25T06:28:30.908Z</time></trkpt><trkpt lat="45.912034" lon="11.7248444"><ele>195.0</ele><time>2026-04-25T06:28:31.918Z</time></trkpt><trkpt lat="45.9123567" lon="11.7250097"><ele>193.5</ele><time>2026-04-25T06:28:32.919Z</time></trkpt><trkpt lat="45.9126887" lon="11.7251862"><ele>192.0</ele><time>2026-04-25T06:28:33.931Z</time></trkpt><trkpt lat="45.9130087" lon="11.7253612"><ele>191.5</ele><time>2026-04-25T06:28:34.914Z</time></trkpt><trkpt lat="45.9133183" lon="11.7255282"><ele>191.0</ele><time>2026-04-25T06:28:35.919Z</time></trkpt><trkpt lat="45.9136201" lon="11.7256916"><ele>191.0</ele><time>2026-04-25T06:28:36.931Z</time></trkpt><trkpt lat="45.9139127" lon="11.7258518"><ele>191.0</ele><time>2026-04-25T06:28:37.918Z</time></trkpt><trkpt lat="45.9144797" lon="11.7261569"><ele>191.5</ele><time>2026-04-25T06:28:39.917Z</time></trkpt><trkpt lat="45.9147558" lon="11.7263049"><ele>192.0</ele><time>2026-04-25T06:28:40.932Z</time></trkpt><trkpt lat="45.9150303" lon="11.7264521"><ele>192.5</ele><time>2026-04-25T06:28:41.932Z</time></trkpt><trkpt lat="45.915303" lon="11.7265997"><ele>193.0</ele><time>2026-04-25T06:28:42.914Z</time></trkpt><trkpt lat="45.9155723" lon="11.7267465"><ele>193.0</ele><time>2026-04-25T06:28:43.913Z</time></trkpt><trkpt lat="45.9158413" lon="11.7268936"><ele>193.0</ele><time>2026-04-25T06:28:44.92Z</time></trkpt><trkpt lat="45.9161213" lon="11.7270432"><ele>193.0</ele><time>2026-04-25T06:28:45.917Z</time></trkpt><trkpt lat="45.9164082" lon="11.7271992"><ele>193.0</ele><time>2026-04-25T06:28:46.928Z</time></trkpt><trkpt lat="45.9166956" lon="11.7273589"><ele>193.0</ele><time>2026-04-25T06:28:47.918Z</time></trkpt><trkpt lat="45.9169796" lon="11.727516"><ele>193.0</ele><time>2026-04-25T06:28:48.92Z</time></trkpt><trkpt lat="45.9172556" lon="11.7276668"><ele>193.0</ele><time>2026-04-25T06:28:49.92Z</time></trkpt><trkpt lat="45.9175273" lon="11.7278076"><ele>193.0</ele><time>2026-04-25T06:28:50.927Z</time></trkpt><trkpt lat="45.9177978" lon="11.7279343"><ele>193.0</ele><time>2026-04-25T06:28:51.917Z</time></trkpt><trkpt lat="45.9180713" lon="11.7280444"><ele>193.0</ele><time>2026-04-25T06:28:52.927Z</time></trkpt><trkpt lat="45.918347" lon="11.7281444"><ele>193.0</ele><time>2026-04-25T06:28:53.939Z</time></trkpt><trkpt lat="45.9186229" lon="11.7282376"><ele>193.0</ele><time>2026-04-25T06:28:54.928Z</time></trkpt><trkpt lat="45.9188997" lon="11.7283228"><ele>193.0</ele><time>2026-04-25T06:28:55.921Z</time></trkpt><trkpt lat="45.9191785" lon="11.7283947"><ele>193.0</ele><time>2026-04-25T06:28:56.918Z</time></trkpt><trkpt lat="45.9194584" lon="11.7284527"><ele>193.0</ele><time>2026-04-25T06:28:57.921Z</time></trkpt><trkpt lat="45.9197399" lon="11.7284992"><ele>193.0</ele><time>2026-04-25T06:28:58.934Z</time></trkpt><trkpt lat="45.9203056" lon="11.728561"><ele>193.0</ele><time>2026-04-25T06:29:00.927Z</time></trkpt><trkpt lat="45.9205877" lon="11.7285749"><ele>193.0</ele><time>2026-04-25T06:29:01.933Z</time></trkpt><trkpt lat="45.9208697" lon="11.7285778"><ele>193.0</ele><time>2026-04-25T06:29:02.92Z</time></trkpt><trkpt lat="45.9211485" lon="11.7285679"><ele>193.0</ele><time>2026-04-25T06:29:03.911Z</time></trkpt><trkpt lat="45.9214249" lon="11.7285465"><ele>193.0</ele><time>2026-04-25T06:29:04.913Z</time></trkpt><trkpt lat="45.9216983" lon="11.7285161"><ele>193.0</ele><time>2026-04-25T06:29:05.917Z</time></trkpt><trkpt lat="45.9219691" lon="11.7284774"><ele>193.0</ele><time>2026-04-25T06:29:06.914Z</time></trkpt><trkpt lat="45.9222381" lon="11.7284371"><ele>193.0</ele><time>2026-04-25T06:29:07.919Z</time></trkpt><trkpt lat="45.9225035" lon="11.728389"><ele>193.0</ele><time>2026-04-25T06:29:08.912Z</time></trkpt><trkpt lat="45.9227661" lon="11.7283455"><ele>193.0</ele><time>2026-04-25T06:29:09.905Z</time></trkpt><trkpt lat="45.923034" lon="11.7283037"><ele>193.0</ele><time>2026-04-25T06:29:10.914Z</time></trkpt><trkpt lat="45.9232986" lon="11.7282599"><ele>193.0</ele><time>2026-04-25T06:29:11.925Z</time></trkpt><trkpt lat="45.9235588" lon="11.7282167"><ele>193.0</ele><time>2026-04-25T06:29:12.94Z</time></trkpt><trkpt lat="45.9238198" lon="11.7281767"><ele>193.0</ele><time>2026-04-25T06:29:13.945Z</time></trkpt><trkpt lat="45.9240781" lon="11.7281361"><ele>193.0</ele><time>2026-04-25T06:29:14.921Z</time></trkpt><trkpt lat="45.9243338" lon="11.7280959"><ele>193.0</ele><time>2026-04-25T06:29:15.912Z</time></trkpt><trkpt lat="45.92459" lon="11.7280587"><ele>193.0</ele><time>2026-04-25T06:29:16.918Z</time></trkpt><trkpt lat="45.9248453" lon="11.7280334"><ele>193.0</ele><time>2026-04-25T06:29:17.9Z</time></trkpt><trkpt lat="45.9250984" lon="11.7280268"><ele>193.0</ele><time>2026-04-25T06:29:18.917Z</time></trkpt><trkpt lat="45.9253519" lon="11.7280383"><ele>193.0</ele><time>2026-04-25T06:29:19.916Z</time></trkpt><trkpt lat="45.9258571" lon="11.7281059"><ele>193.0</ele><time>2026-04-25T06:29:21.91Z</time></trkpt><trkpt lat="45.9261072" lon="11.7281625"><ele>193.0</ele><time>2026-04-25T06:29:22.904Z</time></trkpt><trkpt lat="45.9263543" lon="11.7282313"><ele>193.0</ele><time>2026-04-25T06:29:23.902Z</time></trkpt><trkpt lat="45.9265996" lon="11.7283005"><ele>193.0</ele><time>2026-04-25T06:29:24.914Z</time></trkpt><trkpt lat="45.9268452" lon="11.7283645"><ele>193.0</ele><time>2026-04-25T06:29:25.907Z</time></trkpt><trkpt lat="45.9270876" lon="11.7284276"><ele>193.0</ele><time>2026-04-25T06:29:26.915Z</time></trkpt><trkpt lat="45.9273288" lon="11.7284856"><ele>193.0</ele><time>2026-04-25T06:29:27.915Z</time></trkpt><trkpt lat="45.9275724" lon="11.728534"><ele>193.0</ele><time>2026-04-25T06:29:28.921Z</time></trkpt><trkpt lat="45.9278175" lon="11.728566"><ele>193.0</ele><time>2026-04-25T06:29:29.917Z</time></trkpt><trkpt lat="45.9280646" lon="11.7285816"><ele>193.0</ele><time>2026-04-25T06:29:30.939Z</time></trkpt><trkpt lat="45.9283133" lon="11.7285835"><ele>193.0</ele><time>2026-04-25T06:29:31.92Z</time></trkpt><trkpt lat="45.9285629" lon="11.7285693"><ele>193.0</ele><time>2026-04-25T06:29:32.921Z</time></trkpt><trkpt lat="45.9288099" lon="11.7285407"><ele>193.0</ele><time>2026-04-25T06:29:33.916Z</time></trkpt><trkpt lat="45.9290559" lon="11.7284967"><ele>193.0</ele><time>2026-04-25T06:29:34.902Z</time></trkpt><trkpt lat="45.9292999" lon="11.7284412"><ele>193.0</ele><time>2026-04-25T06:29:35.912Z</time></trkpt><trkpt lat="45.929542" lon="11.7283733"><ele>193.0</ele><time>2026-04-25T06:29:36.923Z</time></trkpt><trkpt lat="45.9297834" lon="11.7282994"><ele>193.0</ele><time>2026-04-25T06:29:37.901Z</time></trkpt><trkpt lat="45.9300248" lon="11.7282243"><ele>193.0</ele><time>2026-04-25T06:29:38.924Z</time></trkpt><trkpt lat="45.9302646" lon="11.72815"><ele>316.0</ele><time>2026-04-25T06:29:39.923Z</time></trkpt><trkpt lat="45.9305034" lon="11.7280769"><ele>439.0</ele><time>2026-04-25T06:29:40.905Z</time></trkpt><trkpt lat="45.9309751" lon="11.7279297"><ele>439.0</ele><time>2026-04-25T06:29:42.911Z</time></trkpt><trkpt lat="45.9312099" lon="11.727849"><ele>439.0</ele><time>2026-04-25T06:29:43.922Z</time></trkpt><trkpt lat="45.9314409" lon="11.7277572"><ele>381.0</ele><time>2026-04-25T06:29:44.904Z</time></trkpt><trkpt lat="45.9316692" lon="11.7276499"><ele>323.0</ele><time>2026-04-25T06:29:45.906Z</time></trkpt><trkpt lat="45.931895" lon="11.7275304"><ele>323.0</ele><time>2026-04-25T06:29:46.914Z</time></trkpt><trkpt lat="45.9321174" lon="11.7274004"><ele>323.0</ele><time>2026-04-25T06:29:47.906Z</time></trkpt><trkpt lat="45.9323346" lon="11.7272591"><ele>323.0</ele><time>2026-04-25T06:29:48.92Z</time></trkpt><trkpt lat="45.9325468" lon="11.7271039"><ele>323.0</ele><time>2026-04-25T06:29:49.913Z</time></trkpt><trkpt lat="45.9327586" lon="11.7269419"><ele>261.5</ele><time>2026-04-25T06:29:50.915Z</time></trkpt><trkpt lat="45.9329694" lon="11.7267794"><ele>200.0</ele><time>2026-04-25T06:29:51.908Z</time></trkpt><trkpt lat="45.9331825" lon="11.7266185"><ele>200.0</ele><time>2026-04-25T06:29:52.911Z</time></trkpt><trkpt lat="45.9333948" lon="11.7264615"><ele>200.0</ele><time>2026-04-25T06:29:53.936Z</time></trkpt><trkpt lat="45.9336105" lon="11.7263188"><ele>200.0</ele><time>2026-04-25T06:29:54.915Z</time></trkpt><trkpt lat="45.9338271" lon="11.7261824"><ele>200.0</ele><time>2026-04-25T06:29:55.919Z</time></trkpt><trkpt lat="45.9340511" lon="11.7260714"><ele>200.0</ele><time>2026-04-25T06:29:56.905Z</time></trkpt><trkpt lat="45.9342769" lon="11.7259826"><ele>200.0</ele><time>2026-04-25T06:29:57.916Z</time></trkpt><trkpt lat="45.934503" lon="11.7258906"><ele>200.0</ele><time>2026-04-25T06:29:58.931Z</time></trkpt><trkpt lat="45.9347327" lon="11.7258135"><ele>200.0</ele><time>2026-04-25T06:29:59.934Z</time></trkpt><trkpt lat="45.9349635" lon="11.7257445"><ele>200.0</ele><time>2026-04-25T06:30:00.915Z</time></trkpt><trkpt lat="45.9351964" lon="11.7256837"><ele>200.0</ele><time>2026-04-25T06:30:01.911Z</time></trkpt><trkpt lat="45.9356551" lon="11.7255741"><ele>200.0</ele><time>2026-04-25T06:30:03.914Z</time></trkpt><trkpt lat="45.9358842" lon="11.7255185"><ele>200.0</ele><time>2026-04-25T06:30:04.901Z</time></trkpt><trkpt lat="45.9361091" lon="11.7254594"><ele>200.0</ele><time>2026-04-25T06:30:05.916Z</time></trkpt><trkpt lat="45.9363343" lon="11.7254052"><ele>200.0</ele><time>2026-04-25T06:30:06.898Z</time></trkpt><trkpt lat="45.9365597" lon="11.7253525"><ele>200.0</ele><time>2026-04-25T06:30:07.921Z</time></trkpt><trkpt lat="45.936784" lon="11.7252991"><ele>200.0</ele><time>2026-04-25T06:30:08.912Z</time></trkpt><trkpt lat="45.93701" lon="11.7252556"><ele>200.0</ele><time>2026-04-25T06:30:09.912Z</time></trkpt><trkpt lat="45.9372317" lon="11.725239"><ele>200.0</ele><time>2026-04-25T06:30:10.909Z</time></trkpt><trkpt lat="45.9374508" lon="11.7252447"><ele>200.0</ele><time>2026-04-25T06:30:11.916Z</time></trkpt><trkpt lat="45.9376714" lon="11.7252623"><ele>200.0</ele><time>2026-04-25T06:30:12.918Z</time></trkpt><trkpt lat="45.9378957" lon="11.7252826"><ele>200.0</ele><time>2026-04-25T06:30:13.915Z</time></trkpt><trkpt lat="45.9381219" lon="11.725304"><ele>200.0</ele><time>2026-04-25T06:30:14.908Z</time></trkpt><trkpt lat="45.9383492" lon="11.7253243"><ele>200.0</ele><time>2026-04-25T06:30:15.917Z</time></trkpt><trkpt lat="45.9385768" lon="11.725344"><ele>200.0</ele><time>2026-04-25T06:30:16.917Z</time></trkpt><trkpt lat="45.938805" lon="11.7253618"><ele>200.0</ele><time>2026-04-25T06:30:17.916Z</time></trkpt><trkpt lat="45.9390341" lon="11.7253769"><ele>200.0</ele><time>2026-04-25T06:30:18.905Z</time></trkpt><trkpt lat="45.9392638" lon="11.7253931"><ele>200.0</ele><time>2026-04-25T06:30:19.918Z</time></trkpt><trkpt lat="45.9394918" lon="11.7254124"><ele>200.0</ele><time>2026-04-25T06:30:20.913Z</time></trkpt><trkpt lat="45.9397198" lon="11.7254342"><ele>200.0</ele><time>2026-04-25T06:30:21.898Z</time></trkpt><trkpt lat="45.9399479" lon="11.7254548"><ele>200.0</ele><time>2026-04-25T06:30:22.915Z</time></trkpt><trkpt lat="45.9404009" lon="11.7254953"><ele>200.0</ele><time>2026-04-25T06:30:24.92Z</time></trkpt><trkpt lat="45.9406278" lon="11.7255228"><ele>200.0</ele><time>2026-04-25T06:30:25.919Z</time></trkpt><trkpt lat="45.9408493" lon="11.7255743"><ele>212.0</ele><time>2026-04-25T06:30:26.906Z</time></trkpt><trkpt lat="45.9410706" lon="11.7256474"><ele>224.0</ele><time>2026-04-25T06:30:27.907Z</time></trkpt><trkpt lat="45.9412936" lon="11.7257432"><ele>224.0</ele><time>2026-04-25T06:30:28.908Z</time></trkpt><trkpt lat="45.9415218" lon="11.7258435"><ele>224.0</ele><time>2026-04-25T06:30:29.898Z</time></trkpt><trkpt lat="45.9417526" lon="11.7259424"><ele>223.0</ele><time>2026-04-25T06:30:30.9Z</time></trkpt><trkpt lat="45.9419829" lon="11.7260387"><ele>222.0</ele><time>2026-04-25T06:30:31.899Z</time></trkpt><trkpt lat="45.9422149" lon="11.7261381"><ele>222.0</ele><time>2026-04-25T06:30:32.9Z</time></trkpt><trkpt lat="45.9424462" lon="11.726239"><ele>222.0</ele><time>2026-04-25T06:30:33.919Z</time></trkpt><trkpt lat="45.9426791" lon="11.7263373"><ele>222.0</ele><time>2026-04-25T06:30:34.91Z</time></trkpt><trkpt lat="45.9429119" lon="11.7264381"><ele>222.0</ele><time>2026-04-25T06:30:35.914Z</time></trkpt><trkpt lat="45.9431472" lon="11.7265381"><ele>222.0</ele><time>2026-04-25T06:30:36.913Z</time></trkpt><trkpt lat="45.94339" lon="11.7266409"><ele>222.0</ele><time>2026-04-25T06:30:37.909Z</time></trkpt><trkpt lat="45.9436365" lon="11.7267435"><ele>260.5</ele><time>2026-04-25T06:30:38.909Z</time></trkpt><trkpt lat="45.9438773" lon="11.7268356"><ele>299.0</ele><time>2026-04-25T06:30:39.91Z</time></trkpt><trkpt lat="45.944111" lon="11.7269002"><ele>305.5</ele><time>2026-04-25T06:30:40.912Z</time></trkpt><trkpt lat="45.9443473" lon="11.7269332"><ele>312.0</ele><time>2026-04-25T06:30:41.916Z</time></trkpt><trkpt lat="45.9445885" lon="11.7269285"><ele>312.0</ele><time>2026-04-25T06:30:42.911Z</time></trkpt><trkpt lat="45.944826" lon="11.7268984"><ele>312.0</ele><time>2026-04-25T06:30:43.911Z</time></trkpt><trkpt lat="45.9453048" lon="11.7268125"><ele>312.0</ele><time>2026-04-25T06:30:45.908Z</time></trkpt><trkpt lat="45.9455521" lon="11.7267585"><ele>312.0</ele><time>2026-04-25T06:30:46.918Z</time></trkpt><trkpt lat="45.9457991" lon="11.7267215"><ele>312.0</ele><time>2026-04-25T06:30:47.915Z</time></trkpt><trkpt lat="45.9460438" lon="11.7266638"><ele>312.0</ele><time>2026-04-25T06:30:48.908Z</time></trkpt><trkpt lat="45.9462888" lon="11.7266164"><ele>312.0</ele><time>2026-04-25T06:30:49.911Z</time></trkpt><trkpt lat="45.9465303" lon="11.7265659"><ele>312.0</ele><time>2026-04-25T06:30:50.92Z</time></trkpt><trkpt lat="45.9467702" lon="11.7264982"><ele>312.0</ele><time>2026-04-25T06:30:51.914Z</time></trkpt><trkpt lat="45.9470058" lon="11.7264085"><ele>312.0</ele><time>2026-04-25T06:30:52.899Z</time></trkpt><trkpt lat="45.9472352" lon="11.7263134"><ele>371.0</ele><time>2026-04-25T06:30:53.923Z</time></trkpt><trkpt lat="45.9474692" lon="11.7262136"><ele>430.0</ele><time>2026-04-25T06:30:54.923Z</time></trkpt><trkpt lat="45.9477035" lon="11.7261116"><ele>394.0</ele><time>2026-04-25T06:30:55.918Z</time></trkpt><trkpt lat="45.9479346" lon="11.7260008"><ele>358.0</ele><time>2026-04-25T06:30:56.899Z</time></trkpt><trkpt lat="45.9481581" lon="11.7258786"><ele>358.0</ele><time>2026-04-25T06:30:57.898Z</time></trkpt><trkpt lat="45.9483737" lon="11.7257424"><ele>358.0</ele><time>2026-04-25T06:30:58.919Z</time></trkpt><trkpt lat="45.9485827" lon="11.7255994"><ele>363.0</ele><time>2026-04-25T06:30:59.918Z</time></trkpt><trkpt lat="45.9487893" lon="11.7254618"><ele>368.0</ele><time>2026-04-25T06:31:00.91Z</time></trkpt><trkpt lat="45.9489979" lon="11.7253228"><ele>377.5</ele><time>2026-04-25T06:31:01.906Z</time></trkpt><trkpt lat="45.9492046" lon="11.7251792"><ele>387.0</ele><time>2026-04-25T06:31:02.912Z</time></trkpt><trkpt lat="45.9494122" lon="11.7250245"><ele>387.0</ele><time>2026-04-25T06:31:03.914Z</time></trkpt><trkpt lat="45.9496254" lon="11.724881"><ele>387.0</ele><time>2026-04-25T06:31:04.915Z</time></trkpt><trkpt lat="45.9500731" lon="11.7246632"><ele>385.5</ele><time>2026-04-25T06:31:06.931Z</time></trkpt><trkpt lat="45.9503053" lon="11.7245549"><ele>384.0</ele><time>2026-04-25T06:31:07.9Z</time></trkpt><trkpt lat="45.9505395" lon="11.7244425"><ele>366.5</ele><time>2026-04-25T06:31:08.903Z</time></trkpt><trkpt lat="45.9507647" lon="11.7243229"><ele>349.0</ele><time>2026-04-25T06:31:09.916Z</time></trkpt><trkpt lat="45.9509836" lon="11.7241993"><ele>349.0</ele><time>2026-04-25T06:31:10.906Z</time></trkpt><trkpt lat="45.9512061" lon="11.7240682"><ele>349.0</ele><time>2026-04-25T06:31:11.915Z</time></trkpt><trkpt lat="45.9514192" lon="11.7239122"><ele>349.0</ele><time>2026-04-25T06:31:12.898Z</time></trkpt><trkpt lat="45.9516181" lon="11.7237322"><ele>349.0</ele><time>2026-04-25T06:31:13.904Z</time></trkpt><trkpt lat="45.951815" lon="11.7235618"><ele>329.5</ele><time>2026-04-25T06:31:14.916Z</time></trkpt><trkpt lat="45.9519854" lon="11.7233294"><ele>310.0</ele><time>2026-04-25T06:31:15.898Z</time></trkpt><trkpt lat="45.9521449" lon="11.7230747"><ele>310.0</ele><time>2026-04-25T06:31:16.923Z</time></trkpt><trkpt lat="45.9523085" lon="11.7228175"><ele>310.0</ele><time>2026-04-25T06:31:17.898Z</time></trkpt><trkpt lat="45.9524698" lon="11.7225575"><ele>287.0</ele><time>2026-04-25T06:31:18.913Z</time></trkpt><trkpt lat="45.9526345" lon="11.72229"><ele>264.0</ele><time>2026-04-25T06:31:19.931Z</time></trkpt><trkpt lat="45.9527949" lon="11.7220086"><ele>242.5</ele><time>2026-04-25T06:31:20.911Z</time></trkpt><trkpt lat="45.9529552" lon="11.7217301"><ele>221.0</ele><time>2026-04-25T06:31:21.921Z</time></trkpt><trkpt lat="45.9531214" lon="11.7214548"><ele>221.0</ele><time>2026-04-25T06:31:22.919Z</time></trkpt><trkpt lat="45.9532831" lon="11.7211822"><ele>221.0</ele><time>2026-04-25T06:31:23.911Z</time></trkpt><trkpt lat="45.9534481" lon="11.7209103"><ele>221.0</ele><time>2026-04-25T06:31:24.911Z</time></trkpt><trkpt lat="45.9536133" lon="11.7206273"><ele>221.0</ele><time>2026-04-25T06:31:25.908Z</time></trkpt><trkpt lat="45.953891" lon="11.720054"><ele>221.0</ele><time>2026-04-25T06:31:27.92Z</time></trkpt><trkpt lat="45.9540154" lon="11.7197621"><ele>221.0</ele><time>2026-04-25T06:31:28.917Z</time></trkpt><trkpt lat="45.9541299" lon="11.7194663"><ele>245.0</ele><time>2026-04-25T06:31:29.909Z</time></trkpt><trkpt lat="45.9542322" lon="11.7191633"><ele>269.0</ele><time>2026-04-25T06:31:30.921Z</time></trkpt><trkpt lat="45.9543162" lon="11.7188483"><ele>261.0</ele><time>2026-04-25T06:31:31.916Z</time></trkpt><trkpt lat="45.9543909" lon="11.7185292"><ele>253.0</ele><time>2026-04-25T06:31:32.921Z</time></trkpt><trkpt lat="45.954455" lon="11.718202"><ele>253.0</ele><time>2026-04-25T06:31:33.92Z</time></trkpt><trkpt lat="45.9545039" lon="11.7178663"><ele>253.0</ele><time>2026-04-25T06:31:34.919Z</time></trkpt><trkpt lat="45.9545422" lon="11.7175257"><ele>243.0</ele><time>2026-04-25T06:31:35.903Z</time></trkpt><trkpt lat="45.954569" lon="11.7171825"><ele>233.0</ele><time>2026-04-25T06:31:36.903Z</time></trkpt><trkpt lat="45.9545909" lon="11.7168354"><ele>228.0</ele><time>2026-04-25T06:31:37.92Z</time></trkpt><trkpt lat="45.9546132" lon="11.71649"><ele>223.0</ele><time>2026-04-25T06:31:38.929Z</time></trkpt><trkpt lat="45.9546407" lon="11.7161477"><ele>221.5</ele><time>2026-04-25T06:31:39.909Z</time></trkpt><trkpt lat="45.9546757" lon="11.7158069"><ele>220.0</ele><time>2026-04-25T06:31:40.898Z</time></trkpt><trkpt lat="45.9547167" lon="11.7154691"><ele>223.5</ele><time>2026-04-25T06:31:41.915Z</time></trkpt><trkpt lat="45.9547673" lon="11.7151369"><ele>227.0</ele><time>2026-04-25T06:31:42.902Z</time></trkpt><trkpt lat="45.9548279" lon="11.7148134"><ele>227.0</ele><time>2026-04-25T06:31:43.923Z</time></trkpt><trkpt lat="45.9549052" lon="11.7145058"><ele>227.0</ele><time>2026-04-25T06:31:44.923Z</time></trkpt><trkpt lat="45.9549978" lon="11.7142069"><ele>233.0</ele><time>2026-04-25T06:31:45.918Z</time></trkpt><trkpt lat="45.9551082" lon="11.7139205"><ele>239.0</ele><time>2026-04-25T06:31:46.92Z</time></trkpt><trkpt lat="45.9553767" lon="11.7133985"><ele>239.0</ele><time>2026-04-25T06:31:48.91Z</time></trkpt><trkpt lat="45.9555212" lon="11.7131644"><ele>239.0</ele><time>2026-04-25T06:31:49.918Z</time></trkpt><trkpt lat="45.9556846" lon="11.712938"><ele>239.0</ele><time>2026-04-25T06:31:50.929Z</time></trkpt><trkpt lat="45.9558497" lon="11.7127128"><ele>241.66666666666669</ele><time>2026-04-25T06:31:51.926Z</time></trkpt><trkpt lat="45.956008" lon="11.71248"><ele>244.33333333333331</ele><time>2026-04-25T06:31:52.92Z</time></trkpt><trkpt lat="45.9561656" lon="11.7122649"><ele>247.0</ele><time>2026-04-25T06:31:53.91Z</time></trkpt><trkpt lat="45.9563237" lon="11.7120489"><ele>246.33333333333331</ele><time>2026-04-25T06:31:54.912Z</time></trkpt><trkpt lat="45.9564851" lon="11.7118519"><ele>245.66666666666669</ele><time>2026-04-25T06:31:55.916Z</time></trkpt><trkpt lat="45.9566502" lon="11.7116612"><ele>245.0</ele><time>2026-04-25T06:31:56.948Z</time></trkpt><trkpt lat="45.9568221" lon="11.7114827"><ele>245.0</ele><time>2026-04-25T06:31:57.909Z</time></trkpt><trkpt lat="45.9569991" lon="11.711309"><ele>245.0</ele><time>2026-04-25T06:31:58.923Z</time></trkpt><trkpt lat="45.9571811" lon="11.7111396"><ele>245.0</ele><time>2026-04-25T06:31:59.904Z</time></trkpt><trkpt lat="45.9573665" lon="11.7109705"><ele>241.66666666666669</ele><time>2026-04-25T06:32:00.91Z</time></trkpt><trkpt lat="45.9575518" lon="11.7108024"><ele>238.33333333333331</ele><time>2026-04-25T06:32:01.924Z</time></trkpt><trkpt lat="45.9577355" lon="11.7106337"><ele>235.0</ele><time>2026-04-25T06:32:02.919Z</time></trkpt><trkpt lat="45.9579221" lon="11.7104707"><ele>235.0</ele><time>2026-04-25T06:32:03.907Z</time></trkpt><trkpt lat="45.9581176" lon="11.7103093"><ele>235.0</ele><time>2026-04-25T06:32:04.927Z</time></trkpt><trkpt lat="45.9582982" lon="11.7101401"><ele>235.0</ele><time>2026-04-25T06:32:05.932Z</time></trkpt><trkpt lat="45.9584778" lon="11.7099683"><ele>230.5</ele><time>2026-04-25T06:32:06.922Z</time></trkpt><trkpt lat="45.9586572" lon="11.7098091"><ele>226.0</ele><time>2026-04-25T06:32:07.917Z</time></trkpt><trkpt lat="45.9590128" lon="11.7094911"><ele>225.33333333333331</ele><time>2026-04-25T06:32:09.93Z</time></trkpt><trkpt lat="45.9591841" lon="11.7093418"><ele>224.66666666666669</ele><time>2026-04-25T06:32:10.909Z</time></trkpt><trkpt lat="45.95934" lon="11.7091971"><ele>224.0</ele><time>2026-04-25T06:32:11.917Z</time></trkpt><trkpt lat="45.9594935" lon="11.7090602"><ele>224.0</ele><time>2026-04-25T06:32:12.917Z</time></trkpt><trkpt lat="45.9596506" lon="11.7089247"><ele>224.0</ele><time>2026-04-25T06:32:13.923Z</time></trkpt><trkpt lat="45.9598069" lon="11.7087858"><ele>224.0</ele><time>2026-04-25T06:32:14.902Z</time></trkpt><trkpt lat="45.9599637" lon="11.7086399"><ele>220.66666666666669</ele><time>2026-04-25T06:32:15.92Z</time></trkpt><trkpt lat="45.9601143" lon="11.7084995"><ele>217.33333333333331</ele><time>2026-04-25T06:32:16.925Z</time></trkpt><trkpt lat="45.9602565" lon="11.7083698"><ele>214.0</ele><time>2026-04-25T06:32:17.918Z</time></trkpt><trkpt lat="45.9604004" lon="11.7082529"><ele>214.0</ele><time>2026-04-25T06:32:18.922Z</time></trkpt><trkpt lat="45.9605515" lon="11.7081635"><ele>214.0</ele><time>2026-04-25T06:32:19.916Z</time></trkpt><trkpt lat="45.9607099" lon="11.7081138"><ele>214.0</ele><time>2026-04-25T06:32:20.923Z</time></trkpt><trkpt lat="45.9608671" lon="11.7080977"><ele>214.25</ele><time>2026-04-25T06:32:21.919Z</time></trkpt><trkpt lat="45.9610219" lon="11.7081108"><ele>214.5</ele><time>2026-04-25T06:32:22.924Z</time></trkpt><trkpt lat="45.9611651" lon="11.7081405"><ele>214.75</ele><time>2026-04-25T06:32:23.903Z</time></trkpt><trkpt lat="45.9612967" lon="11.7081706"><ele>215.0</ele><time>2026-04-25T06:32:24.921Z</time></trkpt><trkpt lat="45.9614216" lon="11.7081859"><ele>215.0</ele><time>2026-04-25T06:32:25.921Z</time></trkpt><trkpt lat="45.9615458" lon="11.7081812"><ele>215.0</ele><time>2026-04-25T06:32:26.91Z</time></trkpt><trkpt lat="45.9616633" lon="11.7081422"><ele>215.0</ele><time>2026-04-25T06:32:27.908Z</time></trkpt><trkpt lat="45.9617723" lon="11.7080724"><ele>215.0</ele><time>2026-04-25T06:32:28.91Z</time></trkpt><trkpt lat="45.9618977" lon="11.7078408"><ele>214.8</ele><time>2026-04-25T06:32:30.931Z</time></trkpt><trkpt lat="45.961923" lon="11.7076935"><ele>214.6</ele><time>2026-04-25T06:32:31.924Z</time></trkpt><trkpt lat="45.9619198" lon="11.7075316"><ele>214.39999999999998</ele><time>2026-04-25T06:32:32.923Z</time></trkpt><trkpt lat="45.9618854" lon="11.7073803"><ele>214.2</ele><time>2026-04-25T06:32:33.92Z</time></trkpt><trkpt lat="45.9618197" lon="11.7072487"><ele>214.0</ele><time>2026-04-25T06:32:34.925Z</time></trkpt><trkpt lat="45.9617428" lon="11.7071408"><ele>214.5</ele><time>2026-04-25T06:32:35.917Z</time></trkpt><trkpt lat="45.9616385" lon="11.7070746"><ele>215.0</ele><time>2026-04-25T06:32:36.928Z</time></trkpt><trkpt lat="45.9615208" lon="11.7070118"><ele>215.5</ele><time>2026-04-25T06:32:37.924Z</time></trkpt><trkpt lat="45.9613912" lon="11.7069475"><ele>216.0</ele><time>2026-04-25T06:32:38.922Z</time></trkpt><trkpt lat="45.9612525" lon="11.7068813"><ele>216.0</ele><time>2026-04-25T06:32:39.928Z</time></trkpt><trkpt lat="45.9611119" lon="11.7068103"><ele>216.0</ele><time>2026-04-25T06:32:40.929Z</time></trkpt><trkpt lat="45.9609704" lon="11.7067408"><ele>216.0</ele><time>2026-04-25T06:32:41.921Z</time></trkpt><trkpt lat="45.9608354" lon="11.7066701"><ele>216.0</ele><time>2026-04-25T06:32:42.923Z</time></trkpt><trkpt lat="45.9606986" lon="11.706606"><ele>215.0</ele><time>2026-04-25T06:32:43.929Z</time></trkpt><trkpt lat="45.9605505" lon="11.706555"><ele>214.0</ele><time>2026-04-25T06:32:44.925Z</time></trkpt><trkpt lat="45.9603982" lon="11.7065213"><ele>213.0</ele><time>2026-04-25T06:32:45.92Z</time></trkpt><trkpt lat="45.9602382" lon="11.7065065"><ele>213.0</ele><time>2026-04-25T06:32:46.911Z</time></trkpt><trkpt lat="45.9600744" lon="11.7065263"><ele>213.0</ele><time>2026-04-25T06:32:47.913Z</time></trkpt><trkpt lat="45.9599181" lon="11.7065471"><ele>213.0</ele><time>2026-04-25T06:32:48.909Z</time></trkpt><trkpt lat="45.9597705" lon="11.7065546"><ele>217.33333333333331</ele><time>2026-04-25T06:32:49.918Z</time></trkpt><trkpt lat="45.9594726" lon="11.7065291"><ele>221.66666666666666</ele><time>2026-04-25T06:32:51.919Z</time></trkpt><trkpt lat="45.9593301" lon="11.7065026"><ele>226.0</ele><time>2026-04-25T06:32:52.923Z</time></trkpt><trkpt lat="45.9591927" lon="11.7064827"><ele>226.0</ele><time>2026-04-25T06:32:53.92Z</time></trkpt><trkpt lat="45.9590487" lon="11.7064781"><ele>226.0</ele><time>2026-04-25T06:32:54.946Z</time></trkpt><trkpt lat="45.9589064" lon="11.7065019"><ele>226.0</ele><time>2026-04-25T06:32:55.923Z</time></trkpt><trkpt lat="45.9587687" lon="11.7065509"><ele>226.0</ele><time>2026-04-25T06:32:56.925Z</time></trkpt><trkpt lat="45.9586268" lon="11.7066148"><ele>226.0</ele><time>2026-04-25T06:32:57.92Z</time></trkpt><trkpt lat="45.9584927" lon="11.7067125"><ele>226.0</ele><time>2026-04-25T06:32:58.933Z</time></trkpt><trkpt lat="45.9583561" lon="11.7068195"><ele>226.0</ele><time>2026-04-25T06:32:59.904Z</time></trkpt><trkpt lat="45.9582213" lon="11.7069359"><ele>223.0</ele><time>2026-04-25T06:33:00.917Z</time></trkpt><trkpt lat="45.9580909" lon="11.7070577"><ele>220.0</ele><time>2026-04-25T06:33:01.923Z</time></trkpt><trkpt lat="45.957964" lon="11.7071935"><ele>217.0</ele><time>2026-04-25T06:33:02.911Z</time></trkpt><trkpt lat="45.9578317" lon="11.7073277"><ele>217.0</ele><time>2026-04-25T06:33:03.918Z</time></trkpt><trkpt lat="45.9576866" lon="11.707437"><ele>217.0</ele><time>2026-04-25T06:33:04.907Z</time></trkpt><trkpt lat="45.9575263" lon="11.7075161"><ele>217.0</ele><time>2026-04-25T06:33:05.922Z</time></trkpt><trkpt lat="45.9573552" lon="11.7075863"><ele>216.66666666666666</ele><time>2026-04-25T06:33:06.92Z</time></trkpt><trkpt lat="45.9571808" lon="11.7076651"><ele>216.33333333333331</ele><time>2026-04-25T06:33:07.917Z</time></trkpt><trkpt lat="45.9570015" lon="11.7077539"><ele>216.0</ele><time>2026-04-25T06:33:08.919Z</time></trkpt><trkpt lat="45.9568176" lon="11.7078522"><ele>222.5</ele><time>2026-04-25T06:33:09.914Z</time></trkpt><trkpt lat="45.9566363" lon="11.7079581"><ele>229.0</ele><time>2026-04-25T06:33:10.916Z</time></trkpt><trkpt lat="45.9562787" lon="11.7081543"><ele>229.0</ele><time>2026-04-25T06:33:12.907Z</time></trkpt><trkpt lat="45.9561078" lon="11.7082369"><ele>229.0</ele><time>2026-04-25T06:33:13.91Z</time></trkpt><trkpt lat="45.9559502" lon="11.7083348"><ele>229.0</ele><time>2026-04-25T06:33:14.917Z</time></trkpt><trkpt lat="45.9557912" lon="11.7084529"><ele>230.33333333333331</ele><time>2026-04-25T06:33:15.913Z</time></trkpt><trkpt lat="45.9556333" lon="11.7085949"><ele>231.66666666666669</ele><time>2026-04-25T06:33:16.901Z</time></trkpt><trkpt lat="45.9554779" lon="11.7087426"><ele>233.0</ele><time>2026-04-25T06:33:17.912Z</time></trkpt><trkpt lat="45.955324" lon="11.7088997"><ele>233.0</ele><time>2026-04-25T06:33:18.908Z</time></trkpt><trkpt lat="45.9551815" lon="11.7090763"><ele>233.0</ele><time>2026-04-25T06:33:19.916Z</time></trkpt><trkpt lat="45.9550465" lon="11.7092702"><ele>233.0</ele><time>2026-04-25T06:33:20.917Z</time></trkpt><trkpt lat="45.9549267" lon="11.7094764"><ele>236.66666666666669</ele><time>2026-04-25T06:33:21.912Z</time></trkpt><trkpt lat="45.9548058" lon="11.7096924"><ele>240.33333333333331</ele><time>2026-04-25T06:33:22.915Z</time></trkpt><trkpt lat="45.9546969" lon="11.7099014"><ele>244.0</ele><time>2026-04-25T06:33:23.911Z</time></trkpt><trkpt lat="45.9545983" lon="11.7101159"><ele>238.33333333333331</ele><time>2026-04-25T06:33:24.919Z</time></trkpt><trkpt lat="45.9545094" lon="11.7103385"><ele>232.66666666666669</ele><time>2026-04-25T06:33:25.917Z</time></trkpt><trkpt lat="45.9544274" lon="11.7105475"><ele>227.0</ele><time>2026-04-25T06:33:26.916Z</time></trkpt><trkpt lat="45.9543508" lon="11.7107381"><ele>227.0</ele><time>2026-04-25T06:33:27.918Z</time></trkpt><trkpt lat="45.9542851" lon="11.7108997"><ele>227.0</ele><time>2026-04-25T06:33:28.913Z</time></trkpt><trkpt lat="45.9542326" lon="11.7110344"><ele>227.0</ele><time>2026-04-25T06:33:29.905Z</time></trkpt><trkpt lat="45.9541909" lon="11.7111322"><ele>227.0</ele><time>2026-04-25T06:33:30.909Z</time></trkpt><trkpt lat="45.9541377" lon="11.711246"><ele>227.0</ele><time>2026-04-25T06:33:32.916Z</time></trkpt><trkpt lat="45.9541125" lon="11.7110506"><ele>227.0</ele><time>2026-04-25T06:33:36.914Z</time></trkpt><trkpt lat="45.9541476" lon="11.7109377"><ele>227.0</ele><time>2026-04-25T06:33:37.917Z</time></trkpt><trkpt lat="45.9541851" lon="11.710799"><ele>227.0</ele><time>2026-04-25T06:33:38.911Z</time></trkpt><trkpt lat="45.9542247" lon="11.7106348"><ele>227.0</ele><time>2026-04-25T06:33:39.913Z</time></trkpt><trkpt lat="45.9542693" lon="11.7104595"><ele>227.0</ele><time>2026-04-25T06:33:40.921Z</time></trkpt><trkpt lat="45.954311" lon="11.7102633"><ele>232.66666666666669</ele><time>2026-04-25T06:33:41.916Z</time></trkpt><trkpt lat="45.9543571" lon="11.7100529"><ele>238.33333333333331</ele><time>2026-04-25T06:33:42.926Z</time></trkpt><trkpt lat="45.9544061" lon="11.7098288"><ele>244.0</ele><time>2026-04-25T06:33:43.922Z</time></trkpt><trkpt lat="45.9544655" lon="11.7096032"><ele>248.0</ele><time>2026-04-25T06:33:44.909Z</time></trkpt><trkpt lat="45.9545288" lon="11.7093867"><ele>252.0</ele><time>2026-04-25T06:33:45.912Z</time></trkpt><trkpt lat="45.9545813" lon="11.7091997"><ele>256.0</ele><time>2026-04-25T06:33:46.895Z</time></trkpt><trkpt lat="45.9546459" lon="11.709024"><ele>260.0</ele><time>2026-04-25T06:33:47.911Z</time></trkpt><trkpt lat="45.9547124" lon="11.7088549"><ele>260.0</ele><time>2026-04-25T06:33:48.924Z</time></trkpt><trkpt lat="45.9547778" lon="11.708698"><ele>260.0</ele><time>2026-04-25T06:33:49.922Z</time></trkpt><trkpt lat="45.9548389" lon="11.7085723"><ele>260.0</ele><time>2026-04-25T06:33:50.922Z</time></trkpt><trkpt lat="45.9548886" lon="11.708477"><ele>260.0</ele><time>2026-04-25T06:33:51.92Z</time></trkpt><trkpt lat="45.9548858" lon="11.7083272"><ele>260.0</ele><time>2026-04-25T06:33:53.927Z</time></trkpt><trkpt lat="45.9547203" lon="11.7083793"><ele>260.0</ele><time>2026-04-25T06:33:56.912Z</time></trkpt><trkpt lat="45.9546535" lon="11.7085287"><ele>260.0</ele><time>2026-04-25T06:33:57.901Z</time></trkpt><trkpt lat="45.9545965" lon="11.70868"><ele>260.0</ele><time>2026-04-25T06:33:58.932Z</time></trkpt><trkpt lat="45.9545392" lon="11.7088597"><ele>260.0</ele><time>2026-04-25T06:33:59.902Z</time></trkpt><trkpt lat="45.9544335" lon="11.7090416"><ele>260.0</ele><time>2026-04-25T06:34:00.908Z</time></trkpt><trkpt lat="45.9543264" lon="11.7092314"><ele>260.0</ele><time>2026-04-25T06:34:01.92Z</time></trkpt><trkpt lat="45.9542327" lon="11.7094224"><ele>260.0</ele><time>2026-04-25T06:34:02.918Z</time></trkpt><trkpt lat="45.954139" lon="11.7096048"><ele>267.33333333333337</ele><time>2026-04-25T06:34:03.919Z</time></trkpt><trkpt lat="45.954046" lon="11.709805"><ele>274.6666666666667</ele><time>2026-04-25T06:34:04.914Z</time></trkpt><trkpt lat="45.9539665" lon="11.7099941"><ele>282.0</ele><time>2026-04-25T06:34:05.923Z</time></trkpt><trkpt lat="45.9538928" lon="11.7101736"><ele>278.5</ele><time>2026-04-25T06:34:06.912Z</time></trkpt><trkpt lat="45.9538251" lon="11.7103514"><ele>275.0</ele><time>2026-04-25T06:34:07.918Z</time></trkpt><trkpt lat="45.9537591" lon="11.710527"><ele>271.5</ele><time>2026-04-25T06:34:08.92Z</time></trkpt><trkpt lat="45.9536997" lon="11.7107041"><ele>268.0</ele><time>2026-04-25T06:34:09.911Z</time></trkpt><trkpt lat="45.9536476" lon="11.7108737"><ele>268.0</ele><time>2026-04-25T06:34:10.917Z</time></trkpt><trkpt lat="45.9536119" lon="11.7110491"><ele>268.0</ele><time>2026-04-25T06:34:11.916Z</time></trkpt><trkpt lat="45.9535897" lon="11.7111966"><ele>268.0</ele><time>2026-04-25T06:34:12.921Z</time></trkpt><trkpt lat="45.9535899" lon="11.7113312"><ele>268.0</ele><time>2026-04-25T06:34:13.911Z</time></trkpt><trkpt lat="45.9535798" lon="11.7114652"><ele>268.0</ele><time>2026-04-25T06:34:14.903Z</time></trkpt><trkpt lat="45.9535254" lon="11.7117228"><ele>264.75</ele><time>2026-04-25T06:34:16.927Z</time></trkpt><trkpt lat="45.9534565" lon="11.7118505"><ele>261.5</ele><time>2026-04-25T06:34:17.916Z</time></trkpt><trkpt lat="45.9533933" lon="11.7120196"><ele>258.25</ele><time>2026-04-25T06:34:18.92Z</time></trkpt><trkpt lat="45.9533127" lon="11.7121738"><ele>255.0</ele><time>2026-04-25T06:34:19.925Z</time></trkpt><trkpt lat="45.9532317" lon="11.7123151"><ele>268.25</ele><time>2026-04-25T06:34:20.898Z</time></trkpt><trkpt lat="45.953182" lon="11.7124804"><ele>281.5</ele><time>2026-04-25T06:34:21.915Z</time></trkpt><trkpt lat="45.9531674" lon="11.7126557"><ele>294.75</ele><time>2026-04-25T06:34:22.918Z</time></trkpt><trkpt lat="45.953153" lon="11.7128215"><ele>308.0</ele><time>2026-04-25T06:34:23.921Z</time></trkpt><trkpt lat="45.9531398" lon="11.7129635"><ele>308.0</ele><time>2026-04-25T06:34:24.912Z</time></trkpt><trkpt lat="45.9531317" lon="11.7130837"><ele>308.0</ele><time>2026-04-25T06:34:25.919Z</time></trkpt><trkpt lat="45.9531228" lon="11.7132383"><ele>308.0</ele><time>2026-04-25T06:34:27.896Z</time></trkpt><trkpt lat="45.9531219" lon="11.7133685"><ele>308.0</ele><time>2026-04-25T06:34:29.899Z</time></trkpt><trkpt lat="45.9530698" lon="11.7134445"><ele>308.0</ele><time>2026-04-25T06:34:31.914Z</time></trkpt><trkpt lat="45.953006" lon="11.7133494"><ele>308.0</ele><time>2026-04-25T06:34:34.92Z</time></trkpt><trkpt lat="45.9530129" lon="11.7132323"><ele>308.0</ele><time>2026-04-25T06:34:35.905Z</time></trkpt><trkpt lat="45.953032" lon="11.7129421"><ele>308.0</ele><time>2026-04-25T06:34:37.904Z</time></trkpt><trkpt lat="45.9530361" lon="11.712783"><ele>308.0</ele><time>2026-04-25T06:34:38.916Z</time></trkpt><trkpt lat="45.9530402" lon="11.7125587"><ele>309.75</ele><time>2026-04-25T06:34:39.916Z</time></trkpt><trkpt lat="45.9530736" lon="11.7123625"><ele>311.5</ele><time>2026-04-25T06:34:40.912Z</time></trkpt><trkpt lat="45.953108" lon="11.7121861"><ele>313.25</ele><time>2026-04-25T06:34:41.913Z</time></trkpt><trkpt lat="45.9531662" lon="11.7120214"><ele>315.0</ele><time>2026-04-25T06:34:42.925Z</time></trkpt><trkpt lat="45.9532308" lon="11.7118554"><ele>317.5</ele><time>2026-04-25T06:34:43.909Z</time></trkpt><trkpt lat="45.9532885" lon="11.7117038"><ele>320.0</ele><time>2026-04-25T06:34:44.925Z</time></trkpt><trkpt lat="45.953346" lon="11.7115535"><ele>322.5</ele><time>2026-04-25T06:34:45.911Z</time></trkpt><trkpt lat="45.9533692" lon="11.7113895"><ele>325.0</ele><time>2026-04-25T06:34:46.909Z</time></trkpt><trkpt lat="45.9533729" lon="11.7111932"><ele>330.25</ele><time>2026-04-25T06:34:47.918Z</time></trkpt><trkpt lat="45.953359" lon="11.7110085"><ele>335.5</ele><time>2026-04-25T06:34:48.912Z</time></trkpt><trkpt lat="45.9533769" lon="11.7108175"><ele>340.75</ele><time>2026-04-25T06:34:49.921Z</time></trkpt><trkpt lat="45.9533921" lon="11.710631"><ele>346.0</ele><time>2026-04-25T06:34:50.92Z</time></trkpt><trkpt lat="45.953415" lon="11.7104219"><ele>330.0</ele><time>2026-04-25T06:34:51.901Z</time></trkpt><trkpt lat="45.9534405" lon="11.7102178"><ele>314.0</ele><time>2026-04-25T06:34:52.922Z</time></trkpt><trkpt lat="45.9534644" lon="11.7100133"><ele>298.0</ele><time>2026-04-25T06:34:53.917Z</time></trkpt><trkpt lat="45.9534952" lon="11.7098073"><ele>282.0</ele><time>2026-04-25T06:34:54.904Z</time></trkpt><trkpt lat="45.9535177" lon="11.7096124"><ele>282.0</ele><time>2026-04-25T06:34:55.919Z</time></trkpt><trkpt lat="45.9535458" lon="11.7094188"><ele>282.0</ele><time>2026-04-25T06:34:56.899Z</time></trkpt><trkpt lat="45.9536508" lon="11.7090666"><ele>282.0</ele><time>2026-04-25T06:34:58.916Z</time></trkpt><trkpt lat="45.9537213" lon="11.7089147"><ele>286.3333333333333</ele><time>2026-04-25T06:34:59.909Z</time></trkpt><trkpt lat="45.9537912" lon="11.7087916"><ele>290.6666666666667</ele><time>2026-04-25T06:35:00.905Z</time></trkpt><trkpt lat="45.9538561" lon="11.7086892"><ele>295.0</ele><time>2026-04-25T06:35:01.913Z</time></trkpt><trkpt lat="45.9539173" lon="11.7086038"><ele>299.33333333333337</ele><time>2026-04-25T06:35:02.905Z</time></trkpt><trkpt lat="45.9539687" lon="11.708526"><ele>303.6666666666667</ele><time>2026-04-25T06:35:03.921Z</time></trkpt><trkpt lat="45.9540145" lon="11.708456"><ele>308.0</ele><time>2026-04-25T06:35:04.921Z</time></trkpt><trkpt lat="45.9540675" lon="11.7083142"><ele>308.0</ele><time>2026-04-25T06:35:06.91Z</time></trkpt><trkpt lat="45.9540285" lon="11.7082008"><ele>308.0</ele><time>2026-04-25T06:35:08.911Z</time></trkpt><trkpt lat="45.953953" lon="11.70825"><ele>308.0</ele><time>2026-04-25T06:35:09.894Z</time></trkpt><trkpt lat="45.953891" lon="11.7083502"><ele>308.0</ele><time>2026-04-25T06:35:10.922Z</time></trkpt><trkpt lat="45.9538308" lon="11.7084523"><ele>308.0</ele><time>2026-04-25T06:35:11.901Z</time></trkpt><trkpt lat="45.9537586" lon="11.708588"><ele>308.0</ele><time>2026-04-25T06:35:12.907Z</time></trkpt><trkpt lat="45.9536792" lon="11.7087371"><ele>308.0</ele><time>2026-04-25T06:35:13.907Z</time></trkpt><trkpt lat="45.9535801" lon="11.7089057"><ele>308.0</ele><time>2026-04-25T06:35:14.925Z</time></trkpt><trkpt lat="45.9535045" lon="11.7090928"><ele>308.0</ele><time>2026-04-25T06:35:15.912Z</time></trkpt><trkpt lat="45.9534446" lon="11.7093096"><ele>299.33333333333337</ele><time>2026-04-25T06:35:16.914Z</time></trkpt><trkpt lat="45.9534053" lon="11.7095249"><ele>290.6666666666667</ele><time>2026-04-25T06:35:17.905Z</time></trkpt><trkpt lat="45.9533544" lon="11.7099268"><ele>282.0</ele><time>2026-04-25T06:35:19.911Z</time></trkpt><trkpt lat="45.9533195" lon="11.7101314"><ele>298.0</ele><time>2026-04-25T06:35:20.916Z</time></trkpt><trkpt lat="45.9532785" lon="11.7103341"><ele>314.0</ele><time>2026-04-25T06:35:21.901Z</time></trkpt><trkpt lat="45.9532283" lon="11.7105342"><ele>330.0</ele><time>2026-04-25T06:35:22.914Z</time></trkpt><trkpt lat="45.9531776" lon="11.710739"><ele>346.0</ele><time>2026-04-25T06:35:23.907Z</time></trkpt><trkpt lat="45.9531219" lon="11.7109299"><ele>340.75</ele><time>2026-04-25T06:35:24.899Z</time></trkpt><trkpt lat="45.9530648" lon="11.7111195"><ele>335.5</ele><time>2026-04-25T06:35:25.919Z</time></trkpt><trkpt lat="45.9530332" lon="11.7113225"><ele>330.25</ele><time>2026-04-25T06:35:26.908Z</time></trkpt><trkpt lat="45.9530022" lon="11.7115258"><ele>325.0</ele><time>2026-04-25T06:35:27.936Z</time></trkpt><trkpt lat="45.9529655" lon="11.7117189"><ele>321.66666666666663</ele><time>2026-04-25T06:35:28.916Z</time></trkpt><trkpt lat="45.9529147" lon="11.7119208"><ele>318.3333333333333</ele><time>2026-04-25T06:35:29.906Z</time></trkpt><trkpt lat="45.9528459" lon="11.7121255"><ele>315.0</ele><time>2026-04-25T06:35:30.92Z</time></trkpt><trkpt lat="45.9527663" lon="11.7123179"><ele>315.0</ele><time>2026-04-25T06:35:31.91Z</time></trkpt><trkpt lat="45.9526882" lon="11.7124861"><ele>315.0</ele><time>2026-04-25T06:35:32.918Z</time></trkpt><trkpt lat="45.9526231" lon="11.7126453"><ele>315.0</ele><time>2026-04-25T06:35:33.927Z</time></trkpt><trkpt lat="45.9525681" lon="11.7128073"><ele>315.0</ele><time>2026-04-25T06:35:34.91Z</time></trkpt><trkpt lat="45.9525395" lon="11.7129751"><ele>313.25</ele><time>2026-04-25T06:35:35.927Z</time></trkpt><trkpt lat="45.9525111" lon="11.7131489"><ele>311.5</ele><time>2026-04-25T06:35:36.906Z</time></trkpt><trkpt lat="45.952531" lon="11.7133586"><ele>309.75</ele><time>2026-04-25T06:35:37.917Z</time></trkpt><trkpt lat="45.9525689" lon="11.7135447"><ele>308.0</ele><time>2026-04-25T06:35:38.912Z</time></trkpt><trkpt lat="45.9526574" lon="11.7138998"><ele>314.5</ele><time>2026-04-25T06:35:40.908Z</time></trkpt><trkpt lat="45.9527121" lon="11.7141007"><ele>321.0</ele><time>2026-04-25T06:35:41.896Z</time></trkpt><trkpt lat="45.9527285" lon="11.7143123"><ele>327.5</ele><time>2026-04-25T06:35:42.916Z</time></trkpt><trkpt lat="45.952739" lon="11.714479"><ele>334.0</ele><time>2026-04-25T06:35:43.914Z</time></trkpt><trkpt lat="45.9527525" lon="11.7146362"><ele>335.0</ele><time>2026-04-25T06:35:44.908Z</time></trkpt><trkpt lat="45.9527409" lon="11.7148038"><ele>336.0</ele><time>2026-04-25T06:35:45.91Z</time></trkpt><trkpt lat="45.9527009" lon="11.7149667"><ele>337.0</ele><time>2026-04-25T06:35:46.913Z</time></trkpt><trkpt lat="45.9526629" lon="11.7151534"><ele>338.0</ele><time>2026-04-25T06:35:47.901Z</time></trkpt><trkpt lat="45.9526579" lon="11.7153682"><ele>328.33333333333337</ele><time>2026-04-25T06:35:48.937Z</time></trkpt><trkpt lat="45.9526478" lon="11.7155842"><ele>318.6666666666667</ele><time>2026-04-25T06:35:49.902Z</time></trkpt><trkpt lat="45.952644" lon="11.7158174"><ele>309.0</ele><time>2026-04-25T06:35:50.913Z</time></trkpt><trkpt lat="45.9526319" lon="11.7160441"><ele>304.0</ele><time>2026-04-25T06:35:51.918Z</time></trkpt><trkpt lat="45.9526236" lon="11.7162714"><ele>299.0</ele><time>2026-04-25T06:35:52.923Z</time></trkpt><trkpt lat="45.9526153" lon="11.716498"><ele>294.0</ele><time>2026-04-25T06:35:53.909Z</time></trkpt><trkpt lat="45.9526072" lon="11.7167134"><ele>288.59999999999997</ele><time>2026-04-25T06:35:54.925Z</time></trkpt><trkpt lat="45.9525896" lon="11.7169206"><ele>283.2</ele><time>2026-04-25T06:35:55.918Z</time></trkpt><trkpt lat="45.9525714" lon="11.7170838"><ele>277.79999999999995</ele><time>2026-04-25T06:35:56.933Z</time></trkpt><trkpt lat="45.9525426" lon="11.7172024"><ele>272.4</ele><time>2026-04-25T06:35:57.931Z</time></trkpt><trkpt lat="45.9525231" lon="11.71731"><ele>267.0</ele><time>2026-04-25T06:35:58.936Z</time></trkpt><trkpt lat="45.9525076" lon="11.7174046"><ele>292.0</ele><time>2026-04-25T06:35:59.915Z</time></trkpt><trkpt lat="45.9523889" lon="11.7175589"><ele>317.0</ele><time>2026-04-25T06:36:03.917Z</time></trkpt><trkpt lat="45.9522957" lon="11.7174466"><ele>342.0</ele><time>2026-04-25T06:36:05.924Z</time></trkpt><trkpt lat="45.9523137" lon="11.717338"><ele>367.0</ele><time>2026-04-25T06:36:06.922Z</time></trkpt><trkpt lat="45.9523322" lon="11.7172069"><ele>367.0</ele><time>2026-04-25T06:36:07.937Z</time></trkpt><trkpt lat="45.9523601" lon="11.7170559"><ele>367.0</ele><time>2026-04-25T06:36:08.937Z</time></trkpt><trkpt lat="45.9523854" lon="11.7169051"><ele>367.0</ele><time>2026-04-25T06:36:09.93Z</time></trkpt><trkpt lat="45.9524081" lon="11.7167424"><ele>367.0</ele><time>2026-04-25T06:36:10.921Z</time></trkpt><trkpt lat="45.9524144" lon="11.7165731"><ele>369.25</ele><time>2026-04-25T06:36:11.926Z</time></trkpt><trkpt lat="45.9524127" lon="11.7163927"><ele>371.5</ele><time>2026-04-25T06:36:12.918Z</time></trkpt><trkpt lat="45.952409" lon="11.7162176"><ele>373.75</ele><time>2026-04-25T06:36:13.917Z</time></trkpt><trkpt lat="45.9524046" lon="11.7160463"><ele>376.0</ele><time>2026-04-25T06:36:14.911Z</time></trkpt><trkpt lat="45.9523988" lon="11.7158807"><ele>376.0</ele><time>2026-04-25T06:36:15.916Z</time></trkpt><trkpt lat="45.9523958" lon="11.7157309"><ele>376.0</ele><time>2026-04-25T06:36:16.922Z</time></trkpt><trkpt lat="45.9523946" lon="11.7156003"><ele>376.0</ele><time>2026-04-25T06:36:17.918Z</time></trkpt><trkpt lat="45.9523919" lon="11.7154777"><ele>376.0</ele><time>2026-04-25T06:36:18.903Z</time></trkpt><trkpt lat="45.9523738" lon="11.7153724"><ele>376.0</ele><time>2026-04-25T06:36:19.909Z</time></trkpt><trkpt lat="45.9522751" lon="11.7152948"><ele>376.0</ele><time>2026-04-25T06:36:21.913Z</time></trkpt><trkpt lat="45.9521716" lon="11.715447"><ele>376.0</ele><time>2026-04-25T06:36:23.935Z</time></trkpt><trkpt lat="45.9521493" lon="11.7155844"><ele>376.0</ele><time>2026-04-25T06:36:24.919Z</time></trkpt><trkpt lat="45.9521352" lon="11.7157408"><ele>376.0</ele><time>2026-04-25T06:36:25.936Z</time></trkpt><trkpt lat="45.9521219" lon="11.7159089"><ele>376.25</ele><time>2026-04-25T06:36:26.915Z</time></trkpt><trkpt lat="45.9521117" lon="11.7160791"><ele>376.5</ele><time>2026-04-25T06:36:27.918Z</time></trkpt><trkpt lat="45.9521016" lon="11.7162654"><ele>376.75</ele><time>2026-04-25T06:36:28.914Z</time></trkpt><trkpt lat="45.9520898" lon="11.716465"><ele>377.0</ele><time>2026-04-25T06:36:29.916Z</time></trkpt><trkpt lat="45.9520774" lon="11.7166683"><ele>377.0</ele><time>2026-04-25T06:36:30.911Z</time></trkpt><trkpt lat="45.9520649" lon="11.7168874"><ele>377.0</ele><time>2026-04-25T06:36:31.916Z</time></trkpt><trkpt lat="45.9520592" lon="11.7171094"><ele>377.0</ele><time>2026-04-25T06:36:32.92Z</time></trkpt><trkpt lat="45.9520395" lon="11.717332"><ele>374.5</ele><time>2026-04-25T06:36:33.92Z</time></trkpt><trkpt lat="45.9520097" lon="11.7175387"><ele>372.0</ele><time>2026-04-25T06:36:34.92Z</time></trkpt><trkpt lat="45.9519587" lon="11.7177268"><ele>369.5</ele><time>2026-04-25T06:36:35.942Z</time></trkpt><trkpt lat="45.9518933" lon="11.7179059"><ele>367.0</ele><time>2026-04-25T06:36:36.918Z</time></trkpt><trkpt lat="45.9518134" lon="11.7180806"><ele>361.75</ele><time>2026-04-25T06:36:37.92Z</time></trkpt><trkpt lat="45.9517247" lon="11.7182499"><ele>356.5</ele><time>2026-04-25T06:36:38.912Z</time></trkpt><trkpt lat="45.9516367" lon="11.7184144"><ele>351.25</ele><time>2026-04-25T06:36:39.913Z</time></trkpt><trkpt lat="45.9515326" lon="11.7185731"><ele>346.0</ele><time>2026-04-25T06:36:40.921Z</time></trkpt><trkpt lat="45.9514195" lon="11.7187338"><ele>371.5</ele><time>2026-04-25T06:36:41.915Z</time></trkpt><trkpt lat="45.9513096" lon="11.7189086"><ele>397.0</ele><time>2026-04-25T06:36:42.934Z</time></trkpt><trkpt lat="45.9510939" lon="11.7192644"><ele>403.0</ele><time>2026-04-25T06:36:44.914Z</time></trkpt><trkpt lat="45.9509817" lon="11.7194414"><ele>409.0</ele><time>2026-04-25T06:36:45.933Z</time></trkpt><trkpt lat="45.9508627" lon="11.7196159"><ele>415.0</ele><time>2026-04-25T06:36:46.923Z</time></trkpt><trkpt lat="45.9507438" lon="11.7197884"><ele>415.0</ele><time>2026-04-25T06:36:47.919Z</time></trkpt><trkpt lat="45.9506245" lon="11.7199581"><ele>415.0</ele><time>2026-04-25T06:36:48.912Z</time></trkpt><trkpt lat="45.9505101" lon="11.7201123"><ele>415.0</ele><time>2026-04-25T06:36:49.914Z</time></trkpt><trkpt lat="45.9503621" lon="11.7202584"><ele>417.0</ele><time>2026-04-25T06:36:50.914Z</time></trkpt><trkpt lat="45.9502298" lon="11.7203788"><ele>419.0</ele><time>2026-04-25T06:36:51.916Z</time></trkpt><trkpt lat="45.95009" lon="11.7205175"><ele>421.0</ele><time>2026-04-25T06:36:52.915Z</time></trkpt><trkpt lat="45.9499533" lon="11.7206363"><ele>421.0</ele><time>2026-04-25T06:36:53.911Z</time></trkpt><trkpt lat="45.9498178" lon="11.7207534"><ele>421.0</ele><time>2026-04-25T06:36:54.918Z</time></trkpt><trkpt lat="45.9496546" lon="11.7208458"><ele>421.0</ele><time>2026-04-25T06:36:55.904Z</time></trkpt><trkpt lat="45.9495029" lon="11.7209123"><ele>421.0</ele><time>2026-04-25T06:36:56.915Z</time></trkpt><trkpt lat="45.949329" lon="11.7209489"><ele>421.0</ele><time>2026-04-25T06:36:57.921Z</time></trkpt><trkpt lat="45.9491823" lon="11.7209905"><ele>421.0</ele><time>2026-04-25T06:36:58.925Z</time></trkpt><trkpt lat="45.9490304" lon="11.7210372"><ele>416.33333333333337</ele><time>2026-04-25T06:36:59.913Z</time></trkpt><trkpt lat="45.9488848" lon="11.7211445"><ele>411.66666666666663</ele><time>2026-04-25T06:37:00.921Z</time></trkpt><trkpt lat="45.9487608" lon="11.7212914"><ele>407.0</ele><time>2026-04-25T06:37:01.914Z</time></trkpt><trkpt lat="45.9486346" lon="11.7214271"><ele>407.0</ele><time>2026-04-25T06:37:02.905Z</time></trkpt><trkpt lat="45.9485163" lon="11.7215757"><ele>407.0</ele><time>2026-04-25T06:37:03.913Z</time></trkpt><trkpt lat="45.9482318" lon="11.721712"><ele>407.75</ele><time>2026-04-25T06:37:05.913Z</time></trkpt><trkpt lat="45.9481179" lon="11.7217819"><ele>408.5</ele><time>2026-04-25T06:37:06.904Z</time></trkpt><trkpt lat="45.9479982" lon="11.7219023"><ele>409.25</ele><time>2026-04-25T06:37:07.902Z</time></trkpt><trkpt lat="45.9479013" lon="11.722062"><ele>410.0</ele><time>2026-04-25T06:37:08.909Z</time></trkpt><trkpt lat="45.9478066" lon="11.722232"><ele>410.0</ele><time>2026-04-25T06:37:09.916Z</time></trkpt><trkpt lat="45.9477223" lon="11.722395"><ele>410.0</ele><time>2026-04-25T06:37:10.915Z</time></trkpt><trkpt lat="45.9476431" lon="11.7225469"><ele>410.0</ele><time>2026-04-25T06:37:11.922Z</time></trkpt><trkpt lat="45.9475727" lon="11.7226762"><ele>410.0</ele><time>2026-04-25T06:37:12.921Z</time></trkpt><trkpt lat="45.9475125" lon="11.7227899"><ele>413.49999999999994</ele><time>2026-04-25T06:37:13.925Z</time></trkpt><trkpt lat="45.94746" lon="11.722893"><ele>417.0</ele><time>2026-04-25T06:37:14.911Z</time></trkpt><trkpt lat="45.9474078" lon="11.7229824"><ele>420.5</ele><time>2026-04-25T06:37:15.923Z</time></trkpt><trkpt lat="45.9473504" lon="11.7230354"><ele>424.0</ele><time>2026-04-25T06:37:16.903Z</time></trkpt><trkpt lat="45.9472475" lon="11.7230158"><ele>427.49999999999994</ele><time>2026-04-25T06:37:18.91Z</time></trkpt><trkpt lat="45.9472539" lon="11.7229154"><ele>431.0</ele><time>2026-04-25T06:37:19.929Z</time></trkpt><trkpt lat="45.9472761" lon="11.7227908"><ele>432.5</ele><time>2026-04-25T06:37:20.905Z</time></trkpt><trkpt lat="45.9473521" lon="11.7226751"><ele>434.0</ele><time>2026-04-25T06:37:21.926Z</time></trkpt><trkpt lat="45.9474287" lon="11.7225614"><ele>435.5</ele><time>2026-04-25T06:37:22.915Z</time></trkpt><trkpt lat="45.9475138" lon="11.7224346"><ele>437.0</ele><time>2026-04-25T06:37:23.925Z</time></trkpt><trkpt lat="45.947594" lon="11.7223037"><ele>434.3333333333333</ele><time>2026-04-25T06:37:24.921Z</time></trkpt><trkpt lat="45.9477564" lon="11.7219617"><ele>431.66666666666663</ele><time>2026-04-25T06:37:26.918Z</time></trkpt><trkpt lat="45.9478312" lon="11.7217903"><ele>429.0</ele><time>2026-04-25T06:37:27.924Z</time></trkpt><trkpt lat="45.9479162" lon="11.7216317"><ele>429.0</ele><time>2026-04-25T06:37:28.924Z</time></trkpt><trkpt lat="45.9480246" lon="11.721483"><ele>429.0</ele><time>2026-04-25T06:37:29.92Z</time></trkpt><trkpt lat="45.9481559" lon="11.7213545"><ele>429.0</ele><time>2026-04-25T06:37:30.928Z</time></trkpt><trkpt lat="45.9483002" lon="11.721224"><ele>432.0</ele><time>2026-04-25T06:37:31.916Z</time></trkpt><trkpt lat="45.9484396" lon="11.7210812"><ele>435.0</ele><time>2026-04-25T06:37:32.916Z</time></trkpt><trkpt lat="45.948574" lon="11.7209407"><ele>438.0</ele><time>2026-04-25T06:37:33.92Z</time></trkpt><trkpt lat="45.9487092" lon="11.720814"><ele>438.0</ele><time>2026-04-25T06:37:34.909Z</time></trkpt><trkpt lat="45.9488534" lon="11.7207124"><ele>438.0</ele><time>2026-04-25T06:37:35.918Z</time></trkpt><trkpt lat="45.9490003" lon="11.7206325"><ele>438.0</ele><time>2026-04-25T06:37:36.908Z</time></trkpt><trkpt lat="45.9491434" lon="11.7205794"><ele>433.75</ele><time>2026-04-25T06:37:37.905Z</time></trkpt><trkpt lat="45.9492768" lon="11.7205437"><ele>429.5</ele><time>2026-04-25T06:37:38.92Z</time></trkpt><trkpt lat="45.9493933" lon="11.7205028"><ele>425.25</ele><time>2026-04-25T06:37:39.939Z</time></trkpt><trkpt lat="45.9494961" lon="11.720436"><ele>421.0</ele><time>2026-04-25T06:37:40.913Z</time></trkpt><trkpt lat="45.9495817" lon="11.7203301"><ele>426.25</ele><time>2026-04-25T06:37:41.927Z</time></trkpt><trkpt lat="45.9496612" lon="11.7201959"><ele>431.5</ele><time>2026-04-25T06:37:42.927Z</time></trkpt><trkpt lat="45.9497417" lon="11.7200468"><ele>436.75</ele><time>2026-04-25T06:37:43.925Z</time></trkpt><trkpt lat="45.9498314" lon="11.7198924"><ele>442.0</ele><time>2026-04-25T06:37:44.93Z</time></trkpt><trkpt lat="45.949931" lon="11.7197348"><ele>438.0</ele><time>2026-04-25T06:37:45.921Z</time></trkpt><trkpt lat="45.9501387" lon="11.7194319"><ele>434.0</ele><time>2026-04-25T06:37:47.904Z</time></trkpt><trkpt lat="45.9502499" lon="11.7192776"><ele>434.0</ele><time>2026-04-25T06:37:48.921Z</time></trkpt><trkpt lat="45.9503575" lon="11.7191163"><ele>434.0</ele><time>2026-04-25T06:37:49.918Z</time></trkpt><trkpt lat="45.9504443" lon="11.7189424"><ele>434.0</ele><time>2026-04-25T06:37:50.916Z</time></trkpt><trkpt lat="45.9505005" lon="11.7187524"><ele>434.0</ele><time>2026-04-25T06:37:51.935Z</time></trkpt><trkpt lat="45.9505229" lon="11.7185545"><ele>438.0</ele><time>2026-04-25T06:37:52.941Z</time></trkpt><trkpt lat="45.9505158" lon="11.7183457"><ele>442.0</ele><time>2026-04-25T06:37:53.925Z</time></trkpt><trkpt lat="45.9504971" lon="11.7181249"><ele>446.0</ele><time>2026-04-25T06:37:54.921Z</time></trkpt><trkpt lat="45.9504684" lon="11.7179001"><ele>447.0</ele><time>2026-04-25T06:37:55.928Z</time></trkpt><trkpt lat="45.9504428" lon="11.7176909"><ele>448.0</ele><time>2026-04-25T06:37:56.924Z</time></trkpt><trkpt lat="45.9503961" lon="11.7174636"><ele>449.0</ele><time>2026-04-25T06:37:57.921Z</time></trkpt><trkpt lat="45.9503379" lon="11.7172434"><ele>449.0</ele><time>2026-04-25T06:37:58.928Z</time></trkpt><trkpt lat="45.9502985" lon="11.7170217"><ele>449.0</ele><time>2026-04-25T06:37:59.924Z</time></trkpt><trkpt lat="45.9502817" lon="11.716801"><ele>449.0</ele><time>2026-04-25T06:38:00.92Z</time></trkpt><trkpt lat="45.9502851" lon="11.71658"><ele>449.3333333333333</ele><time>2026-04-25T06:38:01.927Z</time></trkpt><trkpt lat="45.9502964" lon="11.7163557"><ele>449.66666666666663</ele><time>2026-04-25T06:38:02.917Z</time></trkpt><trkpt lat="45.9503066" lon="11.7161342"><ele>450.0</ele><time>2026-04-25T06:38:03.913Z</time></trkpt><trkpt lat="45.9503244" lon="11.7159161"><ele>451.0</ele><time>2026-04-25T06:38:04.922Z</time></trkpt><trkpt lat="45.9503527" lon="11.7156996"><ele>452.0</ele><time>2026-04-25T06:38:05.927Z</time></trkpt><trkpt lat="45.9503846" lon="11.7154953"><ele>453.0</ele><time>2026-04-25T06:38:06.923Z</time></trkpt><trkpt lat="45.9504548" lon="11.7151381"><ele>453.59999999999997</ele><time>2026-04-25T06:38:08.918Z</time></trkpt><trkpt lat="45.9504911" lon="11.7149802"><ele>454.19999999999993</ele><time>2026-04-25T06:38:09.925Z</time></trkpt><trkpt lat="45.9505248" lon="11.7148287"><ele>454.8</ele><time>2026-04-25T06:38:10.917Z</time></trkpt><trkpt lat="45.9505566" lon="11.7146889"><ele>455.4</ele><time>2026-04-25T06:38:11.905Z</time></trkpt><trkpt lat="45.9505815" lon="11.7145556"><ele>456.0</ele><time>2026-04-25T06:38:12.903Z</time></trkpt><trkpt lat="45.9505756" lon="11.7144304"><ele>456.0</ele><time>2026-04-25T06:38:13.906Z</time></trkpt><trkpt lat="45.9505304" lon="11.7143448"><ele>456.0</ele><time>2026-04-25T06:38:14.917Z</time></trkpt><trkpt lat="45.9504618" lon="11.7143252"><ele>456.0</ele><time>2026-04-25T06:38:15.928Z</time></trkpt><trkpt lat="45.9503858" lon="11.7143837"><ele>456.0</ele><time>2026-04-25T06:38:16.916Z</time></trkpt><trkpt lat="45.9503169" lon="11.7144947"><ele>456.0</ele><time>2026-04-25T06:38:17.914Z</time></trkpt><trkpt lat="45.950262" lon="11.7146358"><ele>456.0</ele><time>2026-04-25T06:38:18.922Z</time></trkpt><trkpt lat="45.9502123" lon="11.7147902"><ele>456.0</ele><time>2026-04-25T06:38:19.921Z</time></trkpt><trkpt lat="45.9501589" lon="11.7149457"><ele>456.0</ele><time>2026-04-25T06:38:20.922Z</time></trkpt><trkpt lat="45.9500955" lon="11.7151065"><ele>456.0</ele><time>2026-04-25T06:38:21.926Z</time></trkpt><trkpt lat="45.9500285" lon="11.7152532"><ele>456.0</ele><time>2026-04-25T06:38:22.936Z</time></trkpt><trkpt lat="45.9499619" lon="11.7153871"><ele>459.25</ele><time>2026-04-25T06:38:23.921Z</time></trkpt><trkpt lat="45.9498768" lon="11.7155212"><ele>462.5</ele><time>2026-04-25T06:38:24.92Z</time></trkpt><trkpt lat="45.9497824" lon="11.7156485"><ele>465.75</ele><time>2026-04-25T06:38:25.914Z</time></trkpt><trkpt lat="45.9496833" lon="11.7157808"><ele>469.0</ele><time>2026-04-25T06:38:26.926Z</time></trkpt><trkpt lat="45.9495823" lon="11.7159172"><ele>467.33333333333337</ele><time>2026-04-25T06:38:27.912Z</time></trkpt><trkpt lat="45.9493729" lon="11.7161863"><ele>465.66666666666663</ele><time>2026-04-25T06:38:29.917Z</time></trkpt><trkpt lat="45.9492518" lon="11.7163224"><ele>464.0</ele><time>2026-04-25T06:38:30.927Z</time></trkpt><trkpt lat="45.949117" lon="11.7164435"><ele>467.66666666666663</ele><time>2026-04-25T06:38:31.932Z</time></trkpt><trkpt lat="45.9489691" lon="11.7165495"><ele>471.33333333333337</ele><time>2026-04-25T06:38:32.906Z</time></trkpt><trkpt lat="45.948828" lon="11.7166515"><ele>475.0</ele><time>2026-04-25T06:38:33.914Z</time></trkpt><trkpt lat="45.9486997" lon="11.7167596"><ele>475.0</ele><time>2026-04-25T06:38:34.909Z</time></trkpt><trkpt lat="45.9485783" lon="11.7168765"><ele>475.0</ele><time>2026-04-25T06:38:35.931Z</time></trkpt><trkpt lat="45.9484633" lon="11.7170037"><ele>475.0</ele><time>2026-04-25T06:38:36.911Z</time></trkpt><trkpt lat="45.9483468" lon="11.7171408"><ele>475.0</ele><time>2026-04-25T06:38:37.924Z</time></trkpt><trkpt lat="45.9482325" lon="11.7172862"><ele>475.0</ele><time>2026-04-25T06:38:38.921Z</time></trkpt><trkpt lat="45.9481181" lon="11.7174414"><ele>475.0</ele><time>2026-04-25T06:38:39.906Z</time></trkpt><trkpt lat="45.9480091" lon="11.7176116"><ele>475.0</ele><time>2026-04-25T06:38:40.919Z</time></trkpt><trkpt lat="45.947909" lon="11.7177989"><ele>475.0</ele><time>2026-04-25T06:38:41.921Z</time></trkpt><trkpt lat="45.9478161" lon="11.7179946"><ele>475.0</ele><time>2026-04-25T06:38:42.917Z</time></trkpt><trkpt lat="45.9477277" lon="11.7181886"><ele>475.0</ele><time>2026-04-25T06:38:43.924Z</time></trkpt><trkpt lat="45.9476426" lon="11.7183682"><ele>475.0</ele><time>2026-04-25T06:38:44.912Z</time></trkpt><trkpt lat="45.9475597" lon="11.7185348"><ele>475.0</ele><time>2026-04-25T06:38:45.922Z</time></trkpt><trkpt lat="45.9474778" lon="11.7187005"><ele>475.0</ele><time>2026-04-25T06:38:46.922Z</time></trkpt><trkpt lat="45.9473907" lon="11.7188662"><ele>475.0</ele><time>2026-04-25T06:38:47.925Z</time></trkpt><trkpt lat="45.9472975" lon="11.7190226"><ele>478.0</ele><time>2026-04-25T06:38:48.926Z</time></trkpt><trkpt lat="45.9471101" lon="11.7193094"><ele>481.0</ele><time>2026-04-25T06:38:50.926Z</time></trkpt><trkpt lat="45.9470258" lon="11.719454"><ele>484.0</ele><time>2026-04-25T06:38:51.907Z</time></trkpt><trkpt lat="45.9469497" lon="11.7196098"><ele>484.0</ele><time>2026-04-25T06:38:52.909Z</time></trkpt><trkpt lat="45.946886" lon="11.7197808"><ele>484.0</ele><time>2026-04-25T06:38:53.914Z</time></trkpt><trkpt lat="45.9468359" lon="11.719967"><ele>484.0</ele><time>2026-04-25T06:38:54.906Z</time></trkpt><trkpt lat="45.9467896" lon="11.7201596"><ele>484.0</ele><time>2026-04-25T06:38:55.921Z</time></trkpt><trkpt lat="45.9467425" lon="11.7203465"><ele>487.0</ele><time>2026-04-25T06:38:56.901Z</time></trkpt><trkpt lat="45.9466887" lon="11.720514"><ele>490.0</ele><time>2026-04-25T06:38:57.916Z</time></trkpt><trkpt lat="45.9466185" lon="11.7206605"><ele>493.0</ele><time>2026-04-25T06:38:58.926Z</time></trkpt><trkpt lat="45.9465272" lon="11.7207636"><ele>496.0</ele><time>2026-04-25T06:38:59.913Z</time></trkpt><trkpt lat="45.9464146" lon="11.7208213"><ele>496.0</ele><time>2026-04-25T06:39:00.913Z</time></trkpt><trkpt lat="45.9462845" lon="11.7208476"><ele>496.0</ele><time>2026-04-25T06:39:01.913Z</time></trkpt><trkpt lat="45.9461422" lon="11.720863"><ele>496.0</ele><time>2026-04-25T06:39:02.925Z</time></trkpt><trkpt lat="45.9460022" lon="11.720878"><ele>496.0</ele><time>2026-04-25T06:39:03.911Z</time></trkpt><trkpt lat="45.9458615" lon="11.7209018"><ele>495.0</ele><time>2026-04-25T06:39:04.927Z</time></trkpt><trkpt lat="45.945723" lon="11.7209414"><ele>494.0</ele><time>2026-04-25T06:39:05.917Z</time></trkpt><trkpt lat="45.9455886" lon="11.7210023"><ele>493.0</ele><time>2026-04-25T06:39:06.929Z</time></trkpt><trkpt lat="45.9454596" lon="11.7210596"><ele>492.0</ele><time>2026-04-25T06:39:07.923Z</time></trkpt><trkpt lat="45.9453249" lon="11.7211663"><ele>492.0</ele><time>2026-04-25T06:39:08.917Z</time></trkpt><trkpt lat="45.9452178" lon="11.7213014"><ele>492.0</ele><time>2026-04-25T06:39:09.921Z</time></trkpt><trkpt lat="45.9450234" lon="11.7215919"><ele>492.0</ele><time>2026-04-25T06:39:11.91Z</time></trkpt><trkpt lat="45.9449039" lon="11.7217137"><ele>492.5</ele><time>2026-04-25T06:39:12.924Z</time></trkpt><trkpt lat="45.9447687" lon="11.7218178"><ele>493.0</ele><time>2026-04-25T06:39:13.908Z</time></trkpt><trkpt lat="45.944636" lon="11.7218957"><ele>493.5</ele><time>2026-04-25T06:39:14.903Z</time></trkpt><trkpt lat="45.944516" lon="11.7219556"><ele>494.0</ele><time>2026-04-25T06:39:15.904Z</time></trkpt><trkpt lat="45.9443986" lon="11.722007"><ele>493.99999999999994</ele><time>2026-04-25T06:39:16.924Z</time></trkpt><trkpt lat="45.9442998" lon="11.7220397"><ele>494.0</ele><time>2026-04-25T06:39:17.921Z</time></trkpt><trkpt lat="45.9442159" lon="11.7220289"><ele>494.0</ele><time>2026-04-25T06:39:18.918Z</time></trkpt><trkpt lat="45.9441463" lon="11.7219732"><ele>494.0</ele><time>2026-04-25T06:39:19.918Z</time></trkpt><trkpt lat="45.944104" lon="11.7218671"><ele>493.99999999999994</ele><time>2026-04-25T06:39:20.92Z</time></trkpt><trkpt lat="45.9441118" lon="11.7217497"><ele>494.0</ele><time>2026-04-25T06:39:21.922Z</time></trkpt><trkpt lat="45.9441371" lon="11.7216298"><ele>496.6</ele><time>2026-04-25T06:39:22.925Z</time></trkpt><trkpt lat="45.9441728" lon="11.7215051"><ele>499.2</ele><time>2026-04-25T06:39:23.919Z</time></trkpt><trkpt lat="45.9442205" lon="11.7213738"><ele>501.80000000000007</ele><time>2026-04-25T06:39:24.905Z</time></trkpt><trkpt lat="45.9442754" lon="11.7212419"><ele>504.40000000000003</ele><time>2026-04-25T06:39:25.924Z</time></trkpt><trkpt lat="45.9443286" lon="11.7211095"><ele>507.0</ele><time>2026-04-25T06:39:26.921Z</time></trkpt><trkpt lat="45.9443835" lon="11.7209669"><ele>508.75</ele><time>2026-04-25T06:39:27.925Z</time></trkpt><trkpt lat="45.9444367" lon="11.7208125"><ele>510.5</ele><time>2026-04-25T06:39:28.919Z</time></trkpt><trkpt lat="45.9444789" lon="11.7206436"><ele>512.25</ele><time>2026-04-25T06:39:29.923Z</time></trkpt><trkpt lat="45.9445118" lon="11.7204626"><ele>514.0</ele><time>2026-04-25T06:39:30.911Z</time></trkpt><trkpt lat="45.944566" lon="11.7200814"><ele>515.0</ele><time>2026-04-25T06:39:32.898Z</time></trkpt><trkpt lat="45.9445834" lon="11.7198938"><ele>516.0</ele><time>2026-04-25T06:39:33.913Z</time></trkpt><trkpt lat="45.9445862" lon="11.7197216"><ele>517.0</ele><time>2026-04-25T06:39:34.929Z</time></trkpt><trkpt lat="45.9445698" lon="11.7195652"><ele>518.0</ele><time>2026-04-25T06:39:35.906Z</time></trkpt><trkpt lat="45.9445251" lon="11.7194341"><ele>520.0</ele><time>2026-04-25T06:39:36.907Z</time></trkpt><trkpt lat="45.944448" lon="11.7193406"><ele>522.0</ele><time>2026-04-25T06:39:37.916Z</time></trkpt><trkpt lat="45.9443414" lon="11.7192843"><ele>524.0</ele><time>2026-04-25T06:39:38.908Z</time></trkpt><trkpt lat="45.9442177" lon="11.7192513"><ele>526.0</ele><time>2026-04-25T06:39:39.905Z</time></trkpt><trkpt lat="45.944084" lon="11.7192156"><ele>527.0</ele><time>2026-04-25T06:39:40.908Z</time></trkpt><trkpt lat="45.9439484" lon="11.7191709"><ele>528.0</ele><time>2026-04-25T06:39:41.918Z</time></trkpt><trkpt lat="45.9438084" lon="11.7191267"><ele>529.0</ele><time>2026-04-25T06:39:42.954Z</time></trkpt><trkpt lat="45.9436641" lon="11.7191076"><ele>530.0</ele><time>2026-04-25T06:39:43.915Z</time></trkpt><trkpt lat="45.9435208" lon="11.7191198"><ele>531.0</ele><time>2026-04-25T06:39:44.913Z</time></trkpt><trkpt lat="45.9433797" lon="11.7191662"><ele>532.0</ele><time>2026-04-25T06:39:45.907Z</time></trkpt><trkpt lat="45.9432457" lon="11.7192252"><ele>533.0</ele><time>2026-04-25T06:39:46.922Z</time></trkpt><trkpt lat="45.9431077" lon="11.7192849"><ele>534.0</ele><time>2026-04-25T06:39:47.921Z</time></trkpt><trkpt lat="45.9429798" lon="11.719335"><ele>534.0</ele><time>2026-04-25T06:39:48.925Z</time></trkpt><trkpt lat="45.9428507" lon="11.7193661"><ele>534.0</ele><time>2026-04-25T06:39:49.927Z</time></trkpt><trkpt lat="45.9427188" lon="11.7193742"><ele>534.0</ele><time>2026-04-25T06:39:50.929Z</time></trkpt><trkpt lat="45.9425866" lon="11.7193492"><ele>534.0</ele><time>2026-04-25T06:39:51.918Z</time></trkpt><trkpt lat="45.9423349" lon="11.7192418"><ele>534.6</ele><time>2026-04-25T06:39:53.926Z</time></trkpt><trkpt lat="45.9422196" lon="11.7192018"><ele>535.2</ele><time>2026-04-25T06:39:54.924Z</time></trkpt><trkpt lat="45.9421163" lon="11.7191876"><ele>535.8000000000001</ele><time>2026-04-25T06:39:55.906Z</time></trkpt><trkpt lat="45.9420176" lon="11.7192042"><ele>536.4</ele><time>2026-04-25T06:39:56.912Z</time></trkpt><trkpt lat="45.9419346" lon="11.7192526"><ele>537.0</ele><time>2026-04-25T06:39:57.925Z</time></trkpt><trkpt lat="45.9418681" lon="11.7193352"><ele>537.6666666666666</ele><time>2026-04-25T06:39:58.927Z</time></trkpt><trkpt lat="45.9418236" lon="11.7194483"><ele>538.3333333333334</ele><time>2026-04-25T06:39:59.916Z</time></trkpt><trkpt lat="45.9417949" lon="11.7195611"><ele>539.0</ele><time>2026-04-25T06:40:00.904Z</time></trkpt><trkpt lat="45.9417744" lon="11.7196669"><ele>539.6666666666667</ele><time>2026-04-25T06:40:01.92Z</time></trkpt><trkpt lat="45.9417637" lon="11.719761"><ele>540.3333333333334</ele><time>2026-04-25T06:40:02.92Z</time></trkpt><trkpt lat="45.9417454" lon="11.71989"><ele>541.0</ele><time>2026-04-25T06:40:04.919Z</time></trkpt><trkpt lat="45.9416695" lon="11.7198984"><ele>541.0</ele><time>2026-04-25T06:40:06.914Z</time></trkpt><trkpt lat="45.9416453" lon="11.7197585"><ele>541.0</ele><time>2026-04-25T06:40:08.919Z</time></trkpt><trkpt lat="45.9416538" lon="11.7196495"><ele>541.0</ele><time>2026-04-25T06:40:09.918Z</time></trkpt><trkpt lat="45.9416652" lon="11.7195324"><ele>541.0</ele><time>2026-04-25T06:40:10.935Z</time></trkpt><trkpt lat="45.9416826" lon="11.7194033"><ele>541.0</ele><time>2026-04-25T06:40:11.918Z</time></trkpt><trkpt lat="45.9417052" lon="11.7192648"><ele>541.0</ele><time>2026-04-25T06:40:12.915Z</time></trkpt><trkpt lat="45.9417641" lon="11.7189757"><ele>540.2</ele><time>2026-04-25T06:40:14.918Z</time></trkpt><trkpt lat="45.9418009" lon="11.71883"><ele>539.4000000000001</ele><time>2026-04-25T06:40:15.919Z</time></trkpt><trkpt lat="45.9418439" lon="11.7186928"><ele>538.6</ele><time>2026-04-25T06:40:16.91Z</time></trkpt><trkpt lat="45.9418962" lon="11.7185742"><ele>537.8000000000001</ele><time>2026-04-25T06:40:17.903Z</time></trkpt><trkpt lat="45.9419665" lon="11.718477"><ele>537.0</ele><time>2026-04-25T06:40:18.907Z</time></trkpt><trkpt lat="45.9420508" lon="11.7184039"><ele>539.8000000000001</ele><time>2026-04-25T06:40:19.924Z</time></trkpt><trkpt lat="45.9421488" lon="11.7183565"><ele>542.6</ele><time>2026-04-25T06:40:20.914Z</time></trkpt><trkpt lat="45.9422467" lon="11.7183394"><ele>545.4000000000001</ele><time>2026-04-25T06:40:21.919Z</time></trkpt><trkpt lat="45.9423378" lon="11.7183457"><ele>548.2</ele><time>2026-04-25T06:40:22.921Z</time></trkpt><trkpt lat="45.942428" lon="11.7183658"><ele>551.0</ele><time>2026-04-25T06:40:23.932Z</time></trkpt><trkpt lat="45.9425244" lon="11.7183885"><ele>552.5</ele><time>2026-04-25T06:40:24.914Z</time></trkpt><trkpt lat="45.9426319" lon="11.7184319"><ele>554.0</ele><time>2026-04-25T06:40:25.918Z</time></trkpt><trkpt lat="45.9427359" lon="11.7184647"><ele>555.5</ele><time>2026-04-25T06:40:26.924Z</time></trkpt><trkpt lat="45.9428557" lon="11.718491"><ele>557.0</ele><time>2026-04-25T06:40:27.918Z</time></trkpt><trkpt lat="45.9429845" lon="11.7185162"><ele>557.0</ele><time>2026-04-25T06:40:28.919Z</time></trkpt><trkpt lat="45.9431222" lon="11.7185313"><ele>557.0</ele><time>2026-04-25T06:40:29.924Z</time></trkpt><trkpt lat="45.9432602" lon="11.7185408"><ele>557.0</ele><time>2026-04-25T06:40:30.925Z</time></trkpt><trkpt lat="45.9433953" lon="11.7185301"><ele>557.0</ele><time>2026-04-25T06:40:31.921Z</time></trkpt><trkpt lat="45.9435284" lon="11.7184874"><ele>555.3333333333333</ele><time>2026-04-25T06:40:32.93Z</time></trkpt><trkpt lat="45.9436622" lon="11.7184322"><ele>553.6666666666666</ele><time>2026-04-25T06:40:33.914Z</time></trkpt><trkpt lat="45.943946" lon="11.7183024"><ele>552.0</ele><time>2026-04-25T06:40:35.917Z</time></trkpt><trkpt lat="45.9440887" lon="11.7182274"><ele>548.25</ele><time>2026-04-25T06:40:36.904Z</time></trkpt><trkpt lat="45.9442266" lon="11.7181358"><ele>544.5</ele><time>2026-04-25T06:40:37.92Z</time></trkpt><trkpt lat="45.9443562" lon="11.7180264"><ele>540.75</ele><time>2026-04-25T06:40:38.903Z</time></trkpt><trkpt lat="45.9444646" lon="11.7179044"><ele>537.0</ele><time>2026-04-25T06:40:39.911Z</time></trkpt><trkpt lat="45.9445523" lon="11.717765"><ele>540.0</ele><time>2026-04-25T06:40:40.905Z</time></trkpt><trkpt lat="45.9446172" lon="11.7175993"><ele>543.0</ele><time>2026-04-25T06:40:41.903Z</time></trkpt><trkpt lat="45.9446698" lon="11.7174182"><ele>546.0</ele><time>2026-04-25T06:40:42.915Z</time></trkpt><trkpt lat="45.9447232" lon="11.7172324"><ele>549.0</ele><time>2026-04-25T06:40:43.925Z</time></trkpt><trkpt lat="45.9447808" lon="11.717052"><ele>550.5</ele><time>2026-04-25T06:40:44.917Z</time></trkpt><trkpt lat="45.9448466" lon="11.7168857"><ele>552.0</ele><time>2026-04-25T06:40:45.924Z</time></trkpt><trkpt lat="45.9449276" lon="11.7167467"><ele>553.5</ele><time>2026-04-25T06:40:46.92Z</time></trkpt><trkpt lat="45.9450189" lon="11.7166192"><ele>555.0</ele><time>2026-04-25T06:40:47.919Z</time></trkpt><trkpt lat="45.9451159" lon="11.7164946"><ele>555.0</ele><time>2026-04-25T06:40:48.925Z</time></trkpt><trkpt lat="45.9452199" lon="11.7163784"><ele>555.0</ele><time>2026-04-25T06:40:49.915Z</time></trkpt><trkpt lat="45.9453353" lon="11.7162731"><ele>555.0</ele><time>2026-04-25T06:40:50.92Z</time></trkpt><trkpt lat="45.9454558" lon="11.7161773"><ele>555.0</ele><time>2026-04-25T06:40:51.905Z</time></trkpt><trkpt lat="45.945572" lon="11.7160934"><ele>556.5</ele><time>2026-04-25T06:40:52.919Z</time></trkpt><trkpt lat="45.9456818" lon="11.7160179"><ele>558.0</ele><time>2026-04-25T06:40:53.922Z</time></trkpt><trkpt lat="45.9457867" lon="11.715954"><ele>559.5</ele><time>2026-04-25T06:40:54.921Z</time></trkpt><trkpt lat="45.9459405" lon="11.7157568"><ele>561.0</ele><time>2026-04-25T06:40:56.909Z</time></trkpt><trkpt lat="45.9460007" lon="11.7156185"><ele>561.0</ele><time>2026-04-25T06:40:57.925Z</time></trkpt><trkpt lat="45.9460315" lon="11.715448"><ele>561.0</ele><time>2026-04-25T06:40:58.916Z</time></trkpt><trkpt lat="45.9460656" lon="11.7152814"><ele>561.0</ele><time>2026-04-25T06:40:59.907Z</time></trkpt><trkpt lat="45.946125" lon="11.7150972"><ele>561.0</ele><time>2026-04-25T06:41:00.921Z</time></trkpt><trkpt lat="45.9462019" lon="11.7149275"><ele>562.75</ele><time>2026-04-25T06:41:01.91Z</time></trkpt><trkpt lat="45.9462882" lon="11.7147694"><ele>564.5</ele><time>2026-04-25T06:41:02.925Z</time></trkpt><trkpt lat="45.9463962" lon="11.7146354"><ele>566.25</ele><time>2026-04-25T06:41:03.925Z</time></trkpt><trkpt lat="45.9465012" lon="11.7144946"><ele>568.0</ele><time>2026-04-25T06:41:04.917Z</time></trkpt><trkpt lat="45.9466116" lon="11.7143563"><ele>569.0</ele><time>2026-04-25T06:41:05.927Z</time></trkpt><trkpt lat="45.9467253" lon="11.7142179"><ele>570.0</ele><time>2026-04-25T06:41:06.919Z</time></trkpt><trkpt lat="45.9468402" lon="11.71408"><ele>571.0</ele><time>2026-04-25T06:41:07.912Z</time></trkpt><trkpt lat="45.946964" lon="11.7139404"><ele>571.0</ele><time>2026-04-25T06:41:08.924Z</time></trkpt><trkpt lat="45.9470957" lon="11.7138073"><ele>571.0</ele><time>2026-04-25T06:41:09.925Z</time></trkpt><trkpt lat="45.9472354" lon="11.7136704"><ele>571.0</ele><time>2026-04-25T06:41:10.927Z</time></trkpt><trkpt lat="45.9473799" lon="11.7135359"><ele>572.6666666666667</ele><time>2026-04-25T06:41:11.9Z</time></trkpt><trkpt lat="45.9475247" lon="11.7133967"><ele>574.3333333333334</ele><time>2026-04-25T06:41:12.923Z</time></trkpt><trkpt lat="45.9476693" lon="11.7132599"><ele>576.0</ele><time>2026-04-25T06:41:13.92Z</time></trkpt><trkpt lat="45.94781" lon="11.7131191"><ele>576.0</ele><time>2026-04-25T06:41:14.921Z</time></trkpt><trkpt lat="45.9479443" lon="11.7129749"><ele>576.0</ele><time>2026-04-25T06:41:15.932Z</time></trkpt><trkpt lat="45.948187" lon="11.7126997"><ele>573.5</ele><time>2026-04-25T06:41:17.918Z</time></trkpt><trkpt lat="45.9482902" lon="11.712575"><ele>571.0</ele><time>2026-04-25T06:41:18.921Z</time></trkpt><trkpt lat="45.9483787" lon="11.7124552"><ele>568.5</ele><time>2026-04-25T06:41:19.931Z</time></trkpt><trkpt lat="45.9484482" lon="11.7123437"><ele>566.0</ele><time>2026-04-25T06:41:20.911Z</time></trkpt><trkpt lat="45.9485143" lon="11.7122574"><ele>566.0</ele><time>2026-04-25T06:41:21.929Z</time></trkpt><trkpt lat="45.9485654" lon="11.7121835"><ele>566.0</ele><time>2026-04-25T06:41:22.911Z</time></trkpt><trkpt lat="45.9486111" lon="11.71212"><ele>566.0</ele><time>2026-04-25T06:41:23.901Z</time></trkpt><trkpt lat="45.9486522" lon="11.7120464"><ele>566.0</ele><time>2026-04-25T06:41:24.904Z</time></trkpt><trkpt lat="45.9486629" lon="11.7119183"><ele>566.0</ele><time>2026-04-25T06:41:26.921Z</time></trkpt><trkpt lat="45.9485493" lon="11.711902"><ele>566.0</ele><time>2026-04-25T06:41:28.907Z</time></trkpt><trkpt lat="45.9484779" lon="11.7119345"><ele>566.0</ele><time>2026-04-25T06:41:29.911Z</time></trkpt><trkpt lat="45.9484079" lon="11.7120297"><ele>566.0</ele><time>2026-04-25T06:41:30.92Z</time></trkpt><trkpt lat="45.9483213" lon="11.712125"><ele>566.0</ele><time>2026-04-25T06:41:31.905Z</time></trkpt><trkpt lat="45.9482235" lon="11.7122336"><ele>566.0</ele><time>2026-04-25T06:41:32.908Z</time></trkpt><trkpt lat="45.9481151" lon="11.7123382"><ele>571.75</ele><time>2026-04-25T06:41:33.925Z</time></trkpt><trkpt lat="45.9480107" lon="11.7124306"><ele>577.5</ele><time>2026-04-25T06:41:34.924Z</time></trkpt><trkpt lat="45.9478935" lon="11.7125178"><ele>583.25</ele><time>2026-04-25T06:41:35.933Z</time></trkpt><trkpt lat="45.9477766" lon="11.712602"><ele>589.0</ele><time>2026-04-25T06:41:36.924Z</time></trkpt><trkpt lat="45.9475199" lon="11.7127548"><ele>589.0</ele><time>2026-04-25T06:41:38.918Z</time></trkpt><trkpt lat="45.9473824" lon="11.712828"><ele>589.0</ele><time>2026-04-25T06:41:39.923Z</time></trkpt><trkpt lat="45.9472416" lon="11.7129002"><ele>589.0</ele><time>2026-04-25T06:41:40.94Z</time></trkpt><trkpt lat="45.9470979" lon="11.712973"><ele>589.0</ele><time>2026-04-25T06:41:41.94Z</time></trkpt><trkpt lat="45.9469497" lon="11.7130424"><ele>589.0</ele><time>2026-04-25T06:41:42.927Z</time></trkpt><trkpt lat="45.9468007" lon="11.7131253"><ele>589.0</ele><time>2026-04-25T06:41:43.928Z</time></trkpt><trkpt lat="45.9466419" lon="11.7131856"><ele>589.0</ele><time>2026-04-25T06:41:44.925Z</time></trkpt><trkpt lat="45.9464914" lon="11.7132511"><ele>593.0</ele><time>2026-04-25T06:41:45.916Z</time></trkpt><trkpt lat="45.9463408" lon="11.7133186"><ele>597.0</ele><time>2026-04-25T06:41:46.943Z</time></trkpt><trkpt lat="45.9461883" lon="11.7133758"><ele>601.0</ele><time>2026-04-25T06:41:47.937Z</time></trkpt><trkpt lat="45.9460418" lon="11.7134197"><ele>601.0</ele><time>2026-04-25T06:41:48.934Z</time></trkpt><trkpt lat="45.9458896" lon="11.7134578"><ele>601.0</ele><time>2026-04-25T06:41:49.925Z</time></trkpt><trkpt lat="45.9457373" lon="11.7134947"><ele>601.0</ele><time>2026-04-25T06:41:50.928Z</time></trkpt><trkpt lat="45.9455838" lon="11.7135426"><ele>598.0</ele><time>2026-04-25T06:41:51.914Z</time></trkpt><trkpt lat="45.9454279" lon="11.7136113"><ele>595.0</ele><time>2026-04-25T06:41:52.903Z</time></trkpt><trkpt lat="45.9452735" lon="11.7136943"><ele>592.0</ele><time>2026-04-25T06:41:53.904Z</time></trkpt><trkpt lat="45.945125" lon="11.7137893"><ele>596.0</ele><time>2026-04-25T06:41:54.905Z</time></trkpt><trkpt lat="45.944973" lon="11.713883"><ele>600.0</ele><time>2026-04-25T06:41:55.923Z</time></trkpt><trkpt lat="45.9448196" lon="11.7139696"><ele>604.0</ele><time>2026-04-25T06:41:56.913Z</time></trkpt><trkpt lat="45.9446692" lon="11.7140483"><ele>604.0</ele><time>2026-04-25T06:41:57.921Z</time></trkpt><trkpt lat="45.9444144" lon="11.7141603"><ele>604.0</ele><time>2026-04-25T06:41:59.932Z</time></trkpt><trkpt lat="45.9443247" lon="11.7141993"><ele>604.0</ele><time>2026-04-25T06:42:00.939Z</time></trkpt><trkpt lat="45.9442563" lon="11.714232"><ele>604.0</ele><time>2026-04-25T06:42:01.909Z</time></trkpt><trkpt lat="45.9441566" lon="11.714286"><ele>604.0</ele><time>2026-04-25T06:42:03.919Z</time></trkpt><trkpt lat="45.944072" lon="11.7142914"><ele>604.0</ele><time>2026-04-25T06:42:05.908Z</time></trkpt><trkpt lat="45.9440723" lon="11.71416"><ele>604.0</ele><time>2026-04-25T06:42:08.924Z</time></trkpt><trkpt lat="45.9441391" lon="11.7141106"><ele>604.0</ele><time>2026-04-25T06:42:09.903Z</time></trkpt><trkpt lat="45.9442254" lon="11.7140545"><ele>604.0</ele><time>2026-04-25T06:42:10.91Z</time></trkpt><trkpt lat="45.9443238" lon="11.7139868"><ele>604.0</ele><time>2026-04-25T06:42:11.921Z</time></trkpt><trkpt lat="45.9444328" lon="11.7139092"><ele>604.0</ele><time>2026-04-25T06:42:12.917Z</time></trkpt><trkpt lat="45.9445536" lon="11.7138275"><ele>604.0</ele><time>2026-04-25T06:42:13.918Z</time></trkpt><trkpt lat="45.9446802" lon="11.7137423"><ele>604.0</ele><time>2026-04-25T06:42:14.913Z</time></trkpt><trkpt lat="45.9448109" lon="11.7136454"><ele>606.75</ele><time>2026-04-25T06:42:15.924Z</time></trkpt><trkpt lat="45.9449365" lon="11.7135384"><ele>609.5</ele><time>2026-04-25T06:42:16.928Z</time></trkpt><trkpt lat="45.9450565" lon="11.7134283"><ele>612.25</ele><time>2026-04-25T06:42:17.921Z</time></trkpt><trkpt lat="45.9451611" lon="11.7133121"><ele>615.0</ele><time>2026-04-25T06:42:18.914Z</time></trkpt><trkpt lat="45.9453546" lon="11.7130666"><ele>615.0</ele><time>2026-04-25T06:42:20.924Z</time></trkpt><trkpt lat="45.9454669" lon="11.7129707"><ele>615.0</ele><time>2026-04-25T06:42:21.905Z</time></trkpt><trkpt lat="45.9455935" lon="11.7128968"><ele>615.0</ele><time>2026-04-25T06:42:22.926Z</time></trkpt><trkpt lat="45.9457306" lon="11.7128373"><ele>615.0</ele><time>2026-04-25T06:42:23.903Z</time></trkpt><trkpt lat="45.9458714" lon="11.7127787"><ele>617.25</ele><time>2026-04-25T06:42:24.91Z</time></trkpt><trkpt lat="45.9460104" lon="11.7127009"><ele>619.5</ele><time>2026-04-25T06:42:25.918Z</time></trkpt><trkpt lat="45.9461496" lon="11.7126204"><ele>621.75</ele><time>2026-04-25T06:42:26.925Z</time></trkpt><trkpt lat="45.9462634" lon="11.7124911"><ele>624.0</ele><time>2026-04-25T06:42:27.921Z</time></trkpt><trkpt lat="45.9463588" lon="11.7123733"><ele>624.0</ele><time>2026-04-25T06:42:28.916Z</time></trkpt><trkpt lat="45.9464422" lon="11.7122781"><ele>624.0</ele><time>2026-04-25T06:42:29.91Z</time></trkpt><trkpt lat="45.9465001" lon="11.712204"><ele>624.0</ele><time>2026-04-25T06:42:30.923Z</time></trkpt><trkpt lat="45.9465573" lon="11.7121653"><ele>624.0</ele><time>2026-04-25T06:42:31.909Z</time></trkpt><trkpt lat="45.9466122" lon="11.7120774"><ele>624.0</ele><time>2026-04-25T06:42:33.928Z</time></trkpt><trkpt lat="45.9465675" lon="11.7119625"><ele>624.0</ele><time>2026-04-25T06:42:35.898Z</time></trkpt><trkpt lat="45.9464565" lon="11.7119688"><ele>624.0</ele><time>2026-04-25T06:42:37.908Z</time></trkpt><trkpt lat="45.9463917" lon="11.7120502"><ele>624.0</ele><time>2026-04-25T06:42:38.918Z</time></trkpt><trkpt lat="45.9463134" lon="11.7121408"><ele>624.0</ele><time>2026-04-25T06:42:39.901Z</time></trkpt><trkpt lat="45.9461247" lon="11.7123266"><ele>624.0</ele><time>2026-04-25T06:42:41.924Z</time></trkpt><trkpt lat="45.9460227" lon="11.7124073"><ele>624.0</ele><time>2026-04-25T06:42:42.93Z</time></trkpt><trkpt lat="45.9458917" lon="11.7124334"><ele>624.0</ele><time>2026-04-25T06:42:43.909Z</time></trkpt><trkpt lat="45.9457472" lon="11.7124671"><ele>624.0</ele><time>2026-04-25T06:42:44.91Z</time></trkpt><trkpt lat="45.9455925" lon="11.7125171"><ele>624.0</ele><time>2026-04-25T06:42:45.929Z</time></trkpt><trkpt lat="45.9454312" lon="11.7125703"><ele>624.75</ele><time>2026-04-25T06:42:46.917Z</time></trkpt><trkpt lat="45.9452704" lon="11.7126285"><ele>625.5</ele><time>2026-04-25T06:42:47.91Z</time></trkpt><trkpt lat="45.9451242" lon="11.7127"><ele>626.25</ele><time>2026-04-25T06:42:48.918Z</time></trkpt><trkpt lat="45.9450063" lon="11.7127661"><ele>627.0</ele><time>2026-04-25T06:42:49.911Z</time></trkpt><trkpt lat="45.9448894" lon="11.7127978"><ele>627.0</ele><time>2026-04-25T06:42:50.923Z</time></trkpt><trkpt lat="45.9447767" lon="11.712804"><ele>627.0</ele><time>2026-04-25T06:42:51.912Z</time></trkpt><trkpt lat="45.9446705" lon="11.712806"><ele>627.0</ele><time>2026-04-25T06:42:52.902Z</time></trkpt><trkpt lat="45.9445629" lon="11.7127783"><ele>627.0</ele><time>2026-04-25T06:42:53.908Z</time></trkpt><trkpt lat="45.9444666" lon="11.7127225"><ele>627.0</ele><time>2026-04-25T06:42:54.918Z</time></trkpt><trkpt lat="45.9443821" lon="11.7126359"><ele>631.0</ele><time>2026-04-25T06:42:55.921Z</time></trkpt><trkpt lat="45.944316" lon="11.7125382"><ele>635.0</ele><time>2026-04-25T06:42:56.919Z</time></trkpt><trkpt lat="45.944269" lon="11.712446"><ele>639.0</ele><time>2026-04-25T06:42:57.906Z</time></trkpt><trkpt lat="45.9442479" lon="11.7122949"><ele>643.0</ele><time>2026-04-25T06:42:59.903Z</time></trkpt><trkpt lat="45.9443359" lon="11.7122181"><ele>647.0</ele><time>2026-04-25T06:43:01.912Z</time></trkpt><trkpt lat="45.9444787" lon="11.7122803"><ele>647.0</ele><time>2026-04-25T06:43:03.92Z</time></trkpt><trkpt lat="45.9445566" lon="11.7123109"><ele>647.0</ele><time>2026-04-25T06:43:04.919Z</time></trkpt><trkpt lat="45.9446449" lon="11.7123293"><ele>647.0</ele><time>2026-04-25T06:43:05.907Z</time></trkpt><trkpt lat="45.944741" lon="11.7123345"><ele>647.0</ele><time>2026-04-25T06:43:06.907Z</time></trkpt><trkpt lat="45.9448417" lon="11.7123296"><ele>647.0</ele><time>2026-04-25T06:43:07.906Z</time></trkpt><trkpt lat="45.9449454" lon="11.7123195"><ele>645.2</ele><time>2026-04-25T06:43:08.926Z</time></trkpt><trkpt lat="45.945051" lon="11.7122895"><ele>643.4000000000001</ele><time>2026-04-25T06:43:09.907Z</time></trkpt><trkpt lat="45.9451515" lon="11.7122379"><ele>641.5999999999999</ele><time>2026-04-25T06:43:10.902Z</time></trkpt><trkpt lat="45.9452472" lon="11.7121731"><ele>639.8</ele><time>2026-04-25T06:43:11.928Z</time></trkpt><trkpt lat="45.945339" lon="11.7121052"><ele>638.0</ele><time>2026-04-25T06:43:12.923Z</time></trkpt><trkpt lat="45.9454329" lon="11.7120263"><ele>638.0</ele><time>2026-04-25T06:43:13.903Z</time></trkpt><trkpt lat="45.9455326" lon="11.7119353"><ele>638.0</ele><time>2026-04-25T06:43:14.909Z</time></trkpt><trkpt lat="45.9456133" lon="11.7118104"><ele>638.0</ele><time>2026-04-25T06:43:15.896Z</time></trkpt><trkpt lat="45.9456714" lon="11.7116539"><ele>638.0</ele><time>2026-04-25T06:43:16.926Z</time></trkpt><trkpt lat="45.9457419" lon="11.7114922"><ele>643.0</ele><time>2026-04-25T06:43:17.909Z</time></trkpt><trkpt lat="45.9457919" lon="11.7113149"><ele>648.0</ele><time>2026-04-25T06:43:18.919Z</time></trkpt><trkpt lat="45.9458582" lon="11.7111589"><ele>653.0</ele><time>2026-04-25T06:43:19.905Z</time></trkpt><trkpt lat="45.945934" lon="11.7110258"><ele>658.0</ele><time>2026-04-25T06:43:20.914Z</time></trkpt><trkpt lat="45.9460351" lon="11.7109103"><ele>658.6666666666667</ele><time>2026-04-25T06:43:21.904Z</time></trkpt><trkpt lat="45.9461523" lon="11.7108133"><ele>659.3333333333334</ele><time>2026-04-25T06:43:22.924Z</time></trkpt><trkpt lat="45.9464079" lon="11.7106432"><ele>660.0</ele><time>2026-04-25T06:43:24.923Z</time></trkpt><trkpt lat="45.9465259" lon="11.7105659"><ele>660.0</ele><time>2026-04-25T06:43:25.909Z</time></trkpt><trkpt lat="45.9466371" lon="11.7105071"><ele>660.0</ele><time>2026-04-25T06:43:26.904Z</time></trkpt><trkpt lat="45.9467375" lon="11.7104566"><ele>660.0</ele><time>2026-04-25T06:43:27.914Z</time></trkpt><trkpt lat="45.9468314" lon="11.7104131"><ele>660.0</ele><time>2026-04-25T06:43:28.911Z</time></trkpt><trkpt lat="45.9469104" lon="11.7103736"><ele>660.0</ele><time>2026-04-25T06:43:29.901Z</time></trkpt><trkpt lat="45.9469667" lon="11.7103203"><ele>661.6</ele><time>2026-04-25T06:43:30.922Z</time></trkpt><trkpt lat="45.9469785" lon="11.7101699"><ele>663.2</ele><time>2026-04-25T06:43:32.929Z</time></trkpt><trkpt lat="45.9468613" lon="11.7101174"><ele>664.8</ele><time>2026-04-25T06:43:34.904Z</time></trkpt><trkpt lat="45.9467907" lon="11.7101471"><ele>666.4</ele><time>2026-04-25T06:43:35.925Z</time></trkpt><trkpt lat="45.9467174" lon="11.7101827"><ele>668.0</ele><time>2026-04-25T06:43:36.91Z</time></trkpt><trkpt lat="45.9466358" lon="11.7102225"><ele>666.0</ele><time>2026-04-25T06:43:37.918Z</time></trkpt><trkpt lat="45.9465411" lon="11.7102635"><ele>664.0</ele><time>2026-04-25T06:43:38.91Z</time></trkpt><trkpt lat="45.9464215" lon="11.7103046"><ele>662.0</ele><time>2026-04-25T06:43:39.898Z</time></trkpt><trkpt lat="45.9462807" lon="11.7103378"><ele>660.0</ele><time>2026-04-25T06:43:40.942Z</time></trkpt><trkpt lat="45.9461353" lon="11.7103618"><ele>660.0</ele><time>2026-04-25T06:43:41.933Z</time></trkpt><trkpt lat="45.9459902" lon="11.7103795"><ele>660.0</ele><time>2026-04-25T06:43:42.935Z</time></trkpt><trkpt lat="45.9458433" lon="11.7103964"><ele>660.0</ele><time>2026-04-25T06:43:43.921Z</time></trkpt><trkpt lat="45.9455534" lon="11.7104355"><ele>661.5</ele><time>2026-04-25T06:43:45.911Z</time></trkpt><trkpt lat="45.945421" lon="11.7104526"><ele>663.0</ele><time>2026-04-25T06:43:46.931Z</time></trkpt><trkpt lat="45.9453025" lon="11.7104719"><ele>664.5</ele><time>2026-04-25T06:43:47.92Z</time></trkpt><trkpt lat="45.9451828" lon="11.7104928"><ele>666.0</ele><time>2026-04-25T06:43:48.916Z</time></trkpt><trkpt lat="45.9450709" lon="11.7105148"><ele>667.0</ele><time>2026-04-25T06:43:49.928Z</time></trkpt><trkpt lat="45.9449721" lon="11.7105337"><ele>668.0</ele><time>2026-04-25T06:43:50.931Z</time></trkpt><trkpt lat="45.9448776" lon="11.7105513"><ele>669.0</ele><time>2026-04-25T06:43:51.91Z</time></trkpt><trkpt lat="45.944799" lon="11.7105576"><ele>670.0</ele><time>2026-04-25T06:43:52.913Z</time></trkpt><trkpt lat="45.9447217" lon="11.7104705"><ele>671.0</ele><time>2026-04-25T06:43:54.934Z</time></trkpt><trkpt lat="45.9447613" lon="11.7103689"><ele>671.0</ele><time>2026-04-25T06:43:56.914Z</time></trkpt><trkpt lat="45.9448462" lon="11.710329"><ele>671.0</ele><time>2026-04-25T06:43:57.918Z</time></trkpt><trkpt lat="45.9449542" lon="11.7102945"><ele>671.0</ele><time>2026-04-25T06:43:58.929Z</time></trkpt><trkpt lat="45.9450738" lon="11.710248"><ele>671.0</ele><time>2026-04-25T06:43:59.922Z</time></trkpt><trkpt lat="45.9451972" lon="11.7101912"><ele>674.0</ele><time>2026-04-25T06:44:00.93Z</time></trkpt><trkpt lat="45.9453264" lon="11.7101188"><ele>677.0</ele><time>2026-04-25T06:44:01.908Z</time></trkpt><trkpt lat="45.9454644" lon="11.7100423"><ele>680.0</ele><time>2026-04-25T06:44:02.908Z</time></trkpt><trkpt lat="45.9456084" lon="11.7099662"><ele>683.0</ele><time>2026-04-25T06:44:03.91Z</time></trkpt><trkpt lat="45.945759" lon="11.7098957"><ele>679.5</ele><time>2026-04-25T06:44:04.908Z</time></trkpt><trkpt lat="45.9460602" lon="11.7097596"><ele>676.0</ele><time>2026-04-25T06:44:06.918Z</time></trkpt><trkpt lat="45.9462083" lon="11.7096892"><ele>676.0</ele><time>2026-04-25T06:44:07.918Z</time></trkpt><trkpt lat="45.9463581" lon="11.7096173"><ele>676.0</ele><time>2026-04-25T06:44:08.915Z</time></trkpt><trkpt lat="45.9465084" lon="11.7095396"><ele>676.0</ele><time>2026-04-25T06:44:09.925Z</time></trkpt><trkpt lat="45.9466553" lon="11.7094465"><ele>680.0</ele><time>2026-04-25T06:44:10.902Z</time></trkpt><trkpt lat="45.946798" lon="11.7093347"><ele>684.0</ele><time>2026-04-25T06:44:11.923Z</time></trkpt><trkpt lat="45.9469415" lon="11.7092058"><ele>688.0</ele><time>2026-04-25T06:44:12.908Z</time></trkpt><trkpt lat="45.947094" lon="11.7090664"><ele>688.0</ele><time>2026-04-25T06:44:13.919Z</time></trkpt><trkpt lat="45.9472518" lon="11.7089215"><ele>688.0</ele><time>2026-04-25T06:44:14.923Z</time></trkpt><trkpt lat="45.9474153" lon="11.7087724"><ele>688.0</ele><time>2026-04-25T06:44:15.919Z</time></trkpt><trkpt lat="45.9475792" lon="11.7086203"><ele>690.6666666666667</ele><time>2026-04-25T06:44:16.923Z</time></trkpt><trkpt lat="45.9477385" lon="11.708463"><ele>693.3333333333334</ele><time>2026-04-25T06:44:17.919Z</time></trkpt><trkpt lat="45.9478887" lon="11.7083014"><ele>696.0</ele><time>2026-04-25T06:44:18.909Z</time></trkpt><trkpt lat="45.9480292" lon="11.7081466"><ele>696.0</ele><time>2026-04-25T06:44:19.907Z</time></trkpt><trkpt lat="45.9481641" lon="11.70801"><ele>696.0</ele><time>2026-04-25T06:44:20.929Z</time></trkpt><trkpt lat="45.9483014" lon="11.7079077"><ele>696.0</ele><time>2026-04-25T06:44:21.93Z</time></trkpt><trkpt lat="45.9484467" lon="11.7078312"><ele>697.6666666666666</ele><time>2026-04-25T06:44:22.914Z</time></trkpt><trkpt lat="45.9485949" lon="11.7077524"><ele>699.3333333333333</ele><time>2026-04-25T06:44:23.935Z</time></trkpt><trkpt lat="45.9487444" lon="11.7076693"><ele>701.0</ele><time>2026-04-25T06:44:24.939Z</time></trkpt><trkpt lat="45.9488923" lon="11.7075782"><ele>701.0</ele><time>2026-04-25T06:44:25.945Z</time></trkpt><trkpt lat="45.949137" lon="11.7073369"><ele>701.0</ele><time>2026-04-25T06:44:27.939Z</time></trkpt><trkpt lat="45.949228" lon="11.7071907"><ele>701.0</ele><time>2026-04-25T06:44:28.929Z</time></trkpt><trkpt lat="45.9492908" lon="11.7070334"><ele>703.1999999999999</ele><time>2026-04-25T06:44:29.936Z</time></trkpt><trkpt lat="45.9493497" lon="11.7068957"><ele>705.4</ele><time>2026-04-25T06:44:30.924Z</time></trkpt><trkpt lat="45.9493919" lon="11.7067767"><ele>707.6</ele><time>2026-04-25T06:44:31.927Z</time></trkpt><trkpt lat="45.9493686" lon="11.706643"><ele>709.8</ele><time>2026-04-25T06:44:33.932Z</time></trkpt><trkpt lat="45.9492616" lon="11.7066837"><ele>712.0</ele><time>2026-04-25T06:44:35.923Z</time></trkpt><trkpt lat="45.9492079" lon="11.7067814"><ele>712.0</ele><time>2026-04-25T06:44:36.924Z</time></trkpt><trkpt lat="45.9491485" lon="11.7068928"><ele>712.0</ele><time>2026-04-25T06:44:37.952Z</time></trkpt><trkpt lat="45.9490701" lon="11.7070096"><ele>712.0</ele><time>2026-04-25T06:44:38.933Z</time></trkpt><trkpt lat="45.9489771" lon="11.7070969"><ele>712.0</ele><time>2026-04-25T06:44:39.928Z</time></trkpt><trkpt lat="45.9488651" lon="11.7071594"><ele>712.0</ele><time>2026-04-25T06:44:40.924Z</time></trkpt><trkpt lat="45.9487448" lon="11.7072009"><ele>712.5</ele><time>2026-04-25T06:44:41.913Z</time></trkpt><trkpt lat="45.9486148" lon="11.7072356"><ele>713.0</ele><time>2026-04-25T06:44:42.928Z</time></trkpt><trkpt lat="45.9484798" lon="11.7072714"><ele>713.5</ele><time>2026-04-25T06:44:43.917Z</time></trkpt><trkpt lat="45.9483391" lon="11.7073104"><ele>714.0</ele><time>2026-04-25T06:44:44.934Z</time></trkpt><trkpt lat="45.9481949" lon="11.7073546"><ele>714.0</ele><time>2026-04-25T06:44:45.912Z</time></trkpt><trkpt lat="45.9480493" lon="11.7074081"><ele>714.0</ele><time>2026-04-25T06:44:46.917Z</time></trkpt><trkpt lat="45.9477595" lon="11.7075584"><ele>714.0</ele><time>2026-04-25T06:44:48.908Z</time></trkpt><trkpt lat="45.9476063" lon="11.7076609"><ele>714.0</ele><time>2026-04-25T06:44:49.91Z</time></trkpt><trkpt lat="45.9474481" lon="11.7077775"><ele>714.0</ele><time>2026-04-25T06:44:50.932Z</time></trkpt><trkpt lat="45.947283" lon="11.7078934"><ele>711.6666666666666</ele><time>2026-04-25T06:44:51.915Z</time></trkpt><trkpt lat="45.9471131" lon="11.708003"><ele>709.3333333333333</ele><time>2026-04-25T06:44:52.925Z</time></trkpt><trkpt lat="45.9469331" lon="11.7080949"><ele>707.0</ele><time>2026-04-25T06:44:53.901Z</time></trkpt><trkpt lat="45.9467495" lon="11.7081749"><ele>712.3333333333333</ele><time>2026-04-25T06:44:54.921Z</time></trkpt><trkpt lat="45.9465638" lon="11.7082447"><ele>717.6666666666666</ele><time>2026-04-25T06:44:55.927Z</time></trkpt><trkpt lat="45.9463721" lon="11.7082972"><ele>723.0</ele><time>2026-04-25T06:44:56.911Z</time></trkpt><trkpt lat="45.9461883" lon="11.7083297"><ele>723.0</ele><time>2026-04-25T06:44:57.925Z</time></trkpt><trkpt lat="45.9460038" lon="11.7083434"><ele>723.0</ele><time>2026-04-25T06:44:58.916Z</time></trkpt><trkpt lat="45.9458347" lon="11.7083943"><ele>723.0</ele><time>2026-04-25T06:44:59.924Z</time></trkpt><trkpt lat="45.9456716" lon="11.7084604"><ele>726.3333333333334</ele><time>2026-04-25T06:45:00.92Z</time></trkpt><trkpt lat="45.9455016" lon="11.7084978"><ele>729.6666666666667</ele><time>2026-04-25T06:45:01.913Z</time></trkpt><trkpt lat="45.9453213" lon="11.708519"><ele>733.0</ele><time>2026-04-25T06:45:02.933Z</time></trkpt><trkpt lat="45.9451368" lon="11.7085385"><ele>735.3333333333334</ele><time>2026-04-25T06:45:03.942Z</time></trkpt><trkpt lat="45.9449533" lon="11.7085547"><ele>737.6666666666666</ele><time>2026-04-25T06:45:04.932Z</time></trkpt><trkpt lat="45.9447707" lon="11.7085626"><ele>740.0</ele><time>2026-04-25T06:45:05.941Z</time></trkpt><trkpt lat="45.9445852" lon="11.7085663"><ele>732.5</ele><time>2026-04-25T06:45:06.923Z</time></trkpt><trkpt lat="45.9444027" lon="11.7085792"><ele>725.0</ele><time>2026-04-25T06:45:07.906Z</time></trkpt><trkpt lat="45.9440963" lon="11.7087711"><ele>725.0</ele><time>2026-04-25T06:45:09.923Z</time></trkpt><trkpt lat="45.9439765" lon="11.708909"><ele>725.0</ele><time>2026-04-25T06:45:10.929Z</time></trkpt><trkpt lat="45.9438785" lon="11.709044"><ele>725.0</ele><time>2026-04-25T06:45:11.917Z</time></trkpt><trkpt lat="45.94378" lon="11.7091664"><ele>725.0</ele><time>2026-04-25T06:45:12.918Z</time></trkpt><trkpt lat="45.94367" lon="11.7092621"><ele>725.0</ele><time>2026-04-25T06:45:13.925Z</time></trkpt><trkpt lat="45.9435471" lon="11.7093232"><ele>725.0</ele><time>2026-04-25T06:45:14.918Z</time></trkpt><trkpt lat="45.9434197" lon="11.7093568"><ele>725.0</ele><time>2026-04-25T06:45:15.924Z</time></trkpt><trkpt lat="45.9432915" lon="11.7093519"><ele>725.0</ele><time>2026-04-25T06:45:16.902Z</time></trkpt><trkpt lat="45.9431606" lon="11.7093136"><ele>730.0</ele><time>2026-04-25T06:45:17.927Z</time></trkpt><trkpt lat="45.9430305" lon="11.7092681"><ele>735.0</ele><time>2026-04-25T06:45:18.906Z</time></trkpt><trkpt lat="45.9428906" lon="11.7092493"><ele>740.0</ele><time>2026-04-25T06:45:19.915Z</time></trkpt><trkpt lat="45.9427373" lon="11.7092377"><ele>745.0</ele><time>2026-04-25T06:45:20.92Z</time></trkpt><trkpt lat="45.9425846" lon="11.7092803"><ele>747.0</ele><time>2026-04-25T06:45:21.896Z</time></trkpt><trkpt lat="45.9424345" lon="11.7093373"><ele>749.0</ele><time>2026-04-25T06:45:22.908Z</time></trkpt><trkpt lat="45.942294" lon="11.7094156"><ele>751.0</ele><time>2026-04-25T06:45:23.929Z</time></trkpt><trkpt lat="45.9421766" lon="11.7095232"><ele>753.0</ele><time>2026-04-25T06:45:24.906Z</time></trkpt><trkpt lat="45.9420751" lon="11.7096593"><ele>747.25</ele><time>2026-04-25T06:45:25.929Z</time></trkpt><trkpt lat="45.9419865" lon="11.709786"><ele>741.5</ele><time>2026-04-25T06:45:26.907Z</time></trkpt><trkpt lat="45.9419069" lon="11.7099036"><ele>735.75</ele><time>2026-04-25T06:45:27.916Z</time></trkpt><trkpt lat="45.9418419" lon="11.7100079"><ele>730.0</ele><time>2026-04-25T06:45:28.912Z</time></trkpt><trkpt lat="45.9417182" lon="11.7101634"><ele>733.8333333333334</ele><time>2026-04-25T06:45:30.924Z</time></trkpt><trkpt lat="45.941645" lon="11.7102023"><ele>737.6666666666667</ele><time>2026-04-25T06:45:31.925Z</time></trkpt><trkpt lat="45.9415646" lon="11.7102018"><ele>741.5</ele><time>2026-04-25T06:45:32.928Z</time></trkpt><trkpt lat="45.9414858" lon="11.7101639"><ele>745.3333333333334</ele><time>2026-04-25T06:45:33.91Z</time></trkpt><trkpt lat="45.9414107" lon="11.7100939"><ele>749.1666666666666</ele><time>2026-04-25T06:45:34.928Z</time></trkpt><trkpt lat="45.9413438" lon="11.7100064"><ele>753.0</ele><time>2026-04-25T06:45:35.919Z</time></trkpt><trkpt lat="45.9412794" lon="11.7099046"><ele>753.0</ele><time>2026-04-25T06:45:36.902Z</time></trkpt><trkpt lat="45.94123" lon="11.7098017"><ele>753.0</ele><time>2026-04-25T06:45:37.918Z</time></trkpt><trkpt lat="45.9411696" lon="11.7096916"><ele>753.0</ele><time>2026-04-25T06:45:38.919Z</time></trkpt><trkpt lat="45.9411264" lon="11.7095759"><ele>753.0</ele><time>2026-04-25T06:45:39.92Z</time></trkpt><trkpt lat="45.9410946" lon="11.7094852"><ele>753.0</ele><time>2026-04-25T06:45:40.908Z</time></trkpt><trkpt lat="45.9410723" lon="11.7093905"><ele>753.0</ele><time>2026-04-25T06:45:41.913Z</time></trkpt><trkpt lat="45.9410569" lon="11.7092957"><ele>754.1666666666666</ele><time>2026-04-25T06:45:42.913Z</time></trkpt><trkpt lat="45.9410624" lon="11.7091916"><ele>755.3333333333334</ele><time>2026-04-25T06:45:43.923Z</time></trkpt><trkpt lat="45.9409614" lon="11.7091325"><ele>756.5</ele><time>2026-04-25T06:45:45.9Z</time></trkpt><trkpt lat="45.9408892" lon="11.7091323"><ele>757.6666666666667</ele><time>2026-04-25T06:45:46.93Z</time></trkpt><trkpt lat="45.9408154" lon="11.709191"><ele>758.8333333333334</ele><time>2026-04-25T06:45:47.904Z</time></trkpt><trkpt lat="45.9407394" lon="11.7092578"><ele>760.0</ele><time>2026-04-25T06:45:48.943Z</time></trkpt><trkpt lat="45.9406597" lon="11.7093257"><ele>759.6</ele><time>2026-04-25T06:45:49.927Z</time></trkpt><trkpt lat="45.9404875" lon="11.7094286"><ele>759.2</ele><time>2026-04-25T06:45:51.929Z</time></trkpt><trkpt lat="45.9404164" lon="11.7094691"><ele>758.8</ele><time>2026-04-25T06:45:52.941Z</time></trkpt><trkpt lat="45.9403457" lon="11.7095151"><ele>758.4</ele><time>2026-04-25T06:45:53.937Z</time></trkpt><trkpt lat="45.9402757" lon="11.7095653"><ele>758.0</ele><time>2026-04-25T06:45:54.942Z</time></trkpt><trkpt lat="45.9402048" lon="11.7096092"><ele>758.0</ele><time>2026-04-25T06:45:55.924Z</time></trkpt><trkpt lat="45.9401429" lon="11.7096449"><ele>758.0</ele><time>2026-04-25T06:45:56.927Z</time></trkpt><trkpt lat="45.9400342" lon="11.709701"><ele>758.0</ele><time>2026-04-25T06:45:58.927Z</time></trkpt><trkpt lat="45.9398969" lon="11.7096834"><ele>758.0</ele><time>2026-04-25T06:46:00.926Z</time></trkpt><trkpt lat="45.9398102" lon="11.7097012"><ele>758.0</ele><time>2026-04-25T06:46:01.931Z</time></trkpt><trkpt lat="45.939735" lon="11.7097268"><ele>759.4</ele><time>2026-04-25T06:46:02.912Z</time></trkpt><trkpt lat="45.9396822" lon="11.7098097"><ele>760.8</ele><time>2026-04-25T06:46:03.932Z</time></trkpt><trkpt lat="45.9396339" lon="11.709915"><ele>762.2</ele><time>2026-04-25T06:46:04.926Z</time></trkpt><trkpt lat="45.9395286" lon="11.7098818"><ele>763.6</ele><time>2026-04-25T06:46:06.939Z</time></trkpt><trkpt lat="45.9394492" lon="11.7097454"><ele>765.0</ele><time>2026-04-25T06:46:08.919Z</time></trkpt><trkpt lat="45.9394146" lon="11.7096692"><ele>765.0</ele><time>2026-04-25T06:46:09.916Z</time></trkpt><trkpt lat="45.9393734" lon="11.7095034"><ele>765.0</ele><time>2026-04-25T06:46:11.942Z</time></trkpt><trkpt lat="45.9394895" lon="11.7092607"><ele>765.0</ele><time>2026-04-25T06:46:15.94Z</time></trkpt><trkpt lat="45.9395407" lon="11.7091942"><ele>765.0</ele><time>2026-04-25T06:46:16.913Z</time></trkpt><trkpt lat="45.9395949" lon="11.7091176"><ele>765.4</ele><time>2026-04-25T06:46:17.91Z</time></trkpt><trkpt lat="45.9396492" lon="11.7090403"><ele>765.8</ele><time>2026-04-25T06:46:18.91Z</time></trkpt><trkpt lat="45.9397037" lon="11.7089638"><ele>766.2</ele><time>2026-04-25T06:46:19.892Z</time></trkpt><trkpt lat="45.9397539" lon="11.7088874"><ele>766.6</ele><time>2026-04-25T06:46:21.087Z</time></trkpt><trkpt lat="45.9398457" lon="11.7087386"><ele>767.0</ele><time>2026-04-25T06:46:22.894Z</time></trkpt><trkpt lat="45.9399327" lon="11.7086124"><ele>769.0</ele><time>2026-04-25T06:46:24.897Z</time></trkpt><trkpt lat="45.9399849" lon="11.7084641"><ele>771.0</ele><time>2026-04-25T06:46:26.905Z</time></trkpt><trkpt lat="45.9400044" lon="11.7083127"><ele>773.0</ele><time>2026-04-25T06:46:28.909Z</time></trkpt><trkpt lat="45.9400169" lon="11.7081879"><ele>775.0</ele><time>2026-04-25T06:46:30.897Z</time></trkpt><trkpt lat="45.9400276" lon="11.7080656"><ele>777.0</ele><time>2026-04-25T06:46:32.912Z</time></trkpt><trkpt lat="45.940035" lon="11.7078392"><ele>777.0</ele><time>2026-04-25T06:46:37.926Z</time></trkpt><trkpt lat="45.939979" lon="11.7077943"><ele>777.0</ele><time>2026-04-25T06:51:29.905Z</time></trkpt></trkseg><trkseg><trkpt lat="45.9399639" lon="11.7079477"><ele>777.0</ele><time>2026-04-25T07:42:27.486Z</time></trkpt><trkpt lat="45.9399126" lon="11.7080744"><ele>777.0</ele><time>2026-04-25T07:43:45.491Z</time></trkpt><trkpt lat="45.9399752" lon="11.7083838"><ele>777.0</ele><time>2026-04-25T07:45:04.494Z</time></trkpt><trkpt lat="45.9399337" lon="11.7085421"><ele>777.0</ele><time>2026-04-25T07:45:06.491Z</time></trkpt><trkpt lat="45.9398916" lon="11.7086187"><ele>775.3333333333334</ele><time>2026-04-25T07:45:07.494Z</time></trkpt><trkpt lat="45.9398465" lon="11.7086875"><ele>773.6666666666666</ele><time>2026-04-25T07:45:08.488Z</time></trkpt><trkpt lat="45.9397999" lon="11.7087516"><ele>772.0</ele><time>2026-04-25T07:45:09.501Z</time></trkpt><trkpt lat="45.9397507" lon="11.7088152"><ele>770.3333333333333</ele><time>2026-04-25T07:45:10.497Z</time></trkpt><trkpt lat="45.9397055" lon="11.708879"><ele>768.6666666666666</ele><time>2026-04-25T07:45:11.497Z</time></trkpt><trkpt lat="45.939622" lon="11.7089987"><ele>767.0</ele><time>2026-04-25T07:45:13.49Z</time></trkpt><trkpt lat="45.9395423" lon="11.70911"><ele>767.0</ele><time>2026-04-25T07:45:15.505Z</time></trkpt><trkpt lat="45.9394712" lon="11.7092165"><ele>767.0</ele><time>2026-04-25T07:45:17.499Z</time></trkpt><trkpt lat="45.9394126" lon="11.7092902"><ele>767.0</ele><time>2026-04-25T07:45:19.503Z</time></trkpt><trkpt lat="45.9393329" lon="11.7092981"><ele>767.0</ele><time>2026-04-25T07:45:22.493Z</time></trkpt><trkpt lat="45.9392083" lon="11.7090402"><ele>767.8333333333333</ele><time>2026-04-25T07:45:26.479Z</time></trkpt><trkpt lat="45.9391817" lon="11.7089538"><ele>768.6666666666666</ele><time>2026-04-25T07:45:27.49Z</time></trkpt><trkpt lat="45.9391528" lon="11.7088613"><ele>769.5</ele><time>2026-04-25T07:45:28.491Z</time></trkpt><trkpt lat="45.9391149" lon="11.7087647"><ele>770.3333333333333</ele><time>2026-04-25T07:45:29.503Z</time></trkpt><trkpt lat="45.9390834" lon="11.7086594"><ele>771.1666666666666</ele><time>2026-04-25T07:45:30.499Z</time></trkpt><trkpt lat="45.9390615" lon="11.7085438"><ele>772.0</ele><time>2026-04-25T07:45:31.48Z</time></trkpt><trkpt lat="45.9390453" lon="11.7084181"><ele>773.4000000000001</ele><time>2026-04-25T07:45:32.506Z</time></trkpt><trkpt lat="45.9390285" lon="11.708292"><ele>774.8000000000001</ele><time>2026-04-25T07:45:33.486Z</time></trkpt><trkpt lat="45.939" lon="11.708154"><ele>776.2</ele><time>2026-04-25T07:45:34.507Z</time></trkpt><trkpt lat="45.9389665" lon="11.7080146"><ele>777.6</ele><time>2026-04-25T07:45:35.491Z</time></trkpt><trkpt lat="45.9389242" lon="11.7078751"><ele>779.0</ele><time>2026-04-25T07:45:36.495Z</time></trkpt><trkpt lat="45.9388834" lon="11.7077415"><ele>780.2</ele><time>2026-04-25T07:45:37.485Z</time></trkpt><trkpt lat="45.9388219" lon="11.7076236"><ele>781.4000000000001</ele><time>2026-04-25T07:45:38.487Z</time></trkpt><trkpt lat="45.9387526" lon="11.7075139"><ele>782.6</ele><time>2026-04-25T07:45:39.489Z</time></trkpt><trkpt lat="45.9386783" lon="11.7074006"><ele>783.8</ele><time>2026-04-25T07:45:40.48Z</time></trkpt><trkpt lat="45.9386016" lon="11.7072927"><ele>785.0</ele><time>2026-04-25T07:45:41.499Z</time></trkpt><trkpt lat="45.938527" lon="11.7071831"><ele>785.0</ele><time>2026-04-25T07:45:42.481Z</time></trkpt><trkpt lat="45.9384625" lon="11.7070628"><ele>785.0</ele><time>2026-04-25T07:45:43.491Z</time></trkpt><trkpt lat="45.9383616" lon="11.706772"><ele>785.0</ele><time>2026-04-25T07:45:45.495Z</time></trkpt><trkpt lat="45.9383206" lon="11.7066095"><ele>785.75</ele><time>2026-04-25T07:45:46.48Z</time></trkpt><trkpt lat="45.9382802" lon="11.7064401"><ele>786.5</ele><time>2026-04-25T07:45:47.488Z</time></trkpt><trkpt lat="45.9382413" lon="11.706265"><ele>787.25</ele><time>2026-04-25T07:45:48.483Z</time></trkpt><trkpt lat="45.9382038" lon="11.7060855"><ele>788.0</ele><time>2026-04-25T07:45:49.484Z</time></trkpt><trkpt lat="45.9381681" lon="11.7059051"><ele>789.5</ele><time>2026-04-25T07:45:50.486Z</time></trkpt><trkpt lat="45.9381317" lon="11.7057282"><ele>791.0</ele><time>2026-04-25T07:45:51.472Z</time></trkpt><trkpt lat="45.9380925" lon="11.7055541"><ele>792.5</ele><time>2026-04-25T07:45:52.487Z</time></trkpt><trkpt lat="45.9380527" lon="11.7053779"><ele>794.0</ele><time>2026-04-25T07:45:53.476Z</time></trkpt><trkpt lat="45.9380156" lon="11.7052006"><ele>794.25</ele><time>2026-04-25T07:45:54.495Z</time></trkpt><trkpt lat="45.9379826" lon="11.7050232"><ele>794.5</ele><time>2026-04-25T07:45:55.482Z</time></trkpt><trkpt lat="45.937958" lon="11.7048442"><ele>794.75</ele><time>2026-04-25T07:45:56.479Z</time></trkpt><trkpt lat="45.9379398" lon="11.7046646"><ele>795.0</ele><time>2026-04-25T07:45:57.47Z</time></trkpt><trkpt lat="45.9379291" lon="11.704485"><ele>796.0</ele><time>2026-04-25T07:45:58.474Z</time></trkpt><trkpt lat="45.9379241" lon="11.7043072"><ele>797.0</ele><time>2026-04-25T07:45:59.474Z</time></trkpt><trkpt lat="45.9379171" lon="11.7041334"><ele>798.0</ele><time>2026-04-25T07:46:00.469Z</time></trkpt><trkpt lat="45.9379072" lon="11.7039626"><ele>799.0</ele><time>2026-04-25T07:46:01.469Z</time></trkpt><trkpt lat="45.9378946" lon="11.703794"><ele>799.0</ele><time>2026-04-25T07:46:02.472Z</time></trkpt><trkpt lat="45.9378798" lon="11.7036263"><ele>799.0</ele><time>2026-04-25T07:46:03.491Z</time></trkpt><trkpt lat="45.9378621" lon="11.7034658"><ele>799.0</ele><time>2026-04-25T07:46:04.471Z</time></trkpt><trkpt lat="45.9378201" lon="11.703128"><ele>801.5</ele><time>2026-04-25T07:46:06.482Z</time></trkpt><trkpt lat="45.9377947" lon="11.7029576"><ele>804.0</ele><time>2026-04-25T07:46:07.48Z</time></trkpt><trkpt lat="45.9377668" lon="11.7027813"><ele>806.5</ele><time>2026-04-25T07:46:08.482Z</time></trkpt><trkpt lat="45.9377357" lon="11.7026008"><ele>809.0</ele><time>2026-04-25T07:46:09.482Z</time></trkpt><trkpt lat="45.9376988" lon="11.7024198"><ele>813.0</ele><time>2026-04-25T07:46:10.471Z</time></trkpt><trkpt lat="45.9376621" lon="11.702237"><ele>817.0</ele><time>2026-04-25T07:46:11.485Z</time></trkpt><trkpt lat="45.9376337" lon="11.7020508"><ele>821.0</ele><time>2026-04-25T07:46:12.477Z</time></trkpt><trkpt lat="45.9376123" lon="11.7018599"><ele>825.0</ele><time>2026-04-25T07:46:13.474Z</time></trkpt><trkpt lat="45.9375903" lon="11.7016677"><ele>825.75</ele><time>2026-04-25T07:46:14.492Z</time></trkpt><trkpt lat="45.9375689" lon="11.701475"><ele>826.5</ele><time>2026-04-25T07:46:15.487Z</time></trkpt><trkpt lat="45.9375466" lon="11.7012811"><ele>827.25</ele><time>2026-04-25T07:46:16.475Z</time></trkpt><trkpt lat="45.9375145" lon="11.7010902"><ele>828.0</ele><time>2026-04-25T07:46:17.476Z</time></trkpt><trkpt lat="45.937469" lon="11.7009096"><ele>829.75</ele><time>2026-04-25T07:46:18.472Z</time></trkpt><trkpt lat="45.9374138" lon="11.7007404"><ele>831.5</ele><time>2026-04-25T07:46:19.473Z</time></trkpt><trkpt lat="45.9373573" lon="11.7005714"><ele>833.25</ele><time>2026-04-25T07:46:20.482Z</time></trkpt><trkpt lat="45.9373103" lon="11.7003911"><ele>835.0</ele><time>2026-04-25T07:46:21.493Z</time></trkpt><trkpt lat="45.9372759" lon="11.7002012"><ele>837.0</ele><time>2026-04-25T07:46:22.491Z</time></trkpt><trkpt lat="45.9372499" lon="11.7000039"><ele>839.0</ele><time>2026-04-25T07:46:23.473Z</time></trkpt><trkpt lat="45.9372289" lon="11.6998007"><ele>841.0</ele><time>2026-04-25T07:46:24.47Z</time></trkpt><trkpt lat="45.9372119" lon="11.6995856"><ele>843.0</ele><time>2026-04-25T07:46:25.474Z</time></trkpt><trkpt lat="45.9371816" lon="11.6991422"><ele>846.6666666666667</ele><time>2026-04-25T07:46:27.479Z</time></trkpt><trkpt lat="45.9371674" lon="11.6989188"><ele>850.3333333333334</ele><time>2026-04-25T07:46:28.478Z</time></trkpt><trkpt lat="45.9371523" lon="11.6986982"><ele>854.0</ele><time>2026-04-25T07:46:29.502Z</time></trkpt><trkpt lat="45.9371367" lon="11.6984817"><ele>859.3333333333334</ele><time>2026-04-25T07:46:30.475Z</time></trkpt><trkpt lat="45.937119" lon="11.698264"><ele>864.6666666666667</ele><time>2026-04-25T07:46:31.47Z</time></trkpt><trkpt lat="45.9370991" lon="11.6980453"><ele>870.0</ele><time>2026-04-25T07:46:32.485Z</time></trkpt><trkpt lat="45.9370775" lon="11.6978279"><ele>872.25</ele><time>2026-04-25T07:46:33.474Z</time></trkpt><trkpt lat="45.9370535" lon="11.6976191"><ele>874.5</ele><time>2026-04-25T07:46:34.484Z</time></trkpt><trkpt lat="45.9370309" lon="11.6974205"><ele>876.75</ele><time>2026-04-25T07:46:35.475Z</time></trkpt><trkpt lat="45.9370135" lon="11.6972387"><ele>879.0</ele><time>2026-04-25T07:46:36.48Z</time></trkpt><trkpt lat="45.9370003" lon="11.6970719"><ele>880.8000000000001</ele><time>2026-04-25T07:46:37.478Z</time></trkpt><trkpt lat="45.9369898" lon="11.6969102"><ele>882.6000000000001</ele><time>2026-04-25T07:46:38.48Z</time></trkpt><trkpt lat="45.9369817" lon="11.6967545"><ele>884.4</ele><time>2026-04-25T07:46:39.471Z</time></trkpt><trkpt lat="45.9369749" lon="11.6966084"><ele>886.2</ele><time>2026-04-25T07:46:40.476Z</time></trkpt><trkpt lat="45.9369701" lon="11.6964738"><ele>888.0</ele><time>2026-04-25T07:46:41.486Z</time></trkpt><trkpt lat="45.9369679" lon="11.6963646"><ele>888.0</ele><time>2026-04-25T07:46:42.472Z</time></trkpt><trkpt lat="45.9369687" lon="11.6962734"><ele>888.0</ele><time>2026-04-25T07:46:43.48Z</time></trkpt><trkpt lat="45.936974" lon="11.6961787"><ele>888.0</ele><time>2026-04-25T07:46:44.474Z</time></trkpt><trkpt lat="45.9369914" lon="11.6960301"><ele>888.0</ele><time>2026-04-25T07:46:46.487Z</time></trkpt><trkpt lat="45.9368963" lon="11.6958253"><ele>888.0</ele><time>2026-04-25T07:46:50.484Z</time></trkpt><trkpt lat="45.9368209" lon="11.6958308"><ele>889.8</ele><time>2026-04-25T07:46:51.477Z</time></trkpt><trkpt lat="45.9367505" lon="11.6958845"><ele>891.5999999999999</ele><time>2026-04-25T07:46:52.467Z</time></trkpt><trkpt lat="45.9366987" lon="11.6959896"><ele>893.4000000000001</ele><time>2026-04-25T07:46:53.488Z</time></trkpt><trkpt lat="45.9366718" lon="11.6961302"><ele>895.2</ele><time>2026-04-25T07:46:54.473Z</time></trkpt><trkpt lat="45.9366549" lon="11.6962923"><ele>897.0</ele><time>2026-04-25T07:46:55.487Z</time></trkpt><trkpt lat="45.9366392" lon="11.6964712"><ele>897.0</ele><time>2026-04-25T07:46:56.49Z</time></trkpt><trkpt lat="45.9366246" lon="11.696671"><ele>897.0</ele><time>2026-04-25T07:46:57.493Z</time></trkpt><trkpt lat="45.9366096" lon="11.6968868"><ele>897.0</ele><time>2026-04-25T07:46:58.481Z</time></trkpt><trkpt lat="45.9365908" lon="11.6971154"><ele>896.0</ele><time>2026-04-25T07:46:59.483Z</time></trkpt><trkpt lat="45.9365704" lon="11.6973582"><ele>895.0</ele><time>2026-04-25T07:47:00.5Z</time></trkpt><trkpt lat="45.9365485" lon="11.6976191"><ele>894.0</ele><time>2026-04-25T07:47:01.483Z</time></trkpt><trkpt lat="45.9365222" lon="11.6978974"><ele>892.6666666666667</ele><time>2026-04-25T07:47:02.477Z</time></trkpt><trkpt lat="45.9364814" lon="11.6982052"><ele>891.3333333333334</ele><time>2026-04-25T07:47:03.49Z</time></trkpt><trkpt lat="45.9364332" lon="11.6985051"><ele>890.0</ele><time>2026-04-25T07:47:04.474Z</time></trkpt><trkpt lat="45.9363817" lon="11.6987882"><ele>889.0</ele><time>2026-04-25T07:47:05.474Z</time></trkpt><trkpt lat="45.9363283" lon="11.6990621"><ele>888.0</ele><time>2026-04-25T07:47:06.481Z</time></trkpt><trkpt lat="45.9362752" lon="11.6993279"><ele>887.0</ele><time>2026-04-25T07:47:07.472Z</time></trkpt><trkpt lat="45.9361709" lon="11.6998435"><ele>885.0</ele><time>2026-04-25T07:47:09.476Z</time></trkpt><trkpt lat="45.9361191" lon="11.7001008"><ele>883.0</ele><time>2026-04-25T07:47:10.482Z</time></trkpt><trkpt lat="45.9360674" lon="11.7003575"><ele>881.0</ele><time>2026-04-25T07:47:11.483Z</time></trkpt><trkpt lat="45.9360167" lon="11.7006121"><ele>879.3333333333334</ele><time>2026-04-25T07:47:12.493Z</time></trkpt><trkpt lat="45.9359673" lon="11.7008603"><ele>877.6666666666667</ele><time>2026-04-25T07:47:13.478Z</time></trkpt><trkpt lat="45.9359158" lon="11.7010833"><ele>876.0</ele><time>2026-04-25T07:47:14.482Z</time></trkpt><trkpt lat="45.935849" lon="11.7012778"><ele>885.3333333333333</ele><time>2026-04-25T07:47:15.505Z</time></trkpt><trkpt lat="45.9357579" lon="11.7014507"><ele>894.6666666666666</ele><time>2026-04-25T07:47:16.497Z</time></trkpt><trkpt lat="45.9356414" lon="11.7016094"><ele>904.0</ele><time>2026-04-25T07:47:17.482Z</time></trkpt><trkpt lat="45.9355066" lon="11.7017646"><ele>904.0</ele><time>2026-04-25T07:47:18.467Z</time></trkpt><trkpt lat="45.93537" lon="11.7019088"><ele>904.0</ele><time>2026-04-25T07:47:19.518Z</time></trkpt><trkpt lat="45.9352276" lon="11.7020466"><ele>904.0</ele><time>2026-04-25T07:47:20.491Z</time></trkpt><trkpt lat="45.9350867" lon="11.7021838"><ele>905.6666666666666</ele><time>2026-04-25T07:47:21.495Z</time></trkpt><trkpt lat="45.9349505" lon="11.7022931"><ele>907.3333333333333</ele><time>2026-04-25T07:47:22.494Z</time></trkpt><trkpt lat="45.9348081" lon="11.7023698"><ele>909.0</ele><time>2026-04-25T07:47:23.499Z</time></trkpt><trkpt lat="45.9346475" lon="11.7024055"><ele>909.0</ele><time>2026-04-25T07:47:24.491Z</time></trkpt><trkpt lat="45.9344848" lon="11.7024107"><ele>909.0</ele><time>2026-04-25T07:47:25.476Z</time></trkpt><trkpt lat="45.9343436" lon="11.7023799"><ele>909.0</ele><time>2026-04-25T07:47:26.48Z</time></trkpt><trkpt lat="45.9342175" lon="11.7023007"><ele>909.0</ele><time>2026-04-25T07:47:27.482Z</time></trkpt><trkpt lat="45.934101" lon="11.7021812"><ele>920.5</ele><time>2026-04-25T07:47:28.49Z</time></trkpt><trkpt lat="45.9338416" lon="11.7018948"><ele>932.0</ele><time>2026-04-25T07:47:30.487Z</time></trkpt><trkpt lat="45.9337026" lon="11.7017427"><ele>932.0</ele><time>2026-04-25T07:47:31.488Z</time></trkpt><trkpt lat="45.9335747" lon="11.7015988"><ele>932.0</ele><time>2026-04-25T07:47:32.497Z</time></trkpt><trkpt lat="45.9334569" lon="11.7014677"><ele>932.0</ele><time>2026-04-25T07:47:33.493Z</time></trkpt><trkpt lat="45.9333574" lon="11.7013622"><ele>932.0</ele><time>2026-04-25T07:47:34.49Z</time></trkpt><trkpt lat="45.933265" lon="11.7013304"><ele>932.0</ele><time>2026-04-25T07:47:35.49Z</time></trkpt><trkpt lat="45.9331693" lon="11.7013562"><ele>932.0</ele><time>2026-04-25T07:47:36.508Z</time></trkpt><trkpt lat="45.9330947" lon="11.7014411"><ele>932.0</ele><time>2026-04-25T07:47:37.504Z</time></trkpt><trkpt lat="45.9330291" lon="11.7015827"><ele>932.0</ele><time>2026-04-25T07:47:38.465Z</time></trkpt><trkpt lat="45.9329642" lon="11.7017561"><ele>932.0</ele><time>2026-04-25T07:47:39.496Z</time></trkpt><trkpt lat="45.9328867" lon="11.7019044"><ele>932.5</ele><time>2026-04-25T07:47:40.5Z</time></trkpt><trkpt lat="45.9327887" lon="11.7020074"><ele>933.0</ele><time>2026-04-25T07:47:41.504Z</time></trkpt><trkpt lat="45.9326677" lon="11.7020602"><ele>933.5</ele><time>2026-04-25T07:47:42.473Z</time></trkpt><trkpt lat="45.9325259" lon="11.702074"><ele>934.0</ele><time>2026-04-25T07:47:43.49Z</time></trkpt><trkpt lat="45.9323924" lon="11.7020828"><ele>934.0</ele><time>2026-04-25T07:47:44.51Z</time></trkpt><trkpt lat="45.9322694" lon="11.7021285"><ele>934.0</ele><time>2026-04-25T07:47:45.486Z</time></trkpt><trkpt lat="45.9321544" lon="11.7022667"><ele>934.0</ele><time>2026-04-25T07:47:46.49Z</time></trkpt><trkpt lat="45.9320313" lon="11.7024268"><ele>934.0</ele><time>2026-04-25T07:47:47.487Z</time></trkpt><trkpt lat="45.9319329" lon="11.7026485"><ele>927.5</ele><time>2026-04-25T07:47:48.468Z</time></trkpt><trkpt lat="45.9318205" lon="11.7028515"><ele>921.0</ele><time>2026-04-25T07:47:49.471Z</time></trkpt><trkpt lat="45.9316319" lon="11.7031438"><ele>928.25</ele><time>2026-04-25T07:47:51.483Z</time></trkpt><trkpt lat="45.9315288" lon="11.7032886"><ele>935.5</ele><time>2026-04-25T07:47:52.472Z</time></trkpt><trkpt lat="45.9314289" lon="11.7034002"><ele>942.75</ele><time>2026-04-25T07:47:53.495Z</time></trkpt><trkpt lat="45.9313158" lon="11.7034682"><ele>950.0</ele><time>2026-04-25T07:47:54.479Z</time></trkpt><trkpt lat="45.9311866" lon="11.7034801"><ele>950.0</ele><time>2026-04-25T07:47:55.485Z</time></trkpt><trkpt lat="45.9310396" lon="11.7034448"><ele>950.0</ele><time>2026-04-25T07:47:56.467Z</time></trkpt><trkpt lat="45.9308894" lon="11.7033788"><ele>950.0</ele><time>2026-04-25T07:47:57.486Z</time></trkpt><trkpt lat="45.9307474" lon="11.7032884"><ele>951.5</ele><time>2026-04-25T07:47:58.475Z</time></trkpt><trkpt lat="45.9306296" lon="11.703166"><ele>953.0</ele><time>2026-04-25T07:47:59.48Z</time></trkpt><trkpt lat="45.9305325" lon="11.7030249"><ele>954.5</ele><time>2026-04-25T07:48:00.499Z</time></trkpt><trkpt lat="45.9304432" lon="11.7029198"><ele>956.0</ele><time>2026-04-25T07:48:01.484Z</time></trkpt><trkpt lat="45.9303387" lon="11.7028668"><ele>956.0</ele><time>2026-04-25T07:48:02.473Z</time></trkpt><trkpt lat="45.9302361" lon="11.7028797"><ele>955.9999999999999</ele><time>2026-04-25T07:48:03.495Z</time></trkpt><trkpt lat="45.9301551" lon="11.7029377"><ele>955.9999999999999</ele><time>2026-04-25T07:48:04.48Z</time></trkpt><trkpt lat="45.930087" lon="11.7030302"><ele>956.0</ele><time>2026-04-25T07:48:05.48Z</time></trkpt><trkpt lat="45.9300322" lon="11.7031439"><ele>956.0</ele><time>2026-04-25T07:48:06.473Z</time></trkpt><trkpt lat="45.9299861" lon="11.7032732"><ele>955.5</ele><time>2026-04-25T07:48:07.481Z</time></trkpt><trkpt lat="45.9299379" lon="11.7034098"><ele>955.0</ele><time>2026-04-25T07:48:08.479Z</time></trkpt><trkpt lat="45.9298818" lon="11.703552"><ele>954.5</ele><time>2026-04-25T07:48:09.489Z</time></trkpt><trkpt lat="45.9298211" lon="11.7036976"><ele>954.0</ele><time>2026-04-25T07:48:10.492Z</time></trkpt><trkpt lat="45.9296531" lon="11.7039358"><ele>954.5</ele><time>2026-04-25T07:48:12.484Z</time></trkpt><trkpt lat="45.9295421" lon="11.7040066"><ele>955.0</ele><time>2026-04-25T07:48:13.506Z</time></trkpt><trkpt lat="45.9294203" lon="11.7040357"><ele>955.5</ele><time>2026-04-25T07:48:14.491Z</time></trkpt><trkpt lat="45.9292954" lon="11.7040135"><ele>956.0</ele><time>2026-04-25T07:48:15.48Z</time></trkpt><trkpt lat="45.9291769" lon="11.7039444"><ele>956.0</ele><time>2026-04-25T07:48:16.487Z</time></trkpt><trkpt lat="45.9290772" lon="11.7038321"><ele>956.0</ele><time>2026-04-25T07:48:17.492Z</time></trkpt><trkpt lat="45.9290025" lon="11.7036791"><ele>956.0</ele><time>2026-04-25T07:48:18.493Z</time></trkpt><trkpt lat="45.9289594" lon="11.7035023"><ele>956.0</ele><time>2026-04-25T07:48:19.487Z</time></trkpt><trkpt lat="45.9289468" lon="11.7033398"><ele>957.1666666666667</ele><time>2026-04-25T07:48:20.493Z</time></trkpt><trkpt lat="45.9289526" lon="11.7032054"><ele>958.3333333333334</ele><time>2026-04-25T07:48:21.488Z</time></trkpt><trkpt lat="45.9289673" lon="11.7031142"><ele>959.5</ele><time>2026-04-25T07:48:22.489Z</time></trkpt><trkpt lat="45.9289954" lon="11.7030196"><ele>960.6666666666667</ele><time>2026-04-25T07:48:24.499Z</time></trkpt><trkpt lat="45.9290203" lon="11.7029046"><ele>961.8333333333334</ele><time>2026-04-25T07:48:27.494Z</time></trkpt><trkpt lat="45.928991" lon="11.7027752"><ele>963.0</ele><time>2026-04-25T07:48:29.488Z</time></trkpt><trkpt lat="45.9289859" lon="11.7026176"><ele>965.0</ele><time>2026-04-25T07:48:31.488Z</time></trkpt><trkpt lat="45.9290151" lon="11.7024297"><ele>967.0</ele><time>2026-04-25T07:48:33.486Z</time></trkpt><trkpt lat="45.9290345" lon="11.7023228"><ele>969.0</ele><time>2026-04-25T07:48:34.494Z</time></trkpt><trkpt lat="45.9290548" lon="11.7022098"><ele>971.0</ele><time>2026-04-25T07:48:35.493Z</time></trkpt><trkpt lat="45.9290784" lon="11.7020947"><ele>973.0</ele><time>2026-04-25T07:48:36.498Z</time></trkpt><trkpt lat="45.9291013" lon="11.7019773"><ele>974.1666666666666</ele><time>2026-04-25T07:48:37.48Z</time></trkpt><trkpt lat="45.9291205" lon="11.7018551"><ele>975.3333333333333</ele><time>2026-04-25T07:48:38.502Z</time></trkpt><trkpt lat="45.9291312" lon="11.7017284"><ele>976.5</ele><time>2026-04-25T07:48:39.499Z</time></trkpt><trkpt lat="45.9291319" lon="11.7015989"><ele>977.6666666666667</ele><time>2026-04-25T07:48:40.488Z</time></trkpt><trkpt lat="45.9291257" lon="11.7014768"><ele>978.8333333333334</ele><time>2026-04-25T07:48:41.5Z</time></trkpt><trkpt lat="45.9291166" lon="11.7013643"><ele>980.0</ele><time>2026-04-25T07:48:42.483Z</time></trkpt><trkpt lat="45.9291085" lon="11.7012582"><ele>980.0</ele><time>2026-04-25T07:48:43.484Z</time></trkpt><trkpt lat="45.9291041" lon="11.7011569"><ele>980.0</ele><time>2026-04-25T07:48:44.491Z</time></trkpt><trkpt lat="45.9291021" lon="11.7010558"><ele>980.0</ele><time>2026-04-25T07:48:45.491Z</time></trkpt><trkpt lat="45.9291007" lon="11.7009524"><ele>980.0</ele><time>2026-04-25T07:48:46.478Z</time></trkpt><trkpt lat="45.9291021" lon="11.7008486"><ele>980.0</ele><time>2026-04-25T07:48:47.519Z</time></trkpt><trkpt lat="45.9291053" lon="11.7007449"><ele>980.0</ele><time>2026-04-25T07:48:48.488Z</time></trkpt><trkpt lat="45.9291083" lon="11.7006448"><ele>980.0</ele><time>2026-04-25T07:48:49.489Z</time></trkpt><trkpt lat="45.9291118" lon="11.7005432"><ele>982.0</ele><time>2026-04-25T07:48:50.516Z</time></trkpt><trkpt lat="45.9291121" lon="11.7004393"><ele>984.0</ele><time>2026-04-25T07:48:51.498Z</time></trkpt><trkpt lat="45.9291114" lon="11.7003263"><ele>986.0</ele><time>2026-04-25T07:48:52.497Z</time></trkpt><trkpt lat="45.9291098" lon="11.7000868"><ele>988.0</ele><time>2026-04-25T07:48:54.498Z</time></trkpt><trkpt lat="45.929109" lon="11.6999484"><ele>990.0</ele><time>2026-04-25T07:48:55.487Z</time></trkpt><trkpt lat="45.9291083" lon="11.6998057"><ele>992.2</ele><time>2026-04-25T07:48:56.501Z</time></trkpt><trkpt lat="45.9291088" lon="11.6996596"><ele>994.4</ele><time>2026-04-25T07:48:57.489Z</time></trkpt><trkpt lat="45.9291116" lon="11.6995118"><ele>996.5999999999999</ele><time>2026-04-25T07:48:58.488Z</time></trkpt><trkpt lat="45.9291189" lon="11.6993672"><ele>998.8</ele><time>2026-04-25T07:48:59.51Z</time></trkpt><trkpt lat="45.9291306" lon="11.6992286"><ele>1001.0</ele><time>2026-04-25T07:49:00.499Z</time></trkpt><trkpt lat="45.9291493" lon="11.6990908"><ele>1002.8</ele><time>2026-04-25T07:49:01.501Z</time></trkpt><trkpt lat="45.9291766" lon="11.6989566"><ele>1004.5999999999999</ele><time>2026-04-25T07:49:02.486Z</time></trkpt><trkpt lat="45.929213" lon="11.6988295"><ele>1006.4</ele><time>2026-04-25T07:49:03.519Z</time></trkpt><trkpt lat="45.9292596" lon="11.6987092"><ele>1008.2</ele><time>2026-04-25T07:49:04.496Z</time></trkpt><trkpt lat="45.9293146" lon="11.6985921"><ele>1010.0</ele><time>2026-04-25T07:49:05.488Z</time></trkpt><trkpt lat="45.9293747" lon="11.6984755"><ele>1013.8</ele><time>2026-04-25T07:49:06.482Z</time></trkpt><trkpt lat="45.9294405" lon="11.6983594"><ele>1017.6</ele><time>2026-04-25T07:49:07.497Z</time></trkpt><trkpt lat="45.929512" lon="11.6982432"><ele>1021.4000000000001</ele><time>2026-04-25T07:49:08.487Z</time></trkpt><trkpt lat="45.929588" lon="11.6981266"><ele>1025.2</ele><time>2026-04-25T07:49:09.493Z</time></trkpt><trkpt lat="45.9296665" lon="11.6980064"><ele>1029.0</ele><time>2026-04-25T07:49:10.47Z</time></trkpt><trkpt lat="45.9297428" lon="11.6978811"><ele>1029.0</ele><time>2026-04-25T07:49:11.472Z</time></trkpt><trkpt lat="45.9298177" lon="11.6977595"><ele>1029.0</ele><time>2026-04-25T07:49:12.486Z</time></trkpt><trkpt lat="45.9298905" lon="11.6976318"><ele>1029.0</ele><time>2026-04-25T07:49:13.494Z</time></trkpt><trkpt lat="45.9300516" lon="11.6973907"><ele>1034.5</ele><time>2026-04-25T07:49:15.495Z</time></trkpt><trkpt lat="45.9301373" lon="11.6972619"><ele>1040.0</ele><time>2026-04-25T07:49:16.487Z</time></trkpt><trkpt lat="45.9302289" lon="11.6971355"><ele>1045.5</ele><time>2026-04-25T07:49:17.482Z</time></trkpt><trkpt lat="45.9303134" lon="11.6970192"><ele>1051.0</ele><time>2026-04-25T07:49:18.472Z</time></trkpt><trkpt lat="45.9303854" lon="11.696922"><ele>1052.3333333333333</ele><time>2026-04-25T07:49:19.486Z</time></trkpt><trkpt lat="45.9304385" lon="11.6968515"><ele>1053.6666666666665</ele><time>2026-04-25T07:49:20.477Z</time></trkpt><trkpt lat="45.930501" lon="11.6967683"><ele>1055.0</ele><time>2026-04-25T07:49:22.506Z</time></trkpt><trkpt lat="45.9305605" lon="11.6966858"><ele>1056.3333333333333</ele><time>2026-04-25T07:49:24.489Z</time></trkpt><trkpt lat="45.9306225" lon="11.6965823"><ele>1057.6666666666667</ele><time>2026-04-25T07:49:26.513Z</time></trkpt><trkpt lat="45.9306569" lon="11.6964812"><ele>1059.0</ele><time>2026-04-25T07:49:28.493Z</time></trkpt><trkpt lat="45.9306405" lon="11.6963313"><ele>1059.0</ele><time>2026-04-25T07:49:30.492Z</time></trkpt><trkpt lat="45.9306216" lon="11.6962218"><ele>1059.0</ele><time>2026-04-25T07:49:31.477Z</time></trkpt><trkpt lat="45.9306132" lon="11.6960761"><ele>1059.0</ele><time>2026-04-25T07:49:32.484Z</time></trkpt><trkpt lat="45.9306304" lon="11.6958993"><ele>1059.0</ele><time>2026-04-25T07:49:33.482Z</time></trkpt><trkpt lat="45.9306728" lon="11.6956808"><ele>1061.0</ele><time>2026-04-25T07:49:34.49Z</time></trkpt><trkpt lat="45.9307642" lon="11.6952576"><ele>1063.0</ele><time>2026-04-25T07:49:36.496Z</time></trkpt><trkpt lat="45.9308142" lon="11.6950569"><ele>1063.25</ele><time>2026-04-25T07:49:37.505Z</time></trkpt><trkpt lat="45.9308642" lon="11.6948808"><ele>1063.5</ele><time>2026-04-25T07:49:38.496Z</time></trkpt><trkpt lat="45.930918" lon="11.6947239"><ele>1063.75</ele><time>2026-04-25T07:49:39.496Z</time></trkpt><trkpt lat="45.9309765" lon="11.6945713"><ele>1064.0</ele><time>2026-04-25T07:49:40.504Z</time></trkpt><trkpt lat="45.9310635" lon="11.6944282"><ele>1066.5</ele><time>2026-04-25T07:49:41.491Z</time></trkpt><trkpt lat="45.931175" lon="11.6942945"><ele>1069.0</ele><time>2026-04-25T07:49:42.49Z</time></trkpt><trkpt lat="45.9312913" lon="11.6941687"><ele>1071.5</ele><time>2026-04-25T07:49:43.475Z</time></trkpt><trkpt lat="45.9314087" lon="11.6940366"><ele>1074.0</ele><time>2026-04-25T07:49:44.491Z</time></trkpt><trkpt lat="45.9315308" lon="11.6938904"><ele>1074.0</ele><time>2026-04-25T07:49:45.491Z</time></trkpt><trkpt lat="45.9316479" lon="11.6937259"><ele>1074.0</ele><time>2026-04-25T07:49:46.491Z</time></trkpt><trkpt lat="45.9317658" lon="11.6935493"><ele>1074.0</ele><time>2026-04-25T07:49:47.504Z</time></trkpt><trkpt lat="45.9318807" lon="11.6933604"><ele>1078.3333333333333</ele><time>2026-04-25T07:49:48.498Z</time></trkpt><trkpt lat="45.9319958" lon="11.6931578"><ele>1082.6666666666665</ele><time>2026-04-25T07:49:49.497Z</time></trkpt><trkpt lat="45.9320963" lon="11.6929452"><ele>1087.0</ele><time>2026-04-25T07:49:50.489Z</time></trkpt><trkpt lat="45.9321762" lon="11.6927249"><ele>1087.0</ele><time>2026-04-25T07:49:51.485Z</time></trkpt><trkpt lat="45.9322433" lon="11.6924911"><ele>1087.0</ele><time>2026-04-25T07:49:52.491Z</time></trkpt><trkpt lat="45.9323074" lon="11.6922624"><ele>1087.0</ele><time>2026-04-25T07:49:53.491Z</time></trkpt><trkpt lat="45.9323589" lon="11.6920131"><ele>1085.0</ele><time>2026-04-25T07:49:54.489Z</time></trkpt><trkpt lat="45.932408" lon="11.6917678"><ele>1083.0</ele><time>2026-04-25T07:49:55.478Z</time></trkpt><trkpt lat="45.9324755" lon="11.6912679"><ele>1082.0</ele><time>2026-04-25T07:49:57.486Z</time></trkpt><trkpt lat="45.9324912" lon="11.6909805"><ele>1081.0</ele><time>2026-04-25T07:49:58.498Z</time></trkpt><trkpt lat="45.9324897" lon="11.6906699"><ele>1080.0</ele><time>2026-04-25T07:49:59.487Z</time></trkpt><trkpt lat="45.9324849" lon="11.6903707"><ele>1081.3333333333333</ele><time>2026-04-25T07:50:00.486Z</time></trkpt><trkpt lat="45.9324822" lon="11.6900788"><ele>1082.6666666666665</ele><time>2026-04-25T07:50:01.499Z</time></trkpt><trkpt lat="45.9324755" lon="11.689808"><ele>1084.0</ele><time>2026-04-25T07:50:02.491Z</time></trkpt><trkpt lat="45.9324693" lon="11.689556"><ele>1087.0</ele><time>2026-04-25T07:50:03.486Z</time></trkpt><trkpt lat="45.9324673" lon="11.6893107"><ele>1090.0</ele><time>2026-04-25T07:50:04.485Z</time></trkpt><trkpt lat="45.932472" lon="11.6890739"><ele>1093.0</ele><time>2026-04-25T07:50:05.494Z</time></trkpt><trkpt lat="45.9324924" lon="11.6888485"><ele>1093.0</ele><time>2026-04-25T07:50:06.485Z</time></trkpt><trkpt lat="45.9325361" lon="11.6886206"><ele>1093.0</ele><time>2026-04-25T07:50:07.489Z</time></trkpt><trkpt lat="45.9325856" lon="11.6883873"><ele>1093.0</ele><time>2026-04-25T07:50:08.503Z</time></trkpt><trkpt lat="45.9326231" lon="11.688156"><ele>1098.5</ele><time>2026-04-25T07:50:09.49Z</time></trkpt><trkpt lat="45.9326468" lon="11.6879369"><ele>1104.0</ele><time>2026-04-25T07:50:10.493Z</time></trkpt><trkpt lat="45.9326634" lon="11.6877396"><ele>1109.5</ele><time>2026-04-25T07:50:11.498Z</time></trkpt><trkpt lat="45.9326803" lon="11.6875573"><ele>1115.0</ele><time>2026-04-25T07:50:12.485Z</time></trkpt><trkpt lat="45.9326942" lon="11.6873871"><ele>1117.0</ele><time>2026-04-25T07:50:13.489Z</time></trkpt><trkpt lat="45.9327066" lon="11.6872364"><ele>1119.0</ele><time>2026-04-25T07:50:14.489Z</time></trkpt><trkpt lat="45.9327177" lon="11.6871118"><ele>1121.0</ele><time>2026-04-25T07:50:15.499Z</time></trkpt><trkpt lat="45.9327272" lon="11.6870041"><ele>1123.0</ele><time>2026-04-25T07:50:16.504Z</time></trkpt><trkpt lat="45.9327896" lon="11.6867925"><ele>1125.0</ele><time>2026-04-25T07:50:19.501Z</time></trkpt><trkpt lat="45.9328485" lon="11.6868309"><ele>1125.0</ele><time>2026-04-25T07:50:21.507Z</time></trkpt><trkpt lat="45.9328542" lon="11.6869714"><ele>1125.0</ele><time>2026-04-25T07:50:23.487Z</time></trkpt><trkpt lat="45.9328444" lon="11.6871627"><ele>1125.0</ele><time>2026-04-25T07:50:25.473Z</time></trkpt><trkpt lat="45.9328446" lon="11.687289"><ele>1125.0</ele><time>2026-04-25T07:50:26.47Z</time></trkpt><trkpt lat="45.9328495" lon="11.6874245"><ele>1125.0</ele><time>2026-04-25T07:50:27.489Z</time></trkpt><trkpt lat="45.9328631" lon="11.6875634"><ele>1125.0</ele><time>2026-04-25T07:50:28.478Z</time></trkpt><trkpt lat="45.932885" lon="11.6877215"><ele>1125.0</ele><time>2026-04-25T07:50:29.497Z</time></trkpt><trkpt lat="45.9329191" lon="11.6878946"><ele>1125.0</ele><time>2026-04-25T07:50:30.485Z</time></trkpt><trkpt lat="45.9329623" lon="11.6880676"><ele>1125.0</ele><time>2026-04-25T07:50:31.478Z</time></trkpt><trkpt lat="45.9330147" lon="11.6882135"><ele>1123.0</ele><time>2026-04-25T07:50:32.513Z</time></trkpt><trkpt lat="45.9330791" lon="11.6883227"><ele>1121.0</ele><time>2026-04-25T07:50:33.483Z</time></trkpt><trkpt lat="45.9331548" lon="11.6883847"><ele>1119.0</ele><time>2026-04-25T07:50:34.497Z</time></trkpt><trkpt lat="45.9332407" lon="11.6883927"><ele>1117.0</ele><time>2026-04-25T07:50:35.491Z</time></trkpt><trkpt lat="45.9333376" lon="11.6883419"><ele>1115.0</ele><time>2026-04-25T07:50:36.49Z</time></trkpt><trkpt lat="45.9334371" lon="11.6882424"><ele>1111.6666666666667</ele><time>2026-04-25T07:50:37.488Z</time></trkpt><trkpt lat="45.9336489" lon="11.6879726"><ele>1108.3333333333333</ele><time>2026-04-25T07:50:39.517Z</time></trkpt><trkpt lat="45.9337632" lon="11.6878252"><ele>1105.0</ele><time>2026-04-25T07:50:40.492Z</time></trkpt><trkpt lat="45.9338869" lon="11.6876742"><ele>1108.3333333333333</ele><time>2026-04-25T07:50:41.485Z</time></trkpt><trkpt lat="45.9340213" lon="11.6875253"><ele>1111.6666666666667</ele><time>2026-04-25T07:50:42.506Z</time></trkpt><trkpt lat="45.9341661" lon="11.6873819"><ele>1115.0</ele><time>2026-04-25T07:50:43.501Z</time></trkpt><trkpt lat="45.9343191" lon="11.6872435"><ele>1115.0</ele><time>2026-04-25T07:50:44.473Z</time></trkpt><trkpt lat="45.9344752" lon="11.6871056"><ele>1115.0</ele><time>2026-04-25T07:50:45.483Z</time></trkpt><trkpt lat="45.9346326" lon="11.6869641"><ele>1115.0</ele><time>2026-04-25T07:50:46.491Z</time></trkpt><trkpt lat="45.9347863" lon="11.6868133"><ele>1118.0</ele><time>2026-04-25T07:50:47.51Z</time></trkpt><trkpt lat="45.9349373" lon="11.6866584"><ele>1121.0</ele><time>2026-04-25T07:50:48.483Z</time></trkpt><trkpt lat="45.9350867" lon="11.6865066"><ele>1124.0</ele><time>2026-04-25T07:50:49.493Z</time></trkpt><trkpt lat="45.9352319" lon="11.6863647"><ele>1124.0</ele><time>2026-04-25T07:50:50.488Z</time></trkpt><trkpt lat="45.9353778" lon="11.6862252"><ele>1124.0</ele><time>2026-04-25T07:50:51.487Z</time></trkpt><trkpt lat="45.9355213" lon="11.6860876"><ele>1124.0</ele><time>2026-04-25T07:50:52.499Z</time></trkpt><trkpt lat="45.9356638" lon="11.68595"><ele>1127.3333333333335</ele><time>2026-04-25T07:50:53.481Z</time></trkpt><trkpt lat="45.935801" lon="11.6857926"><ele>1130.6666666666667</ele><time>2026-04-25T07:50:54.5Z</time></trkpt><trkpt lat="45.935941" lon="11.6856176"><ele>1134.0</ele><time>2026-04-25T07:50:55.483Z</time></trkpt><trkpt lat="45.936081" lon="11.6854212"><ele>1140.6666666666667</ele><time>2026-04-25T07:50:56.492Z</time></trkpt><trkpt lat="45.9362084" lon="11.6852317"><ele>1147.3333333333335</ele><time>2026-04-25T07:50:57.486Z</time></trkpt><trkpt lat="45.9363215" lon="11.685053"><ele>1154.0</ele><time>2026-04-25T07:50:58.483Z</time></trkpt><trkpt lat="45.936535" lon="11.684779"><ele>1154.0</ele><time>2026-04-25T07:51:00.483Z</time></trkpt><trkpt lat="45.9366392" lon="11.6847053"><ele>1154.0</ele><time>2026-04-25T07:51:01.49Z</time></trkpt><trkpt lat="45.9367339" lon="11.6846928"><ele>1154.0</ele><time>2026-04-25T07:51:02.488Z</time></trkpt><trkpt lat="45.9368163" lon="11.6847357"><ele>1154.0</ele><time>2026-04-25T07:51:03.488Z</time></trkpt><trkpt lat="45.9369029" lon="11.6847914"><ele>1154.0</ele><time>2026-04-25T07:51:04.492Z</time></trkpt><trkpt lat="45.9369983" lon="11.6848107"><ele>1155.2</ele><time>2026-04-25T07:51:05.473Z</time></trkpt><trkpt lat="45.9370914" lon="11.6847774"><ele>1156.4</ele><time>2026-04-25T07:51:06.471Z</time></trkpt><trkpt lat="45.9371731" lon="11.6846923"><ele>1157.6</ele><time>2026-04-25T07:51:07.485Z</time></trkpt><trkpt lat="45.9372392" lon="11.6845584"><ele>1158.8</ele><time>2026-04-25T07:51:08.504Z</time></trkpt><trkpt lat="45.9372965" lon="11.6843873"><ele>1160.0</ele><time>2026-04-25T07:51:09.494Z</time></trkpt><trkpt lat="45.9373551" lon="11.6842083"><ele>1160.0</ele><time>2026-04-25T07:51:10.487Z</time></trkpt><trkpt lat="45.9374104" lon="11.6840156"><ele>1160.0</ele><time>2026-04-25T07:51:11.489Z</time></trkpt><trkpt lat="45.9374723" lon="11.6838158"><ele>1160.0</ele><time>2026-04-25T07:51:12.48Z</time></trkpt><trkpt lat="45.9375341" lon="11.6836084"><ele>1153.3333333333335</ele><time>2026-04-25T07:51:13.471Z</time></trkpt><trkpt lat="45.9375973" lon="11.683413"><ele>1146.6666666666667</ele><time>2026-04-25T07:51:14.491Z</time></trkpt><trkpt lat="45.9376471" lon="11.6831975"><ele>1140.0</ele><time>2026-04-25T07:51:15.492Z</time></trkpt><trkpt lat="45.9376886" lon="11.6829606"><ele>1143.3333333333333</ele><time>2026-04-25T07:51:16.484Z</time></trkpt><trkpt lat="45.9377268" lon="11.6827086"><ele>1146.6666666666665</ele><time>2026-04-25T07:51:17.482Z</time></trkpt><trkpt lat="45.9377643" lon="11.6824566"><ele>1150.0</ele><time>2026-04-25T07:51:18.494Z</time></trkpt><trkpt lat="45.9377964" lon="11.6822013"><ele>1153.5</ele><time>2026-04-25T07:51:19.503Z</time></trkpt><trkpt lat="45.9378612" lon="11.6816644"><ele>1157.0</ele><time>2026-04-25T07:51:21.491Z</time></trkpt><trkpt lat="45.9379021" lon="11.6813908"><ele>1157.0</ele><time>2026-04-25T07:51:22.484Z</time></trkpt><trkpt lat="45.937943" lon="11.6811418"><ele>1157.0</ele><time>2026-04-25T07:51:23.507Z</time></trkpt><trkpt lat="45.9379818" lon="11.6809165"><ele>1157.0</ele><time>2026-04-25T07:51:24.508Z</time></trkpt><trkpt lat="45.9380069" lon="11.6807116"><ele>1159.25</ele><time>2026-04-25T07:51:25.472Z</time></trkpt><trkpt lat="45.9380026" lon="11.6805197"><ele>1161.5</ele><time>2026-04-25T07:51:26.511Z</time></trkpt><trkpt lat="45.9379964" lon="11.680346"><ele>1163.75</ele><time>2026-04-25T07:51:27.491Z</time></trkpt><trkpt lat="45.9379836" lon="11.6801939"><ele>1166.0</ele><time>2026-04-25T07:51:28.504Z</time></trkpt><trkpt lat="45.9379958" lon="11.6800452"><ele>1169.25</ele><time>2026-04-25T07:51:29.497Z</time></trkpt><trkpt lat="45.9380291" lon="11.6798978"><ele>1172.5</ele><time>2026-04-25T07:51:30.489Z</time></trkpt><trkpt lat="45.9380795" lon="11.6797475"><ele>1175.75</ele><time>2026-04-25T07:51:31.481Z</time></trkpt><trkpt lat="45.9381271" lon="11.6795905"><ele>1179.0</ele><time>2026-04-25T07:51:32.472Z</time></trkpt><trkpt lat="45.938175" lon="11.6794117"><ele>1181.75</ele><time>2026-04-25T07:51:33.478Z</time></trkpt><trkpt lat="45.9382214" lon="11.6792351"><ele>1184.5</ele><time>2026-04-25T07:51:34.469Z</time></trkpt><trkpt lat="45.9382574" lon="11.6790518"><ele>1187.25</ele><time>2026-04-25T07:51:35.472Z</time></trkpt><trkpt lat="45.9382906" lon="11.678887"><ele>1190.0</ele><time>2026-04-25T07:51:36.467Z</time></trkpt><trkpt lat="45.9383018" lon="11.6787233"><ele>1191.0</ele><time>2026-04-25T07:51:37.467Z</time></trkpt><trkpt lat="45.9382852" lon="11.6785554"><ele>1192.0</ele><time>2026-04-25T07:51:38.473Z</time></trkpt><trkpt lat="45.9382449" lon="11.678375"><ele>1193.0</ele><time>2026-04-25T07:51:39.474Z</time></trkpt><trkpt lat="45.9382042" lon="11.6781755"><ele>1194.0</ele><time>2026-04-25T07:51:40.469Z</time></trkpt><trkpt lat="45.938145" lon="11.6777625"><ele>1195.0</ele><time>2026-04-25T07:51:42.489Z</time></trkpt><trkpt lat="45.9381489" lon="11.6775751"><ele>1196.0</ele><time>2026-04-25T07:51:43.477Z</time></trkpt><trkpt lat="45.9381773" lon="11.6774287"><ele>1197.0</ele><time>2026-04-25T07:51:44.491Z</time></trkpt><trkpt lat="45.9382246" lon="11.6773197"><ele>1198.0</ele><time>2026-04-25T07:51:45.477Z</time></trkpt><trkpt lat="45.9383031" lon="11.6772664"><ele>1199.0</ele><time>2026-04-25T07:51:46.476Z</time></trkpt><trkpt lat="45.9383954" lon="11.677269"><ele>1199.0</ele><time>2026-04-25T07:51:47.471Z</time></trkpt><trkpt lat="45.9385002" lon="11.6772852"><ele>1199.0</ele><time>2026-04-25T07:51:48.49Z</time></trkpt><trkpt lat="45.9386136" lon="11.6773395"><ele>1199.0</ele><time>2026-04-25T07:51:49.475Z</time></trkpt><trkpt lat="45.9387257" lon="11.6773367"><ele>1199.0</ele><time>2026-04-25T07:51:50.469Z</time></trkpt><trkpt lat="45.9388254" lon="11.6772818"><ele>1199.0</ele><time>2026-04-25T07:51:51.478Z</time></trkpt><trkpt lat="45.9389275" lon="11.6772021"><ele>1199.0</ele><time>2026-04-25T07:51:52.48Z</time></trkpt><trkpt lat="45.9390167" lon="11.6771133"><ele>1199.0</ele><time>2026-04-25T07:51:53.48Z</time></trkpt><trkpt lat="45.9391286" lon="11.6771187"><ele>1199.0</ele><time>2026-04-25T07:51:54.475Z</time></trkpt><trkpt lat="45.9392417" lon="11.6771739"><ele>1199.0</ele><time>2026-04-25T07:51:55.477Z</time></trkpt><trkpt lat="45.9393529" lon="11.6772176"><ele>1198.25</ele><time>2026-04-25T07:51:56.47Z</time></trkpt><trkpt lat="45.9394474" lon="11.677208"><ele>1197.5</ele><time>2026-04-25T07:51:57.488Z</time></trkpt><trkpt lat="45.9395442" lon="11.6771291"><ele>1196.75</ele><time>2026-04-25T07:51:58.491Z</time></trkpt><trkpt lat="45.9396395" lon="11.6770001"><ele>1196.0</ele><time>2026-04-25T07:51:59.498Z</time></trkpt><trkpt lat="45.9397349" lon="11.6768242"><ele>1202.3333333333335</ele><time>2026-04-25T07:52:00.503Z</time></trkpt><trkpt lat="45.9398294" lon="11.6766538"><ele>1208.6666666666667</ele><time>2026-04-25T07:52:01.473Z</time></trkpt><trkpt lat="45.9400149" lon="11.6764353"><ele>1215.0</ele><time>2026-04-25T07:52:03.474Z</time></trkpt><trkpt lat="45.940108" lon="11.6764307"><ele>1216.8</ele><time>2026-04-25T07:52:04.478Z</time></trkpt><trkpt lat="45.9401856" lon="11.6764694"><ele>1218.6</ele><time>2026-04-25T07:52:05.465Z</time></trkpt><trkpt lat="45.9402437" lon="11.6765647"><ele>1220.4</ele><time>2026-04-25T07:52:06.467Z</time></trkpt><trkpt lat="45.9402809" lon="11.6766959"><ele>1222.2</ele><time>2026-04-25T07:52:07.472Z</time></trkpt><trkpt lat="45.940318" lon="11.6768367"><ele>1224.0</ele><time>2026-04-25T07:52:08.489Z</time></trkpt><trkpt lat="45.9403718" lon="11.6769321"><ele>1219.5</ele><time>2026-04-25T07:52:09.519Z</time></trkpt><trkpt lat="45.940453" lon="11.6769877"><ele>1215.0</ele><time>2026-04-25T07:52:10.469Z</time></trkpt><trkpt lat="45.9405642" lon="11.6770182"><ele>1210.5</ele><time>2026-04-25T07:52:11.492Z</time></trkpt><trkpt lat="45.9406916" lon="11.677069"><ele>1206.0</ele><time>2026-04-25T07:52:12.476Z</time></trkpt><trkpt lat="45.9408382" lon="11.6771653"><ele>1210.3333333333333</ele><time>2026-04-25T07:52:13.475Z</time></trkpt><trkpt lat="45.9409955" lon="11.6772774"><ele>1214.6666666666665</ele><time>2026-04-25T07:52:14.484Z</time></trkpt><trkpt lat="45.9411268" lon="11.6773821"><ele>1219.0</ele><time>2026-04-25T07:52:15.497Z</time></trkpt><trkpt lat="45.941245" lon="11.6774786"><ele>1219.0</ele><time>2026-04-25T07:52:16.498Z</time></trkpt><trkpt lat="45.9413593" lon="11.6775554"><ele>1219.0</ele><time>2026-04-25T07:52:17.488Z</time></trkpt><trkpt lat="45.9414697" lon="11.6775997"><ele>1219.0</ele><time>2026-04-25T07:52:18.472Z</time></trkpt><trkpt lat="45.9415748" lon="11.6776013"><ele>1219.0</ele><time>2026-04-25T07:52:19.495Z</time></trkpt><trkpt lat="45.9416712" lon="11.6775589"><ele>1219.0</ele><time>2026-04-25T07:52:20.508Z</time></trkpt><trkpt lat="45.94176" lon="11.6774806"><ele>1221.4</ele><time>2026-04-25T07:52:21.51Z</time></trkpt><trkpt lat="45.9418416" lon="11.6773986"><ele>1223.8000000000002</ele><time>2026-04-25T07:52:22.483Z</time></trkpt><trkpt lat="45.9420122" lon="11.6773597"><ele>1226.1999999999998</ele><time>2026-04-25T07:52:24.49Z</time></trkpt><trkpt lat="45.9420882" lon="11.6774153"><ele>1228.6</ele><time>2026-04-25T07:52:25.474Z</time></trkpt><trkpt lat="45.9421401" lon="11.6775153"><ele>1231.0</ele><time>2026-04-25T07:52:26.49Z</time></trkpt><trkpt lat="45.9421768" lon="11.6776477"><ele>1228.8</ele><time>2026-04-25T07:52:27.497Z</time></trkpt><trkpt lat="45.9422258" lon="11.6777812"><ele>1226.6</ele><time>2026-04-25T07:52:28.488Z</time></trkpt><trkpt lat="45.9423001" lon="11.6778915"><ele>1224.4</ele><time>2026-04-25T07:52:29.492Z</time></trkpt><trkpt lat="45.9423963" lon="11.6779726"><ele>1222.2</ele><time>2026-04-25T07:52:30.498Z</time></trkpt><trkpt lat="45.9425018" lon="11.6780301"><ele>1220.0</ele><time>2026-04-25T07:52:31.486Z</time></trkpt><trkpt lat="45.9426126" lon="11.6780747"><ele>1226.25</ele><time>2026-04-25T07:52:32.482Z</time></trkpt><trkpt lat="45.9427309" lon="11.6781116"><ele>1232.5</ele><time>2026-04-25T07:52:33.49Z</time></trkpt><trkpt lat="45.94285" lon="11.6781515"><ele>1238.75</ele><time>2026-04-25T07:52:34.467Z</time></trkpt><trkpt lat="45.9429566" lon="11.6782244"><ele>1245.0</ele><time>2026-04-25T07:52:35.473Z</time></trkpt><trkpt lat="45.9430392" lon="11.6783437"><ele>1245.0</ele><time>2026-04-25T07:52:36.489Z</time></trkpt><trkpt lat="45.9431053" lon="11.6784982"><ele>1245.0</ele><time>2026-04-25T07:52:37.496Z</time></trkpt><trkpt lat="45.9431657" lon="11.6786724"><ele>1245.0</ele><time>2026-04-25T07:52:38.491Z</time></trkpt><trkpt lat="45.9432254" lon="11.6788488"><ele>1245.0</ele><time>2026-04-25T07:52:39.485Z</time></trkpt><trkpt lat="45.9432824" lon="11.6790262"><ele>1242.75</ele><time>2026-04-25T07:52:40.486Z</time></trkpt><trkpt lat="45.9433475" lon="11.6791859"><ele>1240.5</ele><time>2026-04-25T07:52:41.469Z</time></trkpt><trkpt lat="45.9434184" lon="11.679299"><ele>1238.25</ele><time>2026-04-25T07:52:42.495Z</time></trkpt><trkpt lat="45.9435013" lon="11.6793802"><ele>1236.0</ele><time>2026-04-25T07:52:43.491Z</time></trkpt><trkpt lat="45.9436928" lon="11.6794121"><ele>1240.0</ele><time>2026-04-25T07:52:45.486Z</time></trkpt><trkpt lat="45.9437829" lon="11.6794325"><ele>1244.0</ele><time>2026-04-25T07:52:46.478Z</time></trkpt><trkpt lat="45.9438447" lon="11.679492"><ele>1248.0</ele><time>2026-04-25T07:52:47.48Z</time></trkpt><trkpt lat="45.9438738" lon="11.6795867"><ele>1252.0</ele><time>2026-04-25T07:52:48.479Z</time></trkpt><trkpt lat="45.9438591" lon="11.6796986"><ele>1256.0</ele><time>2026-04-25T07:52:49.466Z</time></trkpt><trkpt lat="45.9438169" lon="11.6798366"><ele>1260.0</ele><time>2026-04-25T07:52:50.483Z</time></trkpt><trkpt lat="45.9437819" lon="11.6799976"><ele>1260.0</ele><time>2026-04-25T07:52:51.486Z</time></trkpt><trkpt lat="45.9437659" lon="11.680193"><ele>1260.0</ele><time>2026-04-25T07:52:52.478Z</time></trkpt><trkpt lat="45.9437678" lon="11.6804046"><ele>1260.0</ele><time>2026-04-25T07:52:53.476Z</time></trkpt><trkpt lat="45.943789" lon="11.6805935"><ele>1260.0</ele><time>2026-04-25T07:52:54.468Z</time></trkpt><trkpt lat="45.9438375" lon="11.6807853"><ele>1259.25</ele><time>2026-04-25T07:52:55.478Z</time></trkpt><trkpt lat="45.9439038" lon="11.6809736"><ele>1258.5</ele><time>2026-04-25T07:52:56.48Z</time></trkpt><trkpt lat="45.9439889" lon="11.6811544"><ele>1257.75</ele><time>2026-04-25T07:52:57.481Z</time></trkpt><trkpt lat="45.9440891" lon="11.6813073"><ele>1257.0</ele><time>2026-04-25T07:52:58.492Z</time></trkpt><trkpt lat="45.9442011" lon="11.6814179"><ele>1256.25</ele><time>2026-04-25T07:52:59.49Z</time></trkpt><trkpt lat="45.9443208" lon="11.6814916"><ele>1255.5</ele><time>2026-04-25T07:53:00.481Z</time></trkpt><trkpt lat="45.94445" lon="11.6815324"><ele>1254.75</ele><time>2026-04-25T07:53:01.47Z</time></trkpt><trkpt lat="45.9445924" lon="11.6815417"><ele>1254.0</ele><time>2026-04-25T07:53:02.493Z</time></trkpt><trkpt lat="45.9447405" lon="11.6815423"><ele>1254.0</ele><time>2026-04-25T07:53:03.493Z</time></trkpt><trkpt lat="45.9448731" lon="11.6815548"><ele>1254.0</ele><time>2026-04-25T07:53:04.482Z</time></trkpt><trkpt lat="45.94509" lon="11.6815442"><ele>1254.0</ele><time>2026-04-25T07:53:06.501Z</time></trkpt><trkpt lat="45.945184" lon="11.6814524"><ele>1254.25</ele><time>2026-04-25T07:53:07.489Z</time></trkpt><trkpt lat="45.9452617" lon="11.6813342"><ele>1254.5</ele><time>2026-04-25T07:53:08.474Z</time></trkpt><trkpt lat="45.9453531" lon="11.6811851"><ele>1254.75</ele><time>2026-04-25T07:53:09.5Z</time></trkpt><trkpt lat="45.94545" lon="11.6810252"><ele>1255.0</ele><time>2026-04-25T07:53:10.498Z</time></trkpt><trkpt lat="45.945535" lon="11.6808847"><ele>1257.0</ele><time>2026-04-25T07:53:11.49Z</time></trkpt><trkpt lat="45.9456216" lon="11.6807773"><ele>1259.0</ele><time>2026-04-25T07:53:12.496Z</time></trkpt><trkpt lat="45.9457027" lon="11.6807358"><ele>1261.0</ele><time>2026-04-25T07:53:13.483Z</time></trkpt><trkpt lat="45.9457766" lon="11.6807177"><ele>1263.0</ele><time>2026-04-25T07:53:14.478Z</time></trkpt><trkpt lat="45.945818" lon="11.6808154"><ele>1265.0</ele><time>2026-04-25T07:53:15.491Z</time></trkpt><trkpt lat="45.9458655" lon="11.6809142"><ele>1267.0</ele><time>2026-04-25T07:53:16.494Z</time></trkpt><trkpt lat="45.9459241" lon="11.6810193"><ele>1267.1666666666665</ele><time>2026-04-25T07:53:17.492Z</time></trkpt><trkpt lat="45.9459839" lon="11.6810966"><ele>1267.3333333333333</ele><time>2026-04-25T07:53:18.491Z</time></trkpt><trkpt lat="45.9460833" lon="11.6811107"><ele>1267.5</ele><time>2026-04-25T07:53:20.48Z</time></trkpt><trkpt lat="45.9460997" lon="11.6810214"><ele>1267.6666666666667</ele><time>2026-04-25T07:53:22.491Z</time></trkpt><trkpt lat="45.9460512" lon="11.6809453"><ele>1267.8333333333335</ele><time>2026-04-25T07:53:24.48Z</time></trkpt><trkpt lat="45.9459979" lon="11.6808159"><ele>1268.0</ele><time>2026-04-25T07:53:28.467Z</time></trkpt><trkpt lat="45.9459072" lon="11.6804849"><ele>1268.0</ele><time>2026-04-25T07:55:24.466Z</time></trkpt><trkpt lat="45.9458953" lon="11.6803875"><ele>1268.0</ele><time>2026-04-25T07:55:25.482Z</time></trkpt><trkpt lat="45.9458702" lon="11.680283"><ele>1268.0</ele><time>2026-04-25T07:55:26.478Z</time></trkpt><trkpt lat="45.9458216" lon="11.6801934"><ele>1268.0</ele><time>2026-04-25T07:55:27.489Z</time></trkpt><trkpt lat="45.9457611" lon="11.6801514"><ele>1268.0</ele><time>2026-04-25T07:55:28.481Z</time></trkpt><trkpt lat="45.9456884" lon="11.6801541"><ele>1268.0</ele><time>2026-04-25T07:55:29.477Z</time></trkpt><trkpt lat="45.9456044" lon="11.6801857"><ele>1267.8333333333335</ele><time>2026-04-25T07:55:30.474Z</time></trkpt><trkpt lat="45.9455174" lon="11.6802258"><ele>1267.6666666666667</ele><time>2026-04-25T07:55:31.477Z</time></trkpt><trkpt lat="45.945426" lon="11.6802556"><ele>1267.5</ele><time>2026-04-25T07:55:32.492Z</time></trkpt><trkpt lat="45.9453421" lon="11.6802696"><ele>1267.3333333333333</ele><time>2026-04-25T07:55:33.479Z</time></trkpt><trkpt lat="45.9452673" lon="11.6802712"><ele>1267.1666666666665</ele><time>2026-04-25T07:55:34.479Z</time></trkpt><trkpt lat="45.9451985" lon="11.6802579"><ele>1267.0</ele><time>2026-04-25T07:55:35.495Z</time></trkpt><trkpt lat="45.945131" lon="11.6802427"><ele>1268.8333333333333</ele><time>2026-04-25T07:55:36.47Z</time></trkpt><trkpt lat="45.9450674" lon="11.6801897"><ele>1270.6666666666665</ele><time>2026-04-25T07:55:37.486Z</time></trkpt><trkpt lat="45.9450033" lon="11.6801333"><ele>1272.5</ele><time>2026-04-25T07:55:38.484Z</time></trkpt><trkpt lat="45.9449651" lon="11.6800525"><ele>1274.3333333333333</ele><time>2026-04-25T07:55:39.471Z</time></trkpt><trkpt lat="45.9449444" lon="11.6799616"><ele>1276.1666666666667</ele><time>2026-04-25T07:55:40.475Z</time></trkpt><trkpt lat="45.9449326" lon="11.6798509"><ele>1278.0</ele><time>2026-04-25T07:55:41.477Z</time></trkpt><trkpt lat="45.944923" lon="11.6797228"><ele>1278.0</ele><time>2026-04-25T07:55:42.467Z</time></trkpt><trkpt lat="45.9449278" lon="11.6795663"><ele>1278.0</ele><time>2026-04-25T07:55:43.479Z</time></trkpt><trkpt lat="45.9449688" lon="11.6792677"><ele>1278.0</ele><time>2026-04-25T07:55:45.481Z</time></trkpt><trkpt lat="45.9449925" lon="11.6791299"><ele>1278.0</ele><time>2026-04-25T07:55:46.477Z</time></trkpt><trkpt lat="45.9450144" lon="11.6790008"><ele>1278.8333333333333</ele><time>2026-04-25T07:55:47.465Z</time></trkpt><trkpt lat="45.9450367" lon="11.6788794"><ele>1279.6666666666667</ele><time>2026-04-25T07:55:48.48Z</time></trkpt><trkpt lat="45.9450657" lon="11.6787748"><ele>1280.5</ele><time>2026-04-25T07:55:49.482Z</time></trkpt><trkpt lat="45.9450968" lon="11.67867"><ele>1281.3333333333335</ele><time>2026-04-25T07:55:50.483Z</time></trkpt><trkpt lat="45.9451357" lon="11.6785674"><ele>1282.1666666666667</ele><time>2026-04-25T07:55:51.495Z</time></trkpt><trkpt lat="45.9451709" lon="11.6784657"><ele>1283.0</ele><time>2026-04-25T07:55:52.494Z</time></trkpt><trkpt lat="45.9452054" lon="11.6783649"><ele>1286.6666666666667</ele><time>2026-04-25T07:55:53.474Z</time></trkpt><trkpt lat="45.9452117" lon="11.6782446"><ele>1290.3333333333335</ele><time>2026-04-25T07:55:54.481Z</time></trkpt><trkpt lat="45.9452008" lon="11.6781124"><ele>1294.0</ele><time>2026-04-25T07:55:55.477Z</time></trkpt><trkpt lat="45.9451774" lon="11.6779949"><ele>1297.6666666666667</ele><time>2026-04-25T07:55:56.475Z</time></trkpt><trkpt lat="45.9451594" lon="11.6778906"><ele>1301.3333333333333</ele><time>2026-04-25T07:55:57.471Z</time></trkpt><trkpt lat="45.9451515" lon="11.677795"><ele>1305.0</ele><time>2026-04-25T07:55:58.482Z</time></trkpt><trkpt lat="45.9451519" lon="11.6776966"><ele>1304.0</ele><time>2026-04-25T07:55:59.478Z</time></trkpt><trkpt lat="45.9451542" lon="11.6775906"><ele>1303.0</ele><time>2026-04-25T07:56:00.466Z</time></trkpt><trkpt lat="45.9451491" lon="11.6774846"><ele>1302.0</ele><time>2026-04-25T07:56:01.472Z</time></trkpt><trkpt lat="45.945132" lon="11.6773847"><ele>1301.0</ele><time>2026-04-25T07:56:02.476Z</time></trkpt><trkpt lat="45.9450609" lon="11.6772425"><ele>1300.0</ele><time>2026-04-25T07:56:04.503Z</time></trkpt><trkpt lat="45.9449023" lon="11.6772652"><ele>1300.0</ele><time>2026-04-25T07:56:06.477Z</time></trkpt><trkpt lat="45.9448154" lon="11.6772891"><ele>1300.0</ele><time>2026-04-25T07:56:07.483Z</time></trkpt><trkpt lat="45.9447233" lon="11.6772844"><ele>1300.0</ele><time>2026-04-25T07:56:08.478Z</time></trkpt><trkpt lat="45.9446303" lon="11.6772559"><ele>1300.0</ele><time>2026-04-25T07:56:09.483Z</time></trkpt><trkpt lat="45.9445483" lon="11.6772055"><ele>1300.0</ele><time>2026-04-25T07:56:10.476Z</time></trkpt><trkpt lat="45.9444723" lon="11.677131"><ele>1300.0</ele><time>2026-04-25T07:56:11.474Z</time></trkpt><trkpt lat="45.9444049" lon="11.6770444"><ele>1300.0</ele><time>2026-04-25T07:56:12.485Z</time></trkpt><trkpt lat="45.9443497" lon="11.6769414"><ele>1300.0</ele><time>2026-04-25T07:56:13.469Z</time></trkpt><trkpt lat="45.944308" lon="11.6768235"><ele>1300.0</ele><time>2026-04-25T07:56:14.483Z</time></trkpt><trkpt lat="45.9442837" lon="11.6766959"><ele>1300.0</ele><time>2026-04-25T07:56:15.484Z</time></trkpt><trkpt lat="45.9442608" lon="11.6765711"><ele>1303.6</ele><time>2026-04-25T07:56:16.474Z</time></trkpt><trkpt lat="45.9442498" lon="11.6764321"><ele>1307.2</ele><time>2026-04-25T07:56:17.473Z</time></trkpt><trkpt lat="45.9442424" lon="11.67628"><ele>1310.8000000000002</ele><time>2026-04-25T07:56:18.471Z</time></trkpt><trkpt lat="45.9442351" lon="11.6761447"><ele>1314.4</ele><time>2026-04-25T07:56:19.479Z</time></trkpt><trkpt lat="45.9442285" lon="11.6760137"><ele>1318.0</ele><time>2026-04-25T07:56:20.48Z</time></trkpt><trkpt lat="45.94422" lon="11.6758812"><ele>1320.6000000000001</ele><time>2026-04-25T07:56:21.479Z</time></trkpt><trkpt lat="45.9442182" lon="11.6757504"><ele>1323.2</ele><time>2026-04-25T07:56:22.48Z</time></trkpt><trkpt lat="45.9442209" lon="11.675632"><ele>1325.8</ele><time>2026-04-25T07:56:23.477Z</time></trkpt><trkpt lat="45.9442253" lon="11.6755135"><ele>1328.4</ele><time>2026-04-25T07:56:24.484Z</time></trkpt><trkpt lat="45.9442291" lon="11.6754009"><ele>1331.0</ele><time>2026-04-25T07:56:25.47Z</time></trkpt><trkpt lat="45.9442366" lon="11.6751431"><ele>1331.6</ele><time>2026-04-25T07:56:27.471Z</time></trkpt><trkpt lat="45.9442415" lon="11.6749935"><ele>1332.1999999999998</ele><time>2026-04-25T07:56:28.488Z</time></trkpt><trkpt lat="45.9442391" lon="11.6748285"><ele>1332.8000000000002</ele><time>2026-04-25T07:56:29.495Z</time></trkpt><trkpt lat="45.9442264" lon="11.6746713"><ele>1333.4</ele><time>2026-04-25T07:56:30.485Z</time></trkpt><trkpt lat="45.9442095" lon="11.6745147"><ele>1334.0</ele><time>2026-04-25T07:56:31.475Z</time></trkpt><trkpt lat="45.9441797" lon="11.6743703"><ele>1334.0</ele><time>2026-04-25T07:56:32.474Z</time></trkpt><trkpt lat="45.9441318" lon="11.6742318"><ele>1334.0</ele><time>2026-04-25T07:56:33.477Z</time></trkpt><trkpt lat="45.9440694" lon="11.6741"><ele>1334.0</ele><time>2026-04-25T07:56:34.483Z</time></trkpt><trkpt lat="45.9439996" lon="11.6739877"><ele>1334.0</ele><time>2026-04-25T07:56:35.472Z</time></trkpt><trkpt lat="45.943921" lon="11.6738935"><ele>1334.0</ele><time>2026-04-25T07:56:36.478Z</time></trkpt><trkpt lat="45.9438327" lon="11.6738197"><ele>1334.0</ele><time>2026-04-25T07:56:37.482Z</time></trkpt><trkpt lat="45.9437419" lon="11.6737683"><ele>1334.0</ele><time>2026-04-25T07:56:38.478Z</time></trkpt><trkpt lat="45.943657" lon="11.6737276"><ele>1334.0</ele><time>2026-04-25T07:56:39.48Z</time></trkpt><trkpt lat="45.9435758" lon="11.6736849"><ele>1334.0</ele><time>2026-04-25T07:56:40.466Z</time></trkpt><trkpt lat="45.9435027" lon="11.6736318"><ele>1334.0</ele><time>2026-04-25T07:56:41.471Z</time></trkpt><trkpt lat="45.9434379" lon="11.6735644"><ele>1334.0</ele><time>2026-04-25T07:56:42.475Z</time></trkpt><trkpt lat="45.9433805" lon="11.6734793"><ele>1335.0</ele><time>2026-04-25T07:56:43.495Z</time></trkpt><trkpt lat="45.9433267" lon="11.6733907"><ele>1336.0</ele><time>2026-04-25T07:56:44.487Z</time></trkpt><trkpt lat="45.9432729" lon="11.6733124"><ele>1337.0</ele><time>2026-04-25T07:56:45.495Z</time></trkpt><trkpt lat="45.9432164" lon="11.6732668"><ele>1338.0</ele><time>2026-04-25T07:56:46.484Z</time></trkpt><trkpt lat="45.9430604" lon="11.6732768"><ele>1339.0</ele><time>2026-04-25T07:56:48.468Z</time></trkpt><trkpt lat="45.9429647" lon="11.6732966"><ele>1339.0</ele><time>2026-04-25T07:56:49.492Z</time></trkpt><trkpt lat="45.942868" lon="11.6733078"><ele>1339.0</ele><time>2026-04-25T07:56:50.505Z</time></trkpt><trkpt lat="45.9427739" lon="11.6733024"><ele>1339.0</ele><time>2026-04-25T07:56:51.487Z</time></trkpt><trkpt lat="45.9426784" lon="11.6732819"><ele>1339.0</ele><time>2026-04-25T07:56:52.481Z</time></trkpt><trkpt lat="45.9425816" lon="11.6732602"><ele>1339.0</ele><time>2026-04-25T07:56:53.468Z</time></trkpt><trkpt lat="45.942483" lon="11.6732489"><ele>1339.3333333333333</ele><time>2026-04-25T07:56:54.49Z</time></trkpt><trkpt lat="45.9423934" lon="11.6732459"><ele>1339.6666666666665</ele><time>2026-04-25T07:56:55.483Z</time></trkpt><trkpt lat="45.9423096" lon="11.6732275"><ele>1340.0</ele><time>2026-04-25T07:56:56.489Z</time></trkpt><trkpt lat="45.942229" lon="11.6731866"><ele>1340.3333333333333</ele><time>2026-04-25T07:56:57.494Z</time></trkpt><trkpt lat="45.9421535" lon="11.6731355"><ele>1340.6666666666667</ele><time>2026-04-25T07:56:58.482Z</time></trkpt><trkpt lat="45.9420856" lon="11.6730755"><ele>1341.0</ele><time>2026-04-25T07:56:59.477Z</time></trkpt><trkpt lat="45.9420258" lon="11.6730004"><ele>1341.0</ele><time>2026-04-25T07:57:00.479Z</time></trkpt><trkpt lat="45.9419746" lon="11.6729082"><ele>1341.0</ele><time>2026-04-25T07:57:01.477Z</time></trkpt><trkpt lat="45.9419311" lon="11.672802"><ele>1341.0</ele><time>2026-04-25T07:57:02.48Z</time></trkpt><trkpt lat="45.941899" lon="11.6726935"><ele>1341.0</ele><time>2026-04-25T07:57:03.477Z</time></trkpt><trkpt lat="45.9418852" lon="11.6725801"><ele>1341.0</ele><time>2026-04-25T07:57:04.487Z</time></trkpt><trkpt lat="45.9418832" lon="11.6724639"><ele>1341.0</ele><time>2026-04-25T07:57:05.483Z</time></trkpt><trkpt lat="45.9418793" lon="11.6723625"><ele>1344.0</ele><time>2026-04-25T07:57:06.471Z</time></trkpt><trkpt lat="45.9418234" lon="11.6722294"><ele>1347.0</ele><time>2026-04-25T07:57:08.462Z</time></trkpt><trkpt lat="45.9416407" lon="11.6722423"><ele>1350.0</ele><time>2026-04-25T07:57:11.472Z</time></trkpt><trkpt lat="45.9415481" lon="11.6723104"><ele>1353.0</ele><time>2026-04-25T07:57:12.463Z</time></trkpt><trkpt lat="45.9414524" lon="11.6723829"><ele>1353.0</ele><time>2026-04-25T07:57:13.474Z</time></trkpt><trkpt lat="45.9413661" lon="11.6724335"><ele>1353.0</ele><time>2026-04-25T07:57:14.468Z</time></trkpt><trkpt lat="45.9412957" lon="11.6724738"><ele>1353.0</ele><time>2026-04-25T07:57:15.464Z</time></trkpt><trkpt lat="45.9412318" lon="11.6724808"><ele>1353.0</ele><time>2026-04-25T07:57:16.464Z</time></trkpt><trkpt lat="45.9411657" lon="11.6724646"><ele>1353.0</ele><time>2026-04-25T07:57:17.467Z</time></trkpt><trkpt lat="45.9411053" lon="11.6724283"><ele>1353.0</ele><time>2026-04-25T07:57:18.469Z</time></trkpt><trkpt lat="45.941048" lon="11.6723735"><ele>1353.0</ele><time>2026-04-25T07:57:19.492Z</time></trkpt><trkpt lat="45.9410018" lon="11.6722953"><ele>1353.0</ele><time>2026-04-25T07:57:20.472Z</time></trkpt><trkpt lat="45.9409645" lon="11.672204"><ele>1353.0</ele><time>2026-04-25T07:57:21.48Z</time></trkpt><trkpt lat="45.9409262" lon="11.6721169"><ele>1353.0</ele><time>2026-04-25T07:57:22.479Z</time></trkpt><trkpt lat="45.9408846" lon="11.6720356"><ele>1353.0</ele><time>2026-04-25T07:57:23.473Z</time></trkpt><trkpt lat="45.9408385" lon="11.671954"><ele>1353.0</ele><time>2026-04-25T07:57:24.472Z</time></trkpt><trkpt lat="45.9407968" lon="11.6718485"><ele>1353.0</ele><time>2026-04-25T07:57:25.464Z</time></trkpt><trkpt lat="45.940754" lon="11.6717316"><ele>1356.6000000000001</ele><time>2026-04-25T07:57:26.465Z</time></trkpt><trkpt lat="45.9407155" lon="11.6716081"><ele>1360.2</ele><time>2026-04-25T07:57:27.473Z</time></trkpt><trkpt lat="45.9406793" lon="11.671482"><ele>1363.8</ele><time>2026-04-25T07:57:28.467Z</time></trkpt><trkpt lat="45.9406429" lon="11.6713834"><ele>1367.4</ele><time>2026-04-25T07:57:29.477Z</time></trkpt><trkpt lat="45.9405403" lon="11.6712702"><ele>1371.0</ele><time>2026-04-25T07:57:31.473Z</time></trkpt><trkpt lat="45.9404643" lon="11.671273"><ele>1371.0</ele><time>2026-04-25T07:57:32.472Z</time></trkpt><trkpt lat="45.9403706" lon="11.6713247"><ele>1371.0</ele><time>2026-04-25T07:57:33.482Z</time></trkpt><trkpt lat="45.9402648" lon="11.6713769"><ele>1371.0</ele><time>2026-04-25T07:57:34.481Z</time></trkpt><trkpt lat="45.9401733" lon="11.6714353"><ele>1371.0</ele><time>2026-04-25T07:57:35.472Z</time></trkpt><trkpt lat="45.940093" lon="11.6714996"><ele>1371.0</ele><time>2026-04-25T07:57:36.472Z</time></trkpt><trkpt lat="45.9400123" lon="11.6715951"><ele>1371.8</ele><time>2026-04-25T07:57:37.473Z</time></trkpt><trkpt lat="45.9399309" lon="11.6717004"><ele>1372.6</ele><time>2026-04-25T07:57:38.481Z</time></trkpt><trkpt lat="45.9398457" lon="11.6717969"><ele>1373.4</ele><time>2026-04-25T07:57:39.473Z</time></trkpt><trkpt lat="45.9397569" lon="11.6718635"><ele>1374.2</ele><time>2026-04-25T07:57:40.477Z</time></trkpt><trkpt lat="45.9396684" lon="11.6718934"><ele>1375.0</ele><time>2026-04-25T07:57:41.477Z</time></trkpt><trkpt lat="45.9395929" lon="11.6718911"><ele>1375.0</ele><time>2026-04-25T07:57:42.47Z</time></trkpt><trkpt lat="45.9395263" lon="11.6718554"><ele>1375.0</ele><time>2026-04-25T07:57:43.478Z</time></trkpt><trkpt lat="45.9394627" lon="11.6717941"><ele>1375.0</ele><time>2026-04-25T07:57:44.478Z</time></trkpt><trkpt lat="45.9394126" lon="11.6717132"><ele>1375.0</ele><time>2026-04-25T07:57:45.474Z</time></trkpt><trkpt lat="45.939365" lon="11.6716218"><ele>1375.0</ele><time>2026-04-25T07:57:46.475Z</time></trkpt><trkpt lat="45.9393181" lon="11.6715244"><ele>1375.0</ele><time>2026-04-25T07:57:47.482Z</time></trkpt><trkpt lat="45.9392736" lon="11.6714246"><ele>1375.0</ele><time>2026-04-25T07:57:48.48Z</time></trkpt><trkpt lat="45.9392332" lon="11.6713442"><ele>1375.0</ele><time>2026-04-25T07:57:49.475Z</time></trkpt><trkpt lat="45.9391499" lon="11.6712149"><ele>1375.0</ele><time>2026-04-25T07:57:51.474Z</time></trkpt><trkpt lat="45.9389707" lon="11.6712123"><ele>1375.0</ele><time>2026-04-25T07:57:54.476Z</time></trkpt><trkpt lat="45.9389001" lon="11.671281"><ele>1375.3333333333333</ele><time>2026-04-25T07:57:55.472Z</time></trkpt><trkpt lat="45.9388171" lon="11.6713568"><ele>1375.6666666666665</ele><time>2026-04-25T07:57:56.489Z</time></trkpt><trkpt lat="45.9387231" lon="11.6714339"><ele>1376.0</ele><time>2026-04-25T07:57:57.486Z</time></trkpt><trkpt lat="45.9386413" lon="11.6714718"><ele>1376.3333333333333</ele><time>2026-04-25T07:57:58.473Z</time></trkpt><trkpt lat="45.9385701" lon="11.6714811"><ele>1376.6666666666667</ele><time>2026-04-25T07:57:59.459Z</time></trkpt><trkpt lat="45.9385036" lon="11.6714639"><ele>1377.0</ele><time>2026-04-25T07:58:00.47Z</time></trkpt><trkpt lat="45.9384383" lon="11.6714346"><ele>1376.3999999999999</ele><time>2026-04-25T07:58:01.467Z</time></trkpt><trkpt lat="45.9383678" lon="11.6713906"><ele>1375.8</ele><time>2026-04-25T07:58:02.469Z</time></trkpt><trkpt lat="45.9382838" lon="11.6713275"><ele>1375.2</ele><time>2026-04-25T07:58:03.46Z</time></trkpt><trkpt lat="45.9382004" lon="11.6712711"><ele>1374.6</ele><time>2026-04-25T07:58:04.458Z</time></trkpt><trkpt lat="45.9381063" lon="11.671169"><ele>1374.0</ele><time>2026-04-25T07:58:05.474Z</time></trkpt><trkpt lat="45.938014" lon="11.6710594"><ele>1377.2</ele><time>2026-04-25T07:58:06.47Z</time></trkpt><trkpt lat="45.9379279" lon="11.6709474"><ele>1380.4</ele><time>2026-04-25T07:58:07.467Z</time></trkpt><trkpt lat="45.9378442" lon="11.6708175"><ele>1383.6</ele><time>2026-04-25T07:58:08.473Z</time></trkpt><trkpt lat="45.9377756" lon="11.6707097"><ele>1386.8</ele><time>2026-04-25T07:58:09.475Z</time></trkpt><trkpt lat="45.9377061" lon="11.6706493"><ele>1390.0</ele><time>2026-04-25T07:58:10.457Z</time></trkpt><trkpt lat="45.9376292" lon="11.6706257"><ele>1389.6666666666665</ele><time>2026-04-25T07:58:11.462Z</time></trkpt><trkpt lat="45.9375408" lon="11.6706605"><ele>1389.3333333333333</ele><time>2026-04-25T07:58:12.481Z</time></trkpt><trkpt lat="45.9373483" lon="11.6708606"><ele>1389.0</ele><time>2026-04-25T07:58:14.471Z</time></trkpt><trkpt lat="45.9372303" lon="11.6709983"><ele>1384.25</ele><time>2026-04-25T07:58:15.471Z</time></trkpt><trkpt lat="45.9371152" lon="11.6711202"><ele>1379.5</ele><time>2026-04-25T07:58:16.465Z</time></trkpt><trkpt lat="45.9370044" lon="11.671237"><ele>1374.75</ele><time>2026-04-25T07:58:17.465Z</time></trkpt><trkpt lat="45.9369008" lon="11.6713283"><ele>1370.0</ele><time>2026-04-25T07:58:18.468Z</time></trkpt><trkpt lat="45.9368164" lon="11.6713783"><ele>1370.0</ele><time>2026-04-25T07:58:19.472Z</time></trkpt><trkpt lat="45.9367385" lon="11.6714231"><ele>1370.0</ele><time>2026-04-25T07:58:20.484Z</time></trkpt><trkpt lat="45.9366569" lon="11.6714454"><ele>1370.0</ele><time>2026-04-25T07:58:21.467Z</time></trkpt><trkpt lat="45.9365676" lon="11.671446"><ele>1370.0</ele><time>2026-04-25T07:58:22.474Z</time></trkpt><trkpt lat="45.9364793" lon="11.6714209"><ele>1370.0</ele><time>2026-04-25T07:58:23.465Z</time></trkpt><trkpt lat="45.9363869" lon="11.6713546"><ele>1373.25</ele><time>2026-04-25T07:58:24.473Z</time></trkpt><trkpt lat="45.9362941" lon="11.6712485"><ele>1376.5</ele><time>2026-04-25T07:58:25.5Z</time></trkpt><trkpt lat="45.9361951" lon="11.6711235"><ele>1379.75</ele><time>2026-04-25T07:58:26.496Z</time></trkpt><trkpt lat="45.9360967" lon="11.6710078"><ele>1383.0</ele><time>2026-04-25T07:58:27.483Z</time></trkpt><trkpt lat="45.9359978" lon="11.6708926"><ele>1386.2</ele><time>2026-04-25T07:58:28.488Z</time></trkpt><trkpt lat="45.935904" lon="11.670792"><ele>1389.4</ele><time>2026-04-25T07:58:29.487Z</time></trkpt><trkpt lat="45.9358143" lon="11.6707158"><ele>1392.6000000000001</ele><time>2026-04-25T07:58:30.492Z</time></trkpt><trkpt lat="45.9357335" lon="11.6706506"><ele>1395.8000000000002</ele><time>2026-04-25T07:58:31.483Z</time></trkpt><trkpt lat="45.935655" lon="11.6706357"><ele>1399.0</ele><time>2026-04-25T07:58:32.494Z</time></trkpt><trkpt lat="45.935578" lon="11.6706463"><ele>1399.0</ele><time>2026-04-25T07:58:33.472Z</time></trkpt><trkpt lat="45.935445" lon="11.6707579"><ele>1399.0</ele><time>2026-04-25T07:58:35.467Z</time></trkpt><trkpt lat="45.9353917" lon="11.6708654"><ele>1399.0</ele><time>2026-04-25T07:58:36.475Z</time></trkpt><trkpt lat="45.9353395" lon="11.6709747"><ele>1399.0</ele><time>2026-04-25T07:58:37.497Z</time></trkpt><trkpt lat="45.9352878" lon="11.6710804"><ele>1399.0</ele><time>2026-04-25T07:58:38.474Z</time></trkpt><trkpt lat="45.9352228" lon="11.671169"><ele>1397.8000000000002</ele><time>2026-04-25T07:58:39.478Z</time></trkpt><trkpt lat="45.9351552" lon="11.6712451"><ele>1396.6000000000001</ele><time>2026-04-25T07:58:40.487Z</time></trkpt><trkpt lat="45.9350731" lon="11.6713163"><ele>1395.4</ele><time>2026-04-25T07:58:41.475Z</time></trkpt><trkpt lat="45.9349857" lon="11.6713898"><ele>1394.2</ele><time>2026-04-25T07:58:42.484Z</time></trkpt><trkpt lat="45.9349065" lon="11.6714523"><ele>1393.0</ele><time>2026-04-25T07:58:43.475Z</time></trkpt><trkpt lat="45.934828" lon="11.6714983"><ele>1393.0</ele><time>2026-04-25T07:58:44.492Z</time></trkpt><trkpt lat="45.934747" lon="11.6715283"><ele>1393.0</ele><time>2026-04-25T07:58:45.478Z</time></trkpt><trkpt lat="45.934662" lon="11.6715395"><ele>1393.0</ele><time>2026-04-25T07:58:46.47Z</time></trkpt><trkpt lat="45.9345721" lon="11.6715315"><ele>1393.0</ele><time>2026-04-25T07:58:47.466Z</time></trkpt><trkpt lat="45.9344825" lon="11.6715033"><ele>1393.0</ele><time>2026-04-25T07:58:48.483Z</time></trkpt><trkpt lat="45.9343984" lon="11.6714532"><ele>1393.0</ele><time>2026-04-25T07:58:49.471Z</time></trkpt><trkpt lat="45.9343137" lon="11.6713779"><ele>1393.5</ele><time>2026-04-25T07:58:50.477Z</time></trkpt><trkpt lat="45.9342131" lon="11.6712648"><ele>1394.0</ele><time>2026-04-25T07:58:51.481Z</time></trkpt><trkpt lat="45.9340967" lon="11.6711271"><ele>1394.5</ele><time>2026-04-25T07:58:52.473Z</time></trkpt><trkpt lat="45.933978" lon="11.6709903"><ele>1395.0</ele><time>2026-04-25T07:58:53.487Z</time></trkpt><trkpt lat="45.9338796" lon="11.6708797"><ele>1400.0</ele><time>2026-04-25T07:58:54.478Z</time></trkpt><trkpt lat="45.9337276" lon="11.6706888"><ele>1405.0</ele><time>2026-04-25T07:58:56.478Z</time></trkpt><trkpt lat="45.9336602" lon="11.6705918"><ele>1410.0</ele><time>2026-04-25T07:58:57.483Z</time></trkpt><trkpt lat="45.9336109" lon="11.6704663"><ele>1415.0</ele><time>2026-04-25T07:58:58.486Z</time></trkpt><trkpt lat="45.9335724" lon="11.6703209"><ele>1419.25</ele><time>2026-04-25T07:58:59.484Z</time></trkpt><trkpt lat="45.9335411" lon="11.67017"><ele>1423.5</ele><time>2026-04-25T07:59:00.477Z</time></trkpt><trkpt lat="45.9335084" lon="11.6700088"><ele>1427.75</ele><time>2026-04-25T07:59:01.474Z</time></trkpt><trkpt lat="45.9334767" lon="11.6698404"><ele>1432.0</ele><time>2026-04-25T07:59:02.491Z</time></trkpt><trkpt lat="45.9334455" lon="11.6696737"><ele>1432.0</ele><time>2026-04-25T07:59:03.488Z</time></trkpt><trkpt lat="45.9334153" lon="11.6695077"><ele>1432.0</ele><time>2026-04-25T07:59:04.477Z</time></trkpt><trkpt lat="45.9333877" lon="11.6693458"><ele>1432.0</ele><time>2026-04-25T07:59:05.49Z</time></trkpt><trkpt lat="45.9333564" lon="11.669189"><ele>1432.0</ele><time>2026-04-25T07:59:06.479Z</time></trkpt><trkpt lat="45.933323" lon="11.6690326"><ele>1430.75</ele><time>2026-04-25T07:59:07.483Z</time></trkpt><trkpt lat="45.9332897" lon="11.6688742"><ele>1429.5</ele><time>2026-04-25T07:59:08.472Z</time></trkpt><trkpt lat="45.9332575" lon="11.668714"><ele>1428.25</ele><time>2026-04-25T07:59:09.493Z</time></trkpt><trkpt lat="45.9332297" lon="11.6685542"><ele>1427.0</ele><time>2026-04-25T07:59:10.473Z</time></trkpt><trkpt lat="45.9332031" lon="11.668399"><ele>1427.0</ele><time>2026-04-25T07:59:11.477Z</time></trkpt><trkpt lat="45.9331774" lon="11.6682667"><ele>1427.0</ele><time>2026-04-25T07:59:12.489Z</time></trkpt><trkpt lat="45.9331615" lon="11.6681473"><ele>1427.0</ele><time>2026-04-25T07:59:13.484Z</time></trkpt><trkpt lat="45.9331475" lon="11.6680324"><ele>1427.0</ele><time>2026-04-25T07:59:14.495Z</time></trkpt><trkpt lat="45.9331344" lon="11.6679343"><ele>1427.0</ele><time>2026-04-25T07:59:15.494Z</time></trkpt><trkpt lat="45.9331051" lon="11.6676954"><ele>1427.1999999999998</ele><time>2026-04-25T07:59:18.481Z</time></trkpt><trkpt lat="45.9330975" lon="11.6675559"><ele>1427.4</ele><time>2026-04-25T07:59:20.483Z</time></trkpt><trkpt lat="45.9330889" lon="11.6674197"><ele>1427.6</ele><time>2026-04-25T07:59:22.473Z</time></trkpt><trkpt lat="45.9330872" lon="11.6673084"><ele>1427.8000000000002</ele><time>2026-04-25T07:59:24.474Z</time></trkpt><trkpt lat="45.9330926" lon="11.6672182"><ele>1428.0</ele><time>2026-04-25T08:00:25.47Z</time></trkpt><trkpt lat="45.9331431" lon="11.6669113"><ele>1428.0</ele><time>2026-04-25T08:00:29.475Z</time></trkpt><trkpt lat="45.9331717" lon="11.6668121"><ele>1428.0</ele><time>2026-04-25T08:00:30.466Z</time></trkpt><trkpt lat="45.9332083" lon="11.6667236"><ele>1428.0</ele><time>2026-04-25T08:00:31.474Z</time></trkpt><trkpt lat="45.9332511" lon="11.6666386"><ele>1428.0</ele><time>2026-04-25T08:00:32.474Z</time></trkpt><trkpt lat="45.9333023" lon="11.6665577"><ele>1428.0</ele><time>2026-04-25T08:00:33.473Z</time></trkpt><trkpt lat="45.933362" lon="11.6664822"><ele>1428.0</ele><time>2026-04-25T08:00:34.475Z</time></trkpt><trkpt lat="45.933428" lon="11.6664126"><ele>1429.2</ele><time>2026-04-25T08:00:35.481Z</time></trkpt><trkpt lat="45.9335007" lon="11.6663451"><ele>1430.4</ele><time>2026-04-25T08:00:36.474Z</time></trkpt><trkpt lat="45.9335745" lon="11.6662766"><ele>1431.6000000000001</ele><time>2026-04-25T08:00:37.482Z</time></trkpt><trkpt lat="45.9336504" lon="11.6662012"><ele>1432.8000000000002</ele><time>2026-04-25T08:00:38.478Z</time></trkpt><trkpt lat="45.9337274" lon="11.6661192"><ele>1434.0</ele><time>2026-04-25T08:00:39.474Z</time></trkpt><trkpt lat="45.9338276" lon="11.6660371"><ele>1434.0</ele><time>2026-04-25T08:00:40.477Z</time></trkpt><trkpt lat="45.9339289" lon="11.6659541"><ele>1434.0</ele><time>2026-04-25T08:00:41.47Z</time></trkpt><trkpt lat="45.9340284" lon="11.6658812"><ele>1434.0</ele><time>2026-04-25T08:00:42.479Z</time></trkpt><trkpt lat="45.9341294" lon="11.6658126"><ele>1434.0</ele><time>2026-04-25T08:00:43.478Z</time></trkpt><trkpt lat="45.9342338" lon="11.6657428"><ele>1436.2</ele><time>2026-04-25T08:00:44.479Z</time></trkpt><trkpt lat="45.9343337" lon="11.6656884"><ele>1438.4</ele><time>2026-04-25T08:00:45.478Z</time></trkpt><trkpt lat="45.9344211" lon="11.6656508"><ele>1440.6</ele><time>2026-04-25T08:00:46.476Z</time></trkpt><trkpt lat="45.9345599" lon="11.665604"><ele>1442.8</ele><time>2026-04-25T08:00:48.475Z</time></trkpt><trkpt lat="45.9346365" lon="11.66561"><ele>1445.0</ele><time>2026-04-25T08:00:49.478Z</time></trkpt><trkpt lat="45.9347042" lon="11.6656281"><ele>1445.0</ele><time>2026-04-25T08:00:50.481Z</time></trkpt><trkpt lat="45.9347696" lon="11.665665"><ele>1445.0</ele><time>2026-04-25T08:00:51.474Z</time></trkpt><trkpt lat="45.9348317" lon="11.6657184"><ele>1445.0</ele><time>2026-04-25T08:00:52.478Z</time></trkpt><trkpt lat="45.9348928" lon="11.665788"><ele>1445.0</ele><time>2026-04-25T08:00:53.477Z</time></trkpt><trkpt lat="45.9349618" lon="11.6658651"><ele>1445.0</ele><time>2026-04-25T08:00:54.476Z</time></trkpt><trkpt lat="45.9350342" lon="11.6659139"><ele>1445.0</ele><time>2026-04-25T08:00:55.474Z</time></trkpt><trkpt lat="45.9351191" lon="11.665945"><ele>1445.6</ele><time>2026-04-25T08:00:56.484Z</time></trkpt><trkpt lat="45.9352123" lon="11.6659564"><ele>1446.2</ele><time>2026-04-25T08:00:57.47Z</time></trkpt><trkpt lat="45.9353078" lon="11.6659614"><ele>1446.8000000000002</ele><time>2026-04-25T08:00:58.475Z</time></trkpt><trkpt lat="45.9354032" lon="11.6659785"><ele>1447.4</ele><time>2026-04-25T08:00:59.473Z</time></trkpt><trkpt lat="45.9354952" lon="11.6660114"><ele>1448.0</ele><time>2026-04-25T08:01:00.477Z</time></trkpt><trkpt lat="45.9355792" lon="11.6660605"><ele>1450.6666666666667</ele><time>2026-04-25T08:01:01.472Z</time></trkpt><trkpt lat="45.9356585" lon="11.6661281"><ele>1453.3333333333335</ele><time>2026-04-25T08:01:02.475Z</time></trkpt><trkpt lat="45.9357321" lon="11.6661931"><ele>1456.0</ele><time>2026-04-25T08:01:03.478Z</time></trkpt><trkpt lat="45.9357992" lon="11.6662416"><ele>1458.6666666666667</ele><time>2026-04-25T08:01:04.47Z</time></trkpt><trkpt lat="45.9358638" lon="11.6662624"><ele>1461.3333333333333</ele><time>2026-04-25T08:01:05.472Z</time></trkpt><trkpt lat="45.9359309" lon="11.6662349"><ele>1464.0</ele><time>2026-04-25T08:01:06.474Z</time></trkpt><trkpt lat="45.9359981" lon="11.6661718"><ele>1464.5</ele><time>2026-04-25T08:01:07.473Z</time></trkpt><trkpt lat="45.9361447" lon="11.6659908"><ele>1465.0</ele><time>2026-04-25T08:01:09.463Z</time></trkpt><trkpt lat="45.9362194" lon="11.665902"><ele>1465.5</ele><time>2026-04-25T08:01:10.469Z</time></trkpt><trkpt lat="45.9362962" lon="11.6658254"><ele>1466.0</ele><time>2026-04-25T08:01:11.486Z</time></trkpt><trkpt lat="45.9363728" lon="11.6657623"><ele>1466.0</ele><time>2026-04-25T08:01:12.472Z</time></trkpt><trkpt lat="45.9364419" lon="11.6657041"><ele>1466.0</ele><time>2026-04-25T08:01:13.476Z</time></trkpt><trkpt lat="45.936503" lon="11.6656426"><ele>1466.0</ele><time>2026-04-25T08:01:14.478Z</time></trkpt><trkpt lat="45.9365623" lon="11.6655639"><ele>1466.0</ele><time>2026-04-25T08:01:15.486Z</time></trkpt><trkpt lat="45.9366353" lon="11.6655153"><ele>1466.0</ele><time>2026-04-25T08:01:16.474Z</time></trkpt><trkpt lat="45.9367186" lon="11.6654839"><ele>1466.0</ele><time>2026-04-25T08:01:17.472Z</time></trkpt><trkpt lat="45.9368102" lon="11.66547"><ele>1468.1999999999998</ele><time>2026-04-25T08:01:18.483Z</time></trkpt><trkpt lat="45.9369097" lon="11.6654672"><ele>1470.3999999999999</ele><time>2026-04-25T08:01:19.478Z</time></trkpt><trkpt lat="45.9370103" lon="11.6654729"><ele>1472.6</ele><time>2026-04-25T08:01:20.476Z</time></trkpt><trkpt lat="45.9371105" lon="11.6654837"><ele>1474.8</ele><time>2026-04-25T08:01:21.461Z</time></trkpt><trkpt lat="45.937216" lon="11.6654927"><ele>1477.0</ele><time>2026-04-25T08:01:22.465Z</time></trkpt><trkpt lat="45.9373259" lon="11.6655005"><ele>1477.0</ele><time>2026-04-25T08:01:23.475Z</time></trkpt><trkpt lat="45.9374361" lon="11.6655077"><ele>1477.0</ele><time>2026-04-25T08:01:24.477Z</time></trkpt><trkpt lat="45.9375439" lon="11.6655107"><ele>1477.0</ele><time>2026-04-25T08:01:25.481Z</time></trkpt><trkpt lat="45.9376511" lon="11.6655239"><ele>1477.0</ele><time>2026-04-25T08:01:26.473Z</time></trkpt><trkpt lat="45.937758" lon="11.6655338"><ele>1477.0</ele><time>2026-04-25T08:01:27.472Z</time></trkpt><trkpt lat="45.9378524" lon="11.6655297"><ele>1477.0</ele><time>2026-04-25T08:01:28.468Z</time></trkpt><trkpt lat="45.9380036" lon="11.6654617"><ele>1477.0</ele><time>2026-04-25T08:01:30.473Z</time></trkpt><trkpt lat="45.9380777" lon="11.6653901"><ele>1477.0</ele><time>2026-04-25T08:01:31.467Z</time></trkpt><trkpt lat="45.9381569" lon="11.6653053"><ele>1477.0</ele><time>2026-04-25T08:01:32.474Z</time></trkpt><trkpt lat="45.9382351" lon="11.6652348"><ele>1477.0</ele><time>2026-04-25T08:01:33.474Z</time></trkpt><trkpt lat="45.9383089" lon="11.6651836"><ele>1477.0</ele><time>2026-04-25T08:01:34.473Z</time></trkpt><trkpt lat="45.9383767" lon="11.665143"><ele>1477.0</ele><time>2026-04-25T08:01:35.479Z</time></trkpt><trkpt lat="45.9384582" lon="11.6650418"><ele>1477.0</ele><time>2026-04-25T08:01:37.477Z</time></trkpt><trkpt lat="45.9384736" lon="11.6648826"><ele>1477.0</ele><time>2026-04-25T08:01:39.494Z</time></trkpt><trkpt lat="45.9384491" lon="11.6647992"><ele>1477.0</ele><time>2026-04-25T08:01:40.492Z</time></trkpt><trkpt lat="45.9384065" lon="11.6647195"><ele>1477.0</ele><time>2026-04-25T08:01:41.488Z</time></trkpt><trkpt lat="45.9383515" lon="11.6646328"><ele>1477.0</ele><time>2026-04-25T08:01:42.491Z</time></trkpt><trkpt lat="45.9382781" lon="11.6645439"><ele>1477.0</ele><time>2026-04-25T08:01:43.467Z</time></trkpt><trkpt lat="45.9382194" lon="11.6644548"><ele>1477.0</ele><time>2026-04-25T08:01:44.48Z</time></trkpt><trkpt lat="45.9381808" lon="11.6643677"><ele>1477.0</ele><time>2026-04-25T08:01:45.475Z</time></trkpt><trkpt lat="45.938154" lon="11.6642653"><ele>1477.0</ele><time>2026-04-25T08:01:46.466Z</time></trkpt><trkpt lat="45.9381386" lon="11.6641501"><ele>1477.0</ele><time>2026-04-25T08:01:47.473Z</time></trkpt><trkpt lat="45.9381369" lon="11.6640286"><ele>1479.0</ele><time>2026-04-25T08:01:48.471Z</time></trkpt><trkpt lat="45.9381439" lon="11.6639024"><ele>1481.0</ele><time>2026-04-25T08:01:49.484Z</time></trkpt><trkpt lat="45.9381749" lon="11.6636482"><ele>1483.0</ele><time>2026-04-25T08:01:51.476Z</time></trkpt><trkpt lat="45.9381947" lon="11.663522"><ele>1485.0</ele><time>2026-04-25T08:01:52.49Z</time></trkpt><trkpt lat="45.9382216" lon="11.6633965"><ele>1487.0</ele><time>2026-04-25T08:01:53.488Z</time></trkpt><trkpt lat="45.938254" lon="11.6632667"><ele>1487.8</ele><time>2026-04-25T08:01:54.473Z</time></trkpt><trkpt lat="45.9382915" lon="11.6631361"><ele>1488.6</ele><time>2026-04-25T08:01:55.468Z</time></trkpt><trkpt lat="45.9383316" lon="11.6630088"><ele>1489.3999999999999</ele><time>2026-04-25T08:01:56.479Z</time></trkpt><trkpt lat="45.9383711" lon="11.6628899"><ele>1490.1999999999998</ele><time>2026-04-25T08:01:57.48Z</time></trkpt><trkpt lat="45.938411" lon="11.6627737"><ele>1491.0</ele><time>2026-04-25T08:01:58.472Z</time></trkpt><trkpt lat="45.9384521" lon="11.6626449"><ele>1497.8</ele><time>2026-04-25T08:01:59.478Z</time></trkpt><trkpt lat="45.9384832" lon="11.6625033"><ele>1504.6</ele><time>2026-04-25T08:02:00.477Z</time></trkpt><trkpt lat="45.9384899" lon="11.6623536"><ele>1511.4</ele><time>2026-04-25T08:02:01.478Z</time></trkpt><trkpt lat="45.9384821" lon="11.662204"><ele>1518.2</ele><time>2026-04-25T08:02:02.471Z</time></trkpt><trkpt lat="45.9384714" lon="11.662062"><ele>1525.0</ele><time>2026-04-25T08:02:03.484Z</time></trkpt><trkpt lat="45.938471" lon="11.6619344"><ele>1525.0</ele><time>2026-04-25T08:02:04.483Z</time></trkpt><trkpt lat="45.9384894" lon="11.6618121"><ele>1525.0</ele><time>2026-04-25T08:02:05.467Z</time></trkpt><trkpt lat="45.9385153" lon="11.6616851"><ele>1525.0</ele><time>2026-04-25T08:02:06.476Z</time></trkpt><trkpt lat="45.9385547" lon="11.6615616"><ele>1525.0</ele><time>2026-04-25T08:02:07.478Z</time></trkpt><trkpt lat="45.9385964" lon="11.6614608"><ele>1525.0</ele><time>2026-04-25T08:02:08.477Z</time></trkpt><trkpt lat="45.9386336" lon="11.6613748"><ele>1525.0</ele><time>2026-04-25T08:02:09.483Z</time></trkpt><trkpt lat="45.9386636" lon="11.6612151"><ele>1525.25</ele><time>2026-04-25T08:02:11.47Z</time></trkpt><trkpt lat="45.9385337" lon="11.6610495"><ele>1525.5</ele><time>2026-04-25T08:02:14.494Z</time></trkpt><trkpt lat="45.9384526" lon="11.6610275"><ele>1525.75</ele><time>2026-04-25T08:02:15.49Z</time></trkpt><trkpt lat="45.9383573" lon="11.6609964"><ele>1526.0</ele><time>2026-04-25T08:02:16.476Z</time></trkpt><trkpt lat="45.9382624" lon="11.6609394"><ele>1521.6</ele><time>2026-04-25T08:02:17.501Z</time></trkpt><trkpt lat="45.93817" lon="11.6608627"><ele>1517.1999999999998</ele><time>2026-04-25T08:02:18.476Z</time></trkpt><trkpt lat="45.9380754" lon="11.6607823"><ele>1512.8000000000002</ele><time>2026-04-25T08:02:19.466Z</time></trkpt><trkpt lat="45.9379807" lon="11.6607024"><ele>1508.4</ele><time>2026-04-25T08:02:20.478Z</time></trkpt><trkpt lat="45.9378911" lon="11.6606192"><ele>1504.0</ele><time>2026-04-25T08:02:21.474Z</time></trkpt><trkpt lat="45.9378153" lon="11.6605409"><ele>1504.0</ele><time>2026-04-25T08:02:22.478Z</time></trkpt><trkpt lat="45.9377471" lon="11.660468"><ele>1504.0</ele><time>2026-04-25T08:02:23.473Z</time></trkpt><trkpt lat="45.9376921" lon="11.6603817"><ele>1504.0</ele><time>2026-04-25T08:02:24.474Z</time></trkpt><trkpt lat="45.9376467" lon="11.6602746"><ele>1504.0</ele><time>2026-04-25T08:02:25.473Z</time></trkpt><trkpt lat="45.9376154" lon="11.6601529"><ele>1504.0</ele><time>2026-04-25T08:02:26.474Z</time></trkpt><trkpt lat="45.9375987" lon="11.6600261"><ele>1504.0</ele><time>2026-04-25T08:02:27.478Z</time></trkpt><trkpt lat="45.9376018" lon="11.6599008"><ele>1508.0</ele><time>2026-04-25T08:02:28.481Z</time></trkpt><trkpt lat="45.9376128" lon="11.6597801"><ele>1512.0</ele><time>2026-04-25T08:02:29.478Z</time></trkpt><trkpt lat="45.9376546" lon="11.6596755"><ele>1516.0</ele><time>2026-04-25T08:02:30.49Z</time></trkpt><trkpt lat="45.9377155" lon="11.6595744"><ele>1520.0</ele><time>2026-04-25T08:02:31.476Z</time></trkpt><trkpt lat="45.9377789" lon="11.6594816"><ele>1524.0</ele><time>2026-04-25T08:02:32.474Z</time></trkpt><trkpt lat="45.9378746" lon="11.6592879"><ele>1525.0</ele><time>2026-04-25T08:02:34.479Z</time></trkpt><trkpt lat="45.937905" lon="11.6591803"><ele>1526.0</ele><time>2026-04-25T08:02:35.478Z</time></trkpt><trkpt lat="45.9379055" lon="11.6590683"><ele>1527.0</ele><time>2026-04-25T08:02:36.479Z</time></trkpt><trkpt lat="45.9378887" lon="11.658952"><ele>1528.0</ele><time>2026-04-25T08:02:37.479Z</time></trkpt><trkpt lat="45.9378655" lon="11.6588474"><ele>1529.0</ele><time>2026-04-25T08:02:38.478Z</time></trkpt><trkpt lat="45.9378405" lon="11.6587592"><ele>1530.0</ele><time>2026-04-25T08:02:39.478Z</time></trkpt><trkpt lat="45.9378329" lon="11.6586343"><ele>1530.0</ele><time>2026-04-25T08:02:41.472Z</time></trkpt><trkpt lat="45.9378948" lon="11.658593"><ele>1530.0</ele><time>2026-04-25T08:02:43.473Z</time></trkpt><trkpt lat="45.9379509" lon="11.6586834"><ele>1530.0</ele><time>2026-04-25T08:02:45.482Z</time></trkpt><trkpt lat="45.9379587" lon="11.6587762"><ele>1530.0</ele><time>2026-04-25T08:02:46.482Z</time></trkpt><trkpt lat="45.937968" lon="11.6588918"><ele>1530.0</ele><time>2026-04-25T08:02:47.472Z</time></trkpt><trkpt lat="45.9379908" lon="11.6590233"><ele>1530.0</ele><time>2026-04-25T08:02:48.477Z</time></trkpt><trkpt lat="45.9380168" lon="11.6591641"><ele>1530.0</ele><time>2026-04-25T08:02:49.479Z</time></trkpt><trkpt lat="45.9380343" lon="11.6592972"><ele>1530.0</ele><time>2026-04-25T08:02:50.481Z</time></trkpt><trkpt lat="45.9380382" lon="11.6594144"><ele>1530.0</ele><time>2026-04-25T08:02:51.476Z</time></trkpt><trkpt lat="45.9380369" lon="11.6595207"><ele>1530.0</ele><time>2026-04-25T08:02:52.478Z</time></trkpt><trkpt lat="45.9380415" lon="11.6596164"><ele>1530.0</ele><time>2026-04-25T08:02:53.472Z</time></trkpt><trkpt lat="45.9381772" lon="11.6598892"><ele>1528.8</ele><time>2026-04-25T08:02:57.485Z</time></trkpt><trkpt lat="45.9382451" lon="11.6599458"><ele>1527.6</ele><time>2026-04-25T08:02:58.478Z</time></trkpt><trkpt lat="45.9383259" lon="11.6599961"><ele>1526.4</ele><time>2026-04-25T08:02:59.473Z</time></trkpt><trkpt lat="45.9384165" lon="11.6600399"><ele>1525.2</ele><time>2026-04-25T08:03:00.473Z</time></trkpt><trkpt lat="45.938512" lon="11.6600798"><ele>1524.0</ele><time>2026-04-25T08:03:01.473Z</time></trkpt><trkpt lat="45.93861" lon="11.66012"><ele>1527.0</ele><time>2026-04-25T08:03:02.476Z</time></trkpt><trkpt lat="45.9387123" lon="11.6601591"><ele>1530.0</ele><time>2026-04-25T08:03:03.472Z</time></trkpt><trkpt lat="45.9388189" lon="11.660189"><ele>1533.0</ele><time>2026-04-25T08:03:04.472Z</time></trkpt><trkpt lat="45.9389279" lon="11.660206"><ele>1536.0</ele><time>2026-04-25T08:03:05.479Z</time></trkpt><trkpt lat="45.9390401" lon="11.6602106"><ele>1539.0</ele><time>2026-04-25T08:03:06.475Z</time></trkpt><trkpt lat="45.9391582" lon="11.6602066"><ele>1541.5</ele><time>2026-04-25T08:03:07.476Z</time></trkpt><trkpt lat="45.9392694" lon="11.6601976"><ele>1544.0</ele><time>2026-04-25T08:03:08.473Z</time></trkpt><trkpt lat="45.9393643" lon="11.6601867"><ele>1546.5</ele><time>2026-04-25T08:03:09.484Z</time></trkpt><trkpt lat="45.9394475" lon="11.6601898"><ele>1549.0</ele><time>2026-04-25T08:03:10.494Z</time></trkpt><trkpt lat="45.9395205" lon="11.660216"><ele>1551.5</ele><time>2026-04-25T08:03:11.487Z</time></trkpt><trkpt lat="45.9395795" lon="11.6602674"><ele>1554.0</ele><time>2026-04-25T08:03:12.474Z</time></trkpt><trkpt lat="45.9396323" lon="11.6603289"><ele>1554.0</ele><time>2026-04-25T08:03:13.49Z</time></trkpt><trkpt lat="45.9396497" lon="11.6604244"><ele>1554.0</ele><time>2026-04-25T08:03:14.479Z</time></trkpt><trkpt lat="45.9396296" lon="11.6606745"><ele>1554.0</ele><time>2026-04-25T08:03:16.469Z</time></trkpt><trkpt lat="45.9396055" lon="11.6608282"><ele>1554.0</ele><time>2026-04-25T08:03:17.482Z</time></trkpt><trkpt lat="45.939585" lon="11.6609917"><ele>1555.4</ele><time>2026-04-25T08:03:18.485Z</time></trkpt><trkpt lat="45.9395677" lon="11.6611498"><ele>1556.8000000000002</ele><time>2026-04-25T08:03:19.484Z</time></trkpt><trkpt lat="45.9395539" lon="11.6612909"><ele>1558.1999999999998</ele><time>2026-04-25T08:03:20.478Z</time></trkpt><trkpt lat="45.9395416" lon="11.6614218"><ele>1559.6</ele><time>2026-04-25T08:03:21.483Z</time></trkpt><trkpt lat="45.9395307" lon="11.6615504"><ele>1561.0</ele><time>2026-04-25T08:03:22.483Z</time></trkpt><trkpt lat="45.9395231" lon="11.6616796"><ele>1561.0</ele><time>2026-04-25T08:03:23.471Z</time></trkpt><trkpt lat="45.939518" lon="11.6618094"><ele>1561.0</ele><time>2026-04-25T08:03:24.471Z</time></trkpt><trkpt lat="45.9395161" lon="11.6619369"><ele>1561.0</ele><time>2026-04-25T08:03:25.489Z</time></trkpt><trkpt lat="45.9395158" lon="11.6620638"><ele>1561.0</ele><time>2026-04-25T08:03:26.484Z</time></trkpt><trkpt lat="45.9395179" lon="11.6621962"><ele>1561.0</ele><time>2026-04-25T08:03:27.486Z</time></trkpt><trkpt lat="45.9395197" lon="11.6623301"><ele>1560.8</ele><time>2026-04-25T08:03:28.495Z</time></trkpt><trkpt lat="45.9395216" lon="11.6624445"><ele>1560.6</ele><time>2026-04-25T08:03:29.489Z</time></trkpt><trkpt lat="45.9395501" lon="11.6625881"><ele>1560.4</ele><time>2026-04-25T08:03:31.493Z</time></trkpt><trkpt lat="45.9396268" lon="11.6625879"><ele>1560.2</ele><time>2026-04-25T08:03:33.486Z</time></trkpt><trkpt lat="45.9396507" lon="11.6624339"><ele>1560.0</ele><time>2026-04-25T08:03:35.481Z</time></trkpt><trkpt lat="45.9396226" lon="11.6621817"><ele>1560.0</ele><time>2026-04-25T08:03:37.492Z</time></trkpt><trkpt lat="45.939625" lon="11.662032"><ele>1560.0</ele><time>2026-04-25T08:03:38.495Z</time></trkpt><trkpt lat="45.9396388" lon="11.6618754"><ele>1560.0</ele><time>2026-04-25T08:03:39.493Z</time></trkpt><trkpt lat="45.9396601" lon="11.6617134"><ele>1560.0</ele><time>2026-04-25T08:03:40.49Z</time></trkpt><trkpt lat="45.9396858" lon="11.6615342"><ele>1560.25</ele><time>2026-04-25T08:03:41.469Z</time></trkpt><trkpt lat="45.9397279" lon="11.6613277"><ele>1560.5</ele><time>2026-04-25T08:03:42.481Z</time></trkpt><trkpt lat="45.9397708" lon="11.6611451"><ele>1560.75</ele><time>2026-04-25T08:03:43.483Z</time></trkpt><trkpt lat="45.9398149" lon="11.6609729"><ele>1561.0</ele><time>2026-04-25T08:03:44.489Z</time></trkpt><trkpt lat="45.9398545" lon="11.6608051"><ele>1559.6</ele><time>2026-04-25T08:03:45.474Z</time></trkpt><trkpt lat="45.9398876" lon="11.6606284"><ele>1558.1999999999998</ele><time>2026-04-25T08:03:46.477Z</time></trkpt><trkpt lat="45.9399105" lon="11.6604592"><ele>1556.8000000000002</ele><time>2026-04-25T08:03:47.474Z</time></trkpt><trkpt lat="45.9399292" lon="11.6603144"><ele>1555.4</ele><time>2026-04-25T08:03:48.478Z</time></trkpt><trkpt lat="45.9399438" lon="11.6601966"><ele>1554.0</ele><time>2026-04-25T08:03:49.48Z</time></trkpt><trkpt lat="45.9399487" lon="11.6600976"><ele>1554.0</ele><time>2026-04-25T08:03:50.488Z</time></trkpt><trkpt lat="45.9399352" lon="11.660001"><ele>1554.0</ele><time>2026-04-25T08:03:51.482Z</time></trkpt><trkpt lat="45.9399039" lon="11.6598987"><ele>1554.0</ele><time>2026-04-25T08:03:52.478Z</time></trkpt><trkpt lat="45.9398521" lon="11.6598034"><ele>1554.0</ele><time>2026-04-25T08:03:53.482Z</time></trkpt><trkpt lat="45.9397895" lon="11.6597285"><ele>1554.0</ele><time>2026-04-25T08:03:54.47Z</time></trkpt><trkpt lat="45.9397322" lon="11.6596674"><ele>1554.0</ele><time>2026-04-25T08:03:55.487Z</time></trkpt><trkpt lat="45.9396724" lon="11.6595878"><ele>1554.0</ele><time>2026-04-25T08:03:57.491Z</time></trkpt><trkpt lat="45.939776" lon="11.6594532"><ele>1554.0</ele><time>2026-04-25T08:04:01.477Z</time></trkpt><trkpt lat="45.9398345" lon="11.6594938"><ele>1554.0</ele><time>2026-04-25T08:04:02.491Z</time></trkpt><trkpt lat="45.9399035" lon="11.6595737"><ele>1554.0</ele><time>2026-04-25T08:04:03.484Z</time></trkpt><trkpt lat="45.9399718" lon="11.6596527"><ele>1554.0</ele><time>2026-04-25T08:04:04.49Z</time></trkpt><trkpt lat="45.9400341" lon="11.659721"><ele>1556.1666666666667</ele><time>2026-04-25T08:04:05.492Z</time></trkpt><trkpt lat="45.9400958" lon="11.6597849"><ele>1558.3333333333335</ele><time>2026-04-25T08:04:06.498Z</time></trkpt><trkpt lat="45.9401489" lon="11.6598534"><ele>1560.5</ele><time>2026-04-25T08:04:07.49Z</time></trkpt><trkpt lat="45.9401874" lon="11.6599391"><ele>1562.6666666666667</ele><time>2026-04-25T08:04:08.488Z</time></trkpt><trkpt lat="45.94021" lon="11.6600402"><ele>1564.8333333333335</ele><time>2026-04-25T08:04:09.481Z</time></trkpt><trkpt lat="45.9402236" lon="11.660153"><ele>1567.0</ele><time>2026-04-25T08:04:10.493Z</time></trkpt><trkpt lat="45.9402288" lon="11.6602734"><ele>1568.6666666666667</ele><time>2026-04-25T08:04:11.491Z</time></trkpt><trkpt lat="45.9402265" lon="11.6603949"><ele>1570.3333333333335</ele><time>2026-04-25T08:04:12.483Z</time></trkpt><trkpt lat="45.9402214" lon="11.6605159"><ele>1572.0</ele><time>2026-04-25T08:04:13.49Z</time></trkpt><trkpt lat="45.9402178" lon="11.6606348"><ele>1573.6666666666665</ele><time>2026-04-25T08:04:14.496Z</time></trkpt><trkpt lat="45.9402174" lon="11.6607554"><ele>1575.3333333333333</ele><time>2026-04-25T08:04:15.499Z</time></trkpt><trkpt lat="45.9402176" lon="11.6608755"><ele>1577.0</ele><time>2026-04-25T08:04:16.494Z</time></trkpt><trkpt lat="45.9402149" lon="11.660997"><ele>1578.0</ele><time>2026-04-25T08:04:17.489Z</time></trkpt><trkpt lat="45.9402074" lon="11.6611202"><ele>1579.0</ele><time>2026-04-25T08:04:18.506Z</time></trkpt><trkpt lat="45.9401896" lon="11.661352"><ele>1580.0</ele><time>2026-04-25T08:04:20.493Z</time></trkpt><trkpt lat="45.9401827" lon="11.6614651"><ele>1581.0</ele><time>2026-04-25T08:04:21.478Z</time></trkpt><trkpt lat="45.9401798" lon="11.661579"><ele>1582.0</ele><time>2026-04-25T08:04:22.501Z</time></trkpt><trkpt lat="45.9401861" lon="11.6616911"><ele>1582.0000000000002</ele><time>2026-04-25T08:04:23.493Z</time></trkpt><trkpt lat="45.9402035" lon="11.6618028"><ele>1582.0</ele><time>2026-04-25T08:04:24.499Z</time></trkpt><trkpt lat="45.9402367" lon="11.6619084"><ele>1582.0</ele><time>2026-04-25T08:04:25.481Z</time></trkpt><trkpt lat="45.9402825" lon="11.6620052"><ele>1582.0</ele><time>2026-04-25T08:04:26.475Z</time></trkpt><trkpt lat="45.9403426" lon="11.6620888"><ele>1582.0000000000002</ele><time>2026-04-25T08:04:27.47Z</time></trkpt><trkpt lat="45.9404172" lon="11.6621607"><ele>1582.0</ele><time>2026-04-25T08:04:28.481Z</time></trkpt><trkpt lat="45.9405004" lon="11.6622145"><ele>1581.3333333333335</ele><time>2026-04-25T08:04:29.476Z</time></trkpt><trkpt lat="45.9405862" lon="11.6622628"><ele>1580.6666666666667</ele><time>2026-04-25T08:04:30.474Z</time></trkpt><trkpt lat="45.9406758" lon="11.662298"><ele>1580.0</ele><time>2026-04-25T08:04:31.476Z</time></trkpt><trkpt lat="45.940758" lon="11.6623431"><ele>1579.3333333333335</ele><time>2026-04-25T08:04:32.475Z</time></trkpt><trkpt lat="45.9408204" lon="11.6624091"><ele>1578.6666666666667</ele><time>2026-04-25T08:04:33.473Z</time></trkpt><trkpt lat="45.9408643" lon="11.6624973"><ele>1578.0</ele><time>2026-04-25T08:04:34.469Z</time></trkpt><trkpt lat="45.9409056" lon="11.6625976"><ele>1580.8000000000002</ele><time>2026-04-25T08:04:35.488Z</time></trkpt><trkpt lat="45.9409166" lon="11.662724"><ele>1583.6</ele><time>2026-04-25T08:04:36.471Z</time></trkpt><trkpt lat="45.9409122" lon="11.6628566"><ele>1586.4</ele><time>2026-04-25T08:04:37.472Z</time></trkpt><trkpt lat="45.9409046" lon="11.6629808"><ele>1589.1999999999998</ele><time>2026-04-25T08:04:38.475Z</time></trkpt><trkpt lat="45.9409171" lon="11.6630851"><ele>1592.0</ele><time>2026-04-25T08:04:39.472Z</time></trkpt><trkpt lat="45.940996" lon="11.663266"><ele>1591.9999999999998</ele><time>2026-04-25T08:04:41.499Z</time></trkpt><trkpt lat="45.9410588" lon="11.6633475"><ele>1592.0</ele><time>2026-04-25T08:04:42.497Z</time></trkpt><trkpt lat="45.9411276" lon="11.6634104"><ele>1592.0</ele><time>2026-04-25T08:04:43.496Z</time></trkpt><trkpt lat="45.9411992" lon="11.6634438"><ele>1592.0</ele><time>2026-04-25T08:04:44.501Z</time></trkpt><trkpt lat="45.9412729" lon="11.6634494"><ele>1591.9999999999998</ele><time>2026-04-25T08:04:45.48Z</time></trkpt><trkpt lat="45.9413524" lon="11.6634364"><ele>1592.0</ele><time>2026-04-25T08:04:46.494Z</time></trkpt><trkpt lat="45.9414333" lon="11.6634132"><ele>1592.0</ele><time>2026-04-25T08:04:47.495Z</time></trkpt><trkpt lat="45.941516" lon="11.6633911"><ele>1592.0</ele><time>2026-04-25T08:04:48.498Z</time></trkpt><trkpt lat="45.9416051" lon="11.6633848"><ele>1592.0</ele><time>2026-04-25T08:04:49.491Z</time></trkpt><trkpt lat="45.9416973" lon="11.6633917"><ele>1592.0</ele><time>2026-04-25T08:04:50.477Z</time></trkpt><trkpt lat="45.9417874" lon="11.6634324"><ele>1592.0</ele><time>2026-04-25T08:04:51.486Z</time></trkpt><trkpt lat="45.9418803" lon="11.6634784"><ele>1590.1999999999998</ele><time>2026-04-25T08:04:52.491Z</time></trkpt><trkpt lat="45.9419773" lon="11.6635365"><ele>1588.4</ele><time>2026-04-25T08:04:53.468Z</time></trkpt><trkpt lat="45.9420798" lon="11.6635896"><ele>1586.6</ele><time>2026-04-25T08:04:54.499Z</time></trkpt><trkpt lat="45.9421821" lon="11.6636291"><ele>1584.8000000000002</ele><time>2026-04-25T08:04:55.478Z</time></trkpt><trkpt lat="45.9422907" lon="11.6636528"><ele>1583.0</ele><time>2026-04-25T08:04:56.494Z</time></trkpt><trkpt lat="45.942399" lon="11.6636617"><ele>1583.0</ele><time>2026-04-25T08:04:57.482Z</time></trkpt><trkpt lat="45.9425067" lon="11.6636625"><ele>1583.0</ele><time>2026-04-25T08:04:58.483Z</time></trkpt><trkpt lat="45.9426131" lon="11.6636663"><ele>1583.0</ele><time>2026-04-25T08:04:59.481Z</time></trkpt><trkpt lat="45.9427134" lon="11.6636771"><ele>1583.0</ele><time>2026-04-25T08:05:00.48Z</time></trkpt><trkpt lat="45.9429054" lon="11.6637324"><ele>1586.6000000000001</ele><time>2026-04-25T08:05:02.484Z</time></trkpt><trkpt lat="45.9429978" lon="11.663783"><ele>1590.2</ele><time>2026-04-25T08:05:03.47Z</time></trkpt><trkpt lat="45.9430914" lon="11.6638475"><ele>1593.8</ele><time>2026-04-25T08:05:04.477Z</time></trkpt><trkpt lat="45.9431809" lon="11.6639068"><ele>1597.4</ele><time>2026-04-25T08:05:05.488Z</time></trkpt><trkpt lat="45.9432656" lon="11.6639494"><ele>1601.0</ele><time>2026-04-25T08:05:06.475Z</time></trkpt><trkpt lat="45.9433581" lon="11.6639823"><ele>1603.4</ele><time>2026-04-25T08:05:07.471Z</time></trkpt><trkpt lat="45.9434615" lon="11.6640099"><ele>1605.8</ele><time>2026-04-25T08:05:08.481Z</time></trkpt><trkpt lat="45.9435715" lon="11.6640317"><ele>1608.2</ele><time>2026-04-25T08:05:09.486Z</time></trkpt><trkpt lat="45.9436828" lon="11.6640469"><ele>1610.6000000000001</ele><time>2026-04-25T08:05:10.472Z</time></trkpt><trkpt lat="45.9437889" lon="11.664052"><ele>1613.0</ele><time>2026-04-25T08:05:11.475Z</time></trkpt><trkpt lat="45.9438867" lon="11.6640455"><ele>1612.9999999999998</ele><time>2026-04-25T08:05:12.476Z</time></trkpt><trkpt lat="45.9439819" lon="11.6640312"><ele>1613.0</ele><time>2026-04-25T08:05:13.479Z</time></trkpt><trkpt lat="45.9440759" lon="11.6640118"><ele>1613.0</ele><time>2026-04-25T08:05:14.478Z</time></trkpt><trkpt lat="45.9441634" lon="11.6639915"><ele>1613.0</ele><time>2026-04-25T08:05:15.472Z</time></trkpt><trkpt lat="45.9442443" lon="11.6639705"><ele>1612.9999999999998</ele><time>2026-04-25T08:05:16.475Z</time></trkpt><trkpt lat="45.9443246" lon="11.6639465"><ele>1613.0</ele><time>2026-04-25T08:05:17.476Z</time></trkpt><trkpt lat="45.9444083" lon="11.6639179"><ele>1614.0</ele><time>2026-04-25T08:05:18.47Z</time></trkpt><trkpt lat="45.944493" lon="11.6638811"><ele>1615.0</ele><time>2026-04-25T08:05:19.477Z</time></trkpt><trkpt lat="45.9445727" lon="11.6638341"><ele>1616.0</ele><time>2026-04-25T08:05:20.478Z</time></trkpt><trkpt lat="45.9446493" lon="11.6637869"><ele>1617.0</ele><time>2026-04-25T08:05:21.475Z</time></trkpt><trkpt lat="45.9448065" lon="11.6637369"><ele>1618.0</ele><time>2026-04-25T08:05:23.48Z</time></trkpt><trkpt lat="45.9448869" lon="11.6637369"><ele>1618.0000000000002</ele><time>2026-04-25T08:05:24.486Z</time></trkpt><trkpt lat="45.944967" lon="11.6637441"><ele>1618.0</ele><time>2026-04-25T08:05:25.488Z</time></trkpt><trkpt lat="45.9450378" lon="11.6637541"><ele>1618.0</ele><time>2026-04-25T08:05:26.484Z</time></trkpt><trkpt lat="45.9451314" lon="11.6638123"><ele>1618.0</ele><time>2026-04-25T08:05:28.491Z</time></trkpt><trkpt lat="45.9451859" lon="11.663914"><ele>1618.0000000000002</ele><time>2026-04-25T08:05:30.493Z</time></trkpt><trkpt lat="45.9451892" lon="11.6640314"><ele>1618.0</ele><time>2026-04-25T08:05:32.486Z</time></trkpt><trkpt lat="45.9451744" lon="11.6641446"><ele>1616.5000000000002</ele><time>2026-04-25T08:05:34.481Z</time></trkpt><trkpt lat="45.9451621" lon="11.6642384"><ele>1615.0</ele><time>2026-04-25T08:05:36.486Z</time></trkpt><trkpt lat="45.9452245" lon="11.6642508"><ele>1613.5</ele><time>2026-04-25T08:05:40.487Z</time></trkpt><trkpt lat="45.9452329" lon="11.664158"><ele>1612.0</ele><time>2026-04-25T08:11:22.498Z</time></trkpt><trkpt lat="45.9452004" lon="11.6639268"><ele>1610.5000000000002</ele><time>2026-04-25T08:11:27.495Z</time></trkpt><trkpt lat="45.9452155" lon="11.6638341"><ele>1609.0</ele><time>2026-04-25T08:11:29.494Z</time></trkpt><trkpt lat="45.9452751" lon="11.6637476"><ele>1609.0</ele><time>2026-04-25T08:11:32.487Z</time></trkpt><trkpt lat="45.9453346" lon="11.6636995"><ele>1609.0</ele><time>2026-04-25T08:11:34.485Z</time></trkpt><trkpt lat="45.9454209" lon="11.6636455"><ele>1609.0</ele><time>2026-04-25T08:11:36.489Z</time></trkpt><trkpt lat="45.9455121" lon="11.6636031"><ele>1609.0</ele><time>2026-04-25T08:11:38.487Z</time></trkpt><trkpt lat="45.9456103" lon="11.6635534"><ele>1609.0</ele><time>2026-04-25T08:11:40.495Z</time></trkpt><trkpt lat="45.9457085" lon="11.6634616"><ele>1610.25</ele><time>2026-04-25T08:11:42.484Z</time></trkpt><trkpt lat="45.9457707" lon="11.6633186"><ele>1611.5</ele><time>2026-04-25T08:11:44.495Z</time></trkpt><trkpt lat="45.9458169" lon="11.6630461"><ele>1612.75</ele><time>2026-04-25T08:11:47.491Z</time></trkpt><trkpt lat="45.9458227" lon="11.6629542"><ele>1614.0</ele><time>2026-04-25T08:11:48.501Z</time></trkpt><trkpt lat="45.9458125" lon="11.6628006"><ele>1614.6</ele><time>2026-04-25T08:11:50.5Z</time></trkpt><trkpt lat="45.9458036" lon="11.6626457"><ele>1615.2</ele><time>2026-04-25T08:11:52.502Z</time></trkpt><trkpt lat="45.9457802" lon="11.6625212"><ele>1615.8</ele><time>2026-04-25T08:11:54.495Z</time></trkpt><trkpt lat="45.9457267" lon="11.6624144"><ele>1616.3999999999999</ele><time>2026-04-25T08:11:56.495Z</time></trkpt><trkpt lat="45.9456458" lon="11.6622841"><ele>1617.0</ele><time>2026-04-25T08:11:58.496Z</time></trkpt><trkpt lat="45.9456" lon="11.6622135"><ele>1617.0</ele><time>2026-04-25T08:11:59.493Z</time></trkpt><trkpt lat="45.9455121" lon="11.6621105"><ele>1617.0</ele><time>2026-04-25T08:12:01.493Z</time></trkpt><trkpt lat="45.9454238" lon="11.6620523"><ele>1617.0</ele><time>2026-04-25T08:12:03.494Z</time></trkpt><trkpt lat="45.9453214" lon="11.6620232"><ele>1617.0</ele><time>2026-04-25T08:12:05.49Z</time></trkpt><trkpt lat="45.9451137" lon="11.6620209"><ele>1617.8333333333333</ele><time>2026-04-25T08:12:08.497Z</time></trkpt><trkpt lat="45.9450321" lon="11.6620373"><ele>1618.6666666666665</ele><time>2026-04-25T08:12:09.495Z</time></trkpt><trkpt lat="45.9449492" lon="11.6620567"><ele>1619.5</ele><time>2026-04-25T08:12:10.478Z</time></trkpt><trkpt lat="45.9448661" lon="11.6620678"><ele>1620.3333333333333</ele><time>2026-04-25T08:12:11.486Z</time></trkpt><trkpt lat="45.9447897" lon="11.6620816"><ele>1621.1666666666665</ele><time>2026-04-25T08:12:12.495Z</time></trkpt><trkpt lat="45.9447154" lon="11.662095"><ele>1622.0</ele><time>2026-04-25T08:12:13.494Z</time></trkpt><trkpt lat="45.9446524" lon="11.662133"><ele>1621.9999999999998</ele><time>2026-04-25T08:12:14.497Z</time></trkpt><trkpt lat="45.9445884" lon="11.6621667"><ele>1622.0</ele><time>2026-04-25T08:12:15.498Z</time></trkpt><trkpt lat="45.9445208" lon="11.6622021"><ele>1622.0</ele><time>2026-04-25T08:12:16.5Z</time></trkpt><trkpt lat="45.9444461" lon="11.6622241"><ele>1622.0</ele><time>2026-04-25T08:12:17.478Z</time></trkpt><trkpt lat="45.9443628" lon="11.6622463"><ele>1621.9999999999998</ele><time>2026-04-25T08:12:18.479Z</time></trkpt><trkpt lat="45.9442696" lon="11.6622571"><ele>1622.0</ele><time>2026-04-25T08:12:19.498Z</time></trkpt><trkpt lat="45.9441733" lon="11.6622535"><ele>1621.9999999999998</ele><time>2026-04-25T08:12:20.491Z</time></trkpt><trkpt lat="45.9440817" lon="11.6622327"><ele>1622.0</ele><time>2026-04-25T08:12:21.503Z</time></trkpt><trkpt lat="45.9440045" lon="11.6622135"><ele>1622.0</ele><time>2026-04-25T08:12:22.494Z</time></trkpt><trkpt lat="45.9439291" lon="11.6621941"><ele>1622.0</ele><time>2026-04-25T08:12:23.478Z</time></trkpt><trkpt lat="45.9438537" lon="11.6621602"><ele>1621.9999999999998</ele><time>2026-04-25T08:12:24.488Z</time></trkpt><trkpt lat="45.9437872" lon="11.662103"><ele>1622.0</ele><time>2026-04-25T08:12:25.48Z</time></trkpt><trkpt lat="45.9437349" lon="11.6620226"><ele>1620.1999999999998</ele><time>2026-04-25T08:12:26.493Z</time></trkpt><trkpt lat="45.9436922" lon="11.6618188"><ele>1618.4</ele><time>2026-04-25T08:12:28.485Z</time></trkpt><trkpt lat="45.9436945" lon="11.6617053"><ele>1616.6</ele><time>2026-04-25T08:12:29.503Z</time></trkpt><trkpt lat="45.9436964" lon="11.6615844"><ele>1614.8000000000002</ele><time>2026-04-25T08:12:30.499Z</time></trkpt><trkpt lat="45.9437073" lon="11.6614736"><ele>1613.0</ele><time>2026-04-25T08:12:31.481Z</time></trkpt><trkpt lat="45.9437196" lon="11.6613628"><ele>1612.9999999999998</ele><time>2026-04-25T08:12:32.484Z</time></trkpt><trkpt lat="45.9437332" lon="11.661247"><ele>1613.0</ele><time>2026-04-25T08:12:33.494Z</time></trkpt><trkpt lat="45.9437455" lon="11.6611352"><ele>1613.0</ele><time>2026-04-25T08:12:34.5Z</time></trkpt><trkpt lat="45.9437572" lon="11.6610252"><ele>1613.0</ele><time>2026-04-25T08:12:35.502Z</time></trkpt><trkpt lat="45.9437728" lon="11.6609209"><ele>1612.9999999999998</ele><time>2026-04-25T08:12:36.494Z</time></trkpt><trkpt lat="45.9437861" lon="11.6608291"><ele>1613.0</ele><time>2026-04-25T08:12:37.492Z</time></trkpt><trkpt lat="45.9438035" lon="11.6606729"><ele>1613.0</ele><time>2026-04-25T08:12:39.497Z</time></trkpt><trkpt lat="45.9438145" lon="11.6605248"><ele>1613.0</ele><time>2026-04-25T08:12:41.485Z</time></trkpt><trkpt lat="45.9438403" lon="11.660373"><ele>1613.0</ele><time>2026-04-25T08:12:43.496Z</time></trkpt><trkpt lat="45.9438606" lon="11.6602173"><ele>1613.0</ele><time>2026-04-25T08:12:45.493Z</time></trkpt><trkpt lat="45.9438764" lon="11.6600638"><ele>1613.0</ele><time>2026-04-25T08:12:47.493Z</time></trkpt><trkpt lat="45.9439173" lon="11.6597318"><ele>1612.9999999999998</ele><time>2026-04-25T08:12:51.484Z</time></trkpt><trkpt lat="45.9439256" lon="11.6596354"><ele>1613.0</ele><time>2026-04-25T08:12:52.482Z</time></trkpt><trkpt lat="45.9439324" lon="11.6595362"><ele>1613.0</ele><time>2026-04-25T08:12:53.483Z</time></trkpt><trkpt lat="45.9439391" lon="11.6594305"><ele>1613.0</ele><time>2026-04-25T08:12:54.495Z</time></trkpt><trkpt lat="45.9439474" lon="11.6593198"><ele>1612.9999999999998</ele><time>2026-04-25T08:12:55.487Z</time></trkpt><trkpt lat="45.9439556" lon="11.6591997"><ele>1613.0</ele><time>2026-04-25T08:12:56.491Z</time></trkpt><trkpt lat="45.9439643" lon="11.6590792"><ele>1610.9999999999998</ele><time>2026-04-25T08:12:57.477Z</time></trkpt><trkpt lat="45.9439732" lon="11.6589596"><ele>1609.0</ele><time>2026-04-25T08:12:58.496Z</time></trkpt><trkpt lat="45.9439847" lon="11.6588396"><ele>1607.0</ele><time>2026-04-25T08:12:59.495Z</time></trkpt><trkpt lat="45.9439956" lon="11.658719"><ele>1605.0</ele><time>2026-04-25T08:13:00.487Z</time></trkpt><trkpt lat="45.9440079" lon="11.658592"><ele>1602.9999999999998</ele><time>2026-04-25T08:13:01.486Z</time></trkpt><trkpt lat="45.9440279" lon="11.6584625"><ele>1601.0</ele><time>2026-04-25T08:13:02.495Z</time></trkpt><trkpt lat="45.9440519" lon="11.6583349"><ele>1598.4999999999998</ele><time>2026-04-25T08:13:03.496Z</time></trkpt><trkpt lat="45.9440766" lon="11.6582046"><ele>1596.0</ele><time>2026-04-25T08:13:04.5Z</time></trkpt><trkpt lat="45.9441032" lon="11.6580797"><ele>1593.5</ele><time>2026-04-25T08:13:05.498Z</time></trkpt><trkpt lat="45.94413" lon="11.6579614"><ele>1591.0</ele><time>2026-04-25T08:13:06.494Z</time></trkpt><trkpt lat="45.9441573" lon="11.6578431"><ele>1588.4999999999998</ele><time>2026-04-25T08:13:07.493Z</time></trkpt><trkpt lat="45.9441834" lon="11.6577278"><ele>1586.0</ele><time>2026-04-25T08:13:08.494Z</time></trkpt><trkpt lat="45.9442253" lon="11.6574929"><ele>1582.1666666666665</ele><time>2026-04-25T08:13:10.487Z</time></trkpt><trkpt lat="45.9442478" lon="11.6573762"><ele>1578.3333333333333</ele><time>2026-04-25T08:13:11.497Z</time></trkpt><trkpt lat="45.9442759" lon="11.6572607"><ele>1574.5</ele><time>2026-04-25T08:13:12.478Z</time></trkpt><trkpt lat="45.9443083" lon="11.6571444"><ele>1570.6666666666665</ele><time>2026-04-25T08:13:13.497Z</time></trkpt><trkpt lat="45.944343" lon="11.6570282"><ele>1566.8333333333333</ele><time>2026-04-25T08:13:14.491Z</time></trkpt><trkpt lat="45.9443821" lon="11.6569065"><ele>1563.0</ele><time>2026-04-25T08:13:15.489Z</time></trkpt><trkpt lat="45.9444226" lon="11.6567842"><ele>1562.0</ele><time>2026-04-25T08:13:16.486Z</time></trkpt><trkpt lat="45.9444602" lon="11.6566655"><ele>1561.0</ele><time>2026-04-25T08:13:17.492Z</time></trkpt><trkpt lat="45.9444929" lon="11.6565487"><ele>1560.0</ele><time>2026-04-25T08:13:18.48Z</time></trkpt><trkpt lat="45.9445261" lon="11.6564324"><ele>1559.0</ele><time>2026-04-25T08:13:19.48Z</time></trkpt><trkpt lat="45.9445642" lon="11.6563143"><ele>1558.0</ele><time>2026-04-25T08:13:20.482Z</time></trkpt><trkpt lat="45.9446106" lon="11.6562004"><ele>1557.0</ele><time>2026-04-25T08:13:21.486Z</time></trkpt><trkpt lat="45.944663" lon="11.6560954"><ele>1556.0</ele><time>2026-04-25T08:13:22.499Z</time></trkpt><trkpt lat="45.9447159" lon="11.6559869"><ele>1555.0</ele><time>2026-04-25T08:13:23.478Z</time></trkpt><trkpt lat="45.9447721" lon="11.6558879"><ele>1554.0</ele><time>2026-04-25T08:13:24.466Z</time></trkpt><trkpt lat="45.9448253" lon="11.655791"><ele>1553.0</ele><time>2026-04-25T08:13:25.473Z</time></trkpt><trkpt lat="45.9448781" lon="11.6557014"><ele>1552.0</ele><time>2026-04-25T08:13:26.496Z</time></trkpt><trkpt lat="45.9449337" lon="11.6556072"><ele>1551.0</ele><time>2026-04-25T08:13:27.495Z</time></trkpt><trkpt lat="45.9449958" lon="11.6555139"><ele>1546.1999999999998</ele><time>2026-04-25T08:13:28.498Z</time></trkpt><trkpt lat="45.9450488" lon="11.6554267"><ele>1541.3999999999999</ele><time>2026-04-25T08:13:29.488Z</time></trkpt><trkpt lat="45.9451418" lon="11.6552646"><ele>1536.6</ele><time>2026-04-25T08:13:31.494Z</time></trkpt><trkpt lat="45.9451808" lon="11.6551927"><ele>1531.8</ele><time>2026-04-25T08:13:32.505Z</time></trkpt><trkpt lat="45.9452477" lon="11.6550606"><ele>1527.0</ele><time>2026-04-25T08:13:34.496Z</time></trkpt><trkpt lat="45.9453036" lon="11.6549514"><ele>1527.0</ele><time>2026-04-25T08:13:36.498Z</time></trkpt><trkpt lat="45.9453411" lon="11.6548635"><ele>1527.0</ele><time>2026-04-25T08:13:38.494Z</time></trkpt><trkpt lat="45.94535" lon="11.6547718"><ele>1527.0</ele><time>2026-04-25T08:13:42.505Z</time></trkpt><trkpt lat="45.9452801" lon="11.6547055"><ele>1527.0</ele><time>2026-04-25T08:13:48.489Z</time></trkpt><trkpt lat="45.9452141" lon="11.6546551"><ele>1527.0</ele><time>2026-04-25T08:13:51.485Z</time></trkpt><trkpt lat="45.9450816" lon="11.6545518"><ele>1527.0</ele><time>2026-04-25T08:13:56.495Z</time></trkpt><trkpt lat="45.9449987" lon="11.6544935"><ele>1526.1999999999998</ele><time>2026-04-25T08:13:58.489Z</time></trkpt><trkpt lat="45.9449065" lon="11.6544139"><ele>1525.4</ele><time>2026-04-25T08:14:00.474Z</time></trkpt><trkpt lat="45.9448374" lon="11.654338"><ele>1524.6</ele><time>2026-04-25T08:14:02.48Z</time></trkpt><trkpt lat="45.9447546" lon="11.6542503"><ele>1523.8000000000002</ele><time>2026-04-25T08:14:04.481Z</time></trkpt><trkpt lat="45.9446998" lon="11.6541943"><ele>1523.0</ele><time>2026-04-25T08:14:06.48Z</time></trkpt><trkpt lat="45.9446303" lon="11.6540504"><ele>1523.0</ele><time>2026-04-25T08:14:09.489Z</time></trkpt><trkpt lat="45.9446098" lon="11.6539192"><ele>1523.0</ele><time>2026-04-25T08:14:11.471Z</time></trkpt><trkpt lat="45.9446299" lon="11.6537958"><ele>1523.0</ele><time>2026-04-25T08:14:13.482Z</time></trkpt><trkpt lat="45.9446887" lon="11.6535019"><ele>1523.0</ele><time>2026-04-25T08:14:17.482Z</time></trkpt><trkpt lat="45.944685" lon="11.6533941"><ele>1519.6000000000001</ele><time>2026-04-25T08:14:19.484Z</time></trkpt><trkpt lat="45.9446617" lon="11.6533004"><ele>1516.2</ele><time>2026-04-25T08:14:21.486Z</time></trkpt><trkpt lat="45.9446409" lon="11.6531893"><ele>1512.8</ele><time>2026-04-25T08:14:23.49Z</time></trkpt><trkpt lat="45.9445929" lon="11.65307"><ele>1509.4</ele><time>2026-04-25T08:14:25.491Z</time></trkpt><trkpt lat="45.9445048" lon="11.6529559"><ele>1506.0</ele><time>2026-04-25T08:14:27.48Z</time></trkpt><trkpt lat="45.9444312" lon="11.6528454"><ele>1501.5</ele><time>2026-04-25T08:14:29.49Z</time></trkpt><trkpt lat="45.9443674" lon="11.6527118"><ele>1497.0</ele><time>2026-04-25T08:14:31.484Z</time></trkpt><trkpt lat="45.9443345" lon="11.6525904"><ele>1492.5</ele><time>2026-04-25T08:14:33.483Z</time></trkpt><trkpt lat="45.9443034" lon="11.6524563"><ele>1488.0</ele><time>2026-04-25T08:14:35.474Z</time></trkpt><trkpt lat="45.9442964" lon="11.6521743"><ele>1488.0</ele><time>2026-04-25T08:14:38.496Z</time></trkpt><trkpt lat="45.9442999" lon="11.6520759"><ele>1488.0</ele><time>2026-04-25T08:14:39.47Z</time></trkpt><trkpt lat="45.9442929" lon="11.6519803"><ele>1488.0</ele><time>2026-04-25T08:14:40.499Z</time></trkpt><trkpt lat="45.9442652" lon="11.6518167"><ele>1488.0</ele><time>2026-04-25T08:14:42.489Z</time></trkpt><trkpt lat="45.9442503" lon="11.6517233"><ele>1488.0</ele><time>2026-04-25T08:14:43.494Z</time></trkpt><trkpt lat="45.9442463" lon="11.6516161"><ele>1488.0</ele><time>2026-04-25T08:14:44.493Z</time></trkpt><trkpt lat="45.944242" lon="11.6515124"><ele>1487.3333333333333</ele><time>2026-04-25T08:14:45.483Z</time></trkpt><trkpt lat="45.9442347" lon="11.6514194"><ele>1486.6666666666667</ele><time>2026-04-25T08:14:46.481Z</time></trkpt><trkpt lat="45.9442415" lon="11.6513201"><ele>1486.0</ele><time>2026-04-25T08:14:47.505Z</time></trkpt><trkpt lat="45.9442421" lon="11.651225"><ele>1485.3333333333335</ele><time>2026-04-25T08:14:48.485Z</time></trkpt><trkpt lat="45.944234" lon="11.6510938"><ele>1484.6666666666667</ele><time>2026-04-25T08:14:50.506Z</time></trkpt><trkpt lat="45.9442177" lon="11.6509881"><ele>1484.0</ele><time>2026-04-25T08:14:52.486Z</time></trkpt><trkpt lat="45.9441751" lon="11.6508459"><ele>1484.0</ele><time>2026-04-25T08:14:56.488Z</time></trkpt><trkpt lat="45.9440595" lon="11.6509588"><ele>1484.0</ele><time>2026-04-25T08:15:08.475Z</time></trkpt><trkpt lat="45.9440085" lon="11.6510542"><ele>1484.0</ele><time>2026-04-25T08:15:11.48Z</time></trkpt><trkpt lat="45.9439829" lon="11.6511577"><ele>1484.0</ele><time>2026-04-25T08:15:15.477Z</time></trkpt><trkpt lat="45.9439386" lon="11.651263"><ele>1484.0</ele><time>2026-04-25T08:16:27.48Z</time></trkpt><trkpt lat="45.9438455" lon="11.6515179"><ele>1484.8333333333335</ele><time>2026-04-25T08:16:31.465Z</time></trkpt><trkpt lat="45.9438318" lon="11.6516212"><ele>1485.6666666666667</ele><time>2026-04-25T08:16:32.473Z</time></trkpt><trkpt lat="45.9438282" lon="11.6517261"><ele>1486.5</ele><time>2026-04-25T08:16:33.467Z</time></trkpt><trkpt lat="45.9438252" lon="11.651819"><ele>1487.3333333333333</ele><time>2026-04-25T08:16:34.469Z</time></trkpt><trkpt lat="45.9438469" lon="11.6520178"><ele>1488.1666666666665</ele><time>2026-04-25T08:16:36.465Z</time></trkpt><trkpt lat="45.9438551" lon="11.6521437"><ele>1489.0</ele><time>2026-04-25T08:16:37.475Z</time></trkpt><trkpt lat="45.9438538" lon="11.6522421"><ele>1489.5</ele><time>2026-04-25T08:16:38.483Z</time></trkpt><trkpt lat="45.9438563" lon="11.6523463"><ele>1490.0</ele><time>2026-04-25T08:16:39.474Z</time></trkpt><trkpt lat="45.9438506" lon="11.6524661"><ele>1490.5</ele><time>2026-04-25T08:16:40.48Z</time></trkpt><trkpt lat="45.9438209" lon="11.6525552"><ele>1491.0</ele><time>2026-04-25T08:16:41.485Z</time></trkpt><trkpt lat="45.9437831" lon="11.652644"><ele>1491.5</ele><time>2026-04-25T08:16:42.489Z</time></trkpt><trkpt lat="45.9437388" lon="11.6527394"><ele>1492.0</ele><time>2026-04-25T08:16:43.488Z</time></trkpt><trkpt lat="45.9436883" lon="11.6528326"><ele>1493.8</ele><time>2026-04-25T08:16:44.479Z</time></trkpt><trkpt lat="45.9436409" lon="11.6529199"><ele>1495.6</ele><time>2026-04-25T08:16:45.492Z</time></trkpt><trkpt lat="45.9436041" lon="11.6530064"><ele>1497.3999999999999</ele><time>2026-04-25T08:16:46.474Z</time></trkpt><trkpt lat="45.9435722" lon="11.6531121"><ele>1499.1999999999998</ele><time>2026-04-25T08:16:47.469Z</time></trkpt><trkpt lat="45.9435573" lon="11.6532916"><ele>1501.0</ele><time>2026-04-25T08:16:49.497Z</time></trkpt><trkpt lat="45.9434256" lon="11.653492"><ele>1499.8333333333333</ele><time>2026-04-25T08:16:53.473Z</time></trkpt><trkpt lat="45.9433537" lon="11.6535027"><ele>1498.6666666666665</ele><time>2026-04-25T08:16:54.477Z</time></trkpt><trkpt lat="45.9432743" lon="11.6535209"><ele>1497.5</ele><time>2026-04-25T08:16:55.474Z</time></trkpt><trkpt lat="45.9431997" lon="11.6535445"><ele>1496.3333333333333</ele><time>2026-04-25T08:16:56.475Z</time></trkpt><trkpt lat="45.9431251" lon="11.6535915"><ele>1495.1666666666667</ele><time>2026-04-25T08:16:57.486Z</time></trkpt><trkpt lat="45.9430506" lon="11.6536474"><ele>1494.0</ele><time>2026-04-25T08:16:58.488Z</time></trkpt><trkpt lat="45.942981" lon="11.6537021"><ele>1494.0</ele><time>2026-04-25T08:16:59.47Z</time></trkpt><trkpt lat="45.9429134" lon="11.6537504"><ele>1494.0</ele><time>2026-04-25T08:17:00.475Z</time></trkpt><trkpt lat="45.9428451" lon="11.6538244"><ele>1494.0</ele><time>2026-04-25T08:17:01.468Z</time></trkpt><trkpt lat="45.9427859" lon="11.6538954"><ele>1494.0</ele><time>2026-04-25T08:17:02.455Z</time></trkpt><trkpt lat="45.9427328" lon="11.6539779"><ele>1494.0</ele><time>2026-04-25T08:17:03.449Z</time></trkpt><trkpt lat="45.9426863" lon="11.6540874"><ele>1494.0</ele><time>2026-04-25T08:17:04.464Z</time></trkpt><trkpt lat="45.9426451" lon="11.6542062"><ele>1494.0</ele><time>2026-04-25T08:17:05.462Z</time></trkpt><trkpt lat="45.9426172" lon="11.6543133"><ele>1494.0</ele><time>2026-04-25T08:17:06.456Z</time></trkpt><trkpt lat="45.942585" lon="11.6544094"><ele>1494.0</ele><time>2026-04-25T08:17:07.459Z</time></trkpt><trkpt lat="45.9425557" lon="11.6544997"><ele>1494.0</ele><time>2026-04-25T08:17:08.45Z</time></trkpt><trkpt lat="45.9425168" lon="11.6546366"><ele>1494.0</ele><time>2026-04-25T08:17:10.452Z</time></trkpt><trkpt lat="45.9423311" lon="11.6546672"><ele>1492.5</ele><time>2026-04-25T08:17:14.447Z</time></trkpt><trkpt lat="45.9422717" lon="11.6546307"><ele>1491.0</ele><time>2026-04-25T08:17:15.453Z</time></trkpt><trkpt lat="45.9421551" lon="11.6545712"><ele>1489.5</ele><time>2026-04-25T08:17:17.461Z</time></trkpt><trkpt lat="45.9420874" lon="11.6545573"><ele>1488.0</ele><time>2026-04-25T08:17:18.454Z</time></trkpt><trkpt lat="45.9420165" lon="11.6545577"><ele>1486.5</ele><time>2026-04-25T08:17:19.461Z</time></trkpt><trkpt lat="45.9419362" lon="11.654571"><ele>1485.0</ele><time>2026-04-25T08:17:20.47Z</time></trkpt><trkpt lat="45.941863" lon="11.6545925"><ele>1485.0</ele><time>2026-04-25T08:17:21.453Z</time></trkpt><trkpt lat="45.9417678" lon="11.6546652"><ele>1485.0</ele><time>2026-04-25T08:17:23.457Z</time></trkpt><trkpt lat="45.9417163" lon="11.6547177"><ele>1485.0</ele><time>2026-04-25T08:17:24.454Z</time></trkpt><trkpt lat="45.9416543" lon="11.6548701"><ele>1485.0</ele><time>2026-04-25T08:17:26.46Z</time></trkpt><trkpt lat="45.941636" lon="11.6549582"><ele>1485.0</ele><time>2026-04-25T08:17:27.465Z</time></trkpt><trkpt lat="45.9416113" lon="11.6550479"><ele>1485.0</ele><time>2026-04-25T08:17:28.453Z</time></trkpt><trkpt lat="45.9415477" lon="11.6551263"><ele>1481.5</ele><time>2026-04-25T08:17:30.454Z</time></trkpt><trkpt lat="45.9414394" lon="11.6551497"><ele>1478.0</ele><time>2026-04-25T08:17:32.459Z</time></trkpt><trkpt lat="45.9412756" lon="11.6550488"><ele>1474.5</ele><time>2026-04-25T08:17:37.461Z</time></trkpt><trkpt lat="45.9411952" lon="11.6550286"><ele>1471.0</ele><time>2026-04-25T08:17:39.455Z</time></trkpt><trkpt lat="45.9411136" lon="11.6550309"><ele>1471.0</ele><time>2026-04-25T08:17:41.456Z</time></trkpt><trkpt lat="45.9410367" lon="11.6550646"><ele>1471.0</ele><time>2026-04-25T08:17:43.455Z</time></trkpt><trkpt lat="45.9409659" lon="11.6552033"><ele>1471.0</ele><time>2026-04-25T08:17:45.454Z</time></trkpt><trkpt lat="45.9408934" lon="11.6552895"><ele>1471.0</ele><time>2026-04-25T08:17:47.453Z</time></trkpt><trkpt lat="45.9408002" lon="11.6553091"><ele>1471.0</ele><time>2026-04-25T08:17:49.456Z</time></trkpt><trkpt lat="45.940672" lon="11.6552458"><ele>1469.5</ele><time>2026-04-25T08:17:51.464Z</time></trkpt><trkpt lat="45.940596" lon="11.6552325"><ele>1468.0</ele><time>2026-04-25T08:17:52.447Z</time></trkpt><trkpt lat="45.9405271" lon="11.6552441"><ele>1466.5</ele><time>2026-04-25T08:17:53.462Z</time></trkpt><trkpt lat="45.9403359" lon="11.6552555"><ele>1465.0</ele><time>2026-04-25T08:17:56.464Z</time></trkpt><trkpt lat="45.9402229" lon="11.6553011"><ele>1466.8333333333333</ele><time>2026-04-25T08:17:58.46Z</time></trkpt><trkpt lat="45.9401389" lon="11.6553237"><ele>1468.6666666666665</ele><time>2026-04-25T08:17:59.454Z</time></trkpt><trkpt lat="45.9400562" lon="11.6553605"><ele>1470.5</ele><time>2026-04-25T08:18:00.47Z</time></trkpt><trkpt lat="45.9399811" lon="11.655406"><ele>1472.3333333333333</ele><time>2026-04-25T08:18:01.471Z</time></trkpt><trkpt lat="45.9399186" lon="11.6554565"><ele>1474.1666666666667</ele><time>2026-04-25T08:18:02.456Z</time></trkpt><trkpt lat="45.9398462" lon="11.655496"><ele>1476.0</ele><time>2026-04-25T08:18:03.454Z</time></trkpt><trkpt lat="45.9397373" lon="11.6555726"><ele>1476.0</ele><time>2026-04-25T08:18:05.456Z</time></trkpt><trkpt lat="45.939673" lon="11.6556254"><ele>1476.0</ele><time>2026-04-25T08:18:06.456Z</time></trkpt><trkpt lat="45.9396135" lon="11.65567"><ele>1476.0</ele><time>2026-04-25T08:18:07.459Z</time></trkpt><trkpt lat="45.9395489" lon="11.655708"><ele>1476.0</ele><time>2026-04-25T08:18:08.46Z</time></trkpt><trkpt lat="45.9394902" lon="11.6557438"><ele>1476.0</ele><time>2026-04-25T08:18:09.458Z</time></trkpt><trkpt lat="45.939422" lon="11.6558031"><ele>1476.0</ele><time>2026-04-25T08:18:10.456Z</time></trkpt><trkpt lat="45.9393574" lon="11.65585"><ele>1476.0</ele><time>2026-04-25T08:18:11.458Z</time></trkpt><trkpt lat="45.9392894" lon="11.6558994"><ele>1473.4</ele><time>2026-04-25T08:18:12.462Z</time></trkpt><trkpt lat="45.9391662" lon="11.655954"><ele>1470.8</ele><time>2026-04-25T08:18:14.452Z</time></trkpt><trkpt lat="45.9390231" lon="11.6559618"><ele>1468.2</ele><time>2026-04-25T08:18:16.458Z</time></trkpt><trkpt lat="45.9389503" lon="11.6559533"><ele>1465.6000000000001</ele><time>2026-04-25T08:18:17.462Z</time></trkpt><trkpt lat="45.9388522" lon="11.6559517"><ele>1463.0</ele><time>2026-04-25T08:18:18.459Z</time></trkpt><trkpt lat="45.9387657" lon="11.6559534"><ele>1463.0</ele><time>2026-04-25T08:18:19.456Z</time></trkpt><trkpt lat="45.9386903" lon="11.6559626"><ele>1463.0</ele><time>2026-04-25T08:18:20.456Z</time></trkpt><trkpt lat="45.9385957" lon="11.6559382"><ele>1463.0</ele><time>2026-04-25T08:18:21.448Z</time></trkpt><trkpt lat="45.9385059" lon="11.6559285"><ele>1463.0</ele><time>2026-04-25T08:18:22.462Z</time></trkpt><trkpt lat="45.9384031" lon="11.6559215"><ele>1463.0</ele><time>2026-04-25T08:18:23.454Z</time></trkpt><trkpt lat="45.9383102" lon="11.6559139"><ele>1462.3333333333335</ele><time>2026-04-25T08:18:24.474Z</time></trkpt><trkpt lat="45.9382093" lon="11.6559061"><ele>1461.6666666666667</ele><time>2026-04-25T08:18:25.474Z</time></trkpt><trkpt lat="45.9381174" lon="11.6558991"><ele>1461.0</ele><time>2026-04-25T08:18:26.475Z</time></trkpt><trkpt lat="45.9380369" lon="11.6558877"><ele>1460.3333333333333</ele><time>2026-04-25T08:18:27.469Z</time></trkpt><trkpt lat="45.937966" lon="11.6558817"><ele>1459.6666666666665</ele><time>2026-04-25T08:18:28.471Z</time></trkpt><trkpt lat="45.9378651" lon="11.6558576"><ele>1459.0</ele><time>2026-04-25T08:18:30.469Z</time></trkpt><trkpt lat="45.9379487" lon="11.6558021"><ele>1459.0</ele><time>2026-04-25T08:18:36.465Z</time></trkpt><trkpt lat="45.9381226" lon="11.6557676"><ele>1459.0</ele><time>2026-04-25T08:18:39.456Z</time></trkpt><trkpt lat="45.9381896" lon="11.6557526"><ele>1459.0</ele><time>2026-04-25T08:18:40.468Z</time></trkpt><trkpt lat="45.9383107" lon="11.6557186"><ele>1459.0</ele><time>2026-04-25T08:18:42.467Z</time></trkpt><trkpt lat="45.9383725" lon="11.6556974"><ele>1459.0</ele><time>2026-04-25T08:18:43.456Z</time></trkpt><trkpt lat="45.9384365" lon="11.6556804"><ele>1460.0</ele><time>2026-04-25T08:18:44.447Z</time></trkpt><trkpt lat="45.9385518" lon="11.6556538"><ele>1461.0</ele><time>2026-04-25T08:18:46.456Z</time></trkpt><trkpt lat="45.9386603" lon="11.6556474"><ele>1462.0</ele><time>2026-04-25T08:18:48.454Z</time></trkpt><trkpt lat="45.938771" lon="11.6556138"><ele>1463.0</ele><time>2026-04-25T08:18:50.456Z</time></trkpt><trkpt lat="45.9388839" lon="11.6555991"><ele>1463.0</ele><time>2026-04-25T08:18:52.464Z</time></trkpt><trkpt lat="45.938984" lon="11.6555625"><ele>1463.0</ele><time>2026-04-25T08:18:54.454Z</time></trkpt><trkpt lat="45.9390336" lon="11.6554927"><ele>1463.0</ele><time>2026-04-25T08:18:55.453Z</time></trkpt><trkpt lat="45.9390796" lon="11.6554117"><ele>1463.0</ele><time>2026-04-25T08:18:56.46Z</time></trkpt><trkpt lat="45.9391277" lon="11.6553274"><ele>1463.0</ele><time>2026-04-25T08:18:57.473Z</time></trkpt><trkpt lat="45.939217" lon="11.6551591"><ele>1462.0</ele><time>2026-04-25T08:18:59.459Z</time></trkpt><trkpt lat="45.9392537" lon="11.6550788"><ele>1461.0</ele><time>2026-04-25T08:19:00.454Z</time></trkpt><trkpt lat="45.9392932" lon="11.6550059"><ele>1460.0</ele><time>2026-04-25T08:19:01.453Z</time></trkpt><trkpt lat="45.939344" lon="11.6549388"><ele>1459.0</ele><time>2026-04-25T08:19:02.463Z</time></trkpt><trkpt lat="45.9394112" lon="11.6548773"><ele>1458.0</ele><time>2026-04-25T08:19:03.451Z</time></trkpt><trkpt lat="45.9394815" lon="11.6548201"><ele>1457.0</ele><time>2026-04-25T08:19:04.462Z</time></trkpt><trkpt lat="45.9395353" lon="11.6547659"><ele>1456.0</ele><time>2026-04-25T08:19:05.454Z</time></trkpt><trkpt lat="45.9395952" lon="11.6547228"><ele>1456.0</ele><time>2026-04-25T08:19:06.459Z</time></trkpt><trkpt lat="45.9396928" lon="11.6546293"><ele>1456.0</ele><time>2026-04-25T08:19:08.459Z</time></trkpt><trkpt lat="45.9397404" lon="11.6545665"><ele>1456.0</ele><time>2026-04-25T08:19:09.458Z</time></trkpt><trkpt lat="45.9397834" lon="11.6545003"><ele>1456.0</ele><time>2026-04-25T08:19:10.456Z</time></trkpt><trkpt lat="45.9398488" lon="11.6543811"><ele>1456.0</ele><time>2026-04-25T08:19:12.457Z</time></trkpt><trkpt lat="45.9398968" lon="11.6542734"><ele>1456.0</ele><time>2026-04-25T08:19:14.459Z</time></trkpt><trkpt lat="45.9399442" lon="11.6541897"><ele>1454.25</ele><time>2026-04-25T08:19:16.461Z</time></trkpt><trkpt lat="45.9400292" lon="11.6540095"><ele>1452.5</ele><time>2026-04-25T08:19:32.455Z</time></trkpt><trkpt lat="45.94019" lon="11.6539024"><ele>1450.75</ele><time>2026-04-25T08:19:38.45Z</time></trkpt><trkpt lat="45.9402358" lon="11.6538389"><ele>1449.0</ele><time>2026-04-25T08:19:40.463Z</time></trkpt><trkpt lat="45.9402935" lon="11.6537829"><ele>1449.0</ele><time>2026-04-25T08:19:42.473Z</time></trkpt><trkpt lat="45.9403512" lon="11.6537277"><ele>1449.0</ele><time>2026-04-25T08:19:44.458Z</time></trkpt><trkpt lat="45.9404168" lon="11.6536783"><ele>1449.0</ele><time>2026-04-25T08:19:46.453Z</time></trkpt><trkpt lat="45.9404809" lon="11.6536423"><ele>1449.0</ele><time>2026-04-25T08:19:48.454Z</time></trkpt><trkpt lat="45.9405386" lon="11.6535967"><ele>1449.0</ele><time>2026-04-25T08:19:55.458Z</time></trkpt><trkpt lat="45.9405957" lon="11.6533952"><ele>1449.0</ele><time>2026-04-25T08:20:06.461Z</time></trkpt><trkpt lat="45.9406377" lon="11.6532756"><ele>1444.2</ele><time>2026-04-25T08:20:08.457Z</time></trkpt><trkpt lat="45.940692" lon="11.6531482"><ele>1439.4</ele><time>2026-04-25T08:20:10.456Z</time></trkpt><trkpt lat="45.9407596" lon="11.6530203"><ele>1434.6</ele><time>2026-04-25T08:20:12.482Z</time></trkpt><trkpt lat="45.9408044" lon="11.6529554"><ele>1429.8</ele><time>2026-04-25T08:20:13.464Z</time></trkpt><trkpt lat="45.9408527" lon="11.6528904"><ele>1425.0</ele><time>2026-04-25T08:20:14.465Z</time></trkpt><trkpt lat="45.9409207" lon="11.6527599"><ele>1424.5</ele><time>2026-04-25T08:20:16.454Z</time></trkpt><trkpt lat="45.940957" lon="11.6524864"><ele>1424.0</ele><time>2026-04-25T08:20:20.457Z</time></trkpt><trkpt lat="45.9409118" lon="11.6523758"><ele>1423.5</ele><time>2026-04-25T08:20:22.457Z</time></trkpt><trkpt lat="45.9408206" lon="11.6523429"><ele>1423.0</ele><time>2026-04-25T08:20:24.466Z</time></trkpt><trkpt lat="45.9407164" lon="11.6524107"><ele>1421.8000000000002</ele><time>2026-04-25T08:20:26.465Z</time></trkpt><trkpt lat="45.9406612" lon="11.6524649"><ele>1420.6</ele><time>2026-04-25T08:20:27.455Z</time></trkpt><trkpt lat="45.9405701" lon="11.65258"><ele>1419.4</ele><time>2026-04-25T08:20:29.452Z</time></trkpt><trkpt lat="45.9404706" lon="11.652643"><ele>1418.1999999999998</ele><time>2026-04-25T08:20:31.458Z</time></trkpt><trkpt lat="45.9403482" lon="11.6526213"><ele>1417.0</ele><time>2026-04-25T08:20:33.468Z</time></trkpt><trkpt lat="45.9402262" lon="11.6526094"><ele>1417.0</ele><time>2026-04-25T08:20:35.457Z</time></trkpt><trkpt lat="45.9401562" lon="11.6526344"><ele>1417.0</ele><time>2026-04-25T08:20:36.466Z</time></trkpt><trkpt lat="45.9400777" lon="11.6526713"><ele>1417.0</ele><time>2026-04-25T08:20:37.463Z</time></trkpt><trkpt lat="45.9399198" lon="11.6527537"><ele>1417.0</ele><time>2026-04-25T08:20:39.457Z</time></trkpt><trkpt lat="45.9398403" lon="11.6528069"><ele>1417.0</ele><time>2026-04-25T08:20:40.457Z</time></trkpt><trkpt lat="45.9397614" lon="11.6528582"><ele>1416.4285714285713</ele><time>2026-04-25T08:20:41.473Z</time></trkpt><trkpt lat="45.9396908" lon="11.6528905"><ele>1415.857142857143</ele><time>2026-04-25T08:20:42.461Z</time></trkpt><trkpt lat="45.9396289" lon="11.6529192"><ele>1415.2857142857142</ele><time>2026-04-25T08:20:43.456Z</time></trkpt><trkpt lat="45.939571" lon="11.6529644"><ele>1414.7142857142858</ele><time>2026-04-25T08:20:44.454Z</time></trkpt><trkpt lat="45.9395122" lon="11.6530227"><ele>1414.142857142857</ele><time>2026-04-25T08:20:45.459Z</time></trkpt><trkpt lat="45.9394462" lon="11.6530945"><ele>1413.5714285714284</ele><time>2026-04-25T08:20:46.463Z</time></trkpt><trkpt lat="45.939378" lon="11.6531685"><ele>1413.0</ele><time>2026-04-25T08:20:47.453Z</time></trkpt><trkpt lat="45.9393085" lon="11.6532412"><ele>1413.0</ele><time>2026-04-25T08:20:48.457Z</time></trkpt><trkpt lat="45.9392317" lon="11.6532928"><ele>1413.0</ele><time>2026-04-25T08:20:49.463Z</time></trkpt><trkpt lat="45.9391542" lon="11.653326"><ele>1413.0</ele><time>2026-04-25T08:20:50.451Z</time></trkpt><trkpt lat="45.9390723" lon="11.6533445"><ele>1413.0</ele><time>2026-04-25T08:20:51.445Z</time></trkpt><trkpt lat="45.9389816" lon="11.6533645"><ele>1413.0</ele><time>2026-04-25T08:20:52.464Z</time></trkpt><trkpt lat="45.9388727" lon="11.6533671"><ele>1413.0</ele><time>2026-04-25T08:20:53.454Z</time></trkpt><trkpt lat="45.9387623" lon="11.6533595"><ele>1411.2</ele><time>2026-04-25T08:20:54.459Z</time></trkpt><trkpt lat="45.9386526" lon="11.6533491"><ele>1409.4</ele><time>2026-04-25T08:20:55.464Z</time></trkpt><trkpt lat="45.9385489" lon="11.6533407"><ele>1407.6000000000001</ele><time>2026-04-25T08:20:56.456Z</time></trkpt><trkpt lat="45.9384396" lon="11.6533363"><ele>1405.8000000000002</ele><time>2026-04-25T08:20:57.465Z</time></trkpt><trkpt lat="45.9383365" lon="11.6533403"><ele>1404.0</ele><time>2026-04-25T08:20:58.452Z</time></trkpt><trkpt lat="45.9381489" lon="11.6533541"><ele>1402.1666666666667</ele><time>2026-04-25T08:21:00.46Z</time></trkpt><trkpt lat="45.938066" lon="11.6533597"><ele>1400.3333333333333</ele><time>2026-04-25T08:21:01.457Z</time></trkpt><trkpt lat="45.9379858" lon="11.653371"><ele>1398.5</ele><time>2026-04-25T08:21:02.452Z</time></trkpt><trkpt lat="45.9379102" lon="11.6533809"><ele>1396.6666666666665</ele><time>2026-04-25T08:21:03.471Z</time></trkpt><trkpt lat="45.9378384" lon="11.65339"><ele>1394.8333333333333</ele><time>2026-04-25T08:21:04.46Z</time></trkpt><trkpt lat="45.9377614" lon="11.6533914"><ele>1393.0</ele><time>2026-04-25T08:21:05.462Z</time></trkpt><trkpt lat="45.9376889" lon="11.6533945"><ele>1393.0</ele><time>2026-04-25T08:21:06.476Z</time></trkpt><trkpt lat="45.9376195" lon="11.6533744"><ele>1393.0</ele><time>2026-04-25T08:21:07.462Z</time></trkpt><trkpt lat="45.937551" lon="11.6533354"><ele>1393.0</ele><time>2026-04-25T08:21:08.464Z</time></trkpt><trkpt lat="45.9374693" lon="11.6532803"><ele>1393.0</ele><time>2026-04-25T08:21:09.456Z</time></trkpt><trkpt lat="45.9373857" lon="11.6532226"><ele>1393.0</ele><time>2026-04-25T08:21:10.46Z</time></trkpt><trkpt lat="45.9373051" lon="11.6531689"><ele>1393.0</ele><time>2026-04-25T08:21:11.444Z</time></trkpt><trkpt lat="45.9372237" lon="11.6531524"><ele>1392.8333333333333</ele><time>2026-04-25T08:21:12.462Z</time></trkpt><trkpt lat="45.9371437" lon="11.6531497"><ele>1392.6666666666665</ele><time>2026-04-25T08:21:13.465Z</time></trkpt><trkpt lat="45.9370675" lon="11.6531506"><ele>1392.5</ele><time>2026-04-25T08:21:14.468Z</time></trkpt><trkpt lat="45.936995" lon="11.6531451"><ele>1392.3333333333333</ele><time>2026-04-25T08:21:15.458Z</time></trkpt><trkpt lat="45.9369264" lon="11.6531271"><ele>1392.1666666666667</ele><time>2026-04-25T08:21:16.465Z</time></trkpt><trkpt lat="45.9368523" lon="11.6531065"><ele>1392.0</ele><time>2026-04-25T08:21:17.455Z</time></trkpt><trkpt lat="45.9367735" lon="11.6530732"><ele>1390.8</ele><time>2026-04-25T08:21:18.455Z</time></trkpt><trkpt lat="45.9366951" lon="11.6530412"><ele>1389.6</ele><time>2026-04-25T08:21:19.449Z</time></trkpt><trkpt lat="45.9365178" lon="11.6529926"><ele>1388.3999999999999</ele><time>2026-04-25T08:21:21.455Z</time></trkpt><trkpt lat="45.9364274" lon="11.6529818"><ele>1387.1999999999998</ele><time>2026-04-25T08:21:22.462Z</time></trkpt><trkpt lat="45.9363413" lon="11.6529727"><ele>1386.0</ele><time>2026-04-25T08:21:23.462Z</time></trkpt><trkpt lat="45.9362635" lon="11.6529471"><ele>1386.0</ele><time>2026-04-25T08:21:24.461Z</time></trkpt><trkpt lat="45.9361959" lon="11.6529"><ele>1386.0</ele><time>2026-04-25T08:21:25.469Z</time></trkpt><trkpt lat="45.9361183" lon="11.6528534"><ele>1386.0</ele><time>2026-04-25T08:21:26.45Z</time></trkpt><trkpt lat="45.9360288" lon="11.6528063"><ele>1386.0</ele><time>2026-04-25T08:21:27.454Z</time></trkpt><trkpt lat="45.9359355" lon="11.6527627"><ele>1386.0</ele><time>2026-04-25T08:21:28.453Z</time></trkpt><trkpt lat="45.9358406" lon="11.6527074"><ele>1384.1999999999998</ele><time>2026-04-25T08:21:29.461Z</time></trkpt><trkpt lat="45.9357352" lon="11.6526377"><ele>1382.3999999999999</ele><time>2026-04-25T08:21:30.445Z</time></trkpt><trkpt lat="45.9356339" lon="11.6525747"><ele>1380.6</ele><time>2026-04-25T08:21:31.462Z</time></trkpt><trkpt lat="45.9355465" lon="11.6525144"><ele>1378.8</ele><time>2026-04-25T08:21:32.462Z</time></trkpt><trkpt lat="45.935465" lon="11.6524616"><ele>1377.0</ele><time>2026-04-25T08:21:33.448Z</time></trkpt><trkpt lat="45.9353795" lon="11.6524211"><ele>1377.0</ele><time>2026-04-25T08:21:34.447Z</time></trkpt><trkpt lat="45.9352899" lon="11.6523802"><ele>1377.0</ele><time>2026-04-25T08:21:35.465Z</time></trkpt><trkpt lat="45.9351981" lon="11.6523386"><ele>1377.0</ele><time>2026-04-25T08:21:36.464Z</time></trkpt><trkpt lat="45.9351051" lon="11.6523101"><ele>1377.0</ele><time>2026-04-25T08:21:37.456Z</time></trkpt><trkpt lat="45.9350169" lon="11.6522835"><ele>1377.0</ele><time>2026-04-25T08:21:38.458Z</time></trkpt><trkpt lat="45.9349363" lon="11.6522606"><ele>1373.6</ele><time>2026-04-25T08:21:39.466Z</time></trkpt><trkpt lat="45.9348573" lon="11.6522569"><ele>1370.1999999999998</ele><time>2026-04-25T08:21:40.453Z</time></trkpt><trkpt lat="45.9346934" lon="11.6522346"><ele>1366.8</ele><time>2026-04-25T08:21:43.468Z</time></trkpt><trkpt lat="45.9346261" lon="11.6522085"><ele>1363.4</ele><time>2026-04-25T08:21:45.466Z</time></trkpt><trkpt lat="45.9345528" lon="11.6521457"><ele>1360.0</ele><time>2026-04-25T08:21:48.453Z</time></trkpt><trkpt lat="45.9345017" lon="11.652041"><ele>1360.0</ele><time>2026-04-25T08:21:51.451Z</time></trkpt><trkpt lat="45.9344287" lon="11.651989"><ele>1360.0</ele><time>2026-04-25T08:23:20.453Z</time></trkpt><trkpt lat="45.9343299" lon="11.6518005"><ele>1360.0</ele><time>2026-04-25T08:23:24.454Z</time></trkpt><trkpt lat="45.9342724" lon="11.651656"><ele>1360.0</ele><time>2026-04-25T08:23:26.457Z</time></trkpt><trkpt lat="45.9342272" lon="11.6515399"><ele>1361.0</ele><time>2026-04-25T08:23:27.457Z</time></trkpt><trkpt lat="45.9341762" lon="11.6514296"><ele>1362.0</ele><time>2026-04-25T08:23:28.457Z</time></trkpt><trkpt lat="45.9341091" lon="11.6512768"><ele>1363.0</ele><time>2026-04-25T08:23:29.472Z</time></trkpt><trkpt lat="45.934028" lon="11.6511273"><ele>1364.0</ele><time>2026-04-25T08:23:30.466Z</time></trkpt><trkpt lat="45.9339543" lon="11.6509982"><ele>1364.0</ele><time>2026-04-25T08:23:31.467Z</time></trkpt><trkpt lat="45.9338873" lon="11.6508841"><ele>1364.0</ele><time>2026-04-25T08:23:32.467Z</time></trkpt><trkpt lat="45.9338385" lon="11.6508033"><ele>1364.0</ele><time>2026-04-25T08:23:33.456Z</time></trkpt><trkpt lat="45.9337911" lon="11.6507271"><ele>1364.0</ele><time>2026-04-25T08:23:34.47Z</time></trkpt><trkpt lat="45.9337352" lon="11.6506427"><ele>1364.0</ele><time>2026-04-25T08:23:35.467Z</time></trkpt><trkpt lat="45.9336748" lon="11.6505649"><ele>1364.0</ele><time>2026-04-25T08:23:36.465Z</time></trkpt><trkpt lat="45.9336145" lon="11.650486"><ele>1364.0</ele><time>2026-04-25T08:23:37.452Z</time></trkpt><trkpt lat="45.9335556" lon="11.6503929"><ele>1364.0</ele><time>2026-04-25T08:23:38.453Z</time></trkpt><trkpt lat="45.9335095" lon="11.6503025"><ele>1364.0</ele><time>2026-04-25T08:23:39.457Z</time></trkpt><trkpt lat="45.9334665" lon="11.6502186"><ele>1364.0</ele><time>2026-04-25T08:23:40.454Z</time></trkpt><trkpt lat="45.933425" lon="11.6501293"><ele>1364.0</ele><time>2026-04-25T08:23:41.452Z</time></trkpt><trkpt lat="45.9333497" lon="11.6499652"><ele>1364.0</ele><time>2026-04-25T08:23:43.463Z</time></trkpt><trkpt lat="45.9333145" lon="11.6498475"><ele>1363.8333333333335</ele><time>2026-04-25T08:23:44.466Z</time></trkpt><trkpt lat="45.933291" lon="11.6497395"><ele>1363.6666666666667</ele><time>2026-04-25T08:23:45.47Z</time></trkpt><trkpt lat="45.9332706" lon="11.649638"><ele>1363.5</ele><time>2026-04-25T08:23:46.45Z</time></trkpt><trkpt lat="45.9332577" lon="11.6495437"><ele>1363.3333333333333</ele><time>2026-04-25T08:23:47.466Z</time></trkpt><trkpt lat="45.9332675" lon="11.649359"><ele>1363.1666666666665</ele><time>2026-04-25T08:23:49.456Z</time></trkpt><trkpt lat="45.9332965" lon="11.6492628"><ele>1363.0</ele><time>2026-04-25T08:23:50.465Z</time></trkpt><trkpt lat="45.9333326" lon="11.6491605"><ele>1363.0</ele><time>2026-04-25T08:23:51.452Z</time></trkpt><trkpt lat="45.9333765" lon="11.6490497"><ele>1363.0</ele><time>2026-04-25T08:23:52.452Z</time></trkpt><trkpt lat="45.9334263" lon="11.6489278"><ele>1363.0</ele><time>2026-04-25T08:23:53.455Z</time></trkpt><trkpt lat="45.9334841" lon="11.6487713"><ele>1363.0</ele><time>2026-04-25T08:23:54.46Z</time></trkpt><trkpt lat="45.9335403" lon="11.6485873"><ele>1370.0</ele><time>2026-04-25T08:23:55.455Z</time></trkpt><trkpt lat="45.9335972" lon="11.6483752"><ele>1377.0</ele><time>2026-04-25T08:23:56.457Z</time></trkpt><trkpt lat="45.9336509" lon="11.648173"><ele>1384.0</ele><time>2026-04-25T08:23:57.455Z</time></trkpt><trkpt lat="45.9337034" lon="11.6480063"><ele>1391.0</ele><time>2026-04-25T08:23:58.461Z</time></trkpt><trkpt lat="45.9337521" lon="11.647855"><ele>1387.8</ele><time>2026-04-25T08:23:59.456Z</time></trkpt><trkpt lat="45.9338011" lon="11.6477364"><ele>1384.6</ele><time>2026-04-25T08:24:00.454Z</time></trkpt><trkpt lat="45.9338582" lon="11.6476298"><ele>1381.4</ele><time>2026-04-25T08:24:01.458Z</time></trkpt><trkpt lat="45.9339068" lon="11.6475406"><ele>1378.2</ele><time>2026-04-25T08:24:02.475Z</time></trkpt><trkpt lat="45.9340152" lon="11.6473734"><ele>1375.0</ele><time>2026-04-25T08:24:04.469Z</time></trkpt><trkpt lat="45.9340621" lon="11.6472577"><ele>1375.0</ele><time>2026-04-25T08:24:05.444Z</time></trkpt><trkpt lat="45.9341076" lon="11.6471541"><ele>1375.0</ele><time>2026-04-25T08:24:06.455Z</time></trkpt><trkpt lat="45.9341517" lon="11.6470457"><ele>1375.0</ele><time>2026-04-25T08:24:07.463Z</time></trkpt><trkpt lat="45.9341987" lon="11.6469191"><ele>1375.0</ele><time>2026-04-25T08:24:08.455Z</time></trkpt><trkpt lat="45.9342505" lon="11.6467796"><ele>1375.0</ele><time>2026-04-25T08:24:09.455Z</time></trkpt><trkpt lat="45.9343034" lon="11.6466419"><ele>1376.0</ele><time>2026-04-25T08:24:10.458Z</time></trkpt><trkpt lat="45.9343574" lon="11.6465014"><ele>1377.0</ele><time>2026-04-25T08:24:11.463Z</time></trkpt><trkpt lat="45.9344173" lon="11.6463474"><ele>1378.0</ele><time>2026-04-25T08:24:12.468Z</time></trkpt><trkpt lat="45.934492" lon="11.646182"><ele>1379.0</ele><time>2026-04-25T08:24:13.456Z</time></trkpt><trkpt lat="45.9345639" lon="11.6460241"><ele>1379.0</ele><time>2026-04-25T08:24:14.462Z</time></trkpt><trkpt lat="45.9346197" lon="11.6458901"><ele>1379.0</ele><time>2026-04-25T08:24:15.449Z</time></trkpt><trkpt lat="45.9346558" lon="11.6457693"><ele>1379.0</ele><time>2026-04-25T08:24:16.474Z</time></trkpt><trkpt lat="45.934689" lon="11.6456365"><ele>1379.0</ele><time>2026-04-25T08:24:17.457Z</time></trkpt><trkpt lat="45.9347219" lon="11.6454949"><ele>1379.0</ele><time>2026-04-25T08:24:18.455Z</time></trkpt><trkpt lat="45.9347315" lon="11.6453671"><ele>1378.4</ele><time>2026-04-25T08:24:19.448Z</time></trkpt><trkpt lat="45.9347459" lon="11.6452494"><ele>1377.8000000000002</ele><time>2026-04-25T08:24:20.459Z</time></trkpt><trkpt lat="45.9347754" lon="11.645131"><ele>1377.1999999999998</ele><time>2026-04-25T08:24:21.451Z</time></trkpt><trkpt lat="45.9348232" lon="11.6450076"><ele>1376.6</ele><time>2026-04-25T08:24:22.456Z</time></trkpt><trkpt lat="45.9348742" lon="11.6448936"><ele>1376.0</ele><time>2026-04-25T08:24:23.453Z</time></trkpt><trkpt lat="45.9350047" lon="11.6446384"><ele>1380.5</ele><time>2026-04-25T08:24:25.454Z</time></trkpt><trkpt lat="45.9350822" lon="11.6444964"><ele>1385.0</ele><time>2026-04-25T08:24:26.454Z</time></trkpt><trkpt lat="45.9351649" lon="11.6443382"><ele>1389.5</ele><time>2026-04-25T08:24:27.459Z</time></trkpt><trkpt lat="45.9352435" lon="11.644187"><ele>1394.0</ele><time>2026-04-25T08:24:28.462Z</time></trkpt><trkpt lat="45.9352959" lon="11.6440464"><ele>1394.0</ele><time>2026-04-25T08:24:29.474Z</time></trkpt><trkpt lat="45.9353293" lon="11.6439075"><ele>1394.0</ele><time>2026-04-25T08:24:30.462Z</time></trkpt><trkpt lat="45.9353339" lon="11.6437518"><ele>1394.0</ele><time>2026-04-25T08:24:31.448Z</time></trkpt><trkpt lat="45.9353127" lon="11.6435594"><ele>1394.0</ele><time>2026-04-25T08:24:32.462Z</time></trkpt><trkpt lat="45.935287" lon="11.6433425"><ele>1394.0</ele><time>2026-04-25T08:24:33.459Z</time></trkpt><trkpt lat="45.9352417" lon="11.6431194"><ele>1394.0</ele><time>2026-04-25T08:24:34.463Z</time></trkpt><trkpt lat="45.9352032" lon="11.642915"><ele>1394.0</ele><time>2026-04-25T08:24:35.456Z</time></trkpt><trkpt lat="45.9351754" lon="11.6427577"><ele>1394.0</ele><time>2026-04-25T08:24:36.46Z</time></trkpt><trkpt lat="45.9351537" lon="11.6426134"><ele>1394.0</ele><time>2026-04-25T08:24:37.452Z</time></trkpt><trkpt lat="45.9351511" lon="11.642445"><ele>1394.0</ele><time>2026-04-25T08:24:38.45Z</time></trkpt><trkpt lat="45.9351491" lon="11.6422432"><ele>1394.0</ele><time>2026-04-25T08:24:39.457Z</time></trkpt><trkpt lat="45.935157" lon="11.6420394"><ele>1394.0</ele><time>2026-04-25T08:24:40.451Z</time></trkpt><trkpt lat="45.9351619" lon="11.6418226"><ele>1393.75</ele><time>2026-04-25T08:24:41.453Z</time></trkpt><trkpt lat="45.9351681" lon="11.6415898"><ele>1393.5</ele><time>2026-04-25T08:24:42.46Z</time></trkpt><trkpt lat="45.9351713" lon="11.6413596"><ele>1393.25</ele><time>2026-04-25T08:24:43.456Z</time></trkpt><trkpt lat="45.9351737" lon="11.6411766"><ele>1393.0</ele><time>2026-04-25T08:24:44.458Z</time></trkpt><trkpt lat="45.9352147" lon="11.6408133"><ele>1391.75</ele><time>2026-04-25T08:24:46.453Z</time></trkpt><trkpt lat="45.9352532" lon="11.6406314"><ele>1390.5</ele><time>2026-04-25T08:24:47.455Z</time></trkpt><trkpt lat="45.9353017" lon="11.640464"><ele>1389.25</ele><time>2026-04-25T08:24:48.453Z</time></trkpt><trkpt lat="45.9353559" lon="11.6403093"><ele>1388.0</ele><time>2026-04-25T08:24:49.464Z</time></trkpt><trkpt lat="45.9354103" lon="11.6401716"><ele>1384.75</ele><time>2026-04-25T08:24:50.457Z</time></trkpt><trkpt lat="45.9354679" lon="11.6400344"><ele>1381.5</ele><time>2026-04-25T08:24:51.461Z</time></trkpt><trkpt lat="45.9355335" lon="11.6398978"><ele>1378.25</ele><time>2026-04-25T08:24:52.45Z</time></trkpt><trkpt lat="45.9356051" lon="11.6397704"><ele>1375.0</ele><time>2026-04-25T08:24:53.459Z</time></trkpt><trkpt lat="45.9356874" lon="11.6396468"><ele>1375.0</ele><time>2026-04-25T08:24:54.46Z</time></trkpt><trkpt lat="45.9357801" lon="11.6395227"><ele>1375.0</ele><time>2026-04-25T08:24:55.457Z</time></trkpt><trkpt lat="45.9358786" lon="11.63939"><ele>1375.0</ele><time>2026-04-25T08:24:56.455Z</time></trkpt><trkpt lat="45.9359668" lon="11.6392644"><ele>1375.0</ele><time>2026-04-25T08:24:57.475Z</time></trkpt><trkpt lat="45.9360393" lon="11.6391544"><ele>1377.5</ele><time>2026-04-25T08:24:58.461Z</time></trkpt><trkpt lat="45.9360999" lon="11.6390602"><ele>1380.0</ele><time>2026-04-25T08:24:59.453Z</time></trkpt><trkpt lat="45.9361425" lon="11.6389708"><ele>1382.5</ele><time>2026-04-25T08:25:00.463Z</time></trkpt><trkpt lat="45.9361671" lon="11.6388733"><ele>1385.0</ele><time>2026-04-25T08:25:01.458Z</time></trkpt><trkpt lat="45.9361701" lon="11.6386993"><ele>1387.5</ele><time>2026-04-25T08:25:03.468Z</time></trkpt><trkpt lat="45.9361263" lon="11.6386159"><ele>1390.0</ele><time>2026-04-25T08:25:04.487Z</time></trkpt><trkpt lat="45.9360631" lon="11.6385529"><ele>1390.0</ele><time>2026-04-25T08:25:05.472Z</time></trkpt><trkpt lat="45.9359034" lon="11.6384341"><ele>1390.0</ele><time>2026-04-25T08:25:07.47Z</time></trkpt><trkpt lat="45.9358258" lon="11.6383844"><ele>1390.0</ele><time>2026-04-25T08:25:08.461Z</time></trkpt><trkpt lat="45.9357602" lon="11.638338"><ele>1390.0</ele><time>2026-04-25T08:25:09.466Z</time></trkpt><trkpt lat="45.9356802" lon="11.6382206"><ele>1387.6666666666665</ele><time>2026-04-25T08:25:11.468Z</time></trkpt><trkpt lat="45.93566" lon="11.638129"><ele>1385.3333333333333</ele><time>2026-04-25T08:25:12.463Z</time></trkpt><trkpt lat="45.9356543" lon="11.6380135"><ele>1383.0</ele><time>2026-04-25T08:25:13.486Z</time></trkpt><trkpt lat="45.9356604" lon="11.6378784"><ele>1380.6666666666667</ele><time>2026-04-25T08:25:14.485Z</time></trkpt><trkpt lat="45.9356811" lon="11.6377327"><ele>1378.3333333333335</ele><time>2026-04-25T08:25:15.488Z</time></trkpt><trkpt lat="45.9357027" lon="11.6375992"><ele>1376.0</ele><time>2026-04-25T08:25:16.495Z</time></trkpt><trkpt lat="45.9357308" lon="11.6374743"><ele>1376.0</ele><time>2026-04-25T08:25:17.473Z</time></trkpt><trkpt lat="45.9357747" lon="11.6373705"><ele>1376.0</ele><time>2026-04-25T08:25:18.483Z</time></trkpt><trkpt lat="45.9358254" lon="11.6372856"><ele>1376.0</ele><time>2026-04-25T08:25:19.478Z</time></trkpt><trkpt lat="45.9358852" lon="11.6372196"><ele>1376.0</ele><time>2026-04-25T08:25:20.5Z</time></trkpt><trkpt lat="45.9359528" lon="11.6371738"><ele>1376.0</ele><time>2026-04-25T08:25:21.471Z</time></trkpt><trkpt lat="45.9360331" lon="11.6371482"><ele>1376.0</ele><time>2026-04-25T08:25:22.48Z</time></trkpt><trkpt lat="45.9361357" lon="11.63715"><ele>1377.0</ele><time>2026-04-25T08:25:23.493Z</time></trkpt><trkpt lat="45.9362643" lon="11.6371825"><ele>1378.0</ele><time>2026-04-25T08:25:24.5Z</time></trkpt><trkpt lat="45.9364083" lon="11.637217"><ele>1379.0</ele><time>2026-04-25T08:25:25.492Z</time></trkpt><trkpt lat="45.9365494" lon="11.6372318"><ele>1380.0</ele><time>2026-04-25T08:25:26.49Z</time></trkpt><trkpt lat="45.9367884" lon="11.6372018"><ele>1378.0</ele><time>2026-04-25T08:25:28.479Z</time></trkpt><trkpt lat="45.9369" lon="11.637185"><ele>1376.0</ele><time>2026-04-25T08:25:29.482Z</time></trkpt><trkpt lat="45.9370092" lon="11.6372012"><ele>1374.0</ele><time>2026-04-25T08:25:30.485Z</time></trkpt><trkpt lat="45.9371122" lon="11.6372389"><ele>1372.0</ele><time>2026-04-25T08:25:31.487Z</time></trkpt><trkpt lat="45.9372115" lon="11.6372944"><ele>1370.0</ele><time>2026-04-25T08:25:32.479Z</time></trkpt><trkpt lat="45.9373101" lon="11.6373552"><ele>1370.0</ele><time>2026-04-25T08:25:33.495Z</time></trkpt><trkpt lat="45.9374138" lon="11.6374203"><ele>1370.0</ele><time>2026-04-25T08:25:34.492Z</time></trkpt><trkpt lat="45.9375259" lon="11.6374964"><ele>1370.0</ele><time>2026-04-25T08:25:35.49Z</time></trkpt><trkpt lat="45.9376361" lon="11.6375826"><ele>1370.0</ele><time>2026-04-25T08:25:36.486Z</time></trkpt><trkpt lat="45.9377514" lon="11.6376845"><ele>1367.0</ele><time>2026-04-25T08:25:37.489Z</time></trkpt><trkpt lat="45.9378682" lon="11.6377933"><ele>1364.0</ele><time>2026-04-25T08:25:38.489Z</time></trkpt><trkpt lat="45.9379675" lon="11.6378895"><ele>1361.0</ele><time>2026-04-25T08:25:39.484Z</time></trkpt><trkpt lat="45.9380529" lon="11.6379843"><ele>1358.0</ele><time>2026-04-25T08:25:40.462Z</time></trkpt><trkpt lat="45.9381284" lon="11.6380826"><ele>1358.0</ele><time>2026-04-25T08:25:41.475Z</time></trkpt><trkpt lat="45.9381965" lon="11.6381768"><ele>1358.0</ele><time>2026-04-25T08:25:42.468Z</time></trkpt><trkpt lat="45.9382685" lon="11.6382807"><ele>1358.0</ele><time>2026-04-25T08:25:43.469Z</time></trkpt><trkpt lat="45.9383551" lon="11.6383922"><ele>1358.0</ele><time>2026-04-25T08:25:44.469Z</time></trkpt><trkpt lat="45.9384488" lon="11.6384903"><ele>1358.0</ele><time>2026-04-25T08:25:45.463Z</time></trkpt><trkpt lat="45.9385283" lon="11.6385679"><ele>1357.4</ele><time>2026-04-25T08:25:46.473Z</time></trkpt><trkpt lat="45.938591" lon="11.6386071"><ele>1356.8000000000002</ele><time>2026-04-25T08:25:47.473Z</time></trkpt><trkpt lat="45.9387195" lon="11.6385749"><ele>1356.2</ele><time>2026-04-25T08:25:49.467Z</time></trkpt><trkpt lat="45.9387889" lon="11.6384993"><ele>1355.6</ele><time>2026-04-25T08:25:50.461Z</time></trkpt><trkpt lat="45.9388672" lon="11.6383994"><ele>1355.0</ele><time>2026-04-25T08:25:51.476Z</time></trkpt><trkpt lat="45.9389568" lon="11.6383042"><ele>1355.0</ele><time>2026-04-25T08:25:52.457Z</time></trkpt><trkpt lat="45.9390531" lon="11.6382197"><ele>1355.0</ele><time>2026-04-25T08:25:53.472Z</time></trkpt><trkpt lat="45.9391491" lon="11.6381617"><ele>1355.0</ele><time>2026-04-25T08:25:54.475Z</time></trkpt><trkpt lat="45.9392482" lon="11.6381103"><ele>1355.0</ele><time>2026-04-25T08:25:55.467Z</time></trkpt><trkpt lat="45.9393502" lon="11.6380707"><ele>1355.0</ele><time>2026-04-25T08:25:56.474Z</time></trkpt><trkpt lat="45.9394677" lon="11.6380461"><ele>1355.3333333333335</ele><time>2026-04-25T08:25:57.478Z</time></trkpt><trkpt lat="45.9396111" lon="11.6380293"><ele>1355.6666666666667</ele><time>2026-04-25T08:25:58.479Z</time></trkpt><trkpt lat="45.9397793" lon="11.6380148"><ele>1356.0</ele><time>2026-04-25T08:25:59.465Z</time></trkpt><trkpt lat="45.939947" lon="11.6380001"><ele>1354.5</ele><time>2026-04-25T08:26:00.473Z</time></trkpt><trkpt lat="45.9400983" lon="11.637985"><ele>1353.0</ele><time>2026-04-25T08:26:01.477Z</time></trkpt><trkpt lat="45.9402341" lon="11.6379727"><ele>1351.5</ele><time>2026-04-25T08:26:02.476Z</time></trkpt><trkpt lat="45.9403603" lon="11.6379635"><ele>1350.0</ele><time>2026-04-25T08:26:03.474Z</time></trkpt><trkpt lat="45.9404812" lon="11.6379545"><ele>1350.0</ele><time>2026-04-25T08:26:04.48Z</time></trkpt><trkpt lat="45.9405979" lon="11.6379447"><ele>1350.0</ele><time>2026-04-25T08:26:05.477Z</time></trkpt><trkpt lat="45.9407136" lon="11.6379333"><ele>1350.0</ele><time>2026-04-25T08:26:06.458Z</time></trkpt><trkpt lat="45.940833" lon="11.6379241"><ele>1350.0</ele><time>2026-04-25T08:26:07.468Z</time></trkpt><trkpt lat="45.9409571" lon="11.6379146"><ele>1346.6666666666667</ele><time>2026-04-25T08:26:08.465Z</time></trkpt><trkpt lat="45.9412164" lon="11.6378888"><ele>1343.3333333333335</ele><time>2026-04-25T08:26:10.466Z</time></trkpt><trkpt lat="45.941351" lon="11.6378759"><ele>1340.0</ele><time>2026-04-25T08:26:11.473Z</time></trkpt><trkpt lat="45.9414877" lon="11.6378659"><ele>1340.0</ele><time>2026-04-25T08:26:12.467Z</time></trkpt><trkpt lat="45.9416323" lon="11.6378516"><ele>1340.0</ele><time>2026-04-25T08:26:13.483Z</time></trkpt><trkpt lat="45.9417889" lon="11.6378398"><ele>1340.0</ele><time>2026-04-25T08:26:14.485Z</time></trkpt><trkpt lat="45.9419564" lon="11.6378268"><ele>1339.5</ele><time>2026-04-25T08:26:15.499Z</time></trkpt><trkpt lat="45.9421229" lon="11.6378113"><ele>1339.0</ele><time>2026-04-25T08:26:16.477Z</time></trkpt><trkpt lat="45.9422729" lon="11.637796"><ele>1338.5</ele><time>2026-04-25T08:26:17.471Z</time></trkpt><trkpt lat="45.9423952" lon="11.6377823"><ele>1338.0</ele><time>2026-04-25T08:26:18.481Z</time></trkpt><trkpt lat="45.9425082" lon="11.637771"><ele>1338.6000000000001</ele><time>2026-04-25T08:26:19.48Z</time></trkpt><trkpt lat="45.9426168" lon="11.6377782"><ele>1339.2</ele><time>2026-04-25T08:26:20.48Z</time></trkpt><trkpt lat="45.9427194" lon="11.6378211"><ele>1339.8</ele><time>2026-04-25T08:26:21.475Z</time></trkpt><trkpt lat="45.9428132" lon="11.6378602"><ele>1340.4</ele><time>2026-04-25T08:26:22.483Z</time></trkpt><trkpt lat="45.9429061" lon="11.6378651"><ele>1341.0</ele><time>2026-04-25T08:26:23.454Z</time></trkpt><trkpt lat="45.9430023" lon="11.637824"><ele>1337.8</ele><time>2026-04-25T08:26:24.474Z</time></trkpt><trkpt lat="45.943102" lon="11.6377723"><ele>1334.6</ele><time>2026-04-25T08:26:25.47Z</time></trkpt><trkpt lat="45.9432021" lon="11.637726"><ele>1331.4</ele><time>2026-04-25T08:26:26.455Z</time></trkpt><trkpt lat="45.9433008" lon="11.6376911"><ele>1328.2</ele><time>2026-04-25T08:26:27.462Z</time></trkpt><trkpt lat="45.943403" lon="11.6376624"><ele>1325.0</ele><time>2026-04-25T08:26:28.458Z</time></trkpt><trkpt lat="45.9435152" lon="11.6376468"><ele>1324.0</ele><time>2026-04-25T08:26:29.469Z</time></trkpt><trkpt lat="45.9437598" lon="11.6376413"><ele>1323.0</ele><time>2026-04-25T08:26:31.454Z</time></trkpt><trkpt lat="45.9438724" lon="11.6376313"><ele>1322.0</ele><time>2026-04-25T08:26:32.466Z</time></trkpt><trkpt lat="45.9439758" lon="11.6376214"><ele>1322.0</ele><time>2026-04-25T08:26:33.459Z</time></trkpt><trkpt lat="45.9440701" lon="11.6376165"><ele>1322.0</ele><time>2026-04-25T08:26:34.461Z</time></trkpt><trkpt lat="45.9441489" lon="11.6376124"><ele>1322.0</ele><time>2026-04-25T08:26:35.464Z</time></trkpt><trkpt lat="45.944221" lon="11.6375914"><ele>1322.0</ele><time>2026-04-25T08:26:36.456Z</time></trkpt><trkpt lat="45.94429" lon="11.6375422"><ele>1322.0</ele><time>2026-04-25T08:26:37.458Z</time></trkpt><trkpt lat="45.9443564" lon="11.6374697"><ele>1322.0</ele><time>2026-04-25T08:26:38.451Z</time></trkpt><trkpt lat="45.9443924" lon="11.6373588"><ele>1322.0</ele><time>2026-04-25T08:26:39.457Z</time></trkpt><trkpt lat="45.9444176" lon="11.6372382"><ele>1322.0</ele><time>2026-04-25T08:26:40.447Z</time></trkpt><trkpt lat="45.9444225" lon="11.6371022"><ele>1322.0</ele><time>2026-04-25T08:26:41.453Z</time></trkpt><trkpt lat="45.9443963" lon="11.6369727"><ele>1322.0</ele><time>2026-04-25T08:26:42.46Z</time></trkpt><trkpt lat="45.944345" lon="11.6368485"><ele>1322.0</ele><time>2026-04-25T08:26:43.458Z</time></trkpt><trkpt lat="45.9442649" lon="11.6367471"><ele>1321.75</ele><time>2026-04-25T08:26:44.456Z</time></trkpt><trkpt lat="45.9441609" lon="11.6366769"><ele>1321.5</ele><time>2026-04-25T08:26:45.455Z</time></trkpt><trkpt lat="45.9440399" lon="11.636631"><ele>1321.25</ele><time>2026-04-25T08:26:46.457Z</time></trkpt><trkpt lat="45.9439154" lon="11.6365896"><ele>1321.0</ele><time>2026-04-25T08:26:47.463Z</time></trkpt><trkpt lat="45.943786" lon="11.6365476"><ele>1321.0</ele><time>2026-04-25T08:26:48.466Z</time></trkpt><trkpt lat="45.9436552" lon="11.6364932"><ele>1321.0</ele><time>2026-04-25T08:26:49.448Z</time></trkpt><trkpt lat="45.9435055" lon="11.6364343"><ele>1321.0</ele><time>2026-04-25T08:26:50.471Z</time></trkpt><trkpt lat="45.9431805" lon="11.6363109"><ele>1321.0</ele><time>2026-04-25T08:26:52.45Z</time></trkpt><trkpt lat="45.9430372" lon="11.63626"><ele>1321.0</ele><time>2026-04-25T08:26:53.458Z</time></trkpt><trkpt lat="45.9429051" lon="11.6361964"><ele>1321.0</ele><time>2026-04-25T08:26:54.45Z</time></trkpt><trkpt lat="45.9427734" lon="11.6361213"><ele>1321.0</ele><time>2026-04-25T08:26:55.458Z</time></trkpt><trkpt lat="45.942645" lon="11.6360585"><ele>1324.75</ele><time>2026-04-25T08:26:56.464Z</time></trkpt><trkpt lat="45.9425229" lon="11.6360213"><ele>1328.5</ele><time>2026-04-25T08:26:57.454Z</time></trkpt><trkpt lat="45.9424034" lon="11.6360076"><ele>1332.25</ele><time>2026-04-25T08:26:58.454Z</time></trkpt><trkpt lat="45.9422958" lon="11.6360155"><ele>1336.0</ele><time>2026-04-25T08:26:59.456Z</time></trkpt><trkpt lat="45.9421985" lon="11.6360408"><ele>1336.0</ele><time>2026-04-25T08:27:00.455Z</time></trkpt><trkpt lat="45.9421038" lon="11.6360721"><ele>1336.0</ele><time>2026-04-25T08:27:01.455Z</time></trkpt><trkpt lat="45.9420186" lon="11.6360874"><ele>1336.0</ele><time>2026-04-25T08:27:02.462Z</time></trkpt><trkpt lat="45.9419478" lon="11.6360769"><ele>1336.0</ele><time>2026-04-25T08:27:03.453Z</time></trkpt><trkpt lat="45.9418628" lon="11.6360236"><ele>1336.0</ele><time>2026-04-25T08:27:05.459Z</time></trkpt><trkpt lat="45.9418095" lon="11.6359241"><ele>1336.0</ele><time>2026-04-25T08:27:08.458Z</time></trkpt><trkpt lat="45.9418971" lon="11.6358805"><ele>1336.0</ele><time>2026-04-25T08:28:31.466Z</time></trkpt><trkpt lat="45.9420483" lon="11.6358625"><ele>1336.0</ele><time>2026-04-25T08:28:37.462Z</time></trkpt><trkpt lat="45.9421403" lon="11.6358646"><ele>1336.0</ele><time>2026-04-25T08:28:47.462Z</time></trkpt><trkpt lat="45.9422287" lon="11.6358636"><ele>1336.0</ele><time>2026-04-25T08:40:05.447Z</time></trkpt><trkpt lat="45.9423898" lon="11.6357554"><ele>1336.0</ele><time>2026-04-25T08:40:09.48Z</time></trkpt><trkpt lat="45.9424671" lon="11.6357181"><ele>1336.0</ele><time>2026-04-25T08:40:10.479Z</time></trkpt><trkpt lat="45.9425703" lon="11.6356887"><ele>1336.0</ele><time>2026-04-25T08:40:11.479Z</time></trkpt><trkpt lat="45.9426956" lon="11.6356784"><ele>1336.0</ele><time>2026-04-25T08:40:12.484Z</time></trkpt><trkpt lat="45.9428174" lon="11.6356911"><ele>1336.0</ele><time>2026-04-25T08:40:13.474Z</time></trkpt><trkpt lat="45.942939" lon="11.6357251"><ele>1336.0</ele><time>2026-04-25T08:40:14.475Z</time></trkpt><trkpt lat="45.9430638" lon="11.6357626"><ele>1336.0</ele><time>2026-04-25T08:40:15.476Z</time></trkpt><trkpt lat="45.9431893" lon="11.6357868"><ele>1336.0</ele><time>2026-04-25T08:40:16.472Z</time></trkpt><trkpt lat="45.9433138" lon="11.6357974"><ele>1336.0</ele><time>2026-04-25T08:40:17.473Z</time></trkpt><trkpt lat="45.9434289" lon="11.6357952"><ele>1336.0</ele><time>2026-04-25T08:40:18.471Z</time></trkpt><trkpt lat="45.9435383" lon="11.635786"><ele>1336.0</ele><time>2026-04-25T08:40:19.467Z</time></trkpt><trkpt lat="45.9436494" lon="11.6357635"><ele>1336.0</ele><time>2026-04-25T08:40:20.486Z</time></trkpt><trkpt lat="45.9437642" lon="11.635729"><ele>1336.0</ele><time>2026-04-25T08:40:21.47Z</time></trkpt><trkpt lat="45.9438818" lon="11.6356909"><ele>1336.0</ele><time>2026-04-25T08:40:22.468Z</time></trkpt><trkpt lat="45.9440053" lon="11.6356535"><ele>1336.0</ele><time>2026-04-25T08:40:23.47Z</time></trkpt><trkpt lat="45.9441329" lon="11.6356192"><ele>1336.0</ele><time>2026-04-25T08:40:24.474Z</time></trkpt><trkpt lat="45.9442614" lon="11.635581"><ele>1336.0</ele><time>2026-04-25T08:40:25.466Z</time></trkpt><trkpt lat="45.9443835" lon="11.6355441"><ele>1337.0</ele><time>2026-04-25T08:40:26.474Z</time></trkpt><trkpt lat="45.9446241" lon="11.635524"><ele>1338.0</ele><time>2026-04-25T08:40:28.468Z</time></trkpt><trkpt lat="45.9447503" lon="11.6355479"><ele>1339.0</ele><time>2026-04-25T08:40:29.467Z</time></trkpt><trkpt lat="45.9448797" lon="11.6355861"><ele>1339.0</ele><time>2026-04-25T08:40:30.476Z</time></trkpt><trkpt lat="45.9450114" lon="11.6356393"><ele>1339.0</ele><time>2026-04-25T08:40:31.47Z</time></trkpt><trkpt lat="45.9451445" lon="11.6357052"><ele>1339.0</ele><time>2026-04-25T08:40:32.47Z</time></trkpt><trkpt lat="45.9452752" lon="11.6357853"><ele>1339.0</ele><time>2026-04-25T08:40:33.479Z</time></trkpt><trkpt lat="45.9454035" lon="11.6358761"><ele>1340.25</ele><time>2026-04-25T08:40:34.472Z</time></trkpt><trkpt lat="45.945531" lon="11.6359786"><ele>1341.5</ele><time>2026-04-25T08:40:35.467Z</time></trkpt><trkpt lat="45.9456569" lon="11.63609"><ele>1342.75</ele><time>2026-04-25T08:40:36.475Z</time></trkpt><trkpt lat="45.9457862" lon="11.6362057"><ele>1344.0</ele><time>2026-04-25T08:40:37.476Z</time></trkpt><trkpt lat="45.9459213" lon="11.6363223"><ele>1344.0</ele><time>2026-04-25T08:40:38.473Z</time></trkpt><trkpt lat="45.9460612" lon="11.6364391"><ele>1344.0</ele><time>2026-04-25T08:40:39.463Z</time></trkpt><trkpt lat="45.9462048" lon="11.6365549"><ele>1344.0</ele><time>2026-04-25T08:40:40.481Z</time></trkpt><trkpt lat="45.9463477" lon="11.6366688"><ele>1344.0</ele><time>2026-04-25T08:40:41.478Z</time></trkpt><trkpt lat="45.9464874" lon="11.6367808"><ele>1344.0</ele><time>2026-04-25T08:40:42.473Z</time></trkpt><trkpt lat="45.9466247" lon="11.6368816"><ele>1344.0</ele><time>2026-04-25T08:40:43.477Z</time></trkpt><trkpt lat="45.9467635" lon="11.6369603"><ele>1341.0</ele><time>2026-04-25T08:40:44.477Z</time></trkpt><trkpt lat="45.9468996" lon="11.6370159"><ele>1338.0</ele><time>2026-04-25T08:40:45.473Z</time></trkpt><trkpt lat="45.947032" lon="11.6370608"><ele>1335.0</ele><time>2026-04-25T08:40:46.48Z</time></trkpt><trkpt lat="45.9471698" lon="11.6370854"><ele>1332.0</ele><time>2026-04-25T08:40:47.476Z</time></trkpt><trkpt lat="45.9474862" lon="11.6370511"><ele>1331.6666666666667</ele><time>2026-04-25T08:40:49.464Z</time></trkpt><trkpt lat="45.9476556" lon="11.6370101"><ele>1331.3333333333335</ele><time>2026-04-25T08:40:50.485Z</time></trkpt><trkpt lat="45.9478267" lon="11.6369588"><ele>1331.0</ele><time>2026-04-25T08:40:51.481Z</time></trkpt><trkpt lat="45.9479981" lon="11.6368942"><ele>1334.3333333333335</ele><time>2026-04-25T08:40:52.474Z</time></trkpt><trkpt lat="45.948169" lon="11.6368232"><ele>1337.6666666666667</ele><time>2026-04-25T08:40:53.476Z</time></trkpt><trkpt lat="45.9483407" lon="11.6367683"><ele>1341.0</ele><time>2026-04-25T08:40:54.471Z</time></trkpt><trkpt lat="45.9485112" lon="11.6367452"><ele>1341.0</ele><time>2026-04-25T08:40:55.462Z</time></trkpt><trkpt lat="45.9486788" lon="11.6367489"><ele>1341.0</ele><time>2026-04-25T08:40:56.472Z</time></trkpt><trkpt lat="45.9488408" lon="11.6367639"><ele>1341.0</ele><time>2026-04-25T08:40:57.48Z</time></trkpt><trkpt lat="45.9489995" lon="11.6367796"><ele>1341.0</ele><time>2026-04-25T08:40:58.485Z</time></trkpt><trkpt lat="45.9491512" lon="11.6367977"><ele>1341.0</ele><time>2026-04-25T08:40:59.479Z</time></trkpt><trkpt lat="45.9492988" lon="11.6368166"><ele>1341.0</ele><time>2026-04-25T08:41:00.476Z</time></trkpt><trkpt lat="45.9494488" lon="11.6368302"><ele>1341.6666666666667</ele><time>2026-04-25T08:41:01.473Z</time></trkpt><trkpt lat="45.949602" lon="11.636836"><ele>1342.3333333333335</ele><time>2026-04-25T08:41:02.49Z</time></trkpt><trkpt lat="45.9497584" lon="11.6368361"><ele>1343.0</ele><time>2026-04-25T08:41:03.479Z</time></trkpt><trkpt lat="45.9499115" lon="11.6368337"><ele>1343.0</ele><time>2026-04-25T08:41:04.472Z</time></trkpt><trkpt lat="45.9500665" lon="11.6368318"><ele>1343.0</ele><time>2026-04-25T08:41:05.461Z</time></trkpt><trkpt lat="45.9502298" lon="11.6368283"><ele>1343.0</ele><time>2026-04-25T08:41:06.467Z</time></trkpt><trkpt lat="45.950394" lon="11.636828"><ele>1343.0</ele><time>2026-04-25T08:41:07.48Z</time></trkpt><trkpt lat="45.9505487" lon="11.6368503"><ele>1343.0</ele><time>2026-04-25T08:41:08.474Z</time></trkpt><trkpt lat="45.950827" lon="11.6370004"><ele>1342.6666666666667</ele><time>2026-04-25T08:41:10.492Z</time></trkpt><trkpt lat="45.9509605" lon="11.6371209"><ele>1342.3333333333333</ele><time>2026-04-25T08:41:11.488Z</time></trkpt><trkpt lat="45.9510998" lon="11.6372635"><ele>1342.0</ele><time>2026-04-25T08:41:12.486Z</time></trkpt><trkpt lat="45.9512357" lon="11.6374025"><ele>1342.0</ele><time>2026-04-25T08:41:13.489Z</time></trkpt><trkpt lat="45.9513667" lon="11.6375278"><ele>1342.0</ele><time>2026-04-25T08:41:14.49Z</time></trkpt><trkpt lat="45.9514991" lon="11.6376399"><ele>1342.0</ele><time>2026-04-25T08:41:15.49Z</time></trkpt><trkpt lat="45.9516447" lon="11.6377334"><ele>1340.6666666666665</ele><time>2026-04-25T08:41:16.479Z</time></trkpt><trkpt lat="45.9518104" lon="11.6378076"><ele>1339.3333333333333</ele><time>2026-04-25T08:41:17.482Z</time></trkpt><trkpt lat="45.9519893" lon="11.6378613"><ele>1338.0</ele><time>2026-04-25T08:41:18.491Z</time></trkpt><trkpt lat="45.9521793" lon="11.6378886"><ele>1338.0</ele><time>2026-04-25T08:41:19.485Z</time></trkpt><trkpt lat="45.9523843" lon="11.6379"><ele>1338.0</ele><time>2026-04-25T08:41:20.484Z</time></trkpt><trkpt lat="45.952589" lon="11.6378981"><ele>1338.0</ele><time>2026-04-25T08:41:21.489Z</time></trkpt><trkpt lat="45.9527828" lon="11.6378811"><ele>1338.3333333333333</ele><time>2026-04-25T08:41:22.485Z</time></trkpt><trkpt lat="45.9529641" lon="11.6378568"><ele>1338.6666666666665</ele><time>2026-04-25T08:41:23.484Z</time></trkpt><trkpt lat="45.9531297" lon="11.6378347"><ele>1339.0</ele><time>2026-04-25T08:41:24.487Z</time></trkpt><trkpt lat="45.9532801" lon="11.6378212"><ele>1340.0</ele><time>2026-04-25T08:41:25.487Z</time></trkpt><trkpt lat="45.9534194" lon="11.6378204"><ele>1341.0</ele><time>2026-04-25T08:41:26.487Z</time></trkpt><trkpt lat="45.9535476" lon="11.6378417"><ele>1342.0</ele><time>2026-04-25T08:41:27.51Z</time></trkpt><trkpt lat="45.9536652" lon="11.6378917"><ele>1343.0</ele><time>2026-04-25T08:41:28.486Z</time></trkpt><trkpt lat="45.9537756" lon="11.6379687"><ele>1343.0</ele><time>2026-04-25T08:41:29.486Z</time></trkpt><trkpt lat="45.9539738" lon="11.6381845"><ele>1343.0</ele><time>2026-04-25T08:41:31.467Z</time></trkpt><trkpt lat="45.954061" lon="11.6382904"><ele>1343.0</ele><time>2026-04-25T08:41:32.476Z</time></trkpt><trkpt lat="45.9541412" lon="11.6383879"><ele>1343.0</ele><time>2026-04-25T08:41:33.469Z</time></trkpt><trkpt lat="45.9542137" lon="11.6384897"><ele>1343.0</ele><time>2026-04-25T08:41:34.468Z</time></trkpt><trkpt lat="45.9542719" lon="11.6385943"><ele>1343.0</ele><time>2026-04-25T08:41:35.473Z</time></trkpt><trkpt lat="45.9543185" lon="11.6387023"><ele>1343.0</ele><time>2026-04-25T08:41:36.477Z</time></trkpt><trkpt lat="45.9543592" lon="11.6388237"><ele>1343.0</ele><time>2026-04-25T08:41:37.477Z</time></trkpt><trkpt lat="45.9543916" lon="11.6389587"><ele>1343.0</ele><time>2026-04-25T08:41:38.474Z</time></trkpt><trkpt lat="45.9544126" lon="11.6391031"><ele>1343.0</ele><time>2026-04-25T08:41:39.488Z</time></trkpt><trkpt lat="45.9544144" lon="11.6392442"><ele>1343.0</ele><time>2026-04-25T08:41:40.487Z</time></trkpt><trkpt lat="45.9544068" lon="11.6393783"><ele>1343.0</ele><time>2026-04-25T08:41:41.471Z</time></trkpt><trkpt lat="45.9543676" lon="11.6394952"><ele>1343.0</ele><time>2026-04-25T08:41:42.477Z</time></trkpt><trkpt lat="45.9543052" lon="11.6395764"><ele>1343.4</ele><time>2026-04-25T08:41:43.481Z</time></trkpt><trkpt lat="45.9542347" lon="11.6396473"><ele>1343.8000000000002</ele><time>2026-04-25T08:41:44.476Z</time></trkpt><trkpt lat="45.9541503" lon="11.6397073"><ele>1344.2</ele><time>2026-04-25T08:41:45.483Z</time></trkpt><trkpt lat="45.9540661" lon="11.6397812"><ele>1344.6</ele><time>2026-04-25T08:41:46.47Z</time></trkpt><trkpt lat="45.9539705" lon="11.6398637"><ele>1345.0</ele><time>2026-04-25T08:41:47.481Z</time></trkpt><trkpt lat="45.9538726" lon="11.6399405"><ele>1345.0</ele><time>2026-04-25T08:41:48.483Z</time></trkpt><trkpt lat="45.9537676" lon="11.640002"><ele>1345.0</ele><time>2026-04-25T08:41:49.468Z</time></trkpt><trkpt lat="45.9536646" lon="11.6400537"><ele>1345.0</ele><time>2026-04-25T08:41:50.475Z</time></trkpt><trkpt lat="45.9534805" lon="11.6401343"><ele>1345.0</ele><time>2026-04-25T08:41:52.478Z</time></trkpt><trkpt lat="45.9533975" lon="11.6401682"><ele>1345.1666666666665</ele><time>2026-04-25T08:41:53.475Z</time></trkpt><trkpt lat="45.9533165" lon="11.6402003"><ele>1345.3333333333333</ele><time>2026-04-25T08:41:54.486Z</time></trkpt><trkpt lat="45.9532392" lon="11.6402313"><ele>1345.5</ele><time>2026-04-25T08:41:55.475Z</time></trkpt><trkpt lat="45.953168" lon="11.6402618"><ele>1345.6666666666667</ele><time>2026-04-25T08:41:56.477Z</time></trkpt><trkpt lat="45.9531066" lon="11.6402841"><ele>1345.8333333333335</ele><time>2026-04-25T08:41:57.479Z</time></trkpt><trkpt lat="45.9530193" lon="11.6403194"><ele>1346.0</ele><time>2026-04-25T08:41:59.473Z</time></trkpt><trkpt lat="45.9529523" lon="11.6404029"><ele>1348.75</ele><time>2026-04-25T08:44:12.451Z</time></trkpt><trkpt lat="45.952975" lon="11.640567"><ele>1351.5</ele><time>2026-04-25T08:44:49.493Z</time></trkpt><trkpt lat="45.9530655" lon="11.6407233"><ele>1354.25</ele><time>2026-04-25T08:46:30.49Z</time></trkpt><trkpt lat="45.9530243" lon="11.6408129"><ele>1357.0</ele><time>2026-04-25T08:46:55.549Z</time></trkpt><trkpt lat="45.9532523" lon="11.6409622"><ele>1357.0</ele><time>2026-04-25T08:51:27.543Z</time></trkpt><trkpt lat="45.9533121" lon="11.6410493"><ele>1357.0</ele><time>2026-04-25T08:51:36.483Z</time></trkpt><trkpt lat="45.953247" lon="11.6410666"><ele>1357.0</ele><time>2026-04-25T08:51:47.464Z</time></trkpt><trkpt lat="45.9532024" lon="11.641132"><ele>1357.0</ele><time>2026-04-25T08:51:53.463Z</time></trkpt><trkpt lat="45.9531306" lon="11.6411579"><ele>1357.0</ele><time>2026-04-25T08:51:58.522Z</time></trkpt><trkpt lat="45.9530747" lon="11.6412486"><ele>1357.0</ele><time>2026-04-25T08:52:55.5Z</time></trkpt><trkpt lat="45.9531219" lon="11.6412511"><ele>1357.0</ele><time>2026-04-25T08:53:37.479Z</time></trkpt><trkpt lat="45.9531329" lon="11.6411558"><ele>1357.0</ele><time>2026-04-25T08:53:45.517Z</time></trkpt><trkpt lat="45.9531398" lon="11.6413508"><ele>1357.0</ele><time>2026-04-25T08:56:11.468Z</time></trkpt><trkpt lat="45.9531178" lon="11.6413488"><ele>1357.0</ele><time>2026-04-25T08:56:42.577Z</time></trkpt><trkpt lat="45.9531172" lon="11.641248"><ele>1357.0</ele><time>2026-04-25T08:56:45.554Z</time></trkpt><trkpt lat="45.9530399" lon="11.6410178"><ele>1357.0</ele><time>2026-04-25T08:56:53.445Z</time></trkpt><trkpt lat="45.9530207" lon="11.6409225"><ele>1357.0</ele><time>2026-04-25T08:57:02.513Z</time></trkpt><trkpt lat="45.9529879" lon="11.6408339"><ele>1357.0</ele><time>2026-04-25T08:57:07.483Z</time></trkpt><trkpt lat="45.952954" lon="11.6407509"><ele>1357.0</ele><time>2026-04-25T08:57:18.458Z</time></trkpt><trkpt lat="45.9529505" lon="11.6405427"><ele>1357.0</ele><time>2026-04-25T08:57:45.462Z</time></trkpt><trkpt lat="45.9531229" lon="11.6403272"><ele>1355.1666666666665</ele><time>2026-04-25T09:03:41.462Z</time></trkpt><trkpt lat="45.9531921" lon="11.6402955"><ele>1353.3333333333333</ele><time>2026-04-25T09:03:43.48Z</time></trkpt><trkpt lat="45.9532566" lon="11.6402554"><ele>1351.5</ele><time>2026-04-25T09:03:45.468Z</time></trkpt><trkpt lat="45.9533273" lon="11.6402109"><ele>1349.6666666666667</ele><time>2026-04-25T09:03:47.469Z</time></trkpt><trkpt lat="45.9533891" lon="11.6401839"><ele>1347.8333333333335</ele><time>2026-04-25T09:03:50.467Z</time></trkpt><trkpt lat="45.9534652" lon="11.6401293"><ele>1346.0</ele><time>2026-04-25T09:05:09.47Z</time></trkpt><trkpt lat="45.9536436" lon="11.6400552"><ele>1345.8333333333335</ele><time>2026-04-25T09:05:12.484Z</time></trkpt><trkpt lat="45.953711" lon="11.6400275"><ele>1345.6666666666667</ele><time>2026-04-25T09:05:13.495Z</time></trkpt><trkpt lat="45.9537841" lon="11.6399866"><ele>1345.5</ele><time>2026-04-25T09:05:14.483Z</time></trkpt><trkpt lat="45.9538582" lon="11.6399403"><ele>1345.3333333333333</ele><time>2026-04-25T09:05:15.491Z</time></trkpt><trkpt lat="45.9539266" lon="11.6398879"><ele>1345.1666666666665</ele><time>2026-04-25T09:05:16.483Z</time></trkpt><trkpt lat="45.9539967" lon="11.639827"><ele>1345.0</ele><time>2026-04-25T09:05:17.493Z</time></trkpt><trkpt lat="45.9540703" lon="11.6397666"><ele>1345.0</ele><time>2026-04-25T09:05:18.483Z</time></trkpt><trkpt lat="45.9541462" lon="11.6397086"><ele>1345.0</ele><time>2026-04-25T09:05:19.487Z</time></trkpt><trkpt lat="45.9542214" lon="11.6396508"><ele>1345.0</ele><time>2026-04-25T09:05:20.486Z</time></trkpt><trkpt lat="45.9542893" lon="11.6395897"><ele>1345.0</ele><time>2026-04-25T09:05:21.49Z</time></trkpt><trkpt lat="45.9543446" lon="11.6395161"><ele>1345.0</ele><time>2026-04-25T09:05:22.475Z</time></trkpt><trkpt lat="45.9543855" lon="11.6394279"><ele>1345.0</ele><time>2026-04-25T09:05:23.495Z</time></trkpt><trkpt lat="45.9544099" lon="11.6393213"><ele>1344.8333333333333</ele><time>2026-04-25T09:05:24.491Z</time></trkpt><trkpt lat="45.9544129" lon="11.639204"><ele>1344.6666666666665</ele><time>2026-04-25T09:05:25.492Z</time></trkpt><trkpt lat="45.9544026" lon="11.6390862"><ele>1344.5</ele><time>2026-04-25T09:05:26.476Z</time></trkpt><trkpt lat="45.9543879" lon="11.6389748"><ele>1344.3333333333333</ele><time>2026-04-25T09:05:27.486Z</time></trkpt><trkpt lat="45.9543787" lon="11.6388811"><ele>1344.1666666666667</ele><time>2026-04-25T09:05:28.497Z</time></trkpt><trkpt lat="45.9544034" lon="11.6387473"><ele>1344.0</ele><time>2026-04-25T09:05:30.489Z</time></trkpt><trkpt lat="45.9545884" lon="11.6385884"><ele>1344.0</ele><time>2026-04-25T09:05:34.477Z</time></trkpt><trkpt lat="45.9546669" lon="11.6385729"><ele>1344.0</ele><time>2026-04-25T09:05:35.487Z</time></trkpt><trkpt lat="45.9547492" lon="11.638554"><ele>1344.0</ele><time>2026-04-25T09:05:36.476Z</time></trkpt><trkpt lat="45.9548332" lon="11.6385268"><ele>1344.0</ele><time>2026-04-25T09:05:37.481Z</time></trkpt><trkpt lat="45.954917" lon="11.6385008"><ele>1344.0</ele><time>2026-04-25T09:05:38.484Z</time></trkpt><trkpt lat="45.9549908" lon="11.638468"><ele>1344.0</ele><time>2026-04-25T09:05:39.476Z</time></trkpt><trkpt lat="45.9550599" lon="11.6384266"><ele>1344.0</ele><time>2026-04-25T09:05:40.491Z</time></trkpt><trkpt lat="45.9551204" lon="11.6383686"><ele>1344.0</ele><time>2026-04-25T09:05:41.482Z</time></trkpt><trkpt lat="45.9551699" lon="11.638289"><ele>1344.0</ele><time>2026-04-25T09:05:42.492Z</time></trkpt><trkpt lat="45.9552062" lon="11.6381912"><ele>1344.0</ele><time>2026-04-25T09:05:43.496Z</time></trkpt><trkpt lat="45.9552309" lon="11.6380804"><ele>1344.0</ele><time>2026-04-25T09:05:44.493Z</time></trkpt><trkpt lat="45.9552501" lon="11.6379605"><ele>1344.0</ele><time>2026-04-25T09:05:45.486Z</time></trkpt><trkpt lat="45.9552656" lon="11.6378331"><ele>1344.8000000000002</ele><time>2026-04-25T09:05:46.492Z</time></trkpt><trkpt lat="45.9552856" lon="11.6376997"><ele>1345.6000000000001</ele><time>2026-04-25T09:05:47.498Z</time></trkpt><trkpt lat="45.955314" lon="11.6375609"><ele>1346.4</ele><time>2026-04-25T09:05:48.49Z</time></trkpt><trkpt lat="45.9553414" lon="11.6374152"><ele>1347.2</ele><time>2026-04-25T09:05:49.496Z</time></trkpt><trkpt lat="45.9553698" lon="11.6372676"><ele>1348.0</ele><time>2026-04-25T09:05:50.496Z</time></trkpt><trkpt lat="45.9554028" lon="11.6371206"><ele>1350.0</ele><time>2026-04-25T09:05:51.494Z</time></trkpt><trkpt lat="45.9554913" lon="11.6368229"><ele>1352.0</ele><time>2026-04-25T09:05:53.488Z</time></trkpt><trkpt lat="45.9555474" lon="11.6366611"><ele>1354.0</ele><time>2026-04-25T09:05:54.5Z</time></trkpt><trkpt lat="45.9556044" lon="11.6364861"><ele>1354.0</ele><time>2026-04-25T09:05:55.49Z</time></trkpt><trkpt lat="45.9556629" lon="11.6362961"><ele>1354.0</ele><time>2026-04-25T09:05:56.472Z</time></trkpt><trkpt lat="45.9557178" lon="11.6361093"><ele>1354.0</ele><time>2026-04-25T09:05:57.486Z</time></trkpt><trkpt lat="45.9557644" lon="11.635945"><ele>1354.0</ele><time>2026-04-25T09:05:58.477Z</time></trkpt><trkpt lat="45.9558084" lon="11.6358026"><ele>1354.5</ele><time>2026-04-25T09:05:59.478Z</time></trkpt><trkpt lat="45.9558553" lon="11.6356754"><ele>1355.0</ele><time>2026-04-25T09:06:00.484Z</time></trkpt><trkpt lat="45.9559067" lon="11.6355709"><ele>1355.5</ele><time>2026-04-25T09:06:01.487Z</time></trkpt><trkpt lat="45.9559661" lon="11.6354845"><ele>1356.0</ele><time>2026-04-25T09:06:02.467Z</time></trkpt><trkpt lat="45.9560269" lon="11.6354283"><ele>1356.5</ele><time>2026-04-25T09:06:03.476Z</time></trkpt><trkpt lat="45.9560925" lon="11.6354078"><ele>1357.0</ele><time>2026-04-25T09:06:04.463Z</time></trkpt><trkpt lat="45.9561588" lon="11.6354281"><ele>1358.0</ele><time>2026-04-25T09:06:05.466Z</time></trkpt><trkpt lat="45.9562113" lon="11.6354843"><ele>1359.0</ele><time>2026-04-25T09:06:06.48Z</time></trkpt><trkpt lat="45.9562347" lon="11.6356915"><ele>1360.0</ele><time>2026-04-25T09:06:08.479Z</time></trkpt><trkpt lat="45.9562278" lon="11.6358497"><ele>1361.0</ele><time>2026-04-25T09:06:09.468Z</time></trkpt><trkpt lat="45.9562208" lon="11.6360246"><ele>1362.0</ele><time>2026-04-25T09:06:10.465Z</time></trkpt><trkpt lat="45.9562138" lon="11.6361944"><ele>1362.0</ele><time>2026-04-25T09:06:11.489Z</time></trkpt><trkpt lat="45.9562057" lon="11.6363358"><ele>1362.0</ele><time>2026-04-25T09:06:12.493Z</time></trkpt><trkpt lat="45.9562144" lon="11.6365479"><ele>1362.0</ele><time>2026-04-25T09:06:14.487Z</time></trkpt><trkpt lat="45.9562879" lon="11.6366467"><ele>1362.0</ele><time>2026-04-25T09:06:16.465Z</time></trkpt><trkpt lat="45.9564002" lon="11.6366364"><ele>1362.0</ele><time>2026-04-25T09:06:18.475Z</time></trkpt><trkpt lat="45.9564952" lon="11.6365215"><ele>1362.0</ele><time>2026-04-25T09:06:20.476Z</time></trkpt><trkpt lat="45.9565388" lon="11.6364387"><ele>1362.0</ele><time>2026-04-25T09:06:21.483Z</time></trkpt><trkpt lat="45.9565821" lon="11.6363488"><ele>1362.0</ele><time>2026-04-25T09:06:22.482Z</time></trkpt><trkpt lat="45.9566259" lon="11.6362554"><ele>1362.0</ele><time>2026-04-25T09:06:23.493Z</time></trkpt><trkpt lat="45.9566763" lon="11.6361574"><ele>1362.0</ele><time>2026-04-25T09:06:24.468Z</time></trkpt><trkpt lat="45.9567331" lon="11.6360529"><ele>1362.1999999999998</ele><time>2026-04-25T09:06:25.491Z</time></trkpt><trkpt lat="45.9567917" lon="11.6359444"><ele>1362.4</ele><time>2026-04-25T09:06:26.484Z</time></trkpt><trkpt lat="45.9568497" lon="11.6358352"><ele>1362.6</ele><time>2026-04-25T09:06:27.494Z</time></trkpt><trkpt lat="45.9569081" lon="11.6357241"><ele>1362.8000000000002</ele><time>2026-04-25T09:06:28.49Z</time></trkpt><trkpt lat="45.9569663" lon="11.6356106"><ele>1363.0</ele><time>2026-04-25T09:06:29.517Z</time></trkpt><trkpt lat="45.9570243" lon="11.6354935"><ele>1363.0</ele><time>2026-04-25T09:06:30.51Z</time></trkpt><trkpt lat="45.9570847" lon="11.6353751"><ele>1363.0</ele><time>2026-04-25T09:06:31.48Z</time></trkpt><trkpt lat="45.9571475" lon="11.6352588"><ele>1363.0</ele><time>2026-04-25T09:06:32.485Z</time></trkpt><trkpt lat="45.9572096" lon="11.6351463"><ele>1363.0</ele><time>2026-04-25T09:06:33.488Z</time></trkpt><trkpt lat="45.9573411" lon="11.6349118"><ele>1363.5</ele><time>2026-04-25T09:06:35.496Z</time></trkpt><trkpt lat="45.9574088" lon="11.6347932"><ele>1364.0</ele><time>2026-04-25T09:06:36.495Z</time></trkpt><trkpt lat="45.9574765" lon="11.6346704"><ele>1364.5</ele><time>2026-04-25T09:06:37.494Z</time></trkpt><trkpt lat="45.9575467" lon="11.634538"><ele>1365.0</ele><time>2026-04-25T09:06:38.495Z</time></trkpt><trkpt lat="45.9576254" lon="11.6343928"><ele>1366.75</ele><time>2026-04-25T09:06:39.484Z</time></trkpt><trkpt lat="45.9577116" lon="11.6342427"><ele>1368.5</ele><time>2026-04-25T09:06:40.472Z</time></trkpt><trkpt lat="45.9578065" lon="11.6340879"><ele>1370.25</ele><time>2026-04-25T09:06:41.474Z</time></trkpt><trkpt lat="45.957904" lon="11.6339266"><ele>1372.0</ele><time>2026-04-25T09:06:42.48Z</time></trkpt><trkpt lat="45.9579958" lon="11.6337621"><ele>1374.5</ele><time>2026-04-25T09:06:43.497Z</time></trkpt><trkpt lat="45.9580772" lon="11.6336012"><ele>1377.0</ele><time>2026-04-25T09:06:44.482Z</time></trkpt><trkpt lat="45.9581443" lon="11.6334519"><ele>1379.5</ele><time>2026-04-25T09:06:45.476Z</time></trkpt><trkpt lat="45.9581961" lon="11.6333149"><ele>1382.0</ele><time>2026-04-25T09:06:46.472Z</time></trkpt><trkpt lat="45.9582375" lon="11.6331959"><ele>1382.0</ele><time>2026-04-25T09:06:47.48Z</time></trkpt><trkpt lat="45.9582821" lon="11.633106"><ele>1382.0</ele><time>2026-04-25T09:06:48.48Z</time></trkpt><trkpt lat="45.9583368" lon="11.6330378"><ele>1382.0</ele><time>2026-04-25T09:06:49.476Z</time></trkpt><trkpt lat="45.9584018" lon="11.6329991"><ele>1382.0</ele><time>2026-04-25T09:06:50.487Z</time></trkpt><trkpt lat="45.9584714" lon="11.632984"><ele>1382.0</ele><time>2026-04-25T09:06:51.477Z</time></trkpt><trkpt lat="45.9585495" lon="11.6329823"><ele>1382.0</ele><time>2026-04-25T09:06:52.478Z</time></trkpt><trkpt lat="45.9586418" lon="11.6329956"><ele>1384.25</ele><time>2026-04-25T09:06:53.469Z</time></trkpt><trkpt lat="45.9587423" lon="11.6330213"><ele>1386.5</ele><time>2026-04-25T09:06:54.466Z</time></trkpt><trkpt lat="45.9589457" lon="11.6330925"><ele>1388.75</ele><time>2026-04-25T09:06:56.476Z</time></trkpt><trkpt lat="45.9590237" lon="11.6331478"><ele>1391.0</ele><time>2026-04-25T09:06:57.477Z</time></trkpt><trkpt lat="45.9590979" lon="11.6332128"><ele>1391.0</ele><time>2026-04-25T09:06:58.467Z</time></trkpt><trkpt lat="45.9591709" lon="11.6332813"><ele>1391.0</ele><time>2026-04-25T09:06:59.479Z</time></trkpt><trkpt lat="45.9592367" lon="11.6333419"><ele>1391.0</ele><time>2026-04-25T09:07:00.477Z</time></trkpt><trkpt lat="45.9593068" lon="11.6333616"><ele>1391.0</ele><time>2026-04-25T09:07:01.472Z</time></trkpt><trkpt lat="45.9593843" lon="11.6333544"><ele>1391.0</ele><time>2026-04-25T09:07:02.467Z</time></trkpt><trkpt lat="45.9594652" lon="11.6333185"><ele>1391.0</ele><time>2026-04-25T09:07:03.468Z</time></trkpt><trkpt lat="45.9595377" lon="11.6332672"><ele>1389.0</ele><time>2026-04-25T09:07:04.479Z</time></trkpt><trkpt lat="45.9595946" lon="11.6332147"><ele>1387.0</ele><time>2026-04-25T09:07:05.48Z</time></trkpt><trkpt lat="45.9596486" lon="11.6331595"><ele>1385.0</ele><time>2026-04-25T09:07:06.478Z</time></trkpt><trkpt lat="45.9597029" lon="11.6331016"><ele>1383.0</ele><time>2026-04-25T09:07:07.473Z</time></trkpt><trkpt lat="45.959795" lon="11.6329939"><ele>1381.0</ele><time>2026-04-25T09:07:09.478Z</time></trkpt><trkpt lat="45.9598882" lon="11.6328596"><ele>1383.25</ele><time>2026-04-25T09:07:11.473Z</time></trkpt><trkpt lat="45.9599588" lon="11.6327601"><ele>1385.5</ele><time>2026-04-25T09:07:12.478Z</time></trkpt><trkpt lat="45.9600455" lon="11.6326474"><ele>1387.75</ele><time>2026-04-25T09:07:13.477Z</time></trkpt><trkpt lat="45.9601451" lon="11.6325253"><ele>1390.0</ele><time>2026-04-25T09:07:14.492Z</time></trkpt><trkpt lat="45.960239" lon="11.6324168"><ele>1390.0</ele><time>2026-04-25T09:07:15.472Z</time></trkpt><trkpt lat="45.9604006" lon="11.6322517"><ele>1390.0</ele><time>2026-04-25T09:07:17.476Z</time></trkpt><trkpt lat="45.9604768" lon="11.6322024"><ele>1390.0</ele><time>2026-04-25T09:07:18.473Z</time></trkpt><trkpt lat="45.9605465" lon="11.6321836"><ele>1390.0</ele><time>2026-04-25T09:07:19.472Z</time></trkpt><trkpt lat="45.9606463" lon="11.6322297"><ele>1390.0</ele><time>2026-04-25T09:07:21.479Z</time></trkpt><trkpt lat="45.9606975" lon="11.632292"><ele>1390.0</ele><time>2026-04-25T09:07:22.478Z</time></trkpt><trkpt lat="45.9607624" lon="11.6323786"><ele>1390.0</ele><time>2026-04-25T09:07:23.484Z</time></trkpt><trkpt lat="45.9608396" lon="11.6324834"><ele>1390.0</ele><time>2026-04-25T09:07:24.484Z</time></trkpt><trkpt lat="45.9609239" lon="11.6326049"><ele>1390.0</ele><time>2026-04-25T09:07:25.484Z</time></trkpt><trkpt lat="45.9610166" lon="11.6327474"><ele>1390.5</ele><time>2026-04-25T09:07:26.491Z</time></trkpt><trkpt lat="45.9611129" lon="11.6328986"><ele>1391.0</ele><time>2026-04-25T09:07:27.487Z</time></trkpt><trkpt lat="45.9611977" lon="11.633039"><ele>1391.5</ele><time>2026-04-25T09:07:28.475Z</time></trkpt><trkpt lat="45.9612649" lon="11.6331597"><ele>1392.0</ele><time>2026-04-25T09:07:29.483Z</time></trkpt><trkpt lat="45.9613224" lon="11.6332588"><ele>1392.0</ele><time>2026-04-25T09:07:30.476Z</time></trkpt><trkpt lat="45.9613918" lon="11.6333513"><ele>1392.0</ele><time>2026-04-25T09:07:31.476Z</time></trkpt><trkpt lat="45.9614737" lon="11.6334419"><ele>1392.0</ele><time>2026-04-25T09:07:32.479Z</time></trkpt><trkpt lat="45.961559" lon="11.633532"><ele>1392.0</ele><time>2026-04-25T09:07:33.483Z</time></trkpt><trkpt lat="45.961633" lon="11.6336264"><ele>1392.0</ele><time>2026-04-25T09:07:34.482Z</time></trkpt><trkpt lat="45.961695" lon="11.6337289"><ele>1391.6</ele><time>2026-04-25T09:07:35.485Z</time></trkpt><trkpt lat="45.9617484" lon="11.6338329"><ele>1391.1999999999998</ele><time>2026-04-25T09:07:36.482Z</time></trkpt><trkpt lat="45.9618601" lon="11.6340001"><ele>1390.8</ele><time>2026-04-25T09:07:38.466Z</time></trkpt><trkpt lat="45.9619328" lon="11.6340588"><ele>1390.4</ele><time>2026-04-25T09:07:39.485Z</time></trkpt><trkpt lat="45.9620187" lon="11.634092"><ele>1390.0</ele><time>2026-04-25T09:07:40.468Z</time></trkpt><trkpt lat="45.9621237" lon="11.6340969"><ele>1390.0</ele><time>2026-04-25T09:07:41.472Z</time></trkpt><trkpt lat="45.9622411" lon="11.6340975"><ele>1390.0</ele><time>2026-04-25T09:07:42.477Z</time></trkpt><trkpt lat="45.9623683" lon="11.6341156"><ele>1390.0</ele><time>2026-04-25T09:07:43.479Z</time></trkpt><trkpt lat="45.9624941" lon="11.6341461"><ele>1390.0</ele><time>2026-04-25T09:07:44.49Z</time></trkpt><trkpt lat="45.9626183" lon="11.6341802"><ele>1390.6</ele><time>2026-04-25T09:07:45.453Z</time></trkpt><trkpt lat="45.962742" lon="11.6342245"><ele>1391.2</ele><time>2026-04-25T09:07:46.461Z</time></trkpt><trkpt lat="45.9628498" lon="11.6342627"><ele>1391.8000000000002</ele><time>2026-04-25T09:07:47.467Z</time></trkpt><trkpt lat="45.9629499" lon="11.6342888"><ele>1392.4</ele><time>2026-04-25T09:07:48.459Z</time></trkpt><trkpt lat="45.9630525" lon="11.6343051"><ele>1393.0</ele><time>2026-04-25T09:07:49.46Z</time></trkpt><trkpt lat="45.9631514" lon="11.634313"><ele>1393.0</ele><time>2026-04-25T09:07:50.456Z</time></trkpt><trkpt lat="45.9632339" lon="11.6343367"><ele>1393.0</ele><time>2026-04-25T09:07:51.473Z</time></trkpt><trkpt lat="45.9633031" lon="11.6343673"><ele>1393.0</ele><time>2026-04-25T09:07:52.468Z</time></trkpt><trkpt lat="45.9633646" lon="11.6344375"><ele>1393.0</ele><time>2026-04-25T09:07:53.464Z</time></trkpt><trkpt lat="45.9634281" lon="11.6345066"><ele>1393.0</ele><time>2026-04-25T09:07:54.475Z</time></trkpt><trkpt lat="45.9634971" lon="11.6345563"><ele>1393.0</ele><time>2026-04-25T09:07:55.467Z</time></trkpt><trkpt lat="45.9635768" lon="11.6345895"><ele>1394.5</ele><time>2026-04-25T09:07:56.48Z</time></trkpt><trkpt lat="45.9636621" lon="11.6346045"><ele>1396.0</ele><time>2026-04-25T09:07:57.467Z</time></trkpt><trkpt lat="45.9638496" lon="11.6345684"><ele>1397.5</ele><time>2026-04-25T09:07:59.486Z</time></trkpt><trkpt lat="45.9639465" lon="11.6345141"><ele>1399.0</ele><time>2026-04-25T09:08:00.479Z</time></trkpt><trkpt lat="45.9640461" lon="11.6344459"><ele>1399.0</ele><time>2026-04-25T09:08:01.494Z</time></trkpt><trkpt lat="45.964133" lon="11.6343772"><ele>1399.0</ele><time>2026-04-25T09:08:02.463Z</time></trkpt><trkpt lat="45.9642079" lon="11.6342958"><ele>1399.0</ele><time>2026-04-25T09:08:03.47Z</time></trkpt><trkpt lat="45.9642696" lon="11.6342149"><ele>1399.0</ele><time>2026-04-25T09:08:04.467Z</time></trkpt><trkpt lat="45.9643823" lon="11.6341443"><ele>1399.0</ele><time>2026-04-25T09:08:06.466Z</time></trkpt><trkpt lat="45.9644532" lon="11.6341625"><ele>1402.6</ele><time>2026-04-25T09:08:07.477Z</time></trkpt><trkpt lat="45.9645361" lon="11.6341878"><ele>1406.2</ele><time>2026-04-25T09:08:08.465Z</time></trkpt><trkpt lat="45.964614" lon="11.634271"><ele>1409.8</ele><time>2026-04-25T09:08:09.468Z</time></trkpt><trkpt lat="45.9646805" lon="11.634366"><ele>1413.3999999999999</ele><time>2026-04-25T09:08:10.468Z</time></trkpt><trkpt lat="45.9647391" lon="11.6344809"><ele>1417.0</ele><time>2026-04-25T09:08:11.476Z</time></trkpt><trkpt lat="45.9648041" lon="11.6346104"><ele>1417.0</ele><time>2026-04-25T09:08:12.469Z</time></trkpt><trkpt lat="45.9648711" lon="11.634766"><ele>1417.0</ele><time>2026-04-25T09:08:13.476Z</time></trkpt><trkpt lat="45.9649431" lon="11.6349333"><ele>1417.0</ele><time>2026-04-25T09:08:14.495Z</time></trkpt><trkpt lat="45.9650145" lon="11.6351077"><ele>1417.0</ele><time>2026-04-25T09:08:15.484Z</time></trkpt><trkpt lat="45.9650772" lon="11.635278"><ele>1421.0</ele><time>2026-04-25T09:08:16.507Z</time></trkpt><trkpt lat="45.9651318" lon="11.6354217"><ele>1425.0</ele><time>2026-04-25T09:08:17.47Z</time></trkpt><trkpt lat="45.9651823" lon="11.6355322"><ele>1429.0</ele><time>2026-04-25T09:08:18.469Z</time></trkpt><trkpt lat="45.965296" lon="11.6357188"><ele>1433.0</ele><time>2026-04-25T09:08:20.472Z</time></trkpt><trkpt lat="45.9653678" lon="11.6357925"><ele>1433.0</ele><time>2026-04-25T09:08:21.469Z</time></trkpt><trkpt lat="45.9654479" lon="11.635853"><ele>1433.0</ele><time>2026-04-25T09:08:22.475Z</time></trkpt><trkpt lat="45.9655292" lon="11.6359052"><ele>1433.0</ele><time>2026-04-25T09:08:23.468Z</time></trkpt><trkpt lat="45.9656009" lon="11.6359342"><ele>1433.0</ele><time>2026-04-25T09:08:24.487Z</time></trkpt><trkpt lat="45.965665" lon="11.6359429"><ele>1433.0</ele><time>2026-04-25T09:08:25.466Z</time></trkpt><trkpt lat="45.9657994" lon="11.635886"><ele>1435.1666666666667</ele><time>2026-04-25T09:08:27.47Z</time></trkpt><trkpt lat="45.9658885" lon="11.6358341"><ele>1437.3333333333335</ele><time>2026-04-25T09:08:28.469Z</time></trkpt><trkpt lat="45.9659686" lon="11.635805"><ele>1439.5</ele><time>2026-04-25T09:08:29.472Z</time></trkpt><trkpt lat="45.9660402" lon="11.6358059"><ele>1441.6666666666667</ele><time>2026-04-25T09:08:30.471Z</time></trkpt><trkpt lat="45.9661179" lon="11.6358111"><ele>1443.8333333333333</ele><time>2026-04-25T09:08:31.485Z</time></trkpt><trkpt lat="45.9661957" lon="11.6358697"><ele>1446.0</ele><time>2026-04-25T09:08:32.471Z</time></trkpt><trkpt lat="45.9662758" lon="11.6359366"><ele>1446.0</ele><time>2026-04-25T09:08:33.465Z</time></trkpt><trkpt lat="45.966358" lon="11.6359957"><ele>1446.0</ele><time>2026-04-25T09:08:34.473Z</time></trkpt><trkpt lat="45.966451" lon="11.6360289"><ele>1446.0</ele><time>2026-04-25T09:08:35.465Z</time></trkpt><trkpt lat="45.9665443" lon="11.6360623"><ele>1446.0</ele><time>2026-04-25T09:08:36.475Z</time></trkpt><trkpt lat="45.9666551" lon="11.6360574"><ele>1446.0</ele><time>2026-04-25T09:08:37.473Z</time></trkpt><trkpt lat="45.9667836" lon="11.6360327"><ele>1445.5</ele><time>2026-04-25T09:08:38.474Z</time></trkpt><trkpt lat="45.9669358" lon="11.6359865"><ele>1445.0</ele><time>2026-04-25T09:08:39.474Z</time></trkpt><trkpt lat="45.9673063" lon="11.6358584"><ele>1445.0</ele><time>2026-04-25T09:08:41.471Z</time></trkpt><trkpt lat="45.9674854" lon="11.63579"><ele>1445.0</ele><time>2026-04-25T09:08:42.468Z</time></trkpt><trkpt lat="45.967649" lon="11.635728"><ele>1445.0</ele><time>2026-04-25T09:08:43.466Z</time></trkpt><trkpt lat="45.9677852" lon="11.6356803"><ele>1445.2</ele><time>2026-04-25T09:08:44.467Z</time></trkpt><trkpt lat="45.967896" lon="11.6356457"><ele>1445.4</ele><time>2026-04-25T09:08:45.499Z</time></trkpt><trkpt lat="45.9679895" lon="11.6356102"><ele>1445.6</ele><time>2026-04-25T09:08:46.485Z</time></trkpt><trkpt lat="45.9680672" lon="11.6355774"><ele>1445.8</ele><time>2026-04-25T09:08:47.478Z</time></trkpt><trkpt lat="45.9681334" lon="11.6355477"><ele>1446.0</ele><time>2026-04-25T09:08:48.486Z</time></trkpt><trkpt lat="45.9682428" lon="11.6354902"><ele>1446.0</ele><time>2026-04-25T09:08:50.476Z</time></trkpt><trkpt lat="45.9683463" lon="11.6354402"><ele>1446.0</ele><time>2026-04-25T09:08:52.476Z</time></trkpt><trkpt lat="45.9684632" lon="11.6353915"><ele>1446.0</ele><time>2026-04-25T09:08:54.475Z</time></trkpt><trkpt lat="45.968524" lon="11.6353654"><ele>1446.0</ele><time>2026-04-25T09:08:55.468Z</time></trkpt><trkpt lat="45.968585" lon="11.6353395"><ele>1446.0</ele><time>2026-04-25T09:08:56.494Z</time></trkpt><trkpt lat="45.9687049" lon="11.6352847"><ele>1445.5</ele><time>2026-04-25T09:08:58.485Z</time></trkpt><trkpt lat="45.9687666" lon="11.6352555"><ele>1445.0</ele><time>2026-04-25T09:08:59.482Z</time></trkpt><trkpt lat="45.9688272" lon="11.6352272"><ele>1444.5</ele><time>2026-04-25T09:09:00.481Z</time></trkpt><trkpt lat="45.9690519" lon="11.6351299"><ele>1444.0</ele><time>2026-04-25T09:09:04.487Z</time></trkpt><trkpt lat="45.9691567" lon="11.6350897"><ele>1444.1666666666665</ele><time>2026-04-25T09:09:06.477Z</time></trkpt><trkpt lat="45.9692798" lon="11.6350337"><ele>1444.3333333333333</ele><time>2026-04-25T09:09:08.479Z</time></trkpt><trkpt lat="45.9693467" lon="11.6350059"><ele>1444.5</ele><time>2026-04-25T09:09:09.481Z</time></trkpt><trkpt lat="45.9694127" lon="11.6349778"><ele>1444.6666666666667</ele><time>2026-04-25T09:09:10.504Z</time></trkpt><trkpt lat="45.9694776" lon="11.6349487"><ele>1444.8333333333335</ele><time>2026-04-25T09:09:11.482Z</time></trkpt><trkpt lat="45.9695422" lon="11.6349155"><ele>1445.0</ele><time>2026-04-25T09:09:12.482Z</time></trkpt><trkpt lat="45.9696067" lon="11.6348806"><ele>1445.0</ele><time>2026-04-25T09:09:13.467Z</time></trkpt><trkpt lat="45.9696736" lon="11.6348464"><ele>1445.0</ele><time>2026-04-25T09:09:14.468Z</time></trkpt><trkpt lat="45.9697417" lon="11.6348087"><ele>1445.0</ele><time>2026-04-25T09:09:15.478Z</time></trkpt><trkpt lat="45.9698104" lon="11.6347605"><ele>1445.0</ele><time>2026-04-25T09:09:16.49Z</time></trkpt><trkpt lat="45.9698786" lon="11.6347089"><ele>1445.0</ele><time>2026-04-25T09:09:17.471Z</time></trkpt><trkpt lat="45.9699497" lon="11.634653"><ele>1445.0</ele><time>2026-04-25T09:09:18.496Z</time></trkpt><trkpt lat="45.9700262" lon="11.6345893"><ele>1444.4</ele><time>2026-04-25T09:09:19.473Z</time></trkpt><trkpt lat="45.970101" lon="11.6345271"><ele>1443.8</ele><time>2026-04-25T09:09:20.475Z</time></trkpt><trkpt lat="45.9701768" lon="11.634466"><ele>1443.1999999999998</ele><time>2026-04-25T09:09:21.471Z</time></trkpt><trkpt lat="45.9703331" lon="11.6343356"><ele>1442.6</ele><time>2026-04-25T09:09:23.477Z</time></trkpt><trkpt lat="45.9704134" lon="11.6342703"><ele>1442.0</ele><time>2026-04-25T09:09:24.471Z</time></trkpt><trkpt lat="45.9704929" lon="11.6342007"><ele>1442.0</ele><time>2026-04-25T09:09:25.465Z</time></trkpt><trkpt lat="45.9705703" lon="11.6341299"><ele>1442.0</ele><time>2026-04-25T09:09:26.483Z</time></trkpt><trkpt lat="45.9706461" lon="11.6340646"><ele>1442.0</ele><time>2026-04-25T09:09:27.491Z</time></trkpt><trkpt lat="45.9707248" lon="11.6340024"><ele>1442.0</ele><time>2026-04-25T09:09:28.486Z</time></trkpt><trkpt lat="45.9708058" lon="11.6339357"><ele>1442.0</ele><time>2026-04-25T09:09:29.502Z</time></trkpt><trkpt lat="45.9708838" lon="11.6338703"><ele>1442.1999999999998</ele><time>2026-04-25T09:09:30.497Z</time></trkpt><trkpt lat="45.970961" lon="11.6338049"><ele>1442.4</ele><time>2026-04-25T09:09:31.506Z</time></trkpt><trkpt lat="45.9710401" lon="11.6337411"><ele>1442.6</ele><time>2026-04-25T09:09:32.485Z</time></trkpt><trkpt lat="45.9711212" lon="11.6336767"><ele>1442.8000000000002</ele><time>2026-04-25T09:09:33.512Z</time></trkpt><trkpt lat="45.9712008" lon="11.6336096"><ele>1443.0</ele><time>2026-04-25T09:09:34.491Z</time></trkpt><trkpt lat="45.9712778" lon="11.6335472"><ele>1443.1666666666667</ele><time>2026-04-25T09:09:35.512Z</time></trkpt><trkpt lat="45.9713513" lon="11.6334916"><ele>1443.3333333333333</ele><time>2026-04-25T09:09:36.492Z</time></trkpt><trkpt lat="45.9714251" lon="11.6334406"><ele>1443.5</ele><time>2026-04-25T09:09:37.486Z</time></trkpt><trkpt lat="45.9714977" lon="11.6333933"><ele>1443.6666666666665</ele><time>2026-04-25T09:09:38.487Z</time></trkpt><trkpt lat="45.9715686" lon="11.6333513"><ele>1443.8333333333333</ele><time>2026-04-25T09:09:39.49Z</time></trkpt><trkpt lat="45.9716371" lon="11.6333219"><ele>1444.0</ele><time>2026-04-25T09:09:40.483Z</time></trkpt><trkpt lat="45.9717029" lon="11.6333009"><ele>1444.0</ele><time>2026-04-25T09:09:41.482Z</time></trkpt><trkpt lat="45.9717665" lon="11.6332789"><ele>1444.0</ele><time>2026-04-25T09:09:42.512Z</time></trkpt><trkpt lat="45.9719009" lon="11.6332562"><ele>1444.0</ele><time>2026-04-25T09:09:44.502Z</time></trkpt><trkpt lat="45.9719701" lon="11.6332539"><ele>1444.0</ele><time>2026-04-25T09:09:45.49Z</time></trkpt><trkpt lat="45.97204" lon="11.6332465"><ele>1444.0</ele><time>2026-04-25T09:09:46.491Z</time></trkpt><trkpt lat="45.9721126" lon="11.6332304"><ele>1444.0</ele><time>2026-04-25T09:09:47.471Z</time></trkpt><trkpt lat="45.9721864" lon="11.6331975"><ele>1444.0</ele><time>2026-04-25T09:09:48.48Z</time></trkpt><trkpt lat="45.9722604" lon="11.633148"><ele>1444.0</ele><time>2026-04-25T09:09:49.48Z</time></trkpt><trkpt lat="45.9723308" lon="11.6330856"><ele>1444.0</ele><time>2026-04-25T09:09:50.471Z</time></trkpt><trkpt lat="45.9723954" lon="11.633015"><ele>1444.0</ele><time>2026-04-25T09:09:51.474Z</time></trkpt><trkpt lat="45.9724711" lon="11.6329579"><ele>1444.0</ele><time>2026-04-25T09:09:52.474Z</time></trkpt><trkpt lat="45.972548" lon="11.6329157"><ele>1444.0</ele><time>2026-04-25T09:09:53.476Z</time></trkpt><trkpt lat="45.9726266" lon="11.6328986"><ele>1443.8000000000002</ele><time>2026-04-25T09:09:54.474Z</time></trkpt><trkpt lat="45.9727188" lon="11.6329075"><ele>1443.6000000000001</ele><time>2026-04-25T09:09:55.474Z</time></trkpt><trkpt lat="45.9728191" lon="11.6329312"><ele>1443.4</ele><time>2026-04-25T09:09:56.47Z</time></trkpt><trkpt lat="45.972927" lon="11.6329576"><ele>1443.2</ele><time>2026-04-25T09:09:57.47Z</time></trkpt><trkpt lat="45.9730393" lon="11.6329892"><ele>1443.0</ele><time>2026-04-25T09:09:58.476Z</time></trkpt><trkpt lat="45.9731521" lon="11.6330268"><ele>1443.0</ele><time>2026-04-25T09:09:59.474Z</time></trkpt><trkpt lat="45.973266" lon="11.6330655"><ele>1443.0</ele><time>2026-04-25T09:10:00.469Z</time></trkpt><trkpt lat="45.9733715" lon="11.6330973"><ele>1443.0</ele><time>2026-04-25T09:10:01.47Z</time></trkpt><trkpt lat="45.9734667" lon="11.6331214"><ele>1443.0</ele><time>2026-04-25T09:10:02.492Z</time></trkpt><trkpt lat="45.9735544" lon="11.6331311"><ele>1443.0</ele><time>2026-04-25T09:10:03.489Z</time></trkpt><trkpt lat="45.9737298" lon="11.6331038"><ele>1443.25</ele><time>2026-04-25T09:10:05.49Z</time></trkpt><trkpt lat="45.9738237" lon="11.6330596"><ele>1443.5</ele><time>2026-04-25T09:10:06.485Z</time></trkpt><trkpt lat="45.9739323" lon="11.6329958"><ele>1443.75</ele><time>2026-04-25T09:10:07.5Z</time></trkpt><trkpt lat="45.9740557" lon="11.6329304"><ele>1444.0</ele><time>2026-04-25T09:10:08.486Z</time></trkpt><trkpt lat="45.9741804" lon="11.6328792"><ele>1444.8000000000002</ele><time>2026-04-25T09:10:09.49Z</time></trkpt><trkpt lat="45.9742953" lon="11.6328481"><ele>1445.6000000000001</ele><time>2026-04-25T09:10:10.495Z</time></trkpt><trkpt lat="45.9744021" lon="11.6328191"><ele>1446.4</ele><time>2026-04-25T09:10:11.485Z</time></trkpt><trkpt lat="45.9745013" lon="11.6327836"><ele>1447.2</ele><time>2026-04-25T09:10:12.495Z</time></trkpt><trkpt lat="45.9746077" lon="11.6327326"><ele>1448.0</ele><time>2026-04-25T09:10:13.505Z</time></trkpt><trkpt lat="45.9747247" lon="11.6326681"><ele>1448.0</ele><time>2026-04-25T09:10:14.495Z</time></trkpt><trkpt lat="45.9748421" lon="11.6325998"><ele>1448.0</ele><time>2026-04-25T09:10:15.49Z</time></trkpt><trkpt lat="45.9749584" lon="11.6325389"><ele>1448.0</ele><time>2026-04-25T09:10:16.483Z</time></trkpt><trkpt lat="45.9750755" lon="11.6324833"><ele>1448.0</ele><time>2026-04-25T09:10:17.489Z</time></trkpt><trkpt lat="45.9751971" lon="11.6324328"><ele>1444.5</ele><time>2026-04-25T09:10:18.506Z</time></trkpt><trkpt lat="45.9753298" lon="11.6323896"><ele>1441.0</ele><time>2026-04-25T09:10:19.488Z</time></trkpt><trkpt lat="45.975459" lon="11.6323549"><ele>1437.5</ele><time>2026-04-25T09:10:20.51Z</time></trkpt><trkpt lat="45.9755898" lon="11.6323169"><ele>1434.0</ele><time>2026-04-25T09:10:21.51Z</time></trkpt><trkpt lat="45.9757297" lon="11.632268"><ele>1432.6666666666667</ele><time>2026-04-25T09:10:22.479Z</time></trkpt><trkpt lat="45.9758653" lon="11.6322254"><ele>1431.3333333333335</ele><time>2026-04-25T09:10:23.488Z</time></trkpt><trkpt lat="45.9759857" lon="11.632197"><ele>1430.0</ele><time>2026-04-25T09:10:24.466Z</time></trkpt><trkpt lat="45.9762031" lon="11.6321618"><ele>1430.0</ele><time>2026-04-25T09:10:26.488Z</time></trkpt><trkpt lat="45.9763056" lon="11.6321624"><ele>1430.0</ele><time>2026-04-25T09:10:27.478Z</time></trkpt><trkpt lat="45.9763958" lon="11.6321592"><ele>1430.0</ele><time>2026-04-25T09:10:28.473Z</time></trkpt><trkpt lat="45.9764912" lon="11.6321516"><ele>1430.0</ele><time>2026-04-25T09:10:29.472Z</time></trkpt><trkpt lat="45.9765966" lon="11.6321261"><ele>1430.0</ele><time>2026-04-25T09:10:30.476Z</time></trkpt><trkpt lat="45.976742" lon="11.6320745"><ele>1430.0</ele><time>2026-04-25T09:10:31.462Z</time></trkpt><trkpt lat="45.9769004" lon="11.6320125"><ele>1430.0</ele><time>2026-04-25T09:10:32.501Z</time></trkpt><trkpt lat="45.9770597" lon="11.6319623"><ele>1430.0</ele><time>2026-04-25T09:10:33.479Z</time></trkpt><trkpt lat="45.9772143" lon="11.6319182"><ele>1429.6666666666667</ele><time>2026-04-25T09:10:34.478Z</time></trkpt><trkpt lat="45.9773779" lon="11.6318799"><ele>1429.3333333333333</ele><time>2026-04-25T09:10:35.491Z</time></trkpt><trkpt lat="45.9775744" lon="11.6318265"><ele>1429.0</ele><time>2026-04-25T09:10:36.492Z</time></trkpt><trkpt lat="45.9777741" lon="11.631792"><ele>1425.3333333333333</ele><time>2026-04-25T09:10:37.488Z</time></trkpt><trkpt lat="45.9779544" lon="11.6317642"><ele>1421.6666666666667</ele><time>2026-04-25T09:10:38.493Z</time></trkpt><trkpt lat="45.978134" lon="11.6317489"><ele>1418.0</ele><time>2026-04-25T09:10:39.485Z</time></trkpt><trkpt lat="45.9783122" lon="11.631754"><ele>1414.6666666666667</ele><time>2026-04-25T09:10:40.485Z</time></trkpt><trkpt lat="45.9784914" lon="11.6317568"><ele>1411.3333333333333</ele><time>2026-04-25T09:10:41.5Z</time></trkpt><trkpt lat="45.9786782" lon="11.6317536"><ele>1408.0</ele><time>2026-04-25T09:10:42.486Z</time></trkpt><trkpt lat="45.9788612" lon="11.6317469"><ele>1408.0</ele><time>2026-04-25T09:10:43.49Z</time></trkpt><trkpt lat="45.9790311" lon="11.6317381"><ele>1408.0</ele><time>2026-04-25T09:10:44.493Z</time></trkpt><trkpt lat="45.9791887" lon="11.631729"><ele>1408.0</ele><time>2026-04-25T09:10:45.47Z</time></trkpt><trkpt lat="45.9794654" lon="11.6317183"><ele>1407.8000000000002</ele><time>2026-04-25T09:10:47.475Z</time></trkpt><trkpt lat="45.9795873" lon="11.6317131"><ele>1407.6</ele><time>2026-04-25T09:10:48.497Z</time></trkpt><trkpt lat="45.979703" lon="11.6317003"><ele>1407.4</ele><time>2026-04-25T09:10:49.493Z</time></trkpt><trkpt lat="45.9798029" lon="11.6316897"><ele>1407.1999999999998</ele><time>2026-04-25T09:10:50.485Z</time></trkpt><trkpt lat="45.9798937" lon="11.6316844"><ele>1407.0</ele><time>2026-04-25T09:10:51.48Z</time></trkpt><trkpt lat="45.9799794" lon="11.6317001"><ele>1407.3333333333333</ele><time>2026-04-25T09:10:52.481Z</time></trkpt><trkpt lat="45.9800644" lon="11.6317312"><ele>1407.6666666666667</ele><time>2026-04-25T09:10:53.476Z</time></trkpt><trkpt lat="45.9801397" lon="11.6317635"><ele>1408.0</ele><time>2026-04-25T09:10:54.493Z</time></trkpt><trkpt lat="45.9802055" lon="11.6317938"><ele>1408.3333333333335</ele><time>2026-04-25T09:10:55.482Z</time></trkpt><trkpt lat="45.9802659" lon="11.6318219"><ele>1408.6666666666667</ele><time>2026-04-25T09:10:56.488Z</time></trkpt><trkpt lat="45.980362" lon="11.6318648"><ele>1409.0</ele><time>2026-04-25T09:10:58.492Z</time></trkpt><trkpt lat="45.9804313" lon="11.6318946"><ele>1409.0</ele><time>2026-04-25T09:11:00.475Z</time></trkpt><trkpt lat="45.9804942" lon="11.6319218"><ele>1409.0</ele><time>2026-04-25T09:11:02.483Z</time></trkpt><trkpt lat="45.9805881" lon="11.631931"><ele>1409.0</ele><time>2026-04-25T09:11:12.537Z</time></trkpt><trkpt lat="45.980656" lon="11.6319376"><ele>1409.0</ele><time>2026-04-25T09:12:31.477Z</time></trkpt><trkpt lat="45.9808407" lon="11.631917"><ele>1409.0</ele><time>2026-04-25T09:12:35.481Z</time></trkpt><trkpt lat="45.9809167" lon="11.6319063"><ele>1409.1666666666667</ele><time>2026-04-25T09:12:36.467Z</time></trkpt><trkpt lat="45.9809931" lon="11.6318899"><ele>1409.3333333333335</ele><time>2026-04-25T09:12:37.458Z</time></trkpt><trkpt lat="45.9810721" lon="11.6318747"><ele>1409.5</ele><time>2026-04-25T09:12:38.461Z</time></trkpt><trkpt lat="45.9811552" lon="11.6318625"><ele>1409.6666666666667</ele><time>2026-04-25T09:12:39.465Z</time></trkpt><trkpt lat="45.981244" lon="11.6318567"><ele>1409.8333333333333</ele><time>2026-04-25T09:12:40.495Z</time></trkpt><trkpt lat="45.9813435" lon="11.6318624"><ele>1410.0</ele><time>2026-04-25T09:12:41.48Z</time></trkpt><trkpt lat="45.9814457" lon="11.6318697"><ele>1410.0</ele><time>2026-04-25T09:12:42.474Z</time></trkpt><trkpt lat="45.9815552" lon="11.6318579"><ele>1410.0</ele><time>2026-04-25T09:12:43.468Z</time></trkpt><trkpt lat="45.9816707" lon="11.6318354"><ele>1410.0</ele><time>2026-04-25T09:12:44.467Z</time></trkpt><trkpt lat="45.9817762" lon="11.6318046"><ele>1410.0</ele><time>2026-04-25T09:12:45.468Z</time></trkpt><trkpt lat="45.9818722" lon="11.6317835"><ele>1410.0</ele><time>2026-04-25T09:12:46.48Z</time></trkpt><trkpt lat="45.9819579" lon="11.631762"><ele>1409.0</ele><time>2026-04-25T09:12:47.473Z</time></trkpt><trkpt lat="45.9820429" lon="11.6317295"><ele>1408.0</ele><time>2026-04-25T09:12:48.461Z</time></trkpt><trkpt lat="45.9821264" lon="11.6316831"><ele>1407.0</ele><time>2026-04-25T09:12:49.462Z</time></trkpt><trkpt lat="45.9822148" lon="11.6316323"><ele>1406.0</ele><time>2026-04-25T09:12:50.48Z</time></trkpt><trkpt lat="45.9823085" lon="11.6315569"><ele>1405.0</ele><time>2026-04-25T09:12:51.475Z</time></trkpt><trkpt lat="45.9823966" lon="11.6314863"><ele>1404.0</ele><time>2026-04-25T09:12:52.471Z</time></trkpt><trkpt lat="45.9825411" lon="11.6313638"><ele>1403.0</ele><time>2026-04-25T09:12:54.463Z</time></trkpt><trkpt lat="45.9826077" lon="11.6313039"><ele>1402.0</ele><time>2026-04-25T09:12:55.478Z</time></trkpt><trkpt lat="45.9826597" lon="11.6312304"><ele>1401.0</ele><time>2026-04-25T09:12:56.478Z</time></trkpt><trkpt lat="45.9827058" lon="11.6311393"><ele>1400.0</ele><time>2026-04-25T09:12:57.474Z</time></trkpt><trkpt lat="45.9827456" lon="11.631043"><ele>1400.0</ele><time>2026-04-25T09:12:58.461Z</time></trkpt><trkpt lat="45.9827755" lon="11.6309437"><ele>1400.0</ele><time>2026-04-25T09:12:59.462Z</time></trkpt><trkpt lat="45.9828173" lon="11.6308359"><ele>1400.0</ele><time>2026-04-25T09:13:00.461Z</time></trkpt><trkpt lat="45.9828572" lon="11.6307317"><ele>1400.0</ele><time>2026-04-25T09:13:01.464Z</time></trkpt><trkpt lat="45.9828687" lon="11.630636"><ele>1400.0</ele><time>2026-04-25T09:13:02.465Z</time></trkpt><trkpt lat="45.9828752" lon="11.6305409"><ele>1400.0</ele><time>2026-04-25T09:13:03.469Z</time></trkpt><trkpt lat="45.9828589" lon="11.6303594"><ele>1395.6666666666667</ele><time>2026-04-25T09:13:05.47Z</time></trkpt><trkpt lat="45.9828321" lon="11.6302609"><ele>1391.3333333333335</ele><time>2026-04-25T09:13:06.469Z</time></trkpt><trkpt lat="45.9827967" lon="11.6301193"><ele>1387.0</ele><time>2026-04-25T09:13:07.471Z</time></trkpt><trkpt lat="45.9827624" lon="11.6299789"><ele>1382.6666666666667</ele><time>2026-04-25T09:13:08.47Z</time></trkpt><trkpt lat="45.9827289" lon="11.6298631"><ele>1378.3333333333333</ele><time>2026-04-25T09:13:09.47Z</time></trkpt><trkpt lat="45.9826921" lon="11.6297634"><ele>1374.0</ele><time>2026-04-25T09:13:10.473Z</time></trkpt><trkpt lat="45.9826575" lon="11.6296796"><ele>1374.0</ele><time>2026-04-25T09:13:11.469Z</time></trkpt><trkpt lat="45.9826045" lon="11.6295795"><ele>1374.0</ele><time>2026-04-25T09:13:13.486Z</time></trkpt><trkpt lat="45.982768" lon="11.6297135"><ele>1374.0</ele><time>2026-04-25T09:13:18.466Z</time></trkpt><trkpt lat="45.9828118" lon="11.6298247"><ele>1374.0</ele><time>2026-04-25T09:13:19.472Z</time></trkpt><trkpt lat="45.9828565" lon="11.6299414"><ele>1374.0</ele><time>2026-04-25T09:13:20.473Z</time></trkpt><trkpt lat="45.9828882" lon="11.6300384"><ele>1374.0</ele><time>2026-04-25T09:13:21.473Z</time></trkpt><trkpt lat="45.9829389" lon="11.6301447"><ele>1374.0</ele><time>2026-04-25T09:13:23.471Z</time></trkpt><trkpt lat="45.983011" lon="11.6301125"><ele>1374.0</ele><time>2026-04-25T09:13:26.481Z</time></trkpt><trkpt lat="45.9830109" lon="11.6300201"><ele>1374.0</ele><time>2026-04-25T09:13:27.482Z</time></trkpt><trkpt lat="45.9829938" lon="11.6299119"><ele>1374.0</ele><time>2026-04-25T09:13:28.481Z</time></trkpt><trkpt lat="45.9829672" lon="11.6297903"><ele>1374.0</ele><time>2026-04-25T09:13:29.486Z</time></trkpt><trkpt lat="45.9829317" lon="11.6296728"><ele>1374.0</ele><time>2026-04-25T09:13:30.472Z</time></trkpt><trkpt lat="45.9828858" lon="11.6295535"><ele>1374.0</ele><time>2026-04-25T09:13:31.463Z</time></trkpt><trkpt lat="45.9828289" lon="11.6294381"><ele>1374.0</ele><time>2026-04-25T09:13:32.48Z</time></trkpt><trkpt lat="45.9827739" lon="11.6293219"><ele>1374.0</ele><time>2026-04-25T09:13:33.468Z</time></trkpt><trkpt lat="45.9827238" lon="11.6292129"><ele>1375.4</ele><time>2026-04-25T09:13:34.463Z</time></trkpt><trkpt lat="45.9826203" lon="11.6290055"><ele>1376.8000000000002</ele><time>2026-04-25T09:13:36.467Z</time></trkpt><trkpt lat="45.9825774" lon="11.6289142"><ele>1378.1999999999998</ele><time>2026-04-25T09:13:37.464Z</time></trkpt><trkpt lat="45.9825309" lon="11.628813"><ele>1379.6</ele><time>2026-04-25T09:13:38.472Z</time></trkpt><trkpt lat="45.9824826" lon="11.6287126"><ele>1381.0</ele><time>2026-04-25T09:13:39.461Z</time></trkpt><trkpt lat="45.9824271" lon="11.6286138"><ele>1375.0</ele><time>2026-04-25T09:13:40.458Z</time></trkpt><trkpt lat="45.9823643" lon="11.6285243"><ele>1369.0</ele><time>2026-04-25T09:13:41.482Z</time></trkpt><trkpt lat="45.9822908" lon="11.6284314"><ele>1363.0</ele><time>2026-04-25T09:13:42.484Z</time></trkpt><trkpt lat="45.9822176" lon="11.6283437"><ele>1357.0</ele><time>2026-04-25T09:13:43.46Z</time></trkpt><trkpt lat="45.982139" lon="11.6282556"><ele>1351.0</ele><time>2026-04-25T09:13:44.455Z</time></trkpt><trkpt lat="45.9820461" lon="11.6281527"><ele>1351.0</ele><time>2026-04-25T09:13:45.481Z</time></trkpt><trkpt lat="45.9819524" lon="11.6280674"><ele>1351.0</ele><time>2026-04-25T09:13:46.467Z</time></trkpt><trkpt lat="45.9818585" lon="11.6279818"><ele>1351.0</ele><time>2026-04-25T09:13:47.491Z</time></trkpt><trkpt lat="45.9817659" lon="11.6279024"><ele>1351.0</ele><time>2026-04-25T09:13:48.482Z</time></trkpt><trkpt lat="45.9816876" lon="11.6278146"><ele>1351.0</ele><time>2026-04-25T09:13:49.472Z</time></trkpt><trkpt lat="45.9816097" lon="11.6277036"><ele>1352.5</ele><time>2026-04-25T09:13:50.49Z</time></trkpt><trkpt lat="45.9815396" lon="11.6275789"><ele>1354.0</ele><time>2026-04-25T09:13:51.48Z</time></trkpt><trkpt lat="45.9814776" lon="11.62744"><ele>1355.5</ele><time>2026-04-25T09:13:52.484Z</time></trkpt><trkpt lat="45.9814247" lon="11.6272621"><ele>1357.0</ele><time>2026-04-25T09:13:53.464Z</time></trkpt><trkpt lat="45.9813795" lon="11.6271035"><ele>1352.0</ele><time>2026-04-25T09:13:54.474Z</time></trkpt><trkpt lat="45.981347" lon="11.6269463"><ele>1347.0</ele><time>2026-04-25T09:13:55.476Z</time></trkpt><trkpt lat="45.9812962" lon="11.6266902"><ele>1342.0</ele><time>2026-04-25T09:13:57.482Z</time></trkpt><trkpt lat="45.9812755" lon="11.6265869"><ele>1337.0</ele><time>2026-04-25T09:13:58.469Z</time></trkpt><trkpt lat="45.9812356" lon="11.6264997"><ele>1332.0</ele><time>2026-04-25T09:13:59.482Z</time></trkpt><trkpt lat="45.9811685" lon="11.6264198"><ele>1332.0</ele><time>2026-04-25T09:14:00.492Z</time></trkpt><trkpt lat="45.9810692" lon="11.6263349"><ele>1332.0</ele><time>2026-04-25T09:14:01.49Z</time></trkpt><trkpt lat="45.9809574" lon="11.6262471"><ele>1332.0</ele><time>2026-04-25T09:14:02.492Z</time></trkpt><trkpt lat="45.980852" lon="11.6261684"><ele>1332.0</ele><time>2026-04-25T09:14:03.494Z</time></trkpt><trkpt lat="45.9807444" lon="11.6261235"><ele>1330.5</ele><time>2026-04-25T09:14:04.475Z</time></trkpt><trkpt lat="45.9806358" lon="11.6260808"><ele>1329.0</ele><time>2026-04-25T09:14:05.481Z</time></trkpt><trkpt lat="45.9805264" lon="11.6260348"><ele>1327.5</ele><time>2026-04-25T09:14:06.506Z</time></trkpt><trkpt lat="45.9804187" lon="11.6259863"><ele>1326.0</ele><time>2026-04-25T09:14:07.471Z</time></trkpt><trkpt lat="45.9803022" lon="11.625953"><ele>1326.0</ele><time>2026-04-25T09:14:08.475Z</time></trkpt><trkpt lat="45.9801741" lon="11.625926"><ele>1326.0</ele><time>2026-04-25T09:14:09.476Z</time></trkpt><trkpt lat="45.9800571" lon="11.6259074"><ele>1326.0</ele><time>2026-04-25T09:14:10.469Z</time></trkpt><trkpt lat="45.9799543" lon="11.6259088"><ele>1326.0</ele><time>2026-04-25T09:14:11.471Z</time></trkpt><trkpt lat="45.9798736" lon="11.6259119"><ele>1326.0</ele><time>2026-04-25T09:14:12.467Z</time></trkpt><trkpt lat="45.9797861" lon="11.6259168"><ele>1325.75</ele><time>2026-04-25T09:14:13.458Z</time></trkpt><trkpt lat="45.9796882" lon="11.6259456"><ele>1325.5</ele><time>2026-04-25T09:14:14.471Z</time></trkpt><trkpt lat="45.9795801" lon="11.6259717"><ele>1325.25</ele><time>2026-04-25T09:14:15.479Z</time></trkpt><trkpt lat="45.9794722" lon="11.6259889"><ele>1325.0</ele><time>2026-04-25T09:14:16.47Z</time></trkpt><trkpt lat="45.9792821" lon="11.6260229"><ele>1325.0</ele><time>2026-04-25T09:14:18.463Z</time></trkpt><trkpt lat="45.9791915" lon="11.6260637"><ele>1325.0</ele><time>2026-04-25T09:14:19.479Z</time></trkpt><trkpt lat="45.9790835" lon="11.6261187"><ele>1325.0</ele><time>2026-04-25T09:14:20.472Z</time></trkpt><trkpt lat="45.9789644" lon="11.62618"><ele>1325.0</ele><time>2026-04-25T09:14:21.467Z</time></trkpt><trkpt lat="45.9788496" lon="11.6262558"><ele>1329.25</ele><time>2026-04-25T09:14:22.471Z</time></trkpt><trkpt lat="45.9787375" lon="11.6263177"><ele>1333.5</ele><time>2026-04-25T09:14:23.469Z</time></trkpt><trkpt lat="45.97862" lon="11.6263537"><ele>1337.75</ele><time>2026-04-25T09:14:24.466Z</time></trkpt><trkpt lat="45.9784871" lon="11.6263681"><ele>1342.0</ele><time>2026-04-25T09:14:25.47Z</time></trkpt><trkpt lat="45.9783505" lon="11.6263763"><ele>1342.0</ele><time>2026-04-25T09:14:26.468Z</time></trkpt><trkpt lat="45.9782312" lon="11.6263659"><ele>1342.0</ele><time>2026-04-25T09:14:27.467Z</time></trkpt><trkpt lat="45.9781195" lon="11.6263451"><ele>1342.0</ele><time>2026-04-25T09:14:28.47Z</time></trkpt><trkpt lat="45.9780124" lon="11.6263196"><ele>1342.0</ele><time>2026-04-25T09:14:29.467Z</time></trkpt><trkpt lat="45.9779136" lon="11.626291"><ele>1342.0</ele><time>2026-04-25T09:14:30.468Z</time></trkpt><trkpt lat="45.9778113" lon="11.6262551"><ele>1342.0</ele><time>2026-04-25T09:14:31.477Z</time></trkpt><trkpt lat="45.9776724" lon="11.6262108"><ele>1342.0</ele><time>2026-04-25T09:14:32.466Z</time></trkpt><trkpt lat="45.9775138" lon="11.6261621"><ele>1342.0</ele><time>2026-04-25T09:14:33.459Z</time></trkpt><trkpt lat="45.9773619" lon="11.6261027"><ele>1336.0</ele><time>2026-04-25T09:14:34.468Z</time></trkpt><trkpt lat="45.9772296" lon="11.6260416"><ele>1330.0</ele><time>2026-04-25T09:14:35.468Z</time></trkpt><trkpt lat="45.9771331" lon="11.6259525"><ele>1324.0</ele><time>2026-04-25T09:14:36.475Z</time></trkpt><trkpt lat="45.9770661" lon="11.6258557"><ele>1318.0</ele><time>2026-04-25T09:14:37.468Z</time></trkpt><trkpt lat="45.9769418" lon="11.6256466"><ele>1318.0</ele><time>2026-04-25T09:14:39.472Z</time></trkpt><trkpt lat="45.9768635" lon="11.6255216"><ele>1318.0</ele><time>2026-04-25T09:14:40.467Z</time></trkpt><trkpt lat="45.9767675" lon="11.625368"><ele>1318.0</ele><time>2026-04-25T09:14:41.465Z</time></trkpt><trkpt lat="45.9766603" lon="11.6251926"><ele>1318.0</ele><time>2026-04-25T09:14:42.461Z</time></trkpt><trkpt lat="45.9765367" lon="11.6249812"><ele>1320.6666666666665</ele><time>2026-04-25T09:14:43.464Z</time></trkpt><trkpt lat="45.9764173" lon="11.6247715"><ele>1323.3333333333333</ele><time>2026-04-25T09:14:44.457Z</time></trkpt><trkpt lat="45.9763127" lon="11.6245954"><ele>1326.0</ele><time>2026-04-25T09:14:45.454Z</time></trkpt><trkpt lat="45.9762221" lon="11.6244533"><ele>1326.1999999999998</ele><time>2026-04-25T09:14:46.463Z</time></trkpt><trkpt lat="45.9761479" lon="11.6243416"><ele>1326.3999999999999</ele><time>2026-04-25T09:14:47.461Z</time></trkpt><trkpt lat="45.9760817" lon="11.6242443"><ele>1326.6</ele><time>2026-04-25T09:14:48.457Z</time></trkpt><trkpt lat="45.9760425" lon="11.6241282"><ele>1326.8</ele><time>2026-04-25T09:14:49.467Z</time></trkpt><trkpt lat="45.97601" lon="11.6239976"><ele>1327.0</ele><time>2026-04-25T09:14:50.469Z</time></trkpt><trkpt lat="45.9759809" lon="11.6238755"><ele>1327.0</ele><time>2026-04-25T09:14:51.47Z</time></trkpt><trkpt lat="45.975951" lon="11.6237644"><ele>1327.0</ele><time>2026-04-25T09:14:52.467Z</time></trkpt><trkpt lat="45.9759196" lon="11.6236634"><ele>1327.0</ele><time>2026-04-25T09:14:53.467Z</time></trkpt><trkpt lat="45.9758745" lon="11.6235796"><ele>1327.0</ele><time>2026-04-25T09:14:54.479Z</time></trkpt><trkpt lat="45.9758091" lon="11.6235077"><ele>1327.0</ele><time>2026-04-25T09:14:55.466Z</time></trkpt><trkpt lat="45.9757197" lon="11.6234359"><ele>1327.0</ele><time>2026-04-25T09:14:56.476Z</time></trkpt><trkpt lat="45.9756266" lon="11.6233719"><ele>1326.3999999999999</ele><time>2026-04-25T09:14:57.461Z</time></trkpt><trkpt lat="45.9755443" lon="11.6233126"><ele>1325.8</ele><time>2026-04-25T09:14:58.463Z</time></trkpt><trkpt lat="45.9754161" lon="11.6232243"><ele>1325.2</ele><time>2026-04-25T09:15:00.478Z</time></trkpt><trkpt lat="45.9753346" lon="11.6231763"><ele>1324.6</ele><time>2026-04-25T09:15:02.471Z</time></trkpt><trkpt lat="45.9752676" lon="11.6231589"><ele>1324.0</ele><time>2026-04-25T09:15:05.463Z</time></trkpt><trkpt lat="45.9751852" lon="11.6231925"><ele>1322.0</ele><time>2026-04-25T09:19:07.472Z</time></trkpt><trkpt lat="45.975012" lon="11.6231945"><ele>1320.0</ele><time>2026-04-25T09:19:10.464Z</time></trkpt><trkpt lat="45.9749382" lon="11.6231843"><ele>1318.0</ele><time>2026-04-25T09:19:11.467Z</time></trkpt><trkpt lat="45.9748629" lon="11.6231754"><ele>1316.0</ele><time>2026-04-25T09:19:12.469Z</time></trkpt><trkpt lat="45.9747976" lon="11.6231713"><ele>1314.0</ele><time>2026-04-25T09:19:13.463Z</time></trkpt><trkpt lat="45.9747326" lon="11.6231646"><ele>1314.0</ele><time>2026-04-25T09:19:14.463Z</time></trkpt><trkpt lat="45.974667" lon="11.6231602"><ele>1314.0</ele><time>2026-04-25T09:19:15.469Z</time></trkpt><trkpt lat="45.9745952" lon="11.6231574"><ele>1314.0</ele><time>2026-04-25T09:19:16.474Z</time></trkpt><trkpt lat="45.9745144" lon="11.6231528"><ele>1314.0</ele><time>2026-04-25T09:19:17.471Z</time></trkpt><trkpt lat="45.9744352" lon="11.6231464"><ele>1314.0</ele><time>2026-04-25T09:19:18.472Z</time></trkpt><trkpt lat="45.9743511" lon="11.6231371"><ele>1314.0</ele><time>2026-04-25T09:19:19.459Z</time></trkpt><trkpt lat="45.9742593" lon="11.6231262"><ele>1313.6</ele><time>2026-04-25T09:19:20.464Z</time></trkpt><trkpt lat="45.9741614" lon="11.6231147"><ele>1313.2</ele><time>2026-04-25T09:19:21.474Z</time></trkpt><trkpt lat="45.9740628" lon="11.6231029"><ele>1312.8</ele><time>2026-04-25T09:19:22.468Z</time></trkpt><trkpt lat="45.9739555" lon="11.6230879"><ele>1312.3999999999999</ele><time>2026-04-25T09:19:23.461Z</time></trkpt><trkpt lat="45.9738416" lon="11.6230758"><ele>1312.0</ele><time>2026-04-25T09:19:24.46Z</time></trkpt><trkpt lat="45.9737243" lon="11.6230683"><ele>1312.0</ele><time>2026-04-25T09:19:25.467Z</time></trkpt><trkpt lat="45.9736084" lon="11.6230657"><ele>1312.0</ele><time>2026-04-25T09:19:26.473Z</time></trkpt><trkpt lat="45.9734923" lon="11.6230634"><ele>1312.0</ele><time>2026-04-25T09:19:27.46Z</time></trkpt><trkpt lat="45.9733772" lon="11.6230535"><ele>1312.0</ele><time>2026-04-25T09:19:28.467Z</time></trkpt><trkpt lat="45.9731558" lon="11.623019"><ele>1312.6666666666665</ele><time>2026-04-25T09:19:30.462Z</time></trkpt><trkpt lat="45.9730748" lon="11.6229863"><ele>1313.3333333333333</ele><time>2026-04-25T09:19:31.472Z</time></trkpt><trkpt lat="45.9730072" lon="11.6229394"><ele>1314.0</ele><time>2026-04-25T09:19:32.459Z</time></trkpt><trkpt lat="45.9729486" lon="11.6228738"><ele>1314.6666666666667</ele><time>2026-04-25T09:19:33.474Z</time></trkpt><trkpt lat="45.9728866" lon="11.6227849"><ele>1315.3333333333335</ele><time>2026-04-25T09:19:34.474Z</time></trkpt><trkpt lat="45.9728226" lon="11.6226784"><ele>1316.0</ele><time>2026-04-25T09:19:35.469Z</time></trkpt><trkpt lat="45.9727422" lon="11.6225558"><ele>1318.4</ele><time>2026-04-25T09:19:36.468Z</time></trkpt><trkpt lat="45.9726648" lon="11.6224375"><ele>1320.8</ele><time>2026-04-25T09:19:37.456Z</time></trkpt><trkpt lat="45.9725858" lon="11.6223387"><ele>1323.2</ele><time>2026-04-25T09:19:38.463Z</time></trkpt><trkpt lat="45.9724985" lon="11.6222436"><ele>1325.6000000000001</ele><time>2026-04-25T09:19:39.467Z</time></trkpt><trkpt lat="45.972415" lon="11.6221491"><ele>1328.0</ele><time>2026-04-25T09:19:40.471Z</time></trkpt><trkpt lat="45.9723298" lon="11.622056"><ele>1330.6666666666667</ele><time>2026-04-25T09:19:41.469Z</time></trkpt><trkpt lat="45.9722496" lon="11.6219763"><ele>1333.3333333333335</ele><time>2026-04-25T09:19:42.474Z</time></trkpt><trkpt lat="45.9721789" lon="11.6219042"><ele>1336.0</ele><time>2026-04-25T09:19:43.456Z</time></trkpt><trkpt lat="45.9721138" lon="11.6218211"><ele>1338.6666666666667</ele><time>2026-04-25T09:19:44.462Z</time></trkpt><trkpt lat="45.9720622" lon="11.6217195"><ele>1341.3333333333333</ele><time>2026-04-25T09:19:45.471Z</time></trkpt><trkpt lat="45.9720235" lon="11.6216086"><ele>1344.0</ele><time>2026-04-25T09:19:46.458Z</time></trkpt><trkpt lat="45.9719889" lon="11.6214898"><ele>1344.0</ele><time>2026-04-25T09:19:47.477Z</time></trkpt><trkpt lat="45.9719463" lon="11.6213574"><ele>1344.0</ele><time>2026-04-25T09:19:48.462Z</time></trkpt><trkpt lat="45.9719008" lon="11.6212217"><ele>1344.0</ele><time>2026-04-25T09:19:49.467Z</time></trkpt><trkpt lat="45.9718236" lon="11.6209682"><ele>1344.0</ele><time>2026-04-25T09:19:51.473Z</time></trkpt><trkpt lat="45.9717903" lon="11.6208629"><ele>1344.0</ele><time>2026-04-25T09:19:52.475Z</time></trkpt><trkpt lat="45.9717577" lon="11.6207601"><ele>1344.0</ele><time>2026-04-25T09:19:53.468Z</time></trkpt><trkpt lat="45.9717252" lon="11.6206585"><ele>1344.0</ele><time>2026-04-25T09:19:54.468Z</time></trkpt><trkpt lat="45.9716971" lon="11.6205509"><ele>1344.0</ele><time>2026-04-25T09:19:55.466Z</time></trkpt><trkpt lat="45.9716744" lon="11.6204399"><ele>1344.0</ele><time>2026-04-25T09:19:56.475Z</time></trkpt><trkpt lat="45.9716509" lon="11.6203247"><ele>1344.0</ele><time>2026-04-25T09:19:57.48Z</time></trkpt><trkpt lat="45.9716265" lon="11.6202078"><ele>1343.0</ele><time>2026-04-25T09:19:58.469Z</time></trkpt><trkpt lat="45.9715995" lon="11.6200885"><ele>1342.0</ele><time>2026-04-25T09:19:59.484Z</time></trkpt><trkpt lat="45.97158" lon="11.6199668"><ele>1341.0</ele><time>2026-04-25T09:20:00.466Z</time></trkpt><trkpt lat="45.9715647" lon="11.6198551"><ele>1340.0</ele><time>2026-04-25T09:20:01.479Z</time></trkpt><trkpt lat="45.9715585" lon="11.6197308"><ele>1339.0</ele><time>2026-04-25T09:20:02.483Z</time></trkpt><trkpt lat="45.9715529" lon="11.6196038"><ele>1338.0</ele><time>2026-04-25T09:20:03.468Z</time></trkpt><trkpt lat="45.9715778" lon="11.6194445"><ele>1338.0</ele><time>2026-04-25T09:20:04.483Z</time></trkpt><trkpt lat="45.9716067" lon="11.6192563"><ele>1338.0</ele><time>2026-04-25T09:20:05.471Z</time></trkpt><trkpt lat="45.9716374" lon="11.6190411"><ele>1338.0</ele><time>2026-04-25T09:20:06.476Z</time></trkpt><trkpt lat="45.9716685" lon="11.618819"><ele>1338.0</ele><time>2026-04-25T09:20:07.474Z</time></trkpt><trkpt lat="45.9716992" lon="11.6186071"><ele>1338.6666666666667</ele><time>2026-04-25T09:20:08.466Z</time></trkpt><trkpt lat="45.9717314" lon="11.6183975"><ele>1339.3333333333335</ele><time>2026-04-25T09:20:09.464Z</time></trkpt><trkpt lat="45.9717661" lon="11.6181786"><ele>1340.0</ele><time>2026-04-25T09:20:10.468Z</time></trkpt><trkpt lat="45.9718432" lon="11.6177062"><ele>1340.6666666666667</ele><time>2026-04-25T09:20:12.472Z</time></trkpt><trkpt lat="45.9718784" lon="11.6174714"><ele>1341.3333333333333</ele><time>2026-04-25T09:20:13.477Z</time></trkpt><trkpt lat="45.9719081" lon="11.6172576"><ele>1342.0</ele><time>2026-04-25T09:20:14.475Z</time></trkpt><trkpt lat="45.9719353" lon="11.6170694"><ele>1342.5</ele><time>2026-04-25T09:20:15.475Z</time></trkpt><trkpt lat="45.971963" lon="11.6168974"><ele>1343.0</ele><time>2026-04-25T09:20:16.477Z</time></trkpt><trkpt lat="45.9719935" lon="11.6167298"><ele>1343.5</ele><time>2026-04-25T09:20:17.466Z</time></trkpt><trkpt lat="45.9720202" lon="11.6165622"><ele>1344.0</ele><time>2026-04-25T09:20:18.464Z</time></trkpt><trkpt lat="45.9720469" lon="11.6164096"><ele>1344.0</ele><time>2026-04-25T09:20:19.465Z</time></trkpt><trkpt lat="45.9720754" lon="11.616272"><ele>1344.0</ele><time>2026-04-25T09:20:20.471Z</time></trkpt><trkpt lat="45.9721063" lon="11.6161503"><ele>1344.0</ele><time>2026-04-25T09:20:21.46Z</time></trkpt><trkpt lat="45.9721365" lon="11.6160319"><ele>1344.0</ele><time>2026-04-25T09:20:22.472Z</time></trkpt><trkpt lat="45.9721556" lon="11.6159114"><ele>1344.0</ele><time>2026-04-25T09:20:23.472Z</time></trkpt><trkpt lat="45.9721565" lon="11.6157966"><ele>1344.0</ele><time>2026-04-25T09:20:24.469Z</time></trkpt><trkpt lat="45.9721312" lon="11.615689"><ele>1344.2</ele><time>2026-04-25T09:20:25.46Z</time></trkpt><trkpt lat="45.9720781" lon="11.6155928"><ele>1344.4</ele><time>2026-04-25T09:20:26.472Z</time></trkpt><trkpt lat="45.9720053" lon="11.6155155"><ele>1344.6</ele><time>2026-04-25T09:20:27.475Z</time></trkpt><trkpt lat="45.9719231" lon="11.615458"><ele>1344.8</ele><time>2026-04-25T09:20:28.472Z</time></trkpt><trkpt lat="45.9718263" lon="11.6154093"><ele>1345.0</ele><time>2026-04-25T09:20:29.474Z</time></trkpt><trkpt lat="45.9717244" lon="11.6153563"><ele>1345.0</ele><time>2026-04-25T09:20:30.471Z</time></trkpt><trkpt lat="45.9716357" lon="11.6152922"><ele>1345.0</ele><time>2026-04-25T09:20:31.465Z</time></trkpt><trkpt lat="45.9715059" lon="11.6151098"><ele>1345.0</ele><time>2026-04-25T09:20:33.473Z</time></trkpt><trkpt lat="45.9714514" lon="11.615002"><ele>1345.0</ele><time>2026-04-25T09:20:34.471Z</time></trkpt><trkpt lat="45.9713911" lon="11.6149083"><ele>1345.0</ele><time>2026-04-25T09:20:35.465Z</time></trkpt><trkpt lat="45.9713261" lon="11.6148363"><ele>1345.0</ele><time>2026-04-25T09:20:36.447Z</time></trkpt><trkpt lat="45.9712418" lon="11.6147795"><ele>1345.0</ele><time>2026-04-25T09:20:37.464Z</time></trkpt><trkpt lat="45.9711388" lon="11.6147236"><ele>1345.0</ele><time>2026-04-25T09:20:38.471Z</time></trkpt><trkpt lat="45.9710312" lon="11.614648"><ele>1345.0</ele><time>2026-04-25T09:20:39.471Z</time></trkpt><trkpt lat="45.970941" lon="11.6145516"><ele>1344.75</ele><time>2026-04-25T09:20:40.467Z</time></trkpt><trkpt lat="45.9708676" lon="11.614429"><ele>1344.5</ele><time>2026-04-25T09:20:41.486Z</time></trkpt><trkpt lat="45.9708127" lon="11.6142851"><ele>1344.25</ele><time>2026-04-25T09:20:42.457Z</time></trkpt><trkpt lat="45.9707822" lon="11.6141258"><ele>1344.0</ele><time>2026-04-25T09:20:43.465Z</time></trkpt><trkpt lat="45.970769" lon="11.6139442"><ele>1344.0</ele><time>2026-04-25T09:20:44.465Z</time></trkpt><trkpt lat="45.9707447" lon="11.6137389"><ele>1344.0</ele><time>2026-04-25T09:20:45.46Z</time></trkpt><trkpt lat="45.9707017" lon="11.6135196"><ele>1344.0</ele><time>2026-04-25T09:20:46.468Z</time></trkpt><trkpt lat="45.9706446" lon="11.6132731"><ele>1345.3333333333333</ele><time>2026-04-25T09:20:47.468Z</time></trkpt><trkpt lat="45.970584" lon="11.6129951"><ele>1346.6666666666665</ele><time>2026-04-25T09:20:48.474Z</time></trkpt><trkpt lat="45.9705327" lon="11.6127422"><ele>1348.0</ele><time>2026-04-25T09:20:49.472Z</time></trkpt><trkpt lat="45.9704799" lon="11.6125207"><ele>1349.3333333333333</ele><time>2026-04-25T09:20:50.467Z</time></trkpt><trkpt lat="45.9704212" lon="11.6123239"><ele>1350.6666666666667</ele><time>2026-04-25T09:20:51.475Z</time></trkpt><trkpt lat="45.970363" lon="11.6121448"><ele>1352.0</ele><time>2026-04-25T09:20:52.467Z</time></trkpt><trkpt lat="45.9702407" lon="11.6118144"><ele>1352.5</ele><time>2026-04-25T09:20:54.456Z</time></trkpt><trkpt lat="45.9701862" lon="11.6116597"><ele>1353.0</ele><time>2026-04-25T09:20:55.47Z</time></trkpt><trkpt lat="45.9701514" lon="11.6115135"><ele>1353.5</ele><time>2026-04-25T09:20:56.467Z</time></trkpt><trkpt lat="45.9701394" lon="11.6113547"><ele>1354.0</ele><time>2026-04-25T09:20:57.475Z</time></trkpt><trkpt lat="45.9701455" lon="11.611162"><ele>1354.0</ele><time>2026-04-25T09:20:58.462Z</time></trkpt><trkpt lat="45.970163" lon="11.6109402"><ele>1354.0</ele><time>2026-04-25T09:20:59.464Z</time></trkpt><trkpt lat="45.9701889" lon="11.6107154"><ele>1354.0</ele><time>2026-04-25T09:21:00.476Z</time></trkpt><trkpt lat="45.9702288" lon="11.610515"><ele>1354.0</ele><time>2026-04-25T09:21:01.464Z</time></trkpt><trkpt lat="45.9702735" lon="11.6103404"><ele>1354.0</ele><time>2026-04-25T09:21:02.475Z</time></trkpt><trkpt lat="45.9703367" lon="11.6101906"><ele>1354.0</ele><time>2026-04-25T09:21:03.477Z</time></trkpt><trkpt lat="45.9703824" lon="11.6100532"><ele>1354.0</ele><time>2026-04-25T09:21:04.476Z</time></trkpt><trkpt lat="45.9704151" lon="11.6099428"><ele>1354.0</ele><time>2026-04-25T09:21:05.471Z</time></trkpt><trkpt lat="45.9704386" lon="11.6098224"><ele>1354.6</ele><time>2026-04-25T09:21:06.462Z</time></trkpt><trkpt lat="45.9704481" lon="11.6096834"><ele>1355.2</ele><time>2026-04-25T09:21:07.46Z</time></trkpt><trkpt lat="45.9704556" lon="11.6095196"><ele>1355.8</ele><time>2026-04-25T09:21:08.473Z</time></trkpt><trkpt lat="45.9704612" lon="11.609359"><ele>1356.3999999999999</ele><time>2026-04-25T09:21:09.478Z</time></trkpt><trkpt lat="45.9704593" lon="11.6092136"><ele>1357.0</ele><time>2026-04-25T09:21:10.458Z</time></trkpt><trkpt lat="45.9704467" lon="11.6090811"><ele>1358.25</ele><time>2026-04-25T09:21:11.465Z</time></trkpt><trkpt lat="45.9704173" lon="11.6089583"><ele>1359.5</ele><time>2026-04-25T09:21:12.473Z</time></trkpt><trkpt lat="45.9703745" lon="11.6088366"><ele>1360.75</ele><time>2026-04-25T09:21:13.46Z</time></trkpt><trkpt lat="45.9702787" lon="11.6085506"><ele>1362.0</ele><time>2026-04-25T09:21:15.463Z</time></trkpt><trkpt lat="45.970208" lon="11.6084237"><ele>1361.5</ele><time>2026-04-25T09:21:16.469Z</time></trkpt><trkpt lat="45.9701188" lon="11.6083199"><ele>1361.0</ele><time>2026-04-25T09:21:17.458Z</time></trkpt><trkpt lat="45.9700106" lon="11.6082161"><ele>1360.5</ele><time>2026-04-25T09:21:18.482Z</time></trkpt><trkpt lat="45.9699066" lon="11.6081031"><ele>1360.0</ele><time>2026-04-25T09:21:19.464Z</time></trkpt><trkpt lat="45.9698221" lon="11.6079897"><ele>1360.0</ele><time>2026-04-25T09:21:20.476Z</time></trkpt><trkpt lat="45.9697544" lon="11.6078808"><ele>1360.0</ele><time>2026-04-25T09:21:21.463Z</time></trkpt><trkpt lat="45.9696906" lon="11.6077858"><ele>1360.0</ele><time>2026-04-25T09:21:22.467Z</time></trkpt><trkpt lat="45.9696143" lon="11.6077033"><ele>1360.0</ele><time>2026-04-25T09:21:23.464Z</time></trkpt><trkpt lat="45.9695355" lon="11.6076329"><ele>1360.0</ele><time>2026-04-25T09:21:24.468Z</time></trkpt><trkpt lat="45.9694642" lon="11.6075642"><ele>1360.0</ele><time>2026-04-25T09:21:25.467Z</time></trkpt><trkpt lat="45.9694066" lon="11.6074866"><ele>1360.0</ele><time>2026-04-25T09:21:26.46Z</time></trkpt><trkpt lat="45.9693673" lon="11.6074041"><ele>1360.0</ele><time>2026-04-25T09:21:27.472Z</time></trkpt><trkpt lat="45.9693443" lon="11.6073169"><ele>1360.0</ele><time>2026-04-25T09:21:28.467Z</time></trkpt><trkpt lat="45.9693291" lon="11.607213"><ele>1360.0</ele><time>2026-04-25T09:21:29.473Z</time></trkpt><trkpt lat="45.9693158" lon="11.607078"><ele>1360.0</ele><time>2026-04-25T09:21:30.471Z</time></trkpt><trkpt lat="45.9693084" lon="11.6069324"><ele>1360.0</ele><time>2026-04-25T09:21:31.474Z</time></trkpt><trkpt lat="45.9693106" lon="11.6067838"><ele>1360.0</ele><time>2026-04-25T09:21:32.467Z</time></trkpt><trkpt lat="45.969319" lon="11.6066484"><ele>1360.0</ele><time>2026-04-25T09:21:33.471Z</time></trkpt><trkpt lat="45.9693596" lon="11.6064868"><ele>1360.0</ele><time>2026-04-25T09:21:34.463Z</time></trkpt><trkpt lat="45.9694341" lon="11.6061316"><ele>1360.25</ele><time>2026-04-25T09:21:36.476Z</time></trkpt><trkpt lat="45.9694462" lon="11.6059719"><ele>1360.5</ele><time>2026-04-25T09:21:37.464Z</time></trkpt><trkpt lat="45.9694439" lon="11.6058132"><ele>1360.75</ele><time>2026-04-25T09:21:38.479Z</time></trkpt><trkpt lat="45.9694132" lon="11.6056592"><ele>1361.0</ele><time>2026-04-25T09:21:39.473Z</time></trkpt><trkpt lat="45.9693618" lon="11.6054874"><ele>1360.6666666666667</ele><time>2026-04-25T09:21:40.477Z</time></trkpt><trkpt lat="45.9692995" lon="11.6052784"><ele>1360.3333333333333</ele><time>2026-04-25T09:21:41.462Z</time></trkpt><trkpt lat="45.9692182" lon="11.6050326"><ele>1360.0</ele><time>2026-04-25T09:21:42.475Z</time></trkpt><trkpt lat="45.9691521" lon="11.6047858"><ele>1360.0</ele><time>2026-04-25T09:21:43.473Z</time></trkpt><trkpt lat="45.9690999" lon="11.6045615"><ele>1360.0</ele><time>2026-04-25T09:21:44.47Z</time></trkpt><trkpt lat="45.9690616" lon="11.6043402"><ele>1360.0</ele><time>2026-04-25T09:21:45.475Z</time></trkpt><trkpt lat="45.9690274" lon="11.6041205"><ele>1360.0</ele><time>2026-04-25T09:21:46.469Z</time></trkpt><trkpt lat="45.9689832" lon="11.6039023"><ele>1360.0</ele><time>2026-04-25T09:21:47.459Z</time></trkpt><trkpt lat="45.9689532" lon="11.6036859"><ele>1360.0</ele><time>2026-04-25T09:21:48.472Z</time></trkpt><trkpt lat="45.9689287" lon="11.6034783"><ele>1360.0</ele><time>2026-04-25T09:21:49.47Z</time></trkpt><trkpt lat="45.9689034" lon="11.6032823"><ele>1360.0</ele><time>2026-04-25T09:21:50.47Z</time></trkpt><trkpt lat="45.9688923" lon="11.6031237"><ele>1360.0</ele><time>2026-04-25T09:21:51.477Z</time></trkpt><trkpt lat="45.9688874" lon="11.6029865"><ele>1360.0</ele><time>2026-04-25T09:21:52.457Z</time></trkpt><trkpt lat="45.9688792" lon="11.6028662"><ele>1360.0</ele><time>2026-04-25T09:21:53.473Z</time></trkpt><trkpt lat="45.9688709" lon="11.6027624"><ele>1360.0</ele><time>2026-04-25T09:21:54.467Z</time></trkpt><trkpt lat="45.9688486" lon="11.6026086"><ele>1360.0</ele><time>2026-04-25T09:21:56.496Z</time></trkpt><trkpt lat="45.9688922" lon="11.6024418"><ele>1360.0</ele><time>2026-04-25T09:22:33.472Z</time></trkpt><trkpt lat="45.9690606" lon="11.602314"><ele>1360.0</ele><time>2026-04-25T09:22:36.465Z</time></trkpt><trkpt lat="45.9691515" lon="11.6022542"><ele>1360.5</ele><time>2026-04-25T09:22:37.467Z</time></trkpt><trkpt lat="45.9692523" lon="11.6021884"><ele>1361.0</ele><time>2026-04-25T09:22:38.46Z</time></trkpt><trkpt lat="45.9693603" lon="11.6021172"><ele>1361.5</ele><time>2026-04-25T09:22:39.47Z</time></trkpt><trkpt lat="45.9694667" lon="11.6020471"><ele>1362.0</ele><time>2026-04-25T09:22:40.467Z</time></trkpt><trkpt lat="45.9695729" lon="11.6019754"><ele>1362.25</ele><time>2026-04-25T09:22:41.483Z</time></trkpt><trkpt lat="45.9696803" lon="11.6019031"><ele>1362.5</ele><time>2026-04-25T09:22:42.474Z</time></trkpt><trkpt lat="45.9697873" lon="11.6018314"><ele>1362.75</ele><time>2026-04-25T09:22:43.461Z</time></trkpt><trkpt lat="45.9698972" lon="11.6017564"><ele>1363.0</ele><time>2026-04-25T09:22:44.472Z</time></trkpt><trkpt lat="45.9700055" lon="11.6016688"><ele>1363.75</ele><time>2026-04-25T09:22:45.461Z</time></trkpt><trkpt lat="45.9701201" lon="11.6015495"><ele>1364.5</ele><time>2026-04-25T09:22:46.477Z</time></trkpt><trkpt lat="45.9702299" lon="11.6014213"><ele>1365.25</ele><time>2026-04-25T09:22:47.47Z</time></trkpt><trkpt lat="45.9703314" lon="11.6013011"><ele>1366.0</ele><time>2026-04-25T09:22:48.474Z</time></trkpt><trkpt lat="45.9704324" lon="11.601187"><ele>1366.5</ele><time>2026-04-25T09:22:49.475Z</time></trkpt><trkpt lat="45.9705364" lon="11.6010711"><ele>1367.0</ele><time>2026-04-25T09:22:50.475Z</time></trkpt><trkpt lat="45.970635" lon="11.6009591"><ele>1367.5</ele><time>2026-04-25T09:22:51.478Z</time></trkpt><trkpt lat="45.9707288" lon="11.6008534"><ele>1368.0</ele><time>2026-04-25T09:22:52.466Z</time></trkpt><trkpt lat="45.970819" lon="11.6007491"><ele>1369.0</ele><time>2026-04-25T09:22:53.47Z</time></trkpt><trkpt lat="45.9709052" lon="11.6006435"><ele>1370.0</ele><time>2026-04-25T09:22:54.453Z</time></trkpt><trkpt lat="45.971062" lon="11.6004225"><ele>1371.0</ele><time>2026-04-25T09:22:56.464Z</time></trkpt><trkpt lat="45.9711329" lon="11.6002992"><ele>1372.0</ele><time>2026-04-25T09:22:57.463Z</time></trkpt><trkpt lat="45.9712091" lon="11.6001744"><ele>1372.0</ele><time>2026-04-25T09:22:58.469Z</time></trkpt><trkpt lat="45.9712924" lon="11.6000629"><ele>1372.0</ele><time>2026-04-25T09:22:59.463Z</time></trkpt><trkpt lat="45.9713839" lon="11.5999704"><ele>1372.0</ele><time>2026-04-25T09:23:00.47Z</time></trkpt><trkpt lat="45.9714724" lon="11.5998972"><ele>1372.0</ele><time>2026-04-25T09:23:01.469Z</time></trkpt><trkpt lat="45.971558" lon="11.5998307"><ele>1372.0</ele><time>2026-04-25T09:23:02.468Z</time></trkpt><trkpt lat="45.9716434" lon="11.5997647"><ele>1371.6</ele><time>2026-04-25T09:23:03.477Z</time></trkpt><trkpt lat="45.9717333" lon="11.5997022"><ele>1371.1999999999998</ele><time>2026-04-25T09:23:04.486Z</time></trkpt><trkpt lat="45.9718242" lon="11.5996591"><ele>1370.8</ele><time>2026-04-25T09:23:05.471Z</time></trkpt><trkpt lat="45.9719123" lon="11.5996488"><ele>1370.4</ele><time>2026-04-25T09:23:06.465Z</time></trkpt><trkpt lat="45.9720124" lon="11.5996672"><ele>1370.0</ele><time>2026-04-25T09:23:07.463Z</time></trkpt><trkpt lat="45.9721266" lon="11.5997051"><ele>1370.0</ele><time>2026-04-25T09:23:08.478Z</time></trkpt><trkpt lat="45.9722392" lon="11.5997398"><ele>1370.0</ele><time>2026-04-25T09:23:09.466Z</time></trkpt><trkpt lat="45.9723567" lon="11.5997687"><ele>1370.0</ele><time>2026-04-25T09:23:10.485Z</time></trkpt><trkpt lat="45.9724719" lon="11.5997931"><ele>1370.0</ele><time>2026-04-25T09:23:11.474Z</time></trkpt><trkpt lat="45.9725735" lon="11.5998079"><ele>1370.0</ele><time>2026-04-25T09:23:12.471Z</time></trkpt><trkpt lat="45.9726646" lon="11.5998117"><ele>1370.0</ele><time>2026-04-25T09:23:13.472Z</time></trkpt><trkpt lat="45.9727466" lon="11.599804"><ele>1370.0</ele><time>2026-04-25T09:23:14.473Z</time></trkpt><trkpt lat="45.9728219" lon="11.5997765"><ele>1370.0</ele><time>2026-04-25T09:23:15.471Z</time></trkpt><trkpt lat="45.9729939" lon="11.5996837"><ele>1370.0</ele><time>2026-04-25T09:23:17.479Z</time></trkpt><trkpt lat="45.9730898" lon="11.5996317"><ele>1370.0</ele><time>2026-04-25T09:23:18.472Z</time></trkpt><trkpt lat="45.9731805" lon="11.5995909"><ele>1370.0</ele><time>2026-04-25T09:23:19.475Z</time></trkpt><trkpt lat="45.973263" lon="11.5995313"><ele>1370.0</ele><time>2026-04-25T09:23:20.474Z</time></trkpt><trkpt lat="45.9733537" lon="11.5994662"><ele>1370.0</ele><time>2026-04-25T09:23:21.477Z</time></trkpt><trkpt lat="45.9734264" lon="11.5994001"><ele>1370.0</ele><time>2026-04-25T09:23:22.457Z</time></trkpt><trkpt lat="45.9735013" lon="11.5993523"><ele>1370.0</ele><time>2026-04-25T09:23:23.461Z</time></trkpt><trkpt lat="45.9735924" lon="11.5993731"><ele>1370.0</ele><time>2026-04-25T09:23:25.477Z</time></trkpt><trkpt lat="45.9736482" lon="11.5994202"><ele>1370.0</ele><time>2026-04-25T09:23:26.475Z</time></trkpt><trkpt lat="45.9737099" lon="11.5995089"><ele>1370.0</ele><time>2026-04-25T09:23:27.47Z</time></trkpt><trkpt lat="45.9737754" lon="11.5995999"><ele>1370.0</ele><time>2026-04-25T09:23:28.476Z</time></trkpt><trkpt lat="45.9738468" lon="11.5996447"><ele>1370.0</ele><time>2026-04-25T09:23:29.432Z</time></trkpt><trkpt lat="45.9739364" lon="11.5996736"><ele>1370.4</ele><time>2026-04-25T09:23:30.437Z</time></trkpt><trkpt lat="45.9740221" lon="11.599696"><ele>1370.8</ele><time>2026-04-25T09:23:31.448Z</time></trkpt><trkpt lat="45.9740961" lon="11.5996985"><ele>1371.1999999999998</ele><time>2026-04-25T09:23:32.446Z</time></trkpt><trkpt lat="45.9742202" lon="11.5996223"><ele>1371.6</ele><time>2026-04-25T09:23:34.444Z</time></trkpt><trkpt lat="45.9743031" lon="11.5995572"><ele>1372.0</ele><time>2026-04-25T09:23:35.445Z</time></trkpt><trkpt lat="45.974383" lon="11.5994896"><ele>1372.0</ele><time>2026-04-25T09:23:36.451Z</time></trkpt><trkpt lat="45.9745401" lon="11.5993457"><ele>1372.0</ele><time>2026-04-25T09:23:39.465Z</time></trkpt><trkpt lat="45.974572" lon="11.5992435"><ele>1372.0</ele><time>2026-04-25T09:23:40.486Z</time></trkpt><trkpt lat="45.9746043" lon="11.5991442"><ele>1372.0</ele><time>2026-04-25T09:23:41.464Z</time></trkpt><trkpt lat="45.974641" lon="11.5990628"><ele>1372.0</ele><time>2026-04-25T09:23:42.465Z</time></trkpt><trkpt lat="45.9746968" lon="11.5989934"><ele>1372.0</ele><time>2026-04-25T09:23:43.477Z</time></trkpt><trkpt lat="45.9747665" lon="11.5989227"><ele>1372.0</ele><time>2026-04-25T09:23:44.47Z</time></trkpt><trkpt lat="45.9748457" lon="11.5988384"><ele>1372.0</ele><time>2026-04-25T09:23:45.465Z</time></trkpt><trkpt lat="45.9749288" lon="11.5987488"><ele>1372.0</ele><time>2026-04-25T09:23:46.457Z</time></trkpt><trkpt lat="45.9750003" lon="11.5986689"><ele>1372.0</ele><time>2026-04-25T09:23:47.465Z</time></trkpt><trkpt lat="45.9750787" lon="11.5985846"><ele>1371.8333333333333</ele><time>2026-04-25T09:23:48.473Z</time></trkpt><trkpt lat="45.9751252" lon="11.5985048"><ele>1371.6666666666665</ele><time>2026-04-25T09:23:49.481Z</time></trkpt><trkpt lat="45.9751955" lon="11.5984237"><ele>1371.5</ele><time>2026-04-25T09:23:50.474Z</time></trkpt><trkpt lat="45.9752676" lon="11.5983618"><ele>1371.3333333333333</ele><time>2026-04-25T09:23:51.464Z</time></trkpt><trkpt lat="45.9753353" lon="11.5983097"><ele>1371.1666666666667</ele><time>2026-04-25T09:23:52.471Z</time></trkpt><trkpt lat="45.975402" lon="11.5982596"><ele>1371.0</ele><time>2026-04-25T09:23:53.467Z</time></trkpt><trkpt lat="45.9754764" lon="11.5981982"><ele>1371.0</ele><time>2026-04-25T09:23:54.457Z</time></trkpt><trkpt lat="45.9755391" lon="11.5981423"><ele>1371.0</ele><time>2026-04-25T09:23:55.474Z</time></trkpt><trkpt lat="45.9755925" lon="11.5980663"><ele>1371.0</ele><time>2026-04-25T09:23:56.476Z</time></trkpt><trkpt lat="45.9756455" lon="11.597958"><ele>1371.0</ele><time>2026-04-25T09:23:57.468Z</time></trkpt><trkpt lat="45.9757553" lon="11.5976809"><ele>1371.1666666666667</ele><time>2026-04-25T09:23:59.463Z</time></trkpt><trkpt lat="45.9758045" lon="11.5975719"><ele>1371.3333333333333</ele><time>2026-04-25T09:24:00.461Z</time></trkpt><trkpt lat="45.9758465" lon="11.5974858"><ele>1371.5</ele><time>2026-04-25T09:24:01.469Z</time></trkpt><trkpt lat="45.9758846" lon="11.5973976"><ele>1371.6666666666665</ele><time>2026-04-25T09:24:02.456Z</time></trkpt><trkpt lat="45.9759087" lon="11.5972836"><ele>1371.8333333333333</ele><time>2026-04-25T09:24:03.457Z</time></trkpt><trkpt lat="45.9759284" lon="11.5971657"><ele>1372.0</ele><time>2026-04-25T09:24:04.468Z</time></trkpt><trkpt lat="45.9759513" lon="11.5970314"><ele>1371.1999999999998</ele><time>2026-04-25T09:24:05.471Z</time></trkpt><trkpt lat="45.9759773" lon="11.5968962"><ele>1370.4</ele><time>2026-04-25T09:24:06.476Z</time></trkpt><trkpt lat="45.9760037" lon="11.5967644"><ele>1369.6</ele><time>2026-04-25T09:24:07.462Z</time></trkpt><trkpt lat="45.9760394" lon="11.5966454"><ele>1368.8000000000002</ele><time>2026-04-25T09:24:08.465Z</time></trkpt><trkpt lat="45.9760878" lon="11.5965256"><ele>1368.0</ele><time>2026-04-25T09:24:09.472Z</time></trkpt><trkpt lat="45.976139" lon="11.5964015"><ele>1368.0</ele><time>2026-04-25T09:24:10.476Z</time></trkpt><trkpt lat="45.9762033" lon="11.5962683"><ele>1368.0</ele><time>2026-04-25T09:24:11.458Z</time></trkpt><trkpt lat="45.9762609" lon="11.5961496"><ele>1368.0</ele><time>2026-04-25T09:24:12.476Z</time></trkpt><trkpt lat="45.9763141" lon="11.5960393"><ele>1368.0</ele><time>2026-04-25T09:24:13.469Z</time></trkpt><trkpt lat="45.9763653" lon="11.5959447"><ele>1368.0</ele><time>2026-04-25T09:24:14.474Z</time></trkpt><trkpt lat="45.9764199" lon="11.5958396"><ele>1367.75</ele><time>2026-04-25T09:24:15.463Z</time></trkpt><trkpt lat="45.976471" lon="11.5957225"><ele>1367.5</ele><time>2026-04-25T09:24:16.482Z</time></trkpt><trkpt lat="45.976495" lon="11.5956114"><ele>1367.25</ele><time>2026-04-25T09:24:17.482Z</time></trkpt><trkpt lat="45.976521" lon="11.5955013"><ele>1367.0</ele><time>2026-04-25T09:24:18.477Z</time></trkpt><trkpt lat="45.9766039" lon="11.5952439"><ele>1366.5</ele><time>2026-04-25T09:24:20.475Z</time></trkpt><trkpt lat="45.9766384" lon="11.5951103"><ele>1366.0</ele><time>2026-04-25T09:24:21.482Z</time></trkpt><trkpt lat="45.9766684" lon="11.5949661"><ele>1365.5</ele><time>2026-04-25T09:24:22.462Z</time></trkpt><trkpt lat="45.976712" lon="11.5947857"><ele>1365.0</ele><time>2026-04-25T09:24:23.454Z</time></trkpt><trkpt lat="45.9767697" lon="11.5945863"><ele>1363.0</ele><time>2026-04-25T09:24:24.463Z</time></trkpt><trkpt lat="45.9768288" lon="11.5944017"><ele>1361.0</ele><time>2026-04-25T09:24:25.462Z</time></trkpt><trkpt lat="45.9768894" lon="11.5942315"><ele>1359.0</ele><time>2026-04-25T09:24:26.458Z</time></trkpt><trkpt lat="45.9769593" lon="11.5940836"><ele>1357.0</ele><time>2026-04-25T09:24:27.461Z</time></trkpt><trkpt lat="45.9770264" lon="11.5939632"><ele>1357.0</ele><time>2026-04-25T09:24:28.462Z</time></trkpt><trkpt lat="45.9770837" lon="11.5938645"><ele>1357.0</ele><time>2026-04-25T09:24:29.475Z</time></trkpt><trkpt lat="45.9771376" lon="11.5937837"><ele>1357.0</ele><time>2026-04-25T09:24:30.463Z</time></trkpt><trkpt lat="45.9771943" lon="11.5937158"><ele>1357.0</ele><time>2026-04-25T09:24:31.475Z</time></trkpt><trkpt lat="45.9772541" lon="11.593674"><ele>1357.0</ele><time>2026-04-25T09:24:32.47Z</time></trkpt><trkpt lat="45.977374" lon="11.593682"><ele>1357.0</ele><time>2026-04-25T09:24:34.455Z</time></trkpt><trkpt lat="45.9774619" lon="11.5937956"><ele>1359.0</ele><time>2026-04-25T09:24:36.459Z</time></trkpt><trkpt lat="45.9775473" lon="11.5939029"><ele>1361.0</ele><time>2026-04-25T09:24:38.471Z</time></trkpt><trkpt lat="45.977639" lon="11.5939328"><ele>1363.0</ele><time>2026-04-25T09:24:40.468Z</time></trkpt><trkpt lat="45.9777502" lon="11.5938161"><ele>1365.0</ele><time>2026-04-25T09:24:44.452Z</time></trkpt><trkpt lat="45.9778084" lon="11.593718"><ele>1367.0</ele><time>2026-04-25T09:24:46.466Z</time></trkpt><trkpt lat="45.9778849" lon="11.5936296"><ele>1367.0</ele><time>2026-04-25T09:24:48.474Z</time></trkpt><trkpt lat="45.9779669" lon="11.5935772"><ele>1367.0</ele><time>2026-04-25T09:24:50.478Z</time></trkpt><trkpt lat="45.9780328" lon="11.5935193"><ele>1367.0</ele><time>2026-04-25T09:24:52.462Z</time></trkpt><trkpt lat="45.9780834" lon="11.5934602"><ele>1367.0</ele><time>2026-04-25T09:24:54.472Z</time></trkpt><trkpt lat="45.9781451" lon="11.5934014"><ele>1367.0</ele><time>2026-04-25T09:24:57.46Z</time></trkpt><trkpt lat="45.9782007" lon="11.5933395"><ele>1367.0</ele><time>2026-04-25T09:25:10.47Z</time></trkpt><trkpt lat="45.9783126" lon="11.5931789"><ele>1366.8</ele><time>2026-04-25T09:25:14.482Z</time></trkpt><trkpt lat="45.978367" lon="11.5930594"><ele>1366.6</ele><time>2026-04-25T09:25:16.465Z</time></trkpt><trkpt lat="45.9784008" lon="11.5929409"><ele>1366.3999999999999</ele><time>2026-04-25T09:25:18.464Z</time></trkpt><trkpt lat="45.9784506" lon="11.5927813"><ele>1366.1999999999998</ele><time>2026-04-25T09:25:20.479Z</time></trkpt><trkpt lat="45.9784964" lon="11.592698"><ele>1366.0</ele><time>2026-04-25T09:25:21.468Z</time></trkpt><trkpt lat="45.9785566" lon="11.5926252"><ele>1366.0</ele><time>2026-04-25T09:25:22.474Z</time></trkpt><trkpt lat="45.9786262" lon="11.5925651"><ele>1366.0</ele><time>2026-04-25T09:25:23.477Z</time></trkpt><trkpt lat="45.9786981" lon="11.5925182"><ele>1366.0</ele><time>2026-04-25T09:25:24.459Z</time></trkpt><trkpt lat="45.9787688" lon="11.592482"><ele>1366.0</ele><time>2026-04-25T09:25:25.455Z</time></trkpt><trkpt lat="45.9788368" lon="11.5924558"><ele>1366.0</ele><time>2026-04-25T09:25:26.468Z</time></trkpt><trkpt lat="45.9788998" lon="11.5924288"><ele>1366.0</ele><time>2026-04-25T09:25:27.472Z</time></trkpt><trkpt lat="45.9790041" lon="11.5923428"><ele>1366.0</ele><time>2026-04-25T09:25:29.484Z</time></trkpt><trkpt lat="45.9790462" lon="11.5922751"><ele>1366.0</ele><time>2026-04-25T09:25:30.462Z</time></trkpt><trkpt lat="45.9790845" lon="11.5921899"><ele>1366.0</ele><time>2026-04-25T09:25:31.466Z</time></trkpt><trkpt lat="45.9791636" lon="11.5919953"><ele>1366.0</ele><time>2026-04-25T09:25:33.472Z</time></trkpt><trkpt lat="45.9792095" lon="11.591887"><ele>1366.0</ele><time>2026-04-25T09:25:34.453Z</time></trkpt><trkpt lat="45.9792561" lon="11.5917678"><ele>1361.1999999999998</ele><time>2026-04-25T09:25:35.459Z</time></trkpt><trkpt lat="45.9792931" lon="11.5916334"><ele>1356.3999999999999</ele><time>2026-04-25T09:25:36.457Z</time></trkpt><trkpt lat="45.9793209" lon="11.5914899"><ele>1351.6</ele><time>2026-04-25T09:25:37.466Z</time></trkpt><trkpt lat="45.9793459" lon="11.5913657"><ele>1346.8</ele><time>2026-04-25T09:25:38.454Z</time></trkpt><trkpt lat="45.9793762" lon="11.5912572"><ele>1342.0</ele><time>2026-04-25T09:25:39.469Z</time></trkpt><trkpt lat="45.9794091" lon="11.591153"><ele>1342.0</ele><time>2026-04-25T09:25:40.473Z</time></trkpt><trkpt lat="45.9794385" lon="11.5910498"><ele>1342.0</ele><time>2026-04-25T09:25:41.468Z</time></trkpt><trkpt lat="45.9794664" lon="11.5909597"><ele>1342.0</ele><time>2026-04-25T09:25:42.471Z</time></trkpt><trkpt lat="45.9795245" lon="11.5908315"><ele>1342.0</ele><time>2026-04-25T09:25:44.465Z</time></trkpt><trkpt lat="45.9796182" lon="11.5907877"><ele>1342.0</ele><time>2026-04-25T09:25:46.463Z</time></trkpt><trkpt lat="45.9797198" lon="11.5908715"><ele>1342.0</ele><time>2026-04-25T09:25:48.468Z</time></trkpt><trkpt lat="45.9798227" lon="11.590946"><ele>1342.0</ele><time>2026-04-25T09:25:50.465Z</time></trkpt><trkpt lat="45.9799413" lon="11.5908702"><ele>1342.0</ele><time>2026-04-25T09:25:52.469Z</time></trkpt><trkpt lat="45.9800672" lon="11.5906262"><ele>1339.5</ele><time>2026-04-25T09:25:54.465Z</time></trkpt><trkpt lat="45.9801283" lon="11.5905037"><ele>1337.0</ele><time>2026-04-25T09:25:55.464Z</time></trkpt><trkpt lat="45.9801892" lon="11.5904025"><ele>1334.5</ele><time>2026-04-25T09:25:56.466Z</time></trkpt><trkpt lat="45.9802359" lon="11.590322"><ele>1332.0</ele><time>2026-04-25T09:25:57.463Z</time></trkpt><trkpt lat="45.9802774" lon="11.5902507"><ele>1329.5</ele><time>2026-04-25T09:25:58.465Z</time></trkpt><trkpt lat="45.9803094" lon="11.590165"><ele>1327.0</ele><time>2026-04-25T09:25:59.457Z</time></trkpt><trkpt lat="45.9803425" lon="11.5900718"><ele>1327.0</ele><time>2026-04-25T09:26:00.475Z</time></trkpt><trkpt lat="45.9803623" lon="11.5899601"><ele>1327.0</ele><time>2026-04-25T09:26:01.465Z</time></trkpt><trkpt lat="45.9803811" lon="11.5898482"><ele>1327.0</ele><time>2026-04-25T09:26:02.457Z</time></trkpt><trkpt lat="45.980407" lon="11.5897391"><ele>1327.0</ele><time>2026-04-25T09:26:03.458Z</time></trkpt><trkpt lat="45.9804319" lon="11.5896338"><ele>1327.0</ele><time>2026-04-25T09:26:04.467Z</time></trkpt><trkpt lat="45.9804788" lon="11.589558"><ele>1327.0</ele><time>2026-04-25T09:26:05.473Z</time></trkpt><trkpt lat="45.9805253" lon="11.5894784"><ele>1327.6</ele><time>2026-04-25T09:26:06.473Z</time></trkpt><trkpt lat="45.9805677" lon="11.5893749"><ele>1328.1999999999998</ele><time>2026-04-25T09:26:07.469Z</time></trkpt><trkpt lat="45.9805965" lon="11.5892568"><ele>1328.8</ele><time>2026-04-25T09:26:08.465Z</time></trkpt><trkpt lat="45.9806119" lon="11.5891326"><ele>1329.4</ele><time>2026-04-25T09:26:09.475Z</time></trkpt><trkpt lat="45.9806201" lon="11.5889883"><ele>1330.0</ele><time>2026-04-25T09:26:10.486Z</time></trkpt><trkpt lat="45.9806158" lon="11.5888405"><ele>1330.0</ele><time>2026-04-25T09:26:11.459Z</time></trkpt><trkpt lat="45.9806095" lon="11.5886844"><ele>1330.0</ele><time>2026-04-25T09:26:12.478Z</time></trkpt><trkpt lat="45.9806045" lon="11.5885171"><ele>1330.0</ele><time>2026-04-25T09:26:13.478Z</time></trkpt><trkpt lat="45.9805688" lon="11.5881586"><ele>1330.6</ele><time>2026-04-25T09:26:15.467Z</time></trkpt><trkpt lat="45.9805373" lon="11.5879956"><ele>1331.2</ele><time>2026-04-25T09:26:16.464Z</time></trkpt><trkpt lat="45.9804959" lon="11.5878483"><ele>1331.8000000000002</ele><time>2026-04-25T09:26:17.46Z</time></trkpt><trkpt lat="45.9804474" lon="11.5877089"><ele>1332.4</ele><time>2026-04-25T09:26:18.463Z</time></trkpt><trkpt lat="45.9803973" lon="11.5875644"><ele>1333.0</ele><time>2026-04-25T09:26:19.463Z</time></trkpt><trkpt lat="45.9803452" lon="11.5874227"><ele>1334.0</ele><time>2026-04-25T09:26:20.483Z</time></trkpt><trkpt lat="45.9802964" lon="11.5872804"><ele>1335.0</ele><time>2026-04-25T09:26:21.462Z</time></trkpt><trkpt lat="45.9802485" lon="11.5871463"><ele>1336.0</ele><time>2026-04-25T09:26:22.469Z</time></trkpt><trkpt lat="45.9802034" lon="11.5870196"><ele>1337.0</ele><time>2026-04-25T09:26:23.463Z</time></trkpt><trkpt lat="45.9801604" lon="11.5869046"><ele>1338.0</ele><time>2026-04-25T09:26:24.467Z</time></trkpt><trkpt lat="45.9801204" lon="11.5867879"><ele>1339.2</ele><time>2026-04-25T09:26:25.463Z</time></trkpt><trkpt lat="45.9800735" lon="11.5866609"><ele>1340.4</ele><time>2026-04-25T09:26:26.46Z</time></trkpt><trkpt lat="45.980026" lon="11.5865364"><ele>1341.6000000000001</ele><time>2026-04-25T09:26:27.467Z</time></trkpt><trkpt lat="45.9799944" lon="11.5864171"><ele>1342.8000000000002</ele><time>2026-04-25T09:26:28.471Z</time></trkpt><trkpt lat="45.9799734" lon="11.586294"><ele>1344.0</ele><time>2026-04-25T09:26:29.463Z</time></trkpt><trkpt lat="45.979954" lon="11.5861659"><ele>1347.4</ele><time>2026-04-25T09:26:30.455Z</time></trkpt><trkpt lat="45.979942" lon="11.5860299"><ele>1350.8000000000002</ele><time>2026-04-25T09:26:31.459Z</time></trkpt><trkpt lat="45.9799429" lon="11.5858769"><ele>1354.1999999999998</ele><time>2026-04-25T09:26:32.48Z</time></trkpt><trkpt lat="45.9799501" lon="11.5857328"><ele>1357.6</ele><time>2026-04-25T09:26:33.461Z</time></trkpt><trkpt lat="45.9799518" lon="11.5855894"><ele>1361.0</ele><time>2026-04-25T09:26:34.452Z</time></trkpt><trkpt lat="45.9799261" lon="11.5853225"><ele>1361.0</ele><time>2026-04-25T09:26:36.469Z</time></trkpt><trkpt lat="45.9799088" lon="11.5852048"><ele>1361.0</ele><time>2026-04-25T09:26:37.474Z</time></trkpt><trkpt lat="45.9798929" lon="11.5850944"><ele>1361.0</ele><time>2026-04-25T09:26:38.48Z</time></trkpt><trkpt lat="45.9798733" lon="11.5849919"><ele>1361.0</ele><time>2026-04-25T09:26:39.468Z</time></trkpt><trkpt lat="45.9798546" lon="11.584902"><ele>1361.0</ele><time>2026-04-25T09:26:40.453Z</time></trkpt><trkpt lat="45.979813" lon="11.584757"><ele>1361.0</ele><time>2026-04-25T09:26:42.452Z</time></trkpt><trkpt lat="45.9797778" lon="11.5846569"><ele>1361.0</ele><time>2026-04-25T09:26:44.46Z</time></trkpt><trkpt lat="45.9797366" lon="11.5845426"><ele>1361.0</ele><time>2026-04-25T09:26:47.466Z</time></trkpt><trkpt lat="45.9797153" lon="11.5844517"><ele>1361.0</ele><time>2026-04-25T09:26:50.448Z</time></trkpt><trkpt lat="45.9797411" lon="11.5845403"><ele>1361.0</ele><time>2026-04-25T09:32:51.442Z</time></trkpt><trkpt lat="45.9797997" lon="11.5847777"><ele>1361.0</ele><time>2026-04-25T09:32:57.448Z</time></trkpt><trkpt lat="45.9798322" lon="11.5849323"><ele>1361.0</ele><time>2026-04-25T09:32:59.448Z</time></trkpt><trkpt lat="45.9798544" lon="11.5850399"><ele>1361.0</ele><time>2026-04-25T09:33:00.448Z</time></trkpt><trkpt lat="45.9798773" lon="11.5851544"><ele>1361.0</ele><time>2026-04-25T09:33:01.451Z</time></trkpt><trkpt lat="45.9798957" lon="11.5852831"><ele>1361.0</ele><time>2026-04-25T09:33:02.454Z</time></trkpt><trkpt lat="45.9799119" lon="11.5853975"><ele>1361.0</ele><time>2026-04-25T09:33:03.453Z</time></trkpt><trkpt lat="45.9799222" lon="11.5855189"><ele>1361.0</ele><time>2026-04-25T09:33:04.448Z</time></trkpt><trkpt lat="45.9799235" lon="11.5856385"><ele>1360.5714285714284</ele><time>2026-04-25T09:33:05.451Z</time></trkpt><trkpt lat="45.9799171" lon="11.5857511"><ele>1360.142857142857</ele><time>2026-04-25T09:33:06.449Z</time></trkpt><trkpt lat="45.9799097" lon="11.5858619"><ele>1359.7142857142858</ele><time>2026-04-25T09:33:07.46Z</time></trkpt><trkpt lat="45.9799069" lon="11.5859666"><ele>1359.2857142857142</ele><time>2026-04-25T09:33:08.459Z</time></trkpt><trkpt lat="45.9799137" lon="11.5860713"><ele>1358.857142857143</ele><time>2026-04-25T09:33:09.453Z</time></trkpt><trkpt lat="45.9799253" lon="11.586177"><ele>1358.4285714285713</ele><time>2026-04-25T09:33:10.447Z</time></trkpt><trkpt lat="45.9799379" lon="11.5862792"><ele>1358.0</ele><time>2026-04-25T09:33:11.453Z</time></trkpt><trkpt lat="45.9799501" lon="11.5863741"><ele>1358.0</ele><time>2026-04-25T09:33:12.449Z</time></trkpt><trkpt lat="45.9800125" lon="11.5865673"><ele>1358.0</ele><time>2026-04-25T09:33:14.455Z</time></trkpt><trkpt lat="45.9800467" lon="11.5866652"><ele>1358.0</ele><time>2026-04-25T09:33:15.448Z</time></trkpt><trkpt lat="45.9800823" lon="11.586763"><ele>1358.0</ele><time>2026-04-25T09:33:16.45Z</time></trkpt><trkpt lat="45.9801174" lon="11.5868686"><ele>1358.0</ele><time>2026-04-25T09:33:17.462Z</time></trkpt><trkpt lat="45.9801553" lon="11.5869719"><ele>1355.142857142857</ele><time>2026-04-25T09:33:18.456Z</time></trkpt><trkpt lat="45.980191" lon="11.5870731"><ele>1352.2857142857142</ele><time>2026-04-25T09:33:19.462Z</time></trkpt><trkpt lat="45.9802299" lon="11.5871759"><ele>1349.4285714285716</ele><time>2026-04-25T09:33:20.473Z</time></trkpt><trkpt lat="45.9802706" lon="11.5872678"><ele>1346.5714285714284</ele><time>2026-04-25T09:33:21.46Z</time></trkpt><trkpt lat="45.9803053" lon="11.5873612"><ele>1343.7142857142858</ele><time>2026-04-25T09:33:22.464Z</time></trkpt><trkpt lat="45.9803395" lon="11.5874517"><ele>1340.857142857143</ele><time>2026-04-25T09:33:23.466Z</time></trkpt><trkpt lat="45.9803708" lon="11.5875337"><ele>1338.0</ele><time>2026-04-25T09:33:24.474Z</time></trkpt><trkpt lat="45.9804379" lon="11.5876958"><ele>1338.0</ele><time>2026-04-25T09:33:26.46Z</time></trkpt><trkpt lat="45.9804763" lon="11.5877788"><ele>1338.0</ele><time>2026-04-25T09:33:27.46Z</time></trkpt><trkpt lat="45.980511" lon="11.5878562"><ele>1338.0</ele><time>2026-04-25T09:33:28.458Z</time></trkpt><trkpt lat="45.9805864" lon="11.5879885"><ele>1338.0</ele><time>2026-04-25T09:33:30.477Z</time></trkpt><trkpt lat="45.9806602" lon="11.5881134"><ele>1338.0</ele><time>2026-04-25T09:33:32.466Z</time></trkpt><trkpt lat="45.9807411" lon="11.5881962"><ele>1335.5</ele><time>2026-04-25T09:33:34.461Z</time></trkpt><trkpt lat="45.9809457" lon="11.5883378"><ele>1333.0</ele><time>2026-04-25T09:33:38.474Z</time></trkpt><trkpt lat="45.981054" lon="11.5883901"><ele>1330.5</ele><time>2026-04-25T09:33:40.473Z</time></trkpt><trkpt lat="45.9811257" lon="11.5884884"><ele>1328.0</ele><time>2026-04-25T09:33:42.446Z</time></trkpt><trkpt lat="45.9811408" lon="11.5886282"><ele>1326.8000000000002</ele><time>2026-04-25T09:33:44.448Z</time></trkpt><trkpt lat="45.9811259" lon="11.5887692"><ele>1325.6</ele><time>2026-04-25T09:33:46.452Z</time></trkpt><trkpt lat="45.9810878" lon="11.5888983"><ele>1324.4</ele><time>2026-04-25T09:33:48.471Z</time></trkpt><trkpt lat="45.9810082" lon="11.5890374"><ele>1323.1999999999998</ele><time>2026-04-25T09:33:50.461Z</time></trkpt><trkpt lat="45.9809483" lon="11.5891335"><ele>1322.0</ele><time>2026-04-25T09:33:51.461Z</time></trkpt><trkpt lat="45.9809022" lon="11.5892231"><ele>1322.0</ele><time>2026-04-25T09:33:52.452Z</time></trkpt><trkpt lat="45.9808712" lon="11.5893059"><ele>1322.0</ele><time>2026-04-25T09:33:53.45Z</time></trkpt><trkpt lat="45.9808439" lon="11.5894605"><ele>1322.0</ele><time>2026-04-25T09:33:55.447Z</time></trkpt><trkpt lat="45.9807912" lon="11.5897095"><ele>1322.0</ele><time>2026-04-25T09:33:58.438Z</time></trkpt><trkpt lat="45.9807707" lon="11.5898004"><ele>1322.0</ele><time>2026-04-25T09:33:59.446Z</time></trkpt><trkpt lat="45.9807463" lon="11.5898956"><ele>1322.6</ele><time>2026-04-25T09:34:00.439Z</time></trkpt><trkpt lat="45.9807031" lon="11.5900375"><ele>1323.1999999999998</ele><time>2026-04-25T09:34:01.448Z</time></trkpt><trkpt lat="45.980668" lon="11.5901915"><ele>1323.8</ele><time>2026-04-25T09:34:02.45Z</time></trkpt><trkpt lat="45.9806385" lon="11.5903232"><ele>1324.4</ele><time>2026-04-25T09:34:03.453Z</time></trkpt><trkpt lat="45.9806132" lon="11.5904379"><ele>1325.0</ele><time>2026-04-25T09:34:04.432Z</time></trkpt><trkpt lat="45.9805901" lon="11.5905544"><ele>1325.0</ele><time>2026-04-25T09:34:05.433Z</time></trkpt><trkpt lat="45.9805701" lon="11.5906776"><ele>1325.0</ele><time>2026-04-25T09:34:06.432Z</time></trkpt><trkpt lat="45.9805486" lon="11.5907955"><ele>1325.0</ele><time>2026-04-25T09:34:07.438Z</time></trkpt><trkpt lat="45.9805279" lon="11.5909101"><ele>1325.0</ele><time>2026-04-25T09:34:08.445Z</time></trkpt><trkpt lat="45.9805007" lon="11.5910276"><ele>1325.0</ele><time>2026-04-25T09:34:09.438Z</time></trkpt><trkpt lat="45.9804663" lon="11.5911478"><ele>1325.0</ele><time>2026-04-25T09:34:10.449Z</time></trkpt><trkpt lat="45.9804281" lon="11.5912735"><ele>1325.2</ele><time>2026-04-25T09:34:11.452Z</time></trkpt><trkpt lat="45.9803904" lon="11.5913969"><ele>1325.4</ele><time>2026-04-25T09:34:12.45Z</time></trkpt><trkpt lat="45.980346" lon="11.5915337"><ele>1325.6</ele><time>2026-04-25T09:34:13.451Z</time></trkpt><trkpt lat="45.9802998" lon="11.591671"><ele>1325.8</ele><time>2026-04-25T09:34:14.454Z</time></trkpt><trkpt lat="45.9802597" lon="11.5918138"><ele>1326.0</ele><time>2026-04-25T09:34:15.47Z</time></trkpt><trkpt lat="45.9801959" lon="11.5921057"><ele>1326.0</ele><time>2026-04-25T09:34:17.448Z</time></trkpt><trkpt lat="45.9801856" lon="11.5922365"><ele>1326.0</ele><time>2026-04-25T09:34:18.427Z</time></trkpt><trkpt lat="45.9801953" lon="11.5923678"><ele>1326.0</ele><time>2026-04-25T09:34:19.444Z</time></trkpt><trkpt lat="45.9802336" lon="11.5924963"><ele>1326.0</ele><time>2026-04-25T09:34:20.47Z</time></trkpt><trkpt lat="45.9802978" lon="11.592614"><ele>1326.0</ele><time>2026-04-25T09:34:21.456Z</time></trkpt><trkpt lat="45.9803687" lon="11.5927392"><ele>1327.5</ele><time>2026-04-25T09:34:22.452Z</time></trkpt><trkpt lat="45.9804374" lon="11.5928766"><ele>1329.0</ele><time>2026-04-25T09:34:23.453Z</time></trkpt><trkpt lat="45.980502" lon="11.5930237"><ele>1330.5</ele><time>2026-04-25T09:34:24.456Z</time></trkpt><trkpt lat="45.9805546" lon="11.5931869"><ele>1332.0</ele><time>2026-04-25T09:34:25.458Z</time></trkpt><trkpt lat="45.9805954" lon="11.5933586"><ele>1332.0</ele><time>2026-04-25T09:34:26.449Z</time></trkpt><trkpt lat="45.9806265" lon="11.5935385"><ele>1332.0</ele><time>2026-04-25T09:34:27.46Z</time></trkpt><trkpt lat="45.9806483" lon="11.5937172"><ele>1332.0</ele><time>2026-04-25T09:34:28.451Z</time></trkpt><trkpt lat="45.9806592" lon="11.5938984"><ele>1332.0</ele><time>2026-04-25T09:34:29.445Z</time></trkpt><trkpt lat="45.9806623" lon="11.5940847"><ele>1332.75</ele><time>2026-04-25T09:34:30.459Z</time></trkpt><trkpt lat="45.9806588" lon="11.5942829"><ele>1333.5</ele><time>2026-04-25T09:34:31.46Z</time></trkpt><trkpt lat="45.980648" lon="11.594499"><ele>1334.25</ele><time>2026-04-25T09:34:32.44Z</time></trkpt><trkpt lat="45.9806276" lon="11.5947257"><ele>1335.0</ele><time>2026-04-25T09:34:33.461Z</time></trkpt><trkpt lat="45.9805996" lon="11.5949337"><ele>1335.0</ele><time>2026-04-25T09:34:34.439Z</time></trkpt><trkpt lat="45.9805635" lon="11.5951079"><ele>1335.0</ele><time>2026-04-25T09:34:35.449Z</time></trkpt><trkpt lat="45.9805162" lon="11.5952483"><ele>1335.0</ele><time>2026-04-25T09:34:36.457Z</time></trkpt><trkpt lat="45.9803665" lon="11.5954002"><ele>1335.0</ele><time>2026-04-25T09:34:38.454Z</time></trkpt><trkpt lat="45.9802561" lon="11.5954383"><ele>1332.75</ele><time>2026-04-25T09:34:39.447Z</time></trkpt><trkpt lat="45.9801319" lon="11.5954728"><ele>1330.5</ele><time>2026-04-25T09:34:40.453Z</time></trkpt><trkpt lat="45.9799981" lon="11.5955103"><ele>1328.25</ele><time>2026-04-25T09:34:41.468Z</time></trkpt><trkpt lat="45.9798624" lon="11.5955494"><ele>1326.0</ele><time>2026-04-25T09:34:42.457Z</time></trkpt><trkpt lat="45.979718" lon="11.5955963"><ele>1333.3333333333333</ele><time>2026-04-25T09:34:43.455Z</time></trkpt><trkpt lat="45.979561" lon="11.5956522"><ele>1340.6666666666665</ele><time>2026-04-25T09:34:44.465Z</time></trkpt><trkpt lat="45.9793886" lon="11.5957025"><ele>1348.0</ele><time>2026-04-25T09:34:45.456Z</time></trkpt><trkpt lat="45.9791953" lon="11.5957349"><ele>1351.0</ele><time>2026-04-25T09:34:46.453Z</time></trkpt><trkpt lat="45.9789978" lon="11.5957463"><ele>1354.0</ele><time>2026-04-25T09:34:47.46Z</time></trkpt><trkpt lat="45.9788377" lon="11.5957518"><ele>1357.0</ele><time>2026-04-25T09:34:48.461Z</time></trkpt><trkpt lat="45.9787091" lon="11.5957505"><ele>1357.0</ele><time>2026-04-25T09:34:49.475Z</time></trkpt><trkpt lat="45.9785985" lon="11.5957219"><ele>1357.0</ele><time>2026-04-25T09:34:50.475Z</time></trkpt><trkpt lat="45.9784944" lon="11.5956407"><ele>1357.0</ele><time>2026-04-25T09:34:51.46Z</time></trkpt><trkpt lat="45.9783954" lon="11.5955167"><ele>1357.0</ele><time>2026-04-25T09:34:52.466Z</time></trkpt><trkpt lat="45.9782963" lon="11.5953527"><ele>1359.0</ele><time>2026-04-25T09:34:53.46Z</time></trkpt><trkpt lat="45.9781966" lon="11.5951661"><ele>1361.0</ele><time>2026-04-25T09:34:54.471Z</time></trkpt><trkpt lat="45.9780991" lon="11.5949838"><ele>1363.0</ele><time>2026-04-25T09:34:55.46Z</time></trkpt><trkpt lat="45.9780085" lon="11.5948187"><ele>1363.0</ele><time>2026-04-25T09:34:56.471Z</time></trkpt><trkpt lat="45.9779243" lon="11.5946674"><ele>1363.0</ele><time>2026-04-25T09:34:57.47Z</time></trkpt><trkpt lat="45.9777741" lon="11.5943906"><ele>1363.0</ele><time>2026-04-25T09:34:59.459Z</time></trkpt><trkpt lat="45.9777079" lon="11.594266"><ele>1364.2</ele><time>2026-04-25T09:35:00.474Z</time></trkpt><trkpt lat="45.9776473" lon="11.5941506"><ele>1365.4</ele><time>2026-04-25T09:35:01.468Z</time></trkpt><trkpt lat="45.9775915" lon="11.5940409"><ele>1366.6000000000001</ele><time>2026-04-25T09:35:02.471Z</time></trkpt><trkpt lat="45.9775396" lon="11.5939379"><ele>1367.8000000000002</ele><time>2026-04-25T09:35:03.464Z</time></trkpt><trkpt lat="45.9774896" lon="11.5938416"><ele>1369.0</ele><time>2026-04-25T09:35:04.471Z</time></trkpt><trkpt lat="45.9774376" lon="11.5937489"><ele>1367.3333333333333</ele><time>2026-04-25T09:35:05.459Z</time></trkpt><trkpt lat="45.9773753" lon="11.593676"><ele>1365.6666666666665</ele><time>2026-04-25T09:35:06.458Z</time></trkpt><trkpt lat="45.9773094" lon="11.5936509"><ele>1364.0</ele><time>2026-04-25T09:35:07.466Z</time></trkpt><trkpt lat="45.9772414" lon="11.5936701"><ele>1362.3333333333333</ele><time>2026-04-25T09:35:08.467Z</time></trkpt><trkpt lat="45.9771797" lon="11.5937283"><ele>1360.6666666666667</ele><time>2026-04-25T09:35:09.463Z</time></trkpt><trkpt lat="45.9771161" lon="11.5938137"><ele>1359.0</ele><time>2026-04-25T09:35:10.455Z</time></trkpt><trkpt lat="45.9770485" lon="11.593913"><ele>1358.6</ele><time>2026-04-25T09:35:11.457Z</time></trkpt><trkpt lat="45.9769796" lon="11.5940251"><ele>1358.2</ele><time>2026-04-25T09:35:12.463Z</time></trkpt><trkpt lat="45.9769177" lon="11.5941354"><ele>1357.8</ele><time>2026-04-25T09:35:13.47Z</time></trkpt><trkpt lat="45.9768645" lon="11.5942584"><ele>1357.3999999999999</ele><time>2026-04-25T09:35:14.463Z</time></trkpt><trkpt lat="45.97682" lon="11.5943933"><ele>1357.0</ele><time>2026-04-25T09:35:15.464Z</time></trkpt><trkpt lat="45.976783" lon="11.5945289"><ele>1356.8</ele><time>2026-04-25T09:35:16.462Z</time></trkpt><trkpt lat="45.9767454" lon="11.5946514"><ele>1356.6</ele><time>2026-04-25T09:35:17.477Z</time></trkpt><trkpt lat="45.9767118" lon="11.5947636"><ele>1356.3999999999999</ele><time>2026-04-25T09:35:18.476Z</time></trkpt><trkpt lat="45.9766668" lon="11.5949664"><ele>1356.1999999999998</ele><time>2026-04-25T09:35:20.462Z</time></trkpt><trkpt lat="45.9766457" lon="11.5950536"><ele>1356.0</ele><time>2026-04-25T09:35:21.461Z</time></trkpt><trkpt lat="45.9766039" lon="11.5952133"><ele>1358.1999999999998</ele><time>2026-04-25T09:35:23.472Z</time></trkpt><trkpt lat="45.9765605" lon="11.5953464"><ele>1360.3999999999999</ele><time>2026-04-25T09:35:25.462Z</time></trkpt><trkpt lat="45.9765062" lon="11.595511"><ele>1362.6</ele><time>2026-04-25T09:35:27.468Z</time></trkpt><trkpt lat="45.9764791" lon="11.5956157"><ele>1364.8</ele><time>2026-04-25T09:35:28.459Z</time></trkpt><trkpt lat="45.9764503" lon="11.5957311"><ele>1367.0</ele><time>2026-04-25T09:35:29.468Z</time></trkpt><trkpt lat="45.9764147" lon="11.5958441"><ele>1367.0</ele><time>2026-04-25T09:35:30.454Z</time></trkpt><trkpt lat="45.9763669" lon="11.5959606"><ele>1367.0</ele><time>2026-04-25T09:35:31.451Z</time></trkpt><trkpt lat="45.9763143" lon="11.5961028"><ele>1367.0</ele><time>2026-04-25T09:35:32.456Z</time></trkpt><trkpt lat="45.9762327" lon="11.5962312"><ele>1367.0</ele><time>2026-04-25T09:35:33.464Z</time></trkpt><trkpt lat="45.9761684" lon="11.596359"><ele>1367.0</ele><time>2026-04-25T09:35:34.463Z</time></trkpt><trkpt lat="45.9761194" lon="11.5964672"><ele>1367.1999999999998</ele><time>2026-04-25T09:35:35.463Z</time></trkpt><trkpt lat="45.9760762" lon="11.5965756"><ele>1367.4</ele><time>2026-04-25T09:35:36.462Z</time></trkpt><trkpt lat="45.9760415" lon="11.5966799"><ele>1367.6</ele><time>2026-04-25T09:35:37.463Z</time></trkpt><trkpt lat="45.9760058" lon="11.5967921"><ele>1367.8000000000002</ele><time>2026-04-25T09:35:38.471Z</time></trkpt><trkpt lat="45.9759766" lon="11.5969111"><ele>1368.0</ele><time>2026-04-25T09:35:39.467Z</time></trkpt><trkpt lat="45.9759256" lon="11.5971561"><ele>1368.6666666666667</ele><time>2026-04-25T09:35:41.473Z</time></trkpt><trkpt lat="45.9759037" lon="11.5972561"><ele>1369.3333333333333</ele><time>2026-04-25T09:35:42.48Z</time></trkpt><trkpt lat="45.975883" lon="11.5973594"><ele>1370.0</ele><time>2026-04-25T09:35:43.472Z</time></trkpt><trkpt lat="45.9758584" lon="11.5974567"><ele>1370.6666666666665</ele><time>2026-04-25T09:35:44.467Z</time></trkpt><trkpt lat="45.97583" lon="11.5975539"><ele>1371.3333333333333</ele><time>2026-04-25T09:35:45.465Z</time></trkpt><trkpt lat="45.9757745" lon="11.5976553"><ele>1372.0</ele><time>2026-04-25T09:35:46.471Z</time></trkpt><trkpt lat="45.9757175" lon="11.5977753"><ele>1371.857142857143</ele><time>2026-04-25T09:35:47.461Z</time></trkpt><trkpt lat="45.975675" lon="11.5978821"><ele>1371.7142857142858</ele><time>2026-04-25T09:35:48.472Z</time></trkpt><trkpt lat="45.9756362" lon="11.5979715"><ele>1371.5714285714284</ele><time>2026-04-25T09:35:49.483Z</time></trkpt><trkpt lat="45.9756029" lon="11.5980507"><ele>1371.4285714285716</ele><time>2026-04-25T09:35:50.465Z</time></trkpt><trkpt lat="45.9755613" lon="11.5981275"><ele>1371.2857142857142</ele><time>2026-04-25T09:35:51.478Z</time></trkpt><trkpt lat="45.9755072" lon="11.5981885"><ele>1371.142857142857</ele><time>2026-04-25T09:35:52.477Z</time></trkpt><trkpt lat="45.9754401" lon="11.5982377"><ele>1371.0</ele><time>2026-04-25T09:35:53.467Z</time></trkpt><trkpt lat="45.9753691" lon="11.5982937"><ele>1371.0</ele><time>2026-04-25T09:35:54.472Z</time></trkpt><trkpt lat="45.9752973" lon="11.598358"><ele>1371.0</ele><time>2026-04-25T09:35:55.452Z</time></trkpt><trkpt lat="45.9752342" lon="11.5984082"><ele>1371.0</ele><time>2026-04-25T09:35:56.474Z</time></trkpt><trkpt lat="45.9751843" lon="11.598469"><ele>1371.0</ele><time>2026-04-25T09:35:57.479Z</time></trkpt><trkpt lat="45.9751239" lon="11.5985296"><ele>1371.0</ele><time>2026-04-25T09:35:58.472Z</time></trkpt><trkpt lat="45.9750663" lon="11.5986013"><ele>1371.0</ele><time>2026-04-25T09:35:59.473Z</time></trkpt><trkpt lat="45.9750036" lon="11.5986778"><ele>1371.1999999999998</ele><time>2026-04-25T09:36:00.457Z</time></trkpt><trkpt lat="45.9748771" lon="11.5988154"><ele>1371.3999999999999</ele><time>2026-04-25T09:36:02.477Z</time></trkpt><trkpt lat="45.9748098" lon="11.5988864"><ele>1371.6</ele><time>2026-04-25T09:36:03.485Z</time></trkpt><trkpt lat="45.9747423" lon="11.5989572"><ele>1371.8</ele><time>2026-04-25T09:36:04.467Z</time></trkpt><trkpt lat="45.9746814" lon="11.5990174"><ele>1372.0</ele><time>2026-04-25T09:36:05.47Z</time></trkpt><trkpt lat="45.9746343" lon="11.599082"><ele>1372.0</ele><time>2026-04-25T09:36:06.458Z</time></trkpt><trkpt lat="45.9745721" lon="11.5992415"><ele>1372.0</ele><time>2026-04-25T09:36:08.474Z</time></trkpt><trkpt lat="45.9745419" lon="11.5993315"><ele>1372.0</ele><time>2026-04-25T09:36:09.466Z</time></trkpt><trkpt lat="45.9744681" lon="11.5994433"><ele>1372.0</ele><time>2026-04-25T09:36:11.465Z</time></trkpt><trkpt lat="45.9743932" lon="11.5995052"><ele>1372.0</ele><time>2026-04-25T09:36:13.463Z</time></trkpt><trkpt lat="45.9743031" lon="11.5995657"><ele>1372.0</ele><time>2026-04-25T09:36:15.457Z</time></trkpt><trkpt lat="45.9742053" lon="11.5996423"><ele>1372.0</ele><time>2026-04-25T09:36:17.464Z</time></trkpt><trkpt lat="45.9741025" lon="11.5997201"><ele>1372.0</ele><time>2026-04-25T09:36:19.466Z</time></trkpt><trkpt lat="45.9739955" lon="11.5997187"><ele>1372.0</ele><time>2026-04-25T09:36:21.465Z</time></trkpt><trkpt lat="45.9738079" lon="11.5996444"><ele>1372.0</ele><time>2026-04-25T09:36:25.462Z</time></trkpt><trkpt lat="45.9737245" lon="11.5995556"><ele>1372.0</ele><time>2026-04-25T09:36:27.466Z</time></trkpt><trkpt lat="45.9736365" lon="11.5994361"><ele>1372.0</ele><time>2026-04-25T09:36:29.474Z</time></trkpt><trkpt lat="45.9735419" lon="11.5993633"><ele>1372.0</ele><time>2026-04-25T09:36:31.471Z</time></trkpt><trkpt lat="45.9734141" lon="11.5994344"><ele>1371.6666666666665</ele><time>2026-04-25T09:36:33.464Z</time></trkpt><trkpt lat="45.9733193" lon="11.5995022"><ele>1371.3333333333333</ele><time>2026-04-25T09:36:34.473Z</time></trkpt><trkpt lat="45.973237" lon="11.5995626"><ele>1371.0</ele><time>2026-04-25T09:36:35.466Z</time></trkpt><trkpt lat="45.9731727" lon="11.599611"><ele>1370.6666666666667</ele><time>2026-04-25T09:36:36.466Z</time></trkpt><trkpt lat="45.9731132" lon="11.5996494"><ele>1370.3333333333335</ele><time>2026-04-25T09:36:37.469Z</time></trkpt><trkpt lat="45.9730504" lon="11.5996896"><ele>1370.0</ele><time>2026-04-25T09:36:38.472Z</time></trkpt><trkpt lat="45.9729866" lon="11.5997265"><ele>1370.0</ele><time>2026-04-25T09:36:39.479Z</time></trkpt><trkpt lat="45.9729234" lon="11.5997644"><ele>1370.0</ele><time>2026-04-25T09:36:40.474Z</time></trkpt><trkpt lat="45.9728526" lon="11.599793"><ele>1370.0</ele><time>2026-04-25T09:36:41.465Z</time></trkpt><trkpt lat="45.9727693" lon="11.5998225"><ele>1370.0</ele><time>2026-04-25T09:36:42.471Z</time></trkpt><trkpt lat="45.9725656" lon="11.5998331"><ele>1370.0</ele><time>2026-04-25T09:36:44.465Z</time></trkpt><trkpt lat="45.9724384" lon="11.5998101"><ele>1370.0</ele><time>2026-04-25T09:36:45.471Z</time></trkpt><trkpt lat="45.9723065" lon="11.5997747"><ele>1370.0</ele><time>2026-04-25T09:36:46.463Z</time></trkpt><trkpt lat="45.9721911" lon="11.5997381"><ele>1370.0</ele><time>2026-04-25T09:36:47.473Z</time></trkpt><trkpt lat="45.9720905" lon="11.5997041"><ele>1370.0</ele><time>2026-04-25T09:36:48.455Z</time></trkpt><trkpt lat="45.9719939" lon="11.59967"><ele>1370.0</ele><time>2026-04-25T09:36:49.473Z</time></trkpt><trkpt lat="45.9719046" lon="11.5996613"><ele>1370.0</ele><time>2026-04-25T09:36:50.459Z</time></trkpt><trkpt lat="45.9718213" lon="11.5996588"><ele>1370.0</ele><time>2026-04-25T09:36:51.455Z</time></trkpt><trkpt lat="45.9717314" lon="11.5997105"><ele>1370.0</ele><time>2026-04-25T09:36:52.471Z</time></trkpt><trkpt lat="45.9716472" lon="11.599773"><ele>1370.0</ele><time>2026-04-25T09:36:53.464Z</time></trkpt><trkpt lat="45.9715519" lon="11.5998417"><ele>1370.5</ele><time>2026-04-25T09:36:54.466Z</time></trkpt><trkpt lat="45.9714505" lon="11.5999159"><ele>1371.0</ele><time>2026-04-25T09:36:55.465Z</time></trkpt><trkpt lat="45.9713493" lon="11.6000068"><ele>1371.5</ele><time>2026-04-25T09:36:56.477Z</time></trkpt><trkpt lat="45.9712524" lon="11.6001279"><ele>1372.0</ele><time>2026-04-25T09:36:57.459Z</time></trkpt><trkpt lat="45.9711593" lon="11.6002766"><ele>1373.3333333333333</ele><time>2026-04-25T09:36:58.459Z</time></trkpt><trkpt lat="45.9710513" lon="11.6004455"><ele>1374.6666666666667</ele><time>2026-04-25T09:36:59.483Z</time></trkpt><trkpt lat="45.9709172" lon="11.6006284"><ele>1376.0</ele><time>2026-04-25T09:37:00.47Z</time></trkpt><trkpt lat="45.9707685" lon="11.6008143"><ele>1373.3333333333335</ele><time>2026-04-25T09:37:01.486Z</time></trkpt><trkpt lat="45.9706165" lon="11.600995"><ele>1370.6666666666667</ele><time>2026-04-25T09:37:02.479Z</time></trkpt><trkpt lat="45.9704657" lon="11.6011668"><ele>1368.0</ele><time>2026-04-25T09:37:03.462Z</time></trkpt><trkpt lat="45.9702096" lon="11.6014613"><ele>1367.3333333333333</ele><time>2026-04-25T09:37:05.47Z</time></trkpt><trkpt lat="45.9700904" lon="11.6015924"><ele>1366.6666666666665</ele><time>2026-04-25T09:37:06.474Z</time></trkpt><trkpt lat="45.9699617" lon="11.6017131"><ele>1366.0</ele><time>2026-04-25T09:37:07.478Z</time></trkpt><trkpt lat="45.969826" lon="11.6018162"><ele>1365.0</ele><time>2026-04-25T09:37:08.471Z</time></trkpt><trkpt lat="45.9696883" lon="11.601906"><ele>1364.0</ele><time>2026-04-25T09:37:09.48Z</time></trkpt><trkpt lat="45.9695455" lon="11.601997"><ele>1363.0</ele><time>2026-04-25T09:37:10.465Z</time></trkpt><trkpt lat="45.9694029" lon="11.6020929"><ele>1362.6666666666665</ele><time>2026-04-25T09:37:11.466Z</time></trkpt><trkpt lat="45.9692613" lon="11.6021943"><ele>1362.3333333333333</ele><time>2026-04-25T09:37:12.462Z</time></trkpt><trkpt lat="45.96912" lon="11.6022945"><ele>1362.0</ele><time>2026-04-25T09:37:13.473Z</time></trkpt><trkpt lat="45.9689787" lon="11.602393"><ele>1361.3333333333333</ele><time>2026-04-25T09:37:14.469Z</time></trkpt><trkpt lat="45.9688341" lon="11.6024868"><ele>1360.6666666666665</ele><time>2026-04-25T09:37:15.484Z</time></trkpt><trkpt lat="45.9686931" lon="11.602579"><ele>1360.0</ele><time>2026-04-25T09:37:16.469Z</time></trkpt><trkpt lat="45.9685614" lon="11.602668"><ele>1360.0</ele><time>2026-04-25T09:37:17.461Z</time></trkpt><trkpt lat="45.968438" lon="11.6027556"><ele>1360.0</ele><time>2026-04-25T09:37:18.466Z</time></trkpt><trkpt lat="45.9683189" lon="11.6028423"><ele>1360.0</ele><time>2026-04-25T09:37:19.459Z</time></trkpt><trkpt lat="45.968198" lon="11.6029282"><ele>1360.0</ele><time>2026-04-25T09:37:20.467Z</time></trkpt><trkpt lat="45.9680778" lon="11.6030038"><ele>1360.25</ele><time>2026-04-25T09:37:21.472Z</time></trkpt><trkpt lat="45.9679602" lon="11.6030686"><ele>1360.5</ele><time>2026-04-25T09:37:22.484Z</time></trkpt><trkpt lat="45.9678411" lon="11.6031319"><ele>1360.75</ele><time>2026-04-25T09:37:23.472Z</time></trkpt><trkpt lat="45.9677159" lon="11.603191"><ele>1361.0</ele><time>2026-04-25T09:37:24.466Z</time></trkpt><trkpt lat="45.967469" lon="11.603321"><ele>1361.0</ele><time>2026-04-25T09:37:26.48Z</time></trkpt><trkpt lat="45.9673478" lon="11.603382"><ele>1361.0</ele><time>2026-04-25T09:37:27.464Z</time></trkpt><trkpt lat="45.9672181" lon="11.6034473"><ele>1361.0</ele><time>2026-04-25T09:37:28.466Z</time></trkpt><trkpt lat="45.9670795" lon="11.6035169"><ele>1361.0</ele><time>2026-04-25T09:37:29.49Z</time></trkpt><trkpt lat="45.9669337" lon="11.6035863"><ele>1361.0</ele><time>2026-04-25T09:37:30.479Z</time></trkpt><trkpt lat="45.9667838" lon="11.6036551"><ele>1361.0</ele><time>2026-04-25T09:37:31.467Z</time></trkpt><trkpt lat="45.9666337" lon="11.6037145"><ele>1361.0</ele><time>2026-04-25T09:37:32.473Z</time></trkpt><trkpt lat="45.9664837" lon="11.6037652"><ele>1360.6666666666667</ele><time>2026-04-25T09:37:33.481Z</time></trkpt><trkpt lat="45.9663322" lon="11.6038086"><ele>1360.3333333333333</ele><time>2026-04-25T09:37:34.463Z</time></trkpt><trkpt lat="45.9661759" lon="11.6038515"><ele>1360.0</ele><time>2026-04-25T09:37:35.455Z</time></trkpt><trkpt lat="45.9660174" lon="11.6039046"><ele>1360.0</ele><time>2026-04-25T09:37:36.477Z</time></trkpt><trkpt lat="45.9658665" lon="11.603957"><ele>1360.0</ele><time>2026-04-25T09:37:37.463Z</time></trkpt><trkpt lat="45.965727" lon="11.6040074"><ele>1360.0</ele><time>2026-04-25T09:37:38.469Z</time></trkpt><trkpt lat="45.9655983" lon="11.6040561"><ele>1360.0</ele><time>2026-04-25T09:37:39.465Z</time></trkpt><trkpt lat="45.9654707" lon="11.6041019"><ele>1360.0</ele><time>2026-04-25T09:37:40.478Z</time></trkpt><trkpt lat="45.9653473" lon="11.60415"><ele>1360.0</ele><time>2026-04-25T09:37:41.465Z</time></trkpt><trkpt lat="45.9652302" lon="11.604197"><ele>1360.0</ele><time>2026-04-25T09:37:42.475Z</time></trkpt><trkpt lat="45.9651226" lon="11.6042385"><ele>1360.0</ele><time>2026-04-25T09:37:43.468Z</time></trkpt><trkpt lat="45.9650232" lon="11.6042739"><ele>1361.5</ele><time>2026-04-25T09:37:44.466Z</time></trkpt><trkpt lat="45.9649248" lon="11.6043113"><ele>1363.0</ele><time>2026-04-25T09:37:45.471Z</time></trkpt><trkpt lat="45.9647279" lon="11.6043878"><ele>1364.5</ele><time>2026-04-25T09:37:47.455Z</time></trkpt><trkpt lat="45.964627" lon="11.6044285"><ele>1366.0</ele><time>2026-04-25T09:37:48.469Z</time></trkpt><trkpt lat="45.964542" lon="11.6044638"><ele>1366.0</ele><time>2026-04-25T09:37:49.47Z</time></trkpt><trkpt lat="45.9644784" lon="11.6044897"><ele>1366.0</ele><time>2026-04-25T09:37:50.478Z</time></trkpt><trkpt lat="45.9643694" lon="11.6045343"><ele>1366.0</ele><time>2026-04-25T09:37:52.477Z</time></trkpt><trkpt lat="45.9643048" lon="11.6045445"><ele>1366.0</ele><time>2026-04-25T09:37:53.469Z</time></trkpt><trkpt lat="45.9642364" lon="11.6045241"><ele>1366.0</ele><time>2026-04-25T09:37:54.482Z</time></trkpt><trkpt lat="45.9641717" lon="11.6044996"><ele>1366.0</ele><time>2026-04-25T09:37:55.466Z</time></trkpt><trkpt lat="45.9641121" lon="11.6044489"><ele>1365.4</ele><time>2026-04-25T09:37:56.466Z</time></trkpt><trkpt lat="45.9640464" lon="11.6043739"><ele>1364.8</ele><time>2026-04-25T09:37:57.462Z</time></trkpt><trkpt lat="45.9639923" lon="11.6042792"><ele>1364.2</ele><time>2026-04-25T09:37:58.472Z</time></trkpt><trkpt lat="45.9639457" lon="11.6041655"><ele>1363.6000000000001</ele><time>2026-04-25T09:37:59.475Z</time></trkpt><trkpt lat="45.9639024" lon="11.6040342"><ele>1363.0</ele><time>2026-04-25T09:38:00.457Z</time></trkpt><trkpt lat="45.9638563" lon="11.6038871"><ele>1363.0</ele><time>2026-04-25T09:38:01.471Z</time></trkpt><trkpt lat="45.9638044" lon="11.6037236"><ele>1363.0</ele><time>2026-04-25T09:38:02.483Z</time></trkpt><trkpt lat="45.9637413" lon="11.6035321"><ele>1363.0</ele><time>2026-04-25T09:38:03.474Z</time></trkpt><trkpt lat="45.9636778" lon="11.6033127"><ele>1363.0</ele><time>2026-04-25T09:38:04.464Z</time></trkpt><trkpt lat="45.9636202" lon="11.6030956"><ele>1362.6666666666665</ele><time>2026-04-25T09:38:05.449Z</time></trkpt><trkpt lat="45.9635785" lon="11.602902"><ele>1362.3333333333333</ele><time>2026-04-25T09:38:06.457Z</time></trkpt><trkpt lat="45.9635879" lon="11.602539"><ele>1362.0</ele><time>2026-04-25T09:38:08.472Z</time></trkpt><trkpt lat="45.9636584" lon="11.6023497"><ele>1362.3333333333333</ele><time>2026-04-25T09:38:09.451Z</time></trkpt><trkpt lat="45.963767" lon="11.602163"><ele>1362.6666666666665</ele><time>2026-04-25T09:38:10.47Z</time></trkpt><trkpt lat="45.963879" lon="11.602013"><ele>1363.0</ele><time>2026-04-25T09:38:11.452Z</time></trkpt><trkpt lat="45.9639693" lon="11.6018764"><ele>1363.0</ele><time>2026-04-25T09:38:12.454Z</time></trkpt><trkpt lat="45.9640336" lon="11.6017355"><ele>1363.0</ele><time>2026-04-25T09:38:13.46Z</time></trkpt><trkpt lat="45.9640676" lon="11.6015653"><ele>1363.0</ele><time>2026-04-25T09:38:14.47Z</time></trkpt><trkpt lat="45.964067" lon="11.6013587"><ele>1363.0</ele><time>2026-04-25T09:38:15.461Z</time></trkpt><trkpt lat="45.9640473" lon="11.6011603"><ele>1364.0</ele><time>2026-04-25T09:38:16.47Z</time></trkpt><trkpt lat="45.9640169" lon="11.6009669"><ele>1365.0</ele><time>2026-04-25T09:38:17.468Z</time></trkpt><trkpt lat="45.9639767" lon="11.6007484"><ele>1366.0</ele><time>2026-04-25T09:38:18.469Z</time></trkpt><trkpt lat="45.9639301" lon="11.6005006"><ele>1367.3333333333333</ele><time>2026-04-25T09:38:19.477Z</time></trkpt><trkpt lat="45.9638789" lon="11.6002446"><ele>1368.6666666666667</ele><time>2026-04-25T09:38:20.472Z</time></trkpt><trkpt lat="45.9638294" lon="11.5999996"><ele>1370.0</ele><time>2026-04-25T09:38:21.475Z</time></trkpt><trkpt lat="45.9637818" lon="11.5997686"><ele>1370.0</ele><time>2026-04-25T09:38:22.467Z</time></trkpt><trkpt lat="45.963737" lon="11.5995552"><ele>1370.0</ele><time>2026-04-25T09:38:23.477Z</time></trkpt><trkpt lat="45.963689" lon="11.5993667"><ele>1370.0</ele><time>2026-04-25T09:38:24.462Z</time></trkpt><trkpt lat="45.9636204" lon="11.5992067"><ele>1370.0</ele><time>2026-04-25T09:38:25.461Z</time></trkpt><trkpt lat="45.9635271" lon="11.5990652"><ele>1370.0</ele><time>2026-04-25T09:38:26.466Z</time></trkpt><trkpt lat="45.9634223" lon="11.5989447"><ele>1370.0</ele><time>2026-04-25T09:38:27.47Z</time></trkpt><trkpt lat="45.963195" lon="11.5986723"><ele>1370.0</ele><time>2026-04-25T09:38:29.467Z</time></trkpt><trkpt lat="45.9630821" lon="11.5985091"><ele>1368.3333333333335</ele><time>2026-04-25T09:38:30.463Z</time></trkpt><trkpt lat="45.9629761" lon="11.5983371"><ele>1366.6666666666667</ele><time>2026-04-25T09:38:31.476Z</time></trkpt><trkpt lat="45.9628609" lon="11.5981457"><ele>1365.0</ele><time>2026-04-25T09:38:32.468Z</time></trkpt><trkpt lat="45.9627369" lon="11.5979481"><ele>1365.0</ele><time>2026-04-25T09:38:33.468Z</time></trkpt><trkpt lat="45.9626153" lon="11.5977718"><ele>1365.0</ele><time>2026-04-25T09:38:34.471Z</time></trkpt><trkpt lat="45.9624964" lon="11.5976214"><ele>1365.0</ele><time>2026-04-25T09:38:35.467Z</time></trkpt><trkpt lat="45.9623795" lon="11.5974964"><ele>1365.0</ele><time>2026-04-25T09:38:36.479Z</time></trkpt><trkpt lat="45.9622683" lon="11.5973894"><ele>1365.0</ele><time>2026-04-25T09:38:37.475Z</time></trkpt><trkpt lat="45.9621674" lon="11.5972968"><ele>1365.0</ele><time>2026-04-25T09:38:38.471Z</time></trkpt><trkpt lat="45.9620782" lon="11.5972102"><ele>1365.0</ele><time>2026-04-25T09:38:39.48Z</time></trkpt><trkpt lat="45.962003" lon="11.5971233"><ele>1365.0</ele><time>2026-04-25T09:38:40.469Z</time></trkpt><trkpt lat="45.9619374" lon="11.5970237"><ele>1365.0</ele><time>2026-04-25T09:38:41.46Z</time></trkpt><trkpt lat="45.9618794" lon="11.5969143"><ele>1365.0</ele><time>2026-04-25T09:38:42.475Z</time></trkpt><trkpt lat="45.9618364" lon="11.5968137"><ele>1365.0</ele><time>2026-04-25T09:38:43.469Z</time></trkpt><trkpt lat="45.9618081" lon="11.5967295"><ele>1365.0</ele><time>2026-04-25T09:38:44.479Z</time></trkpt><trkpt lat="45.9617757" lon="11.5965933"><ele>1365.0</ele><time>2026-04-25T09:38:46.495Z</time></trkpt><trkpt lat="45.9617816" lon="11.5964893"><ele>1366.25</ele><time>2026-04-25T09:38:48.46Z</time></trkpt><trkpt lat="45.9619078" lon="11.5963972"><ele>1367.5</ele><time>2026-04-25T09:38:52.484Z</time></trkpt><trkpt lat="45.9620453" lon="11.5964089"><ele>1368.75</ele><time>2026-04-25T09:38:54.461Z</time></trkpt><trkpt lat="45.9621306" lon="11.5963946"><ele>1370.0</ele><time>2026-04-25T09:38:55.477Z</time></trkpt><trkpt lat="45.962221" lon="11.5963559"><ele>1370.0</ele><time>2026-04-25T09:38:56.46Z</time></trkpt><trkpt lat="45.9623079" lon="11.5962963"><ele>1370.0</ele><time>2026-04-25T09:38:57.47Z</time></trkpt><trkpt lat="45.9623811" lon="11.5962207"><ele>1370.0</ele><time>2026-04-25T09:38:58.461Z</time></trkpt><trkpt lat="45.9624442" lon="11.5961241"><ele>1370.0</ele><time>2026-04-25T09:38:59.449Z</time></trkpt><trkpt lat="45.9624956" lon="11.5960058"><ele>1370.0</ele><time>2026-04-25T09:39:00.455Z</time></trkpt><trkpt lat="45.9625363" lon="11.5958728"><ele>1371.4</ele><time>2026-04-25T09:39:01.464Z</time></trkpt><trkpt lat="45.9625698" lon="11.5957341"><ele>1372.8</ele><time>2026-04-25T09:39:02.463Z</time></trkpt><trkpt lat="45.9625957" lon="11.5955898"><ele>1374.1999999999998</ele><time>2026-04-25T09:39:03.456Z</time></trkpt><trkpt lat="45.962611" lon="11.5954386"><ele>1375.6</ele><time>2026-04-25T09:39:04.448Z</time></trkpt><trkpt lat="45.9626124" lon="11.5952817"><ele>1377.0</ele><time>2026-04-25T09:39:05.468Z</time></trkpt><trkpt lat="45.9626009" lon="11.5951215"><ele>1377.25</ele><time>2026-04-25T09:39:06.462Z</time></trkpt><trkpt lat="45.9625765" lon="11.5949584"><ele>1377.5</ele><time>2026-04-25T09:39:07.458Z</time></trkpt><trkpt lat="45.9625457" lon="11.5947964"><ele>1377.75</ele><time>2026-04-25T09:39:08.454Z</time></trkpt><trkpt lat="45.962512" lon="11.5946424"><ele>1378.0</ele><time>2026-04-25T09:39:09.453Z</time></trkpt><trkpt lat="45.9624434" lon="11.5943529"><ele>1378.0</ele><time>2026-04-25T09:39:11.458Z</time></trkpt><trkpt lat="45.9624083" lon="11.5942042"><ele>1378.0</ele><time>2026-04-25T09:39:12.463Z</time></trkpt><trkpt lat="45.9623689" lon="11.594044"><ele>1378.0</ele><time>2026-04-25T09:39:13.447Z</time></trkpt><trkpt lat="45.9623272" lon="11.5938771"><ele>1378.0</ele><time>2026-04-25T09:39:14.455Z</time></trkpt><trkpt lat="45.9622781" lon="11.5936981"><ele>1378.6666666666665</ele><time>2026-04-25T09:39:15.459Z</time></trkpt><trkpt lat="45.962215" lon="11.5935166"><ele>1379.3333333333333</ele><time>2026-04-25T09:39:16.46Z</time></trkpt><trkpt lat="45.9621337" lon="11.5933304"><ele>1380.0</ele><time>2026-04-25T09:39:17.451Z</time></trkpt><trkpt lat="45.9620398" lon="11.5931415"><ele>1380.0</ele><time>2026-04-25T09:39:18.459Z</time></trkpt><trkpt lat="45.9619536" lon="11.5929682"><ele>1380.0</ele><time>2026-04-25T09:39:19.457Z</time></trkpt><trkpt lat="45.9618776" lon="11.5928022"><ele>1380.0</ele><time>2026-04-25T09:39:20.461Z</time></trkpt><trkpt lat="45.9618105" lon="11.5926412"><ele>1380.0</ele><time>2026-04-25T09:39:21.454Z</time></trkpt><trkpt lat="45.9617573" lon="11.5924688"><ele>1378.75</ele><time>2026-04-25T09:39:22.454Z</time></trkpt><trkpt lat="45.9617247" lon="11.5922806"><ele>1377.5</ele><time>2026-04-25T09:39:23.461Z</time></trkpt><trkpt lat="45.961711" lon="11.5920822"><ele>1376.25</ele><time>2026-04-25T09:39:24.449Z</time></trkpt><trkpt lat="45.9617121" lon="11.5918911"><ele>1375.0</ele><time>2026-04-25T09:39:25.466Z</time></trkpt><trkpt lat="45.9617152" lon="11.5917038"><ele>1375.0</ele><time>2026-04-25T09:39:26.459Z</time></trkpt><trkpt lat="45.9617426" lon="11.5915052"><ele>1375.0</ele><time>2026-04-25T09:39:27.451Z</time></trkpt><trkpt lat="45.9617804" lon="11.5912933"><ele>1375.0</ele><time>2026-04-25T09:39:28.453Z</time></trkpt><trkpt lat="45.961825" lon="11.5910773"><ele>1375.0</ele><time>2026-04-25T09:39:29.469Z</time></trkpt><trkpt lat="45.9618689" lon="11.5908653"><ele>1376.3333333333333</ele><time>2026-04-25T09:39:30.475Z</time></trkpt><trkpt lat="45.9619386" lon="11.5905056"><ele>1377.6666666666667</ele><time>2026-04-25T09:39:32.463Z</time></trkpt><trkpt lat="45.9619656" lon="11.590351"><ele>1379.0</ele><time>2026-04-25T09:39:33.458Z</time></trkpt><trkpt lat="45.9619963" lon="11.5902398"><ele>1379.3333333333335</ele><time>2026-04-25T09:39:34.452Z</time></trkpt><trkpt lat="45.9620239" lon="11.5901378"><ele>1379.6666666666667</ele><time>2026-04-25T09:39:35.458Z</time></trkpt><trkpt lat="45.9620528" lon="11.5900277"><ele>1380.0</ele><time>2026-04-25T09:39:36.451Z</time></trkpt><trkpt lat="45.9620759" lon="11.5899006"><ele>1380.3333333333333</ele><time>2026-04-25T09:39:37.438Z</time></trkpt><trkpt lat="45.9621008" lon="11.5897813"><ele>1380.6666666666665</ele><time>2026-04-25T09:39:38.446Z</time></trkpt><trkpt lat="45.9621209" lon="11.5896788"><ele>1381.0</ele><time>2026-04-25T09:39:39.444Z</time></trkpt><trkpt lat="45.9621376" lon="11.5895585"><ele>1380.8333333333333</ele><time>2026-04-25T09:39:40.441Z</time></trkpt><trkpt lat="45.962159" lon="11.5894332"><ele>1380.6666666666665</ele><time>2026-04-25T09:39:41.444Z</time></trkpt><trkpt lat="45.9621893" lon="11.5893148"><ele>1380.5</ele><time>2026-04-25T09:39:42.447Z</time></trkpt><trkpt lat="45.9622193" lon="11.5892089"><ele>1380.3333333333333</ele><time>2026-04-25T09:39:43.439Z</time></trkpt><trkpt lat="45.962252" lon="11.5891013"><ele>1380.1666666666667</ele><time>2026-04-25T09:39:44.449Z</time></trkpt><trkpt lat="45.962293" lon="11.5889811"><ele>1380.0</ele><time>2026-04-25T09:39:45.451Z</time></trkpt><trkpt lat="45.9623449" lon="11.5888523"><ele>1380.0</ele><time>2026-04-25T09:39:46.462Z</time></trkpt><trkpt lat="45.9623957" lon="11.588718"><ele>1380.0</ele><time>2026-04-25T09:39:47.438Z</time></trkpt><trkpt lat="45.9624506" lon="11.5885888"><ele>1380.0</ele><time>2026-04-25T09:39:48.446Z</time></trkpt><trkpt lat="45.9625067" lon="11.5884608"><ele>1380.0</ele><time>2026-04-25T09:39:49.461Z</time></trkpt><trkpt lat="45.9625625" lon="11.5883241"><ele>1380.0</ele><time>2026-04-25T09:39:50.463Z</time></trkpt><trkpt lat="45.9626271" lon="11.5881816"><ele>1378.75</ele><time>2026-04-25T09:39:51.461Z</time></trkpt><trkpt lat="45.9627436" lon="11.5879247"><ele>1377.5</ele><time>2026-04-25T09:39:53.453Z</time></trkpt><trkpt lat="45.9628005" lon="11.5877956"><ele>1376.25</ele><time>2026-04-25T09:39:54.468Z</time></trkpt><trkpt lat="45.9628617" lon="11.5876586"><ele>1375.0</ele><time>2026-04-25T09:39:55.452Z</time></trkpt><trkpt lat="45.9629161" lon="11.5875254"><ele>1374.4</ele><time>2026-04-25T09:39:56.454Z</time></trkpt><trkpt lat="45.9629716" lon="11.5873947"><ele>1373.8</ele><time>2026-04-25T09:39:57.453Z</time></trkpt><trkpt lat="45.9630249" lon="11.5872619"><ele>1373.1999999999998</ele><time>2026-04-25T09:39:58.453Z</time></trkpt><trkpt lat="45.9630822" lon="11.5871259"><ele>1372.6</ele><time>2026-04-25T09:39:59.454Z</time></trkpt><trkpt lat="45.9631403" lon="11.587003"><ele>1372.0</ele><time>2026-04-25T09:40:00.459Z</time></trkpt><trkpt lat="45.9631955" lon="11.5868758"><ele>1372.0</ele><time>2026-04-25T09:40:01.466Z</time></trkpt><trkpt lat="45.9632509" lon="11.5867398"><ele>1372.0</ele><time>2026-04-25T09:40:02.458Z</time></trkpt><trkpt lat="45.9633032" lon="11.5865974"><ele>1372.0</ele><time>2026-04-25T09:40:03.46Z</time></trkpt><trkpt lat="45.9633509" lon="11.5864618"><ele>1372.0</ele><time>2026-04-25T09:40:04.464Z</time></trkpt><trkpt lat="45.9633992" lon="11.5863311"><ele>1372.0</ele><time>2026-04-25T09:40:05.458Z</time></trkpt><trkpt lat="45.9634491" lon="11.5861932"><ele>1373.0</ele><time>2026-04-25T09:40:06.453Z</time></trkpt><trkpt lat="45.963502" lon="11.5860439"><ele>1374.0</ele><time>2026-04-25T09:40:07.462Z</time></trkpt><trkpt lat="45.9635542" lon="11.5858883"><ele>1375.0</ele><time>2026-04-25T09:40:08.451Z</time></trkpt><trkpt lat="45.963604" lon="11.5857341"><ele>1376.0</ele><time>2026-04-25T09:40:09.458Z</time></trkpt><trkpt lat="45.9636519" lon="11.5855895"><ele>1376.0</ele><time>2026-04-25T09:40:10.458Z</time></trkpt><trkpt lat="45.9636983" lon="11.5854501"><ele>1376.0</ele><time>2026-04-25T09:40:11.458Z</time></trkpt><trkpt lat="45.963743" lon="11.5853154"><ele>1376.0</ele><time>2026-04-25T09:40:12.455Z</time></trkpt><trkpt lat="45.9638428" lon="11.5850828"><ele>1376.0</ele><time>2026-04-25T09:40:14.45Z</time></trkpt><trkpt lat="45.9639087" lon="11.5849871"><ele>1376.0</ele><time>2026-04-25T09:40:15.452Z</time></trkpt><trkpt lat="45.9639855" lon="11.5848971"><ele>1376.0</ele><time>2026-04-25T09:40:16.448Z</time></trkpt><trkpt lat="45.9640697" lon="11.584806"><ele>1376.0</ele><time>2026-04-25T09:40:17.447Z</time></trkpt><trkpt lat="45.9641573" lon="11.5847085"><ele>1376.0</ele><time>2026-04-25T09:40:18.455Z</time></trkpt><trkpt lat="45.9642475" lon="11.584601"><ele>1376.0</ele><time>2026-04-25T09:40:19.46Z</time></trkpt><trkpt lat="45.9643396" lon="11.5844869"><ele>1377.5</ele><time>2026-04-25T09:40:20.462Z</time></trkpt><trkpt lat="45.9644322" lon="11.5843666"><ele>1379.0</ele><time>2026-04-25T09:40:21.445Z</time></trkpt><trkpt lat="45.9645263" lon="11.584241"><ele>1380.5</ele><time>2026-04-25T09:40:22.459Z</time></trkpt><trkpt lat="45.9646192" lon="11.5841111"><ele>1382.0</ele><time>2026-04-25T09:40:23.457Z</time></trkpt><trkpt lat="45.9647061" lon="11.5839814"><ele>1382.0</ele><time>2026-04-25T09:40:24.456Z</time></trkpt><trkpt lat="45.9647888" lon="11.5838472"><ele>1382.0</ele><time>2026-04-25T09:40:25.457Z</time></trkpt><trkpt lat="45.9648683" lon="11.5837076"><ele>1382.0</ele><time>2026-04-25T09:40:26.467Z</time></trkpt><trkpt lat="45.964944" lon="11.5835653"><ele>1382.0</ele><time>2026-04-25T09:40:27.458Z</time></trkpt><trkpt lat="45.9650096" lon="11.5834321"><ele>1383.5</ele><time>2026-04-25T09:40:28.454Z</time></trkpt><trkpt lat="45.9650678" lon="11.5833123"><ele>1385.0</ele><time>2026-04-25T09:40:29.45Z</time></trkpt><trkpt lat="45.9651223" lon="11.5832091"><ele>1386.5</ele><time>2026-04-25T09:40:30.459Z</time></trkpt><trkpt lat="45.9651808" lon="11.583124"><ele>1388.0</ele><time>2026-04-25T09:40:31.452Z</time></trkpt><trkpt lat="45.9652458" lon="11.5830462"><ele>1389.5</ele><time>2026-04-25T09:40:32.449Z</time></trkpt><trkpt lat="45.9653225" lon="11.5829797"><ele>1391.0</ele><time>2026-04-25T09:40:33.451Z</time></trkpt><trkpt lat="45.9654956" lon="11.5828737"><ele>1390.0</ele><time>2026-04-25T09:40:35.455Z</time></trkpt><trkpt lat="45.9655854" lon="11.5828327"><ele>1389.0</ele><time>2026-04-25T09:40:36.46Z</time></trkpt><trkpt lat="45.9656686" lon="11.5828049"><ele>1388.0</ele><time>2026-04-25T09:40:37.467Z</time></trkpt><trkpt lat="45.9657456" lon="11.5827892"><ele>1387.0</ele><time>2026-04-25T09:40:38.432Z</time></trkpt><trkpt lat="45.9658206" lon="11.5827584"><ele>1386.0</ele><time>2026-04-25T09:40:39.436Z</time></trkpt><trkpt lat="45.9658911" lon="11.5827328"><ele>1385.0</ele><time>2026-04-25T09:40:40.441Z</time></trkpt><trkpt lat="45.9659637" lon="11.5827187"><ele>1384.8333333333335</ele><time>2026-04-25T09:40:41.443Z</time></trkpt><trkpt lat="45.9660439" lon="11.5826934"><ele>1384.6666666666667</ele><time>2026-04-25T09:40:42.441Z</time></trkpt><trkpt lat="45.9661242" lon="11.5826674"><ele>1384.5</ele><time>2026-04-25T09:40:43.447Z</time></trkpt><trkpt lat="45.9662051" lon="11.5826264"><ele>1384.3333333333333</ele><time>2026-04-25T09:40:44.441Z</time></trkpt><trkpt lat="45.9662796" lon="11.5826027"><ele>1384.1666666666665</ele><time>2026-04-25T09:40:45.455Z</time></trkpt><trkpt lat="45.9663519" lon="11.5825903"><ele>1384.0</ele><time>2026-04-25T09:40:46.459Z</time></trkpt><trkpt lat="45.9664546" lon="11.5825703"><ele>1384.0</ele><time>2026-04-25T09:40:48.463Z</time></trkpt><trkpt lat="45.9665381" lon="11.5825717"><ele>1384.0</ele><time>2026-04-25T09:40:50.458Z</time></trkpt><trkpt lat="45.9666211" lon="11.5825686"><ele>1384.0</ele><time>2026-04-25T09:40:52.457Z</time></trkpt><trkpt lat="45.9667293" lon="11.5825652"><ele>1384.0</ele><time>2026-04-25T09:40:54.446Z</time></trkpt><trkpt lat="45.9668575" lon="11.5825211"><ele>1384.0</ele><time>2026-04-25T09:40:56.461Z</time></trkpt><trkpt lat="45.9669185" lon="11.5824787"><ele>1385.5</ele><time>2026-04-25T09:40:57.455Z</time></trkpt><trkpt lat="45.9669805" lon="11.582415"><ele>1387.0</ele><time>2026-04-25T09:40:58.444Z</time></trkpt><trkpt lat="45.9670399" lon="11.5823516"><ele>1388.5</ele><time>2026-04-25T09:40:59.452Z</time></trkpt><trkpt lat="45.9670775" lon="11.5822602"><ele>1390.0</ele><time>2026-04-25T09:41:00.463Z</time></trkpt><trkpt lat="45.967118" lon="11.5821628"><ele>1391.5</ele><time>2026-04-25T09:41:01.459Z</time></trkpt><trkpt lat="45.9671715" lon="11.5820656"><ele>1393.0</ele><time>2026-04-25T09:41:02.45Z</time></trkpt><trkpt lat="45.9672211" lon="11.5819649"><ele>1393.0</ele><time>2026-04-25T09:41:03.469Z</time></trkpt><trkpt lat="45.9672754" lon="11.581874"><ele>1393.0</ele><time>2026-04-25T09:41:04.472Z</time></trkpt><trkpt lat="45.9673253" lon="11.5817524"><ele>1393.0</ele><time>2026-04-25T09:41:05.448Z</time></trkpt><trkpt lat="45.9673666" lon="11.5816173"><ele>1393.0</ele><time>2026-04-25T09:41:06.453Z</time></trkpt><trkpt lat="45.9674055" lon="11.5814707"><ele>1393.0</ele><time>2026-04-25T09:41:07.447Z</time></trkpt><trkpt lat="45.9674201" lon="11.5813173"><ele>1392.8000000000002</ele><time>2026-04-25T09:41:08.454Z</time></trkpt><trkpt lat="45.9674365" lon="11.5811645"><ele>1392.6</ele><time>2026-04-25T09:41:09.45Z</time></trkpt><trkpt lat="45.9674513" lon="11.5810131"><ele>1392.4</ele><time>2026-04-25T09:41:10.458Z</time></trkpt><trkpt lat="45.9674629" lon="11.580855"><ele>1392.1999999999998</ele><time>2026-04-25T09:41:11.455Z</time></trkpt><trkpt lat="45.9674757" lon="11.5807109"><ele>1392.0</ele><time>2026-04-25T09:41:12.455Z</time></trkpt><trkpt lat="45.9674702" lon="11.5805522"><ele>1392.0</ele><time>2026-04-25T09:41:13.45Z</time></trkpt><trkpt lat="45.9674802" lon="11.580415"><ele>1392.0</ele><time>2026-04-25T09:41:14.45Z</time></trkpt><trkpt lat="45.9674934" lon="11.5802787"><ele>1392.0</ele><time>2026-04-25T09:41:15.448Z</time></trkpt><trkpt lat="45.9675203" lon="11.5800125"><ele>1392.0</ele><time>2026-04-25T09:41:17.449Z</time></trkpt><trkpt lat="45.9675433" lon="11.5798882"><ele>1392.6666666666667</ele><time>2026-04-25T09:41:18.469Z</time></trkpt><trkpt lat="45.9675726" lon="11.5797916"><ele>1393.3333333333333</ele><time>2026-04-25T09:41:19.455Z</time></trkpt><trkpt lat="45.9676134" lon="11.5797066"><ele>1394.0</ele><time>2026-04-25T09:41:20.443Z</time></trkpt><trkpt lat="45.9676777" lon="11.5796321"><ele>1394.6666666666665</ele><time>2026-04-25T09:41:21.459Z</time></trkpt><trkpt lat="45.9677561" lon="11.579565"><ele>1395.3333333333333</ele><time>2026-04-25T09:41:22.466Z</time></trkpt><trkpt lat="45.9678423" lon="11.5795002"><ele>1396.0</ele><time>2026-04-25T09:41:23.45Z</time></trkpt><trkpt lat="45.9679453" lon="11.579424"><ele>1396.0</ele><time>2026-04-25T09:41:24.458Z</time></trkpt><trkpt lat="45.9680404" lon="11.5793413"><ele>1396.0</ele><time>2026-04-25T09:41:25.451Z</time></trkpt><trkpt lat="45.9681401" lon="11.5792396"><ele>1396.0</ele><time>2026-04-25T09:41:26.451Z</time></trkpt><trkpt lat="45.9682304" lon="11.5791199"><ele>1396.0</ele><time>2026-04-25T09:41:27.461Z</time></trkpt><trkpt lat="45.9683218" lon="11.578984"><ele>1397.5</ele><time>2026-04-25T09:41:28.46Z</time></trkpt><trkpt lat="45.9684171" lon="11.5788437"><ele>1399.0</ele><time>2026-04-25T09:41:29.447Z</time></trkpt><trkpt lat="45.9685171" lon="11.5787067"><ele>1400.5</ele><time>2026-04-25T09:41:30.454Z</time></trkpt><trkpt lat="45.9686078" lon="11.5785789"><ele>1402.0</ele><time>2026-04-25T09:41:31.46Z</time></trkpt><trkpt lat="45.9687077" lon="11.57845"><ele>1402.0</ele><time>2026-04-25T09:41:32.462Z</time></trkpt><trkpt lat="45.9688078" lon="11.5783225"><ele>1402.0</ele><time>2026-04-25T09:41:33.452Z</time></trkpt><trkpt lat="45.9688961" lon="11.5782067"><ele>1402.0</ele><time>2026-04-25T09:41:34.454Z</time></trkpt><trkpt lat="45.9689768" lon="11.5781015"><ele>1402.0</ele><time>2026-04-25T09:41:35.455Z</time></trkpt><trkpt lat="45.9690531" lon="11.5780007"><ele>1402.25</ele><time>2026-04-25T09:41:36.44Z</time></trkpt><trkpt lat="45.9691875" lon="11.5778197"><ele>1402.5</ele><time>2026-04-25T09:41:38.462Z</time></trkpt><trkpt lat="45.9692364" lon="11.5777458"><ele>1402.75</ele><time>2026-04-25T09:41:39.463Z</time></trkpt><trkpt lat="45.9693188" lon="11.5776203"><ele>1403.0</ele><time>2026-04-25T09:41:41.453Z</time></trkpt><trkpt lat="45.9693884" lon="11.5775335"><ele>1403.0</ele><time>2026-04-25T09:41:43.452Z</time></trkpt><trkpt lat="45.9694557" lon="11.5774747"><ele>1403.0</ele><time>2026-04-25T09:41:45.443Z</time></trkpt><trkpt lat="45.969511" lon="11.5774111"><ele>1403.0</ele><time>2026-04-25T09:41:47.458Z</time></trkpt><trkpt lat="45.9695741" lon="11.5773468"><ele>1403.0</ele><time>2026-04-25T09:41:50.461Z</time></trkpt><trkpt lat="45.9696725" lon="11.5772905"><ele>1403.0</ele><time>2026-04-25T09:43:14.457Z</time></trkpt><trkpt lat="45.9698569" lon="11.5771898"><ele>1403.0</ele><time>2026-04-25T09:43:18.448Z</time></trkpt><trkpt lat="45.9699679" lon="11.5771461"><ele>1403.0</ele><time>2026-04-25T09:43:20.459Z</time></trkpt><trkpt lat="45.970074" lon="11.5771985"><ele>1403.0</ele><time>2026-04-25T09:43:22.449Z</time></trkpt><trkpt lat="45.9701246" lon="11.5772548"><ele>1403.0</ele><time>2026-04-25T09:43:23.455Z</time></trkpt><trkpt lat="45.9701708" lon="11.5773258"><ele>1403.0</ele><time>2026-04-25T09:43:24.447Z</time></trkpt><trkpt lat="45.970229" lon="11.5774026"><ele>1403.0</ele><time>2026-04-25T09:43:25.454Z</time></trkpt><trkpt lat="45.9702979" lon="11.5774823"><ele>1404.6000000000001</ele><time>2026-04-25T09:43:26.451Z</time></trkpt><trkpt lat="45.970369" lon="11.577567"><ele>1406.2</ele><time>2026-04-25T09:43:27.462Z</time></trkpt><trkpt lat="45.9704482" lon="11.5776558"><ele>1407.8</ele><time>2026-04-25T09:43:28.45Z</time></trkpt><trkpt lat="45.9705279" lon="11.5777451"><ele>1409.4</ele><time>2026-04-25T09:43:29.465Z</time></trkpt><trkpt lat="45.9705984" lon="11.5778321"><ele>1411.0</ele><time>2026-04-25T09:43:30.477Z</time></trkpt><trkpt lat="45.9706678" lon="11.5779178"><ele>1411.0</ele><time>2026-04-25T09:43:31.444Z</time></trkpt><trkpt lat="45.9707345" lon="11.5780089"><ele>1411.0</ele><time>2026-04-25T09:43:32.43Z</time></trkpt><trkpt lat="45.9707979" lon="11.578104"><ele>1411.0</ele><time>2026-04-25T09:43:33.465Z</time></trkpt><trkpt lat="45.970862" lon="11.5782011"><ele>1411.0</ele><time>2026-04-25T09:43:34.448Z</time></trkpt><trkpt lat="45.9709279" lon="11.5782987"><ele>1411.0</ele><time>2026-04-25T09:43:35.466Z</time></trkpt><trkpt lat="45.9710815" lon="11.5784939"><ele>1412.5</ele><time>2026-04-25T09:43:37.449Z</time></trkpt><trkpt lat="45.9711613" lon="11.5785741"><ele>1414.0</ele><time>2026-04-25T09:43:38.472Z</time></trkpt><trkpt lat="45.9712359" lon="11.5786498"><ele>1415.5</ele><time>2026-04-25T09:43:39.456Z</time></trkpt><trkpt lat="45.9713094" lon="11.5787179"><ele>1417.0</ele><time>2026-04-25T09:43:40.452Z</time></trkpt><trkpt lat="45.9713759" lon="11.5787837"><ele>1418.5</ele><time>2026-04-25T09:43:41.457Z</time></trkpt><trkpt lat="45.971448" lon="11.5788585"><ele>1420.0</ele><time>2026-04-25T09:43:42.463Z</time></trkpt><trkpt lat="45.9715191" lon="11.5789319"><ele>1420.0</ele><time>2026-04-25T09:43:43.461Z</time></trkpt><trkpt lat="45.9715781" lon="11.5789965"><ele>1420.0</ele><time>2026-04-25T09:43:44.468Z</time></trkpt><trkpt lat="45.9716477" lon="11.5791008"><ele>1420.0</ele><time>2026-04-25T09:43:46.456Z</time></trkpt><trkpt lat="45.9717014" lon="11.5792243"><ele>1420.0</ele><time>2026-04-25T09:43:48.449Z</time></trkpt><trkpt lat="45.9717379" lon="11.5793346"><ele>1420.0</ele><time>2026-04-25T09:43:50.461Z</time></trkpt><trkpt lat="45.9718019" lon="11.5793532"><ele>1420.0</ele><time>2026-04-25T09:43:52.454Z</time></trkpt><trkpt lat="45.9718448" lon="11.5792835"><ele>1422.0</ele><time>2026-04-25T09:43:54.456Z</time></trkpt><trkpt lat="45.9718126" lon="11.5791463"><ele>1424.0</ele><time>2026-04-25T09:43:56.455Z</time></trkpt><trkpt lat="45.9717356" lon="11.5789412"><ele>1426.0</ele><time>2026-04-25T09:43:58.452Z</time></trkpt><trkpt lat="45.971713" lon="11.5788278"><ele>1428.0</ele><time>2026-04-25T09:43:59.465Z</time></trkpt><trkpt lat="45.9717003" lon="11.5787149"><ele>1430.0</ele><time>2026-04-25T09:44:00.449Z</time></trkpt><trkpt lat="45.9716862" lon="11.5786066"><ele>1430.0</ele><time>2026-04-25T09:44:01.468Z</time></trkpt><trkpt lat="45.9716601" lon="11.5784885"><ele>1430.0</ele><time>2026-04-25T09:44:02.461Z</time></trkpt><trkpt lat="45.971619" lon="11.5783502"><ele>1430.0</ele><time>2026-04-25T09:44:03.458Z</time></trkpt><trkpt lat="45.9715737" lon="11.5782072"><ele>1430.0</ele><time>2026-04-25T09:44:04.444Z</time></trkpt><trkpt lat="45.9715333" lon="11.5780693"><ele>1430.0</ele><time>2026-04-25T09:44:05.454Z</time></trkpt><trkpt lat="45.9714986" lon="11.5779338"><ele>1432.0</ele><time>2026-04-25T09:44:06.473Z</time></trkpt><trkpt lat="45.9714664" lon="11.5777988"><ele>1434.0</ele><time>2026-04-25T09:44:07.457Z</time></trkpt><trkpt lat="45.9714351" lon="11.5776593"><ele>1436.0</ele><time>2026-04-25T09:44:08.458Z</time></trkpt><trkpt lat="45.9714047" lon="11.5775173"><ele>1438.0</ele><time>2026-04-25T09:44:09.477Z</time></trkpt><trkpt lat="45.9713718" lon="11.5773773"><ele>1440.0</ele><time>2026-04-25T09:44:10.452Z</time></trkpt><trkpt lat="45.9713342" lon="11.5772369"><ele>1440.0</ele><time>2026-04-25T09:44:11.453Z</time></trkpt><trkpt lat="45.9712935" lon="11.5771017"><ele>1440.0</ele><time>2026-04-25T09:44:12.461Z</time></trkpt><trkpt lat="45.9712521" lon="11.5769713"><ele>1440.0</ele><time>2026-04-25T09:44:13.479Z</time></trkpt><trkpt lat="45.9712129" lon="11.5768425"><ele>1440.0</ele><time>2026-04-25T09:44:14.455Z</time></trkpt><trkpt lat="45.9711779" lon="11.5767108"><ele>1440.0</ele><time>2026-04-25T09:44:15.471Z</time></trkpt><trkpt lat="45.9711504" lon="11.5765742"><ele>1442.25</ele><time>2026-04-25T09:44:16.45Z</time></trkpt><trkpt lat="45.9711315" lon="11.5764308"><ele>1444.5</ele><time>2026-04-25T09:44:17.465Z</time></trkpt><trkpt lat="45.9710911" lon="11.5761728"><ele>1446.75</ele><time>2026-04-25T09:44:19.478Z</time></trkpt><trkpt lat="45.9710577" lon="11.5760592"><ele>1449.0</ele><time>2026-04-25T09:44:20.462Z</time></trkpt><trkpt lat="45.9710178" lon="11.5759477"><ele>1448.0</ele><time>2026-04-25T09:44:21.48Z</time></trkpt><trkpt lat="45.9709705" lon="11.5758335"><ele>1447.0</ele><time>2026-04-25T09:44:22.475Z</time></trkpt><trkpt lat="45.9709144" lon="11.5757207"><ele>1446.0</ele><time>2026-04-25T09:44:23.467Z</time></trkpt><trkpt lat="45.97085" lon="11.5756124"><ele>1445.0</ele><time>2026-04-25T09:44:24.475Z</time></trkpt><trkpt lat="45.9707786" lon="11.5755071"><ele>1444.0</ele><time>2026-04-25T09:44:25.459Z</time></trkpt><trkpt lat="45.9707015" lon="11.5753991"><ele>1446.2</ele><time>2026-04-25T09:44:26.454Z</time></trkpt><trkpt lat="45.9706208" lon="11.5752926"><ele>1448.4</ele><time>2026-04-25T09:44:27.478Z</time></trkpt><trkpt lat="45.9705442" lon="11.5751829"><ele>1450.6</ele><time>2026-04-25T09:44:28.48Z</time></trkpt><trkpt lat="45.9704672" lon="11.5750759"><ele>1452.8</ele><time>2026-04-25T09:44:29.462Z</time></trkpt><trkpt lat="45.9703906" lon="11.5749761"><ele>1455.0</ele><time>2026-04-25T09:44:30.481Z</time></trkpt><trkpt lat="45.9703191" lon="11.5748928"><ele>1455.0</ele><time>2026-04-25T09:44:31.475Z</time></trkpt><trkpt lat="45.9702512" lon="11.5748247"><ele>1455.0</ele><time>2026-04-25T09:44:32.477Z</time></trkpt><trkpt lat="45.9701868" lon="11.5747644"><ele>1455.0</ele><time>2026-04-25T09:44:33.477Z</time></trkpt><trkpt lat="45.970123" lon="11.5747295"><ele>1455.0</ele><time>2026-04-25T09:44:34.474Z</time></trkpt><trkpt lat="45.970058" lon="11.5747012"><ele>1455.0</ele><time>2026-04-25T09:44:35.478Z</time></trkpt><trkpt lat="45.9699575" lon="11.5746517"><ele>1455.0</ele><time>2026-04-25T09:44:37.478Z</time></trkpt><trkpt lat="45.9699132" lon="11.5745458"><ele>1452.75</ele><time>2026-04-25T09:44:39.455Z</time></trkpt><trkpt lat="45.9699573" lon="11.5742553"><ele>1450.5</ele><time>2026-04-25T09:44:42.445Z</time></trkpt><trkpt lat="45.9699915" lon="11.57415"><ele>1448.25</ele><time>2026-04-25T09:44:43.458Z</time></trkpt><trkpt lat="45.970031" lon="11.5740426"><ele>1446.0</ele><time>2026-04-25T09:44:44.454Z</time></trkpt><trkpt lat="45.9700717" lon="11.5739313"><ele>1450.0</ele><time>2026-04-25T09:44:45.447Z</time></trkpt><trkpt lat="45.9701007" lon="11.5738176"><ele>1454.0</ele><time>2026-04-25T09:44:46.462Z</time></trkpt><trkpt lat="45.9701212" lon="11.5737033"><ele>1458.0</ele><time>2026-04-25T09:44:47.44Z</time></trkpt><trkpt lat="45.9701436" lon="11.5735732"><ele>1462.0</ele><time>2026-04-25T09:44:48.457Z</time></trkpt><trkpt lat="45.9701665" lon="11.5734437"><ele>1466.0</ele><time>2026-04-25T09:44:49.448Z</time></trkpt><trkpt lat="45.9701821" lon="11.5733237"><ele>1470.0</ele><time>2026-04-25T09:44:50.446Z</time></trkpt><trkpt lat="45.9701857" lon="11.5732132"><ele>1471.5714285714287</ele><time>2026-04-25T09:44:51.473Z</time></trkpt><trkpt lat="45.9701699" lon="11.5731135"><ele>1473.142857142857</ele><time>2026-04-25T09:44:52.461Z</time></trkpt><trkpt lat="45.9701503" lon="11.5730048"><ele>1474.7142857142858</ele><time>2026-04-25T09:44:53.474Z</time></trkpt><trkpt lat="45.9701364" lon="11.5729127"><ele>1476.2857142857142</ele><time>2026-04-25T09:44:54.451Z</time></trkpt><trkpt lat="45.9701222" lon="11.5728185"><ele>1477.857142857143</ele><time>2026-04-25T09:44:55.451Z</time></trkpt><trkpt lat="45.9701032" lon="11.572721"><ele>1479.4285714285716</ele><time>2026-04-25T09:44:56.46Z</time></trkpt><trkpt lat="45.9700781" lon="11.5726153"><ele>1481.0</ele><time>2026-04-25T09:44:57.463Z</time></trkpt><trkpt lat="45.9700507" lon="11.5725038"><ele>1478.0</ele><time>2026-04-25T09:44:58.475Z</time></trkpt><trkpt lat="45.970019" lon="11.5723868"><ele>1475.0</ele><time>2026-04-25T09:44:59.472Z</time></trkpt><trkpt lat="45.9699909" lon="11.5722631"><ele>1472.0</ele><time>2026-04-25T09:45:00.444Z</time></trkpt><trkpt lat="45.9699477" lon="11.5720106"><ele>1469.0</ele><time>2026-04-25T09:45:02.443Z</time></trkpt><trkpt lat="45.9699264" lon="11.5718922"><ele>1466.0</ele><time>2026-04-25T09:45:03.457Z</time></trkpt><trkpt lat="45.9698869" lon="11.5717845"><ele>1466.0</ele><time>2026-04-25T09:45:04.47Z</time></trkpt><trkpt lat="45.9698438" lon="11.571685"><ele>1466.0</ele><time>2026-04-25T09:45:05.467Z</time></trkpt><trkpt lat="45.9698027" lon="11.5715686"><ele>1466.0</ele><time>2026-04-25T09:45:06.472Z</time></trkpt><trkpt lat="45.9697568" lon="11.5714673"><ele>1466.0</ele><time>2026-04-25T09:45:07.462Z</time></trkpt><trkpt lat="45.9696929" lon="11.5713979"><ele>1466.0</ele><time>2026-04-25T09:45:08.447Z</time></trkpt><trkpt lat="45.9696238" lon="11.5713462"><ele>1466.0</ele><time>2026-04-25T09:45:09.456Z</time></trkpt><trkpt lat="45.9695409" lon="11.5713167"><ele>1466.0</ele><time>2026-04-25T09:45:10.47Z</time></trkpt><trkpt lat="45.9694554" lon="11.5713004"><ele>1466.0</ele><time>2026-04-25T09:45:11.466Z</time></trkpt><trkpt lat="45.9693788" lon="11.5712799"><ele>1466.0</ele><time>2026-04-25T09:45:12.437Z</time></trkpt><trkpt lat="45.9692887" lon="11.5711902"><ele>1466.0</ele><time>2026-04-25T09:45:14.478Z</time></trkpt><trkpt lat="45.9692742" lon="11.5710448"><ele>1466.0</ele><time>2026-04-25T09:45:16.455Z</time></trkpt><trkpt lat="45.9692848" lon="11.5709537"><ele>1466.0</ele><time>2026-04-25T09:45:17.474Z</time></trkpt><trkpt lat="45.9692912" lon="11.5708442"><ele>1468.0</ele><time>2026-04-25T09:45:18.444Z</time></trkpt><trkpt lat="45.9692841" lon="11.5707371"><ele>1470.0</ele><time>2026-04-25T09:45:19.468Z</time></trkpt><trkpt lat="45.9692579" lon="11.5706338"><ele>1472.0</ele><time>2026-04-25T09:45:20.46Z</time></trkpt><trkpt lat="45.9692204" lon="11.5705286"><ele>1474.0</ele><time>2026-04-25T09:45:21.468Z</time></trkpt><trkpt lat="45.9691207" lon="11.5703052"><ele>1476.0</ele><time>2026-04-25T09:45:23.459Z</time></trkpt><trkpt lat="45.9690662" lon="11.5701911"><ele>1476.0</ele><time>2026-04-25T09:45:24.449Z</time></trkpt><trkpt lat="45.9690092" lon="11.5700744"><ele>1476.0</ele><time>2026-04-25T09:45:25.439Z</time></trkpt><trkpt lat="45.9689569" lon="11.5699589"><ele>1476.0</ele><time>2026-04-25T09:45:26.459Z</time></trkpt><trkpt lat="45.9689076" lon="11.5698415"><ele>1476.0</ele><time>2026-04-25T09:45:27.442Z</time></trkpt><trkpt lat="45.9688537" lon="11.5697271"><ele>1476.0</ele><time>2026-04-25T09:45:28.459Z</time></trkpt><trkpt lat="45.9688017" lon="11.5696267"><ele>1476.0</ele><time>2026-04-25T09:45:29.455Z</time></trkpt><trkpt lat="45.9687476" lon="11.5695471"><ele>1476.0</ele><time>2026-04-25T09:45:30.47Z</time></trkpt><trkpt lat="45.9686845" lon="11.5694946"><ele>1476.0</ele><time>2026-04-25T09:45:31.465Z</time></trkpt><trkpt lat="45.9686126" lon="11.5694619"><ele>1476.0</ele><time>2026-04-25T09:45:32.444Z</time></trkpt><trkpt lat="45.968535" lon="11.5694617"><ele>1476.0</ele><time>2026-04-25T09:45:33.449Z</time></trkpt><trkpt lat="45.9684527" lon="11.5694645"><ele>1476.0</ele><time>2026-04-25T09:45:34.474Z</time></trkpt><trkpt lat="45.9683698" lon="11.5694599"><ele>1477.5714285714284</ele><time>2026-04-25T09:45:35.44Z</time></trkpt><trkpt lat="45.9682964" lon="11.5694329"><ele>1479.142857142857</ele><time>2026-04-25T09:45:36.471Z</time></trkpt><trkpt lat="45.9682343" lon="11.5693987"><ele>1480.7142857142858</ele><time>2026-04-25T09:45:37.453Z</time></trkpt><trkpt lat="45.968177" lon="11.5693476"><ele>1482.2857142857142</ele><time>2026-04-25T09:45:38.467Z</time></trkpt><trkpt lat="45.9681305" lon="11.569281"><ele>1483.857142857143</ele><time>2026-04-25T09:45:39.473Z</time></trkpt><trkpt lat="45.9680886" lon="11.5691988"><ele>1485.4285714285713</ele><time>2026-04-25T09:45:40.473Z</time></trkpt><trkpt lat="45.9680376" lon="11.5691141"><ele>1487.0</ele><time>2026-04-25T09:45:41.44Z</time></trkpt><trkpt lat="45.9679841" lon="11.5690413"><ele>1487.0</ele><time>2026-04-25T09:45:42.447Z</time></trkpt><trkpt lat="45.9678606" lon="11.5689616"><ele>1487.0</ele><time>2026-04-25T09:45:44.451Z</time></trkpt><trkpt lat="45.9677328" lon="11.5689748"><ele>1487.0</ele><time>2026-04-25T09:45:46.457Z</time></trkpt><trkpt lat="45.967667" lon="11.5690105"><ele>1487.0</ele><time>2026-04-25T09:45:47.435Z</time></trkpt><trkpt lat="45.967595" lon="11.5690527"><ele>1487.0</ele><time>2026-04-25T09:45:48.43Z</time></trkpt><trkpt lat="45.9675238" lon="11.5690925"><ele>1485.8333333333335</ele><time>2026-04-25T09:45:49.436Z</time></trkpt><trkpt lat="45.9674499" lon="11.569121"><ele>1484.6666666666667</ele><time>2026-04-25T09:45:50.441Z</time></trkpt><trkpt lat="45.9673812" lon="11.5691272"><ele>1483.5</ele><time>2026-04-25T09:45:51.447Z</time></trkpt><trkpt lat="45.9672656" lon="11.5690741"><ele>1482.3333333333333</ele><time>2026-04-25T09:45:53.451Z</time></trkpt><trkpt lat="45.9672022" lon="11.5690033"><ele>1481.1666666666665</ele><time>2026-04-25T09:45:54.454Z</time></trkpt><trkpt lat="45.9671329" lon="11.5689271"><ele>1480.0</ele><time>2026-04-25T09:45:55.443Z</time></trkpt><trkpt lat="45.9670631" lon="11.5688449"><ele>1480.0</ele><time>2026-04-25T09:45:56.446Z</time></trkpt><trkpt lat="45.9669999" lon="11.5687543"><ele>1480.0</ele><time>2026-04-25T09:45:57.459Z</time></trkpt><trkpt lat="45.9669456" lon="11.5686395"><ele>1480.0</ele><time>2026-04-25T09:45:58.445Z</time></trkpt><trkpt lat="45.9668916" lon="11.5685164"><ele>1480.0</ele><time>2026-04-25T09:45:59.453Z</time></trkpt><trkpt lat="45.9668432" lon="11.5683891"><ele>1480.0</ele><time>2026-04-25T09:46:00.447Z</time></trkpt><trkpt lat="45.9668098" lon="11.568246"><ele>1483.5</ele><time>2026-04-25T09:46:01.464Z</time></trkpt><trkpt lat="45.9667738" lon="11.568111"><ele>1487.0</ele><time>2026-04-25T09:46:02.463Z</time></trkpt><trkpt lat="45.9667345" lon="11.5679668"><ele>1490.5</ele><time>2026-04-25T09:46:03.471Z</time></trkpt><trkpt lat="45.966683" lon="11.5676989"><ele>1494.0</ele><time>2026-04-25T09:46:05.455Z</time></trkpt><trkpt lat="45.9666575" lon="11.5675683"><ele>1494.0</ele><time>2026-04-25T09:46:06.459Z</time></trkpt><trkpt lat="45.9666365" lon="11.5674216"><ele>1494.0</ele><time>2026-04-25T09:46:07.455Z</time></trkpt><trkpt lat="45.9666307" lon="11.5672655"><ele>1494.0</ele><time>2026-04-25T09:46:08.446Z</time></trkpt><trkpt lat="45.9666297" lon="11.56711"><ele>1494.0</ele><time>2026-04-25T09:46:09.456Z</time></trkpt><trkpt lat="45.9666259" lon="11.5669566"><ele>1494.0</ele><time>2026-04-25T09:46:10.453Z</time></trkpt><trkpt lat="45.966618" lon="11.5668093"><ele>1496.0</ele><time>2026-04-25T09:46:11.452Z</time></trkpt><trkpt lat="45.9666009" lon="11.5666682"><ele>1498.0</ele><time>2026-04-25T09:46:12.448Z</time></trkpt><trkpt lat="45.9665692" lon="11.5665508"><ele>1500.0</ele><time>2026-04-25T09:46:13.453Z</time></trkpt><trkpt lat="45.9665222" lon="11.5664421"><ele>1502.0</ele><time>2026-04-25T09:46:14.449Z</time></trkpt><trkpt lat="45.9664624" lon="11.5663244"><ele>1504.0</ele><time>2026-04-25T09:46:15.463Z</time></trkpt><trkpt lat="45.9663809" lon="11.5662196"><ele>1506.0</ele><time>2026-04-25T09:46:16.451Z</time></trkpt><trkpt lat="45.9663017" lon="11.5661181"><ele>1508.0</ele><time>2026-04-25T09:46:17.449Z</time></trkpt><trkpt lat="45.9662281" lon="11.5660281"><ele>1510.0</ele><time>2026-04-25T09:46:18.447Z</time></trkpt><trkpt lat="45.9661782" lon="11.5659622"><ele>1512.0</ele><time>2026-04-25T09:46:19.446Z</time></trkpt><trkpt lat="45.9660968" lon="11.5658396"><ele>1514.0</ele><time>2026-04-25T09:46:21.456Z</time></trkpt><trkpt lat="45.9660596" lon="11.5657636"><ele>1514.0</ele><time>2026-04-25T09:46:22.454Z</time></trkpt><trkpt lat="45.9660311" lon="11.5656716"><ele>1514.0</ele><time>2026-04-25T09:46:23.448Z</time></trkpt><trkpt lat="45.9660131" lon="11.5655626"><ele>1514.0</ele><time>2026-04-25T09:46:24.466Z</time></trkpt><trkpt lat="45.9659743" lon="11.5653737"><ele>1514.0</ele><time>2026-04-25T09:46:26.451Z</time></trkpt><trkpt lat="45.9658885" lon="11.5652507"><ele>1514.0</ele><time>2026-04-25T09:46:28.453Z</time></trkpt><trkpt lat="45.9658207" lon="11.5652207"><ele>1513.3333333333335</ele><time>2026-04-25T09:46:29.458Z</time></trkpt><trkpt lat="45.9657554" lon="11.5651903"><ele>1512.6666666666667</ele><time>2026-04-25T09:46:30.453Z</time></trkpt><trkpt lat="45.9656785" lon="11.5651772"><ele>1512.0</ele><time>2026-04-25T09:46:31.453Z</time></trkpt><trkpt lat="45.9655961" lon="11.5651676"><ele>1511.3333333333333</ele><time>2026-04-25T09:46:32.462Z</time></trkpt><trkpt lat="45.965518" lon="11.5651434"><ele>1510.6666666666665</ele><time>2026-04-25T09:46:33.448Z</time></trkpt><trkpt lat="45.9654384" lon="11.5651051"><ele>1510.0</ele><time>2026-04-25T09:46:34.473Z</time></trkpt><trkpt lat="45.9653748" lon="11.5650292"><ele>1510.0</ele><time>2026-04-25T09:46:35.461Z</time></trkpt><trkpt lat="45.965314" lon="11.5649335"><ele>1510.0</ele><time>2026-04-25T09:46:36.455Z</time></trkpt><trkpt lat="45.9652566" lon="11.5648324"><ele>1510.0</ele><time>2026-04-25T09:46:37.45Z</time></trkpt><trkpt lat="45.9651993" lon="11.564735"><ele>1510.0</ele><time>2026-04-25T09:46:38.458Z</time></trkpt><trkpt lat="45.9651503" lon="11.5646309"><ele>1510.0</ele><time>2026-04-25T09:46:39.46Z</time></trkpt><trkpt lat="45.9651051" lon="11.5645131"><ele>1509.3333333333333</ele><time>2026-04-25T09:46:40.453Z</time></trkpt><trkpt lat="45.965062" lon="11.5643888"><ele>1508.6666666666665</ele><time>2026-04-25T09:46:41.452Z</time></trkpt><trkpt lat="45.9650212" lon="11.5642716"><ele>1508.0</ele><time>2026-04-25T09:46:42.45Z</time></trkpt><trkpt lat="45.9649737" lon="11.5641606"><ele>1507.3333333333333</ele><time>2026-04-25T09:46:43.449Z</time></trkpt><trkpt lat="45.9649257" lon="11.5640693"><ele>1506.6666666666667</ele><time>2026-04-25T09:46:44.449Z</time></trkpt><trkpt lat="45.9648771" lon="11.5640016"><ele>1506.0</ele><time>2026-04-25T09:46:45.448Z</time></trkpt><trkpt lat="45.9647744" lon="11.563889"><ele>1506.0</ele><time>2026-04-25T09:46:47.456Z</time></trkpt><trkpt lat="45.9647011" lon="11.5638138"><ele>1506.0</ele><time>2026-04-25T09:46:49.449Z</time></trkpt><trkpt lat="45.9646817" lon="11.5637183"><ele>1506.0</ele><time>2026-04-25T09:46:51.445Z</time></trkpt><trkpt lat="45.9647343" lon="11.5636601"><ele>1506.0</ele><time>2026-04-25T09:46:53.449Z</time></trkpt><trkpt lat="45.9648243" lon="11.5636971"><ele>1506.0</ele><time>2026-04-25T09:46:55.464Z</time></trkpt><trkpt lat="45.964905" lon="11.5637941"><ele>1506.0</ele><time>2026-04-25T09:46:57.464Z</time></trkpt><trkpt lat="45.9649523" lon="11.5638566"><ele>1506.0</ele><time>2026-04-25T09:46:58.455Z</time></trkpt><trkpt lat="45.9650181" lon="11.5639174"><ele>1506.0</ele><time>2026-04-25T09:46:59.448Z</time></trkpt><trkpt lat="45.9650859" lon="11.5639705"><ele>1506.0</ele><time>2026-04-25T09:47:00.463Z</time></trkpt><trkpt lat="45.9651547" lon="11.5640097"><ele>1506.0</ele><time>2026-04-25T09:47:01.459Z</time></trkpt><trkpt lat="45.9652188" lon="11.5640489"><ele>1506.0</ele><time>2026-04-25T09:47:02.46Z</time></trkpt><trkpt lat="45.9652723" lon="11.5641115"><ele>1506.0</ele><time>2026-04-25T09:47:03.467Z</time></trkpt><trkpt lat="45.9653284" lon="11.564173"><ele>1506.0</ele><time>2026-04-25T09:47:04.477Z</time></trkpt><trkpt lat="45.9653812" lon="11.5642307"><ele>1506.8</ele><time>2026-04-25T09:47:05.463Z</time></trkpt><trkpt lat="45.9654352" lon="11.5642954"><ele>1507.6</ele><time>2026-04-25T09:47:06.466Z</time></trkpt><trkpt lat="45.9655547" lon="11.5644318"><ele>1508.4</ele><time>2026-04-25T09:47:08.469Z</time></trkpt><trkpt lat="45.9656177" lon="11.564513"><ele>1509.2</ele><time>2026-04-25T09:47:09.464Z</time></trkpt><trkpt lat="45.965678" lon="11.5646003"><ele>1510.0</ele><time>2026-04-25T09:47:10.463Z</time></trkpt><trkpt lat="45.9657366" lon="11.5646765"><ele>1510.0</ele><time>2026-04-25T09:47:11.485Z</time></trkpt><trkpt lat="45.965797" lon="11.5647308"><ele>1510.0</ele><time>2026-04-25T09:47:12.476Z</time></trkpt><trkpt lat="45.9658692" lon="11.5647665"><ele>1510.0</ele><time>2026-04-25T09:47:13.489Z</time></trkpt><trkpt lat="45.9659486" lon="11.5647944"><ele>1510.0</ele><time>2026-04-25T09:47:14.47Z</time></trkpt><trkpt lat="45.9660309" lon="11.5648246"><ele>1510.0</ele><time>2026-04-25T09:47:15.477Z</time></trkpt><trkpt lat="45.9661095" lon="11.5648581"><ele>1510.0</ele><time>2026-04-25T09:47:16.467Z</time></trkpt><trkpt lat="45.9661857" lon="11.56489"><ele>1513.1666666666665</ele><time>2026-04-25T09:47:17.479Z</time></trkpt><trkpt lat="45.9662641" lon="11.5649249"><ele>1516.3333333333333</ele><time>2026-04-25T09:47:18.467Z</time></trkpt><trkpt lat="45.9663491" lon="11.5649593"><ele>1519.5</ele><time>2026-04-25T09:47:19.464Z</time></trkpt><trkpt lat="45.9664371" lon="11.5649934"><ele>1522.6666666666667</ele><time>2026-04-25T09:47:20.473Z</time></trkpt><trkpt lat="45.966519" lon="11.5650248"><ele>1525.8333333333335</ele><time>2026-04-25T09:47:21.466Z</time></trkpt><trkpt lat="45.9665987" lon="11.5650596"><ele>1529.0</ele><time>2026-04-25T09:47:22.465Z</time></trkpt><trkpt lat="45.9666789" lon="11.5651077"><ele>1529.8333333333335</ele><time>2026-04-25T09:47:23.466Z</time></trkpt><trkpt lat="45.9667487" lon="11.565173"><ele>1530.6666666666667</ele><time>2026-04-25T09:47:24.474Z</time></trkpt><trkpt lat="45.9668003" lon="11.5652533"><ele>1531.5</ele><time>2026-04-25T09:47:25.478Z</time></trkpt><trkpt lat="45.9668354" lon="11.5653454"><ele>1532.3333333333333</ele><time>2026-04-25T09:47:26.483Z</time></trkpt><trkpt lat="45.966858" lon="11.565441"><ele>1533.1666666666665</ele><time>2026-04-25T09:47:27.462Z</time></trkpt><trkpt lat="45.9668845" lon="11.5656486"><ele>1534.0</ele><time>2026-04-25T09:47:29.466Z</time></trkpt><trkpt lat="45.9669028" lon="11.565741"><ele>1534.0</ele><time>2026-04-25T09:47:30.484Z</time></trkpt><trkpt lat="45.9669331" lon="11.5658228"><ele>1534.0</ele><time>2026-04-25T09:47:31.489Z</time></trkpt><trkpt lat="45.967009" lon="11.5659699"><ele>1534.0</ele><time>2026-04-25T09:47:33.494Z</time></trkpt><trkpt lat="45.9670793" lon="11.5660318"><ele>1534.0</ele><time>2026-04-25T09:47:34.475Z</time></trkpt><trkpt lat="45.967166" lon="11.5660942"><ele>1534.0</ele><time>2026-04-25T09:47:35.485Z</time></trkpt><trkpt lat="45.9672479" lon="11.5661792"><ele>1533.6666666666665</ele><time>2026-04-25T09:47:36.481Z</time></trkpt><trkpt lat="45.9673217" lon="11.5662798"><ele>1533.3333333333333</ele><time>2026-04-25T09:47:37.484Z</time></trkpt><trkpt lat="45.9673875" lon="11.5663805"><ele>1533.0</ele><time>2026-04-25T09:47:38.488Z</time></trkpt><trkpt lat="45.9674533" lon="11.5664582"><ele>1532.6666666666667</ele><time>2026-04-25T09:47:39.476Z</time></trkpt><trkpt lat="45.9675205" lon="11.5665196"><ele>1532.3333333333335</ele><time>2026-04-25T09:47:40.493Z</time></trkpt><trkpt lat="45.9675904" lon="11.5665382"><ele>1532.0</ele><time>2026-04-25T09:47:41.488Z</time></trkpt><trkpt lat="45.9676978" lon="11.5664937"><ele>1532.0</ele><time>2026-04-25T09:47:43.481Z</time></trkpt><trkpt lat="45.9676753" lon="11.566383"><ele>1532.0</ele><time>2026-04-25T09:47:46.476Z</time></trkpt><trkpt lat="45.9676115" lon="11.5663754"><ele>1532.0</ele><time>2026-04-25T09:47:47.466Z</time></trkpt><trkpt lat="45.9674953" lon="11.5663024"><ele>1532.0</ele><time>2026-04-25T09:47:49.492Z</time></trkpt><trkpt lat="45.967384" lon="11.5661189"><ele>1532.0</ele><time>2026-04-25T09:47:51.479Z</time></trkpt><trkpt lat="45.9673335" lon="11.5659949"><ele>1532.5</ele><time>2026-04-25T09:47:52.475Z</time></trkpt><trkpt lat="45.9672908" lon="11.5658571"><ele>1533.0</ele><time>2026-04-25T09:47:53.481Z</time></trkpt><trkpt lat="45.9672647" lon="11.5656956"><ele>1533.5</ele><time>2026-04-25T09:47:54.478Z</time></trkpt><trkpt lat="45.9672344" lon="11.5655085"><ele>1534.0</ele><time>2026-04-25T09:47:55.478Z</time></trkpt><trkpt lat="45.9672045" lon="11.56534"><ele>1535.6666666666665</ele><time>2026-04-25T09:47:56.483Z</time></trkpt><trkpt lat="45.967169" lon="11.5652255"><ele>1537.3333333333333</ele><time>2026-04-25T09:47:57.477Z</time></trkpt><trkpt lat="45.967136" lon="11.5651331"><ele>1539.0</ele><time>2026-04-25T09:47:58.467Z</time></trkpt><trkpt lat="45.9671401" lon="11.5650131"><ele>1540.6666666666665</ele><time>2026-04-25T09:48:00.464Z</time></trkpt><trkpt lat="45.9672153" lon="11.5649835"><ele>1542.3333333333333</ele><time>2026-04-25T09:48:02.464Z</time></trkpt><trkpt lat="45.9672959" lon="11.5651145"><ele>1544.0</ele><time>2026-04-25T09:48:04.467Z</time></trkpt><trkpt lat="45.9673514" lon="11.5652384"><ele>1543.8333333333333</ele><time>2026-04-25T09:48:05.476Z</time></trkpt><trkpt lat="45.9674065" lon="11.5653759"><ele>1543.6666666666665</ele><time>2026-04-25T09:48:06.463Z</time></trkpt><trkpt lat="45.967446" lon="11.5655128"><ele>1543.5</ele><time>2026-04-25T09:48:07.468Z</time></trkpt><trkpt lat="45.9674686" lon="11.5656335"><ele>1543.3333333333335</ele><time>2026-04-25T09:48:08.473Z</time></trkpt><trkpt lat="45.9674697" lon="11.5657423"><ele>1543.1666666666667</ele><time>2026-04-25T09:48:09.453Z</time></trkpt><trkpt lat="45.967479" lon="11.5658368"><ele>1543.0</ele><time>2026-04-25T09:48:10.466Z</time></trkpt><trkpt lat="45.9676435" lon="11.5659256"><ele>1543.0000000000002</ele><time>2026-04-25T09:48:14.458Z</time></trkpt><trkpt lat="45.9676914" lon="11.5658621"><ele>1543.0</ele><time>2026-04-25T09:48:15.46Z</time></trkpt><trkpt lat="45.9677441" lon="11.5657694"><ele>1543.0</ele><time>2026-04-25T09:48:16.479Z</time></trkpt><trkpt lat="45.9678109" lon="11.5656632"><ele>1543.0</ele><time>2026-04-25T09:48:17.481Z</time></trkpt><trkpt lat="45.9678895" lon="11.5655807"><ele>1543.0000000000002</ele><time>2026-04-25T09:48:18.494Z</time></trkpt><trkpt lat="45.9679632" lon="11.5655209"><ele>1543.0</ele><time>2026-04-25T09:48:19.484Z</time></trkpt><trkpt lat="45.968036" lon="11.5654699"><ele>1543.0000000000002</ele><time>2026-04-25T09:48:20.495Z</time></trkpt><trkpt lat="45.9681106" lon="11.5654307"><ele>1543.0</ele><time>2026-04-25T09:48:21.491Z</time></trkpt><trkpt lat="45.9681859" lon="11.5654006"><ele>1543.0</ele><time>2026-04-25T09:48:22.478Z</time></trkpt><trkpt lat="45.9682647" lon="11.565403"><ele>1543.0</ele><time>2026-04-25T09:48:23.485Z</time></trkpt><trkpt lat="45.968336" lon="11.5654124"><ele>1543.0000000000002</ele><time>2026-04-25T09:48:24.483Z</time></trkpt><trkpt lat="45.9684395" lon="11.5654779"><ele>1543.0</ele><time>2026-04-25T09:48:26.479Z</time></trkpt><trkpt lat="45.9685165" lon="11.5655541"><ele>1543.75</ele><time>2026-04-25T09:48:28.482Z</time></trkpt><trkpt lat="45.9685836" lon="11.5655727"><ele>1544.5</ele><time>2026-04-25T09:48:30.508Z</time></trkpt><trkpt lat="45.9686449" lon="11.565527"><ele>1545.25</ele><time>2026-04-25T09:48:34.482Z</time></trkpt><trkpt lat="45.9684989" lon="11.5652152"><ele>1546.0</ele><time>2026-04-25T09:50:09.464Z</time></trkpt><trkpt lat="45.9684486" lon="11.5651392"><ele>1546.6666666666667</ele><time>2026-04-25T09:50:10.487Z</time></trkpt><trkpt lat="45.9683942" lon="11.5650662"><ele>1547.3333333333335</ele><time>2026-04-25T09:50:11.465Z</time></trkpt><trkpt lat="45.9683311" lon="11.5649949"><ele>1548.0</ele><time>2026-04-25T09:50:12.491Z</time></trkpt><trkpt lat="45.9682568" lon="11.5649321"><ele>1548.6666666666665</ele><time>2026-04-25T09:50:13.477Z</time></trkpt><trkpt lat="45.9681685" lon="11.5648801"><ele>1549.3333333333333</ele><time>2026-04-25T09:50:14.453Z</time></trkpt><trkpt lat="45.9680799" lon="11.5648391"><ele>1550.0</ele><time>2026-04-25T09:50:15.48Z</time></trkpt><trkpt lat="45.9680034" lon="11.5648043"><ele>1550.1666666666665</ele><time>2026-04-25T09:50:16.472Z</time></trkpt><trkpt lat="45.9679354" lon="11.5647606"><ele>1550.3333333333333</ele><time>2026-04-25T09:50:17.486Z</time></trkpt><trkpt lat="45.9678724" lon="11.5646934"><ele>1550.5</ele><time>2026-04-25T09:50:18.481Z</time></trkpt><trkpt lat="45.9678143" lon="11.5646071"><ele>1550.6666666666665</ele><time>2026-04-25T09:50:19.494Z</time></trkpt><trkpt lat="45.9677547" lon="11.5645081"><ele>1550.8333333333333</ele><time>2026-04-25T09:50:20.479Z</time></trkpt><trkpt lat="45.9676907" lon="11.5644022"><ele>1551.0</ele><time>2026-04-25T09:50:21.454Z</time></trkpt><trkpt lat="45.9676237" lon="11.5642925"><ele>1551.0</ele><time>2026-04-25T09:50:22.469Z</time></trkpt><trkpt lat="45.9675562" lon="11.5641816"><ele>1551.0</ele><time>2026-04-25T09:50:23.469Z</time></trkpt><trkpt lat="45.9674913" lon="11.564064"><ele>1551.0</ele><time>2026-04-25T09:50:24.467Z</time></trkpt><trkpt lat="45.9674297" lon="11.563958"><ele>1551.0</ele><time>2026-04-25T09:50:25.472Z</time></trkpt><trkpt lat="45.967371" lon="11.5638647"><ele>1551.0</ele><time>2026-04-25T09:50:26.469Z</time></trkpt><trkpt lat="45.9673188" lon="11.5637774"><ele>1552.0</ele><time>2026-04-25T09:50:27.474Z</time></trkpt><trkpt lat="45.967231" lon="11.5636157"><ele>1553.0</ele><time>2026-04-25T09:50:29.465Z</time></trkpt><trkpt lat="45.9671905" lon="11.5635447"><ele>1554.0</ele><time>2026-04-25T09:50:30.484Z</time></trkpt><trkpt lat="45.9671143" lon="11.5634272"><ele>1555.0</ele><time>2026-04-25T09:50:32.477Z</time></trkpt><trkpt lat="45.9670495" lon="11.5633397"><ele>1556.0</ele><time>2026-04-25T09:50:34.49Z</time></trkpt><trkpt lat="45.9670025" lon="11.5632676"><ele>1556.0</ele><time>2026-04-25T09:50:36.474Z</time></trkpt><trkpt lat="45.9669566" lon="11.5632051"><ele>1556.0</ele><time>2026-04-25T09:50:38.486Z</time></trkpt><trkpt lat="45.9669078" lon="11.5631456"><ele>1556.0</ele><time>2026-04-25T09:50:52.472Z</time></trkpt><trkpt lat="45.9667452" lon="11.562934"><ele>1556.0</ele><time>2026-04-25T09:51:54.456Z</time></trkpt><trkpt lat="45.9667011" lon="11.5628504"><ele>1556.0</ele><time>2026-04-25T09:51:56.47Z</time></trkpt><trkpt lat="45.9666369" lon="11.5627615"><ele>1556.8333333333333</ele><time>2026-04-25T09:51:58.468Z</time></trkpt><trkpt lat="45.9665769" lon="11.5626499"><ele>1557.6666666666665</ele><time>2026-04-25T09:52:00.473Z</time></trkpt><trkpt lat="45.9665148" lon="11.562571"><ele>1558.5</ele><time>2026-04-25T09:52:02.467Z</time></trkpt><trkpt lat="45.9664597" lon="11.5624763"><ele>1559.3333333333335</ele><time>2026-04-25T09:52:05.481Z</time></trkpt><trkpt lat="45.9664104" lon="11.5623865"><ele>1560.1666666666667</ele><time>2026-04-25T09:52:08.466Z</time></trkpt><trkpt lat="45.9663378" lon="11.5624557"><ele>1561.0</ele><time>2026-04-25T09:52:14.467Z</time></trkpt><trkpt lat="45.9661631" lon="11.5622762"><ele>1561.0</ele><time>2026-04-25T09:52:50.47Z</time></trkpt><trkpt lat="45.9661012" lon="11.5622436"><ele>1561.0</ele><time>2026-04-25T09:52:53.474Z</time></trkpt><trkpt lat="45.966016" lon="11.5621682"><ele>1561.0</ele><time>2026-04-25T09:52:56.48Z</time></trkpt><trkpt lat="45.965959" lon="11.5620887"><ele>1561.0</ele><time>2026-04-25T09:52:59.487Z</time></trkpt><trkpt lat="45.9659033" lon="11.5620167"><ele>1561.0</ele><time>2026-04-25T09:58:23.435Z</time></trkpt><trkpt lat="45.9657401" lon="11.5617617"><ele>1560.4</ele><time>2026-04-25T09:58:28.478Z</time></trkpt><trkpt lat="45.965694" lon="11.5616179"><ele>1559.8</ele><time>2026-04-25T09:58:30.459Z</time></trkpt><trkpt lat="45.9656471" lon="11.5614551"><ele>1559.2</ele><time>2026-04-25T09:58:32.451Z</time></trkpt><trkpt lat="45.9656108" lon="11.5613603"><ele>1558.6000000000001</ele><time>2026-04-25T09:58:33.454Z</time></trkpt><trkpt lat="45.9655695" lon="11.5612641"><ele>1558.0</ele><time>2026-04-25T09:58:34.43Z</time></trkpt><trkpt lat="45.9655274" lon="11.5611649"><ele>1558.0000000000002</ele><time>2026-04-25T09:58:35.43Z</time></trkpt><trkpt lat="45.9654826" lon="11.5610608"><ele>1558.0</ele><time>2026-04-25T09:58:36.427Z</time></trkpt><trkpt lat="45.9654398" lon="11.5609409"><ele>1558.0</ele><time>2026-04-25T09:58:37.438Z</time></trkpt><trkpt lat="45.9654054" lon="11.5608183"><ele>1558.0</ele><time>2026-04-25T09:58:38.432Z</time></trkpt><trkpt lat="45.9653808" lon="11.5606978"><ele>1558.0000000000002</ele><time>2026-04-25T09:58:39.44Z</time></trkpt><trkpt lat="45.9653624" lon="11.5605703"><ele>1558.0</ele><time>2026-04-25T09:58:40.443Z</time></trkpt><trkpt lat="45.9653517" lon="11.5604416"><ele>1559.0</ele><time>2026-04-25T09:58:41.458Z</time></trkpt><trkpt lat="45.9653448" lon="11.5603066"><ele>1560.0</ele><time>2026-04-25T09:58:42.46Z</time></trkpt><trkpt lat="45.9653381" lon="11.5601681"><ele>1561.0</ele><time>2026-04-25T09:58:43.473Z</time></trkpt><trkpt lat="45.9653296" lon="11.5600314"><ele>1562.0</ele><time>2026-04-25T09:58:44.453Z</time></trkpt><trkpt lat="45.9653049" lon="11.5597374"><ele>1562.0</ele><time>2026-04-25T09:58:46.469Z</time></trkpt><trkpt lat="45.9652892" lon="11.5595834"><ele>1562.0</ele><time>2026-04-25T09:58:47.465Z</time></trkpt><trkpt lat="45.9652783" lon="11.5594239"><ele>1562.0</ele><time>2026-04-25T09:58:48.451Z</time></trkpt><trkpt lat="45.9652675" lon="11.5592674"><ele>1562.0</ele><time>2026-04-25T09:58:49.462Z</time></trkpt><trkpt lat="45.9652765" lon="11.5591104"><ele>1562.0</ele><time>2026-04-25T09:58:50.469Z</time></trkpt><trkpt lat="45.9652926" lon="11.5589478"><ele>1561.75</ele><time>2026-04-25T09:58:51.461Z</time></trkpt><trkpt lat="45.9653177" lon="11.5587907"><ele>1561.5</ele><time>2026-04-25T09:58:52.468Z</time></trkpt><trkpt lat="45.9653517" lon="11.5586442"><ele>1561.25</ele><time>2026-04-25T09:58:53.455Z</time></trkpt><trkpt lat="45.9654011" lon="11.5584905"><ele>1561.0</ele><time>2026-04-25T09:58:54.467Z</time></trkpt><trkpt lat="45.9654656" lon="11.5583192"><ele>1561.0</ele><time>2026-04-25T09:58:55.461Z</time></trkpt><trkpt lat="45.965526" lon="11.558158"><ele>1561.0</ele><time>2026-04-25T09:58:56.456Z</time></trkpt><trkpt lat="45.9655753" lon="11.5580324"><ele>1561.0</ele><time>2026-04-25T09:58:57.46Z</time></trkpt><trkpt lat="45.9656159" lon="11.5579439"><ele>1561.0</ele><time>2026-04-25T09:58:58.459Z</time></trkpt><trkpt lat="45.9656772" lon="11.5578295"><ele>1561.0</ele><time>2026-04-25T09:59:00.436Z</time></trkpt><trkpt lat="45.9657275" lon="11.5577539"><ele>1560.6</ele><time>2026-04-25T09:59:02.445Z</time></trkpt><trkpt lat="45.9657977" lon="11.5576878"><ele>1560.1999999999998</ele><time>2026-04-25T09:59:04.446Z</time></trkpt><trkpt lat="45.9658627" lon="11.5576279"><ele>1559.8000000000002</ele><time>2026-04-25T09:59:06.437Z</time></trkpt><trkpt lat="45.9660235" lon="11.5574414"><ele>1559.4</ele><time>2026-04-25T09:59:10.449Z</time></trkpt><trkpt lat="45.966065" lon="11.5573581"><ele>1559.0</ele><time>2026-04-25T09:59:11.463Z</time></trkpt><trkpt lat="45.9660927" lon="11.5572696"><ele>1558.9999999999998</ele><time>2026-04-25T09:59:12.449Z</time></trkpt><trkpt lat="45.9661034" lon="11.557166"><ele>1559.0</ele><time>2026-04-25T09:59:13.451Z</time></trkpt><trkpt lat="45.9661036" lon="11.557059"><ele>1559.0</ele><time>2026-04-25T09:59:14.459Z</time></trkpt><trkpt lat="45.9660774" lon="11.556956"><ele>1559.0</ele><time>2026-04-25T09:59:15.457Z</time></trkpt><trkpt lat="45.9660358" lon="11.5568562"><ele>1558.9999999999998</ele><time>2026-04-25T09:59:16.45Z</time></trkpt><trkpt lat="45.9659755" lon="11.5567661"><ele>1559.0</ele><time>2026-04-25T09:59:17.456Z</time></trkpt><trkpt lat="45.9658901" lon="11.5566616"><ele>1558.75</ele><time>2026-04-25T09:59:18.445Z</time></trkpt><trkpt lat="45.9657821" lon="11.5565297"><ele>1558.5</ele><time>2026-04-25T09:59:19.455Z</time></trkpt><trkpt lat="45.9656791" lon="11.5564031"><ele>1558.25</ele><time>2026-04-25T09:59:20.454Z</time></trkpt><trkpt lat="45.9655908" lon="11.5562947"><ele>1558.0</ele><time>2026-04-25T09:59:21.438Z</time></trkpt><trkpt lat="45.9655086" lon="11.5561974"><ele>1558.0</ele><time>2026-04-25T09:59:22.456Z</time></trkpt><trkpt lat="45.9654368" lon="11.5560977"><ele>1558.0</ele><time>2026-04-25T09:59:23.454Z</time></trkpt><trkpt lat="45.9653782" lon="11.5559773"><ele>1558.0</ele><time>2026-04-25T09:59:24.455Z</time></trkpt><trkpt lat="45.9653199" lon="11.5558411"><ele>1558.0</ele><time>2026-04-25T09:59:25.455Z</time></trkpt><trkpt lat="45.9652559" lon="11.5557206"><ele>1558.0</ele><time>2026-04-25T09:59:26.457Z</time></trkpt><trkpt lat="45.965193" lon="11.5556303"><ele>1558.0</ele><time>2026-04-25T09:59:27.465Z</time></trkpt><trkpt lat="45.9650786" lon="11.5554989"><ele>1558.0</ele><time>2026-04-25T09:59:29.467Z</time></trkpt><trkpt lat="45.965006" lon="11.5554388"><ele>1558.0</ele><time>2026-04-25T09:59:30.451Z</time></trkpt><trkpt lat="45.9649196" lon="11.555386"><ele>1558.0</ele><time>2026-04-25T09:59:31.472Z</time></trkpt><trkpt lat="45.9648418" lon="11.5553483"><ele>1558.0</ele><time>2026-04-25T09:59:32.463Z</time></trkpt><trkpt lat="45.9647703" lon="11.5553295"><ele>1558.7142857142858</ele><time>2026-04-25T09:59:33.471Z</time></trkpt><trkpt lat="45.9647016" lon="11.5553037"><ele>1559.4285714285716</ele><time>2026-04-25T09:59:34.448Z</time></trkpt><trkpt lat="45.9646404" lon="11.555254"><ele>1560.1428571428573</ele><time>2026-04-25T09:59:35.464Z</time></trkpt><trkpt lat="45.9645842" lon="11.5551778"><ele>1560.857142857143</ele><time>2026-04-25T09:59:36.456Z</time></trkpt><trkpt lat="45.9645306" lon="11.5550977"><ele>1561.5714285714284</ele><time>2026-04-25T09:59:37.446Z</time></trkpt><trkpt lat="45.9644733" lon="11.5550297"><ele>1562.2857142857144</ele><time>2026-04-25T09:59:38.466Z</time></trkpt><trkpt lat="45.9644089" lon="11.5549894"><ele>1563.0</ele><time>2026-04-25T09:59:39.451Z</time></trkpt><trkpt lat="45.9643386" lon="11.5549866"><ele>1563.0</ele><time>2026-04-25T09:59:40.458Z</time></trkpt><trkpt lat="45.9642703" lon="11.5550195"><ele>1563.0</ele><time>2026-04-25T09:59:41.454Z</time></trkpt><trkpt lat="45.9642069" lon="11.5550742"><ele>1563.0</ele><time>2026-04-25T09:59:42.469Z</time></trkpt><trkpt lat="45.9641415" lon="11.5551443"><ele>1563.0</ele><time>2026-04-25T09:59:43.474Z</time></trkpt><trkpt lat="45.9640733" lon="11.555203"><ele>1563.0</ele><time>2026-04-25T09:59:44.475Z</time></trkpt><trkpt lat="45.9639957" lon="11.5552385"><ele>1563.0</ele><time>2026-04-25T09:59:45.45Z</time></trkpt><trkpt lat="45.963897" lon="11.5552646"><ele>1563.8000000000002</ele><time>2026-04-25T09:59:46.453Z</time></trkpt><trkpt lat="45.9637835" lon="11.5552894"><ele>1564.6</ele><time>2026-04-25T09:59:47.458Z</time></trkpt><trkpt lat="45.9636818" lon="11.5553171"><ele>1565.4</ele><time>2026-04-25T09:59:48.459Z</time></trkpt><trkpt lat="45.9635342" lon="11.5553311"><ele>1566.1999999999998</ele><time>2026-04-25T09:59:50.456Z</time></trkpt><trkpt lat="45.9634708" lon="11.5552985"><ele>1567.0</ele><time>2026-04-25T09:59:51.478Z</time></trkpt><trkpt lat="45.9634154" lon="11.5552401"><ele>1567.0000000000002</ele><time>2026-04-25T09:59:52.476Z</time></trkpt><trkpt lat="45.9633639" lon="11.5551678"><ele>1567.0</ele><time>2026-04-25T09:59:53.456Z</time></trkpt><trkpt lat="45.963304" lon="11.5550985"><ele>1567.0</ele><time>2026-04-25T09:59:54.462Z</time></trkpt><trkpt lat="45.9632317" lon="11.5550433"><ele>1567.0</ele><time>2026-04-25T09:59:55.468Z</time></trkpt><trkpt lat="45.963149" lon="11.5549917"><ele>1567.0000000000002</ele><time>2026-04-25T09:59:56.451Z</time></trkpt><trkpt lat="45.9630682" lon="11.5549299"><ele>1567.0</ele><time>2026-04-25T09:59:57.452Z</time></trkpt><trkpt lat="45.963" lon="11.5548538"><ele>1567.3333333333335</ele><time>2026-04-25T09:59:58.482Z</time></trkpt><trkpt lat="45.9629423" lon="11.554758"><ele>1567.6666666666667</ele><time>2026-04-25T09:59:59.452Z</time></trkpt><trkpt lat="45.9628898" lon="11.5546357"><ele>1568.0</ele><time>2026-04-25T10:00:00.469Z</time></trkpt><trkpt lat="45.9628489" lon="11.5545134"><ele>1568.3333333333335</ele><time>2026-04-25T10:00:01.461Z</time></trkpt><trkpt lat="45.9628143" lon="11.5544046"><ele>1568.6666666666667</ele><time>2026-04-25T10:00:02.456Z</time></trkpt><trkpt lat="45.9627801" lon="11.5543115"><ele>1569.0</ele><time>2026-04-25T10:00:03.456Z</time></trkpt><trkpt lat="45.9626794" lon="11.5541996"><ele>1570.2</ele><time>2026-04-25T10:00:05.458Z</time></trkpt><trkpt lat="45.9626172" lon="11.5541594"><ele>1571.4</ele><time>2026-04-25T10:00:06.452Z</time></trkpt><trkpt lat="45.9625497" lon="11.5541348"><ele>1572.6</ele><time>2026-04-25T10:00:07.461Z</time></trkpt><trkpt lat="45.9624707" lon="11.554132"><ele>1573.8</ele><time>2026-04-25T10:00:08.475Z</time></trkpt><trkpt lat="45.9623791" lon="11.5541442"><ele>1575.0</ele><time>2026-04-25T10:00:09.445Z</time></trkpt><trkpt lat="45.9622266" lon="11.5542"><ele>1575.0</ele><time>2026-04-25T10:00:13.457Z</time></trkpt><trkpt lat="45.9621609" lon="11.5542509"><ele>1575.0</ele><time>2026-04-25T10:00:27.466Z</time></trkpt><trkpt lat="45.9620829" lon="11.5542812"><ele>1575.0</ele><time>2026-04-25T10:00:31.468Z</time></trkpt><trkpt lat="45.9619233" lon="11.5543026"><ele>1575.0</ele><time>2026-04-25T10:00:41.473Z</time></trkpt><trkpt lat="45.9618553" lon="11.5543072"><ele>1575.0</ele><time>2026-04-25T10:00:44.449Z</time></trkpt><trkpt lat="45.9617876" lon="11.5543434"><ele>1575.0</ele><time>2026-04-25T10:00:46.45Z</time></trkpt><trkpt lat="45.9617171" lon="11.5543738"><ele>1575.0</ele><time>2026-04-25T10:00:48.45Z</time></trkpt><trkpt lat="45.9615908" lon="11.5543808"><ele>1575.0</ele><time>2026-04-25T10:00:50.474Z</time></trkpt><trkpt lat="45.961494" lon="11.5543986"><ele>1575.0</ele><time>2026-04-25T10:00:51.465Z</time></trkpt><trkpt lat="45.9614149" lon="11.5544175"><ele>1575.0</ele><time>2026-04-25T10:00:52.474Z</time></trkpt><trkpt lat="45.9612767" lon="11.5544596"><ele>1575.4</ele><time>2026-04-25T10:00:54.458Z</time></trkpt><trkpt lat="45.9611708" lon="11.5544825"><ele>1575.8</ele><time>2026-04-25T10:00:56.471Z</time></trkpt><trkpt lat="45.9610666" lon="11.5545093"><ele>1576.1999999999998</ele><time>2026-04-25T10:00:58.463Z</time></trkpt><trkpt lat="45.9609835" lon="11.554543"><ele>1576.6</ele><time>2026-04-25T10:01:00.452Z</time></trkpt><trkpt lat="45.9609169" lon="11.554587"><ele>1577.0</ele><time>2026-04-25T10:01:03.464Z</time></trkpt><trkpt lat="45.9608316" lon="11.5546322"><ele>1576.3333333333333</ele><time>2026-04-25T10:01:06.475Z</time></trkpt><trkpt lat="45.9607515" lon="11.5546802"><ele>1575.6666666666665</ele><time>2026-04-25T10:01:08.459Z</time></trkpt><trkpt lat="45.9606862" lon="11.5546957"><ele>1575.0</ele><time>2026-04-25T10:01:13.462Z</time></trkpt><trkpt lat="45.9605539" lon="11.5547616"><ele>1574.3333333333335</ele><time>2026-04-25T10:01:20.454Z</time></trkpt><trkpt lat="45.9604915" lon="11.5547913"><ele>1573.6666666666667</ele><time>2026-04-25T10:01:23.471Z</time></trkpt><trkpt lat="45.9604313" lon="11.5548262"><ele>1573.0</ele><time>2026-04-25T10:01:26.447Z</time></trkpt><trkpt lat="45.9603645" lon="11.5548629"><ele>1573.0</ele><time>2026-04-25T10:01:29.471Z</time></trkpt><trkpt lat="45.9602879" lon="11.5549207"><ele>1573.0</ele><time>2026-04-25T10:04:45.45Z</time></trkpt><trkpt lat="45.9601865" lon="11.5551287"><ele>1573.0</ele><time>2026-04-25T10:04:50.456Z</time></trkpt><trkpt lat="45.9601047" lon="11.5552187"><ele>1573.0</ele><time>2026-04-25T10:04:52.46Z</time></trkpt><trkpt lat="45.9600401" lon="11.5552482"><ele>1573.0</ele><time>2026-04-25T10:04:53.448Z</time></trkpt><trkpt lat="45.9599785" lon="11.5552827"><ele>1572.5000000000002</ele><time>2026-04-25T10:04:54.442Z</time></trkpt><trkpt lat="45.9599105" lon="11.5553202"><ele>1572.0</ele><time>2026-04-25T10:04:55.439Z</time></trkpt><trkpt lat="45.9598392" lon="11.5553613"><ele>1571.5</ele><time>2026-04-25T10:04:56.445Z</time></trkpt><trkpt lat="45.9597689" lon="11.5553941"><ele>1571.0</ele><time>2026-04-25T10:04:57.439Z</time></trkpt><trkpt lat="45.959707" lon="11.5554167"><ele>1570.5000000000002</ele><time>2026-04-25T10:04:58.442Z</time></trkpt><trkpt lat="45.9596063" lon="11.5554447"><ele>1570.0</ele><time>2026-04-25T10:05:00.489Z</time></trkpt><trkpt lat="45.9595198" lon="11.5554614"><ele>1570.0</ele><time>2026-04-25T10:05:02.456Z</time></trkpt><trkpt lat="45.959444" lon="11.5554821"><ele>1570.0</ele><time>2026-04-25T10:05:04.449Z</time></trkpt><trkpt lat="45.9593511" lon="11.5554997"><ele>1570.0</ele><time>2026-04-25T10:05:06.448Z</time></trkpt><trkpt lat="45.9591995" lon="11.5555335"><ele>1570.0</ele><time>2026-04-25T10:05:10.448Z</time></trkpt><trkpt lat="45.9591264" lon="11.5555405"><ele>1570.0</ele><time>2026-04-25T10:05:14.457Z</time></trkpt><trkpt lat="45.9590558" lon="11.5555073"><ele>1570.25</ele><time>2026-04-25T10:05:24.454Z</time></trkpt><trkpt lat="45.9589939" lon="11.555466"><ele>1570.5</ele><time>2026-04-25T10:05:27.454Z</time></trkpt><trkpt lat="45.9588494" lon="11.5553826"><ele>1570.75</ele><time>2026-04-25T10:06:07.449Z</time></trkpt><trkpt lat="45.9587183" lon="11.5553244"><ele>1571.0</ele><time>2026-04-25T10:06:28.445Z</time></trkpt><trkpt lat="45.9585972" lon="11.5553937"><ele>1571.0</ele><time>2026-04-25T10:06:41.45Z</time></trkpt><trkpt lat="45.9585387" lon="11.5554513"><ele>1571.0</ele><time>2026-04-25T10:06:44.453Z</time></trkpt><trkpt lat="45.9584789" lon="11.5555062"><ele>1571.0</ele><time>2026-04-25T10:06:46.444Z</time></trkpt><trkpt lat="45.9584132" lon="11.5555523"><ele>1571.0</ele><time>2026-04-25T10:06:48.442Z</time></trkpt><trkpt lat="45.9583395" lon="11.5555495"><ele>1571.0</ele><time>2026-04-25T10:07:21.453Z</time></trkpt><trkpt lat="45.9581705" lon="11.5555235"><ele>1572.1666666666665</ele><time>2026-04-25T10:07:28.452Z</time></trkpt><trkpt lat="45.9580817" lon="11.5555116"><ele>1573.3333333333333</ele><time>2026-04-25T10:07:32.448Z</time></trkpt><trkpt lat="45.9580082" lon="11.5554684"><ele>1574.5</ele><time>2026-04-25T10:07:35.449Z</time></trkpt><trkpt lat="45.9579692" lon="11.5553816"><ele>1575.6666666666665</ele><time>2026-04-25T10:07:37.457Z</time></trkpt><trkpt lat="45.9579436" lon="11.5552608"><ele>1576.8333333333333</ele><time>2026-04-25T10:07:39.449Z</time></trkpt><trkpt lat="45.9579323" lon="11.5551309"><ele>1578.0</ele><time>2026-04-25T10:07:41.462Z</time></trkpt><trkpt lat="45.957913" lon="11.5550211"><ele>1579.0</ele><time>2026-04-25T10:07:44.454Z</time></trkpt><trkpt lat="45.9578252" lon="11.5548593"><ele>1580.0</ele><time>2026-04-25T10:07:52.469Z</time></trkpt><trkpt lat="45.9577484" lon="11.5548203"><ele>1581.0</ele><time>2026-04-25T10:07:56.452Z</time></trkpt><trkpt lat="45.9576537" lon="11.5548129"><ele>1582.0</ele><time>2026-04-25T10:07:59.442Z</time></trkpt><trkpt lat="45.9575813" lon="11.5548401"><ele>1583.0</ele><time>2026-04-25T10:08:02.455Z</time></trkpt><trkpt lat="45.9574634" lon="11.554876"><ele>1583.0</ele><time>2026-04-25T10:12:49.448Z</time></trkpt><trkpt lat="45.9572875" lon="11.5549778"><ele>1583.0</ele><time>2026-04-25T10:12:51.443Z</time></trkpt><trkpt lat="45.9572126" lon="11.5549881"><ele>1583.0</ele><time>2026-04-25T10:12:52.459Z</time></trkpt><trkpt lat="45.9571516" lon="11.5549644"><ele>1583.0</ele><time>2026-04-25T10:12:53.445Z</time></trkpt><trkpt lat="45.9570808" lon="11.5548568"><ele>1583.0</ele><time>2026-04-25T10:12:55.45Z</time></trkpt><trkpt lat="45.957077" lon="11.5547563"><ele>1582.9999999999998</ele><time>2026-04-25T10:12:56.443Z</time></trkpt><trkpt lat="45.957085" lon="11.5546647"><ele>1583.0</ele><time>2026-04-25T10:12:57.457Z</time></trkpt><trkpt lat="45.9571173" lon="11.5545301"><ele>1583.0</ele><time>2026-04-25T10:12:59.445Z</time></trkpt><trkpt lat="45.9571418" lon="11.5544398"><ele>1583.0</ele><time>2026-04-25T10:13:01.453Z</time></trkpt><trkpt lat="45.9571678" lon="11.5543542"><ele>1582.9999999999998</ele><time>2026-04-25T10:13:42.449Z</time></trkpt><trkpt lat="45.9571335" lon="11.5541528"><ele>1583.0</ele><time>2026-04-25T10:13:48.441Z</time></trkpt><trkpt lat="45.9571004" lon="11.554059"><ele>1583.8000000000002</ele><time>2026-04-25T10:14:05.452Z</time></trkpt><trkpt lat="45.9569919" lon="11.5539145"><ele>1584.6</ele><time>2026-04-25T10:14:13.443Z</time></trkpt><trkpt lat="45.9569474" lon="11.5538244"><ele>1585.4</ele><time>2026-04-25T10:14:16.449Z</time></trkpt><trkpt lat="45.9569229" lon="11.5537249"><ele>1586.1999999999998</ele><time>2026-04-25T10:14:18.447Z</time></trkpt><trkpt lat="45.9568791" lon="11.5535991"><ele>1587.0</ele><time>2026-04-25T10:14:20.44Z</time></trkpt><trkpt lat="45.9567739" lon="11.5534916"><ele>1586.6</ele><time>2026-04-25T10:14:22.446Z</time></trkpt><trkpt lat="45.9567099" lon="11.5534519"><ele>1586.1999999999998</ele><time>2026-04-25T10:14:23.449Z</time></trkpt><trkpt lat="45.9566525" lon="11.5534027"><ele>1585.8</ele><time>2026-04-25T10:14:24.44Z</time></trkpt><trkpt lat="45.9566061" lon="11.5533368"><ele>1585.4</ele><time>2026-04-25T10:14:25.445Z</time></trkpt><trkpt lat="45.9565536" lon="11.5531774"><ele>1585.0</ele><time>2026-04-25T10:14:27.463Z</time></trkpt><trkpt lat="45.9565053" lon="11.5530029"><ele>1586.5000000000002</ele><time>2026-04-25T10:14:29.434Z</time></trkpt><trkpt lat="45.9564495" lon="11.5528334"><ele>1588.0</ele><time>2026-04-25T10:14:31.444Z</time></trkpt><trkpt lat="45.9564176" lon="11.5527319"><ele>1589.5</ele><time>2026-04-25T10:14:32.449Z</time></trkpt><trkpt lat="45.9563923" lon="11.5526265"><ele>1591.0</ele><time>2026-04-25T10:14:33.459Z</time></trkpt><trkpt lat="45.9563781" lon="11.5525367"><ele>1592.5000000000002</ele><time>2026-04-25T10:14:34.443Z</time></trkpt><trkpt lat="45.9563721" lon="11.5523947"><ele>1594.0</ele><time>2026-04-25T10:14:36.455Z</time></trkpt><trkpt lat="45.9563868" lon="11.5523011"><ele>1594.0</ele><time>2026-04-25T10:14:38.449Z</time></trkpt><trkpt lat="45.9563946" lon="11.5521847"><ele>1594.0</ele><time>2026-04-25T10:14:48.449Z</time></trkpt><trkpt lat="45.9564236" lon="11.5519314"><ele>1594.0</ele><time>2026-04-25T10:14:54.462Z</time></trkpt><trkpt lat="45.9564251" lon="11.5518334"><ele>1594.0</ele><time>2026-04-25T10:14:57.448Z</time></trkpt><trkpt lat="45.9564342" lon="11.5517346"><ele>1594.0</ele><time>2026-04-25T10:14:59.462Z</time></trkpt><trkpt lat="45.9564237" lon="11.5515649"><ele>1594.142857142857</ele><time>2026-04-25T10:15:01.463Z</time></trkpt><trkpt lat="45.9563981" lon="11.5514754"><ele>1594.2857142857144</ele><time>2026-04-25T10:15:02.46Z</time></trkpt><trkpt lat="45.9563627" lon="11.5513833"><ele>1594.4285714285716</ele><time>2026-04-25T10:15:03.448Z</time></trkpt><trkpt lat="45.9563143" lon="11.5513177"><ele>1594.5714285714284</ele><time>2026-04-25T10:15:04.459Z</time></trkpt><trkpt lat="45.9562535" lon="11.5512783"><ele>1594.7142857142858</ele><time>2026-04-25T10:15:05.471Z</time></trkpt><trkpt lat="45.9561929" lon="11.5512415"><ele>1594.857142857143</ele><time>2026-04-25T10:15:06.465Z</time></trkpt><trkpt lat="45.9561223" lon="11.5512384"><ele>1595.0</ele><time>2026-04-25T10:15:07.46Z</time></trkpt><trkpt lat="45.9560048" lon="11.5512376"><ele>1597.0</ele><time>2026-04-25T10:15:09.461Z</time></trkpt><trkpt lat="45.9557579" lon="11.551245"><ele>1599.0</ele><time>2026-04-25T10:15:13.45Z</time></trkpt><trkpt lat="45.9556569" lon="11.551236"><ele>1601.0</ele><time>2026-04-25T10:15:15.449Z</time></trkpt><trkpt lat="45.9555819" lon="11.5512132"><ele>1603.0</ele><time>2026-04-25T10:15:17.451Z</time></trkpt><trkpt lat="45.9555255" lon="11.5511671"><ele>1603.0</ele><time>2026-04-25T10:17:46.465Z</time></trkpt><trkpt lat="45.955382" lon="11.5511348"><ele>1603.0</ele><time>2026-04-25T10:18:09.444Z</time></trkpt><trkpt lat="45.9552384" lon="11.5512013"><ele>1603.0</ele><time>2026-04-25T10:18:21.451Z</time></trkpt><trkpt lat="45.955187" lon="11.5512684"><ele>1603.0</ele><time>2026-04-25T10:18:24.464Z</time></trkpt><trkpt lat="45.9551509" lon="11.5513494"><ele>1603.0</ele><time>2026-04-25T10:18:27.446Z</time></trkpt><trkpt lat="45.9551281" lon="11.5514449"><ele>1599.4</ele><time>2026-04-25T10:18:30.458Z</time></trkpt><trkpt lat="45.9551083" lon="11.5516568"><ele>1595.8000000000002</ele><time>2026-04-25T10:18:36.44Z</time></trkpt><trkpt lat="45.9551126" lon="11.5517489"><ele>1592.2</ele><time>2026-04-25T10:18:39.464Z</time></trkpt><trkpt lat="45.9551229" lon="11.5518426"><ele>1588.6</ele><time>2026-04-25T10:18:43.451Z</time></trkpt><trkpt lat="45.9551437" lon="11.5519502"><ele>1585.0</ele><time>2026-04-25T10:19:09.446Z</time></trkpt><trkpt lat="45.9551535" lon="11.5521518"><ele>1584.2</ele><time>2026-04-25T10:19:16.448Z</time></trkpt><trkpt lat="45.9551376" lon="11.5522484"><ele>1583.4</ele><time>2026-04-25T10:19:19.451Z</time></trkpt><trkpt lat="45.9551346" lon="11.552369"><ele>1582.6</ele><time>2026-04-25T10:19:23.447Z</time></trkpt><trkpt lat="45.9551409" lon="11.5524806"><ele>1581.8</ele><time>2026-04-25T10:19:27.453Z</time></trkpt><trkpt lat="45.9551316" lon="11.5525798"><ele>1581.0</ele><time>2026-04-25T10:19:31.449Z</time></trkpt><trkpt lat="45.9551054" lon="11.5527963"><ele>1579.8</ele><time>2026-04-25T10:19:56.455Z</time></trkpt><trkpt lat="45.9550712" lon="11.5530067"><ele>1578.6</ele><time>2026-04-25T10:20:07.451Z</time></trkpt><trkpt lat="45.9550187" lon="11.5531044"><ele>1577.4</ele><time>2026-04-25T10:20:10.447Z</time></trkpt><trkpt lat="45.9549764" lon="11.5531803"><ele>1576.2</ele><time>2026-04-25T10:20:11.438Z</time></trkpt><trkpt lat="45.9549139" lon="11.5532648"><ele>1575.0</ele><time>2026-04-25T10:20:13.441Z</time></trkpt><trkpt lat="45.9548558" lon="11.5533117"><ele>1577.6666666666667</ele><time>2026-04-25T10:20:16.445Z</time></trkpt><trkpt lat="45.9547969" lon="11.5533509"><ele>1580.3333333333335</ele><time>2026-04-25T10:20:19.443Z</time></trkpt><trkpt lat="45.9546909" lon="11.5535206"><ele>1583.0</ele><time>2026-04-25T10:20:26.44Z</time></trkpt><trkpt lat="45.954666" lon="11.5536077"><ele>1585.6666666666667</ele><time>2026-04-25T10:20:29.453Z</time></trkpt><trkpt lat="45.9546444" lon="11.5537047"><ele>1588.3333333333335</ele><time>2026-04-25T10:20:32.45Z</time></trkpt><trkpt lat="45.9546079" lon="11.5538151"><ele>1591.0</ele><time>2026-04-25T10:20:35.444Z</time></trkpt><trkpt lat="45.9545748" lon="11.5539138"><ele>1591.0</ele><time>2026-04-25T10:20:37.444Z</time></trkpt><trkpt lat="45.9545162" lon="11.5539757"><ele>1591.0</ele><time>2026-04-25T10:20:39.447Z</time></trkpt><trkpt lat="45.9544455" lon="11.5540216"><ele>1591.0</ele><time>2026-04-25T10:20:40.449Z</time></trkpt><trkpt lat="45.9542561" lon="11.5541588"><ele>1591.0</ele><time>2026-04-25T10:20:42.454Z</time></trkpt><trkpt lat="45.9541795" lon="11.5542197"><ele>1591.3333333333335</ele><time>2026-04-25T10:20:43.458Z</time></trkpt><trkpt lat="45.9541148" lon="11.5543153"><ele>1591.6666666666667</ele><time>2026-04-25T10:20:45.457Z</time></trkpt><trkpt lat="45.9540661" lon="11.5544093"><ele>1592.0</ele><time>2026-04-25T10:20:48.451Z</time></trkpt><trkpt lat="45.9540295" lon="11.5544882"><ele>1592.3333333333335</ele><time>2026-04-25T10:20:50.45Z</time></trkpt><trkpt lat="45.95398" lon="11.5545678"><ele>1592.6666666666667</ele><time>2026-04-25T10:20:52.443Z</time></trkpt><trkpt lat="45.9539118" lon="11.5546203"><ele>1593.0</ele><time>2026-04-25T10:20:55.451Z</time></trkpt><trkpt lat="45.9538463" lon="11.5546466"><ele>1593.0</ele><time>2026-04-25T10:22:22.459Z</time></trkpt><trkpt lat="45.9536525" lon="11.5547329"><ele>1593.0</ele><time>2026-04-25T10:22:25.459Z</time></trkpt><trkpt lat="45.9535938" lon="11.5548548"><ele>1593.0</ele><time>2026-04-25T10:22:27.445Z</time></trkpt><trkpt lat="45.9535814" lon="11.5549453"><ele>1593.0</ele><time>2026-04-25T10:22:29.443Z</time></trkpt><trkpt lat="45.95357" lon="11.5550522"><ele>1593.0</ele><time>2026-04-25T10:22:32.447Z</time></trkpt><trkpt lat="45.9535672" lon="11.5551497"><ele>1593.0</ele><time>2026-04-25T10:22:39.451Z</time></trkpt><trkpt lat="45.9535443" lon="11.5552536"><ele>1593.0</ele><time>2026-04-25T10:22:44.454Z</time></trkpt><trkpt lat="45.953443" lon="11.5553748"><ele>1593.0</ele><time>2026-04-25T10:22:48.453Z</time></trkpt><trkpt lat="45.9533779" lon="11.5553574"><ele>1593.0</ele><time>2026-04-25T10:22:50.45Z</time></trkpt><trkpt lat="45.9532986" lon="11.5553797"><ele>1593.0</ele><time>2026-04-25T10:22:53.443Z</time></trkpt><trkpt lat="45.9532124" lon="11.5553888"><ele>1593.0</ele><time>2026-04-25T10:22:56.451Z</time></trkpt><trkpt lat="45.9531315" lon="11.5554009"><ele>1593.0</ele><time>2026-04-25T10:22:58.44Z</time></trkpt><trkpt lat="45.9529883" lon="11.5553926"><ele>1593.0</ele><time>2026-04-25T10:23:00.44Z</time></trkpt><trkpt lat="45.9529053" lon="11.5553842"><ele>1593.0</ele><time>2026-04-25T10:23:01.45Z</time></trkpt><trkpt lat="45.9528163" lon="11.5553765"><ele>1593.0</ele><time>2026-04-25T10:23:02.455Z</time></trkpt><trkpt lat="45.9527329" lon="11.5553734"><ele>1593.0</ele><time>2026-04-25T10:23:03.444Z</time></trkpt><trkpt lat="45.9526634" lon="11.5553824"><ele>1593.0</ele><time>2026-04-25T10:23:04.445Z</time></trkpt><trkpt lat="45.9525536" lon="11.5553936"><ele>1593.0</ele><time>2026-04-25T10:23:06.447Z</time></trkpt><trkpt lat="45.9523868" lon="11.5553997"><ele>1593.0</ele><time>2026-04-25T10:27:25.447Z</time></trkpt><trkpt lat="45.9522655" lon="11.5553324"><ele>1593.0</ele><time>2026-04-25T10:27:35.45Z</time></trkpt><trkpt lat="45.9522042" lon="11.555283"><ele>1594.5</ele><time>2026-04-25T10:27:38.447Z</time></trkpt><trkpt lat="45.9521377" lon="11.5552167"><ele>1596.0</ele><time>2026-04-25T10:27:42.465Z</time></trkpt><trkpt lat="45.9520864" lon="11.5551533"><ele>1597.5</ele><time>2026-04-25T10:27:45.447Z</time></trkpt><trkpt lat="45.95203" lon="11.5550998"><ele>1599.0</ele><time>2026-04-25T10:27:48.45Z</time></trkpt><trkpt lat="45.9519162" lon="11.5549731"><ele>1600.5</ele><time>2026-04-25T10:27:55.453Z</time></trkpt><trkpt lat="45.9518557" lon="11.5549158"><ele>1602.0</ele><time>2026-04-25T10:27:59.452Z</time></trkpt><trkpt lat="45.9517983" lon="11.5548612"><ele>1602.0</ele><time>2026-04-25T10:28:02.448Z</time></trkpt><trkpt lat="45.9517309" lon="11.5548029"><ele>1602.0</ele><time>2026-04-25T10:28:05.458Z</time></trkpt><trkpt lat="45.951649" lon="11.5547214"><ele>1602.0</ele><time>2026-04-25T10:28:08.45Z</time></trkpt><trkpt lat="45.9515726" lon="11.5546562"><ele>1602.0</ele><time>2026-04-25T10:28:10.447Z</time></trkpt><trkpt lat="45.9513936" lon="11.554564"><ele>1603.0</ele><time>2026-04-25T10:28:14.448Z</time></trkpt><trkpt lat="45.9513121" lon="11.5545341"><ele>1604.0</ele><time>2026-04-25T10:28:16.441Z</time></trkpt><trkpt lat="45.9512343" lon="11.5545019"><ele>1605.0</ele><time>2026-04-25T10:28:18.446Z</time></trkpt><trkpt lat="45.9511563" lon="11.554497"><ele>1606.0</ele><time>2026-04-25T10:28:20.443Z</time></trkpt><trkpt lat="45.9510854" lon="11.5544828"><ele>1607.0</ele><time>2026-04-25T10:28:22.443Z</time></trkpt><trkpt lat="45.9510108" lon="11.5544739"><ele>1608.0</ele><time>2026-04-25T10:28:24.449Z</time></trkpt><trkpt lat="45.9508995" lon="11.5544702"><ele>1607.6666666666667</ele><time>2026-04-25T10:28:26.449Z</time></trkpt><trkpt lat="45.9508307" lon="11.5544647"><ele>1607.3333333333335</ele><time>2026-04-25T10:28:27.45Z</time></trkpt><trkpt lat="45.9507509" lon="11.5544459"><ele>1607.0</ele><time>2026-04-25T10:28:28.443Z</time></trkpt><trkpt lat="45.9506664" lon="11.5544185"><ele>1606.6666666666667</ele><time>2026-04-25T10:28:29.449Z</time></trkpt><trkpt lat="45.9505819" lon="11.5543893"><ele>1606.3333333333335</ele><time>2026-04-25T10:28:30.446Z</time></trkpt><trkpt lat="45.9504921" lon="11.5543556"><ele>1606.0</ele><time>2026-04-25T10:28:31.449Z</time></trkpt><trkpt lat="45.9502999" lon="11.5542888"><ele>1606.0</ele><time>2026-04-25T10:28:33.449Z</time></trkpt><trkpt lat="45.9501996" lon="11.5542702"><ele>1606.0</ele><time>2026-04-25T10:28:34.441Z</time></trkpt><trkpt lat="45.9500989" lon="11.5542562"><ele>1606.0</ele><time>2026-04-25T10:28:35.446Z</time></trkpt><trkpt lat="45.9499971" lon="11.5542472"><ele>1606.0</ele><time>2026-04-25T10:28:36.454Z</time></trkpt><trkpt lat="45.9498918" lon="11.5542446"><ele>1606.0</ele><time>2026-04-25T10:28:37.459Z</time></trkpt><trkpt lat="45.9497914" lon="11.5542459"><ele>1607.0</ele><time>2026-04-25T10:28:38.443Z</time></trkpt><trkpt lat="45.9496945" lon="11.5542435"><ele>1608.0</ele><time>2026-04-25T10:28:39.453Z</time></trkpt><trkpt lat="45.9495989" lon="11.5542268"><ele>1609.0</ele><time>2026-04-25T10:28:40.445Z</time></trkpt><trkpt lat="45.9495014" lon="11.5542052"><ele>1610.0</ele><time>2026-04-25T10:28:41.449Z</time></trkpt><trkpt lat="45.949403" lon="11.5541815"><ele>1611.0</ele><time>2026-04-25T10:28:42.45Z</time></trkpt><trkpt lat="45.9493025" lon="11.5541546"><ele>1611.25</ele><time>2026-04-25T10:28:43.448Z</time></trkpt><trkpt lat="45.9491937" lon="11.5541313"><ele>1611.5</ele><time>2026-04-25T10:28:44.447Z</time></trkpt><trkpt lat="45.9490857" lon="11.5541082"><ele>1611.75</ele><time>2026-04-25T10:28:45.442Z</time></trkpt><trkpt lat="45.9489722" lon="11.5540687"><ele>1612.0</ele><time>2026-04-25T10:28:46.453Z</time></trkpt><trkpt lat="45.9488558" lon="11.5540218"><ele>1612.0</ele><time>2026-04-25T10:28:47.451Z</time></trkpt><trkpt lat="45.9487482" lon="11.5539757"><ele>1612.0</ele><time>2026-04-25T10:28:48.451Z</time></trkpt><trkpt lat="45.9486519" lon="11.5539335"><ele>1612.0</ele><time>2026-04-25T10:28:49.445Z</time></trkpt><trkpt lat="45.9485613" lon="11.5538975"><ele>1612.0</ele><time>2026-04-25T10:28:50.449Z</time></trkpt><trkpt lat="45.9484853" lon="11.553864"><ele>1612.0</ele><time>2026-04-25T10:28:51.445Z</time></trkpt><trkpt lat="45.9484173" lon="11.5538314"><ele>1611.6</ele><time>2026-04-25T10:28:52.449Z</time></trkpt><trkpt lat="45.9482552" lon="11.553791"><ele>1611.1999999999998</ele><time>2026-04-25T10:28:56.441Z</time></trkpt><trkpt lat="45.9481894" lon="11.5537757"><ele>1610.8</ele><time>2026-04-25T10:28:58.446Z</time></trkpt><trkpt lat="45.9481081" lon="11.5537687"><ele>1610.4</ele><time>2026-04-25T10:29:01.451Z</time></trkpt><trkpt lat="45.9480207" lon="11.5537706"><ele>1610.0</ele><time>2026-04-25T10:29:04.449Z</time></trkpt><trkpt lat="45.9479118" lon="11.5537831"><ele>1610.0</ele><time>2026-04-25T10:29:06.444Z</time></trkpt><trkpt lat="45.9478149" lon="11.5538208"><ele>1610.0</ele><time>2026-04-25T10:29:08.448Z</time></trkpt><trkpt lat="45.9477399" lon="11.5538599"><ele>1610.0</ele><time>2026-04-25T10:29:10.446Z</time></trkpt><trkpt lat="45.9476576" lon="11.5539375"><ele>1610.0</ele><time>2026-04-25T10:29:12.46Z</time></trkpt><trkpt lat="45.9475799" lon="11.5540344"><ele>1610.0</ele><time>2026-04-25T10:29:14.445Z</time></trkpt><trkpt lat="45.947469" lon="11.5542295"><ele>1610.0</ele><time>2026-04-25T10:29:18.449Z</time></trkpt><trkpt lat="45.9474311" lon="11.5543342"><ele>1610.0</ele><time>2026-04-25T10:29:21.446Z</time></trkpt><trkpt lat="45.9473872" lon="11.5544209"><ele>1610.0</ele><time>2026-04-25T10:29:39.443Z</time></trkpt><trkpt lat="45.9472612" lon="11.5545564"><ele>1610.0</ele><time>2026-04-25T10:29:46.447Z</time></trkpt><trkpt lat="45.9471796" lon="11.5546366"><ele>1610.0</ele><time>2026-04-25T10:29:48.448Z</time></trkpt><trkpt lat="45.9470923" lon="11.5547346"><ele>1609.9999999999998</ele><time>2026-04-25T10:29:50.448Z</time></trkpt><trkpt lat="45.947042" lon="11.5547919"><ele>1610.0</ele><time>2026-04-25T10:29:51.448Z</time></trkpt><trkpt lat="45.9469887" lon="11.5548551"><ele>1610.0</ele><time>2026-04-25T10:29:52.455Z</time></trkpt><trkpt lat="45.9469286" lon="11.5549246"><ele>1610.0</ele><time>2026-04-25T10:29:53.439Z</time></trkpt><trkpt lat="45.9468571" lon="11.554976"><ele>1609.9999999999998</ele><time>2026-04-25T10:29:54.452Z</time></trkpt><trkpt lat="45.9467774" lon="11.5549996"><ele>1610.0</ele><time>2026-04-25T10:29:55.47Z</time></trkpt><trkpt lat="45.9466949" lon="11.5549879"><ele>1610.6</ele><time>2026-04-25T10:29:56.467Z</time></trkpt><trkpt lat="45.9466213" lon="11.5549364"><ele>1611.2</ele><time>2026-04-25T10:29:57.456Z</time></trkpt><trkpt lat="45.9465475" lon="11.5548837"><ele>1611.8000000000002</ele><time>2026-04-25T10:29:58.468Z</time></trkpt><trkpt lat="45.946517" lon="11.5547676"><ele>1612.4</ele><time>2026-04-25T10:29:59.465Z</time></trkpt><trkpt lat="45.9465055" lon="11.5546274"><ele>1613.0</ele><time>2026-04-25T10:30:00.468Z</time></trkpt><trkpt lat="45.9465068" lon="11.5542896"><ele>1613.0</ele><time>2026-04-25T10:30:02.464Z</time></trkpt><trkpt lat="45.9465164" lon="11.5541243"><ele>1613.0</ele><time>2026-04-25T10:30:03.461Z</time></trkpt><trkpt lat="45.9465361" lon="11.5539786"><ele>1613.0</ele><time>2026-04-25T10:30:04.459Z</time></trkpt><trkpt lat="45.9465652" lon="11.5538532"><ele>1613.0</ele><time>2026-04-25T10:30:05.446Z</time></trkpt><trkpt lat="45.9465942" lon="11.5537326"><ele>1613.0</ele><time>2026-04-25T10:30:06.441Z</time></trkpt><trkpt lat="45.9466442" lon="11.553636"><ele>1612.6666666666665</ele><time>2026-04-25T10:30:07.451Z</time></trkpt><trkpt lat="45.9466941" lon="11.5535396"><ele>1612.3333333333333</ele><time>2026-04-25T10:30:08.446Z</time></trkpt><trkpt lat="45.9467396" lon="11.5534467"><ele>1612.0</ele><time>2026-04-25T10:30:09.454Z</time></trkpt><trkpt lat="45.9467723" lon="11.5533554"><ele>1611.6666666666665</ele><time>2026-04-25T10:30:10.441Z</time></trkpt><trkpt lat="45.9467793" lon="11.5532154"><ele>1611.3333333333333</ele><time>2026-04-25T10:30:12.471Z</time></trkpt><trkpt lat="45.9467267" lon="11.5531501"><ele>1611.0</ele><time>2026-04-25T10:30:14.45Z</time></trkpt><trkpt lat="45.9466535" lon="11.5532681"><ele>1611.0</ele><time>2026-04-25T10:30:16.461Z</time></trkpt><trkpt lat="45.9466105" lon="11.5533608"><ele>1611.0</ele><time>2026-04-25T10:30:17.451Z</time></trkpt><trkpt lat="45.9465558" lon="11.553459"><ele>1611.0</ele><time>2026-04-25T10:30:18.461Z</time></trkpt><trkpt lat="45.9464905" lon="11.5535603"><ele>1611.0</ele><time>2026-04-25T10:30:19.44Z</time></trkpt><trkpt lat="45.946416" lon="11.5536597"><ele>1611.0</ele><time>2026-04-25T10:30:20.461Z</time></trkpt><trkpt lat="45.946339" lon="11.5537657"><ele>1611.6666666666665</ele><time>2026-04-25T10:30:21.446Z</time></trkpt><trkpt lat="45.9461652" lon="11.5539913"><ele>1612.3333333333333</ele><time>2026-04-25T10:30:23.434Z</time></trkpt><trkpt lat="45.9460706" lon="11.5541041"><ele>1613.0</ele><time>2026-04-25T10:30:24.441Z</time></trkpt><trkpt lat="45.9459757" lon="11.5542158"><ele>1611.0</ele><time>2026-04-25T10:30:25.453Z</time></trkpt><trkpt lat="45.94587" lon="11.554283"><ele>1609.0</ele><time>2026-04-25T10:30:26.453Z</time></trkpt><trkpt lat="45.9457645" lon="11.5543314"><ele>1607.0</ele><time>2026-04-25T10:30:27.452Z</time></trkpt><trkpt lat="45.9456579" lon="11.5543611"><ele>1605.0</ele><time>2026-04-25T10:30:28.446Z</time></trkpt><trkpt lat="45.9455554" lon="11.554369"><ele>1603.0</ele><time>2026-04-25T10:30:29.444Z</time></trkpt><trkpt lat="45.945464" lon="11.5543603"><ele>1603.0</ele><time>2026-04-25T10:30:30.436Z</time></trkpt><trkpt lat="45.9453842" lon="11.5543356"><ele>1603.0</ele><time>2026-04-25T10:30:31.442Z</time></trkpt><trkpt lat="45.9453161" lon="11.5542887"><ele>1603.0</ele><time>2026-04-25T10:30:32.446Z</time></trkpt><trkpt lat="45.9452675" lon="11.5542194"><ele>1603.0</ele><time>2026-04-25T10:30:33.452Z</time></trkpt><trkpt lat="45.9452476" lon="11.5541305"><ele>1603.0</ele><time>2026-04-25T10:30:34.444Z</time></trkpt><trkpt lat="45.9452521" lon="11.5540283"><ele>1603.0</ele><time>2026-04-25T10:30:35.436Z</time></trkpt><trkpt lat="45.9452745" lon="11.5539152"><ele>1603.0</ele><time>2026-04-25T10:30:36.443Z</time></trkpt><trkpt lat="45.9453015" lon="11.5537919"><ele>1601.2</ele><time>2026-04-25T10:30:37.456Z</time></trkpt><trkpt lat="45.9453243" lon="11.5536599"><ele>1599.4</ele><time>2026-04-25T10:30:38.451Z</time></trkpt><trkpt lat="45.9453377" lon="11.5535208"><ele>1597.6000000000001</ele><time>2026-04-25T10:30:39.444Z</time></trkpt><trkpt lat="45.9453452" lon="11.5533794"><ele>1595.8000000000002</ele><time>2026-04-25T10:30:40.448Z</time></trkpt><trkpt lat="45.9453429" lon="11.5532388"><ele>1594.0</ele><time>2026-04-25T10:30:41.443Z</time></trkpt><trkpt lat="45.9453284" lon="11.5530994"><ele>1595.5</ele><time>2026-04-25T10:30:42.44Z</time></trkpt><trkpt lat="45.9452754" lon="11.5528335"><ele>1597.0</ele><time>2026-04-25T10:30:44.44Z</time></trkpt><trkpt lat="45.9452439" lon="11.5527068"><ele>1598.5</ele><time>2026-04-25T10:30:45.444Z</time></trkpt><trkpt lat="45.9452099" lon="11.5525901"><ele>1600.0</ele><time>2026-04-25T10:30:46.454Z</time></trkpt><trkpt lat="45.9451772" lon="11.5524779"><ele>1600.0000000000002</ele><time>2026-04-25T10:30:47.45Z</time></trkpt><trkpt lat="45.9451572" lon="11.5523673"><ele>1600.0</ele><time>2026-04-25T10:30:48.439Z</time></trkpt><trkpt lat="45.9451455" lon="11.5522567"><ele>1600.0</ele><time>2026-04-25T10:30:49.451Z</time></trkpt><trkpt lat="45.9451314" lon="11.5521533"><ele>1600.0</ele><time>2026-04-25T10:30:50.446Z</time></trkpt><trkpt lat="45.9450572" lon="11.5520452"><ele>1600.0000000000002</ele><time>2026-04-25T10:30:52.444Z</time></trkpt><trkpt lat="45.944981" lon="11.5521311"><ele>1600.0</ele><time>2026-04-25T10:30:54.447Z</time></trkpt><trkpt lat="45.9449634" lon="11.5522347"><ele>1597.0</ele><time>2026-04-25T10:30:55.445Z</time></trkpt><trkpt lat="45.9449518" lon="11.5523661"><ele>1594.0</ele><time>2026-04-25T10:30:56.447Z</time></trkpt><trkpt lat="45.9449226" lon="11.5525122"><ele>1591.0</ele><time>2026-04-25T10:30:57.444Z</time></trkpt><trkpt lat="45.944874" lon="11.5526642"><ele>1588.0</ele><time>2026-04-25T10:30:58.453Z</time></trkpt><trkpt lat="45.9448178" lon="11.5528379"><ele>1585.0</ele><time>2026-04-25T10:30:59.453Z</time></trkpt><trkpt lat="45.9447206" lon="11.5530261"><ele>1585.0</ele><time>2026-04-25T10:31:00.439Z</time></trkpt><trkpt lat="45.9446126" lon="11.5531855"><ele>1585.0</ele><time>2026-04-25T10:31:01.447Z</time></trkpt><trkpt lat="45.9445012" lon="11.5533287"><ele>1585.0</ele><time>2026-04-25T10:31:02.453Z</time></trkpt><trkpt lat="45.944392" lon="11.553465"><ele>1585.0</ele><time>2026-04-25T10:31:03.453Z</time></trkpt><trkpt lat="45.9441953" lon="11.5537277"><ele>1583.2</ele><time>2026-04-25T10:31:05.445Z</time></trkpt><trkpt lat="45.9441142" lon="11.5538474"><ele>1581.4</ele><time>2026-04-25T10:31:06.439Z</time></trkpt><trkpt lat="45.9440469" lon="11.5539612"><ele>1579.6</ele><time>2026-04-25T10:31:07.454Z</time></trkpt><trkpt lat="45.9439929" lon="11.5540723"><ele>1577.8</ele><time>2026-04-25T10:31:08.447Z</time></trkpt><trkpt lat="45.9439504" lon="11.5541848"><ele>1576.0</ele><time>2026-04-25T10:31:09.445Z</time></trkpt><trkpt lat="45.9439165" lon="11.55429"><ele>1576.0</ele><time>2026-04-25T10:31:10.445Z</time></trkpt><trkpt lat="45.9438869" lon="11.5543842"><ele>1576.0</ele><time>2026-04-25T10:31:11.446Z</time></trkpt><trkpt lat="45.9438601" lon="11.5544704"><ele>1576.0</ele><time>2026-04-25T10:31:12.454Z</time></trkpt><trkpt lat="45.9438021" lon="11.5546059"><ele>1576.0</ele><time>2026-04-25T10:31:14.454Z</time></trkpt><trkpt lat="45.9437121" lon="11.5546851"><ele>1576.0</ele><time>2026-04-25T10:31:16.448Z</time></trkpt><trkpt lat="45.9436001" lon="11.5546316"><ele>1576.0</ele><time>2026-04-25T10:31:18.447Z</time></trkpt><trkpt lat="45.9435681" lon="11.5545405"><ele>1576.0</ele><time>2026-04-25T10:31:19.462Z</time></trkpt><trkpt lat="45.9435428" lon="11.554419"><ele>1576.0</ele><time>2026-04-25T10:31:20.438Z</time></trkpt><trkpt lat="45.9435149" lon="11.5542759"><ele>1576.0</ele><time>2026-04-25T10:31:21.442Z</time></trkpt><trkpt lat="45.943479" lon="11.5541129"><ele>1576.0</ele><time>2026-04-25T10:31:22.447Z</time></trkpt><trkpt lat="45.943439" lon="11.5539458"><ele>1576.0</ele><time>2026-04-25T10:31:23.444Z</time></trkpt><trkpt lat="45.9433956" lon="11.5537751"><ele>1576.0</ele><time>2026-04-25T10:31:24.455Z</time></trkpt><trkpt lat="45.9432838" lon="11.553471"><ele>1576.0</ele><time>2026-04-25T10:31:26.449Z</time></trkpt><trkpt lat="45.9432001" lon="11.5533675"><ele>1571.25</ele><time>2026-04-25T10:31:27.452Z</time></trkpt><trkpt lat="45.9430944" lon="11.5532989"><ele>1566.5</ele><time>2026-04-25T10:31:28.456Z</time></trkpt><trkpt lat="45.9429677" lon="11.5532578"><ele>1561.75</ele><time>2026-04-25T10:31:29.443Z</time></trkpt><trkpt lat="45.9428224" lon="11.5532309"><ele>1557.0</ele><time>2026-04-25T10:31:30.451Z</time></trkpt><trkpt lat="45.9426776" lon="11.55322"><ele>1555.25</ele><time>2026-04-25T10:31:31.439Z</time></trkpt><trkpt lat="45.9425351" lon="11.5532198"><ele>1553.5</ele><time>2026-04-25T10:31:32.457Z</time></trkpt><trkpt lat="45.942396" lon="11.5532269"><ele>1551.75</ele><time>2026-04-25T10:31:33.455Z</time></trkpt><trkpt lat="45.9422601" lon="11.5532379"><ele>1550.0</ele><time>2026-04-25T10:31:34.441Z</time></trkpt><trkpt lat="45.9421287" lon="11.5532534"><ele>1550.0</ele><time>2026-04-25T10:31:35.441Z</time></trkpt><trkpt lat="45.9420011" lon="11.5532745"><ele>1550.0</ele><time>2026-04-25T10:31:36.442Z</time></trkpt><trkpt lat="45.9418779" lon="11.5533042"><ele>1550.0</ele><time>2026-04-25T10:31:37.444Z</time></trkpt><trkpt lat="45.9417596" lon="11.553343"><ele>1550.0</ele><time>2026-04-25T10:31:38.457Z</time></trkpt><trkpt lat="45.9416476" lon="11.5533954"><ele>1551.0</ele><time>2026-04-25T10:31:39.455Z</time></trkpt><trkpt lat="45.9415444" lon="11.5534663"><ele>1552.0</ele><time>2026-04-25T10:31:40.452Z</time></trkpt><trkpt lat="45.941451" lon="11.5535567"><ele>1553.0</ele><time>2026-04-25T10:31:41.454Z</time></trkpt><trkpt lat="45.9413655" lon="11.553658"><ele>1554.0</ele><time>2026-04-25T10:31:42.442Z</time></trkpt><trkpt lat="45.9412776" lon="11.5537506"><ele>1555.0</ele><time>2026-04-25T10:31:43.44Z</time></trkpt><trkpt lat="45.9411798" lon="11.5538117"><ele>1555.0</ele><time>2026-04-25T10:31:44.446Z</time></trkpt><trkpt lat="45.9410655" lon="11.5538338"><ele>1555.0</ele><time>2026-04-25T10:31:45.446Z</time></trkpt><trkpt lat="45.9407922" lon="11.5538429"><ele>1555.0</ele><time>2026-04-25T10:31:47.441Z</time></trkpt><trkpt lat="45.9406596" lon="11.5538477"><ele>1552.4</ele><time>2026-04-25T10:31:48.457Z</time></trkpt><trkpt lat="45.9405348" lon="11.5538609"><ele>1549.8</ele><time>2026-04-25T10:31:49.436Z</time></trkpt><trkpt lat="45.9404232" lon="11.5538841"><ele>1547.1999999999998</ele><time>2026-04-25T10:31:50.453Z</time></trkpt><trkpt lat="45.9403222" lon="11.553921"><ele>1544.6</ele><time>2026-04-25T10:31:51.447Z</time></trkpt><trkpt lat="45.9402309" lon="11.553972"><ele>1542.0</ele><time>2026-04-25T10:31:52.455Z</time></trkpt><trkpt lat="45.9401512" lon="11.5540437"><ele>1542.0</ele><time>2026-04-25T10:31:53.44Z</time></trkpt><trkpt lat="45.9400817" lon="11.5541381"><ele>1542.0</ele><time>2026-04-25T10:31:54.445Z</time></trkpt><trkpt lat="45.9400103" lon="11.5542496"><ele>1542.0</ele><time>2026-04-25T10:31:55.444Z</time></trkpt><trkpt lat="45.9399255" lon="11.5543654"><ele>1542.0</ele><time>2026-04-25T10:31:56.439Z</time></trkpt><trkpt lat="45.9398133" lon="11.5544706"><ele>1539.3333333333333</ele><time>2026-04-25T10:31:57.44Z</time></trkpt><trkpt lat="45.9396707" lon="11.5545505"><ele>1536.6666666666665</ele><time>2026-04-25T10:31:58.436Z</time></trkpt><trkpt lat="45.9395078" lon="11.5546212"><ele>1534.0</ele><time>2026-04-25T10:31:59.454Z</time></trkpt><trkpt lat="45.9393536" lon="11.5546995"><ele>1530.75</ele><time>2026-04-25T10:32:00.448Z</time></trkpt><trkpt lat="45.9392127" lon="11.5547915"><ele>1527.5</ele><time>2026-04-25T10:32:01.436Z</time></trkpt><trkpt lat="45.9390851" lon="11.5548939"><ele>1524.25</ele><time>2026-04-25T10:32:02.456Z</time></trkpt><trkpt lat="45.9389712" lon="11.5550059"><ele>1521.0</ele><time>2026-04-25T10:32:03.45Z</time></trkpt><trkpt lat="45.9388708" lon="11.5551267"><ele>1521.0</ele><time>2026-04-25T10:32:04.453Z</time></trkpt><trkpt lat="45.9387795" lon="11.5552473"><ele>1521.0</ele><time>2026-04-25T10:32:05.444Z</time></trkpt><trkpt lat="45.9386883" lon="11.5553635"><ele>1521.0</ele><time>2026-04-25T10:32:06.456Z</time></trkpt><trkpt lat="45.9384985" lon="11.5556038"><ele>1522.25</ele><time>2026-04-25T10:32:08.455Z</time></trkpt><trkpt lat="45.9383971" lon="11.5557324"><ele>1523.5</ele><time>2026-04-25T10:32:09.442Z</time></trkpt><trkpt lat="45.9382913" lon="11.5558711"><ele>1524.75</ele><time>2026-04-25T10:32:10.454Z</time></trkpt><trkpt lat="45.9381823" lon="11.5560165"><ele>1526.0</ele><time>2026-04-25T10:32:11.449Z</time></trkpt><trkpt lat="45.938077" lon="11.556161"><ele>1524.0</ele><time>2026-04-25T10:32:12.448Z</time></trkpt><trkpt lat="45.9379732" lon="11.5563052"><ele>1522.0</ele><time>2026-04-25T10:32:13.449Z</time></trkpt><trkpt lat="45.9378765" lon="11.556448"><ele>1520.0</ele><time>2026-04-25T10:32:14.451Z</time></trkpt><trkpt lat="45.9377809" lon="11.556602"><ele>1518.0</ele><time>2026-04-25T10:32:15.443Z</time></trkpt><trkpt lat="45.9376809" lon="11.5567403"><ele>1518.0</ele><time>2026-04-25T10:32:16.449Z</time></trkpt><trkpt lat="45.9375639" lon="11.5568619"><ele>1518.0</ele><time>2026-04-25T10:32:17.439Z</time></trkpt><trkpt lat="45.937426" lon="11.5569831"><ele>1518.0</ele><time>2026-04-25T10:32:18.447Z</time></trkpt><trkpt lat="45.9372854" lon="11.5571054"><ele>1516.0</ele><time>2026-04-25T10:32:19.436Z</time></trkpt><trkpt lat="45.937152" lon="11.5572254"><ele>1514.0</ele><time>2026-04-25T10:32:20.441Z</time></trkpt><trkpt lat="45.9370237" lon="11.5573386"><ele>1512.0</ele><time>2026-04-25T10:32:21.446Z</time></trkpt><trkpt lat="45.9368867" lon="11.5574486"><ele>1512.0</ele><time>2026-04-25T10:32:22.439Z</time></trkpt><trkpt lat="45.9367321" lon="11.5575574"><ele>1512.0</ele><time>2026-04-25T10:32:23.438Z</time></trkpt><trkpt lat="45.9365776" lon="11.5576519"><ele>1512.0</ele><time>2026-04-25T10:32:24.442Z</time></trkpt><trkpt lat="45.9364301" lon="11.5577289"><ele>1509.6666666666667</ele><time>2026-04-25T10:32:25.439Z</time></trkpt><trkpt lat="45.9362916" lon="11.5577798"><ele>1507.3333333333335</ele><time>2026-04-25T10:32:26.441Z</time></trkpt><trkpt lat="45.9361583" lon="11.5577944"><ele>1505.0</ele><time>2026-04-25T10:32:27.441Z</time></trkpt><trkpt lat="45.9358948" lon="11.5577165"><ele>1504.5</ele><time>2026-04-25T10:32:29.455Z</time></trkpt><trkpt lat="45.9357531" lon="11.5576543"><ele>1504.0</ele><time>2026-04-25T10:32:30.455Z</time></trkpt><trkpt lat="45.9356217" lon="11.5575994"><ele>1503.5</ele><time>2026-04-25T10:32:31.447Z</time></trkpt><trkpt lat="45.9354936" lon="11.5575382"><ele>1503.0</ele><time>2026-04-25T10:32:32.44Z</time></trkpt><trkpt lat="45.9353617" lon="11.5575159"><ele>1503.0</ele><time>2026-04-25T10:32:33.451Z</time></trkpt><trkpt lat="45.9352191" lon="11.5575222"><ele>1503.0</ele><time>2026-04-25T10:32:34.442Z</time></trkpt><trkpt lat="45.9350814" lon="11.5575343"><ele>1503.0</ele><time>2026-04-25T10:32:35.444Z</time></trkpt><trkpt lat="45.9349385" lon="11.5575522"><ele>1503.0</ele><time>2026-04-25T10:32:36.457Z</time></trkpt><trkpt lat="45.9347926" lon="11.5575769"><ele>1501.3333333333333</ele><time>2026-04-25T10:32:37.437Z</time></trkpt><trkpt lat="45.9346247" lon="11.5576249"><ele>1499.6666666666665</ele><time>2026-04-25T10:32:38.435Z</time></trkpt><trkpt lat="45.9344474" lon="11.557692"><ele>1498.0</ele><time>2026-04-25T10:32:39.45Z</time></trkpt><trkpt lat="45.934263" lon="11.5577698"><ele>1498.0</ele><time>2026-04-25T10:32:40.437Z</time></trkpt><trkpt lat="45.9340849" lon="11.5578489"><ele>1498.0</ele><time>2026-04-25T10:32:41.445Z</time></trkpt><trkpt lat="45.933912" lon="11.5579256"><ele>1498.0</ele><time>2026-04-25T10:32:42.448Z</time></trkpt><trkpt lat="45.9337475" lon="11.5579951"><ele>1497.3333333333333</ele><time>2026-04-25T10:32:43.45Z</time></trkpt><trkpt lat="45.9335864" lon="11.5580552"><ele>1496.6666666666667</ele><time>2026-04-25T10:32:44.452Z</time></trkpt><trkpt lat="45.9334259" lon="11.5580981"><ele>1496.0</ele><time>2026-04-25T10:32:45.462Z</time></trkpt><trkpt lat="45.9332631" lon="11.5581188"><ele>1493.6666666666667</ele><time>2026-04-25T10:32:46.444Z</time></trkpt><trkpt lat="45.9330899" lon="11.5581335"><ele>1491.3333333333333</ele><time>2026-04-25T10:32:47.435Z</time></trkpt><trkpt lat="45.9329211" lon="11.5581607"><ele>1489.0</ele><time>2026-04-25T10:32:48.464Z</time></trkpt><trkpt lat="45.9325909" lon="11.5582617"><ele>1487.3333333333333</ele><time>2026-04-25T10:32:50.44Z</time></trkpt><trkpt lat="45.9324132" lon="11.5583418"><ele>1485.6666666666667</ele><time>2026-04-25T10:32:51.443Z</time></trkpt><trkpt lat="45.932233" lon="11.5584207"><ele>1484.0</ele><time>2026-04-25T10:32:52.446Z</time></trkpt><trkpt lat="45.9320694" lon="11.5584844"><ele>1484.0</ele><time>2026-04-25T10:32:53.456Z</time></trkpt><trkpt lat="45.9319186" lon="11.5585466"><ele>1484.0</ele><time>2026-04-25T10:32:54.454Z</time></trkpt><trkpt lat="45.9317715" lon="11.5586267"><ele>1484.0</ele><time>2026-04-25T10:32:55.442Z</time></trkpt><trkpt lat="45.9316196" lon="11.5587358"><ele>1485.0</ele><time>2026-04-25T10:32:56.444Z</time></trkpt><trkpt lat="45.9314774" lon="11.5588442"><ele>1486.0</ele><time>2026-04-25T10:32:57.441Z</time></trkpt><trkpt lat="45.9313385" lon="11.5589406"><ele>1487.0</ele><time>2026-04-25T10:32:58.446Z</time></trkpt><trkpt lat="45.9311883" lon="11.5590388"><ele>1487.0</ele><time>2026-04-25T10:32:59.448Z</time></trkpt><trkpt lat="45.9310257" lon="11.5591493"><ele>1487.0</ele><time>2026-04-25T10:33:00.446Z</time></trkpt><trkpt lat="45.930875" lon="11.5592586"><ele>1487.0</ele><time>2026-04-25T10:33:01.451Z</time></trkpt><trkpt lat="45.9307457" lon="11.5593612"><ele>1488.25</ele><time>2026-04-25T10:33:02.445Z</time></trkpt><trkpt lat="45.9306245" lon="11.5594543"><ele>1489.5</ele><time>2026-04-25T10:33:03.449Z</time></trkpt><trkpt lat="45.9305018" lon="11.5595284"><ele>1490.75</ele><time>2026-04-25T10:33:04.443Z</time></trkpt><trkpt lat="45.9303727" lon="11.5595911"><ele>1492.0</ele><time>2026-04-25T10:33:05.463Z</time></trkpt><trkpt lat="45.9302411" lon="11.5596517"><ele>1492.0</ele><time>2026-04-25T10:33:06.492Z</time></trkpt><trkpt lat="45.9300989" lon="11.5597193"><ele>1492.0</ele><time>2026-04-25T10:33:07.445Z</time></trkpt><trkpt lat="45.9299473" lon="11.5597925"><ele>1492.0</ele><time>2026-04-25T10:33:08.435Z</time></trkpt><trkpt lat="45.9298014" lon="11.5598643"><ele>1489.6666666666665</ele><time>2026-04-25T10:33:09.449Z</time></trkpt><trkpt lat="45.929528" lon="11.5600006"><ele>1487.3333333333333</ele><time>2026-04-25T10:33:11.448Z</time></trkpt><trkpt lat="45.9293964" lon="11.560043"><ele>1485.0</ele><time>2026-04-25T10:33:12.443Z</time></trkpt><trkpt lat="45.9292595" lon="11.5600557"><ele>1483.3333333333333</ele><time>2026-04-25T10:33:13.443Z</time></trkpt><trkpt lat="45.9291018" lon="11.5600352"><ele>1481.6666666666665</ele><time>2026-04-25T10:33:14.439Z</time></trkpt><trkpt lat="45.9289403" lon="11.5599886"><ele>1480.0</ele><time>2026-04-25T10:33:15.442Z</time></trkpt><trkpt lat="45.9287874" lon="11.5599382"><ele>1480.0</ele><time>2026-04-25T10:33:16.456Z</time></trkpt><trkpt lat="45.9286419" lon="11.5598967"><ele>1480.0</ele><time>2026-04-25T10:33:17.447Z</time></trkpt><trkpt lat="45.9285044" lon="11.5598737"><ele>1480.0</ele><time>2026-04-25T10:33:18.448Z</time></trkpt><trkpt lat="45.9283729" lon="11.5598697"><ele>1480.0</ele><time>2026-04-25T10:33:19.445Z</time></trkpt><trkpt lat="45.9282478" lon="11.5598896"><ele>1479.5</ele><time>2026-04-25T10:33:20.455Z</time></trkpt><trkpt lat="45.9281223" lon="11.559929"><ele>1479.0</ele><time>2026-04-25T10:33:21.445Z</time></trkpt><trkpt lat="45.9279941" lon="11.5599706"><ele>1478.5</ele><time>2026-04-25T10:33:22.448Z</time></trkpt><trkpt lat="45.9278607" lon="11.5599998"><ele>1478.0</ele><time>2026-04-25T10:33:23.446Z</time></trkpt><trkpt lat="45.9277123" lon="11.5600279"><ele>1475.6666666666667</ele><time>2026-04-25T10:33:24.442Z</time></trkpt><trkpt lat="45.9275436" lon="11.5600799"><ele>1473.3333333333333</ele><time>2026-04-25T10:33:25.452Z</time></trkpt><trkpt lat="45.9273877" lon="11.5601479"><ele>1471.0</ele><time>2026-04-25T10:33:26.448Z</time></trkpt><trkpt lat="45.9272415" lon="11.5602197"><ele>1471.0</ele><time>2026-04-25T10:33:27.452Z</time></trkpt><trkpt lat="45.9270968" lon="11.5602839"><ele>1471.0</ele><time>2026-04-25T10:33:28.437Z</time></trkpt><trkpt lat="45.9269504" lon="11.5603251"><ele>1471.0</ele><time>2026-04-25T10:33:29.448Z</time></trkpt><trkpt lat="45.926805" lon="11.5603444"><ele>1471.0</ele><time>2026-04-25T10:33:30.451Z</time></trkpt><trkpt lat="45.9264977" lon="11.5603563"><ele>1471.3333333333333</ele><time>2026-04-25T10:33:32.448Z</time></trkpt><trkpt lat="45.9263221" lon="11.5603678"><ele>1471.6666666666667</ele><time>2026-04-25T10:33:33.447Z</time></trkpt><trkpt lat="45.9261393" lon="11.5603934"><ele>1472.0</ele><time>2026-04-25T10:33:34.451Z</time></trkpt><trkpt lat="45.9259519" lon="11.5604289"><ele>1470.0</ele><time>2026-04-25T10:33:35.436Z</time></trkpt><trkpt lat="45.9257641" lon="11.5604682"><ele>1468.0</ele><time>2026-04-25T10:33:36.445Z</time></trkpt><trkpt lat="45.9255853" lon="11.5605045"><ele>1466.0</ele><time>2026-04-25T10:33:37.438Z</time></trkpt><trkpt lat="45.925416" lon="11.5605345"><ele>1466.0</ele><time>2026-04-25T10:33:38.446Z</time></trkpt><trkpt lat="45.9252527" lon="11.5605588"><ele>1466.0</ele><time>2026-04-25T10:33:39.444Z</time></trkpt><trkpt lat="45.9250933" lon="11.5605777"><ele>1466.0</ele><time>2026-04-25T10:33:40.454Z</time></trkpt><trkpt lat="45.9249416" lon="11.5605918"><ele>1465.75</ele><time>2026-04-25T10:33:41.45Z</time></trkpt><trkpt lat="45.9247994" lon="11.5606047"><ele>1465.5</ele><time>2026-04-25T10:33:42.439Z</time></trkpt><trkpt lat="45.9246621" lon="11.5606161"><ele>1465.25</ele><time>2026-04-25T10:33:43.451Z</time></trkpt><trkpt lat="45.9245233" lon="11.5606239"><ele>1465.0</ele><time>2026-04-25T10:33:44.446Z</time></trkpt><trkpt lat="45.9243932" lon="11.560618"><ele>1465.0</ele><time>2026-04-25T10:33:45.452Z</time></trkpt><trkpt lat="45.9242738" lon="11.5605927"><ele>1465.0</ele><time>2026-04-25T10:33:46.442Z</time></trkpt><trkpt lat="45.9241648" lon="11.560545"><ele>1465.0</ele><time>2026-04-25T10:33:47.452Z</time></trkpt><trkpt lat="45.9240616" lon="11.5604939"><ele>1465.0</ele><time>2026-04-25T10:33:48.447Z</time></trkpt><trkpt lat="45.9239555" lon="11.5604642"><ele>1464.6666666666665</ele><time>2026-04-25T10:33:49.448Z</time></trkpt><trkpt lat="45.9238326" lon="11.5604676"><ele>1464.3333333333333</ele><time>2026-04-25T10:33:50.446Z</time></trkpt><trkpt lat="45.923688" lon="11.5605067"><ele>1464.0</ele><time>2026-04-25T10:33:51.446Z</time></trkpt><trkpt lat="45.9233404" lon="11.5606607"><ele>1464.0</ele><time>2026-04-25T10:33:53.443Z</time></trkpt><trkpt lat="45.923164" lon="11.5607433"><ele>1464.0</ele><time>2026-04-25T10:33:54.446Z</time></trkpt><trkpt lat="45.9230067" lon="11.560825"><ele>1464.0</ele><time>2026-04-25T10:33:55.456Z</time></trkpt><trkpt lat="45.9228693" lon="11.5608876"><ele>1464.0</ele><time>2026-04-25T10:33:56.451Z</time></trkpt><trkpt lat="45.9227349" lon="11.5609587"><ele>1464.0</ele><time>2026-04-25T10:33:57.448Z</time></trkpt><trkpt lat="45.9226059" lon="11.5610115"><ele>1464.0</ele><time>2026-04-25T10:33:58.444Z</time></trkpt><trkpt lat="45.9224772" lon="11.5610308"><ele>1464.0</ele><time>2026-04-25T10:33:59.439Z</time></trkpt><trkpt lat="45.9223506" lon="11.5610018"><ele>1462.0</ele><time>2026-04-25T10:34:00.444Z</time></trkpt><trkpt lat="45.9222213" lon="11.5609597"><ele>1460.0</ele><time>2026-04-25T10:34:01.442Z</time></trkpt><trkpt lat="45.9220818" lon="11.5609137"><ele>1458.0</ele><time>2026-04-25T10:34:02.445Z</time></trkpt><trkpt lat="45.9219345" lon="11.5608979"><ele>1456.0</ele><time>2026-04-25T10:34:03.442Z</time></trkpt><trkpt lat="45.9217673" lon="11.5609175"><ele>1453.0</ele><time>2026-04-25T10:34:04.436Z</time></trkpt><trkpt lat="45.9215945" lon="11.560945"><ele>1450.0</ele><time>2026-04-25T10:34:05.442Z</time></trkpt><trkpt lat="45.9214309" lon="11.5609731"><ele>1447.0</ele><time>2026-04-25T10:34:06.451Z</time></trkpt><trkpt lat="45.9212743" lon="11.5610022"><ele>1447.0</ele><time>2026-04-25T10:34:07.447Z</time></trkpt><trkpt lat="45.9211231" lon="11.5610288"><ele>1447.0</ele><time>2026-04-25T10:34:08.439Z</time></trkpt><trkpt lat="45.9209787" lon="11.5610424"><ele>1447.0</ele><time>2026-04-25T10:34:09.448Z</time></trkpt><trkpt lat="45.9208373" lon="11.5610429"><ele>1447.0</ele><time>2026-04-25T10:34:10.441Z</time></trkpt><trkpt lat="45.9206999" lon="11.5610311"><ele>1445.3333333333333</ele><time>2026-04-25T10:34:11.445Z</time></trkpt><trkpt lat="45.9205664" lon="11.5610101"><ele>1443.6666666666667</ele><time>2026-04-25T10:34:12.45Z</time></trkpt><trkpt lat="45.9203114" lon="11.5609956"><ele>1442.0</ele><time>2026-04-25T10:34:14.435Z</time></trkpt><trkpt lat="45.9201856" lon="11.5610213"><ele>1441.3333333333335</ele><time>2026-04-25T10:34:15.443Z</time></trkpt><trkpt lat="45.9200468" lon="11.561069"><ele>1440.6666666666667</ele><time>2026-04-25T10:34:16.459Z</time></trkpt><trkpt lat="45.9199001" lon="11.5611333"><ele>1440.0</ele><time>2026-04-25T10:34:17.438Z</time></trkpt><trkpt lat="45.9197507" lon="11.5612033"><ele>1436.6666666666667</ele><time>2026-04-25T10:34:18.442Z</time></trkpt><trkpt lat="45.9195931" lon="11.5612744"><ele>1433.3333333333335</ele><time>2026-04-25T10:34:19.445Z</time></trkpt><trkpt lat="45.9194393" lon="11.5613427"><ele>1430.0</ele><time>2026-04-25T10:34:20.444Z</time></trkpt><trkpt lat="45.9192931" lon="11.5614081"><ele>1429.5</ele><time>2026-04-25T10:34:21.441Z</time></trkpt><trkpt lat="45.9191541" lon="11.5614656"><ele>1429.0</ele><time>2026-04-25T10:34:22.449Z</time></trkpt><trkpt lat="45.9190126" lon="11.5615328"><ele>1428.5</ele><time>2026-04-25T10:34:23.446Z</time></trkpt><trkpt lat="45.9188911" lon="11.5615794"><ele>1428.0</ele><time>2026-04-25T10:34:24.442Z</time></trkpt><trkpt lat="45.9187629" lon="11.5616328"><ele>1428.0</ele><time>2026-04-25T10:34:25.444Z</time></trkpt><trkpt lat="45.9186349" lon="11.5616872"><ele>1428.0</ele><time>2026-04-25T10:34:26.438Z</time></trkpt><trkpt lat="45.9185117" lon="11.5617489"><ele>1428.0</ele><time>2026-04-25T10:34:27.436Z</time></trkpt><trkpt lat="45.9183962" lon="11.5618029"><ele>1428.0</ele><time>2026-04-25T10:34:28.443Z</time></trkpt><trkpt lat="45.9182903" lon="11.5619078"><ele>1427.6666666666667</ele><time>2026-04-25T10:34:29.435Z</time></trkpt><trkpt lat="45.9181802" lon="11.5620435"><ele>1427.3333333333335</ele><time>2026-04-25T10:34:30.456Z</time></trkpt><trkpt lat="45.9180702" lon="11.5622117"><ele>1427.0</ele><time>2026-04-25T10:34:31.439Z</time></trkpt><trkpt lat="45.9179756" lon="11.5623927"><ele>1427.0</ele><time>2026-04-25T10:34:32.444Z</time></trkpt><trkpt lat="45.9179037" lon="11.5625749"><ele>1427.0</ele><time>2026-04-25T10:34:33.448Z</time></trkpt><trkpt lat="45.917831" lon="11.5630128"><ele>1428.0</ele><time>2026-04-25T10:34:35.445Z</time></trkpt><trkpt lat="45.9178062" lon="11.5632407"><ele>1429.0</ele><time>2026-04-25T10:34:36.443Z</time></trkpt><trkpt lat="45.9177771" lon="11.563462"><ele>1430.0</ele><time>2026-04-25T10:34:37.445Z</time></trkpt><trkpt lat="45.9177291" lon="11.56368"><ele>1428.6666666666667</ele><time>2026-04-25T10:34:38.441Z</time></trkpt><trkpt lat="45.9176558" lon="11.5639"><ele>1427.3333333333333</ele><time>2026-04-25T10:34:39.443Z</time></trkpt><trkpt lat="45.9175567" lon="11.5641153"><ele>1426.0</ele><time>2026-04-25T10:34:40.448Z</time></trkpt><trkpt lat="45.9174369" lon="11.5643238"><ele>1425.6666666666665</ele><time>2026-04-25T10:34:41.448Z</time></trkpt><trkpt lat="45.9173051" lon="11.5645302"><ele>1425.3333333333333</ele><time>2026-04-25T10:34:42.47Z</time></trkpt><trkpt lat="45.9171728" lon="11.5647204"><ele>1425.0</ele><time>2026-04-25T10:34:43.454Z</time></trkpt><trkpt lat="45.9170362" lon="11.5648894"><ele>1425.0</ele><time>2026-04-25T10:34:44.448Z</time></trkpt><trkpt lat="45.9168868" lon="11.5650513"><ele>1425.0</ele><time>2026-04-25T10:34:45.447Z</time></trkpt><trkpt lat="45.9167172" lon="11.5652256"><ele>1425.0</ele><time>2026-04-25T10:34:46.447Z</time></trkpt><trkpt lat="45.9165338" lon="11.5654131"><ele>1420.6666666666667</ele><time>2026-04-25T10:34:47.45Z</time></trkpt><trkpt lat="45.916362" lon="11.5655934"><ele>1416.3333333333335</ele><time>2026-04-25T10:34:48.455Z</time></trkpt><trkpt lat="45.9162023" lon="11.5657612"><ele>1412.0</ele><time>2026-04-25T10:34:49.445Z</time></trkpt><trkpt lat="45.9160517" lon="11.5659167"><ele>1412.0</ele><time>2026-04-25T10:34:50.456Z</time></trkpt><trkpt lat="45.9159058" lon="11.5660593"><ele>1412.0</ele><time>2026-04-25T10:34:51.443Z</time></trkpt><trkpt lat="45.9157624" lon="11.5661863"><ele>1412.0</ele><time>2026-04-25T10:34:52.448Z</time></trkpt><trkpt lat="45.9156159" lon="11.5663015"><ele>1413.0</ele><time>2026-04-25T10:34:53.448Z</time></trkpt><trkpt lat="45.9154693" lon="11.5664082"><ele>1414.0</ele><time>2026-04-25T10:34:54.442Z</time></trkpt><trkpt lat="45.9151792" lon="11.566607"><ele>1412.3333333333333</ele><time>2026-04-25T10:34:56.441Z</time></trkpt><trkpt lat="45.9150238" lon="11.5666886"><ele>1410.6666666666667</ele><time>2026-04-25T10:34:57.455Z</time></trkpt><trkpt lat="45.9148598" lon="11.5667654"><ele>1409.0</ele><time>2026-04-25T10:34:58.467Z</time></trkpt><trkpt lat="45.9146883" lon="11.5668448"><ele>1409.0</ele><time>2026-04-25T10:34:59.445Z</time></trkpt><trkpt lat="45.9145126" lon="11.5669306"><ele>1409.0</ele><time>2026-04-25T10:35:00.462Z</time></trkpt><trkpt lat="45.9143354" lon="11.5670183"><ele>1409.0</ele><time>2026-04-25T10:35:01.444Z</time></trkpt><trkpt lat="45.9141594" lon="11.5671042"><ele>1407.0</ele><time>2026-04-25T10:35:02.447Z</time></trkpt><trkpt lat="45.9139742" lon="11.5671976"><ele>1405.0</ele><time>2026-04-25T10:35:03.45Z</time></trkpt><trkpt lat="45.9137752" lon="11.5673016"><ele>1403.0</ele><time>2026-04-25T10:35:04.446Z</time></trkpt><trkpt lat="45.9135837" lon="11.5673944"><ele>1400.0</ele><time>2026-04-25T10:35:05.454Z</time></trkpt><trkpt lat="45.9134009" lon="11.5674598"><ele>1397.0</ele><time>2026-04-25T10:35:06.448Z</time></trkpt><trkpt lat="45.9132201" lon="11.5675033"><ele>1394.0</ele><time>2026-04-25T10:35:07.443Z</time></trkpt><trkpt lat="45.9130454" lon="11.5675601"><ele>1394.0</ele><time>2026-04-25T10:35:08.444Z</time></trkpt><trkpt lat="45.9128813" lon="11.5676395"><ele>1394.0</ele><time>2026-04-25T10:35:09.45Z</time></trkpt><trkpt lat="45.9127264" lon="11.5677272"><ele>1394.0</ele><time>2026-04-25T10:35:10.44Z</time></trkpt><trkpt lat="45.9125745" lon="11.5678083"><ele>1393.5</ele><time>2026-04-25T10:35:11.447Z</time></trkpt><trkpt lat="45.9124278" lon="11.567864"><ele>1393.0</ele><time>2026-04-25T10:35:12.459Z</time></trkpt><trkpt lat="45.9122862" lon="11.567885"><ele>1392.5</ele><time>2026-04-25T10:35:13.445Z</time></trkpt><trkpt lat="45.9121483" lon="11.5678702"><ele>1392.0</ele><time>2026-04-25T10:35:14.436Z</time></trkpt><trkpt lat="45.912006" lon="11.5678152"><ele>1388.0</ele><time>2026-04-25T10:35:15.446Z</time></trkpt><trkpt lat="45.9117006" lon="11.567689"><ele>1384.0</ele><time>2026-04-25T10:35:17.443Z</time></trkpt><trkpt lat="45.9115392" lon="11.5676741"><ele>1384.0</ele><time>2026-04-25T10:35:18.444Z</time></trkpt><trkpt lat="45.9113607" lon="11.5676983"><ele>1384.0</ele><time>2026-04-25T10:35:19.447Z</time></trkpt><trkpt lat="45.9111735" lon="11.5677539"><ele>1384.0</ele><time>2026-04-25T10:35:20.435Z</time></trkpt><trkpt lat="45.910981" lon="11.5678259"><ele>1373.6666666666665</ele><time>2026-04-25T10:35:21.444Z</time></trkpt><trkpt lat="45.910789" lon="11.5678943"><ele>1363.3333333333333</ele><time>2026-04-25T10:35:22.45Z</time></trkpt><trkpt lat="45.9105986" lon="11.5679536"><ele>1353.0</ele><time>2026-04-25T10:35:23.443Z</time></trkpt><trkpt lat="45.9104106" lon="11.5680039"><ele>1353.0</ele><time>2026-04-25T10:35:24.438Z</time></trkpt><trkpt lat="45.9102251" lon="11.5680534"><ele>1353.0</ele><time>2026-04-25T10:35:25.46Z</time></trkpt><trkpt lat="45.9100432" lon="11.5681101"><ele>1353.0</ele><time>2026-04-25T10:35:26.456Z</time></trkpt><trkpt lat="45.909863" lon="11.5681619"><ele>1350.0</ele><time>2026-04-25T10:35:27.448Z</time></trkpt><trkpt lat="45.9096793" lon="11.5681973"><ele>1347.0</ele><time>2026-04-25T10:35:28.449Z</time></trkpt><trkpt lat="45.9094909" lon="11.5682172"><ele>1344.0</ele><time>2026-04-25T10:35:29.435Z</time></trkpt><trkpt lat="45.9093042" lon="11.5682359"><ele>1342.3333333333333</ele><time>2026-04-25T10:35:30.445Z</time></trkpt><trkpt lat="45.9091199" lon="11.5682591"><ele>1340.6666666666665</ele><time>2026-04-25T10:35:31.453Z</time></trkpt><trkpt lat="45.9089374" lon="11.5682862"><ele>1339.0</ele><time>2026-04-25T10:35:32.443Z</time></trkpt><trkpt lat="45.9087562" lon="11.5683126"><ele>1339.0</ele><time>2026-04-25T10:35:33.446Z</time></trkpt><trkpt lat="45.9085761" lon="11.5683346"><ele>1339.0</ele><time>2026-04-25T10:35:34.444Z</time></trkpt><trkpt lat="45.9083951" lon="11.5683522"><ele>1339.0</ele><time>2026-04-25T10:35:35.448Z</time></trkpt><trkpt lat="45.908215" lon="11.5683652"><ele>1332.5</ele><time>2026-04-25T10:35:36.434Z</time></trkpt><trkpt lat="45.9078624" lon="11.568398"><ele>1326.0</ele><time>2026-04-25T10:35:38.442Z</time></trkpt><trkpt lat="45.9076922" lon="11.5684019"><ele>1321.0</ele><time>2026-04-25T10:35:39.437Z</time></trkpt><trkpt lat="45.9075262" lon="11.5683866"><ele>1316.0</ele><time>2026-04-25T10:35:40.435Z</time></trkpt><trkpt lat="45.907366" lon="11.5683452"><ele>1311.0</ele><time>2026-04-25T10:35:41.439Z</time></trkpt><trkpt lat="45.9072088" lon="11.5682817"><ele>1311.0</ele><time>2026-04-25T10:35:42.45Z</time></trkpt><trkpt lat="45.9070449" lon="11.5681981"><ele>1311.0</ele><time>2026-04-25T10:35:43.453Z</time></trkpt><trkpt lat="45.906864" lon="11.5680985"><ele>1311.0</ele><time>2026-04-25T10:35:44.442Z</time></trkpt><trkpt lat="45.9066822" lon="11.5679889"><ele>1313.0</ele><time>2026-04-25T10:35:45.448Z</time></trkpt><trkpt lat="45.9065065" lon="11.567869"><ele>1315.0</ele><time>2026-04-25T10:35:46.464Z</time></trkpt><trkpt lat="45.9063352" lon="11.5677432"><ele>1317.0</ele><time>2026-04-25T10:35:47.434Z</time></trkpt><trkpt lat="45.9061664" lon="11.5676161"><ele>1317.0</ele><time>2026-04-25T10:35:48.442Z</time></trkpt><trkpt lat="45.9060028" lon="11.5674822"><ele>1317.0</ele><time>2026-04-25T10:35:49.442Z</time></trkpt><trkpt lat="45.9058449" lon="11.5673399"><ele>1317.0</ele><time>2026-04-25T10:35:50.432Z</time></trkpt><trkpt lat="45.9056879" lon="11.5671986"><ele>1315.0</ele><time>2026-04-25T10:35:51.45Z</time></trkpt><trkpt lat="45.905531" lon="11.5670603"><ele>1313.0</ele><time>2026-04-25T10:35:52.449Z</time></trkpt><trkpt lat="45.9053751" lon="11.5669247"><ele>1311.0</ele><time>2026-04-25T10:35:53.447Z</time></trkpt><trkpt lat="45.9052174" lon="11.5667926"><ele>1300.0</ele><time>2026-04-25T10:35:54.446Z</time></trkpt><trkpt lat="45.9050584" lon="11.5666624"><ele>1289.0</ele><time>2026-04-25T10:35:55.442Z</time></trkpt><trkpt lat="45.9049" lon="11.5665329"><ele>1278.0</ele><time>2026-04-25T10:35:56.453Z</time></trkpt><trkpt lat="45.9047427" lon="11.5664029"><ele>1292.5</ele><time>2026-04-25T10:35:57.439Z</time></trkpt><trkpt lat="45.9044351" lon="11.5661375"><ele>1307.0</ele><time>2026-04-25T10:35:59.462Z</time></trkpt><trkpt lat="45.904285" lon="11.5660055"><ele>1296.0</ele><time>2026-04-25T10:36:00.444Z</time></trkpt><trkpt lat="45.9041244" lon="11.5659143"><ele>1285.0</ele><time>2026-04-25T10:36:01.442Z</time></trkpt><trkpt lat="45.9039583" lon="11.5658493"><ele>1274.0</ele><time>2026-04-25T10:36:02.45Z</time></trkpt><trkpt lat="45.9037917" lon="11.565783"><ele>1274.0</ele><time>2026-04-25T10:36:03.449Z</time></trkpt><trkpt lat="45.9036224" lon="11.5657045"><ele>1274.0</ele><time>2026-04-25T10:36:04.439Z</time></trkpt><trkpt lat="45.903456" lon="11.56561"><ele>1274.0</ele><time>2026-04-25T10:36:05.44Z</time></trkpt><trkpt lat="45.9032957" lon="11.5655085"><ele>1275.0</ele><time>2026-04-25T10:36:06.446Z</time></trkpt><trkpt lat="45.9031418" lon="11.5653974"><ele>1276.0</ele><time>2026-04-25T10:36:07.475Z</time></trkpt><trkpt lat="45.9029916" lon="11.5652892"><ele>1277.0</ele><time>2026-04-25T10:36:08.448Z</time></trkpt><trkpt lat="45.9028481" lon="11.5651791"><ele>1277.0</ele><time>2026-04-25T10:36:09.463Z</time></trkpt><trkpt lat="45.9027074" lon="11.5650703"><ele>1277.0</ele><time>2026-04-25T10:36:10.457Z</time></trkpt><trkpt lat="45.9025659" lon="11.5649684"><ele>1277.0</ele><time>2026-04-25T10:36:11.471Z</time></trkpt><trkpt lat="45.9024251" lon="11.5648742"><ele>1273.5</ele><time>2026-04-25T10:36:12.455Z</time></trkpt><trkpt lat="45.9022862" lon="11.5647745"><ele>1270.0</ele><time>2026-04-25T10:36:13.469Z</time></trkpt><trkpt lat="45.9021531" lon="11.5646872"><ele>1266.5</ele><time>2026-04-25T10:36:14.462Z</time></trkpt><trkpt lat="45.9020328" lon="11.5645801"><ele>1263.0</ele><time>2026-04-25T10:36:15.462Z</time></trkpt><trkpt lat="45.901916" lon="11.5644405"><ele>1263.0</ele><time>2026-04-25T10:36:16.459Z</time></trkpt><trkpt lat="45.9018085" lon="11.5642592"><ele>1263.0</ele><time>2026-04-25T10:36:17.458Z</time></trkpt><trkpt lat="45.9017086" lon="11.5640697"><ele>1263.0</ele><time>2026-04-25T10:36:18.454Z</time></trkpt><trkpt lat="45.9015103" lon="11.5637092"><ele>1257.25</ele><time>2026-04-25T10:36:20.454Z</time></trkpt><trkpt lat="45.901439" lon="11.5635623"><ele>1251.5</ele><time>2026-04-25T10:36:21.464Z</time></trkpt><trkpt lat="45.9013922" lon="11.5634188"><ele>1245.75</ele><time>2026-04-25T10:36:22.457Z</time></trkpt><trkpt lat="45.9013829" lon="11.5632647"><ele>1240.0</ele><time>2026-04-25T10:36:23.459Z</time></trkpt><trkpt lat="45.9014013" lon="11.5630839"><ele>1240.0</ele><time>2026-04-25T10:36:24.452Z</time></trkpt><trkpt lat="45.9014245" lon="11.5628764"><ele>1240.0</ele><time>2026-04-25T10:36:25.463Z</time></trkpt><trkpt lat="45.9014302" lon="11.562645"><ele>1240.0</ele><time>2026-04-25T10:36:26.452Z</time></trkpt><trkpt lat="45.9014273" lon="11.5624353"><ele>1239.75</ele><time>2026-04-25T10:36:27.451Z</time></trkpt><trkpt lat="45.9014241" lon="11.5622505"><ele>1239.5</ele><time>2026-04-25T10:36:28.447Z</time></trkpt><trkpt lat="45.9014124" lon="11.562082"><ele>1239.25</ele><time>2026-04-25T10:36:29.444Z</time></trkpt><trkpt lat="45.9013718" lon="11.5619396"><ele>1239.0</ele><time>2026-04-25T10:36:30.45Z</time></trkpt><trkpt lat="45.9012937" lon="11.561819"><ele>1239.0</ele><time>2026-04-25T10:36:31.45Z</time></trkpt><trkpt lat="45.9011717" lon="11.5616956"><ele>1239.0</ele><time>2026-04-25T10:36:32.472Z</time></trkpt><trkpt lat="45.9010575" lon="11.5615634"><ele>1239.0</ele><time>2026-04-25T10:36:33.456Z</time></trkpt><trkpt lat="45.9009674" lon="11.5614116"><ele>1239.0</ele><time>2026-04-25T10:36:34.448Z</time></trkpt><trkpt lat="45.9008985" lon="11.5612486"><ele>1233.75</ele><time>2026-04-25T10:36:35.45Z</time></trkpt><trkpt lat="45.9008318" lon="11.5610883"><ele>1228.5</ele><time>2026-04-25T10:36:36.447Z</time></trkpt><trkpt lat="45.9007627" lon="11.5609414"><ele>1223.25</ele><time>2026-04-25T10:36:37.447Z</time></trkpt><trkpt lat="45.9007074" lon="11.5607893"><ele>1218.0</ele><time>2026-04-25T10:36:38.45Z</time></trkpt><trkpt lat="45.9006805" lon="11.5606328"><ele>1218.0</ele><time>2026-04-25T10:36:39.473Z</time></trkpt><trkpt lat="45.9006164" lon="11.5603791"><ele>1218.0</ele><time>2026-04-25T10:36:41.448Z</time></trkpt><trkpt lat="45.9005427" lon="11.5603237"><ele>1218.0</ele><time>2026-04-25T10:36:42.451Z</time></trkpt><trkpt lat="45.9004476" lon="11.5603374"><ele>1218.0</ele><time>2026-04-25T10:36:43.455Z</time></trkpt><trkpt lat="45.900331" lon="11.5604256"><ele>1218.0</ele><time>2026-04-25T10:36:44.441Z</time></trkpt><trkpt lat="45.9001844" lon="11.5605598"><ele>1218.0</ele><time>2026-04-25T10:36:45.437Z</time></trkpt><trkpt lat="45.9000361" lon="11.5606953"><ele>1218.0</ele><time>2026-04-25T10:36:46.456Z</time></trkpt><trkpt lat="45.8999131" lon="11.560819"><ele>1214.6</ele><time>2026-04-25T10:36:47.449Z</time></trkpt><trkpt lat="45.8998215" lon="11.560947"><ele>1211.1999999999998</ele><time>2026-04-25T10:36:48.441Z</time></trkpt><trkpt lat="45.8997548" lon="11.5610736"><ele>1207.8</ele><time>2026-04-25T10:36:49.444Z</time></trkpt><trkpt lat="45.8996841" lon="11.5611715"><ele>1204.3999999999999</ele><time>2026-04-25T10:36:50.457Z</time></trkpt><trkpt lat="45.8995977" lon="11.5612269"><ele>1201.0</ele><time>2026-04-25T10:36:51.453Z</time></trkpt><trkpt lat="45.8994957" lon="11.5612216"><ele>1201.0</ele><time>2026-04-25T10:36:52.449Z</time></trkpt><trkpt lat="45.8993636" lon="11.5611591"><ele>1201.0</ele><time>2026-04-25T10:36:53.466Z</time></trkpt><trkpt lat="45.8992098" lon="11.5610624"><ele>1201.0</ele><time>2026-04-25T10:36:54.446Z</time></trkpt><trkpt lat="45.8990612" lon="11.5609574"><ele>1199.0</ele><time>2026-04-25T10:36:55.46Z</time></trkpt><trkpt lat="45.8989171" lon="11.5608541"><ele>1197.0</ele><time>2026-04-25T10:36:56.457Z</time></trkpt><trkpt lat="45.8987786" lon="11.5607471"><ele>1195.0</ele><time>2026-04-25T10:36:57.455Z</time></trkpt><trkpt lat="45.898656" lon="11.560614"><ele>1195.0</ele><time>2026-04-25T10:36:58.457Z</time></trkpt><trkpt lat="45.8985547" lon="11.5604537"><ele>1195.0</ele><time>2026-04-25T10:36:59.449Z</time></trkpt><trkpt lat="45.8984583" lon="11.5602843"><ele>1195.0</ele><time>2026-04-25T10:37:00.471Z</time></trkpt><trkpt lat="45.8982307" lon="11.5599211"><ele>1197.0</ele><time>2026-04-25T10:37:02.444Z</time></trkpt><trkpt lat="45.898109" lon="11.559733"><ele>1199.0</ele><time>2026-04-25T10:37:03.452Z</time></trkpt><trkpt lat="45.8979947" lon="11.559553"><ele>1201.0</ele><time>2026-04-25T10:37:04.46Z</time></trkpt><trkpt lat="45.8978899" lon="11.5593956"><ele>1201.0</ele><time>2026-04-25T10:37:05.456Z</time></trkpt><trkpt lat="45.8977835" lon="11.559259"><ele>1201.0</ele><time>2026-04-25T10:37:06.452Z</time></trkpt><trkpt lat="45.8976756" lon="11.5591369"><ele>1201.0</ele><time>2026-04-25T10:37:07.451Z</time></trkpt><trkpt lat="45.8975743" lon="11.5590287"><ele>1201.0</ele><time>2026-04-25T10:37:08.46Z</time></trkpt><trkpt lat="45.8974764" lon="11.5589415"><ele>1195.75</ele><time>2026-04-25T10:37:09.457Z</time></trkpt><trkpt lat="45.8973734" lon="11.5588967"><ele>1190.5</ele><time>2026-04-25T10:37:10.45Z</time></trkpt><trkpt lat="45.8972606" lon="11.5589053"><ele>1185.25</ele><time>2026-04-25T10:37:11.465Z</time></trkpt><trkpt lat="45.8971358" lon="11.5589467"><ele>1180.0</ele><time>2026-04-25T10:37:12.461Z</time></trkpt><trkpt lat="45.8970005" lon="11.5590001"><ele>1180.0</ele><time>2026-04-25T10:37:13.461Z</time></trkpt><trkpt lat="45.8968722" lon="11.5590466"><ele>1180.0</ele><time>2026-04-25T10:37:14.463Z</time></trkpt><trkpt lat="45.8967335" lon="11.5590581"><ele>1180.0</ele><time>2026-04-25T10:37:15.445Z</time></trkpt><trkpt lat="45.8965953" lon="11.559057"><ele>1180.0</ele><time>2026-04-25T10:37:16.46Z</time></trkpt><trkpt lat="45.8964683" lon="11.559023"><ele>1178.4</ele><time>2026-04-25T10:37:17.445Z</time></trkpt><trkpt lat="45.8963539" lon="11.558999"><ele>1176.8</ele><time>2026-04-25T10:37:18.438Z</time></trkpt><trkpt lat="45.8962474" lon="11.5589971"><ele>1175.2</ele><time>2026-04-25T10:37:19.452Z</time></trkpt><trkpt lat="45.8961526" lon="11.559029"><ele>1173.6</ele><time>2026-04-25T10:37:20.445Z</time></trkpt><trkpt lat="45.8960716" lon="11.559129"><ele>1172.0</ele><time>2026-04-25T10:37:21.488Z</time></trkpt><trkpt lat="45.8959875" lon="11.5594178"><ele>1168.75</ele><time>2026-04-25T10:37:23.447Z</time></trkpt><trkpt lat="45.895988" lon="11.5596071"><ele>1165.5</ele><time>2026-04-25T10:37:24.449Z</time></trkpt><trkpt lat="45.8959562" lon="11.5598047"><ele>1162.25</ele><time>2026-04-25T10:37:25.445Z</time></trkpt><trkpt lat="45.8959159" lon="11.5599931"><ele>1159.0</ele><time>2026-04-25T10:37:26.44Z</time></trkpt><trkpt lat="45.8958684" lon="11.5601607"><ele>1159.0</ele><time>2026-04-25T10:37:27.46Z</time></trkpt><trkpt lat="45.8958025" lon="11.5603111"><ele>1159.0</ele><time>2026-04-25T10:37:28.459Z</time></trkpt><trkpt lat="45.8957335" lon="11.5604465"><ele>1159.0</ele><time>2026-04-25T10:37:29.462Z</time></trkpt><trkpt lat="45.8956672" lon="11.5605654"><ele>1159.0</ele><time>2026-04-25T10:37:30.461Z</time></trkpt><trkpt lat="45.8955809" lon="11.5606485"><ele>1159.0</ele><time>2026-04-25T10:37:31.465Z</time></trkpt><trkpt lat="45.895479" lon="11.5606673"><ele>1159.0</ele><time>2026-04-25T10:37:32.453Z</time></trkpt><trkpt lat="45.8953772" lon="11.560621"><ele>1159.0</ele><time>2026-04-25T10:37:33.468Z</time></trkpt><trkpt lat="45.8952715" lon="11.5604997"><ele>1159.0</ele><time>2026-04-25T10:37:34.459Z</time></trkpt><trkpt lat="45.8951596" lon="11.5603176"><ele>1153.3333333333333</ele><time>2026-04-25T10:37:35.455Z</time></trkpt><trkpt lat="45.8950253" lon="11.5600986"><ele>1147.6666666666667</ele><time>2026-04-25T10:37:36.458Z</time></trkpt><trkpt lat="45.8948943" lon="11.5598993"><ele>1142.0</ele><time>2026-04-25T10:37:37.46Z</time></trkpt><trkpt lat="45.8947613" lon="11.5597173"><ele>1147.6666666666667</ele><time>2026-04-25T10:37:38.455Z</time></trkpt><trkpt lat="45.8946508" lon="11.5595301"><ele>1153.3333333333333</ele><time>2026-04-25T10:37:39.454Z</time></trkpt><trkpt lat="45.8945245" lon="11.5593758"><ele>1159.0</ele><time>2026-04-25T10:37:40.458Z</time></trkpt><trkpt lat="45.8943862" lon="11.5592421"><ele>1144.0</ele><time>2026-04-25T10:37:41.449Z</time></trkpt><trkpt lat="45.8942472" lon="11.5591261"><ele>1129.0</ele><time>2026-04-25T10:37:42.451Z</time></trkpt><trkpt lat="45.8939853" lon="11.5588931"><ele>1129.0</ele><time>2026-04-25T10:37:44.474Z</time></trkpt><trkpt lat="45.8938607" lon="11.558765"><ele>1129.0</ele><time>2026-04-25T10:37:45.452Z</time></trkpt><trkpt lat="45.8937278" lon="11.5586043"><ele>1129.0</ele><time>2026-04-25T10:37:46.466Z</time></trkpt><trkpt lat="45.8935911" lon="11.5584199"><ele>1133.0</ele><time>2026-04-25T10:37:47.454Z</time></trkpt><trkpt lat="45.893462" lon="11.5582335"><ele>1137.0</ele><time>2026-04-25T10:37:48.469Z</time></trkpt><trkpt lat="45.8933362" lon="11.558054"><ele>1141.0</ele><time>2026-04-25T10:37:49.458Z</time></trkpt><trkpt lat="45.8932157" lon="11.557877"><ele>1135.6666666666665</ele><time>2026-04-25T10:37:50.458Z</time></trkpt><trkpt lat="45.8930991" lon="11.5577022"><ele>1130.3333333333333</ele><time>2026-04-25T10:37:51.457Z</time></trkpt><trkpt lat="45.8929857" lon="11.5575271"><ele>1125.0</ele><time>2026-04-25T10:37:52.467Z</time></trkpt><trkpt lat="45.8928775" lon="11.557352"><ele>1125.0</ele><time>2026-04-25T10:37:53.464Z</time></trkpt><trkpt lat="45.8927769" lon="11.557175"><ele>1125.0</ele><time>2026-04-25T10:37:54.452Z</time></trkpt><trkpt lat="45.8926835" lon="11.5569952"><ele>1125.0</ele><time>2026-04-25T10:37:55.447Z</time></trkpt><trkpt lat="45.8925954" lon="11.5568167"><ele>1122.0</ele><time>2026-04-25T10:37:56.449Z</time></trkpt><trkpt lat="45.8925121" lon="11.5566366"><ele>1119.0</ele><time>2026-04-25T10:37:57.454Z</time></trkpt><trkpt lat="45.8924398" lon="11.5564494"><ele>1116.0</ele><time>2026-04-25T10:37:58.455Z</time></trkpt><trkpt lat="45.8923815" lon="11.556257"><ele>1113.0</ele><time>2026-04-25T10:37:59.44Z</time></trkpt><trkpt lat="45.892335" lon="11.5560661"><ele>1113.0</ele><time>2026-04-25T10:38:00.453Z</time></trkpt><trkpt lat="45.8923028" lon="11.5558766"><ele>1113.0</ele><time>2026-04-25T10:38:01.454Z</time></trkpt><trkpt lat="45.8922814" lon="11.55569"><ele>1113.0</ele><time>2026-04-25T10:38:02.448Z</time></trkpt><trkpt lat="45.8922637" lon="11.5555064"><ele>1113.0</ele><time>2026-04-25T10:38:03.443Z</time></trkpt><trkpt lat="45.892208" lon="11.5551559"><ele>1113.0</ele><time>2026-04-25T10:38:05.471Z</time></trkpt><trkpt lat="45.8921719" lon="11.5549904"><ele>1113.0</ele><time>2026-04-25T10:38:06.442Z</time></trkpt><trkpt lat="45.8921392" lon="11.5548269"><ele>1113.0</ele><time>2026-04-25T10:38:07.453Z</time></trkpt><trkpt lat="45.892111" lon="11.554655"><ele>1113.0</ele><time>2026-04-25T10:38:08.49Z</time></trkpt><trkpt lat="45.8920914" lon="11.5544796"><ele>1112.25</ele><time>2026-04-25T10:38:09.454Z</time></trkpt><trkpt lat="45.8920818" lon="11.5543065"><ele>1111.5</ele><time>2026-04-25T10:38:10.459Z</time></trkpt><trkpt lat="45.8920763" lon="11.5541349"><ele>1110.75</ele><time>2026-04-25T10:38:11.464Z</time></trkpt><trkpt lat="45.8920702" lon="11.5539547"><ele>1110.0</ele><time>2026-04-25T10:38:12.47Z</time></trkpt><trkpt lat="45.8920693" lon="11.5537789"><ele>1108.4</ele><time>2026-04-25T10:38:13.47Z</time></trkpt><trkpt lat="45.8920735" lon="11.5536111"><ele>1106.8</ele><time>2026-04-25T10:38:14.463Z</time></trkpt><trkpt lat="45.8920818" lon="11.5534505"><ele>1105.2</ele><time>2026-04-25T10:38:15.459Z</time></trkpt><trkpt lat="45.8920885" lon="11.5532959"><ele>1103.6</ele><time>2026-04-25T10:38:16.443Z</time></trkpt><trkpt lat="45.8920871" lon="11.5531449"><ele>1102.0</ele><time>2026-04-25T10:38:17.455Z</time></trkpt><trkpt lat="45.8920774" lon="11.553009"><ele>1102.0</ele><time>2026-04-25T10:38:18.465Z</time></trkpt><trkpt lat="45.892064" lon="11.5528925"><ele>1102.0</ele><time>2026-04-25T10:38:19.455Z</time></trkpt><trkpt lat="45.8920504" lon="11.5527922"><ele>1102.0</ele><time>2026-04-25T10:38:20.458Z</time></trkpt><trkpt lat="45.8920265" lon="11.5526335"><ele>1102.0</ele><time>2026-04-25T10:38:22.465Z</time></trkpt><trkpt lat="45.8920087" lon="11.5525418"><ele>1102.0</ele><time>2026-04-25T10:38:24.458Z</time></trkpt><trkpt lat="45.8919715" lon="11.552172"><ele>1101.6</ele><time>2026-04-25T10:39:07.455Z</time></trkpt><trkpt lat="45.8919799" lon="11.5520793"><ele>1101.2</ele><time>2026-04-25T10:39:08.455Z</time></trkpt><trkpt lat="45.8920039" lon="11.5519177"><ele>1100.8</ele><time>2026-04-25T10:39:10.451Z</time></trkpt><trkpt lat="45.8920251" lon="11.5517352"><ele>1100.4</ele><time>2026-04-25T10:39:12.458Z</time></trkpt><trkpt lat="45.8920386" lon="11.551634"><ele>1100.0</ele><time>2026-04-25T10:39:13.45Z</time></trkpt><trkpt lat="45.8920526" lon="11.5515362"><ele>1099.6666666666667</ele><time>2026-04-25T10:39:14.46Z</time></trkpt><trkpt lat="45.8920633" lon="11.5514382"><ele>1099.3333333333335</ele><time>2026-04-25T10:39:15.448Z</time></trkpt><trkpt lat="45.8920729" lon="11.5513479"><ele>1099.0</ele><time>2026-04-25T10:39:16.447Z</time></trkpt><trkpt lat="45.8920845" lon="11.5512485"><ele>1098.6666666666667</ele><time>2026-04-25T10:39:17.45Z</time></trkpt><trkpt lat="45.8920979" lon="11.5511395"><ele>1098.3333333333333</ele><time>2026-04-25T10:39:18.45Z</time></trkpt><trkpt lat="45.8921134" lon="11.5510183"><ele>1098.0</ele><time>2026-04-25T10:39:19.46Z</time></trkpt><trkpt lat="45.8921298" lon="11.5508877"><ele>1097.6</ele><time>2026-04-25T10:39:20.463Z</time></trkpt><trkpt lat="45.8921445" lon="11.5507622"><ele>1097.1999999999998</ele><time>2026-04-25T10:39:21.463Z</time></trkpt><trkpt lat="45.892159" lon="11.5506496"><ele>1096.8</ele><time>2026-04-25T10:39:22.477Z</time></trkpt><trkpt lat="45.8921729" lon="11.5505438"><ele>1096.3999999999999</ele><time>2026-04-25T10:39:23.455Z</time></trkpt><trkpt lat="45.8921867" lon="11.5504382"><ele>1096.0</ele><time>2026-04-25T10:39:24.445Z</time></trkpt><trkpt lat="45.8922172" lon="11.550215"><ele>1095.0</ele><time>2026-04-25T10:39:26.456Z</time></trkpt><trkpt lat="45.8922304" lon="11.5501103"><ele>1094.0</ele><time>2026-04-25T10:39:27.456Z</time></trkpt><trkpt lat="45.8922451" lon="11.5500004"><ele>1093.0</ele><time>2026-04-25T10:39:28.468Z</time></trkpt><trkpt lat="45.8922606" lon="11.5498838"><ele>1092.0</ele><time>2026-04-25T10:39:29.474Z</time></trkpt><trkpt lat="45.892276" lon="11.5497686"><ele>1091.0</ele><time>2026-04-25T10:39:30.474Z</time></trkpt><trkpt lat="45.8922907" lon="11.5496546"><ele>1090.0</ele><time>2026-04-25T10:39:31.444Z</time></trkpt><trkpt lat="45.8923072" lon="11.5495403"><ele>1089.2</ele><time>2026-04-25T10:39:32.453Z</time></trkpt><trkpt lat="45.8923226" lon="11.5494212"><ele>1088.4</ele><time>2026-04-25T10:39:33.452Z</time></trkpt><trkpt lat="45.8923408" lon="11.5492956"><ele>1087.6</ele><time>2026-04-25T10:39:34.461Z</time></trkpt><trkpt lat="45.8923595" lon="11.5491657"><ele>1086.8</ele><time>2026-04-25T10:39:35.445Z</time></trkpt><trkpt lat="45.8923772" lon="11.5490356"><ele>1086.0</ele><time>2026-04-25T10:39:36.442Z</time></trkpt><trkpt lat="45.8923949" lon="11.5489052"><ele>1086.0</ele><time>2026-04-25T10:39:37.442Z</time></trkpt><trkpt lat="45.892412" lon="11.5487725"><ele>1086.0</ele><time>2026-04-25T10:39:38.453Z</time></trkpt><trkpt lat="45.8924273" lon="11.5486361"><ele>1086.0</ele><time>2026-04-25T10:39:39.445Z</time></trkpt><trkpt lat="45.8924448" lon="11.5484906"><ele>1086.0</ele><time>2026-04-25T10:39:40.444Z</time></trkpt><trkpt lat="45.8924632" lon="11.5483391"><ele>1086.0</ele><time>2026-04-25T10:39:41.449Z</time></trkpt><trkpt lat="45.8924774" lon="11.5481907"><ele>1086.0</ele><time>2026-04-25T10:39:42.443Z</time></trkpt><trkpt lat="45.8924887" lon="11.5480477"><ele>1086.0</ele><time>2026-04-25T10:39:43.448Z</time></trkpt><trkpt lat="45.8924958" lon="11.5479134"><ele>1086.0</ele><time>2026-04-25T10:39:44.447Z</time></trkpt><trkpt lat="45.8925104" lon="11.5477861"><ele>1086.0</ele><time>2026-04-25T10:39:45.446Z</time></trkpt><trkpt lat="45.8925427" lon="11.5475187"><ele>1086.2</ele><time>2026-04-25T10:39:47.436Z</time></trkpt><trkpt lat="45.8925729" lon="11.5473857"><ele>1086.3999999999999</ele><time>2026-04-25T10:39:48.445Z</time></trkpt><trkpt lat="45.8926138" lon="11.5472576"><ele>1086.6</ele><time>2026-04-25T10:39:49.451Z</time></trkpt><trkpt lat="45.8926663" lon="11.5471344"><ele>1086.8</ele><time>2026-04-25T10:39:50.446Z</time></trkpt><trkpt lat="45.8927357" lon="11.5470151"><ele>1087.0</ele><time>2026-04-25T10:39:51.445Z</time></trkpt><trkpt lat="45.8928137" lon="11.5469006"><ele>1085.6</ele><time>2026-04-25T10:39:52.442Z</time></trkpt><trkpt lat="45.8928862" lon="11.5467839"><ele>1084.2</ele><time>2026-04-25T10:39:53.443Z</time></trkpt><trkpt lat="45.8929461" lon="11.5466611"><ele>1082.8</ele><time>2026-04-25T10:39:54.447Z</time></trkpt><trkpt lat="45.8929871" lon="11.5465225"><ele>1081.4</ele><time>2026-04-25T10:39:55.447Z</time></trkpt><trkpt lat="45.8930133" lon="11.5463688"><ele>1080.0</ele><time>2026-04-25T10:39:56.452Z</time></trkpt><trkpt lat="45.8930215" lon="11.5462044"><ele>1079.75</ele><time>2026-04-25T10:39:57.443Z</time></trkpt><trkpt lat="45.8930124" lon="11.5460336"><ele>1079.5</ele><time>2026-04-25T10:39:58.446Z</time></trkpt><trkpt lat="45.8929866" lon="11.5458709"><ele>1079.25</ele><time>2026-04-25T10:39:59.439Z</time></trkpt><trkpt lat="45.8929613" lon="11.5457126"><ele>1079.0</ele><time>2026-04-25T10:40:00.453Z</time></trkpt><trkpt lat="45.8929187" lon="11.545562"><ele>1079.0</ele><time>2026-04-25T10:40:01.447Z</time></trkpt><trkpt lat="45.8928758" lon="11.5454228"><ele>1079.0</ele><time>2026-04-25T10:40:02.454Z</time></trkpt><trkpt lat="45.8928389" lon="11.5452841"><ele>1079.0</ele><time>2026-04-25T10:40:03.446Z</time></trkpt><trkpt lat="45.8928163" lon="11.5451712"><ele>1079.0</ele><time>2026-04-25T10:40:04.457Z</time></trkpt><trkpt lat="45.892799" lon="11.5450302"><ele>1079.0</ele><time>2026-04-25T10:40:06.443Z</time></trkpt><trkpt lat="45.8928198" lon="11.5447878"><ele>1079.0</ele><time>2026-04-25T10:40:13.439Z</time></trkpt><trkpt lat="45.8928267" lon="11.5446902"><ele>1079.0</ele><time>2026-04-25T10:40:14.449Z</time></trkpt><trkpt lat="45.8928198" lon="11.544579"><ele>1079.0</ele><time>2026-04-25T10:40:15.447Z</time></trkpt><trkpt lat="45.8927934" lon="11.5444572"><ele>1079.0</ele><time>2026-04-25T10:40:16.441Z</time></trkpt><trkpt lat="45.892748" lon="11.5443456"><ele>1079.0</ele><time>2026-04-25T10:40:17.441Z</time></trkpt><trkpt lat="45.8926825" lon="11.5442517"><ele>1079.0</ele><time>2026-04-25T10:40:18.439Z</time></trkpt><trkpt lat="45.8926017" lon="11.5441634"><ele>1078.0</ele><time>2026-04-25T10:40:19.463Z</time></trkpt><trkpt lat="45.8925198" lon="11.5440602"><ele>1077.0</ele><time>2026-04-25T10:40:20.455Z</time></trkpt><trkpt lat="45.8924452" lon="11.5439334"><ele>1076.0</ele><time>2026-04-25T10:40:21.454Z</time></trkpt><trkpt lat="45.8923783" lon="11.5437911"><ele>1075.0</ele><time>2026-04-25T10:40:22.463Z</time></trkpt><trkpt lat="45.8923083" lon="11.5436398"><ele>1074.5</ele><time>2026-04-25T10:40:23.446Z</time></trkpt><trkpt lat="45.8922276" lon="11.5434789"><ele>1074.0</ele><time>2026-04-25T10:40:24.452Z</time></trkpt><trkpt lat="45.892138" lon="11.5433118"><ele>1073.5</ele><time>2026-04-25T10:40:25.463Z</time></trkpt><trkpt lat="45.892041" lon="11.5431468"><ele>1073.0</ele><time>2026-04-25T10:40:26.454Z</time></trkpt><trkpt lat="45.8919432" lon="11.5429972"><ele>1073.6666666666667</ele><time>2026-04-25T10:40:27.458Z</time></trkpt><trkpt lat="45.8917566" lon="11.5427449"><ele>1074.3333333333333</ele><time>2026-04-25T10:40:29.475Z</time></trkpt><trkpt lat="45.8916683" lon="11.5426394"><ele>1075.0</ele><time>2026-04-25T10:40:30.457Z</time></trkpt><trkpt lat="45.8915854" lon="11.5425451"><ele>1075.0</ele><time>2026-04-25T10:40:31.447Z</time></trkpt><trkpt lat="45.8915063" lon="11.5424616"><ele>1075.0</ele><time>2026-04-25T10:40:32.446Z</time></trkpt><trkpt lat="45.8914296" lon="11.5423884"><ele>1075.0</ele><time>2026-04-25T10:40:33.446Z</time></trkpt><trkpt lat="45.891361" lon="11.5423211"><ele>1075.0</ele><time>2026-04-25T10:40:34.445Z</time></trkpt><trkpt lat="45.8913058" lon="11.5422573"><ele>1075.0</ele><time>2026-04-25T10:40:35.447Z</time></trkpt><trkpt lat="45.8912571" lon="11.5421997"><ele>1075.0</ele><time>2026-04-25T10:40:36.441Z</time></trkpt><trkpt lat="45.8911746" lon="11.5421074"><ele>1075.0</ele><time>2026-04-25T10:40:38.455Z</time></trkpt><trkpt lat="45.8911266" lon="11.5420339"><ele>1075.0</ele><time>2026-04-25T10:40:40.44Z</time></trkpt><trkpt lat="45.8911258" lon="11.5418945"><ele>1075.0</ele><time>2026-04-25T10:40:43.449Z</time></trkpt><trkpt lat="45.8910825" lon="11.5418271"><ele>1075.0</ele><time>2026-04-25T10:40:45.44Z</time></trkpt><trkpt lat="45.8910083" lon="11.5417692"><ele>1075.0</ele><time>2026-04-25T10:40:48.44Z</time></trkpt><trkpt lat="45.8910174" lon="11.542113"><ele>1075.0</ele><time>2026-04-25T11:04:35.46Z</time></trkpt><trkpt lat="45.8910818" lon="11.5421693"><ele>1075.0</ele><time>2026-04-25T11:04:36.444Z</time></trkpt><trkpt lat="45.89117" lon="11.542238"><ele>1075.0</ele><time>2026-04-25T11:04:37.449Z</time></trkpt><trkpt lat="45.8912567" lon="11.5423104"><ele>1075.0</ele><time>2026-04-25T11:04:38.463Z</time></trkpt><trkpt lat="45.8913508" lon="11.5423845"><ele>1075.0</ele><time>2026-04-25T11:04:39.448Z</time></trkpt><trkpt lat="45.89144" lon="11.5424663"><ele>1075.0</ele><time>2026-04-25T11:04:40.456Z</time></trkpt><trkpt lat="45.891529" lon="11.5425557"><ele>1075.0</ele><time>2026-04-25T11:04:41.451Z</time></trkpt><trkpt lat="45.8916177" lon="11.5426576"><ele>1075.0</ele><time>2026-04-25T11:04:42.435Z</time></trkpt><trkpt lat="45.8917057" lon="11.5427604"><ele>1075.0</ele><time>2026-04-25T11:04:43.437Z</time></trkpt><trkpt lat="45.8918008" lon="11.5428767"><ele>1074.5</ele><time>2026-04-25T11:04:44.433Z</time></trkpt><trkpt lat="45.8918967" lon="11.5430037"><ele>1074.0</ele><time>2026-04-25T11:04:45.447Z</time></trkpt><trkpt lat="45.8919827" lon="11.5431333"><ele>1073.5</ele><time>2026-04-25T11:04:46.448Z</time></trkpt><trkpt lat="45.8920612" lon="11.5432569"><ele>1073.0</ele><time>2026-04-25T11:04:47.435Z</time></trkpt><trkpt lat="45.89213" lon="11.5433757"><ele>1073.0</ele><time>2026-04-25T11:04:48.442Z</time></trkpt><trkpt lat="45.8921928" lon="11.5434875"><ele>1073.0</ele><time>2026-04-25T11:04:49.442Z</time></trkpt><trkpt lat="45.8922456" lon="11.5435984"><ele>1073.0</ele><time>2026-04-25T11:04:50.444Z</time></trkpt><trkpt lat="45.892292" lon="11.5437043"><ele>1073.0</ele><time>2026-04-25T11:04:51.446Z</time></trkpt><trkpt lat="45.8923306" lon="11.5437989"><ele>1073.0</ele><time>2026-04-25T11:04:52.441Z</time></trkpt><trkpt lat="45.8924104" lon="11.5439964"><ele>1073.3333333333335</ele><time>2026-04-25T11:04:54.455Z</time></trkpt><trkpt lat="45.8924489" lon="11.5441156"><ele>1073.6666666666667</ele><time>2026-04-25T11:04:55.452Z</time></trkpt><trkpt lat="45.8924729" lon="11.5442294"><ele>1074.0</ele><time>2026-04-25T11:04:56.468Z</time></trkpt><trkpt lat="45.8924894" lon="11.5443421"><ele>1074.3333333333333</ele><time>2026-04-25T11:04:57.46Z</time></trkpt><trkpt lat="45.8925072" lon="11.5444582"><ele>1074.6666666666665</ele><time>2026-04-25T11:04:58.459Z</time></trkpt><trkpt lat="45.8925336" lon="11.5445717"><ele>1075.0</ele><time>2026-04-25T11:04:59.451Z</time></trkpt><trkpt lat="45.8925748" lon="11.5446687"><ele>1075.6666666666665</ele><time>2026-04-25T11:05:00.457Z</time></trkpt><trkpt lat="45.8926278" lon="11.5447347"><ele>1076.3333333333333</ele><time>2026-04-25T11:05:01.453Z</time></trkpt><trkpt lat="45.8926879" lon="11.5447634"><ele>1077.0</ele><time>2026-04-25T11:05:02.464Z</time></trkpt><trkpt lat="45.892784" lon="11.5446869"><ele>1077.6666666666667</ele><time>2026-04-25T11:05:04.452Z</time></trkpt><trkpt lat="45.8928031" lon="11.5445964"><ele>1078.3333333333335</ele><time>2026-04-25T11:05:05.448Z</time></trkpt><trkpt lat="45.8927934" lon="11.5444945"><ele>1079.0</ele><time>2026-04-25T11:05:06.456Z</time></trkpt><trkpt lat="45.8927674" lon="11.5443934"><ele>1079.0</ele><time>2026-04-25T11:05:07.461Z</time></trkpt><trkpt lat="45.8927416" lon="11.5442887"><ele>1079.0</ele><time>2026-04-25T11:05:08.454Z</time></trkpt><trkpt lat="45.8927325" lon="11.5441727"><ele>1079.0</ele><time>2026-04-25T11:05:09.462Z</time></trkpt><trkpt lat="45.8927518" lon="11.5440479"><ele>1079.0</ele><time>2026-04-25T11:05:10.448Z</time></trkpt><trkpt lat="45.8927959" lon="11.5439053"><ele>1079.0</ele><time>2026-04-25T11:05:11.466Z</time></trkpt><trkpt lat="45.8928456" lon="11.5437554"><ele>1077.6666666666667</ele><time>2026-04-25T11:05:12.458Z</time></trkpt><trkpt lat="45.8928982" lon="11.5435906"><ele>1076.3333333333333</ele><time>2026-04-25T11:05:13.468Z</time></trkpt><trkpt lat="45.8930014" lon="11.5432129"><ele>1075.0</ele><time>2026-04-25T11:05:15.46Z</time></trkpt><trkpt lat="45.8930472" lon="11.5430341"><ele>1075.8</ele><time>2026-04-25T11:05:16.449Z</time></trkpt><trkpt lat="45.8930831" lon="11.542866"><ele>1076.6</ele><time>2026-04-25T11:05:17.461Z</time></trkpt><trkpt lat="45.8931103" lon="11.5427108"><ele>1077.4</ele><time>2026-04-25T11:05:18.456Z</time></trkpt><trkpt lat="45.8931322" lon="11.5425709"><ele>1078.2</ele><time>2026-04-25T11:05:19.442Z</time></trkpt><trkpt lat="45.8931516" lon="11.5424326"><ele>1079.0</ele><time>2026-04-25T11:05:20.442Z</time></trkpt><trkpt lat="45.8931669" lon="11.5423086"><ele>1079.0</ele><time>2026-04-25T11:05:21.445Z</time></trkpt><trkpt lat="45.8931811" lon="11.5421895"><ele>1079.0</ele><time>2026-04-25T11:05:22.441Z</time></trkpt><trkpt lat="45.8932225" lon="11.5420818"><ele>1079.0</ele><time>2026-04-25T11:05:23.437Z</time></trkpt><trkpt lat="45.8932856" lon="11.5419988"><ele>1079.0</ele><time>2026-04-25T11:05:24.444Z</time></trkpt><trkpt lat="45.8933576" lon="11.5419206"><ele>1079.0</ele><time>2026-04-25T11:05:25.449Z</time></trkpt><trkpt lat="45.8934143" lon="11.5418455"><ele>1079.0</ele><time>2026-04-25T11:05:26.439Z</time></trkpt><trkpt lat="45.8934448" lon="11.5417605"><ele>1079.8333333333335</ele><time>2026-04-25T11:05:27.425Z</time></trkpt><trkpt lat="45.8934462" lon="11.5416652"><ele>1080.6666666666667</ele><time>2026-04-25T11:05:28.429Z</time></trkpt><trkpt lat="45.8934155" lon="11.5415676"><ele>1081.5</ele><time>2026-04-25T11:05:29.44Z</time></trkpt><trkpt lat="45.8933545" lon="11.5414953"><ele>1082.3333333333333</ele><time>2026-04-25T11:05:30.441Z</time></trkpt><trkpt lat="45.893272" lon="11.5414589"><ele>1083.1666666666665</ele><time>2026-04-25T11:05:31.443Z</time></trkpt><trkpt lat="45.8931776" lon="11.5414529"><ele>1084.0</ele><time>2026-04-25T11:05:32.434Z</time></trkpt><trkpt lat="45.8930781" lon="11.5414594"><ele>1084.0</ele><time>2026-04-25T11:05:33.448Z</time></trkpt><trkpt lat="45.8929781" lon="11.5414584"><ele>1084.0</ele><time>2026-04-25T11:05:34.445Z</time></trkpt><trkpt lat="45.8927941" lon="11.5413758"><ele>1084.0</ele><time>2026-04-25T11:05:36.443Z</time></trkpt><trkpt lat="45.8927085" lon="11.5412734"><ele>1084.0</ele><time>2026-04-25T11:05:37.444Z</time></trkpt><trkpt lat="45.8926231" lon="11.541143"><ele>1086.5</ele><time>2026-04-25T11:05:38.442Z</time></trkpt><trkpt lat="45.8925332" lon="11.5409976"><ele>1089.0</ele><time>2026-04-25T11:05:39.447Z</time></trkpt><trkpt lat="45.8924375" lon="11.5408549"><ele>1091.5</ele><time>2026-04-25T11:05:40.443Z</time></trkpt><trkpt lat="45.8923383" lon="11.540719"><ele>1094.0</ele><time>2026-04-25T11:05:41.443Z</time></trkpt><trkpt lat="45.8922378" lon="11.5405894"><ele>1094.0</ele><time>2026-04-25T11:05:42.46Z</time></trkpt><trkpt lat="45.8921387" lon="11.5404748"><ele>1094.0</ele><time>2026-04-25T11:05:43.442Z</time></trkpt><trkpt lat="45.8920336" lon="11.5403789"><ele>1094.0</ele><time>2026-04-25T11:05:44.44Z</time></trkpt><trkpt lat="45.8919224" lon="11.5402993"><ele>1094.0</ele><time>2026-04-25T11:05:45.439Z</time></trkpt><trkpt lat="45.8918047" lon="11.5402313"><ele>1095.6000000000001</ele><time>2026-04-25T11:05:46.443Z</time></trkpt><trkpt lat="45.8916921" lon="11.5401733"><ele>1097.2</ele><time>2026-04-25T11:05:47.45Z</time></trkpt><trkpt lat="45.8915904" lon="11.5401177"><ele>1098.8000000000002</ele><time>2026-04-25T11:05:48.436Z</time></trkpt><trkpt lat="45.8914943" lon="11.5400519"><ele>1100.4</ele><time>2026-04-25T11:05:49.46Z</time></trkpt><trkpt lat="45.891409" lon="11.5399621"><ele>1102.0</ele><time>2026-04-25T11:05:50.448Z</time></trkpt><trkpt lat="45.8913285" lon="11.539851"><ele>1102.0</ele><time>2026-04-25T11:05:51.445Z</time></trkpt><trkpt lat="45.8912553" lon="11.5397404"><ele>1102.0</ele><time>2026-04-25T11:05:52.442Z</time></trkpt><trkpt lat="45.8911891" lon="11.5396356"><ele>1102.0</ele><time>2026-04-25T11:05:53.449Z</time></trkpt><trkpt lat="45.8911268" lon="11.5395375"><ele>1102.0</ele><time>2026-04-25T11:05:54.466Z</time></trkpt><trkpt lat="45.891067" lon="11.5394496"><ele>1102.0</ele><time>2026-04-25T11:05:55.438Z</time></trkpt><trkpt lat="45.8909344" lon="11.5393123"><ele>1103.8333333333333</ele><time>2026-04-25T11:05:57.438Z</time></trkpt><trkpt lat="45.890866" lon="11.5392685"><ele>1105.6666666666665</ele><time>2026-04-25T11:05:58.449Z</time></trkpt><trkpt lat="45.8907933" lon="11.5392256"><ele>1107.5</ele><time>2026-04-25T11:05:59.443Z</time></trkpt><trkpt lat="45.8907171" lon="11.539181"><ele>1109.3333333333333</ele><time>2026-04-25T11:06:00.446Z</time></trkpt><trkpt lat="45.8906356" lon="11.5391354"><ele>1111.1666666666667</ele><time>2026-04-25T11:06:01.43Z</time></trkpt><trkpt lat="45.8905497" lon="11.5390882"><ele>1113.0</ele><time>2026-04-25T11:06:02.441Z</time></trkpt><trkpt lat="45.8904641" lon="11.5390376"><ele>1113.0</ele><time>2026-04-25T11:06:03.453Z</time></trkpt><trkpt lat="45.8903859" lon="11.5389855"><ele>1113.0</ele><time>2026-04-25T11:06:04.451Z</time></trkpt><trkpt lat="45.8903207" lon="11.5389373"><ele>1113.0</ele><time>2026-04-25T11:06:05.452Z</time></trkpt><trkpt lat="45.8902443" lon="11.5388326"><ele>1113.0</ele><time>2026-04-25T11:06:07.447Z</time></trkpt><trkpt lat="45.8902689" lon="11.5387325"><ele>1113.0</ele><time>2026-04-25T11:06:09.463Z</time></trkpt><trkpt lat="45.8903755" lon="11.5387276"><ele>1113.0</ele><time>2026-04-25T11:06:11.446Z</time></trkpt><trkpt lat="45.890448" lon="11.5387421"><ele>1113.0</ele><time>2026-04-25T11:06:12.459Z</time></trkpt><trkpt lat="45.8905228" lon="11.5387489"><ele>1113.0</ele><time>2026-04-25T11:06:13.452Z</time></trkpt><trkpt lat="45.8906072" lon="11.5387563"><ele>1113.0</ele><time>2026-04-25T11:06:14.453Z</time></trkpt><trkpt lat="45.8907084" lon="11.5387528"><ele>1113.0</ele><time>2026-04-25T11:06:15.451Z</time></trkpt><trkpt lat="45.890817" lon="11.5387418"><ele>1113.0</ele><time>2026-04-25T11:06:16.446Z</time></trkpt><trkpt lat="45.891063" lon="11.538678"><ele>1117.25</ele><time>2026-04-25T11:06:18.455Z</time></trkpt><trkpt lat="45.8911822" lon="11.5386169"><ele>1121.5</ele><time>2026-04-25T11:06:19.459Z</time></trkpt><trkpt lat="45.8912881" lon="11.5385534"><ele>1125.75</ele><time>2026-04-25T11:06:20.461Z</time></trkpt><trkpt lat="45.8913849" lon="11.5384732"><ele>1130.0</ele><time>2026-04-25T11:06:21.453Z</time></trkpt><trkpt lat="45.8914647" lon="11.5383631"><ele>1130.0</ele><time>2026-04-25T11:06:22.466Z</time></trkpt><trkpt lat="45.89153" lon="11.5382337"><ele>1130.0</ele><time>2026-04-25T11:06:23.455Z</time></trkpt><trkpt lat="45.8915896" lon="11.5381012"><ele>1130.0</ele><time>2026-04-25T11:06:24.467Z</time></trkpt><trkpt lat="45.8916526" lon="11.5379769"><ele>1130.0</ele><time>2026-04-25T11:06:25.464Z</time></trkpt><trkpt lat="45.8917193" lon="11.5378705"><ele>1130.0</ele><time>2026-04-25T11:06:26.465Z</time></trkpt><trkpt lat="45.8917937" lon="11.5377823"><ele>1130.25</ele><time>2026-04-25T11:06:27.458Z</time></trkpt><trkpt lat="45.8918839" lon="11.5377153"><ele>1130.5</ele><time>2026-04-25T11:06:28.453Z</time></trkpt><trkpt lat="45.8919928" lon="11.5376711"><ele>1130.75</ele><time>2026-04-25T11:06:29.449Z</time></trkpt><trkpt lat="45.8921119" lon="11.5376502"><ele>1131.0</ele><time>2026-04-25T11:06:30.463Z</time></trkpt><trkpt lat="45.8922301" lon="11.5376438"><ele>1131.0</ele><time>2026-04-25T11:06:31.477Z</time></trkpt><trkpt lat="45.8923497" lon="11.5376382"><ele>1131.0</ele><time>2026-04-25T11:06:32.48Z</time></trkpt><trkpt lat="45.8924697" lon="11.5376229"><ele>1131.0</ele><time>2026-04-25T11:06:33.486Z</time></trkpt><trkpt lat="45.8925824" lon="11.5375923"><ele>1131.0</ele><time>2026-04-25T11:06:34.473Z</time></trkpt><trkpt lat="45.8926909" lon="11.5375456"><ele>1133.5</ele><time>2026-04-25T11:06:35.491Z</time></trkpt><trkpt lat="45.8927943" lon="11.5374914"><ele>1136.0</ele><time>2026-04-25T11:06:36.455Z</time></trkpt><trkpt lat="45.8928963" lon="11.5374375"><ele>1138.5</ele><time>2026-04-25T11:06:37.479Z</time></trkpt><trkpt lat="45.8931086" lon="11.5373402"><ele>1141.0</ele><time>2026-04-25T11:06:39.476Z</time></trkpt><trkpt lat="45.8932222" lon="11.5373139"><ele>1141.0</ele><time>2026-04-25T11:06:40.47Z</time></trkpt><trkpt lat="45.893337" lon="11.5372969"><ele>1141.0</ele><time>2026-04-25T11:06:41.472Z</time></trkpt><trkpt lat="45.8934508" lon="11.537262"><ele>1141.0</ele><time>2026-04-25T11:06:42.462Z</time></trkpt><trkpt lat="45.8935712" lon="11.5371879"><ele>1141.0</ele><time>2026-04-25T11:06:43.477Z</time></trkpt><trkpt lat="45.8936943" lon="11.5370856"><ele>1140.75</ele><time>2026-04-25T11:06:44.473Z</time></trkpt><trkpt lat="45.893803" lon="11.536978"><ele>1140.5</ele><time>2026-04-25T11:06:45.478Z</time></trkpt><trkpt lat="45.8939019" lon="11.5368739"><ele>1140.25</ele><time>2026-04-25T11:06:46.483Z</time></trkpt><trkpt lat="45.8939984" lon="11.5367772"><ele>1140.0</ele><time>2026-04-25T11:06:47.47Z</time></trkpt><trkpt lat="45.8940956" lon="11.5366839"><ele>1140.0</ele><time>2026-04-25T11:06:48.467Z</time></trkpt><trkpt lat="45.8941907" lon="11.5365872"><ele>1140.0</ele><time>2026-04-25T11:06:49.473Z</time></trkpt><trkpt lat="45.894275" lon="11.5364926"><ele>1140.0</ele><time>2026-04-25T11:06:50.475Z</time></trkpt><trkpt lat="45.8943512" lon="11.5364028"><ele>1140.0</ele><time>2026-04-25T11:06:51.464Z</time></trkpt><trkpt lat="45.8944146" lon="11.5363229"><ele>1140.0</ele><time>2026-04-25T11:06:52.468Z</time></trkpt><trkpt lat="45.8944663" lon="11.5362506"><ele>1140.0</ele><time>2026-04-25T11:06:53.487Z</time></trkpt><trkpt lat="45.8945474" lon="11.5361272"><ele>1140.0</ele><time>2026-04-25T11:06:55.471Z</time></trkpt><trkpt lat="45.8946349" lon="11.5360113"><ele>1140.0</ele><time>2026-04-25T11:06:57.467Z</time></trkpt><trkpt lat="45.8946908" lon="11.5359551"><ele>1140.0</ele><time>2026-04-25T11:06:58.474Z</time></trkpt><trkpt lat="45.8948119" lon="11.535851"><ele>1140.0</ele><time>2026-04-25T11:07:00.481Z</time></trkpt><trkpt lat="45.8949002" lon="11.5358023"><ele>1140.0</ele><time>2026-04-25T11:07:01.472Z</time></trkpt><trkpt lat="45.8949963" lon="11.5357641"><ele>1140.0</ele><time>2026-04-25T11:07:02.462Z</time></trkpt><trkpt lat="45.8950981" lon="11.5357278"><ele>1140.0</ele><time>2026-04-25T11:07:03.467Z</time></trkpt><trkpt lat="45.8952023" lon="11.5356868"><ele>1140.0</ele><time>2026-04-25T11:07:04.469Z</time></trkpt><trkpt lat="45.8952924" lon="11.5356376"><ele>1140.0</ele><time>2026-04-25T11:07:05.456Z</time></trkpt><trkpt lat="45.8953841" lon="11.5355904"><ele>1141.0</ele><time>2026-04-25T11:07:06.447Z</time></trkpt><trkpt lat="45.8954836" lon="11.5355497"><ele>1142.0</ele><time>2026-04-25T11:07:07.462Z</time></trkpt><trkpt lat="45.8955853" lon="11.5355056"><ele>1143.0</ele><time>2026-04-25T11:07:08.474Z</time></trkpt><trkpt lat="45.8956816" lon="11.5354564"><ele>1144.0</ele><time>2026-04-25T11:07:09.463Z</time></trkpt><trkpt lat="45.8957786" lon="11.5354021"><ele>1145.0</ele><time>2026-04-25T11:07:10.47Z</time></trkpt><trkpt lat="45.8958691" lon="11.5353422"><ele>1143.6666666666667</ele><time>2026-04-25T11:07:11.471Z</time></trkpt><trkpt lat="45.8959578" lon="11.5352832"><ele>1142.3333333333335</ele><time>2026-04-25T11:07:12.474Z</time></trkpt><trkpt lat="45.8960384" lon="11.5352208"><ele>1141.0</ele><time>2026-04-25T11:07:13.473Z</time></trkpt><trkpt lat="45.8961173" lon="11.5351593"><ele>1139.6666666666667</ele><time>2026-04-25T11:07:14.478Z</time></trkpt><trkpt lat="45.8961921" lon="11.5351045"><ele>1138.3333333333333</ele><time>2026-04-25T11:07:15.463Z</time></trkpt><trkpt lat="45.8962637" lon="11.5350441"><ele>1137.0</ele><time>2026-04-25T11:07:16.477Z</time></trkpt><trkpt lat="45.8963337" lon="11.5349631"><ele>1137.0</ele><time>2026-04-25T11:07:17.475Z</time></trkpt><trkpt lat="45.8964028" lon="11.5348643"><ele>1137.0</ele><time>2026-04-25T11:07:18.447Z</time></trkpt><trkpt lat="45.8964694" lon="11.5347693"><ele>1137.0</ele><time>2026-04-25T11:07:19.443Z</time></trkpt><trkpt lat="45.8966155" lon="11.534589"><ele>1137.0</ele><time>2026-04-25T11:07:21.447Z</time></trkpt><trkpt lat="45.8966941" lon="11.5344918"><ele>1138.0</ele><time>2026-04-25T11:07:22.447Z</time></trkpt><trkpt lat="45.8967669" lon="11.5343941"><ele>1139.0</ele><time>2026-04-25T11:07:23.459Z</time></trkpt><trkpt lat="45.8968345" lon="11.534301"><ele>1140.0</ele><time>2026-04-25T11:07:24.455Z</time></trkpt><trkpt lat="45.8969048" lon="11.5342193"><ele>1141.0</ele><time>2026-04-25T11:07:25.462Z</time></trkpt><trkpt lat="45.8969816" lon="11.5341362"><ele>1142.0</ele><time>2026-04-25T11:07:26.452Z</time></trkpt><trkpt lat="45.897083" lon="11.5340671"><ele>1142.0</ele><time>2026-04-25T11:07:27.445Z</time></trkpt><trkpt lat="45.8971879" lon="11.5339931"><ele>1142.0</ele><time>2026-04-25T11:07:28.456Z</time></trkpt><trkpt lat="45.897287" lon="11.5338966"><ele>1142.0</ele><time>2026-04-25T11:07:29.451Z</time></trkpt><trkpt lat="45.8973707" lon="11.5337875"><ele>1142.0</ele><time>2026-04-25T11:07:30.465Z</time></trkpt><trkpt lat="45.8974498" lon="11.533666"><ele>1141.8</ele><time>2026-04-25T11:07:31.453Z</time></trkpt><trkpt lat="45.8975255" lon="11.5335507"><ele>1141.6</ele><time>2026-04-25T11:07:32.456Z</time></trkpt><trkpt lat="45.8975992" lon="11.533444"><ele>1141.3999999999999</ele><time>2026-04-25T11:07:33.449Z</time></trkpt><trkpt lat="45.897672" lon="11.5333366"><ele>1141.2</ele><time>2026-04-25T11:07:34.457Z</time></trkpt><trkpt lat="45.8977483" lon="11.5332304"><ele>1141.0</ele><time>2026-04-25T11:07:35.456Z</time></trkpt><trkpt lat="45.8978292" lon="11.5331322"><ele>1141.0</ele><time>2026-04-25T11:07:36.456Z</time></trkpt><trkpt lat="45.8979135" lon="11.5330465"><ele>1141.0</ele><time>2026-04-25T11:07:37.459Z</time></trkpt><trkpt lat="45.8980007" lon="11.5329583"><ele>1141.0</ele><time>2026-04-25T11:07:38.457Z</time></trkpt><trkpt lat="45.8981013" lon="11.532869"><ele>1141.0</ele><time>2026-04-25T11:07:39.458Z</time></trkpt><trkpt lat="45.8982029" lon="11.532779"><ele>1141.0</ele><time>2026-04-25T11:07:40.442Z</time></trkpt><trkpt lat="45.8983954" lon="11.5325933"><ele>1139.6</ele><time>2026-04-25T11:07:42.477Z</time></trkpt><trkpt lat="45.8984708" lon="11.5324766"><ele>1138.1999999999998</ele><time>2026-04-25T11:07:43.477Z</time></trkpt><trkpt lat="45.8985432" lon="11.532352"><ele>1136.8000000000002</ele><time>2026-04-25T11:07:44.461Z</time></trkpt><trkpt lat="45.8986098" lon="11.5322407"><ele>1135.4</ele><time>2026-04-25T11:07:45.454Z</time></trkpt><trkpt lat="45.8986862" lon="11.5321463"><ele>1134.0</ele><time>2026-04-25T11:07:46.461Z</time></trkpt><trkpt lat="45.8987708" lon="11.532068"><ele>1134.25</ele><time>2026-04-25T11:07:47.464Z</time></trkpt><trkpt lat="45.8988653" lon="11.5319994"><ele>1134.5</ele><time>2026-04-25T11:07:48.469Z</time></trkpt><trkpt lat="45.89897" lon="11.5319447"><ele>1134.75</ele><time>2026-04-25T11:07:49.461Z</time></trkpt><trkpt lat="45.8990832" lon="11.531902"><ele>1135.0</ele><time>2026-04-25T11:07:50.458Z</time></trkpt><trkpt lat="45.8992188" lon="11.5318622"><ele>1137.0</ele><time>2026-04-25T11:07:51.465Z</time></trkpt><trkpt lat="45.8993633" lon="11.5318207"><ele>1139.0</ele><time>2026-04-25T11:07:52.486Z</time></trkpt><trkpt lat="45.8995171" lon="11.5317792"><ele>1141.0</ele><time>2026-04-25T11:07:53.477Z</time></trkpt><trkpt lat="45.8996556" lon="11.5317425"><ele>1143.0</ele><time>2026-04-25T11:07:54.458Z</time></trkpt><trkpt lat="45.8997607" lon="11.5317028"><ele>1143.0</ele><time>2026-04-25T11:07:55.451Z</time></trkpt><trkpt lat="45.8998456" lon="11.5316727"><ele>1143.0</ele><time>2026-04-25T11:07:56.459Z</time></trkpt><trkpt lat="45.8999489" lon="11.5316481"><ele>1143.0</ele><time>2026-04-25T11:07:58.461Z</time></trkpt><trkpt lat="45.9000336" lon="11.5316174"><ele>1143.0</ele><time>2026-04-25T11:08:00.474Z</time></trkpt><trkpt lat="45.9001267" lon="11.5315668"><ele>1143.0</ele><time>2026-04-25T11:08:02.457Z</time></trkpt><trkpt lat="45.9001546" lon="11.5313815"><ele>1144.3333333333333</ele><time>2026-04-25T11:08:06.46Z</time></trkpt><trkpt lat="45.9001295" lon="11.5312782"><ele>1145.6666666666667</ele><time>2026-04-25T11:08:08.459Z</time></trkpt><trkpt lat="45.9000937" lon="11.5311767"><ele>1147.0</ele><time>2026-04-25T11:08:10.455Z</time></trkpt><trkpt lat="45.9000652" lon="11.5310404"><ele>1148.3333333333335</ele><time>2026-04-25T11:08:12.464Z</time></trkpt><trkpt lat="45.9000867" lon="11.5309097"><ele>1149.6666666666667</ele><time>2026-04-25T11:08:14.457Z</time></trkpt><trkpt lat="45.9001446" lon="11.5307897"><ele>1151.0</ele><time>2026-04-25T11:08:16.452Z</time></trkpt><trkpt lat="45.9002023" lon="11.5306678"><ele>1153.0</ele><time>2026-04-25T11:08:18.448Z</time></trkpt><trkpt lat="45.9002522" lon="11.5305242"><ele>1155.0</ele><time>2026-04-25T11:08:20.457Z</time></trkpt><trkpt lat="45.9002822" lon="11.5303909"><ele>1157.0</ele><time>2026-04-25T11:08:22.455Z</time></trkpt><trkpt lat="45.9003051" lon="11.5302994"><ele>1159.0</ele><time>2026-04-25T11:08:23.454Z</time></trkpt><trkpt lat="45.900355" lon="11.5301094"><ele>1161.0</ele><time>2026-04-25T11:08:25.459Z</time></trkpt><trkpt lat="45.9003851" lon="11.5300135"><ele>1162.6666666666667</ele><time>2026-04-25T11:08:26.458Z</time></trkpt><trkpt lat="45.9004173" lon="11.5299121"><ele>1164.3333333333333</ele><time>2026-04-25T11:08:27.454Z</time></trkpt><trkpt lat="45.9004581" lon="11.5298128"><ele>1166.0</ele><time>2026-04-25T11:08:28.448Z</time></trkpt><trkpt lat="45.9005084" lon="11.5297005"><ele>1167.6666666666665</ele><time>2026-04-25T11:08:29.472Z</time></trkpt><trkpt lat="45.9005617" lon="11.5295858"><ele>1169.3333333333333</ele><time>2026-04-25T11:08:30.472Z</time></trkpt><trkpt lat="45.900617" lon="11.5294814"><ele>1171.0</ele><time>2026-04-25T11:08:31.455Z</time></trkpt><trkpt lat="45.900663" lon="11.5293949"><ele>1171.1666666666665</ele><time>2026-04-25T11:08:32.476Z</time></trkpt><trkpt lat="45.9007286" lon="11.5292581"><ele>1171.3333333333333</ele><time>2026-04-25T11:08:34.452Z</time></trkpt><trkpt lat="45.9007664" lon="11.5291698"><ele>1171.5</ele><time>2026-04-25T11:08:36.456Z</time></trkpt><trkpt lat="45.9007878" lon="11.5290667"><ele>1171.6666666666667</ele><time>2026-04-25T11:08:40.473Z</time></trkpt><trkpt lat="45.9007898" lon="11.5289641"><ele>1171.8333333333335</ele><time>2026-04-25T11:08:43.469Z</time></trkpt><trkpt lat="45.9007786" lon="11.5288427"><ele>1172.0</ele><time>2026-04-25T11:08:45.472Z</time></trkpt><trkpt lat="45.9007709" lon="11.5285562"><ele>1172.0</ele><time>2026-04-25T11:08:49.465Z</time></trkpt><trkpt lat="45.9008163" lon="11.5284321"><ele>1172.0</ele><time>2026-04-25T11:08:51.463Z</time></trkpt><trkpt lat="45.9008935" lon="11.5283001"><ele>1172.0</ele><time>2026-04-25T11:08:53.473Z</time></trkpt><trkpt lat="45.9009858" lon="11.5282036"><ele>1172.0</ele><time>2026-04-25T11:08:55.47Z</time></trkpt><trkpt lat="45.9010566" lon="11.5281777"><ele>1172.0</ele><time>2026-04-25T11:08:58.488Z</time></trkpt><trkpt lat="45.9011528" lon="11.5281123"><ele>1173.8</ele><time>2026-04-25T11:09:00.531Z</time></trkpt><trkpt lat="45.9012476" lon="11.5280551"><ele>1175.6</ele><time>2026-04-25T11:09:02.459Z</time></trkpt><trkpt lat="45.9013137" lon="11.5280583"><ele>1177.3999999999999</ele><time>2026-04-25T11:09:04.444Z</time></trkpt><trkpt lat="45.9013978" lon="11.527947"><ele>1179.2</ele><time>2026-04-25T11:09:05.445Z</time></trkpt><trkpt lat="45.9014801" lon="11.5278379"><ele>1181.0</ele><time>2026-04-25T11:09:06.45Z</time></trkpt><trkpt lat="45.9016419" lon="11.5276121"><ele>1181.5</ele><time>2026-04-25T11:09:08.453Z</time></trkpt><trkpt lat="45.9017049" lon="11.5275286"><ele>1182.0</ele><time>2026-04-25T11:09:09.456Z</time></trkpt><trkpt lat="45.9017461" lon="11.5274377"><ele>1182.5</ele><time>2026-04-25T11:09:10.485Z</time></trkpt><trkpt lat="45.9017398" lon="11.5272876"><ele>1183.0</ele><time>2026-04-25T11:09:12.452Z</time></trkpt><trkpt lat="45.9016662" lon="11.5271586"><ele>1183.5</ele><time>2026-04-25T11:09:14.469Z</time></trkpt><trkpt lat="45.9016195" lon="11.5270948"><ele>1184.0</ele><time>2026-04-25T11:09:15.443Z</time></trkpt><trkpt lat="45.9015521" lon="11.5270701"><ele>1184.0</ele><time>2026-04-25T11:09:16.456Z</time></trkpt><trkpt lat="45.9014724" lon="11.5270669"><ele>1184.0</ele><time>2026-04-25T11:09:17.457Z</time></trkpt><trkpt lat="45.901365" lon="11.5270569"><ele>1184.0</ele><time>2026-04-25T11:09:18.447Z</time></trkpt><trkpt lat="45.9012547" lon="11.527045"><ele>1184.0</ele><time>2026-04-25T11:09:19.451Z</time></trkpt><trkpt lat="45.9011586" lon="11.5270282"><ele>1184.0</ele><time>2026-04-25T11:09:20.441Z</time></trkpt><trkpt lat="45.9010748" lon="11.527005"><ele>1186.1666666666667</ele><time>2026-04-25T11:09:21.447Z</time></trkpt><trkpt lat="45.9009953" lon="11.5269728"><ele>1188.3333333333335</ele><time>2026-04-25T11:09:22.46Z</time></trkpt><trkpt lat="45.900925" lon="11.5269364"><ele>1190.5</ele><time>2026-04-25T11:09:23.451Z</time></trkpt><trkpt lat="45.9008615" lon="11.5268923"><ele>1192.6666666666667</ele><time>2026-04-25T11:09:24.451Z</time></trkpt><trkpt lat="45.9008013" lon="11.5268222"><ele>1194.8333333333333</ele><time>2026-04-25T11:09:25.457Z</time></trkpt><trkpt lat="45.9007236" lon="11.526745"><ele>1197.0</ele><time>2026-04-25T11:09:26.452Z</time></trkpt><trkpt lat="45.9006426" lon="11.5266866"><ele>1197.0</ele><time>2026-04-25T11:09:27.475Z</time></trkpt><trkpt lat="45.900546" lon="11.526538"><ele>1197.0</ele><time>2026-04-25T11:09:32.464Z</time></trkpt><trkpt lat="45.9005577" lon="11.5264359"><ele>1197.0</ele><time>2026-04-25T11:10:06.496Z</time></trkpt><trkpt lat="45.9004385" lon="11.5262577"><ele>1197.0</ele><time>2026-04-25T11:10:10.467Z</time></trkpt><trkpt lat="45.9003701" lon="11.52616"><ele>1197.0</ele><time>2026-04-25T11:10:12.464Z</time></trkpt><trkpt lat="45.9003132" lon="11.5260884"><ele>1197.0</ele><time>2026-04-25T11:10:13.47Z</time></trkpt><trkpt lat="45.9002771" lon="11.5259499"><ele>1197.0</ele><time>2026-04-25T11:10:15.469Z</time></trkpt><trkpt lat="45.9002995" lon="11.5257883"><ele>1197.0</ele><time>2026-04-25T11:10:17.45Z</time></trkpt><trkpt lat="45.9003199" lon="11.5256906"><ele>1197.0</ele><time>2026-04-25T11:10:18.475Z</time></trkpt><trkpt lat="45.9003489" lon="11.5255961"><ele>1197.0</ele><time>2026-04-25T11:10:19.459Z</time></trkpt><trkpt lat="45.9003793" lon="11.525507"><ele>1194.75</ele><time>2026-04-25T11:10:20.453Z</time></trkpt><trkpt lat="45.9004574" lon="11.5253887"><ele>1192.5</ele><time>2026-04-25T11:10:22.457Z</time></trkpt><trkpt lat="45.9005335" lon="11.5252909"><ele>1190.25</ele><time>2026-04-25T11:10:24.489Z</time></trkpt><trkpt lat="45.9005998" lon="11.5251572"><ele>1188.0</ele><time>2026-04-25T11:10:26.463Z</time></trkpt><trkpt lat="45.900621" lon="11.5249814"><ele>1188.0</ele><time>2026-04-25T11:10:28.475Z</time></trkpt><trkpt lat="45.9006032" lon="11.5247973"><ele>1188.0</ele><time>2026-04-25T11:10:30.455Z</time></trkpt><trkpt lat="45.9005861" lon="11.5246207"><ele>1188.0</ele><time>2026-04-25T11:10:32.474Z</time></trkpt><trkpt lat="45.9005871" lon="11.524458"><ele>1188.0</ele><time>2026-04-25T11:10:34.478Z</time></trkpt><trkpt lat="45.9006184" lon="11.5243195"><ele>1185.8333333333333</ele><time>2026-04-25T11:10:36.477Z</time></trkpt><trkpt lat="45.900731" lon="11.5242626"><ele>1183.6666666666667</ele><time>2026-04-25T11:10:38.471Z</time></trkpt><trkpt lat="45.9008064" lon="11.5242739"><ele>1181.5</ele><time>2026-04-25T11:10:39.479Z</time></trkpt><trkpt lat="45.9008844" lon="11.5242903"><ele>1179.3333333333335</ele><time>2026-04-25T11:10:40.471Z</time></trkpt><trkpt lat="45.9009638" lon="11.5243195"><ele>1177.1666666666667</ele><time>2026-04-25T11:10:41.475Z</time></trkpt><trkpt lat="45.9010413" lon="11.5243466"><ele>1175.0</ele><time>2026-04-25T11:10:42.47Z</time></trkpt><trkpt lat="45.9011097" lon="11.5243773"><ele>1174.2857142857142</ele><time>2026-04-25T11:10:43.458Z</time></trkpt><trkpt lat="45.9011766" lon="11.524422"><ele>1173.5714285714287</ele><time>2026-04-25T11:10:44.458Z</time></trkpt><trkpt lat="45.9012441" lon="11.5244691"><ele>1172.857142857143</ele><time>2026-04-25T11:10:45.47Z</time></trkpt><trkpt lat="45.9013143" lon="11.5244936"><ele>1172.142857142857</ele><time>2026-04-25T11:10:46.477Z</time></trkpt><trkpt lat="45.9013911" lon="11.5244996"><ele>1171.4285714285713</ele><time>2026-04-25T11:10:47.467Z</time></trkpt><trkpt lat="45.9014721" lon="11.5244951"><ele>1170.7142857142858</ele><time>2026-04-25T11:10:48.474Z</time></trkpt><trkpt lat="45.9015346" lon="11.5244827"><ele>1170.0</ele><time>2026-04-25T11:10:49.47Z</time></trkpt><trkpt lat="45.9016597" lon="11.524338"><ele>1170.0</ele><time>2026-04-25T11:10:53.446Z</time></trkpt><trkpt lat="45.9016237" lon="11.5242222"><ele>1170.0</ele><time>2026-04-25T11:10:55.446Z</time></trkpt><trkpt lat="45.9015599" lon="11.5241689"><ele>1170.0</ele><time>2026-04-25T11:10:56.452Z</time></trkpt><trkpt lat="45.9014784" lon="11.5241195"><ele>1170.0</ele><time>2026-04-25T11:10:57.451Z</time></trkpt><trkpt lat="45.9013998" lon="11.5240686"><ele>1170.0</ele><time>2026-04-25T11:10:58.448Z</time></trkpt><trkpt lat="45.9013266" lon="11.5240208"><ele>1170.0</ele><time>2026-04-25T11:10:59.46Z</time></trkpt><trkpt lat="45.90126" lon="11.5239581"><ele>1170.0</ele><time>2026-04-25T11:11:00.46Z</time></trkpt><trkpt lat="45.9011759" lon="11.5238899"><ele>1170.0</ele><time>2026-04-25T11:11:01.464Z</time></trkpt><trkpt lat="45.901084" lon="11.5238215"><ele>1170.0</ele><time>2026-04-25T11:11:02.474Z</time></trkpt><trkpt lat="45.900995" lon="11.5237522"><ele>1170.0</ele><time>2026-04-25T11:11:03.45Z</time></trkpt><trkpt lat="45.9009013" lon="11.5236748"><ele>1170.0</ele><time>2026-04-25T11:11:04.458Z</time></trkpt><trkpt lat="45.9008151" lon="11.5235919"><ele>1167.8333333333333</ele><time>2026-04-25T11:11:05.449Z</time></trkpt><trkpt lat="45.9007319" lon="11.5235084"><ele>1165.6666666666667</ele><time>2026-04-25T11:11:06.455Z</time></trkpt><trkpt lat="45.9006529" lon="11.5234309"><ele>1163.5</ele><time>2026-04-25T11:11:07.464Z</time></trkpt><trkpt lat="45.9005792" lon="11.5233629"><ele>1161.3333333333335</ele><time>2026-04-25T11:11:08.454Z</time></trkpt><trkpt lat="45.9005105" lon="11.5232996"><ele>1159.1666666666667</ele><time>2026-04-25T11:11:09.455Z</time></trkpt><trkpt lat="45.9004457" lon="11.5232448"><ele>1157.0</ele><time>2026-04-25T11:11:10.456Z</time></trkpt><trkpt lat="45.9003156" lon="11.5231887"><ele>1157.0</ele><time>2026-04-25T11:11:12.453Z</time></trkpt><trkpt lat="45.9002473" lon="11.52319"><ele>1157.0</ele><time>2026-04-25T11:11:13.451Z</time></trkpt><trkpt lat="45.9001702" lon="11.5232151"><ele>1157.0</ele><time>2026-04-25T11:11:14.457Z</time></trkpt><trkpt lat="45.9000765" lon="11.5232707"><ele>1157.0</ele><time>2026-04-25T11:11:15.468Z</time></trkpt><trkpt lat="45.8999681" lon="11.523354"><ele>1157.0</ele><time>2026-04-25T11:11:16.477Z</time></trkpt><trkpt lat="45.8998451" lon="11.5234654"><ele>1157.0</ele><time>2026-04-25T11:11:17.459Z</time></trkpt><trkpt lat="45.8997094" lon="11.5235946"><ele>1157.0</ele><time>2026-04-25T11:11:18.46Z</time></trkpt><trkpt lat="45.8995777" lon="11.5237429"><ele>1157.0</ele><time>2026-04-25T11:11:19.454Z</time></trkpt><trkpt lat="45.8994586" lon="11.5238773"><ele>1154.75</ele><time>2026-04-25T11:11:20.452Z</time></trkpt><trkpt lat="45.8993465" lon="11.5239943"><ele>1152.5</ele><time>2026-04-25T11:11:21.457Z</time></trkpt><trkpt lat="45.8992305" lon="11.5240893"><ele>1150.25</ele><time>2026-04-25T11:11:22.459Z</time></trkpt><trkpt lat="45.8991102" lon="11.5241533"><ele>1148.0</ele><time>2026-04-25T11:11:23.462Z</time></trkpt><trkpt lat="45.8989936" lon="11.5241834"><ele>1148.0</ele><time>2026-04-25T11:11:24.459Z</time></trkpt><trkpt lat="45.8988787" lon="11.5241891"><ele>1148.0</ele><time>2026-04-25T11:11:25.45Z</time></trkpt><trkpt lat="45.8987635" lon="11.524175"><ele>1148.0</ele><time>2026-04-25T11:11:26.475Z</time></trkpt><trkpt lat="45.8986506" lon="11.5241667"><ele>1148.0</ele><time>2026-04-25T11:11:27.485Z</time></trkpt><trkpt lat="45.8985381" lon="11.5241567"><ele>1148.0</ele><time>2026-04-25T11:11:28.478Z</time></trkpt><trkpt lat="45.8984314" lon="11.524138"><ele>1148.0</ele><time>2026-04-25T11:11:29.473Z</time></trkpt><trkpt lat="45.8983318" lon="11.5241073"><ele>1148.0</ele><time>2026-04-25T11:11:30.477Z</time></trkpt><trkpt lat="45.8982401" lon="11.5240522"><ele>1148.0</ele><time>2026-04-25T11:11:31.469Z</time></trkpt><trkpt lat="45.8980903" lon="11.5238916"><ele>1145.2</ele><time>2026-04-25T11:11:33.457Z</time></trkpt><trkpt lat="45.8980165" lon="11.5238152"><ele>1142.4</ele><time>2026-04-25T11:11:34.446Z</time></trkpt><trkpt lat="45.897939" lon="11.5237527"><ele>1139.6000000000001</ele><time>2026-04-25T11:11:35.445Z</time></trkpt><trkpt lat="45.8978604" lon="11.5237006"><ele>1136.8</ele><time>2026-04-25T11:11:36.471Z</time></trkpt><trkpt lat="45.89779" lon="11.5236655"><ele>1134.0</ele><time>2026-04-25T11:11:37.45Z</time></trkpt><trkpt lat="45.8976921" lon="11.5235932"><ele>1131.6000000000001</ele><time>2026-04-25T11:11:39.468Z</time></trkpt><trkpt lat="45.8976952" lon="11.5234777"><ele>1129.2</ele><time>2026-04-25T11:11:41.469Z</time></trkpt><trkpt lat="45.8977985" lon="11.523407"><ele>1126.8000000000002</ele><time>2026-04-25T11:11:43.487Z</time></trkpt><trkpt lat="45.8978696" lon="11.5233657"><ele>1124.4</ele><time>2026-04-25T11:11:44.469Z</time></trkpt><trkpt lat="45.8979182" lon="11.5232962"><ele>1122.0</ele><time>2026-04-25T11:11:45.471Z</time></trkpt><trkpt lat="45.897899" lon="11.5231257"><ele>1122.0</ele><time>2026-04-25T11:11:47.463Z</time></trkpt><trkpt lat="45.8978343" lon="11.5230507"><ele>1122.0</ele><time>2026-04-25T11:11:48.451Z</time></trkpt><trkpt lat="45.8977374" lon="11.522996"><ele>1122.0</ele><time>2026-04-25T11:11:49.451Z</time></trkpt><trkpt lat="45.8976151" lon="11.5229647"><ele>1122.0</ele><time>2026-04-25T11:11:50.462Z</time></trkpt><trkpt lat="45.8974761" lon="11.5229587"><ele>1117.5</ele><time>2026-04-25T11:11:51.456Z</time></trkpt><trkpt lat="45.8973108" lon="11.5229741"><ele>1113.0</ele><time>2026-04-25T11:11:52.459Z</time></trkpt><trkpt lat="45.896975" lon="11.5230327"><ele>1113.0</ele><time>2026-04-25T11:11:54.448Z</time></trkpt><trkpt lat="45.8968206" lon="11.5230464"><ele>1113.0</ele><time>2026-04-25T11:11:55.474Z</time></trkpt><trkpt lat="45.8966696" lon="11.5230459"><ele>1113.0</ele><time>2026-04-25T11:11:56.473Z</time></trkpt><trkpt lat="45.8965218" lon="11.5230398"><ele>1111.0</ele><time>2026-04-25T11:11:57.475Z</time></trkpt><trkpt lat="45.8963768" lon="11.5230235"><ele>1109.0</ele><time>2026-04-25T11:11:58.468Z</time></trkpt><trkpt lat="45.8962361" lon="11.5229951"><ele>1107.0</ele><time>2026-04-25T11:11:59.453Z</time></trkpt><trkpt lat="45.8960993" lon="11.522958"><ele>1105.0</ele><time>2026-04-25T11:12:00.454Z</time></trkpt><trkpt lat="45.8959661" lon="11.522922"><ele>1100.0</ele><time>2026-04-25T11:12:01.459Z</time></trkpt><trkpt lat="45.8958354" lon="11.5228913"><ele>1095.0</ele><time>2026-04-25T11:12:02.482Z</time></trkpt><trkpt lat="45.8957037" lon="11.5228722"><ele>1090.0</ele><time>2026-04-25T11:12:03.464Z</time></trkpt><trkpt lat="45.8955668" lon="11.5228703"><ele>1085.0</ele><time>2026-04-25T11:12:04.471Z</time></trkpt><trkpt lat="45.8954103" lon="11.5228869"><ele>1086.3333333333335</ele><time>2026-04-25T11:12:05.447Z</time></trkpt><trkpt lat="45.8952415" lon="11.522913"><ele>1087.6666666666667</ele><time>2026-04-25T11:12:06.457Z</time></trkpt><trkpt lat="45.8950774" lon="11.5229427"><ele>1089.0</ele><time>2026-04-25T11:12:07.462Z</time></trkpt><trkpt lat="45.8949176" lon="11.522966"><ele>1089.0</ele><time>2026-04-25T11:12:08.448Z</time></trkpt><trkpt lat="45.8947624" lon="11.522984"><ele>1089.0</ele><time>2026-04-25T11:12:09.46Z</time></trkpt><trkpt lat="45.8946083" lon="11.5229916"><ele>1089.0</ele><time>2026-04-25T11:12:10.457Z</time></trkpt><trkpt lat="45.8944548" lon="11.5229865"><ele>1089.0</ele><time>2026-04-25T11:12:11.458Z</time></trkpt><trkpt lat="45.8943153" lon="11.522993"><ele>1089.0</ele><time>2026-04-25T11:12:12.451Z</time></trkpt><trkpt lat="45.8941877" lon="11.5230188"><ele>1089.0</ele><time>2026-04-25T11:12:13.463Z</time></trkpt><trkpt lat="45.8939607" lon="11.5230985"><ele>1086.25</ele><time>2026-04-25T11:12:15.45Z</time></trkpt><trkpt lat="45.8938511" lon="11.5231417"><ele>1083.5</ele><time>2026-04-25T11:12:16.449Z</time></trkpt><trkpt lat="45.8937432" lon="11.5231765"><ele>1080.75</ele><time>2026-04-25T11:12:17.453Z</time></trkpt><trkpt lat="45.893623" lon="11.523194"><ele>1078.0</ele><time>2026-04-25T11:12:18.458Z</time></trkpt><trkpt lat="45.8934961" lon="11.5231923"><ele>1075.0</ele><time>2026-04-25T11:12:19.456Z</time></trkpt><trkpt lat="45.8933644" lon="11.5231881"><ele>1072.0</ele><time>2026-04-25T11:12:20.467Z</time></trkpt><trkpt lat="45.893228" lon="11.5231925"><ele>1069.0</ele><time>2026-04-25T11:12:21.455Z</time></trkpt><trkpt lat="45.8930848" lon="11.5232013"><ele>1066.0</ele><time>2026-04-25T11:12:22.47Z</time></trkpt><trkpt lat="45.8929384" lon="11.5232061"><ele>1066.0</ele><time>2026-04-25T11:12:23.459Z</time></trkpt><trkpt lat="45.8927921" lon="11.523199"><ele>1066.0</ele><time>2026-04-25T11:12:24.451Z</time></trkpt><trkpt lat="45.8926411" lon="11.5231742"><ele>1066.0</ele><time>2026-04-25T11:12:25.46Z</time></trkpt><trkpt lat="45.8924854" lon="11.5231368"><ele>1064.3333333333333</ele><time>2026-04-25T11:12:26.459Z</time></trkpt><trkpt lat="45.892324" lon="11.5230974"><ele>1062.6666666666667</ele><time>2026-04-25T11:12:27.457Z</time></trkpt><trkpt lat="45.8921534" lon="11.5230516"><ele>1061.0</ele><time>2026-04-25T11:12:28.463Z</time></trkpt><trkpt lat="45.8919641" lon="11.5229972"><ele>1061.0</ele><time>2026-04-25T11:12:29.449Z</time></trkpt><trkpt lat="45.8917588" lon="11.5229395"><ele>1061.0</ele><time>2026-04-25T11:12:30.449Z</time></trkpt><trkpt lat="45.8915593" lon="11.5228932"><ele>1061.0</ele><time>2026-04-25T11:12:31.459Z</time></trkpt><trkpt lat="45.8913692" lon="11.5228556"><ele>1059.6666666666667</ele><time>2026-04-25T11:12:32.456Z</time></trkpt><trkpt lat="45.8911884" lon="11.5228221"><ele>1058.3333333333333</ele><time>2026-04-25T11:12:33.465Z</time></trkpt><trkpt lat="45.8910163" lon="11.5227878"><ele>1057.0</ele><time>2026-04-25T11:12:34.475Z</time></trkpt><trkpt lat="45.8907032" lon="11.522697"><ele>1055.75</ele><time>2026-04-25T11:12:36.471Z</time></trkpt><trkpt lat="45.8905609" lon="11.5226266"><ele>1054.5</ele><time>2026-04-25T11:12:37.467Z</time></trkpt><trkpt lat="45.8904295" lon="11.5225376"><ele>1053.25</ele><time>2026-04-25T11:12:38.464Z</time></trkpt><trkpt lat="45.8903043" lon="11.5224351"><ele>1052.0</ele><time>2026-04-25T11:12:39.487Z</time></trkpt><trkpt lat="45.8901776" lon="11.5223149"><ele>1051.5</ele><time>2026-04-25T11:12:40.471Z</time></trkpt><trkpt lat="45.8900555" lon="11.5221833"><ele>1051.0</ele><time>2026-04-25T11:12:41.475Z</time></trkpt><trkpt lat="45.8899439" lon="11.5220487"><ele>1050.5</ele><time>2026-04-25T11:12:42.475Z</time></trkpt><trkpt lat="45.8898474" lon="11.5219198"><ele>1050.0</ele><time>2026-04-25T11:12:43.47Z</time></trkpt><trkpt lat="45.8897623" lon="11.5217958"><ele>1049.6</ele><time>2026-04-25T11:12:44.505Z</time></trkpt><trkpt lat="45.8896834" lon="11.5216781"><ele>1049.2</ele><time>2026-04-25T11:12:45.493Z</time></trkpt><trkpt lat="45.8896129" lon="11.5215744"><ele>1048.8</ele><time>2026-04-25T11:12:46.485Z</time></trkpt><trkpt lat="45.8895492" lon="11.5214837"><ele>1048.4</ele><time>2026-04-25T11:12:47.47Z</time></trkpt><trkpt lat="45.8894978" lon="11.5214123"><ele>1048.0</ele><time>2026-04-25T11:12:48.464Z</time></trkpt><trkpt lat="45.8894392" lon="11.5213298"><ele>1048.0</ele><time>2026-04-25T11:12:50.478Z</time></trkpt><trkpt lat="45.8893949" lon="11.5212577"><ele>1048.0</ele><time>2026-04-25T11:13:37.471Z</time></trkpt><trkpt lat="45.8892718" lon="11.5210943"><ele>1048.0</ele><time>2026-04-25T11:13:42.454Z</time></trkpt><trkpt lat="45.8892224" lon="11.5210186"><ele>1048.0</ele><time>2026-04-25T11:13:44.483Z</time></trkpt><trkpt lat="45.8891668" lon="11.5209356"><ele>1048.0</ele><time>2026-04-25T11:13:47.48Z</time></trkpt><trkpt lat="45.8891145" lon="11.5208563"><ele>1047.25</ele><time>2026-04-25T11:13:50.477Z</time></trkpt><trkpt lat="45.8890097" lon="11.5207735"><ele>1046.5</ele><time>2026-04-25T11:16:18.461Z</time></trkpt><trkpt lat="45.8888346" lon="11.5205593"><ele>1045.75</ele><time>2026-04-25T11:16:23.466Z</time></trkpt><trkpt lat="45.8887878" lon="11.5204725"><ele>1045.0</ele><time>2026-04-25T11:16:24.479Z</time></trkpt><trkpt lat="45.8887384" lon="11.5203834"><ele>1044.8333333333333</ele><time>2026-04-25T11:16:25.459Z</time></trkpt><trkpt lat="45.8886908" lon="11.5202923"><ele>1044.6666666666665</ele><time>2026-04-25T11:16:26.462Z</time></trkpt><trkpt lat="45.8886532" lon="11.5201912"><ele>1044.5</ele><time>2026-04-25T11:16:27.448Z</time></trkpt><trkpt lat="45.8886243" lon="11.520083"><ele>1044.3333333333333</ele><time>2026-04-25T11:16:28.464Z</time></trkpt><trkpt lat="45.8886066" lon="11.5199665"><ele>1044.1666666666667</ele><time>2026-04-25T11:16:29.471Z</time></trkpt><trkpt lat="45.8885956" lon="11.5198448"><ele>1044.0</ele><time>2026-04-25T11:16:30.473Z</time></trkpt><trkpt lat="45.8885814" lon="11.5197163"><ele>1044.0</ele><time>2026-04-25T11:16:31.468Z</time></trkpt><trkpt lat="45.888565" lon="11.519589"><ele>1044.0</ele><time>2026-04-25T11:16:32.484Z</time></trkpt><trkpt lat="45.8885483" lon="11.519456"><ele>1044.0</ele><time>2026-04-25T11:16:33.482Z</time></trkpt><trkpt lat="45.8885326" lon="11.5193209"><ele>1044.0</ele><time>2026-04-25T11:16:34.478Z</time></trkpt><trkpt lat="45.8885157" lon="11.5191778"><ele>1044.0</ele><time>2026-04-25T11:16:35.48Z</time></trkpt><trkpt lat="45.8885001" lon="11.5190276"><ele>1043.0</ele><time>2026-04-25T11:16:36.467Z</time></trkpt><trkpt lat="45.8884845" lon="11.5188763"><ele>1042.0</ele><time>2026-04-25T11:16:37.469Z</time></trkpt><trkpt lat="45.8884698" lon="11.518731"><ele>1041.0</ele><time>2026-04-25T11:16:38.483Z</time></trkpt><trkpt lat="45.8884469" lon="11.5185806"><ele>1040.0</ele><time>2026-04-25T11:16:39.475Z</time></trkpt><trkpt lat="45.8884087" lon="11.5182706"><ele>1039.25</ele><time>2026-04-25T11:16:41.468Z</time></trkpt><trkpt lat="45.8883865" lon="11.5181058"><ele>1038.5</ele><time>2026-04-25T11:16:42.483Z</time></trkpt><trkpt lat="45.88836" lon="11.5179364"><ele>1037.75</ele><time>2026-04-25T11:16:43.479Z</time></trkpt><trkpt lat="45.8883279" lon="11.517763"><ele>1037.0</ele><time>2026-04-25T11:16:44.461Z</time></trkpt><trkpt lat="45.8882961" lon="11.5175869"><ele>1037.0</ele><time>2026-04-25T11:16:45.472Z</time></trkpt><trkpt lat="45.8882656" lon="11.5174129"><ele>1037.0</ele><time>2026-04-25T11:16:46.467Z</time></trkpt><trkpt lat="45.8882354" lon="11.5172437"><ele>1037.0</ele><time>2026-04-25T11:16:47.476Z</time></trkpt><trkpt lat="45.8882044" lon="11.517073"><ele>1037.0</ele><time>2026-04-25T11:16:48.472Z</time></trkpt><trkpt lat="45.8881747" lon="11.5169"><ele>1037.0</ele><time>2026-04-25T11:16:49.469Z</time></trkpt><trkpt lat="45.8881427" lon="11.5167302"><ele>1037.0</ele><time>2026-04-25T11:16:50.481Z</time></trkpt><trkpt lat="45.8881102" lon="11.5165631"><ele>1037.0</ele><time>2026-04-25T11:16:51.484Z</time></trkpt><trkpt lat="45.8880799" lon="11.5163891"><ele>1037.0</ele><time>2026-04-25T11:16:52.481Z</time></trkpt><trkpt lat="45.8880497" lon="11.5162119"><ele>1037.0</ele><time>2026-04-25T11:16:53.467Z</time></trkpt><trkpt lat="45.8880161" lon="11.5160368"><ele>1037.0</ele><time>2026-04-25T11:16:54.471Z</time></trkpt><trkpt lat="45.8879837" lon="11.5158703"><ele>1037.0</ele><time>2026-04-25T11:16:55.479Z</time></trkpt><trkpt lat="45.8879552" lon="11.5157097"><ele>1037.0</ele><time>2026-04-25T11:16:56.47Z</time></trkpt><trkpt lat="45.8879277" lon="11.515546"><ele>1036.25</ele><time>2026-04-25T11:16:57.463Z</time></trkpt><trkpt lat="45.887897" lon="11.5153787"><ele>1035.5</ele><time>2026-04-25T11:16:58.48Z</time></trkpt><trkpt lat="45.8878645" lon="11.5152143"><ele>1034.75</ele><time>2026-04-25T11:16:59.475Z</time></trkpt><trkpt lat="45.8878351" lon="11.5150594"><ele>1034.0</ele><time>2026-04-25T11:17:00.474Z</time></trkpt><trkpt lat="45.8877898" lon="11.5147624"><ele>1034.0</ele><time>2026-04-25T11:17:02.479Z</time></trkpt><trkpt lat="45.8877658" lon="11.5146168"><ele>1034.0</ele><time>2026-04-25T11:17:03.474Z</time></trkpt><trkpt lat="45.8877398" lon="11.5144765"><ele>1034.0</ele><time>2026-04-25T11:17:04.5Z</time></trkpt><trkpt lat="45.8877136" lon="11.5143327"><ele>1034.0</ele><time>2026-04-25T11:17:05.486Z</time></trkpt><trkpt lat="45.887688" lon="11.5141824"><ele>1034.0</ele><time>2026-04-25T11:17:06.468Z</time></trkpt><trkpt lat="45.8876593" lon="11.514025"><ele>1034.25</ele><time>2026-04-25T11:17:07.483Z</time></trkpt><trkpt lat="45.8876267" lon="11.5138624"><ele>1034.5</ele><time>2026-04-25T11:17:08.473Z</time></trkpt><trkpt lat="45.8875944" lon="11.5136919"><ele>1034.75</ele><time>2026-04-25T11:17:09.476Z</time></trkpt><trkpt lat="45.8875623" lon="11.5135146"><ele>1035.0</ele><time>2026-04-25T11:17:10.463Z</time></trkpt><trkpt lat="45.8875291" lon="11.5133306"><ele>1033.0</ele><time>2026-04-25T11:17:11.476Z</time></trkpt><trkpt lat="45.8874947" lon="11.5131405"><ele>1031.0</ele><time>2026-04-25T11:17:12.483Z</time></trkpt><trkpt lat="45.8874605" lon="11.5129474"><ele>1029.0</ele><time>2026-04-25T11:17:13.483Z</time></trkpt><trkpt lat="45.8874249" lon="11.5127476"><ele>1027.0</ele><time>2026-04-25T11:17:14.476Z</time></trkpt><trkpt lat="45.8873888" lon="11.5125417"><ele>1027.0</ele><time>2026-04-25T11:17:15.483Z</time></trkpt><trkpt lat="45.8873539" lon="11.5123348"><ele>1027.0</ele><time>2026-04-25T11:17:16.479Z</time></trkpt><trkpt lat="45.8873187" lon="11.5121247"><ele>1027.0</ele><time>2026-04-25T11:17:17.472Z</time></trkpt><trkpt lat="45.887279" lon="11.5118989"><ele>1026.0</ele><time>2026-04-25T11:17:18.478Z</time></trkpt><trkpt lat="45.8872357" lon="11.5116579"><ele>1025.0</ele><time>2026-04-25T11:17:19.476Z</time></trkpt><trkpt lat="45.8871921" lon="11.5113949"><ele>1024.0</ele><time>2026-04-25T11:17:20.472Z</time></trkpt><trkpt lat="45.8871483" lon="11.5111275"><ele>1024.0</ele><time>2026-04-25T11:17:21.474Z</time></trkpt><trkpt lat="45.8870594" lon="11.5106349"><ele>1024.0</ele><time>2026-04-25T11:17:23.464Z</time></trkpt><trkpt lat="45.8870177" lon="11.5104091"><ele>1024.0</ele><time>2026-04-25T11:17:24.484Z</time></trkpt><trkpt lat="45.8869793" lon="11.5101968"><ele>1024.0</ele><time>2026-04-25T11:17:25.476Z</time></trkpt><trkpt lat="45.8869412" lon="11.5099973"><ele>1024.0</ele><time>2026-04-25T11:17:26.482Z</time></trkpt><trkpt lat="45.8869061" lon="11.5098132"><ele>1024.0</ele><time>2026-04-25T11:17:27.474Z</time></trkpt><trkpt lat="45.8868711" lon="11.5096374"><ele>1024.2</ele><time>2026-04-25T11:17:28.472Z</time></trkpt><trkpt lat="45.8868277" lon="11.5094805"><ele>1024.4</ele><time>2026-04-25T11:17:29.461Z</time></trkpt><trkpt lat="45.8867757" lon="11.5093408"><ele>1024.6</ele><time>2026-04-25T11:17:30.468Z</time></trkpt><trkpt lat="45.886728" lon="11.5092223"><ele>1024.8</ele><time>2026-04-25T11:17:31.468Z</time></trkpt><trkpt lat="45.8866691" lon="11.5091297"><ele>1025.0</ele><time>2026-04-25T11:17:32.485Z</time></trkpt><trkpt lat="45.8865947" lon="11.5090284"><ele>1024.0</ele><time>2026-04-25T11:17:33.476Z</time></trkpt><trkpt lat="45.8865034" lon="11.5089511"><ele>1023.0</ele><time>2026-04-25T11:17:34.474Z</time></trkpt><trkpt lat="45.8863964" lon="11.5088771"><ele>1022.0</ele><time>2026-04-25T11:17:35.471Z</time></trkpt><trkpt lat="45.8862857" lon="11.5088056"><ele>1021.0</ele><time>2026-04-25T11:17:36.478Z</time></trkpt><trkpt lat="45.8861811" lon="11.5087279"><ele>1021.0</ele><time>2026-04-25T11:17:37.477Z</time></trkpt><trkpt lat="45.886076" lon="11.5086462"><ele>1021.0</ele><time>2026-04-25T11:17:38.479Z</time></trkpt><trkpt lat="45.8859676" lon="11.508561"><ele>1021.0</ele><time>2026-04-25T11:17:39.474Z</time></trkpt><trkpt lat="45.8858559" lon="11.5084728"><ele>1021.0</ele><time>2026-04-25T11:17:40.483Z</time></trkpt><trkpt lat="45.8857372" lon="11.5083886"><ele>1019.6666666666666</ele><time>2026-04-25T11:17:41.47Z</time></trkpt><trkpt lat="45.8856063" lon="11.5083122"><ele>1018.3333333333333</ele><time>2026-04-25T11:17:42.473Z</time></trkpt><trkpt lat="45.8853462" lon="11.5082112"><ele>1017.0</ele><time>2026-04-25T11:17:44.47Z</time></trkpt><trkpt lat="45.8852249" lon="11.5081874"><ele>1017.0</ele><time>2026-04-25T11:17:45.465Z</time></trkpt><trkpt lat="45.8851103" lon="11.508168"><ele>1017.0</ele><time>2026-04-25T11:17:46.476Z</time></trkpt><trkpt lat="45.8850006" lon="11.5081555"><ele>1017.0</ele><time>2026-04-25T11:17:47.476Z</time></trkpt><trkpt lat="45.8848954" lon="11.5081423"><ele>1017.0</ele><time>2026-04-25T11:17:48.47Z</time></trkpt><trkpt lat="45.8848021" lon="11.5081286"><ele>1017.0</ele><time>2026-04-25T11:17:49.479Z</time></trkpt><trkpt lat="45.8847233" lon="11.5081026"><ele>1016.0</ele><time>2026-04-25T11:17:50.482Z</time></trkpt><trkpt lat="45.8846649" lon="11.5080612"><ele>1015.0</ele><time>2026-04-25T11:17:51.466Z</time></trkpt><trkpt lat="45.884588" lon="11.5079729"><ele>1014.0</ele><time>2026-04-25T11:17:53.479Z</time></trkpt><trkpt lat="45.8845305" lon="11.507931"><ele>1013.0</ele><time>2026-04-25T11:17:59.46Z</time></trkpt><trkpt lat="45.8843849" lon="11.5079573"><ele>1012.0</ele><time>2026-04-25T11:18:01.479Z</time></trkpt><trkpt lat="45.8842543" lon="11.5079996"><ele>1011.3333333333333</ele><time>2026-04-25T11:18:02.481Z</time></trkpt><trkpt lat="45.8841177" lon="11.5080393"><ele>1010.6666666666667</ele><time>2026-04-25T11:18:03.474Z</time></trkpt><trkpt lat="45.8838294" lon="11.508112"><ele>1010.0</ele><time>2026-04-25T11:18:05.477Z</time></trkpt><trkpt lat="45.8836707" lon="11.5081554"><ele>1010.0</ele><time>2026-04-25T11:18:06.466Z</time></trkpt><trkpt lat="45.8835054" lon="11.5082004"><ele>1010.0</ele><time>2026-04-25T11:18:07.482Z</time></trkpt><trkpt lat="45.8833432" lon="11.5082411"><ele>1010.0</ele><time>2026-04-25T11:18:08.471Z</time></trkpt><trkpt lat="45.8831881" lon="11.5082806"><ele>1009.3333333333334</ele><time>2026-04-25T11:18:09.483Z</time></trkpt><trkpt lat="45.8830366" lon="11.5083231"><ele>1008.6666666666667</ele><time>2026-04-25T11:18:10.463Z</time></trkpt><trkpt lat="45.8828912" lon="11.5083705"><ele>1008.0</ele><time>2026-04-25T11:18:11.462Z</time></trkpt><trkpt lat="45.8827479" lon="11.5084259"><ele>1008.0</ele><time>2026-04-25T11:18:12.482Z</time></trkpt><trkpt lat="45.8826053" lon="11.5084966"><ele>1008.0</ele><time>2026-04-25T11:18:13.48Z</time></trkpt><trkpt lat="45.8824705" lon="11.5085818"><ele>1008.0</ele><time>2026-04-25T11:18:14.465Z</time></trkpt><trkpt lat="45.8823405" lon="11.5086736"><ele>1008.0</ele><time>2026-04-25T11:18:15.487Z</time></trkpt><trkpt lat="45.8822105" lon="11.5087734"><ele>1008.0</ele><time>2026-04-25T11:18:16.486Z</time></trkpt><trkpt lat="45.8820786" lon="11.5088791"><ele>1008.0</ele><time>2026-04-25T11:18:17.462Z</time></trkpt><trkpt lat="45.8819464" lon="11.5089899"><ele>1008.0</ele><time>2026-04-25T11:18:18.48Z</time></trkpt><trkpt lat="45.8818161" lon="11.5091017"><ele>1006.6666666666667</ele><time>2026-04-25T11:18:19.467Z</time></trkpt><trkpt lat="45.8816776" lon="11.5092184"><ele>1005.3333333333334</ele><time>2026-04-25T11:18:20.498Z</time></trkpt><trkpt lat="45.8815351" lon="11.509335"><ele>1004.0</ele><time>2026-04-25T11:18:21.475Z</time></trkpt><trkpt lat="45.8814005" lon="11.5094327"><ele>1004.0</ele><time>2026-04-25T11:18:22.478Z</time></trkpt><trkpt lat="45.8812738" lon="11.5095145"><ele>1004.0</ele><time>2026-04-25T11:18:23.473Z</time></trkpt><trkpt lat="45.881153" lon="11.5095807"><ele>1004.0</ele><time>2026-04-25T11:18:24.457Z</time></trkpt><trkpt lat="45.8808911" lon="11.5096473"><ele>1005.6666666666667</ele><time>2026-04-25T11:18:26.46Z</time></trkpt><trkpt lat="45.8807433" lon="11.509657"><ele>1007.3333333333333</ele><time>2026-04-25T11:18:27.468Z</time></trkpt><trkpt lat="45.8805792" lon="11.5096643"><ele>1009.0</ele><time>2026-04-25T11:18:28.462Z</time></trkpt><trkpt lat="45.8804009" lon="11.5096768"><ele>1009.0</ele><time>2026-04-25T11:18:29.469Z</time></trkpt><trkpt lat="45.8802197" lon="11.5096927"><ele>1009.0</ele><time>2026-04-25T11:18:30.486Z</time></trkpt><trkpt lat="45.8800491" lon="11.5097098"><ele>1009.0</ele><time>2026-04-25T11:18:31.461Z</time></trkpt><trkpt lat="45.8798872" lon="11.5097258"><ele>1008.5</ele><time>2026-04-25T11:18:32.476Z</time></trkpt><trkpt lat="45.8797348" lon="11.5097415"><ele>1008.0</ele><time>2026-04-25T11:18:33.469Z</time></trkpt><trkpt lat="45.8795895" lon="11.5097563"><ele>1007.5</ele><time>2026-04-25T11:18:34.479Z</time></trkpt><trkpt lat="45.8794497" lon="11.5097703"><ele>1007.0</ele><time>2026-04-25T11:18:35.471Z</time></trkpt><trkpt lat="45.8793129" lon="11.5097848"><ele>1006.25</ele><time>2026-04-25T11:18:36.471Z</time></trkpt><trkpt lat="45.8791827" lon="11.5097991"><ele>1005.5</ele><time>2026-04-25T11:18:37.472Z</time></trkpt><trkpt lat="45.8790585" lon="11.5098134"><ele>1004.75</ele><time>2026-04-25T11:18:38.467Z</time></trkpt><trkpt lat="45.8789422" lon="11.5098338"><ele>1004.0</ele><time>2026-04-25T11:18:39.47Z</time></trkpt><trkpt lat="45.8788305" lon="11.5098534"><ele>1004.0</ele><time>2026-04-25T11:18:40.484Z</time></trkpt><trkpt lat="45.87872" lon="11.5098816"><ele>1004.0000000000001</ele><time>2026-04-25T11:18:41.473Z</time></trkpt><trkpt lat="45.8786121" lon="11.5098976"><ele>1004.0000000000001</ele><time>2026-04-25T11:18:42.471Z</time></trkpt><trkpt lat="45.878512" lon="11.5099188"><ele>1004.0</ele><time>2026-04-25T11:18:43.48Z</time></trkpt><trkpt lat="45.8784135" lon="11.5099355"><ele>1004.0</ele><time>2026-04-25T11:18:44.469Z</time></trkpt><trkpt lat="45.8783235" lon="11.5099474"><ele>1004.2</ele><time>2026-04-25T11:18:45.485Z</time></trkpt><trkpt lat="45.878164" lon="11.5099764"><ele>1004.4000000000001</ele><time>2026-04-25T11:18:47.476Z</time></trkpt><trkpt lat="45.8780952" lon="11.5099559"><ele>1004.6</ele><time>2026-04-25T11:18:48.465Z</time></trkpt><trkpt lat="45.8780326" lon="11.5099171"><ele>1004.8</ele><time>2026-04-25T11:18:49.468Z</time></trkpt><trkpt lat="45.8779095" lon="11.5099342"><ele>1005.0</ele><time>2026-04-25T11:18:51.468Z</time></trkpt><trkpt lat="45.8778335" lon="11.5100048"><ele>1005.0</ele><time>2026-04-25T11:18:52.466Z</time></trkpt><trkpt lat="45.8777489" lon="11.5100692"><ele>1005.0</ele><time>2026-04-25T11:18:53.475Z</time></trkpt><trkpt lat="45.8776628" lon="11.5100923"><ele>1005.0</ele><time>2026-04-25T11:18:54.483Z</time></trkpt><trkpt lat="45.8775591" lon="11.5101218"><ele>1005.0</ele><time>2026-04-25T11:18:55.474Z</time></trkpt><trkpt lat="45.8774653" lon="11.5101413"><ele>1005.0</ele><time>2026-04-25T11:18:56.472Z</time></trkpt><trkpt lat="45.8773714" lon="11.5101574"><ele>1004.6666666666666</ele><time>2026-04-25T11:18:57.469Z</time></trkpt><trkpt lat="45.8772835" lon="11.5101768"><ele>1004.3333333333333</ele><time>2026-04-25T11:18:58.465Z</time></trkpt><trkpt lat="45.877192" lon="11.5101949"><ele>1004.0</ele><time>2026-04-25T11:18:59.48Z</time></trkpt><trkpt lat="45.877107" lon="11.5102155"><ele>1003.6666666666666</ele><time>2026-04-25T11:19:00.478Z</time></trkpt><trkpt lat="45.8770301" lon="11.5102336"><ele>1003.3333333333333</ele><time>2026-04-25T11:19:01.472Z</time></trkpt><trkpt lat="45.8769575" lon="11.5102442"><ele>1003.0</ele><time>2026-04-25T11:19:02.477Z</time></trkpt><trkpt lat="45.876881" lon="11.5102568"><ele>1003.0</ele><time>2026-04-25T11:19:03.485Z</time></trkpt><trkpt lat="45.8768039" lon="11.510272"><ele>1003.0</ele><time>2026-04-25T11:19:04.468Z</time></trkpt><trkpt lat="45.8767281" lon="11.5102931"><ele>1003.0</ele><time>2026-04-25T11:19:05.468Z</time></trkpt><trkpt lat="45.8766627" lon="11.5103121"><ele>1003.0</ele><time>2026-04-25T11:19:06.467Z</time></trkpt><trkpt lat="45.8765208" lon="11.5102733"><ele>1003.0</ele><time>2026-04-25T11:19:14.466Z</time></trkpt><trkpt lat="45.8764436" lon="11.5101643"><ele>1003.2</ele><time>2026-04-25T11:19:16.482Z</time></trkpt><trkpt lat="45.8764025" lon="11.5100826"><ele>1003.4</ele><time>2026-04-25T11:19:17.466Z</time></trkpt><trkpt lat="45.8763624" lon="11.509989"><ele>1003.6000000000001</ele><time>2026-04-25T11:19:18.472Z</time></trkpt><trkpt lat="45.8763281" lon="11.5099024"><ele>1003.8000000000001</ele><time>2026-04-25T11:19:19.473Z</time></trkpt><trkpt lat="45.8762693" lon="11.5097416"><ele>1004.0</ele><time>2026-04-25T11:19:21.46Z</time></trkpt><trkpt lat="45.8762114" lon="11.5095847"><ele>1004.0</ele><time>2026-04-25T11:19:23.479Z</time></trkpt><trkpt lat="45.8761763" lon="11.5095034"><ele>1004.0000000000001</ele><time>2026-04-25T11:19:24.475Z</time></trkpt><trkpt lat="45.8761408" lon="11.5094273"><ele>1004.0000000000001</ele><time>2026-04-25T11:19:25.482Z</time></trkpt><trkpt lat="45.8760868" lon="11.5092824"><ele>1004.0</ele><time>2026-04-25T11:19:27.479Z</time></trkpt><trkpt lat="45.8759798" lon="11.5090398"><ele>1004.0</ele><time>2026-04-25T11:19:31.474Z</time></trkpt><trkpt lat="45.875913" lon="11.508927"><ele>1003.8000000000001</ele><time>2026-04-25T11:19:33.477Z</time></trkpt><trkpt lat="45.8758734" lon="11.5087583"><ele>1003.6000000000001</ele><time>2026-04-25T11:19:35.462Z</time></trkpt><trkpt lat="45.875862" lon="11.5086575"><ele>1003.4</ele><time>2026-04-25T11:19:36.469Z</time></trkpt><trkpt lat="45.8758502" lon="11.50854"><ele>1003.2</ele><time>2026-04-25T11:19:37.442Z</time></trkpt><trkpt lat="45.8758344" lon="11.5084093"><ele>1003.0</ele><time>2026-04-25T11:19:38.467Z</time></trkpt><trkpt lat="45.8758166" lon="11.5082793"><ele>1002.6666666666666</ele><time>2026-04-25T11:19:39.471Z</time></trkpt><trkpt lat="45.8757967" lon="11.5081428"><ele>1002.3333333333333</ele><time>2026-04-25T11:19:40.464Z</time></trkpt><trkpt lat="45.8757771" lon="11.5080069"><ele>1002.0</ele><time>2026-04-25T11:19:41.469Z</time></trkpt><trkpt lat="45.8757591" lon="11.5078752"><ele>1001.6666666666667</ele><time>2026-04-25T11:19:42.471Z</time></trkpt><trkpt lat="45.8757535" lon="11.5077505"><ele>1001.3333333333334</ele><time>2026-04-25T11:19:43.464Z</time></trkpt><trkpt lat="45.8757605" lon="11.5076429"><ele>1001.0</ele><time>2026-04-25T11:19:44.454Z</time></trkpt><trkpt lat="45.875774" lon="11.5075444"><ele>1001.0</ele><time>2026-04-25T11:19:45.473Z</time></trkpt><trkpt lat="45.8757895" lon="11.507443"><ele>1000.9999999999999</ele><time>2026-04-25T11:19:46.462Z</time></trkpt><trkpt lat="45.8758096" lon="11.507333"><ele>1000.9999999999999</ele><time>2026-04-25T11:19:47.464Z</time></trkpt><trkpt lat="45.8758329" lon="11.5072168"><ele>1001.0</ele><time>2026-04-25T11:19:48.453Z</time></trkpt><trkpt lat="45.8758864" lon="11.5069823"><ele>1001.0</ele><time>2026-04-25T11:19:50.46Z</time></trkpt><trkpt lat="45.8759098" lon="11.5068703"><ele>1001.8</ele><time>2026-04-25T11:19:51.47Z</time></trkpt><trkpt lat="45.875925" lon="11.5067551"><ele>1002.5999999999999</ele><time>2026-04-25T11:19:52.472Z</time></trkpt><trkpt lat="45.8759292" lon="11.5066305"><ele>1003.4</ele><time>2026-04-25T11:19:53.478Z</time></trkpt><trkpt lat="45.8759216" lon="11.5064987"><ele>1004.2</ele><time>2026-04-25T11:19:54.46Z</time></trkpt><trkpt lat="45.8759024" lon="11.506359"><ele>1005.0</ele><time>2026-04-25T11:19:55.472Z</time></trkpt><trkpt lat="45.8758812" lon="11.5062122"><ele>1005.25</ele><time>2026-04-25T11:19:56.477Z</time></trkpt><trkpt lat="45.8758581" lon="11.506056"><ele>1005.5</ele><time>2026-04-25T11:19:57.487Z</time></trkpt><trkpt lat="45.8758351" lon="11.5058872"><ele>1005.75</ele><time>2026-04-25T11:19:58.467Z</time></trkpt><trkpt lat="45.87581" lon="11.5057087"><ele>1006.0</ele><time>2026-04-25T11:19:59.47Z</time></trkpt><trkpt lat="45.8757817" lon="11.5055223"><ele>1006.25</ele><time>2026-04-25T11:20:00.481Z</time></trkpt><trkpt lat="45.8757531" lon="11.5053336"><ele>1006.5</ele><time>2026-04-25T11:20:01.48Z</time></trkpt><trkpt lat="45.8757262" lon="11.5051488"><ele>1006.75</ele><time>2026-04-25T11:20:02.458Z</time></trkpt><trkpt lat="45.8757025" lon="11.5049684"><ele>1007.0</ele><time>2026-04-25T11:20:03.472Z</time></trkpt><trkpt lat="45.8756803" lon="11.5048027"><ele>1007.0</ele><time>2026-04-25T11:20:04.453Z</time></trkpt><trkpt lat="45.8756593" lon="11.5046539"><ele>1007.0</ele><time>2026-04-25T11:20:05.464Z</time></trkpt><trkpt lat="45.8756409" lon="11.5045154"><ele>1007.0</ele><time>2026-04-25T11:20:06.462Z</time></trkpt><trkpt lat="45.8756247" lon="11.5043793"><ele>1007.0</ele><time>2026-04-25T11:20:07.465Z</time></trkpt><trkpt lat="45.8756069" lon="11.5042525"><ele>1007.0</ele><time>2026-04-25T11:20:08.467Z</time></trkpt><trkpt lat="45.8755899" lon="11.5041415"><ele>1007.4000000000001</ele><time>2026-04-25T11:20:09.456Z</time></trkpt><trkpt lat="45.875561" lon="11.5039511"><ele>1007.8000000000001</ele><time>2026-04-25T11:20:11.47Z</time></trkpt><trkpt lat="45.8755459" lon="11.5038237"><ele>1008.2</ele><time>2026-04-25T11:20:13.456Z</time></trkpt><trkpt lat="45.8754914" lon="11.5036893"><ele>1008.6</ele><time>2026-04-25T11:20:18.463Z</time></trkpt><trkpt lat="45.8754333" lon="11.5037523"><ele>1009.0</ele><time>2026-04-25T11:20:20.465Z</time></trkpt><trkpt lat="45.8753658" lon="11.5039177"><ele>1009.0</ele><time>2026-04-25T11:20:22.463Z</time></trkpt><trkpt lat="45.875321" lon="11.504026"><ele>1009.0000000000001</ele><time>2026-04-25T11:20:23.487Z</time></trkpt><trkpt lat="45.8752763" lon="11.5041372"><ele>1009.0000000000001</ele><time>2026-04-25T11:20:24.48Z</time></trkpt><trkpt lat="45.8752257" lon="11.5042452"><ele>1009.0</ele><time>2026-04-25T11:20:25.493Z</time></trkpt><trkpt lat="45.8751676" lon="11.5043523"><ele>1009.0</ele><time>2026-04-25T11:20:26.481Z</time></trkpt><trkpt lat="45.8751113" lon="11.5044534"><ele>1009.8000000000001</ele><time>2026-04-25T11:20:27.457Z</time></trkpt><trkpt lat="45.8750584" lon="11.5045432"><ele>1010.6000000000001</ele><time>2026-04-25T11:20:28.476Z</time></trkpt><trkpt lat="45.8750069" lon="11.5046224"><ele>1011.4</ele><time>2026-04-25T11:20:29.476Z</time></trkpt><trkpt lat="45.8749602" lon="11.5046937"><ele>1012.2</ele><time>2026-04-25T11:20:30.49Z</time></trkpt><trkpt lat="45.8748225" lon="11.5048693"><ele>1013.0</ele><time>2026-04-25T11:20:33.473Z</time></trkpt><trkpt lat="45.8747247" lon="11.5049748"><ele>1013.0000000000001</ele><time>2026-04-25T11:20:35.465Z</time></trkpt><trkpt lat="45.8746627" lon="11.5050303"><ele>1013.0</ele><time>2026-04-25T11:20:36.475Z</time></trkpt><trkpt lat="45.8745921" lon="11.5050886"><ele>1013.0</ele><time>2026-04-25T11:20:37.466Z</time></trkpt><trkpt lat="45.8745145" lon="11.5051456"><ele>1013.0</ele><time>2026-04-25T11:20:38.474Z</time></trkpt><trkpt lat="45.8744351" lon="11.5052022"><ele>1013.0000000000001</ele><time>2026-04-25T11:20:39.469Z</time></trkpt><trkpt lat="45.8743564" lon="11.5052532"><ele>1013.0</ele><time>2026-04-25T11:20:40.476Z</time></trkpt><trkpt lat="45.8742761" lon="11.5053051"><ele>1012.6666666666667</ele><time>2026-04-25T11:20:41.485Z</time></trkpt><trkpt lat="45.8741962" lon="11.5053557"><ele>1012.3333333333334</ele><time>2026-04-25T11:20:42.468Z</time></trkpt><trkpt lat="45.8741134" lon="11.5054023"><ele>1012.0</ele><time>2026-04-25T11:20:43.464Z</time></trkpt><trkpt lat="45.874039" lon="11.5054488"><ele>1011.6666666666667</ele><time>2026-04-25T11:20:44.471Z</time></trkpt><trkpt lat="45.8739711" lon="11.5054926"><ele>1011.3333333333334</ele><time>2026-04-25T11:20:45.451Z</time></trkpt><trkpt lat="45.8738956" lon="11.5055405"><ele>1011.0</ele><time>2026-04-25T11:20:46.47Z</time></trkpt><trkpt lat="45.8738242" lon="11.5055723"><ele>1012.0</ele><time>2026-04-25T11:20:47.466Z</time></trkpt><trkpt lat="45.8737181" lon="11.5055977"><ele>1013.0</ele><time>2026-04-25T11:20:49.47Z</time></trkpt><trkpt lat="45.8736146" lon="11.5055704"><ele>1014.0</ele><time>2026-04-25T11:20:51.466Z</time></trkpt><trkpt lat="45.8734264" lon="11.5055448"><ele>1015.0</ele><time>2026-04-25T11:20:55.45Z</time></trkpt><trkpt lat="45.8733733" lon="11.5056946"><ele>1013.5714285714286</ele><time>2026-04-25T11:20:57.47Z</time></trkpt><trkpt lat="45.8733505" lon="11.5057871"><ele>1012.1428571428571</ele><time>2026-04-25T11:20:58.462Z</time></trkpt><trkpt lat="45.8733279" lon="11.5058784"><ele>1010.7142857142858</ele><time>2026-04-25T11:20:59.459Z</time></trkpt><trkpt lat="45.8733" lon="11.5059693"><ele>1009.2857142857143</ele><time>2026-04-25T11:21:00.463Z</time></trkpt><trkpt lat="45.8732715" lon="11.5060689"><ele>1007.8571428571429</ele><time>2026-04-25T11:21:01.465Z</time></trkpt><trkpt lat="45.8732442" lon="11.5061639"><ele>1006.4285714285716</ele><time>2026-04-25T11:21:02.476Z</time></trkpt><trkpt lat="45.8732166" lon="11.5062467"><ele>1005.0000000000001</ele><time>2026-04-25T11:21:03.469Z</time></trkpt><trkpt lat="45.8731545" lon="11.5063777"><ele>1004.6</ele><time>2026-04-25T11:21:05.462Z</time></trkpt><trkpt lat="45.8730884" lon="11.5064771"><ele>1004.2</ele><time>2026-04-25T11:21:07.462Z</time></trkpt><trkpt lat="45.8730275" lon="11.5065463"><ele>1003.8</ele><time>2026-04-25T11:21:09.47Z</time></trkpt><trkpt lat="45.8729743" lon="11.5065997"><ele>1003.4</ele><time>2026-04-25T11:21:11.463Z</time></trkpt><trkpt lat="45.8729125" lon="11.5066629"><ele>1003.0</ele><time>2026-04-25T11:21:14.477Z</time></trkpt><trkpt lat="45.8727956" lon="11.506781"><ele>1003.0</ele><time>2026-04-25T11:21:20.464Z</time></trkpt><trkpt lat="45.8727286" lon="11.5068432"><ele>1003.0</ele><time>2026-04-25T11:21:57.463Z</time></trkpt><trkpt lat="45.8726059" lon="11.5069797"><ele>1003.0</ele><time>2026-04-25T11:22:03.462Z</time></trkpt><trkpt lat="45.8725633" lon="11.5070873"><ele>1003.0</ele><time>2026-04-25T11:22:05.468Z</time></trkpt><trkpt lat="45.8725335" lon="11.507244"><ele>1003.0</ele><time>2026-04-25T11:22:07.475Z</time></trkpt><trkpt lat="45.8725122" lon="11.5074018"><ele>1002.8</ele><time>2026-04-25T11:22:09.472Z</time></trkpt><trkpt lat="45.8724902" lon="11.5075414"><ele>1002.5999999999999</ele><time>2026-04-25T11:22:11.475Z</time></trkpt><trkpt lat="45.8724692" lon="11.5076823"><ele>1002.4000000000001</ele><time>2026-04-25T11:22:13.474Z</time></trkpt><trkpt lat="45.8724446" lon="11.5078312"><ele>1002.2</ele><time>2026-04-25T11:22:15.477Z</time></trkpt><trkpt lat="45.8724157" lon="11.5079773"><ele>1002.0</ele><time>2026-04-25T11:22:17.477Z</time></trkpt><trkpt lat="45.8723828" lon="11.5081564"><ele>1001.6</ele><time>2026-04-25T11:22:19.475Z</time></trkpt><trkpt lat="45.8723557" lon="11.5083466"><ele>1001.2</ele><time>2026-04-25T11:22:21.486Z</time></trkpt><trkpt lat="45.8723429" lon="11.5084359"><ele>1000.8</ele><time>2026-04-25T11:22:22.469Z</time></trkpt><trkpt lat="45.8723154" lon="11.5086236"><ele>1000.4</ele><time>2026-04-25T11:22:24.464Z</time></trkpt><trkpt lat="45.8722994" lon="11.5087336"><ele>1000.0</ele><time>2026-04-25T11:22:25.466Z</time></trkpt><trkpt lat="45.8722851" lon="11.5088399"><ele>999.2</ele><time>2026-04-25T11:22:26.478Z</time></trkpt><trkpt lat="45.8722741" lon="11.5089378"><ele>998.4</ele><time>2026-04-25T11:22:27.479Z</time></trkpt><trkpt lat="45.8722558" lon="11.5090965"><ele>997.5999999999999</ele><time>2026-04-25T11:22:29.467Z</time></trkpt><trkpt lat="45.8722374" lon="11.5092345"><ele>996.8</ele><time>2026-04-25T11:22:31.471Z</time></trkpt><trkpt lat="45.8722149" lon="11.5093857"><ele>996.0</ele><time>2026-04-25T11:22:33.471Z</time></trkpt><trkpt lat="45.8721954" lon="11.5095287"><ele>996.0</ele><time>2026-04-25T11:22:35.467Z</time></trkpt><trkpt lat="45.8721726" lon="11.5096795"><ele>995.9999999999999</ele><time>2026-04-25T11:22:37.463Z</time></trkpt><trkpt lat="45.8721482" lon="11.5098251"><ele>995.9999999999999</ele><time>2026-04-25T11:22:39.464Z</time></trkpt><trkpt lat="45.8721207" lon="11.5099277"><ele>996.0</ele><time>2026-04-25T11:22:41.481Z</time></trkpt><trkpt lat="45.8720254" lon="11.5101087"><ele>996.0</ele><time>2026-04-25T11:22:47.473Z</time></trkpt><trkpt lat="45.8719669" lon="11.5101555"><ele>996.0</ele><time>2026-04-25T11:22:49.454Z</time></trkpt><trkpt lat="45.8718715" lon="11.5102241"><ele>995.9999999999999</ele><time>2026-04-25T11:22:51.474Z</time></trkpt><trkpt lat="45.8718143" lon="11.5102647"><ele>995.9999999999999</ele><time>2026-04-25T11:22:52.475Z</time></trkpt><trkpt lat="45.8717011" lon="11.5103384"><ele>996.0</ele><time>2026-04-25T11:22:54.476Z</time></trkpt><trkpt lat="45.8716379" lon="11.5103755"><ele>996.0</ele><time>2026-04-25T11:22:55.475Z</time></trkpt><trkpt lat="45.8715336" lon="11.5104438"><ele>996.0</ele><time>2026-04-25T11:22:57.474Z</time></trkpt><trkpt lat="45.8714393" lon="11.5105195"><ele>996.0</ele><time>2026-04-25T11:22:59.477Z</time></trkpt><trkpt lat="45.8713444" lon="11.5106009"><ele>996.0</ele><time>2026-04-25T11:23:01.479Z</time></trkpt><trkpt lat="45.8712763" lon="11.5106781"><ele>996.0</ele><time>2026-04-25T11:23:03.469Z</time></trkpt><trkpt lat="45.8711657" lon="11.5108207"><ele>996.0</ele><time>2026-04-25T11:23:08.479Z</time></trkpt><trkpt lat="45.8710672" lon="11.5109188"><ele>995.9999999999999</ele><time>2026-04-25T11:23:10.469Z</time></trkpt><trkpt lat="45.871014" lon="11.510975"><ele>995.9999999999999</ele><time>2026-04-25T11:23:11.466Z</time></trkpt><trkpt lat="45.8709213" lon="11.5110795"><ele>996.0</ele><time>2026-04-25T11:23:13.463Z</time></trkpt><trkpt lat="45.8708387" lon="11.5111722"><ele>996.0</ele><time>2026-04-25T11:23:15.473Z</time></trkpt><trkpt lat="45.8707363" lon="11.5112859"><ele>996.4</ele><time>2026-04-25T11:23:17.472Z</time></trkpt><trkpt lat="45.8706844" lon="11.511341"><ele>996.8</ele><time>2026-04-25T11:23:18.467Z</time></trkpt><trkpt lat="45.8706035" lon="11.5114291"><ele>997.1999999999999</ele><time>2026-04-25T11:23:20.479Z</time></trkpt><trkpt lat="45.8705223" lon="11.5114408"><ele>997.5999999999999</ele><time>2026-04-25T11:23:23.488Z</time></trkpt><trkpt lat="45.8704381" lon="11.5113759"><ele>998.0</ele><time>2026-04-25T11:23:26.476Z</time></trkpt><trkpt lat="45.8703199" lon="11.5112867"><ele>998.0</ele><time>2026-04-25T11:23:30.468Z</time></trkpt><trkpt lat="45.8702443" lon="11.5112428"><ele>998.0</ele><time>2026-04-25T11:23:33.463Z</time></trkpt><trkpt lat="45.8703246" lon="11.5113151"><ele>998.0</ele><time>2026-04-25T11:23:53.465Z</time></trkpt><trkpt lat="45.870474" lon="11.5114399"><ele>998.0</ele><time>2026-04-25T11:23:56.471Z</time></trkpt><trkpt lat="45.8704413" lon="11.5113362"><ele>998.0</ele><time>2026-04-25T11:24:27.472Z</time></trkpt><trkpt lat="45.8702416" lon="11.5112282"><ele>998.0</ele><time>2026-04-25T11:24:30.482Z</time></trkpt><trkpt lat="45.8701805" lon="11.5111832"><ele>998.0</ele><time>2026-04-25T11:24:49.472Z</time></trkpt><trkpt lat="45.8704261" lon="11.5114083"><ele>998.0</ele><time>2026-04-25T11:25:19.485Z</time></trkpt><trkpt lat="45.870489" lon="11.5114677"><ele>998.0</ele><time>2026-04-25T11:25:21.472Z</time></trkpt><trkpt lat="45.8704188" lon="11.5113788"><ele>998.0</ele><time>2026-04-25T11:26:53.47Z</time></trkpt><trkpt lat="45.8702164" lon="11.5112578"><ele>998.0</ele><time>2026-04-25T11:26:57.491Z</time></trkpt><trkpt lat="45.8701573" lon="11.5112185"><ele>998.0</ele><time>2026-04-25T11:26:59.474Z</time></trkpt><trkpt lat="45.8700504" lon="11.5111695"><ele>998.0</ele><time>2026-04-25T11:31:30.473Z</time></trkpt><trkpt lat="45.8698335" lon="11.511101"><ele>997.2</ele><time>2026-04-25T11:31:33.471Z</time></trkpt><trkpt lat="45.8697425" lon="11.5110753"><ele>996.4</ele><time>2026-04-25T11:31:34.474Z</time></trkpt><trkpt lat="45.8696406" lon="11.5110487"><ele>995.6000000000001</ele><time>2026-04-25T11:31:35.466Z</time></trkpt><trkpt lat="45.86954" lon="11.5110214"><ele>994.8000000000001</ele><time>2026-04-25T11:31:36.469Z</time></trkpt><trkpt lat="45.8694461" lon="11.5109999"><ele>994.0</ele><time>2026-04-25T11:31:37.463Z</time></trkpt><trkpt lat="45.869359" lon="11.5109814"><ele>993.9999999999999</ele><time>2026-04-25T11:31:38.475Z</time></trkpt><trkpt lat="45.8692784" lon="11.5109654"><ele>994.0</ele><time>2026-04-25T11:31:39.479Z</time></trkpt><trkpt lat="45.8692029" lon="11.5109498"><ele>994.0</ele><time>2026-04-25T11:31:40.472Z</time></trkpt><trkpt lat="45.8691232" lon="11.5109286"><ele>994.0</ele><time>2026-04-25T11:31:41.473Z</time></trkpt><trkpt lat="45.8690354" lon="11.5109025"><ele>993.9999999999999</ele><time>2026-04-25T11:31:42.472Z</time></trkpt><trkpt lat="45.8689354" lon="11.5108735"><ele>994.0</ele><time>2026-04-25T11:31:43.48Z</time></trkpt><trkpt lat="45.8688208" lon="11.5108435"><ele>993.25</ele><time>2026-04-25T11:31:44.476Z</time></trkpt><trkpt lat="45.8686888" lon="11.5108129"><ele>992.5</ele><time>2026-04-25T11:31:45.472Z</time></trkpt><trkpt lat="45.868545" lon="11.510781"><ele>991.75</ele><time>2026-04-25T11:31:46.483Z</time></trkpt><trkpt lat="45.868382" lon="11.5107512"><ele>991.0</ele><time>2026-04-25T11:31:47.483Z</time></trkpt><trkpt lat="45.8682203" lon="11.5107189"><ele>990.0</ele><time>2026-04-25T11:31:48.463Z</time></trkpt><trkpt lat="45.8680685" lon="11.5106866"><ele>989.0</ele><time>2026-04-25T11:31:49.477Z</time></trkpt><trkpt lat="45.8679338" lon="11.5106573"><ele>988.0</ele><time>2026-04-25T11:31:50.484Z</time></trkpt><trkpt lat="45.8678087" lon="11.5106293"><ele>987.0</ele><time>2026-04-25T11:31:51.478Z</time></trkpt><trkpt lat="45.8675912" lon="11.5105899"><ele>986.8333333333334</ele><time>2026-04-25T11:31:53.469Z</time></trkpt><trkpt lat="45.8674989" lon="11.5105788"><ele>986.6666666666667</ele><time>2026-04-25T11:31:54.469Z</time></trkpt><trkpt lat="45.8674194" lon="11.5105715"><ele>986.5</ele><time>2026-04-25T11:31:55.481Z</time></trkpt><trkpt lat="45.8673489" lon="11.5105552"><ele>986.3333333333334</ele><time>2026-04-25T11:31:56.479Z</time></trkpt><trkpt lat="45.8672805" lon="11.510522"><ele>986.1666666666667</ele><time>2026-04-25T11:31:57.472Z</time></trkpt><trkpt lat="45.8672126" lon="11.5104659"><ele>986.0</ele><time>2026-04-25T11:31:58.46Z</time></trkpt><trkpt lat="45.8671378" lon="11.5103954"><ele>986.0</ele><time>2026-04-25T11:31:59.466Z</time></trkpt><trkpt lat="45.8670538" lon="11.5103145"><ele>985.9999999999999</ele><time>2026-04-25T11:32:00.466Z</time></trkpt><trkpt lat="45.8669645" lon="11.5102262"><ele>985.9999999999999</ele><time>2026-04-25T11:32:01.47Z</time></trkpt><trkpt lat="45.8668806" lon="11.510138"><ele>986.0</ele><time>2026-04-25T11:32:02.475Z</time></trkpt><trkpt lat="45.8668018" lon="11.5100542"><ele>986.0</ele><time>2026-04-25T11:32:03.471Z</time></trkpt><trkpt lat="45.8667262" lon="11.5099745"><ele>986.3333333333334</ele><time>2026-04-25T11:32:04.474Z</time></trkpt><trkpt lat="45.8666563" lon="11.5098997"><ele>986.6666666666667</ele><time>2026-04-25T11:32:05.465Z</time></trkpt><trkpt lat="45.8665931" lon="11.5098307"><ele>987.0</ele><time>2026-04-25T11:32:06.472Z</time></trkpt><trkpt lat="45.8665415" lon="11.5097662"><ele>987.3333333333333</ele><time>2026-04-25T11:32:07.464Z</time></trkpt><trkpt lat="45.8664784" lon="11.5096642"><ele>987.6666666666666</ele><time>2026-04-25T11:32:09.473Z</time></trkpt><trkpt lat="45.8664121" lon="11.5096786"><ele>988.0</ele><time>2026-04-25T11:33:18.457Z</time></trkpt><trkpt lat="45.8666127" lon="11.5098751"><ele>987.9999999999999</ele><time>2026-04-25T11:33:26.468Z</time></trkpt><trkpt lat="45.8666721" lon="11.5099369"><ele>988.0</ele><time>2026-04-25T11:33:27.473Z</time></trkpt><trkpt lat="45.8667334" lon="11.5100071"><ele>988.0</ele><time>2026-04-25T11:33:28.482Z</time></trkpt><trkpt lat="45.8668028" lon="11.5100781"><ele>988.0</ele><time>2026-04-25T11:33:29.477Z</time></trkpt><trkpt lat="45.8668824" lon="11.5101618"><ele>987.9999999999999</ele><time>2026-04-25T11:33:30.476Z</time></trkpt><trkpt lat="45.8669663" lon="11.5102461"><ele>988.0</ele><time>2026-04-25T11:33:31.472Z</time></trkpt><trkpt lat="45.8670464" lon="11.5103245"><ele>987.5999999999999</ele><time>2026-04-25T11:33:32.483Z</time></trkpt><trkpt lat="45.8671183" lon="11.510396"><ele>987.1999999999999</ele><time>2026-04-25T11:33:33.467Z</time></trkpt><trkpt lat="45.8671826" lon="11.5104531"><ele>986.8</ele><time>2026-04-25T11:33:34.473Z</time></trkpt><trkpt lat="45.8672769" lon="11.510529"><ele>986.4</ele><time>2026-04-25T11:33:36.471Z</time></trkpt><trkpt lat="45.8673959" lon="11.5105782"><ele>986.0</ele><time>2026-04-25T11:33:38.466Z</time></trkpt><trkpt lat="45.8674809" lon="11.5106017"><ele>986.25</ele><time>2026-04-25T11:33:39.465Z</time></trkpt><trkpt lat="45.8676919" lon="11.5106411"><ele>986.5</ele><time>2026-04-25T11:33:41.48Z</time></trkpt><trkpt lat="45.8678069" lon="11.5106641"><ele>986.75</ele><time>2026-04-25T11:33:42.471Z</time></trkpt><trkpt lat="45.867924" lon="11.510689"><ele>987.0</ele><time>2026-04-25T11:33:43.461Z</time></trkpt><trkpt lat="45.868036" lon="11.5107104"><ele>987.0</ele><time>2026-04-25T11:33:44.48Z</time></trkpt><trkpt lat="45.8681424" lon="11.5107353"><ele>987.0</ele><time>2026-04-25T11:33:45.471Z</time></trkpt><trkpt lat="45.8682484" lon="11.5107424"><ele>987.0</ele><time>2026-04-25T11:33:46.485Z</time></trkpt><trkpt lat="45.868374" lon="11.5107541"><ele>987.0</ele><time>2026-04-25T11:33:47.473Z</time></trkpt><trkpt lat="45.8685111" lon="11.5107713"><ele>988.3333333333333</ele><time>2026-04-25T11:33:48.473Z</time></trkpt><trkpt lat="45.8686593" lon="11.5107947"><ele>989.6666666666666</ele><time>2026-04-25T11:33:49.474Z</time></trkpt><trkpt lat="45.8688106" lon="11.5108314"><ele>991.0</ele><time>2026-04-25T11:33:50.475Z</time></trkpt><trkpt lat="45.8689674" lon="11.5108818"><ele>991.0</ele><time>2026-04-25T11:33:51.477Z</time></trkpt><trkpt lat="45.8691184" lon="11.5109307"><ele>991.0</ele><time>2026-04-25T11:33:52.471Z</time></trkpt><trkpt lat="45.8692607" lon="11.5109696"><ele>991.0</ele><time>2026-04-25T11:33:53.473Z</time></trkpt><trkpt lat="45.8693969" lon="11.5110061"><ele>991.0</ele><time>2026-04-25T11:33:54.478Z</time></trkpt><trkpt lat="45.8695329" lon="11.5110389"><ele>991.75</ele><time>2026-04-25T11:33:55.479Z</time></trkpt><trkpt lat="45.8696636" lon="11.5110701"><ele>992.5</ele><time>2026-04-25T11:33:56.467Z</time></trkpt><trkpt lat="45.8697886" lon="11.5111041"><ele>993.25</ele><time>2026-04-25T11:33:57.483Z</time></trkpt><trkpt lat="45.8699091" lon="11.5111399"><ele>994.0</ele><time>2026-04-25T11:33:58.473Z</time></trkpt><trkpt lat="45.8700184" lon="11.5111778"><ele>994.4000000000001</ele><time>2026-04-25T11:33:59.488Z</time></trkpt><trkpt lat="45.8701162" lon="11.5112186"><ele>994.8000000000001</ele><time>2026-04-25T11:34:00.48Z</time></trkpt><trkpt lat="45.8702923" lon="11.5113101"><ele>995.1999999999999</ele><time>2026-04-25T11:34:02.467Z</time></trkpt><trkpt lat="45.8703649" lon="11.5113568"><ele>995.5999999999999</ele><time>2026-04-25T11:34:03.466Z</time></trkpt><trkpt lat="45.8704251" lon="11.511399"><ele>996.0</ele><time>2026-04-25T11:34:04.483Z</time></trkpt><trkpt lat="45.870487" lon="11.5114535"><ele>996.4</ele><time>2026-04-25T11:34:06.464Z</time></trkpt><trkpt lat="45.870512" lon="11.5115661"><ele>996.8</ele><time>2026-04-25T11:34:09.476Z</time></trkpt><trkpt lat="45.8704252" lon="11.5117052"><ele>997.1999999999999</ele><time>2026-04-25T11:34:11.469Z</time></trkpt><trkpt lat="45.8703581" lon="11.5117887"><ele>997.5999999999999</ele><time>2026-04-25T11:34:12.488Z</time></trkpt><trkpt lat="45.8702831" lon="11.5118907"><ele>998.0</ele><time>2026-04-25T11:34:13.462Z</time></trkpt><trkpt lat="45.8701928" lon="11.5120076"><ele>997.75</ele><time>2026-04-25T11:34:14.471Z</time></trkpt><trkpt lat="45.8701088" lon="11.5121313"><ele>997.5</ele><time>2026-04-25T11:34:15.469Z</time></trkpt><trkpt lat="45.870026" lon="11.5122615"><ele>997.25</ele><time>2026-04-25T11:34:16.475Z</time></trkpt><trkpt lat="45.8699242" lon="11.5123956"><ele>997.0</ele><time>2026-04-25T11:34:17.469Z</time></trkpt><trkpt lat="45.8698343" lon="11.5125316"><ele>997.0</ele><time>2026-04-25T11:34:18.468Z</time></trkpt><trkpt lat="45.8697469" lon="11.5126518"><ele>997.0</ele><time>2026-04-25T11:34:19.464Z</time></trkpt><trkpt lat="45.8696754" lon="11.5127728"><ele>997.0</ele><time>2026-04-25T11:34:20.456Z</time></trkpt><trkpt lat="45.8696185" lon="11.5129088"><ele>997.0</ele><time>2026-04-25T11:34:21.471Z</time></trkpt><trkpt lat="45.8695443" lon="11.5132144"><ele>997.0</ele><time>2026-04-25T11:34:23.468Z</time></trkpt><trkpt lat="45.8695285" lon="11.51335"><ele>997.0</ele><time>2026-04-25T11:34:24.484Z</time></trkpt><trkpt lat="45.8695106" lon="11.5134576"><ele>997.0</ele><time>2026-04-25T11:34:25.466Z</time></trkpt><trkpt lat="45.8694879" lon="11.5136014"><ele>997.0</ele><time>2026-04-25T11:34:27.47Z</time></trkpt><trkpt lat="45.8694607" lon="11.5137497"><ele>997.0</ele><time>2026-04-25T11:34:30.468Z</time></trkpt><trkpt lat="45.8694299" lon="11.5139381"><ele>998.8</ele><time>2026-04-25T11:34:32.463Z</time></trkpt><trkpt lat="45.8694118" lon="11.5140524"><ele>1000.6</ele><time>2026-04-25T11:34:33.481Z</time></trkpt><trkpt lat="45.8693923" lon="11.5141657"><ele>1002.3999999999999</ele><time>2026-04-25T11:34:34.474Z</time></trkpt><trkpt lat="45.8693666" lon="11.5143011"><ele>1004.1999999999999</ele><time>2026-04-25T11:34:35.466Z</time></trkpt><trkpt lat="45.869329" lon="11.5144491"><ele>1006.0</ele><time>2026-04-25T11:34:36.483Z</time></trkpt><trkpt lat="45.8692873" lon="11.5146109"><ele>1002.75</ele><time>2026-04-25T11:34:37.467Z</time></trkpt><trkpt lat="45.8692382" lon="11.5147724"><ele>999.5</ele><time>2026-04-25T11:34:38.47Z</time></trkpt><trkpt lat="45.8691838" lon="11.5149347"><ele>996.25</ele><time>2026-04-25T11:34:39.48Z</time></trkpt><trkpt lat="45.8691238" lon="11.5150841"><ele>993.0</ele><time>2026-04-25T11:34:40.463Z</time></trkpt><trkpt lat="45.8690613" lon="11.5152272"><ele>993.0</ele><time>2026-04-25T11:34:41.48Z</time></trkpt><trkpt lat="45.8689904" lon="11.5153735"><ele>993.0</ele><time>2026-04-25T11:34:42.477Z</time></trkpt><trkpt lat="45.8688445" lon="11.5156906"><ele>993.0</ele><time>2026-04-25T11:34:44.479Z</time></trkpt><trkpt lat="45.8687687" lon="11.5158516"><ele>993.25</ele><time>2026-04-25T11:34:45.471Z</time></trkpt><trkpt lat="45.8686962" lon="11.5160034"><ele>993.5</ele><time>2026-04-25T11:34:46.461Z</time></trkpt><trkpt lat="45.8686233" lon="11.5161664"><ele>993.75</ele><time>2026-04-25T11:34:47.487Z</time></trkpt><trkpt lat="45.8685721" lon="11.5163138"><ele>994.0</ele><time>2026-04-25T11:34:48.468Z</time></trkpt><trkpt lat="45.8685014" lon="11.5164597"><ele>993.8000000000001</ele><time>2026-04-25T11:34:49.472Z</time></trkpt><trkpt lat="45.8684364" lon="11.5165813"><ele>993.6000000000001</ele><time>2026-04-25T11:34:50.464Z</time></trkpt><trkpt lat="45.8683889" lon="11.5166865"><ele>993.4</ele><time>2026-04-25T11:34:51.476Z</time></trkpt><trkpt lat="45.868343" lon="11.5167868"><ele>993.2</ele><time>2026-04-25T11:34:52.466Z</time></trkpt><trkpt lat="45.868292" lon="11.5169037"><ele>993.0</ele><time>2026-04-25T11:34:53.475Z</time></trkpt><trkpt lat="45.8682345" lon="11.5170293"><ele>993.5</ele><time>2026-04-25T11:34:54.477Z</time></trkpt><trkpt lat="45.8681747" lon="11.5171646"><ele>994.0</ele><time>2026-04-25T11:34:55.474Z</time></trkpt><trkpt lat="45.8681027" lon="11.5173221"><ele>994.5</ele><time>2026-04-25T11:34:56.468Z</time></trkpt><trkpt lat="45.8680245" lon="11.5175057"><ele>995.0</ele><time>2026-04-25T11:34:57.477Z</time></trkpt><trkpt lat="45.8679444" lon="11.5177041"><ele>995.3333333333334</ele><time>2026-04-25T11:34:58.476Z</time></trkpt><trkpt lat="45.8678578" lon="11.5179082"><ele>995.6666666666667</ele><time>2026-04-25T11:34:59.476Z</time></trkpt><trkpt lat="45.8677565" lon="11.5181226"><ele>996.0</ele><time>2026-04-25T11:35:00.476Z</time></trkpt><trkpt lat="45.8676492" lon="11.5183391"><ele>996.6666666666667</ele><time>2026-04-25T11:35:01.471Z</time></trkpt><trkpt lat="45.8675379" lon="11.5185662"><ele>997.3333333333334</ele><time>2026-04-25T11:35:02.472Z</time></trkpt><trkpt lat="45.867408" lon="11.5188117"><ele>998.0</ele><time>2026-04-25T11:35:03.469Z</time></trkpt><trkpt lat="45.8671413" lon="11.5193793"><ele>1000.0</ele><time>2026-04-25T11:35:05.474Z</time></trkpt><trkpt lat="45.867005" lon="11.5196851"><ele>1002.0</ele><time>2026-04-25T11:35:06.471Z</time></trkpt><trkpt lat="45.8668484" lon="11.5199908"><ele>1003.0</ele><time>2026-04-25T11:35:07.47Z</time></trkpt><trkpt lat="45.866689" lon="11.5202765"><ele>1004.0</ele><time>2026-04-25T11:35:08.47Z</time></trkpt><trkpt lat="45.8665414" lon="11.5205409"><ele>1002.3333333333334</ele><time>2026-04-25T11:35:09.471Z</time></trkpt><trkpt lat="45.8664043" lon="11.5207851"><ele>1000.6666666666667</ele><time>2026-04-25T11:35:10.471Z</time></trkpt><trkpt lat="45.8662768" lon="11.5210095"><ele>999.0</ele><time>2026-04-25T11:35:11.475Z</time></trkpt><trkpt lat="45.8661553" lon="11.5212199"><ele>1000.0</ele><time>2026-04-25T11:35:12.472Z</time></trkpt><trkpt lat="45.8660414" lon="11.5214228"><ele>1001.0</ele><time>2026-04-25T11:35:13.473Z</time></trkpt><trkpt lat="45.8659308" lon="11.5216195"><ele>1002.0</ele><time>2026-04-25T11:35:14.456Z</time></trkpt><trkpt lat="45.8658236" lon="11.521812"><ele>1002.6666666666667</ele><time>2026-04-25T11:35:15.467Z</time></trkpt><trkpt lat="45.8657151" lon="11.5220027"><ele>1003.3333333333334</ele><time>2026-04-25T11:35:16.48Z</time></trkpt><trkpt lat="45.8656053" lon="11.5221901"><ele>1004.0</ele><time>2026-04-25T11:35:17.475Z</time></trkpt><trkpt lat="45.8654875" lon="11.5223763"><ele>1004.0</ele><time>2026-04-25T11:35:18.478Z</time></trkpt><trkpt lat="45.8653579" lon="11.5225554"><ele>1004.0</ele><time>2026-04-25T11:35:19.471Z</time></trkpt><trkpt lat="45.8652084" lon="11.5227241"><ele>1004.0</ele><time>2026-04-25T11:35:20.488Z</time></trkpt><trkpt lat="45.8650433" lon="11.5228789"><ele>1004.6666666666667</ele><time>2026-04-25T11:35:21.465Z</time></trkpt><trkpt lat="45.8648811" lon="11.5230197"><ele>1005.3333333333333</ele><time>2026-04-25T11:35:22.472Z</time></trkpt><trkpt lat="45.8647199" lon="11.5231592"><ele>1006.0</ele><time>2026-04-25T11:35:23.468Z</time></trkpt><trkpt lat="45.8645591" lon="11.5233005"><ele>1007.0</ele><time>2026-04-25T11:35:24.483Z</time></trkpt><trkpt lat="45.8642351" lon="11.5235954"><ele>1008.0</ele><time>2026-04-25T11:35:26.466Z</time></trkpt><trkpt lat="45.8640725" lon="11.5237475"><ele>1008.0</ele><time>2026-04-25T11:35:27.466Z</time></trkpt><trkpt lat="45.8639112" lon="11.5238963"><ele>1008.0</ele><time>2026-04-25T11:35:28.465Z</time></trkpt><trkpt lat="45.8637514" lon="11.5240412"><ele>1008.0</ele><time>2026-04-25T11:35:29.465Z</time></trkpt><trkpt lat="45.8635977" lon="11.5241791"><ele>1008.0</ele><time>2026-04-25T11:35:30.49Z</time></trkpt><trkpt lat="45.8634566" lon="11.524308"><ele>1008.0</ele><time>2026-04-25T11:35:31.476Z</time></trkpt><trkpt lat="45.8633221" lon="11.524423"><ele>1008.0</ele><time>2026-04-25T11:35:32.475Z</time></trkpt><trkpt lat="45.8631928" lon="11.5245182"><ele>1010.25</ele><time>2026-04-25T11:35:33.469Z</time></trkpt><trkpt lat="45.863062" lon="11.5245894"><ele>1012.5</ele><time>2026-04-25T11:35:34.471Z</time></trkpt><trkpt lat="45.8629188" lon="11.5246418"><ele>1014.75</ele><time>2026-04-25T11:35:35.473Z</time></trkpt><trkpt lat="45.8627623" lon="11.5246794"><ele>1017.0</ele><time>2026-04-25T11:35:36.461Z</time></trkpt><trkpt lat="45.8626077" lon="11.5246981"><ele>1019.0</ele><time>2026-04-25T11:35:37.471Z</time></trkpt><trkpt lat="45.8624593" lon="11.5246806"><ele>1021.0</ele><time>2026-04-25T11:35:38.469Z</time></trkpt><trkpt lat="45.8623122" lon="11.5246236"><ele>1023.0</ele><time>2026-04-25T11:35:39.475Z</time></trkpt><trkpt lat="45.862164" lon="11.5245455"><ele>1028.0</ele><time>2026-04-25T11:35:40.471Z</time></trkpt><trkpt lat="45.8620137" lon="11.5244676"><ele>1033.0</ele><time>2026-04-25T11:35:41.482Z</time></trkpt><trkpt lat="45.8618597" lon="11.5244068"><ele>1038.0</ele><time>2026-04-25T11:35:42.48Z</time></trkpt><trkpt lat="45.8617098" lon="11.524374"><ele>1038.0</ele><time>2026-04-25T11:35:43.487Z</time></trkpt><trkpt lat="45.8615647" lon="11.5243814"><ele>1038.0</ele><time>2026-04-25T11:35:44.46Z</time></trkpt><trkpt lat="45.861428" lon="11.5244365"><ele>1038.0</ele><time>2026-04-25T11:35:45.485Z</time></trkpt><trkpt lat="45.8611615" lon="11.5246924"><ele>1040.3333333333333</ele><time>2026-04-25T11:35:47.458Z</time></trkpt><trkpt lat="45.8610278" lon="11.5248752"><ele>1042.6666666666665</ele><time>2026-04-25T11:35:48.471Z</time></trkpt><trkpt lat="45.8608849" lon="11.525077"><ele>1045.0</ele><time>2026-04-25T11:35:49.468Z</time></trkpt><trkpt lat="45.8607397" lon="11.525282"><ele>1045.6666666666665</ele><time>2026-04-25T11:35:50.471Z</time></trkpt><trkpt lat="45.8605917" lon="11.5254832"><ele>1046.3333333333333</ele><time>2026-04-25T11:35:51.46Z</time></trkpt><trkpt lat="45.8604486" lon="11.5256878"><ele>1047.0</ele><time>2026-04-25T11:35:52.479Z</time></trkpt><trkpt lat="45.8603098" lon="11.5258917"><ele>1047.0</ele><time>2026-04-25T11:35:53.468Z</time></trkpt><trkpt lat="45.8601886" lon="11.5260502"><ele>1047.0</ele><time>2026-04-25T11:35:54.471Z</time></trkpt><trkpt lat="45.8600585" lon="11.5261708"><ele>1047.0</ele><time>2026-04-25T11:35:55.469Z</time></trkpt><trkpt lat="45.8599156" lon="11.5262604"><ele>1047.3333333333333</ele><time>2026-04-25T11:35:56.471Z</time></trkpt><trkpt lat="45.8597615" lon="11.5263095"><ele>1047.6666666666665</ele><time>2026-04-25T11:35:57.464Z</time></trkpt><trkpt lat="45.8595933" lon="11.5263341"><ele>1048.0</ele><time>2026-04-25T11:35:58.452Z</time></trkpt><trkpt lat="45.8594188" lon="11.5263472"><ele>1049.0</ele><time>2026-04-25T11:35:59.458Z</time></trkpt><trkpt lat="45.859236" lon="11.5263623"><ele>1050.0</ele><time>2026-04-25T11:36:00.467Z</time></trkpt><trkpt lat="45.8590508" lon="11.5263822"><ele>1051.0</ele><time>2026-04-25T11:36:01.463Z</time></trkpt><trkpt lat="45.8588659" lon="11.5264015"><ele>1051.0</ele><time>2026-04-25T11:36:02.471Z</time></trkpt><trkpt lat="45.8586712" lon="11.5264194"><ele>1051.0</ele><time>2026-04-25T11:36:03.47Z</time></trkpt><trkpt lat="45.8584671" lon="11.5264342"><ele>1051.0</ele><time>2026-04-25T11:36:04.461Z</time></trkpt><trkpt lat="45.8582586" lon="11.5264386"><ele>1050.5</ele><time>2026-04-25T11:36:05.456Z</time></trkpt><trkpt lat="45.8580526" lon="11.5264571"><ele>1050.0</ele><time>2026-04-25T11:36:06.471Z</time></trkpt><trkpt lat="45.8576825" lon="11.5265097"><ele>1052.3333333333333</ele><time>2026-04-25T11:36:08.463Z</time></trkpt><trkpt lat="45.8575125" lon="11.5265631"><ele>1054.6666666666665</ele><time>2026-04-25T11:36:09.464Z</time></trkpt><trkpt lat="45.8573547" lon="11.5266545"><ele>1057.0</ele><time>2026-04-25T11:36:10.473Z</time></trkpt><trkpt lat="45.8572068" lon="11.5267636"><ele>1057.0</ele><time>2026-04-25T11:36:11.468Z</time></trkpt><trkpt lat="45.8570584" lon="11.5268987"><ele>1057.0</ele><time>2026-04-25T11:36:12.491Z</time></trkpt><trkpt lat="45.8569147" lon="11.5270406"><ele>1057.0</ele><time>2026-04-25T11:36:13.47Z</time></trkpt><trkpt lat="45.8567762" lon="11.5271733"><ele>1058.75</ele><time>2026-04-25T11:36:14.482Z</time></trkpt><trkpt lat="45.8566493" lon="11.5273014"><ele>1060.5</ele><time>2026-04-25T11:36:15.455Z</time></trkpt><trkpt lat="45.8565464" lon="11.5274214"><ele>1062.25</ele><time>2026-04-25T11:36:16.461Z</time></trkpt><trkpt lat="45.8564695" lon="11.5275233"><ele>1064.0</ele><time>2026-04-25T11:36:17.464Z</time></trkpt><trkpt lat="45.8564135" lon="11.5276121"><ele>1064.0</ele><time>2026-04-25T11:36:18.462Z</time></trkpt><trkpt lat="45.8563456" lon="11.5277006"><ele>1064.0</ele><time>2026-04-25T11:36:20.473Z</time></trkpt><trkpt lat="45.8562936" lon="11.5277933"><ele>1064.0</ele><time>2026-04-25T11:37:22.471Z</time></trkpt><trkpt lat="45.8562473" lon="11.5280126"><ele>1064.0</ele><time>2026-04-25T11:37:24.481Z</time></trkpt><trkpt lat="45.8561915" lon="11.5281856"><ele>1065.3333333333335</ele><time>2026-04-25T11:37:25.468Z</time></trkpt><trkpt lat="45.8561124" lon="11.528419"><ele>1066.6666666666667</ele><time>2026-04-25T11:37:26.452Z</time></trkpt><trkpt lat="45.8560257" lon="11.5286556"><ele>1068.0</ele><time>2026-04-25T11:37:27.468Z</time></trkpt><trkpt lat="45.8559416" lon="11.5288954"><ele>1068.0</ele><time>2026-04-25T11:37:28.449Z</time></trkpt><trkpt lat="45.8558592" lon="11.5291239"><ele>1068.0</ele><time>2026-04-25T11:37:29.468Z</time></trkpt><trkpt lat="45.8557757" lon="11.5293639"><ele>1068.0</ele><time>2026-04-25T11:37:30.469Z</time></trkpt><trkpt lat="45.8556921" lon="11.5295928"><ele>1067.6666666666667</ele><time>2026-04-25T11:37:31.477Z</time></trkpt><trkpt lat="45.8556123" lon="11.5298284"><ele>1067.3333333333335</ele><time>2026-04-25T11:37:32.463Z</time></trkpt><trkpt lat="45.855531" lon="11.5300625"><ele>1067.0</ele><time>2026-04-25T11:37:33.468Z</time></trkpt><trkpt lat="45.8554483" lon="11.5302997"><ele>1067.0</ele><time>2026-04-25T11:37:34.475Z</time></trkpt><trkpt lat="45.8553675" lon="11.5305368"><ele>1067.0</ele><time>2026-04-25T11:37:35.455Z</time></trkpt><trkpt lat="45.8552843" lon="11.5307723"><ele>1067.0</ele><time>2026-04-25T11:37:36.472Z</time></trkpt><trkpt lat="45.8552004" lon="11.5310074"><ele>1068.3333333333335</ele><time>2026-04-25T11:37:37.462Z</time></trkpt><trkpt lat="45.855118" lon="11.5312442"><ele>1069.6666666666667</ele><time>2026-04-25T11:37:38.471Z</time></trkpt><trkpt lat="45.8550407" lon="11.5314709"><ele>1071.0</ele><time>2026-04-25T11:37:39.46Z</time></trkpt><trkpt lat="45.8549615" lon="11.5316979"><ele>1071.0</ele><time>2026-04-25T11:37:40.472Z</time></trkpt><trkpt lat="45.8548852" lon="11.5319197"><ele>1071.0</ele><time>2026-04-25T11:37:41.469Z</time></trkpt><trkpt lat="45.8548022" lon="11.5321471"><ele>1071.0</ele><time>2026-04-25T11:37:42.477Z</time></trkpt><trkpt lat="45.8547381" lon="11.5323779"><ele>1067.5</ele><time>2026-04-25T11:37:43.472Z</time></trkpt><trkpt lat="45.8545756" lon="11.5328293"><ele>1064.0</ele><time>2026-04-25T11:37:45.482Z</time></trkpt><trkpt lat="45.854493" lon="11.5330474"><ele>1062.6666666666667</ele><time>2026-04-25T11:37:46.464Z</time></trkpt><trkpt lat="45.8544124" lon="11.533263"><ele>1061.3333333333333</ele><time>2026-04-25T11:37:47.481Z</time></trkpt><trkpt lat="45.8543339" lon="11.5334805"><ele>1060.0</ele><time>2026-04-25T11:37:48.472Z</time></trkpt><trkpt lat="45.8542522" lon="11.5337042"><ele>1063.3333333333333</ele><time>2026-04-25T11:37:49.474Z</time></trkpt><trkpt lat="45.8541723" lon="11.5339272"><ele>1066.6666666666667</ele><time>2026-04-25T11:37:50.476Z</time></trkpt><trkpt lat="45.8540932" lon="11.5341583"><ele>1070.0</ele><time>2026-04-25T11:37:51.48Z</time></trkpt><trkpt lat="45.8540129" lon="11.5343904"><ele>1069.0</ele><time>2026-04-25T11:37:52.483Z</time></trkpt><trkpt lat="45.8539333" lon="11.5346177"><ele>1068.0</ele><time>2026-04-25T11:37:53.477Z</time></trkpt><trkpt lat="45.8538584" lon="11.5348317"><ele>1067.0</ele><time>2026-04-25T11:37:54.482Z</time></trkpt><trkpt lat="45.8537913" lon="11.5350306"><ele>1067.0</ele><time>2026-04-25T11:37:55.48Z</time></trkpt><trkpt lat="45.853726" lon="11.5352207"><ele>1067.0</ele><time>2026-04-25T11:37:56.467Z</time></trkpt><trkpt lat="45.8536633" lon="11.5354006"><ele>1067.0</ele><time>2026-04-25T11:37:57.481Z</time></trkpt><trkpt lat="45.8536027" lon="11.5355682"><ele>1067.0</ele><time>2026-04-25T11:37:58.469Z</time></trkpt><trkpt lat="45.8535442" lon="11.5357195"><ele>1067.6</ele><time>2026-04-25T11:37:59.459Z</time></trkpt><trkpt lat="45.8534917" lon="11.5358544"><ele>1068.2</ele><time>2026-04-25T11:38:00.468Z</time></trkpt><trkpt lat="45.8534443" lon="11.5359786"><ele>1068.8</ele><time>2026-04-25T11:38:01.453Z</time></trkpt><trkpt lat="45.8534001" lon="11.5360903"><ele>1069.4</ele><time>2026-04-25T11:38:02.472Z</time></trkpt><trkpt lat="45.8533635" lon="11.5361862"><ele>1070.0</ele><time>2026-04-25T11:38:03.469Z</time></trkpt><trkpt lat="45.8533119" lon="11.5363196"><ele>1070.0</ele><time>2026-04-25T11:38:05.484Z</time></trkpt><trkpt lat="45.8532716" lon="11.5365065"><ele>1070.0</ele><time>2026-04-25T11:39:47.476Z</time></trkpt><trkpt lat="45.8531928" lon="11.536764"><ele>1070.0</ele><time>2026-04-25T11:39:50.466Z</time></trkpt><trkpt lat="45.8531506" lon="11.5368661"><ele>1070.0</ele><time>2026-04-25T11:39:51.468Z</time></trkpt><trkpt lat="45.8530949" lon="11.5370017"><ele>1069.8</ele><time>2026-04-25T11:39:52.471Z</time></trkpt><trkpt lat="45.8530305" lon="11.5371408"><ele>1069.6</ele><time>2026-04-25T11:39:53.465Z</time></trkpt><trkpt lat="45.8529672" lon="11.5372625"><ele>1069.4</ele><time>2026-04-25T11:39:54.464Z</time></trkpt><trkpt lat="45.8529026" lon="11.5373723"><ele>1069.2</ele><time>2026-04-25T11:39:55.469Z</time></trkpt><trkpt lat="45.8528341" lon="11.5374791"><ele>1069.0</ele><time>2026-04-25T11:39:56.46Z</time></trkpt><trkpt lat="45.8527611" lon="11.5375881"><ele>1069.0</ele><time>2026-04-25T11:39:57.468Z</time></trkpt><trkpt lat="45.8526893" lon="11.5376898"><ele>1069.0</ele><time>2026-04-25T11:39:58.472Z</time></trkpt><trkpt lat="45.8526132" lon="11.537793"><ele>1069.0</ele><time>2026-04-25T11:39:59.455Z</time></trkpt><trkpt lat="45.8525381" lon="11.5378941"><ele>1069.0</ele><time>2026-04-25T11:40:00.471Z</time></trkpt><trkpt lat="45.8524614" lon="11.5379974"><ele>1069.0</ele><time>2026-04-25T11:40:01.467Z</time></trkpt><trkpt lat="45.8523734" lon="11.5381091"><ele>1072.5</ele><time>2026-04-25T11:40:02.467Z</time></trkpt><trkpt lat="45.8522842" lon="11.5382274"><ele>1076.0</ele><time>2026-04-25T11:40:03.465Z</time></trkpt><trkpt lat="45.8521865" lon="11.5383575"><ele>1079.5</ele><time>2026-04-25T11:40:04.473Z</time></trkpt><trkpt lat="45.8520775" lon="11.5384991"><ele>1083.0</ele><time>2026-04-25T11:40:05.469Z</time></trkpt><trkpt lat="45.8519622" lon="11.5386481"><ele>1083.0</ele><time>2026-04-25T11:40:06.473Z</time></trkpt><trkpt lat="45.851847" lon="11.5388039"><ele>1083.0</ele><time>2026-04-25T11:40:07.472Z</time></trkpt><trkpt lat="45.8517322" lon="11.538958"><ele>1083.0</ele><time>2026-04-25T11:40:08.471Z</time></trkpt><trkpt lat="45.8514813" lon="11.5392915"><ele>1083.0</ele><time>2026-04-25T11:40:10.467Z</time></trkpt><trkpt lat="45.8513505" lon="11.5394661"><ele>1083.0</ele><time>2026-04-25T11:40:11.472Z</time></trkpt><trkpt lat="45.8512246" lon="11.5396343"><ele>1083.0</ele><time>2026-04-25T11:40:12.467Z</time></trkpt><trkpt lat="45.8511031" lon="11.539795"><ele>1083.0</ele><time>2026-04-25T11:40:13.462Z</time></trkpt><trkpt lat="45.8509848" lon="11.5399544"><ele>1083.0</ele><time>2026-04-25T11:40:14.494Z</time></trkpt><trkpt lat="45.8508675" lon="11.5401118"><ele>1083.0</ele><time>2026-04-25T11:40:15.47Z</time></trkpt><trkpt lat="45.8507528" lon="11.5402718"><ele>1083.0</ele><time>2026-04-25T11:40:16.454Z</time></trkpt><trkpt lat="45.8506458" lon="11.5404446"><ele>1083.0</ele><time>2026-04-25T11:40:17.445Z</time></trkpt><trkpt lat="45.8505541" lon="11.5406377"><ele>1083.0</ele><time>2026-04-25T11:40:18.47Z</time></trkpt><trkpt lat="45.8504702" lon="11.5408245"><ele>1083.0</ele><time>2026-04-25T11:40:19.485Z</time></trkpt><trkpt lat="45.8504133" lon="11.5410638"><ele>1083.0</ele><time>2026-04-25T11:40:20.448Z</time></trkpt><trkpt lat="45.8503742" lon="11.5413205"><ele>1083.0</ele><time>2026-04-25T11:40:21.471Z</time></trkpt><trkpt lat="45.8503378" lon="11.5415807"><ele>1084.0</ele><time>2026-04-25T11:40:22.469Z</time></trkpt><trkpt lat="45.8503007" lon="11.5418373"><ele>1085.0</ele><time>2026-04-25T11:40:23.468Z</time></trkpt><trkpt lat="45.850263" lon="11.5420884"><ele>1086.0</ele><time>2026-04-25T11:40:24.476Z</time></trkpt><trkpt lat="45.8502247" lon="11.5423284"><ele>1087.0</ele><time>2026-04-25T11:40:25.465Z</time></trkpt><trkpt lat="45.8501774" lon="11.5425573"><ele>1088.0</ele><time>2026-04-25T11:40:26.458Z</time></trkpt><trkpt lat="45.8501191" lon="11.5427933"><ele>1089.0</ele><time>2026-04-25T11:40:27.45Z</time></trkpt><trkpt lat="45.8500572" lon="11.5430266"><ele>1091.0</ele><time>2026-04-25T11:40:28.459Z</time></trkpt><trkpt lat="45.8499878" lon="11.5432527"><ele>1093.0</ele><time>2026-04-25T11:40:29.463Z</time></trkpt><trkpt lat="45.8498526" lon="11.5437011"><ele>1093.3333333333333</ele><time>2026-04-25T11:40:31.459Z</time></trkpt><trkpt lat="45.849783" lon="11.5439291"><ele>1093.6666666666667</ele><time>2026-04-25T11:40:32.463Z</time></trkpt><trkpt lat="45.8497134" lon="11.5441582"><ele>1094.0</ele><time>2026-04-25T11:40:33.478Z</time></trkpt><trkpt lat="45.8496446" lon="11.5443878"><ele>1093.3333333333335</ele><time>2026-04-25T11:40:34.469Z</time></trkpt><trkpt lat="45.8495759" lon="11.5446086"><ele>1092.6666666666667</ele><time>2026-04-25T11:40:35.475Z</time></trkpt><trkpt lat="45.8495099" lon="11.5448149"><ele>1092.0</ele><time>2026-04-25T11:40:36.467Z</time></trkpt><trkpt lat="45.8494461" lon="11.545014"><ele>1092.0</ele><time>2026-04-25T11:40:37.472Z</time></trkpt><trkpt lat="45.8493898" lon="11.5452014"><ele>1092.0</ele><time>2026-04-25T11:40:38.45Z</time></trkpt><trkpt lat="45.8493397" lon="11.545371"><ele>1092.0</ele><time>2026-04-25T11:40:39.469Z</time></trkpt><trkpt lat="45.8492934" lon="11.545526"><ele>1092.0</ele><time>2026-04-25T11:40:40.457Z</time></trkpt><trkpt lat="45.8492514" lon="11.5456681"><ele>1090.8</ele><time>2026-04-25T11:40:41.473Z</time></trkpt><trkpt lat="45.8492153" lon="11.5457999"><ele>1089.6</ele><time>2026-04-25T11:40:42.48Z</time></trkpt><trkpt lat="45.8491905" lon="11.5459276"><ele>1088.3999999999999</ele><time>2026-04-25T11:40:43.463Z</time></trkpt><trkpt lat="45.8491701" lon="11.5460518"><ele>1087.2</ele><time>2026-04-25T11:40:44.47Z</time></trkpt><trkpt lat="45.8491519" lon="11.5461819"><ele>1086.0</ele><time>2026-04-25T11:40:45.474Z</time></trkpt><trkpt lat="45.8491232" lon="11.546313"><ele>1086.3999999999999</ele><time>2026-04-25T11:40:46.471Z</time></trkpt><trkpt lat="45.8490803" lon="11.5464379"><ele>1086.8</ele><time>2026-04-25T11:40:47.467Z</time></trkpt><trkpt lat="45.849032" lon="11.5465668"><ele>1087.1999999999998</ele><time>2026-04-25T11:40:48.489Z</time></trkpt><trkpt lat="45.848979" lon="11.5467145"><ele>1087.6</ele><time>2026-04-25T11:40:49.469Z</time></trkpt><trkpt lat="45.848924" lon="11.5468807"><ele>1088.0</ele><time>2026-04-25T11:40:50.476Z</time></trkpt><trkpt lat="45.8487941" lon="11.5472278"><ele>1088.0</ele><time>2026-04-25T11:40:52.483Z</time></trkpt><trkpt lat="45.848722" lon="11.5474131"><ele>1088.0</ele><time>2026-04-25T11:40:53.485Z</time></trkpt><trkpt lat="45.848651" lon="11.5476077"><ele>1088.0</ele><time>2026-04-25T11:40:54.473Z</time></trkpt><trkpt lat="45.8485851" lon="11.5478073"><ele>1088.6666666666667</ele><time>2026-04-25T11:40:55.477Z</time></trkpt><trkpt lat="45.8485153" lon="11.5480047"><ele>1089.3333333333333</ele><time>2026-04-25T11:40:56.459Z</time></trkpt><trkpt lat="45.8484373" lon="11.5481953"><ele>1090.0</ele><time>2026-04-25T11:40:57.473Z</time></trkpt><trkpt lat="45.848347" lon="11.5483751"><ele>1090.0</ele><time>2026-04-25T11:40:58.467Z</time></trkpt><trkpt lat="45.8482417" lon="11.5485425"><ele>1090.0</ele><time>2026-04-25T11:40:59.465Z</time></trkpt><trkpt lat="45.8481223" lon="11.5486922"><ele>1090.0</ele><time>2026-04-25T11:41:00.462Z</time></trkpt><trkpt lat="45.8479865" lon="11.5488255"><ele>1090.0</ele><time>2026-04-25T11:41:01.468Z</time></trkpt><trkpt lat="45.8478365" lon="11.5489452"><ele>1090.0</ele><time>2026-04-25T11:41:02.453Z</time></trkpt><trkpt lat="45.8476784" lon="11.549057"><ele>1090.0</ele><time>2026-04-25T11:41:03.442Z</time></trkpt><trkpt lat="45.8475191" lon="11.549167"><ele>1090.0</ele><time>2026-04-25T11:41:04.451Z</time></trkpt><trkpt lat="45.8473596" lon="11.5492789"><ele>1090.0</ele><time>2026-04-25T11:41:05.446Z</time></trkpt><trkpt lat="45.8472006" lon="11.5493919"><ele>1090.0</ele><time>2026-04-25T11:41:06.457Z</time></trkpt><trkpt lat="45.8470405" lon="11.5495002"><ele>1090.0</ele><time>2026-04-25T11:41:07.459Z</time></trkpt><trkpt lat="45.8468793" lon="11.549599"><ele>1090.0</ele><time>2026-04-25T11:41:08.46Z</time></trkpt><trkpt lat="45.8467151" lon="11.5496848"><ele>1090.0</ele><time>2026-04-25T11:41:09.447Z</time></trkpt><trkpt lat="45.8465446" lon="11.5497583"><ele>1089.5</ele><time>2026-04-25T11:41:10.475Z</time></trkpt><trkpt lat="45.8463683" lon="11.5498212"><ele>1089.0</ele><time>2026-04-25T11:41:11.467Z</time></trkpt><trkpt lat="45.8460013" lon="11.5499242"><ele>1088.6666666666667</ele><time>2026-04-25T11:41:13.467Z</time></trkpt><trkpt lat="45.8458133" lon="11.5499713"><ele>1088.3333333333335</ele><time>2026-04-25T11:41:14.469Z</time></trkpt><trkpt lat="45.8456238" lon="11.5500186"><ele>1088.0</ele><time>2026-04-25T11:41:15.467Z</time></trkpt><trkpt lat="45.8454341" lon="11.5500666"><ele>1088.0</ele><time>2026-04-25T11:41:16.468Z</time></trkpt><trkpt lat="45.8452456" lon="11.5501146"><ele>1088.0</ele><time>2026-04-25T11:41:17.48Z</time></trkpt><trkpt lat="45.845057" lon="11.5501619"><ele>1088.0</ele><time>2026-04-25T11:41:18.465Z</time></trkpt><trkpt lat="45.8448679" lon="11.5502103"><ele>1087.0</ele><time>2026-04-25T11:41:19.461Z</time></trkpt><trkpt lat="45.8446792" lon="11.5502629"><ele>1086.0</ele><time>2026-04-25T11:41:20.475Z</time></trkpt><trkpt lat="45.8444946" lon="11.5503153"><ele>1085.0</ele><time>2026-04-25T11:41:21.471Z</time></trkpt><trkpt lat="45.8443133" lon="11.5503685"><ele>1083.6666666666667</ele><time>2026-04-25T11:41:22.466Z</time></trkpt><trkpt lat="45.8441335" lon="11.5504229"><ele>1082.3333333333333</ele><time>2026-04-25T11:41:23.468Z</time></trkpt><trkpt lat="45.8439616" lon="11.5504773"><ele>1081.0</ele><time>2026-04-25T11:41:24.498Z</time></trkpt><trkpt lat="45.8437952" lon="11.5505293"><ele>1081.0</ele><time>2026-04-25T11:41:25.456Z</time></trkpt><trkpt lat="45.8436282" lon="11.5505802"><ele>1081.0</ele><time>2026-04-25T11:41:26.459Z</time></trkpt><trkpt lat="45.8434609" lon="11.5506295"><ele>1081.0</ele><time>2026-04-25T11:41:27.459Z</time></trkpt><trkpt lat="45.8432987" lon="11.5506796"><ele>1080.3333333333333</ele><time>2026-04-25T11:41:28.452Z</time></trkpt><trkpt lat="45.8431392" lon="11.550732"><ele>1079.6666666666667</ele><time>2026-04-25T11:41:29.463Z</time></trkpt><trkpt lat="45.8429772" lon="11.5507858"><ele>1079.0</ele><time>2026-04-25T11:41:30.46Z</time></trkpt><trkpt lat="45.8428141" lon="11.5508376"><ele>1079.0</ele><time>2026-04-25T11:41:31.454Z</time></trkpt><trkpt lat="45.8426521" lon="11.5508853"><ele>1079.0</ele><time>2026-04-25T11:41:32.458Z</time></trkpt><trkpt lat="45.8423197" lon="11.5509888"><ele>1078.6666666666667</ele><time>2026-04-25T11:41:34.45Z</time></trkpt><trkpt lat="45.8421494" lon="11.5510429"><ele>1078.3333333333333</ele><time>2026-04-25T11:41:35.463Z</time></trkpt><trkpt lat="45.8419771" lon="11.551097"><ele>1078.0</ele><time>2026-04-25T11:41:36.456Z</time></trkpt><trkpt lat="45.8418028" lon="11.5511512"><ele>1082.0</ele><time>2026-04-25T11:41:37.456Z</time></trkpt><trkpt lat="45.8416267" lon="11.5512095"><ele>1086.0</ele><time>2026-04-25T11:41:38.478Z</time></trkpt><trkpt lat="45.8414527" lon="11.5512676"><ele>1090.0</ele><time>2026-04-25T11:41:39.456Z</time></trkpt><trkpt lat="45.8412867" lon="11.5513266"><ele>1090.0</ele><time>2026-04-25T11:41:40.462Z</time></trkpt><trkpt lat="45.8411281" lon="11.5513851"><ele>1090.0</ele><time>2026-04-25T11:41:41.454Z</time></trkpt><trkpt lat="45.8409741" lon="11.5514393"><ele>1090.0</ele><time>2026-04-25T11:41:42.451Z</time></trkpt><trkpt lat="45.8408244" lon="11.5515015"><ele>1087.6666666666665</ele><time>2026-04-25T11:41:43.465Z</time></trkpt><trkpt lat="45.840678" lon="11.5515639"><ele>1085.3333333333333</ele><time>2026-04-25T11:41:44.462Z</time></trkpt><trkpt lat="45.840531" lon="11.5516233"><ele>1083.0</ele><time>2026-04-25T11:41:45.467Z</time></trkpt><trkpt lat="45.8403837" lon="11.5516852"><ele>1083.0</ele><time>2026-04-25T11:41:46.456Z</time></trkpt><trkpt lat="45.8402399" lon="11.5517439"><ele>1083.0</ele><time>2026-04-25T11:41:47.458Z</time></trkpt><trkpt lat="45.8400999" lon="11.5518015"><ele>1083.0</ele><time>2026-04-25T11:41:48.45Z</time></trkpt><trkpt lat="45.8399581" lon="11.551857"><ele>1083.0</ele><time>2026-04-25T11:41:49.456Z</time></trkpt><trkpt lat="45.839813" lon="11.551913"><ele>1080.75</ele><time>2026-04-25T11:41:50.454Z</time></trkpt><trkpt lat="45.8396694" lon="11.5519726"><ele>1078.5</ele><time>2026-04-25T11:41:51.449Z</time></trkpt><trkpt lat="45.8395275" lon="11.5520317"><ele>1076.25</ele><time>2026-04-25T11:41:52.459Z</time></trkpt><trkpt lat="45.839383" lon="11.5520917"><ele>1074.0</ele><time>2026-04-25T11:41:53.476Z</time></trkpt><trkpt lat="45.8390948" lon="11.5522093"><ele>1072.5</ele><time>2026-04-25T11:41:55.451Z</time></trkpt><trkpt lat="45.8389546" lon="11.5522645"><ele>1071.0</ele><time>2026-04-25T11:41:56.46Z</time></trkpt><trkpt lat="45.838815" lon="11.5523211"><ele>1069.5</ele><time>2026-04-25T11:41:57.449Z</time></trkpt><trkpt lat="45.838671" lon="11.5523829"><ele>1068.0</ele><time>2026-04-25T11:41:58.455Z</time></trkpt><trkpt lat="45.8385243" lon="11.5524435"><ele>1067.0</ele><time>2026-04-25T11:41:59.464Z</time></trkpt><trkpt lat="45.8383772" lon="11.5525053"><ele>1066.0</ele><time>2026-04-25T11:42:00.455Z</time></trkpt><trkpt lat="45.8382295" lon="11.5525666"><ele>1065.0</ele><time>2026-04-25T11:42:01.455Z</time></trkpt><trkpt lat="45.8380784" lon="11.5526264"><ele>1065.0</ele><time>2026-04-25T11:42:02.464Z</time></trkpt><trkpt lat="45.8379266" lon="11.5526854"><ele>1065.0</ele><time>2026-04-25T11:42:03.458Z</time></trkpt><trkpt lat="45.8377728" lon="11.5527449"><ele>1065.0</ele><time>2026-04-25T11:42:04.47Z</time></trkpt><trkpt lat="45.837619" lon="11.552806"><ele>1064.6666666666667</ele><time>2026-04-25T11:42:05.454Z</time></trkpt><trkpt lat="45.8374645" lon="11.5528681"><ele>1064.3333333333335</ele><time>2026-04-25T11:42:06.455Z</time></trkpt><trkpt lat="45.8373105" lon="11.5529317"><ele>1064.0</ele><time>2026-04-25T11:42:07.444Z</time></trkpt><trkpt lat="45.8371572" lon="11.5529959"><ele>1064.0</ele><time>2026-04-25T11:42:08.453Z</time></trkpt><trkpt lat="45.8370065" lon="11.5530605"><ele>1064.0</ele><time>2026-04-25T11:42:09.459Z</time></trkpt><trkpt lat="45.8368581" lon="11.5531242"><ele>1064.0</ele><time>2026-04-25T11:42:10.446Z</time></trkpt><trkpt lat="45.8367161" lon="11.5531953"><ele>1063.0</ele><time>2026-04-25T11:42:11.454Z</time></trkpt><trkpt lat="45.8365788" lon="11.5532824"><ele>1062.0</ele><time>2026-04-25T11:42:12.46Z</time></trkpt><trkpt lat="45.8364446" lon="11.5533855"><ele>1061.0</ele><time>2026-04-25T11:42:13.461Z</time></trkpt><trkpt lat="45.8363073" lon="11.5534902"><ele>1062.0</ele><time>2026-04-25T11:42:14.455Z</time></trkpt><trkpt lat="45.8360515" lon="11.5537237"><ele>1063.0</ele><time>2026-04-25T11:42:16.446Z</time></trkpt><trkpt lat="45.8359251" lon="11.5538459"><ele>1063.0</ele><time>2026-04-25T11:42:17.471Z</time></trkpt><trkpt lat="45.8358025" lon="11.5539719"><ele>1063.0</ele><time>2026-04-25T11:42:18.454Z</time></trkpt><trkpt lat="45.8356793" lon="11.5540954"><ele>1063.0</ele><time>2026-04-25T11:42:19.458Z</time></trkpt><trkpt lat="45.8355626" lon="11.5542142"><ele>1063.0</ele><time>2026-04-25T11:42:20.447Z</time></trkpt><trkpt lat="45.8354535" lon="11.5543462"><ele>1063.0</ele><time>2026-04-25T11:42:21.464Z</time></trkpt><trkpt lat="45.8353512" lon="11.5544944"><ele>1063.0</ele><time>2026-04-25T11:42:22.451Z</time></trkpt><trkpt lat="45.8352602" lon="11.554656"><ele>1063.0</ele><time>2026-04-25T11:42:23.465Z</time></trkpt><trkpt lat="45.8351845" lon="11.554828"><ele>1063.0</ele><time>2026-04-25T11:42:24.454Z</time></trkpt><trkpt lat="45.8351235" lon="11.5550095"><ele>1063.0</ele><time>2026-04-25T11:42:25.455Z</time></trkpt><trkpt lat="45.8350758" lon="11.5551877"><ele>1063.0</ele><time>2026-04-25T11:42:26.46Z</time></trkpt><trkpt lat="45.8350333" lon="11.5553586"><ele>1063.0</ele><time>2026-04-25T11:42:27.451Z</time></trkpt><trkpt lat="45.8349944" lon="11.5555203"><ele>1063.0</ele><time>2026-04-25T11:42:28.468Z</time></trkpt><trkpt lat="45.834959" lon="11.5556712"><ele>1063.0</ele><time>2026-04-25T11:42:29.457Z</time></trkpt><trkpt lat="45.8349247" lon="11.5558207"><ele>1063.0</ele><time>2026-04-25T11:42:30.476Z</time></trkpt><trkpt lat="45.8348911" lon="11.5559674"><ele>1063.0</ele><time>2026-04-25T11:42:31.448Z</time></trkpt><trkpt lat="45.8348577" lon="11.5561133"><ele>1063.0</ele><time>2026-04-25T11:42:32.447Z</time></trkpt><trkpt lat="45.8348258" lon="11.5562605"><ele>1063.0</ele><time>2026-04-25T11:42:33.453Z</time></trkpt><trkpt lat="45.8347902" lon="11.5564132"><ele>1063.3333333333333</ele><time>2026-04-25T11:42:34.452Z</time></trkpt><trkpt lat="45.8347525" lon="11.5565708"><ele>1063.6666666666667</ele><time>2026-04-25T11:42:35.456Z</time></trkpt><trkpt lat="45.8346802" lon="11.5568955"><ele>1064.0</ele><time>2026-04-25T11:42:37.454Z</time></trkpt><trkpt lat="45.8346519" lon="11.557066"><ele>1064.5</ele><time>2026-04-25T11:42:38.446Z</time></trkpt><trkpt lat="45.8346354" lon="11.5572353"><ele>1065.0</ele><time>2026-04-25T11:42:39.456Z</time></trkpt><trkpt lat="45.8346328" lon="11.5574011"><ele>1065.5</ele><time>2026-04-25T11:42:40.45Z</time></trkpt><trkpt lat="45.8346459" lon="11.5575631"><ele>1066.0</ele><time>2026-04-25T11:42:41.478Z</time></trkpt><trkpt lat="45.8346766" lon="11.5577235"><ele>1065.75</ele><time>2026-04-25T11:42:42.451Z</time></trkpt><trkpt lat="45.834722" lon="11.5578808"><ele>1065.5</ele><time>2026-04-25T11:42:43.458Z</time></trkpt><trkpt lat="45.8347791" lon="11.5580337"><ele>1065.25</ele><time>2026-04-25T11:42:44.449Z</time></trkpt><trkpt lat="45.8348422" lon="11.5581856"><ele>1065.0</ele><time>2026-04-25T11:42:45.469Z</time></trkpt><trkpt lat="45.8349065" lon="11.5583323"><ele>1065.0</ele><time>2026-04-25T11:42:46.447Z</time></trkpt><trkpt lat="45.8349678" lon="11.5584743"><ele>1065.0</ele><time>2026-04-25T11:42:47.45Z</time></trkpt><trkpt lat="45.8350274" lon="11.5586149"><ele>1065.0</ele><time>2026-04-25T11:42:48.446Z</time></trkpt><trkpt lat="45.8350855" lon="11.5587581"><ele>1065.0</ele><time>2026-04-25T11:42:49.464Z</time></trkpt><trkpt lat="45.8351417" lon="11.5589095"><ele>1069.5</ele><time>2026-04-25T11:42:50.465Z</time></trkpt><trkpt lat="45.8351936" lon="11.5590688"><ele>1074.0</ele><time>2026-04-25T11:42:51.453Z</time></trkpt><trkpt lat="45.8352391" lon="11.5592294"><ele>1078.5</ele><time>2026-04-25T11:42:52.445Z</time></trkpt><trkpt lat="45.8352788" lon="11.5593954"><ele>1083.0</ele><time>2026-04-25T11:42:53.449Z</time></trkpt><trkpt lat="45.8353127" lon="11.5595717"><ele>1083.0</ele><time>2026-04-25T11:42:54.45Z</time></trkpt><trkpt lat="45.8353413" lon="11.5597561"><ele>1083.0</ele><time>2026-04-25T11:42:55.452Z</time></trkpt><trkpt lat="45.8353656" lon="11.559945"><ele>1083.0</ele><time>2026-04-25T11:42:56.459Z</time></trkpt><trkpt lat="45.83541" lon="11.5603318"><ele>1081.25</ele><time>2026-04-25T11:42:58.454Z</time></trkpt><trkpt lat="45.8354285" lon="11.5605299"><ele>1079.5</ele><time>2026-04-25T11:42:59.453Z</time></trkpt><trkpt lat="45.83544" lon="11.5607339"><ele>1077.75</ele><time>2026-04-25T11:43:00.441Z</time></trkpt><trkpt lat="45.8354388" lon="11.560944"><ele>1076.0</ele><time>2026-04-25T11:43:01.449Z</time></trkpt><trkpt lat="45.8354224" lon="11.5611571"><ele>1075.25</ele><time>2026-04-25T11:43:02.453Z</time></trkpt><trkpt lat="45.8353923" lon="11.5613702"><ele>1074.5</ele><time>2026-04-25T11:43:03.454Z</time></trkpt><trkpt lat="45.8353517" lon="11.5615787"><ele>1073.75</ele><time>2026-04-25T11:43:04.45Z</time></trkpt><trkpt lat="45.8353101" lon="11.561778"><ele>1073.0</ele><time>2026-04-25T11:43:05.454Z</time></trkpt><trkpt lat="45.8352695" lon="11.561972"><ele>1073.75</ele><time>2026-04-25T11:43:06.451Z</time></trkpt><trkpt lat="45.8352324" lon="11.5621592"><ele>1074.5</ele><time>2026-04-25T11:43:07.456Z</time></trkpt><trkpt lat="45.8352023" lon="11.5623387"><ele>1075.25</ele><time>2026-04-25T11:43:08.453Z</time></trkpt><trkpt lat="45.8351822" lon="11.5625128"><ele>1076.0</ele><time>2026-04-25T11:43:09.459Z</time></trkpt><trkpt lat="45.8351747" lon="11.5626879"><ele>1076.0</ele><time>2026-04-25T11:43:10.452Z</time></trkpt><trkpt lat="45.8351784" lon="11.5628664"><ele>1076.0</ele><time>2026-04-25T11:43:11.443Z</time></trkpt><trkpt lat="45.835191" lon="11.5630468"><ele>1076.0</ele><time>2026-04-25T11:43:12.453Z</time></trkpt><trkpt lat="45.8352151" lon="11.5632267"><ele>1076.0</ele><time>2026-04-25T11:43:13.448Z</time></trkpt><trkpt lat="45.8352518" lon="11.5634058"><ele>1076.0</ele><time>2026-04-25T11:43:14.447Z</time></trkpt><trkpt lat="45.835298" lon="11.5635781"><ele>1076.0</ele><time>2026-04-25T11:43:15.459Z</time></trkpt><trkpt lat="45.8353497" lon="11.5637412"><ele>1076.0</ele><time>2026-04-25T11:43:16.477Z</time></trkpt><trkpt lat="45.8354054" lon="11.5638992"><ele>1076.0</ele><time>2026-04-25T11:43:17.449Z</time></trkpt><trkpt lat="45.8355167" lon="11.5641984"><ele>1074.0</ele><time>2026-04-25T11:43:19.45Z</time></trkpt><trkpt lat="45.8355718" lon="11.5643522"><ele>1072.0</ele><time>2026-04-25T11:43:20.447Z</time></trkpt><trkpt lat="45.8356251" lon="11.564508"><ele>1070.0</ele><time>2026-04-25T11:43:21.449Z</time></trkpt><trkpt lat="45.8356789" lon="11.5646618"><ele>1068.0</ele><time>2026-04-25T11:43:22.458Z</time></trkpt><trkpt lat="45.8357317" lon="11.5648123"><ele>1065.75</ele><time>2026-04-25T11:43:23.453Z</time></trkpt><trkpt lat="45.8357843" lon="11.5649577"><ele>1063.5</ele><time>2026-04-25T11:43:24.445Z</time></trkpt><trkpt lat="45.8358383" lon="11.565109"><ele>1061.25</ele><time>2026-04-25T11:43:25.449Z</time></trkpt><trkpt lat="45.8358928" lon="11.5652664"><ele>1059.0</ele><time>2026-04-25T11:43:26.455Z</time></trkpt><trkpt lat="45.8359451" lon="11.5654263"><ele>1059.75</ele><time>2026-04-25T11:43:27.452Z</time></trkpt><trkpt lat="45.835995" lon="11.5655885"><ele>1060.5</ele><time>2026-04-25T11:43:28.448Z</time></trkpt><trkpt lat="45.8360415" lon="11.5657531"><ele>1061.25</ele><time>2026-04-25T11:43:29.45Z</time></trkpt><trkpt lat="45.8360848" lon="11.5659174"><ele>1062.0</ele><time>2026-04-25T11:43:30.456Z</time></trkpt><trkpt lat="45.836127" lon="11.566088"><ele>1061.5</ele><time>2026-04-25T11:43:31.459Z</time></trkpt><trkpt lat="45.8361699" lon="11.5662627"><ele>1061.0</ele><time>2026-04-25T11:43:32.473Z</time></trkpt><trkpt lat="45.8362097" lon="11.5664314"><ele>1060.5</ele><time>2026-04-25T11:43:33.453Z</time></trkpt><trkpt lat="45.8362456" lon="11.5665942"><ele>1060.0</ele><time>2026-04-25T11:43:34.463Z</time></trkpt><trkpt lat="45.8362786" lon="11.5667554"><ele>1060.0</ele><time>2026-04-25T11:43:35.455Z</time></trkpt><trkpt lat="45.8363073" lon="11.5669215"><ele>1060.0</ele><time>2026-04-25T11:43:36.453Z</time></trkpt><trkpt lat="45.8363309" lon="11.5670934"><ele>1060.0</ele><time>2026-04-25T11:43:37.471Z</time></trkpt><trkpt lat="45.836348" lon="11.5672692"><ele>1060.0</ele><time>2026-04-25T11:43:38.445Z</time></trkpt><trkpt lat="45.8363656" lon="11.5676237"><ele>1058.75</ele><time>2026-04-25T11:43:40.459Z</time></trkpt><trkpt lat="45.8363662" lon="11.5677933"><ele>1057.5</ele><time>2026-04-25T11:43:41.468Z</time></trkpt><trkpt lat="45.8363607" lon="11.5679662"><ele>1056.25</ele><time>2026-04-25T11:43:42.451Z</time></trkpt><trkpt lat="45.8363479" lon="11.5681429"><ele>1055.0</ele><time>2026-04-25T11:43:43.467Z</time></trkpt><trkpt lat="45.8363265" lon="11.5683208"><ele>1054.0</ele><time>2026-04-25T11:43:44.463Z</time></trkpt><trkpt lat="45.8362984" lon="11.5684986"><ele>1053.0</ele><time>2026-04-25T11:43:45.458Z</time></trkpt><trkpt lat="45.8362648" lon="11.5686789"><ele>1052.0</ele><time>2026-04-25T11:43:46.47Z</time></trkpt><trkpt lat="45.8362238" lon="11.5688619"><ele>1051.0</ele><time>2026-04-25T11:43:47.469Z</time></trkpt><trkpt lat="45.8361753" lon="11.5690458"><ele>1050.0</ele><time>2026-04-25T11:43:48.461Z</time></trkpt><trkpt lat="45.836119" lon="11.5692317"><ele>1049.0</ele><time>2026-04-25T11:43:49.489Z</time></trkpt><trkpt lat="45.8360576" lon="11.569419"><ele>1048.0</ele><time>2026-04-25T11:43:50.463Z</time></trkpt><trkpt lat="45.8359942" lon="11.5696023"><ele>1047.0</ele><time>2026-04-25T11:43:51.46Z</time></trkpt><trkpt lat="45.8359313" lon="11.5697835"><ele>1045.5</ele><time>2026-04-25T11:43:52.442Z</time></trkpt><trkpt lat="45.835868" lon="11.5699638"><ele>1044.0</ele><time>2026-04-25T11:43:53.446Z</time></trkpt><trkpt lat="45.8358047" lon="11.5701434"><ele>1042.5</ele><time>2026-04-25T11:43:54.451Z</time></trkpt><trkpt lat="45.8357423" lon="11.5703229"><ele>1041.0</ele><time>2026-04-25T11:43:55.448Z</time></trkpt><trkpt lat="45.8356801" lon="11.5705012"><ele>1040.5</ele><time>2026-04-25T11:43:56.455Z</time></trkpt><trkpt lat="45.8356187" lon="11.5706749"><ele>1040.0</ele><time>2026-04-25T11:43:57.458Z</time></trkpt><trkpt lat="45.8355585" lon="11.5708472"><ele>1039.5</ele><time>2026-04-25T11:43:58.459Z</time></trkpt><trkpt lat="45.8355009" lon="11.5710159"><ele>1039.0</ele><time>2026-04-25T11:43:59.464Z</time></trkpt><trkpt lat="45.8353887" lon="11.57134"><ele>1039.0</ele><time>2026-04-25T11:44:01.453Z</time></trkpt><trkpt lat="45.8353321" lon="11.5714997"><ele>1039.0</ele><time>2026-04-25T11:44:02.464Z</time></trkpt><trkpt lat="45.8352749" lon="11.571661"><ele>1039.0</ele><time>2026-04-25T11:44:03.458Z</time></trkpt><trkpt lat="45.8352172" lon="11.571825"><ele>1039.0</ele><time>2026-04-25T11:44:04.454Z</time></trkpt><trkpt lat="45.835156" lon="11.5719929"><ele>1039.0</ele><time>2026-04-25T11:44:05.459Z</time></trkpt><trkpt lat="45.8350915" lon="11.5721644"><ele>1039.0</ele><time>2026-04-25T11:44:06.449Z</time></trkpt><trkpt lat="45.8350219" lon="11.5723348"><ele>1039.0</ele><time>2026-04-25T11:44:07.455Z</time></trkpt><trkpt lat="45.8349468" lon="11.5724958"><ele>1039.0</ele><time>2026-04-25T11:44:08.449Z</time></trkpt><trkpt lat="45.834868" lon="11.5726471"><ele>1039.0</ele><time>2026-04-25T11:44:09.447Z</time></trkpt><trkpt lat="45.8347882" lon="11.5727916"><ele>1039.0</ele><time>2026-04-25T11:44:10.456Z</time></trkpt><trkpt lat="45.8347121" lon="11.5729313"><ele>1039.0</ele><time>2026-04-25T11:44:11.457Z</time></trkpt><trkpt lat="45.8346343" lon="11.5730722"><ele>1039.0</ele><time>2026-04-25T11:44:12.45Z</time></trkpt><trkpt lat="45.8345552" lon="11.5732177"><ele>1037.75</ele><time>2026-04-25T11:44:13.459Z</time></trkpt><trkpt lat="45.8344748" lon="11.5733712"><ele>1036.5</ele><time>2026-04-25T11:44:14.447Z</time></trkpt><trkpt lat="45.8343972" lon="11.5735321"><ele>1035.25</ele><time>2026-04-25T11:44:15.452Z</time></trkpt><trkpt lat="45.8343244" lon="11.5737019"><ele>1034.0</ele><time>2026-04-25T11:44:16.464Z</time></trkpt><trkpt lat="45.8342581" lon="11.5738748"><ele>1034.0</ele><time>2026-04-25T11:44:17.453Z</time></trkpt><trkpt lat="45.8341957" lon="11.5740464"><ele>1034.0</ele><time>2026-04-25T11:44:18.458Z</time></trkpt><trkpt lat="45.834135" lon="11.5742176"><ele>1034.0</ele><time>2026-04-25T11:44:19.458Z</time></trkpt><trkpt lat="45.8340775" lon="11.5743863"><ele>1034.0</ele><time>2026-04-25T11:44:20.458Z</time></trkpt><trkpt lat="45.8339705" lon="11.5747092"><ele>1033.25</ele><time>2026-04-25T11:44:22.451Z</time></trkpt><trkpt lat="45.833921" lon="11.5748655"><ele>1032.5</ele><time>2026-04-25T11:44:23.458Z</time></trkpt><trkpt lat="45.8338777" lon="11.5750271"><ele>1031.75</ele><time>2026-04-25T11:44:24.478Z</time></trkpt><trkpt lat="45.8338455" lon="11.5751991"><ele>1031.0</ele><time>2026-04-25T11:44:25.458Z</time></trkpt><trkpt lat="45.83383" lon="11.5753805"><ele>1030.0</ele><time>2026-04-25T11:44:26.456Z</time></trkpt><trkpt lat="45.833831" lon="11.5755669"><ele>1029.0</ele><time>2026-04-25T11:44:27.462Z</time></trkpt><trkpt lat="45.8338413" lon="11.5757609"><ele>1028.0</ele><time>2026-04-25T11:44:28.459Z</time></trkpt><trkpt lat="45.8338538" lon="11.5759643"><ele>1027.0</ele><time>2026-04-25T11:44:29.456Z</time></trkpt><trkpt lat="45.8338625" lon="11.57615"><ele>1026.5</ele><time>2026-04-25T11:44:30.47Z</time></trkpt><trkpt lat="45.8338777" lon="11.5763555"><ele>1026.0</ele><time>2026-04-25T11:44:31.465Z</time></trkpt><trkpt lat="45.8338926" lon="11.576561"><ele>1025.5</ele><time>2026-04-25T11:44:32.459Z</time></trkpt><trkpt lat="45.8339081" lon="11.5767704"><ele>1025.0</ele><time>2026-04-25T11:44:33.467Z</time></trkpt><trkpt lat="45.833921" lon="11.5769898"><ele>1025.0</ele><time>2026-04-25T11:44:34.467Z</time></trkpt><trkpt lat="45.8339365" lon="11.5772138"><ele>1025.0</ele><time>2026-04-25T11:44:35.473Z</time></trkpt><trkpt lat="45.8339529" lon="11.5774452"><ele>1025.0</ele><time>2026-04-25T11:44:36.468Z</time></trkpt><trkpt lat="45.8339689" lon="11.5776786"><ele>1024.6666666666667</ele><time>2026-04-25T11:44:37.461Z</time></trkpt><trkpt lat="45.8339861" lon="11.5779216"><ele>1024.3333333333333</ele><time>2026-04-25T11:44:38.456Z</time></trkpt><trkpt lat="45.8340032" lon="11.5781622"><ele>1024.0</ele><time>2026-04-25T11:44:39.455Z</time></trkpt><trkpt lat="45.8340206" lon="11.5784005"><ele>1024.0</ele><time>2026-04-25T11:44:40.46Z</time></trkpt><trkpt lat="45.8340379" lon="11.5786401"><ele>1024.0</ele><time>2026-04-25T11:44:41.469Z</time></trkpt><trkpt lat="45.8340697" lon="11.5791235"><ele>1023.3333333333333</ele><time>2026-04-25T11:44:43.474Z</time></trkpt><trkpt lat="45.8340884" lon="11.5793809"><ele>1022.6666666666667</ele><time>2026-04-25T11:44:44.461Z</time></trkpt><trkpt lat="45.8341084" lon="11.5796398"><ele>1022.0</ele><time>2026-04-25T11:44:45.463Z</time></trkpt><trkpt lat="45.834126" lon="11.5798871"><ele>1022.0</ele><time>2026-04-25T11:44:46.469Z</time></trkpt><trkpt lat="45.8341405" lon="11.5801315"><ele>1022.0</ele><time>2026-04-25T11:44:47.454Z</time></trkpt><trkpt lat="45.8341569" lon="11.5803772"><ele>1022.0</ele><time>2026-04-25T11:44:48.459Z</time></trkpt><trkpt lat="45.8341739" lon="11.580632"><ele>1023.0</ele><time>2026-04-25T11:44:49.453Z</time></trkpt><trkpt lat="45.8341906" lon="11.5808935"><ele>1024.0</ele><time>2026-04-25T11:44:50.453Z</time></trkpt><trkpt lat="45.8342067" lon="11.5811483"><ele>1025.0</ele><time>2026-04-25T11:44:51.466Z</time></trkpt><trkpt lat="45.834221" lon="11.5813954"><ele>1025.0</ele><time>2026-04-25T11:44:52.463Z</time></trkpt><trkpt lat="45.8342354" lon="11.5816397"><ele>1025.0</ele><time>2026-04-25T11:44:53.457Z</time></trkpt><trkpt lat="45.8342513" lon="11.5818802"><ele>1025.0</ele><time>2026-04-25T11:44:54.452Z</time></trkpt><trkpt lat="45.8342666" lon="11.5821207"><ele>1025.0</ele><time>2026-04-25T11:44:55.46Z</time></trkpt><trkpt lat="45.8342816" lon="11.5823576"><ele>1025.0</ele><time>2026-04-25T11:44:56.454Z</time></trkpt><trkpt lat="45.8342972" lon="11.5825859"><ele>1025.0</ele><time>2026-04-25T11:44:57.451Z</time></trkpt><trkpt lat="45.8343125" lon="11.5828043"><ele>1029.75</ele><time>2026-04-25T11:44:58.472Z</time></trkpt><trkpt lat="45.8343321" lon="11.583019"><ele>1034.5</ele><time>2026-04-25T11:44:59.463Z</time></trkpt><trkpt lat="45.8343591" lon="11.5832279"><ele>1039.25</ele><time>2026-04-25T11:45:00.464Z</time></trkpt><trkpt lat="45.8343947" lon="11.5834256"><ele>1044.0</ele><time>2026-04-25T11:45:01.449Z</time></trkpt><trkpt lat="45.8344383" lon="11.5836131"><ele>1040.6666666666667</ele><time>2026-04-25T11:45:02.453Z</time></trkpt><trkpt lat="45.8345448" lon="11.5839512"><ele>1037.3333333333335</ele><time>2026-04-25T11:45:04.458Z</time></trkpt><trkpt lat="45.8345988" lon="11.5841051"><ele>1034.0</ele><time>2026-04-25T11:45:05.449Z</time></trkpt><trkpt lat="45.8346537" lon="11.5842566"><ele>1034.0</ele><time>2026-04-25T11:45:06.459Z</time></trkpt><trkpt lat="45.8347097" lon="11.5844095"><ele>1034.0</ele><time>2026-04-25T11:45:07.45Z</time></trkpt><trkpt lat="45.8347643" lon="11.5845562"><ele>1034.0</ele><time>2026-04-25T11:45:08.46Z</time></trkpt><trkpt lat="45.8348159" lon="11.5846965"><ele>1034.0</ele><time>2026-04-25T11:45:09.465Z</time></trkpt><trkpt lat="45.8348646" lon="11.5848296"><ele>1033.8</ele><time>2026-04-25T11:45:10.461Z</time></trkpt><trkpt lat="45.8349126" lon="11.5849513"><ele>1033.6000000000001</ele><time>2026-04-25T11:45:11.466Z</time></trkpt><trkpt lat="45.8349707" lon="11.5850529"><ele>1033.4</ele><time>2026-04-25T11:45:12.459Z</time></trkpt><trkpt lat="45.8350448" lon="11.5851292"><ele>1033.2</ele><time>2026-04-25T11:45:13.471Z</time></trkpt><trkpt lat="45.8351331" lon="11.5851994"><ele>1033.0</ele><time>2026-04-25T11:45:14.47Z</time></trkpt><trkpt lat="45.8352185" lon="11.5852729"><ele>1032.3333333333333</ele><time>2026-04-25T11:45:15.465Z</time></trkpt><trkpt lat="45.835299" lon="11.5853515"><ele>1031.6666666666665</ele><time>2026-04-25T11:45:16.463Z</time></trkpt><trkpt lat="45.835376" lon="11.585431"><ele>1031.0</ele><time>2026-04-25T11:45:17.467Z</time></trkpt><trkpt lat="45.8354494" lon="11.5855056"><ele>1030.3333333333333</ele><time>2026-04-25T11:45:18.456Z</time></trkpt><trkpt lat="45.8355208" lon="11.5855765"><ele>1029.6666666666667</ele><time>2026-04-25T11:45:19.462Z</time></trkpt><trkpt lat="45.8355876" lon="11.5856394"><ele>1029.0</ele><time>2026-04-25T11:45:20.471Z</time></trkpt><trkpt lat="45.8356496" lon="11.5856998"><ele>1029.0</ele><time>2026-04-25T11:45:21.472Z</time></trkpt><trkpt lat="45.8357092" lon="11.585758"><ele>1029.0</ele><time>2026-04-25T11:45:22.47Z</time></trkpt><trkpt lat="45.8357689" lon="11.5858131"><ele>1029.0</ele><time>2026-04-25T11:45:23.47Z</time></trkpt><trkpt lat="45.8358895" lon="11.5859251"><ele>1029.0</ele><time>2026-04-25T11:45:25.459Z</time></trkpt><trkpt lat="45.8359557" lon="11.5859904"><ele>1029.0</ele><time>2026-04-25T11:45:26.458Z</time></trkpt><trkpt lat="45.8360262" lon="11.586058"><ele>1027.0</ele><time>2026-04-25T11:45:27.456Z</time></trkpt><trkpt lat="45.8361026" lon="11.5861296"><ele>1025.0</ele><time>2026-04-25T11:45:28.458Z</time></trkpt><trkpt lat="45.836184" lon="11.5862088"><ele>1023.0000000000001</ele><time>2026-04-25T11:45:29.454Z</time></trkpt><trkpt lat="45.8362729" lon="11.5862936"><ele>1021.0</ele><time>2026-04-25T11:45:30.469Z</time></trkpt><trkpt lat="45.8363688" lon="11.5863866"><ele>1019.0</ele><time>2026-04-25T11:45:31.458Z</time></trkpt><trkpt lat="45.8364651" lon="11.5864907"><ele>1019.0</ele><time>2026-04-25T11:45:32.478Z</time></trkpt><trkpt lat="45.8365625" lon="11.5866043"><ele>1019.0</ele><time>2026-04-25T11:45:33.464Z</time></trkpt><trkpt lat="45.836661" lon="11.5867368"><ele>1019.0</ele><time>2026-04-25T11:45:34.474Z</time></trkpt><trkpt lat="45.8367548" lon="11.5868877"><ele>1019.0</ele><time>2026-04-25T11:45:35.489Z</time></trkpt><trkpt lat="45.8368435" lon="11.5870559"><ele>1017.6666666666667</ele><time>2026-04-25T11:45:36.471Z</time></trkpt><trkpt lat="45.8369321" lon="11.5872345"><ele>1016.3333333333333</ele><time>2026-04-25T11:45:37.472Z</time></trkpt><trkpt lat="45.8370191" lon="11.5874137"><ele>1015.0</ele><time>2026-04-25T11:45:38.482Z</time></trkpt><trkpt lat="45.837105" lon="11.5875901"><ele>1015.0</ele><time>2026-04-25T11:45:39.454Z</time></trkpt><trkpt lat="45.8371905" lon="11.5877658"><ele>1015.0</ele><time>2026-04-25T11:45:40.461Z</time></trkpt><trkpt lat="45.8372765" lon="11.5879407"><ele>1015.0</ele><time>2026-04-25T11:45:41.483Z</time></trkpt><trkpt lat="45.8373622" lon="11.5881127"><ele>1015.0</ele><time>2026-04-25T11:45:42.462Z</time></trkpt><trkpt lat="45.8374487" lon="11.5882864"><ele>1013.0</ele><time>2026-04-25T11:45:43.463Z</time></trkpt><trkpt lat="45.8375339" lon="11.5884593"><ele>1011.0</ele><time>2026-04-25T11:45:44.481Z</time></trkpt><trkpt lat="45.8376986" lon="11.5888003"><ele>1009.0</ele><time>2026-04-25T11:45:46.458Z</time></trkpt><trkpt lat="45.83778" lon="11.5889652"><ele>1009.25</ele><time>2026-04-25T11:45:47.461Z</time></trkpt><trkpt lat="45.8378592" lon="11.5891254"><ele>1009.5</ele><time>2026-04-25T11:45:48.464Z</time></trkpt><trkpt lat="45.8379409" lon="11.589287"><ele>1009.75</ele><time>2026-04-25T11:45:49.46Z</time></trkpt><trkpt lat="45.8380199" lon="11.5894409"><ele>1010.0</ele><time>2026-04-25T11:45:50.453Z</time></trkpt><trkpt lat="45.8380958" lon="11.589589"><ele>1010.0</ele><time>2026-04-25T11:45:51.463Z</time></trkpt><trkpt lat="45.8381686" lon="11.5897374"><ele>1010.0</ele><time>2026-04-25T11:45:52.455Z</time></trkpt><trkpt lat="45.8382364" lon="11.5898793"><ele>1010.0</ele><time>2026-04-25T11:45:53.458Z</time></trkpt><trkpt lat="45.8383054" lon="11.5900215"><ele>1010.0</ele><time>2026-04-25T11:45:54.46Z</time></trkpt><trkpt lat="45.8383773" lon="11.5901659"><ele>1010.0</ele><time>2026-04-25T11:45:55.463Z</time></trkpt><trkpt lat="45.8384502" lon="11.5903133"><ele>1010.0</ele><time>2026-04-25T11:45:56.46Z</time></trkpt><trkpt lat="45.8385231" lon="11.5904605"><ele>1010.0</ele><time>2026-04-25T11:45:57.461Z</time></trkpt><trkpt lat="45.8385971" lon="11.5906071"><ele>1010.0</ele><time>2026-04-25T11:45:58.453Z</time></trkpt><trkpt lat="45.8386744" lon="11.5907511"><ele>1010.5</ele><time>2026-04-25T11:45:59.461Z</time></trkpt><trkpt lat="45.8387582" lon="11.5908944"><ele>1011.0</ele><time>2026-04-25T11:46:00.454Z</time></trkpt><trkpt lat="45.8388492" lon="11.5910347"><ele>1011.5</ele><time>2026-04-25T11:46:01.46Z</time></trkpt><trkpt lat="45.8389386" lon="11.5911514"><ele>1012.0</ele><time>2026-04-25T11:46:02.458Z</time></trkpt><trkpt lat="45.8390492" lon="11.5912745"><ele>1012.0</ele><time>2026-04-25T11:46:03.453Z</time></trkpt><trkpt lat="45.8391642" lon="11.5914086"><ele>1012.0</ele><time>2026-04-25T11:46:04.463Z</time></trkpt><trkpt lat="45.8392791" lon="11.5915384"><ele>1012.0</ele><time>2026-04-25T11:46:05.459Z</time></trkpt><trkpt lat="45.8395038" lon="11.5917719"><ele>1013.0</ele><time>2026-04-25T11:46:07.472Z</time></trkpt><trkpt lat="45.8396291" lon="11.5918692"><ele>1014.0</ele><time>2026-04-25T11:46:08.456Z</time></trkpt><trkpt lat="45.8397609" lon="11.5919576"><ele>1015.0</ele><time>2026-04-25T11:46:09.463Z</time></trkpt><trkpt lat="45.8399014" lon="11.5920272"><ele>1016.0</ele><time>2026-04-25T11:46:10.474Z</time></trkpt><trkpt lat="45.840043" lon="11.5920757"><ele>1014.0</ele><time>2026-04-25T11:46:11.463Z</time></trkpt><trkpt lat="45.840188" lon="11.592107"><ele>1012.0</ele><time>2026-04-25T11:46:12.467Z</time></trkpt><trkpt lat="45.8403352" lon="11.5921275"><ele>1010.0</ele><time>2026-04-25T11:46:13.464Z</time></trkpt><trkpt lat="45.8404861" lon="11.5921455"><ele>1008.0</ele><time>2026-04-25T11:46:14.459Z</time></trkpt><trkpt lat="45.8406433" lon="11.5921772"><ele>1008.0</ele><time>2026-04-25T11:46:15.457Z</time></trkpt><trkpt lat="45.8408072" lon="11.5922243"><ele>1008.0</ele><time>2026-04-25T11:46:16.457Z</time></trkpt><trkpt lat="45.8409666" lon="11.5922848"><ele>1008.0</ele><time>2026-04-25T11:46:17.451Z</time></trkpt><trkpt lat="45.841115" lon="11.5923563"><ele>1009.5</ele><time>2026-04-25T11:46:18.456Z</time></trkpt><trkpt lat="45.8412518" lon="11.5924416"><ele>1011.0</ele><time>2026-04-25T11:46:19.466Z</time></trkpt><trkpt lat="45.8413794" lon="11.5925447"><ele>1012.5</ele><time>2026-04-25T11:46:20.458Z</time></trkpt><trkpt lat="45.8414939" lon="11.592661"><ele>1014.0</ele><time>2026-04-25T11:46:21.457Z</time></trkpt><trkpt lat="45.8415964" lon="11.5927859"><ele>1014.25</ele><time>2026-04-25T11:46:22.461Z</time></trkpt><trkpt lat="45.8416903" lon="11.5929125"><ele>1014.5</ele><time>2026-04-25T11:46:23.461Z</time></trkpt><trkpt lat="45.8417802" lon="11.5930447"><ele>1014.75</ele><time>2026-04-25T11:46:24.452Z</time></trkpt><trkpt lat="45.84187" lon="11.5931741"><ele>1015.0</ele><time>2026-04-25T11:46:25.467Z</time></trkpt><trkpt lat="45.8419601" lon="11.5932904"><ele>1014.5</ele><time>2026-04-25T11:46:26.453Z</time></trkpt><trkpt lat="45.8421505" lon="11.5934792"><ele>1014.0</ele><time>2026-04-25T11:46:28.456Z</time></trkpt><trkpt lat="45.8422457" lon="11.5935608"><ele>1013.5</ele><time>2026-04-25T11:46:29.46Z</time></trkpt><trkpt lat="45.8423351" lon="11.5936411"><ele>1013.0</ele><time>2026-04-25T11:46:30.453Z</time></trkpt><trkpt lat="45.8424195" lon="11.593724"><ele>1013.0</ele><time>2026-04-25T11:46:31.461Z</time></trkpt><trkpt lat="45.8424946" lon="11.5938031"><ele>1013.0</ele><time>2026-04-25T11:46:32.463Z</time></trkpt><trkpt lat="45.8425526" lon="11.5938702"><ele>1013.0</ele><time>2026-04-25T11:46:33.458Z</time></trkpt><trkpt lat="45.8426405" lon="11.5939756"><ele>1013.0</ele><time>2026-04-25T11:46:35.47Z</time></trkpt><trkpt lat="45.8427289" lon="11.5940697"><ele>1013.0</ele><time>2026-04-25T11:46:37.482Z</time></trkpt><trkpt lat="45.842787" lon="11.5941236"><ele>1011.8</ele><time>2026-04-25T11:46:38.478Z</time></trkpt><trkpt lat="45.842851" lon="11.5941846"><ele>1010.5999999999999</ele><time>2026-04-25T11:46:39.497Z</time></trkpt><trkpt lat="45.8429203" lon="11.5942557"><ele>1009.4000000000001</ele><time>2026-04-25T11:46:40.484Z</time></trkpt><trkpt lat="45.842993" lon="11.5943306"><ele>1008.2</ele><time>2026-04-25T11:46:41.475Z</time></trkpt><trkpt lat="45.8430742" lon="11.5944153"><ele>1007.0</ele><time>2026-04-25T11:46:42.495Z</time></trkpt><trkpt lat="45.8431627" lon="11.594505"><ele>1007.0</ele><time>2026-04-25T11:46:43.476Z</time></trkpt><trkpt lat="45.843252" lon="11.5946007"><ele>1007.0</ele><time>2026-04-25T11:46:44.467Z</time></trkpt><trkpt lat="45.8433458" lon="11.5947052"><ele>1007.0</ele><time>2026-04-25T11:46:45.491Z</time></trkpt><trkpt lat="45.8434246" lon="11.594806"><ele>1007.0</ele><time>2026-04-25T11:46:46.468Z</time></trkpt><trkpt lat="45.8435016" lon="11.5948932"><ele>1007.0</ele><time>2026-04-25T11:46:47.466Z</time></trkpt><trkpt lat="45.8436444" lon="11.5950568"><ele>1006.8333333333334</ele><time>2026-04-25T11:46:49.458Z</time></trkpt><trkpt lat="45.8437105" lon="11.5951358"><ele>1006.6666666666667</ele><time>2026-04-25T11:46:50.46Z</time></trkpt><trkpt lat="45.8437677" lon="11.5952039"><ele>1006.5</ele><time>2026-04-25T11:46:51.461Z</time></trkpt><trkpt lat="45.8438158" lon="11.5952659"><ele>1006.3333333333333</ele><time>2026-04-25T11:46:52.465Z</time></trkpt><trkpt lat="45.8439278" lon="11.5953504"><ele>1006.1666666666666</ele><time>2026-04-25T11:46:54.461Z</time></trkpt><trkpt lat="45.8440014" lon="11.5953753"><ele>1006.0</ele><time>2026-04-25T11:46:55.462Z</time></trkpt><trkpt lat="45.8440811" lon="11.5953897"><ele>1006.0</ele><time>2026-04-25T11:46:56.454Z</time></trkpt><trkpt lat="45.8441739" lon="11.5953908"><ele>1005.9999999999999</ele><time>2026-04-25T11:46:57.45Z</time></trkpt><trkpt lat="45.8442654" lon="11.5953863"><ele>1005.9999999999999</ele><time>2026-04-25T11:46:58.451Z</time></trkpt><trkpt lat="45.8443462" lon="11.5953732"><ele>1006.0</ele><time>2026-04-25T11:46:59.467Z</time></trkpt><trkpt lat="45.8444407" lon="11.595356"><ele>1006.0</ele><time>2026-04-25T11:47:00.459Z</time></trkpt><trkpt lat="45.8445462" lon="11.5953312"><ele>1007.1999999999999</ele><time>2026-04-25T11:47:01.462Z</time></trkpt><trkpt lat="45.8446349" lon="11.595331"><ele>1008.3999999999999</ele><time>2026-04-25T11:47:02.448Z</time></trkpt><trkpt lat="45.8447381" lon="11.5953281"><ele>1009.6</ele><time>2026-04-25T11:47:03.463Z</time></trkpt><trkpt lat="45.8448264" lon="11.5953434"><ele>1010.8</ele><time>2026-04-25T11:47:04.449Z</time></trkpt><trkpt lat="45.8449253" lon="11.5953668"><ele>1012.0</ele><time>2026-04-25T11:47:05.459Z</time></trkpt><trkpt lat="45.8450227" lon="11.5953936"><ele>1012.0</ele><time>2026-04-25T11:47:06.463Z</time></trkpt><trkpt lat="45.8451199" lon="11.5954245"><ele>1012.0</ele><time>2026-04-25T11:47:07.465Z</time></trkpt><trkpt lat="45.8452151" lon="11.5954505"><ele>1012.0</ele><time>2026-04-25T11:47:08.452Z</time></trkpt><trkpt lat="45.8454057" lon="11.595489"><ele>1012.0</ele><time>2026-04-25T11:47:10.452Z</time></trkpt><trkpt lat="45.8455051" lon="11.5954954"><ele>1013.2</ele><time>2026-04-25T11:47:11.461Z</time></trkpt><trkpt lat="45.8456007" lon="11.5955017"><ele>1014.4000000000001</ele><time>2026-04-25T11:47:12.464Z</time></trkpt><trkpt lat="45.8457073" lon="11.5954855"><ele>1015.5999999999999</ele><time>2026-04-25T11:47:13.451Z</time></trkpt><trkpt lat="45.8458189" lon="11.5954908"><ele>1016.8</ele><time>2026-04-25T11:47:14.448Z</time></trkpt><trkpt lat="45.8459293" lon="11.5954656"><ele>1018.0</ele><time>2026-04-25T11:47:15.466Z</time></trkpt><trkpt lat="45.8460453" lon="11.5954173"><ele>1018.0</ele><time>2026-04-25T11:47:16.471Z</time></trkpt><trkpt lat="45.8461589" lon="11.5953722"><ele>1018.0</ele><time>2026-04-25T11:47:17.473Z</time></trkpt><trkpt lat="45.8462758" lon="11.5953174"><ele>1018.0</ele><time>2026-04-25T11:47:18.482Z</time></trkpt><trkpt lat="45.8463832" lon="11.5952753"><ele>1018.0</ele><time>2026-04-25T11:47:19.459Z</time></trkpt><trkpt lat="45.8464913" lon="11.5952331"><ele>1024.75</ele><time>2026-04-25T11:47:20.459Z</time></trkpt><trkpt lat="45.8466083" lon="11.5951931"><ele>1031.5</ele><time>2026-04-25T11:47:21.447Z</time></trkpt><trkpt lat="45.8467255" lon="11.5951287"><ele>1038.25</ele><time>2026-04-25T11:47:22.467Z</time></trkpt><trkpt lat="45.8468313" lon="11.5950654"><ele>1045.0</ele><time>2026-04-25T11:47:23.457Z</time></trkpt><trkpt lat="45.8469305" lon="11.5950231"><ele>1045.0</ele><time>2026-04-25T11:47:24.456Z</time></trkpt><trkpt lat="45.8470161" lon="11.5949848"><ele>1045.0</ele><time>2026-04-25T11:47:25.456Z</time></trkpt><trkpt lat="45.8471068" lon="11.5949552"><ele>1045.0</ele><time>2026-04-25T11:47:26.461Z</time></trkpt><trkpt lat="45.8471881" lon="11.5949497"><ele>1045.0</ele><time>2026-04-25T11:47:27.468Z</time></trkpt><trkpt lat="45.8472607" lon="11.5949717"><ele>1045.0</ele><time>2026-04-25T11:47:28.463Z</time></trkpt><trkpt lat="45.8473894" lon="11.5949746"><ele>1045.0</ele><time>2026-04-25T11:47:30.485Z</time></trkpt><trkpt lat="45.8475311" lon="11.5949031"><ele>1045.0</ele><time>2026-04-25T11:47:32.458Z</time></trkpt><trkpt lat="45.8476259" lon="11.5948392"><ele>1045.0</ele><time>2026-04-25T11:47:33.461Z</time></trkpt><trkpt lat="45.847709" lon="11.5948039"><ele>1045.0</ele><time>2026-04-25T11:47:34.461Z</time></trkpt><trkpt lat="45.8477749" lon="11.5947875"><ele>1045.0</ele><time>2026-04-25T11:47:35.464Z</time></trkpt><trkpt lat="45.8478778" lon="11.5947565"><ele>1043.6</ele><time>2026-04-25T11:47:37.473Z</time></trkpt><trkpt lat="45.847965" lon="11.594625"><ele>1042.2</ele><time>2026-04-25T11:47:39.473Z</time></trkpt><trkpt lat="45.8480246" lon="11.5945436"><ele>1040.8</ele><time>2026-04-25T11:47:40.468Z</time></trkpt><trkpt lat="45.848104" lon="11.5944734"><ele>1039.4</ele><time>2026-04-25T11:47:41.478Z</time></trkpt><trkpt lat="45.8481884" lon="11.5944206"><ele>1038.0</ele><time>2026-04-25T11:47:42.451Z</time></trkpt><trkpt lat="45.8482602" lon="11.5943766"><ele>1039.6666666666667</ele><time>2026-04-25T11:47:43.46Z</time></trkpt><trkpt lat="45.8483457" lon="11.5943146"><ele>1041.3333333333333</ele><time>2026-04-25T11:47:44.474Z</time></trkpt><trkpt lat="45.8484343" lon="11.5942602"><ele>1043.0</ele><time>2026-04-25T11:47:45.47Z</time></trkpt><trkpt lat="45.8484995" lon="11.5942053"><ele>1044.6666666666665</ele><time>2026-04-25T11:47:46.453Z</time></trkpt><trkpt lat="45.8485609" lon="11.5941344"><ele>1046.3333333333333</ele><time>2026-04-25T11:47:47.455Z</time></trkpt><trkpt lat="45.8486121" lon="11.5940748"><ele>1048.0</ele><time>2026-04-25T11:47:48.46Z</time></trkpt><trkpt lat="45.8486709" lon="11.593999"><ele>1048.0</ele><time>2026-04-25T11:47:49.459Z</time></trkpt><trkpt lat="45.8487183" lon="11.5939389"><ele>1048.0</ele><time>2026-04-25T11:47:50.457Z</time></trkpt><trkpt lat="45.8487762" lon="11.5938854"><ele>1048.0</ele><time>2026-04-25T11:47:51.463Z</time></trkpt><trkpt lat="45.8488896" lon="11.5937551"><ele>1048.0</ele><time>2026-04-25T11:47:53.463Z</time></trkpt><trkpt lat="45.8489396" lon="11.5936852"><ele>1048.0</ele><time>2026-04-25T11:47:54.471Z</time></trkpt><trkpt lat="45.8489934" lon="11.5936146"><ele>1048.0</ele><time>2026-04-25T11:47:55.469Z</time></trkpt><trkpt lat="45.8490445" lon="11.5935447"><ele>1051.8</ele><time>2026-04-25T11:47:56.478Z</time></trkpt><trkpt lat="45.8490961" lon="11.593439"><ele>1055.6</ele><time>2026-04-25T11:47:57.46Z</time></trkpt><trkpt lat="45.8491718" lon="11.5933271"><ele>1059.4</ele><time>2026-04-25T11:47:58.475Z</time></trkpt><trkpt lat="45.849235" lon="11.593225"><ele>1063.2</ele><time>2026-04-25T11:47:59.474Z</time></trkpt><trkpt lat="45.8493053" lon="11.5931184"><ele>1067.0</ele><time>2026-04-25T11:48:00.475Z</time></trkpt><trkpt lat="45.8493846" lon="11.5930262"><ele>1067.0</ele><time>2026-04-25T11:48:01.475Z</time></trkpt><trkpt lat="45.8494488" lon="11.5929254"><ele>1067.0</ele><time>2026-04-25T11:48:02.475Z</time></trkpt><trkpt lat="45.849536" lon="11.5928615"><ele>1067.0</ele><time>2026-04-25T11:48:03.469Z</time></trkpt><trkpt lat="45.8496269" lon="11.5928264"><ele>1067.0</ele><time>2026-04-25T11:48:04.463Z</time></trkpt><trkpt lat="45.8497044" lon="11.5927786"><ele>1067.0</ele><time>2026-04-25T11:48:05.475Z</time></trkpt><trkpt lat="45.8497751" lon="11.5927018"><ele>1067.4</ele><time>2026-04-25T11:48:06.468Z</time></trkpt><trkpt lat="45.8498394" lon="11.5926081"><ele>1067.8000000000002</ele><time>2026-04-25T11:48:07.467Z</time></trkpt><trkpt lat="45.8499063" lon="11.5924915"><ele>1068.2</ele><time>2026-04-25T11:48:08.468Z</time></trkpt><trkpt lat="45.8499692" lon="11.5923787"><ele>1068.6000000000001</ele><time>2026-04-25T11:48:09.466Z</time></trkpt><trkpt lat="45.8500486" lon="11.5922872"><ele>1069.0</ele><time>2026-04-25T11:48:10.473Z</time></trkpt><trkpt lat="45.8501322" lon="11.5922132"><ele>1069.0</ele><time>2026-04-25T11:48:11.467Z</time></trkpt><trkpt lat="45.850199" lon="11.5921403"><ele>1069.0</ele><time>2026-04-25T11:48:12.48Z</time></trkpt><trkpt lat="45.8503184" lon="11.5919636"><ele>1069.0</ele><time>2026-04-25T11:48:14.462Z</time></trkpt><trkpt lat="45.8503721" lon="11.5918528"><ele>1069.0</ele><time>2026-04-25T11:48:15.463Z</time></trkpt><trkpt lat="45.8504244" lon="11.5917378"><ele>1069.0</ele><time>2026-04-25T11:48:16.455Z</time></trkpt><trkpt lat="45.8504723" lon="11.5916247"><ele>1071.4</ele><time>2026-04-25T11:48:17.464Z</time></trkpt><trkpt lat="45.8505208" lon="11.5915061"><ele>1073.8000000000002</ele><time>2026-04-25T11:48:18.472Z</time></trkpt><trkpt lat="45.8505723" lon="11.5913876"><ele>1076.1999999999998</ele><time>2026-04-25T11:48:19.467Z</time></trkpt><trkpt lat="45.8506327" lon="11.591279"><ele>1078.6</ele><time>2026-04-25T11:48:20.456Z</time></trkpt><trkpt lat="45.8506893" lon="11.5911776"><ele>1081.0</ele><time>2026-04-25T11:48:21.453Z</time></trkpt><trkpt lat="45.8507505" lon="11.5911017"><ele>1082.3333333333333</ele><time>2026-04-25T11:48:22.46Z</time></trkpt><trkpt lat="45.8508117" lon="11.5910295"><ele>1083.6666666666665</ele><time>2026-04-25T11:48:23.454Z</time></trkpt><trkpt lat="45.8508662" lon="11.590965"><ele>1085.0</ele><time>2026-04-25T11:48:24.454Z</time></trkpt><trkpt lat="45.8509321" lon="11.5909051"><ele>1086.3333333333333</ele><time>2026-04-25T11:48:25.46Z</time></trkpt><trkpt lat="45.851014" lon="11.5908612"><ele>1087.6666666666667</ele><time>2026-04-25T11:48:26.453Z</time></trkpt><trkpt lat="45.8511044" lon="11.590818"><ele>1089.0</ele><time>2026-04-25T11:48:27.46Z</time></trkpt><trkpt lat="45.8511912" lon="11.5907588"><ele>1089.0</ele><time>2026-04-25T11:48:28.463Z</time></trkpt><trkpt lat="45.8512862" lon="11.5906781"><ele>1089.0</ele><time>2026-04-25T11:48:29.461Z</time></trkpt><trkpt lat="45.8513805" lon="11.5906094"><ele>1089.0</ele><time>2026-04-25T11:48:30.466Z</time></trkpt><trkpt lat="45.8514785" lon="11.590536"><ele>1089.0</ele><time>2026-04-25T11:48:31.464Z</time></trkpt><trkpt lat="45.8515661" lon="11.5904766"><ele>1089.0</ele><time>2026-04-25T11:48:32.46Z</time></trkpt><trkpt lat="45.8516741" lon="11.5904145"><ele>1090.25</ele><time>2026-04-25T11:48:33.457Z</time></trkpt><trkpt lat="45.8518812" lon="11.5902878"><ele>1091.5</ele><time>2026-04-25T11:48:35.486Z</time></trkpt><trkpt lat="45.8519809" lon="11.5902205"><ele>1092.75</ele><time>2026-04-25T11:48:36.459Z</time></trkpt><trkpt lat="45.8520789" lon="11.5901562"><ele>1094.0</ele><time>2026-04-25T11:48:37.455Z</time></trkpt><trkpt lat="45.8521791" lon="11.5900794"><ele>1094.0</ele><time>2026-04-25T11:48:38.465Z</time></trkpt><trkpt lat="45.8522787" lon="11.5900057"><ele>1094.0</ele><time>2026-04-25T11:48:39.456Z</time></trkpt><trkpt lat="45.8523719" lon="11.5899383"><ele>1094.0</ele><time>2026-04-25T11:48:40.47Z</time></trkpt><trkpt lat="45.8524633" lon="11.5898773"><ele>1094.0</ele><time>2026-04-25T11:48:41.455Z</time></trkpt><trkpt lat="45.852571" lon="11.5898509"><ele>1094.0</ele><time>2026-04-25T11:48:42.455Z</time></trkpt><trkpt lat="45.8526725" lon="11.5898434"><ele>1095.8</ele><time>2026-04-25T11:48:43.45Z</time></trkpt><trkpt lat="45.8527719" lon="11.5898274"><ele>1097.6000000000001</ele><time>2026-04-25T11:48:44.462Z</time></trkpt><trkpt lat="45.8528617" lon="11.5897905"><ele>1099.4</ele><time>2026-04-25T11:48:45.449Z</time></trkpt><trkpt lat="45.8529536" lon="11.5897375"><ele>1101.2</ele><time>2026-04-25T11:48:46.449Z</time></trkpt><trkpt lat="45.8530408" lon="11.5896707"><ele>1103.0</ele><time>2026-04-25T11:48:47.464Z</time></trkpt><trkpt lat="45.8531249" lon="11.5896085"><ele>1103.0</ele><time>2026-04-25T11:48:48.464Z</time></trkpt><trkpt lat="45.8532022" lon="11.5895414"><ele>1103.0</ele><time>2026-04-25T11:48:49.464Z</time></trkpt><trkpt lat="45.8532954" lon="11.5894518"><ele>1103.0</ele><time>2026-04-25T11:48:50.459Z</time></trkpt><trkpt lat="45.8533927" lon="11.5893545"><ele>1103.0</ele><time>2026-04-25T11:48:51.448Z</time></trkpt><trkpt lat="45.8534867" lon="11.5892797"><ele>1103.0</ele><time>2026-04-25T11:48:52.45Z</time></trkpt><trkpt lat="45.8535698" lon="11.5892347"><ele>1103.0</ele><time>2026-04-25T11:48:53.446Z</time></trkpt><trkpt lat="45.8536643" lon="11.5891943"><ele>1103.0</ele><time>2026-04-25T11:48:54.445Z</time></trkpt><trkpt lat="45.8538269" lon="11.5891031"><ele>1103.0</ele><time>2026-04-25T11:48:56.461Z</time></trkpt><trkpt lat="45.8538963" lon="11.5890091"><ele>1103.0</ele><time>2026-04-25T11:48:57.446Z</time></trkpt><trkpt lat="45.853956" lon="11.5889051"><ele>1103.0</ele><time>2026-04-25T11:48:58.447Z</time></trkpt><trkpt lat="45.8540151" lon="11.5888025"><ele>1103.0</ele><time>2026-04-25T11:48:59.463Z</time></trkpt><trkpt lat="45.8540666" lon="11.5886982"><ele>1103.0</ele><time>2026-04-25T11:49:00.472Z</time></trkpt><trkpt lat="45.8540955" lon="11.588568"><ele>1103.0</ele><time>2026-04-25T11:49:01.473Z</time></trkpt><trkpt lat="45.854114" lon="11.5884251"><ele>1103.0</ele><time>2026-04-25T11:49:02.444Z</time></trkpt><trkpt lat="45.8541222" lon="11.5882632"><ele>1103.2</ele><time>2026-04-25T11:49:03.447Z</time></trkpt><trkpt lat="45.8541302" lon="11.5881153"><ele>1103.4</ele><time>2026-04-25T11:49:04.457Z</time></trkpt><trkpt lat="45.8541301" lon="11.5879762"><ele>1103.6000000000001</ele><time>2026-04-25T11:49:05.446Z</time></trkpt><trkpt lat="45.8541321" lon="11.5878526"><ele>1103.8</ele><time>2026-04-25T11:49:06.461Z</time></trkpt><trkpt lat="45.8541484" lon="11.5877281"><ele>1104.0</ele><time>2026-04-25T11:49:07.453Z</time></trkpt><trkpt lat="45.8541843" lon="11.5876198"><ele>1104.0</ele><time>2026-04-25T11:49:08.455Z</time></trkpt><trkpt lat="45.854236" lon="11.5875286"><ele>1104.0</ele><time>2026-04-25T11:49:09.461Z</time></trkpt><trkpt lat="45.8543025" lon="11.5874539"><ele>1104.0</ele><time>2026-04-25T11:49:10.469Z</time></trkpt><trkpt lat="45.8543799" lon="11.5874009"><ele>1104.0</ele><time>2026-04-25T11:49:11.461Z</time></trkpt><trkpt lat="45.8544672" lon="11.5873466"><ele>1104.0</ele><time>2026-04-25T11:49:12.462Z</time></trkpt><trkpt lat="45.8545652" lon="11.5873107"><ele>1104.0</ele><time>2026-04-25T11:49:13.464Z</time></trkpt><trkpt lat="45.8546496" lon="11.5872636"><ele>1105.25</ele><time>2026-04-25T11:49:14.472Z</time></trkpt><trkpt lat="45.8547198" lon="11.5871945"><ele>1106.5</ele><time>2026-04-25T11:49:15.465Z</time></trkpt><trkpt lat="45.8548425" lon="11.586979"><ele>1107.75</ele><time>2026-04-25T11:49:17.476Z</time></trkpt><trkpt lat="45.8549012" lon="11.5868788"><ele>1109.0</ele><time>2026-04-25T11:49:18.468Z</time></trkpt><trkpt lat="45.8549663" lon="11.5868067"><ele>1109.0</ele><time>2026-04-25T11:49:19.455Z</time></trkpt><trkpt lat="45.8550445" lon="11.5867613"><ele>1109.0</ele><time>2026-04-25T11:49:20.467Z</time></trkpt><trkpt lat="45.855128" lon="11.5867197"><ele>1109.0</ele><time>2026-04-25T11:49:21.473Z</time></trkpt><trkpt lat="45.8552077" lon="11.5866944"><ele>1109.0</ele><time>2026-04-25T11:49:22.458Z</time></trkpt><trkpt lat="45.8552804" lon="11.5866355"><ele>1109.0</ele><time>2026-04-25T11:49:23.489Z</time></trkpt><trkpt lat="45.8553499" lon="11.5865378"><ele>1109.0</ele><time>2026-04-25T11:49:24.446Z</time></trkpt><trkpt lat="45.8554314" lon="11.5864296"><ele>1109.5</ele><time>2026-04-25T11:49:25.476Z</time></trkpt><trkpt lat="45.8555154" lon="11.586293"><ele>1110.0</ele><time>2026-04-25T11:49:26.464Z</time></trkpt><trkpt lat="45.8555973" lon="11.5861661"><ele>1110.5</ele><time>2026-04-25T11:49:27.452Z</time></trkpt><trkpt lat="45.8556812" lon="11.586049"><ele>1111.0</ele><time>2026-04-25T11:49:28.455Z</time></trkpt><trkpt lat="45.8557579" lon="11.5859445"><ele>1111.0</ele><time>2026-04-25T11:49:29.444Z</time></trkpt><trkpt lat="45.8558456" lon="11.5858372"><ele>1111.0</ele><time>2026-04-25T11:49:30.448Z</time></trkpt><trkpt lat="45.855934" lon="11.5857439"><ele>1111.0</ele><time>2026-04-25T11:49:31.49Z</time></trkpt><trkpt lat="45.8560169" lon="11.5856707"><ele>1111.0</ele><time>2026-04-25T11:49:32.486Z</time></trkpt><trkpt lat="45.8560924" lon="11.5856244"><ele>1111.0</ele><time>2026-04-25T11:49:33.468Z</time></trkpt><trkpt lat="45.856165" lon="11.58561"><ele>1112.0</ele><time>2026-04-25T11:49:34.461Z</time></trkpt><trkpt lat="45.8562321" lon="11.5856295"><ele>1113.0</ele><time>2026-04-25T11:49:35.469Z</time></trkpt><trkpt lat="45.856295" lon="11.5856748"><ele>1114.0</ele><time>2026-04-25T11:49:36.464Z</time></trkpt><trkpt lat="45.8564231" lon="11.5858096"><ele>1115.0</ele><time>2026-04-25T11:49:38.473Z</time></trkpt><trkpt lat="45.8564923" lon="11.5858864"><ele>1116.0</ele><time>2026-04-25T11:49:39.469Z</time></trkpt><trkpt lat="45.856568" lon="11.5859794"><ele>1116.0</ele><time>2026-04-25T11:49:40.469Z</time></trkpt><trkpt lat="45.8566521" lon="11.5860973"><ele>1116.0</ele><time>2026-04-25T11:49:41.47Z</time></trkpt><trkpt lat="45.8567282" lon="11.5862124"><ele>1116.0</ele><time>2026-04-25T11:49:42.465Z</time></trkpt><trkpt lat="45.8567956" lon="11.5863158"><ele>1116.0</ele><time>2026-04-25T11:49:43.491Z</time></trkpt><trkpt lat="45.8568591" lon="11.5863893"><ele>1116.0</ele><time>2026-04-25T11:49:44.463Z</time></trkpt><trkpt lat="45.856954" lon="11.5864496"><ele>1116.0</ele><time>2026-04-25T11:49:45.471Z</time></trkpt><trkpt lat="45.8570674" lon="11.5864893"><ele>1116.0</ele><time>2026-04-25T11:49:46.461Z</time></trkpt><trkpt lat="45.8571818" lon="11.5865151"><ele>1116.0</ele><time>2026-04-25T11:49:47.469Z</time></trkpt><trkpt lat="45.8573009" lon="11.5865334"><ele>1116.0</ele><time>2026-04-25T11:49:48.464Z</time></trkpt><trkpt lat="45.8574182" lon="11.5865397"><ele>1116.0</ele><time>2026-04-25T11:49:49.466Z</time></trkpt><trkpt lat="45.8575355" lon="11.5865516"><ele>1116.0</ele><time>2026-04-25T11:49:50.464Z</time></trkpt><trkpt lat="45.8576529" lon="11.5865542"><ele>1116.0</ele><time>2026-04-25T11:49:51.459Z</time></trkpt><trkpt lat="45.8577721" lon="11.586559"><ele>1116.0</ele><time>2026-04-25T11:49:52.476Z</time></trkpt><trkpt lat="45.8578806" lon="11.5865573"><ele>1116.8</ele><time>2026-04-25T11:49:53.458Z</time></trkpt><trkpt lat="45.8579925" lon="11.5865571"><ele>1117.6</ele><time>2026-04-25T11:49:54.48Z</time></trkpt><trkpt lat="45.8581072" lon="11.5865599"><ele>1118.4</ele><time>2026-04-25T11:49:55.478Z</time></trkpt><trkpt lat="45.8582135" lon="11.5865689"><ele>1119.2</ele><time>2026-04-25T11:49:56.473Z</time></trkpt><trkpt lat="45.8583126" lon="11.5865804"><ele>1120.0</ele><time>2026-04-25T11:49:57.459Z</time></trkpt><trkpt lat="45.8585098" lon="11.5865946"><ele>1121.0</ele><time>2026-04-25T11:49:59.463Z</time></trkpt><trkpt lat="45.8586108" lon="11.5865967"><ele>1122.0</ele><time>2026-04-25T11:50:00.45Z</time></trkpt><trkpt lat="45.8587139" lon="11.5865795"><ele>1123.0</ele><time>2026-04-25T11:50:01.462Z</time></trkpt><trkpt lat="45.8588196" lon="11.5865526"><ele>1124.0</ele><time>2026-04-25T11:50:02.464Z</time></trkpt><trkpt lat="45.8589188" lon="11.5865199"><ele>1125.0</ele><time>2026-04-25T11:50:03.457Z</time></trkpt><trkpt lat="45.8590142" lon="11.5864813"><ele>1125.0</ele><time>2026-04-25T11:50:04.464Z</time></trkpt><trkpt lat="45.8591106" lon="11.5864346"><ele>1125.0</ele><time>2026-04-25T11:50:05.462Z</time></trkpt><trkpt lat="45.8592098" lon="11.5863854"><ele>1125.0</ele><time>2026-04-25T11:50:06.46Z</time></trkpt><trkpt lat="45.8593089" lon="11.5863083"><ele>1125.0</ele><time>2026-04-25T11:50:07.443Z</time></trkpt><trkpt lat="45.8594062" lon="11.5862248"><ele>1125.0</ele><time>2026-04-25T11:50:08.47Z</time></trkpt><trkpt lat="45.8594917" lon="11.586136"><ele>1125.0</ele><time>2026-04-25T11:50:09.466Z</time></trkpt><trkpt lat="45.8595722" lon="11.5860449"><ele>1125.0</ele><time>2026-04-25T11:50:10.465Z</time></trkpt><trkpt lat="45.8596552" lon="11.5859489"><ele>1125.0</ele><time>2026-04-25T11:50:11.462Z</time></trkpt><trkpt lat="45.8597416" lon="11.5858517"><ele>1125.0</ele><time>2026-04-25T11:50:12.449Z</time></trkpt><trkpt lat="45.859823" lon="11.5857736"><ele>1125.0</ele><time>2026-04-25T11:50:13.457Z</time></trkpt><trkpt lat="45.8598983" lon="11.5857165"><ele>1125.0</ele><time>2026-04-25T11:50:14.473Z</time></trkpt><trkpt lat="45.8599703" lon="11.5856848"><ele>1125.0</ele><time>2026-04-25T11:50:15.46Z</time></trkpt><trkpt lat="45.8600899" lon="11.5856941"><ele>1125.0</ele><time>2026-04-25T11:50:17.464Z</time></trkpt><trkpt lat="45.8601953" lon="11.5857686"><ele>1125.0</ele><time>2026-04-25T11:50:19.466Z</time></trkpt><trkpt lat="45.8603572" lon="11.5858861"><ele>1125.2</ele><time>2026-04-25T11:50:23.476Z</time></trkpt><trkpt lat="45.8604289" lon="11.5859354"><ele>1125.4</ele><time>2026-04-25T11:50:26.46Z</time></trkpt><trkpt lat="45.8604954" lon="11.585948"><ele>1125.6</ele><time>2026-04-25T11:51:27.461Z</time></trkpt><trkpt lat="45.8606546" lon="11.5859288"><ele>1125.8</ele><time>2026-04-25T11:51:31.452Z</time></trkpt><trkpt lat="45.8607473" lon="11.5858934"><ele>1126.0</ele><time>2026-04-25T11:51:33.461Z</time></trkpt><trkpt lat="45.8608528" lon="11.585836"><ele>1127.0</ele><time>2026-04-25T11:51:35.472Z</time></trkpt><trkpt lat="45.8609676" lon="11.5857692"><ele>1128.0</ele><time>2026-04-25T11:51:37.452Z</time></trkpt><trkpt lat="45.8610235" lon="11.5857234"><ele>1129.0</ele><time>2026-04-25T11:51:38.449Z</time></trkpt><trkpt lat="45.8611038" lon="11.5856058"><ele>1130.0</ele><time>2026-04-25T11:51:40.452Z</time></trkpt><trkpt lat="45.8611677" lon="11.5854444"><ele>1131.0</ele><time>2026-04-25T11:51:42.457Z</time></trkpt><trkpt lat="45.8612032" lon="11.5853555"><ele>1131.3333333333333</ele><time>2026-04-25T11:51:43.46Z</time></trkpt><trkpt lat="45.8612454" lon="11.5852647"><ele>1131.6666666666667</ele><time>2026-04-25T11:51:44.495Z</time></trkpt><trkpt lat="45.8612917" lon="11.5851767"><ele>1132.0</ele><time>2026-04-25T11:51:45.468Z</time></trkpt><trkpt lat="45.8613398" lon="11.5850897"><ele>1132.3333333333335</ele><time>2026-04-25T11:51:46.468Z</time></trkpt><trkpt lat="45.8613875" lon="11.5850064"><ele>1132.6666666666667</ele><time>2026-04-25T11:51:47.482Z</time></trkpt><trkpt lat="45.8614363" lon="11.5849231"><ele>1133.0</ele><time>2026-04-25T11:51:48.472Z</time></trkpt><trkpt lat="45.861529" lon="11.5847594"><ele>1133.0</ele><time>2026-04-25T11:51:50.471Z</time></trkpt><trkpt lat="45.8615659" lon="11.5846773"><ele>1133.0</ele><time>2026-04-25T11:51:51.468Z</time></trkpt><trkpt lat="45.8615967" lon="11.5845952"><ele>1133.0</ele><time>2026-04-25T11:51:52.467Z</time></trkpt><trkpt lat="45.8616247" lon="11.5845111"><ele>1133.0</ele><time>2026-04-25T11:51:53.477Z</time></trkpt><trkpt lat="45.8616529" lon="11.5844207"><ele>1133.0</ele><time>2026-04-25T11:51:54.457Z</time></trkpt><trkpt lat="45.8616779" lon="11.5843201"><ele>1133.0</ele><time>2026-04-25T11:51:55.471Z</time></trkpt><trkpt lat="45.8616962" lon="11.5842308"><ele>1133.0</ele><time>2026-04-25T11:51:56.473Z</time></trkpt><trkpt lat="45.8617337" lon="11.5840924"><ele>1135.4</ele><time>2026-04-25T11:51:58.474Z</time></trkpt><trkpt lat="45.8617866" lon="11.5840432"><ele>1137.8</ele><time>2026-04-25T11:52:00.47Z</time></trkpt><trkpt lat="45.8618471" lon="11.5840738"><ele>1140.2</ele><time>2026-04-25T11:52:02.477Z</time></trkpt><trkpt lat="45.8619183" lon="11.5841762"><ele>1142.6</ele><time>2026-04-25T11:52:04.468Z</time></trkpt><trkpt lat="45.861977" lon="11.584316"><ele>1145.0</ele><time>2026-04-25T11:52:06.47Z</time></trkpt><trkpt lat="45.8620417" lon="11.5844466"><ele>1146.0</ele><time>2026-04-25T11:52:08.473Z</time></trkpt><trkpt lat="45.8620979" lon="11.5845561"><ele>1147.0</ele><time>2026-04-25T11:52:10.47Z</time></trkpt><trkpt lat="45.8620948" lon="11.584801"><ele>1148.0</ele><time>2026-04-25T11:52:14.465Z</time></trkpt><trkpt lat="45.8620763" lon="11.5849297"><ele>1149.0</ele><time>2026-04-25T11:52:16.478Z</time></trkpt><trkpt lat="45.8620623" lon="11.5850774"><ele>1149.0</ele><time>2026-04-25T11:52:18.451Z</time></trkpt><trkpt lat="45.8620582" lon="11.5851746"><ele>1149.0</ele><time>2026-04-25T11:52:19.45Z</time></trkpt><trkpt lat="45.8620562" lon="11.5852891"><ele>1149.0</ele><time>2026-04-25T11:52:20.452Z</time></trkpt><trkpt lat="45.8620568" lon="11.5854182"><ele>1149.0</ele><time>2026-04-25T11:52:21.476Z</time></trkpt><trkpt lat="45.8620581" lon="11.5855507"><ele>1149.0</ele><time>2026-04-25T11:52:22.482Z</time></trkpt><trkpt lat="45.8620576" lon="11.5856692"><ele>1149.0</ele><time>2026-04-25T11:52:23.459Z</time></trkpt><trkpt lat="45.8620569" lon="11.5857917"><ele>1149.0</ele><time>2026-04-25T11:52:24.476Z</time></trkpt><trkpt lat="45.8620517" lon="11.5859158"><ele>1149.0</ele><time>2026-04-25T11:52:25.476Z</time></trkpt><trkpt lat="45.8620343" lon="11.5860311"><ele>1149.0</ele><time>2026-04-25T11:52:26.474Z</time></trkpt><trkpt lat="45.8620111" lon="11.5861315"><ele>1149.0</ele><time>2026-04-25T11:52:27.467Z</time></trkpt><trkpt lat="45.8619887" lon="11.5862297"><ele>1149.0</ele><time>2026-04-25T11:52:28.465Z</time></trkpt><trkpt lat="45.8619724" lon="11.5863299"><ele>1149.0</ele><time>2026-04-25T11:52:29.475Z</time></trkpt><trkpt lat="45.8619652" lon="11.5864299"><ele>1149.0</ele><time>2026-04-25T11:52:30.475Z</time></trkpt><trkpt lat="45.8619707" lon="11.5865278"><ele>1149.0</ele><time>2026-04-25T11:52:31.462Z</time></trkpt><trkpt lat="45.8620282" lon="11.586697"><ele>1149.0</ele><time>2026-04-25T11:52:33.467Z</time></trkpt><trkpt lat="45.8620788" lon="11.5867649"><ele>1149.0</ele><time>2026-04-25T11:52:34.458Z</time></trkpt><trkpt lat="45.8621412" lon="11.586828"><ele>1149.0</ele><time>2026-04-25T11:52:35.472Z</time></trkpt><trkpt lat="45.8622103" lon="11.5868875"><ele>1149.0</ele><time>2026-04-25T11:52:36.469Z</time></trkpt><trkpt lat="45.8622819" lon="11.5869551"><ele>1149.5</ele><time>2026-04-25T11:52:37.456Z</time></trkpt><trkpt lat="45.8623508" lon="11.587031"><ele>1150.0</ele><time>2026-04-25T11:52:38.462Z</time></trkpt><trkpt lat="45.8624117" lon="11.5871025"><ele>1150.5</ele><time>2026-04-25T11:52:39.455Z</time></trkpt><trkpt lat="45.8624702" lon="11.5871612"><ele>1151.0</ele><time>2026-04-25T11:52:40.479Z</time></trkpt><trkpt lat="45.8625339" lon="11.5872058"><ele>1151.5</ele><time>2026-04-25T11:52:41.469Z</time></trkpt><trkpt lat="45.8626079" lon="11.5872379"><ele>1152.0</ele><time>2026-04-25T11:52:42.458Z</time></trkpt><trkpt lat="45.8626881" lon="11.5872687"><ele>1152.0</ele><time>2026-04-25T11:52:43.464Z</time></trkpt><trkpt lat="45.8627694" lon="11.5873071"><ele>1152.0</ele><time>2026-04-25T11:52:44.458Z</time></trkpt><trkpt lat="45.8628542" lon="11.5873631"><ele>1152.0</ele><time>2026-04-25T11:52:45.459Z</time></trkpt><trkpt lat="45.8629376" lon="11.5874427"><ele>1152.0</ele><time>2026-04-25T11:52:46.474Z</time></trkpt><trkpt lat="45.8630146" lon="11.5875378"><ele>1152.0</ele><time>2026-04-25T11:52:47.455Z</time></trkpt><trkpt lat="45.8630938" lon="11.5876355"><ele>1152.0</ele><time>2026-04-25T11:52:48.453Z</time></trkpt><trkpt lat="45.8631677" lon="11.5877239"><ele>1152.0</ele><time>2026-04-25T11:52:49.457Z</time></trkpt><trkpt lat="45.8632314" lon="11.5878076"><ele>1152.0</ele><time>2026-04-25T11:52:50.465Z</time></trkpt><trkpt lat="45.8632955" lon="11.5878856"><ele>1152.0</ele><time>2026-04-25T11:52:51.477Z</time></trkpt><trkpt lat="45.863369" lon="11.5879531"><ele>1152.0</ele><time>2026-04-25T11:52:52.469Z</time></trkpt><trkpt lat="45.8635435" lon="11.588072"><ele>1149.6</ele><time>2026-04-25T11:52:54.462Z</time></trkpt><trkpt lat="45.863644" lon="11.5881037"><ele>1147.2</ele><time>2026-04-25T11:52:55.462Z</time></trkpt><trkpt lat="45.8637522" lon="11.5881286"><ele>1144.8</ele><time>2026-04-25T11:52:56.467Z</time></trkpt><trkpt lat="45.8638619" lon="11.5881522"><ele>1142.4</ele><time>2026-04-25T11:52:57.479Z</time></trkpt><trkpt lat="45.8639738" lon="11.5881809"><ele>1140.0</ele><time>2026-04-25T11:52:58.471Z</time></trkpt><trkpt lat="45.8640861" lon="11.5882207"><ele>1140.0</ele><time>2026-04-25T11:52:59.469Z</time></trkpt><trkpt lat="45.8641872" lon="11.5882743"><ele>1140.0</ele><time>2026-04-25T11:53:00.463Z</time></trkpt><trkpt lat="45.8642725" lon="11.5883426"><ele>1140.0</ele><time>2026-04-25T11:53:01.459Z</time></trkpt><trkpt lat="45.8643509" lon="11.5884197"><ele>1140.0</ele><time>2026-04-25T11:53:02.456Z</time></trkpt><trkpt lat="45.8644282" lon="11.5884977"><ele>1140.0</ele><time>2026-04-25T11:53:03.481Z</time></trkpt><trkpt lat="45.8644947" lon="11.5885688"><ele>1139.5</ele><time>2026-04-25T11:53:04.475Z</time></trkpt><trkpt lat="45.8645546" lon="11.5886285"><ele>1139.0</ele><time>2026-04-25T11:53:05.46Z</time></trkpt><trkpt lat="45.8646131" lon="11.5886738"><ele>1138.5</ele><time>2026-04-25T11:53:06.45Z</time></trkpt><trkpt lat="45.8646778" lon="11.5886995"><ele>1138.0</ele><time>2026-04-25T11:53:07.475Z</time></trkpt><trkpt lat="45.8647599" lon="11.5887045"><ele>1137.5</ele><time>2026-04-25T11:53:08.472Z</time></trkpt><trkpt lat="45.8648461" lon="11.5886886"><ele>1137.0</ele><time>2026-04-25T11:53:09.471Z</time></trkpt><trkpt lat="45.8649283" lon="11.5886713"><ele>1137.0</ele><time>2026-04-25T11:53:10.475Z</time></trkpt><trkpt lat="45.8650041" lon="11.5886678"><ele>1137.0</ele><time>2026-04-25T11:53:11.441Z</time></trkpt><trkpt lat="45.8650761" lon="11.5886874"><ele>1137.0</ele><time>2026-04-25T11:53:12.455Z</time></trkpt><trkpt lat="45.8651483" lon="11.5887238"><ele>1137.0</ele><time>2026-04-25T11:53:13.449Z</time></trkpt><trkpt lat="45.8652913" lon="11.5887837"><ele>1137.0</ele><time>2026-04-25T11:53:15.457Z</time></trkpt><trkpt lat="45.8653706" lon="11.5887993"><ele>1137.0</ele><time>2026-04-25T11:53:16.453Z</time></trkpt><trkpt lat="45.8654595" lon="11.5888"><ele>1137.0</ele><time>2026-04-25T11:53:17.455Z</time></trkpt><trkpt lat="45.8655478" lon="11.5887907"><ele>1137.0</ele><time>2026-04-25T11:53:18.458Z</time></trkpt><trkpt lat="45.8656327" lon="11.5887754"><ele>1137.0</ele><time>2026-04-25T11:53:19.463Z</time></trkpt><trkpt lat="45.8657161" lon="11.5887556"><ele>1137.0</ele><time>2026-04-25T11:53:20.45Z</time></trkpt><trkpt lat="45.8658018" lon="11.5887108"><ele>1137.0</ele><time>2026-04-25T11:53:21.452Z</time></trkpt><trkpt lat="45.8658957" lon="11.5886568"><ele>1139.2</ele><time>2026-04-25T11:53:22.452Z</time></trkpt><trkpt lat="45.8659908" lon="11.5885905"><ele>1141.4</ele><time>2026-04-25T11:53:23.454Z</time></trkpt><trkpt lat="45.8660649" lon="11.5885139"><ele>1143.6</ele><time>2026-04-25T11:53:24.461Z</time></trkpt><trkpt lat="45.8661309" lon="11.5884357"><ele>1145.8</ele><time>2026-04-25T11:53:25.459Z</time></trkpt><trkpt lat="45.8662074" lon="11.5883679"><ele>1148.0</ele><time>2026-04-25T11:53:26.46Z</time></trkpt><trkpt lat="45.8662934" lon="11.5883265"><ele>1148.0</ele><time>2026-04-25T11:53:27.464Z</time></trkpt><trkpt lat="45.8663751" lon="11.5883166"><ele>1148.0</ele><time>2026-04-25T11:53:28.457Z</time></trkpt><trkpt lat="45.8664579" lon="11.5883221"><ele>1148.0</ele><time>2026-04-25T11:53:29.451Z</time></trkpt><trkpt lat="45.8665505" lon="11.5883253"><ele>1148.0</ele><time>2026-04-25T11:53:30.457Z</time></trkpt><trkpt lat="45.8666513" lon="11.5883355"><ele>1148.0</ele><time>2026-04-25T11:53:31.455Z</time></trkpt><trkpt lat="45.8667562" lon="11.5883514"><ele>1154.0</ele><time>2026-04-25T11:53:32.463Z</time></trkpt><trkpt lat="45.8668693" lon="11.5883863"><ele>1160.0</ele><time>2026-04-25T11:53:33.454Z</time></trkpt><trkpt lat="45.8669867" lon="11.5884235"><ele>1166.0</ele><time>2026-04-25T11:53:34.46Z</time></trkpt><trkpt lat="45.8672001" lon="11.5885128"><ele>1166.0</ele><time>2026-04-25T11:53:36.456Z</time></trkpt><trkpt lat="45.8673176" lon="11.5885599"><ele>1166.0</ele><time>2026-04-25T11:53:37.458Z</time></trkpt><trkpt lat="45.8674295" lon="11.5885861"><ele>1166.0</ele><time>2026-04-25T11:53:38.47Z</time></trkpt><trkpt lat="45.8675372" lon="11.5886083"><ele>1166.0</ele><time>2026-04-25T11:53:39.47Z</time></trkpt><trkpt lat="45.8676456" lon="11.5886461"><ele>1163.5</ele><time>2026-04-25T11:53:40.475Z</time></trkpt><trkpt lat="45.8677627" lon="11.5886967"><ele>1161.0</ele><time>2026-04-25T11:53:41.467Z</time></trkpt><trkpt lat="45.8678898" lon="11.5887653"><ele>1158.5</ele><time>2026-04-25T11:53:42.469Z</time></trkpt><trkpt lat="45.8680144" lon="11.5888343"><ele>1156.0</ele><time>2026-04-25T11:53:43.473Z</time></trkpt><trkpt lat="45.8681174" lon="11.5888974"><ele>1156.0</ele><time>2026-04-25T11:53:44.469Z</time></trkpt><trkpt lat="45.8682044" lon="11.5889636"><ele>1156.0</ele><time>2026-04-25T11:53:45.476Z</time></trkpt><trkpt lat="45.8682741" lon="11.5890461"><ele>1156.0</ele><time>2026-04-25T11:53:46.472Z</time></trkpt><trkpt lat="45.8683341" lon="11.5891635"><ele>1156.0</ele><time>2026-04-25T11:53:47.475Z</time></trkpt><trkpt lat="45.8683895" lon="11.5892963"><ele>1156.0</ele><time>2026-04-25T11:53:48.459Z</time></trkpt><trkpt lat="45.8684373" lon="11.5894283"><ele>1156.2</ele><time>2026-04-25T11:53:49.469Z</time></trkpt><trkpt lat="45.8684776" lon="11.5895634"><ele>1156.3999999999999</ele><time>2026-04-25T11:53:50.48Z</time></trkpt><trkpt lat="45.8685189" lon="11.5896858"><ele>1156.6</ele><time>2026-04-25T11:53:51.462Z</time></trkpt><trkpt lat="45.8685646" lon="11.5897995"><ele>1156.8</ele><time>2026-04-25T11:53:52.466Z</time></trkpt><trkpt lat="45.868614" lon="11.589905"><ele>1157.0</ele><time>2026-04-25T11:53:53.471Z</time></trkpt><trkpt lat="45.8686685" lon="11.5900003"><ele>1157.0</ele><time>2026-04-25T11:53:54.477Z</time></trkpt><trkpt lat="45.8687375" lon="11.5901101"><ele>1157.0</ele><time>2026-04-25T11:53:55.477Z</time></trkpt><trkpt lat="45.8688729" lon="11.590318"><ele>1157.0</ele><time>2026-04-25T11:53:57.468Z</time></trkpt><trkpt lat="45.8689349" lon="11.5904044"><ele>1157.0</ele><time>2026-04-25T11:53:58.47Z</time></trkpt><trkpt lat="45.8689995" lon="11.5904816"><ele>1155.8333333333335</ele><time>2026-04-25T11:53:59.495Z</time></trkpt><trkpt lat="45.8690741" lon="11.590544"><ele>1154.6666666666667</ele><time>2026-04-25T11:54:00.475Z</time></trkpt><trkpt lat="45.8691547" lon="11.5905893"><ele>1153.5</ele><time>2026-04-25T11:54:01.467Z</time></trkpt><trkpt lat="45.8692363" lon="11.590621"><ele>1152.3333333333333</ele><time>2026-04-25T11:54:02.484Z</time></trkpt><trkpt lat="45.8693244" lon="11.5906393"><ele>1151.1666666666665</ele><time>2026-04-25T11:54:03.474Z</time></trkpt><trkpt lat="45.8694194" lon="11.5906581"><ele>1150.0</ele><time>2026-04-25T11:54:04.468Z</time></trkpt><trkpt lat="45.8695263" lon="11.5906733"><ele>1149.8</ele><time>2026-04-25T11:54:05.478Z</time></trkpt><trkpt lat="45.8696352" lon="11.5906811"><ele>1149.6</ele><time>2026-04-25T11:54:06.477Z</time></trkpt><trkpt lat="45.8697348" lon="11.5906802"><ele>1149.4</ele><time>2026-04-25T11:54:07.475Z</time></trkpt><trkpt lat="45.8698277" lon="11.5906734"><ele>1149.2</ele><time>2026-04-25T11:54:08.475Z</time></trkpt><trkpt lat="45.8699246" lon="11.590649"><ele>1149.0</ele><time>2026-04-25T11:54:09.456Z</time></trkpt><trkpt lat="45.8700215" lon="11.5906056"><ele>1149.0</ele><time>2026-04-25T11:54:10.471Z</time></trkpt><trkpt lat="45.8701206" lon="11.5905588"><ele>1149.0</ele><time>2026-04-25T11:54:11.463Z</time></trkpt><trkpt lat="45.8702228" lon="11.5905179"><ele>1149.0</ele><time>2026-04-25T11:54:12.444Z</time></trkpt><trkpt lat="45.8703229" lon="11.5904934"><ele>1149.0</ele><time>2026-04-25T11:54:13.455Z</time></trkpt><trkpt lat="45.8704232" lon="11.5904879"><ele>1149.0</ele><time>2026-04-25T11:54:14.458Z</time></trkpt><trkpt lat="45.8705286" lon="11.5904903"><ele>1149.0</ele><time>2026-04-25T11:54:15.457Z</time></trkpt><trkpt lat="45.8706319" lon="11.5905095"><ele>1149.0</ele><time>2026-04-25T11:54:16.467Z</time></trkpt><trkpt lat="45.8708129" lon="11.5906428"><ele>1149.0</ele><time>2026-04-25T11:54:18.477Z</time></trkpt><trkpt lat="45.8708957" lon="11.590735"><ele>1149.0</ele><time>2026-04-25T11:54:19.468Z</time></trkpt><trkpt lat="45.8709754" lon="11.5908385"><ele>1151.25</ele><time>2026-04-25T11:54:20.468Z</time></trkpt><trkpt lat="45.8710536" lon="11.5909517"><ele>1153.5</ele><time>2026-04-25T11:54:21.46Z</time></trkpt><trkpt lat="45.8711345" lon="11.5910661"><ele>1155.75</ele><time>2026-04-25T11:54:22.46Z</time></trkpt><trkpt lat="45.8712216" lon="11.5911788"><ele>1158.0</ele><time>2026-04-25T11:54:23.487Z</time></trkpt><trkpt lat="45.87131" lon="11.5912942"><ele>1158.0</ele><time>2026-04-25T11:54:24.477Z</time></trkpt><trkpt lat="45.8714009" lon="11.5914075"><ele>1158.0</ele><time>2026-04-25T11:54:25.469Z</time></trkpt><trkpt lat="45.8714953" lon="11.5915146"><ele>1158.0</ele><time>2026-04-25T11:54:26.467Z</time></trkpt><trkpt lat="45.8715889" lon="11.5916183"><ele>1158.0</ele><time>2026-04-25T11:54:27.463Z</time></trkpt><trkpt lat="45.8716757" lon="11.5917148"><ele>1158.0</ele><time>2026-04-25T11:54:28.47Z</time></trkpt><trkpt lat="45.8717521" lon="11.591809"><ele>1158.0</ele><time>2026-04-25T11:54:29.476Z</time></trkpt><trkpt lat="45.8718161" lon="11.5919108"><ele>1158.0</ele><time>2026-04-25T11:54:30.471Z</time></trkpt><trkpt lat="45.8718676" lon="11.5920281"><ele>1158.0</ele><time>2026-04-25T11:54:31.479Z</time></trkpt><trkpt lat="45.8719124" lon="11.5921515"><ele>1158.0</ele><time>2026-04-25T11:54:32.467Z</time></trkpt><trkpt lat="45.8719574" lon="11.5922647"><ele>1159.0</ele><time>2026-04-25T11:54:33.463Z</time></trkpt><trkpt lat="45.8720086" lon="11.5923585"><ele>1160.0</ele><time>2026-04-25T11:54:34.472Z</time></trkpt><trkpt lat="45.8720699" lon="11.592433"><ele>1161.0</ele><time>2026-04-25T11:54:35.455Z</time></trkpt><trkpt lat="45.8721382" lon="11.5925034"><ele>1162.0</ele><time>2026-04-25T11:54:36.462Z</time></trkpt><trkpt lat="45.8722197" lon="11.5925578"><ele>1163.0</ele><time>2026-04-25T11:54:37.477Z</time></trkpt><trkpt lat="45.8723966" lon="11.5926322"><ele>1163.0</ele><time>2026-04-25T11:54:39.479Z</time></trkpt><trkpt lat="45.8724887" lon="11.5926375"><ele>1163.0</ele><time>2026-04-25T11:54:40.47Z</time></trkpt><trkpt lat="45.8725799" lon="11.5926156"><ele>1163.0</ele><time>2026-04-25T11:54:41.468Z</time></trkpt><trkpt lat="45.8726705" lon="11.5925512"><ele>1163.0</ele><time>2026-04-25T11:54:42.463Z</time></trkpt><trkpt lat="45.8727631" lon="11.5924765"><ele>1163.0</ele><time>2026-04-25T11:54:43.461Z</time></trkpt><trkpt lat="45.8728642" lon="11.5924006"><ele>1163.0</ele><time>2026-04-25T11:54:44.469Z</time></trkpt><trkpt lat="45.8729697" lon="11.5923458"><ele>1163.0</ele><time>2026-04-25T11:54:45.471Z</time></trkpt><trkpt lat="45.8730778" lon="11.5923197"><ele>1163.0</ele><time>2026-04-25T11:54:46.465Z</time></trkpt><trkpt lat="45.8731925" lon="11.5923215"><ele>1163.0</ele><time>2026-04-25T11:54:47.466Z</time></trkpt><trkpt lat="45.8733145" lon="11.5923468"><ele>1163.0</ele><time>2026-04-25T11:54:48.466Z</time></trkpt><trkpt lat="45.8734323" lon="11.5923797"><ele>1163.0</ele><time>2026-04-25T11:54:49.477Z</time></trkpt><trkpt lat="45.8735335" lon="11.5924112"><ele>1163.0</ele><time>2026-04-25T11:54:50.473Z</time></trkpt><trkpt lat="45.8736164" lon="11.5924504"><ele>1163.0</ele><time>2026-04-25T11:54:51.47Z</time></trkpt><trkpt lat="45.8736803" lon="11.5925121"><ele>1163.0</ele><time>2026-04-25T11:54:52.467Z</time></trkpt><trkpt lat="45.8737263" lon="11.5925953"><ele>1164.6666666666667</ele><time>2026-04-25T11:54:53.468Z</time></trkpt><trkpt lat="45.8737493" lon="11.5927002"><ele>1166.3333333333335</ele><time>2026-04-25T11:54:54.456Z</time></trkpt><trkpt lat="45.87377" lon="11.5928077"><ele>1168.0</ele><time>2026-04-25T11:54:55.47Z</time></trkpt><trkpt lat="45.8737996" lon="11.5929022"><ele>1169.6666666666667</ele><time>2026-04-25T11:54:56.477Z</time></trkpt><trkpt lat="45.8738475" lon="11.5929793"><ele>1171.3333333333333</ele><time>2026-04-25T11:54:57.483Z</time></trkpt><trkpt lat="45.8739128" lon="11.5930462"><ele>1173.0</ele><time>2026-04-25T11:54:58.477Z</time></trkpt><trkpt lat="45.874069" lon="11.5931278"><ele>1173.0</ele><time>2026-04-25T11:55:00.468Z</time></trkpt><trkpt lat="45.8741553" lon="11.5931335"><ele>1173.0</ele><time>2026-04-25T11:55:01.487Z</time></trkpt><trkpt lat="45.8742455" lon="11.5931179"><ele>1173.0</ele><time>2026-04-25T11:55:02.457Z</time></trkpt><trkpt lat="45.8743458" lon="11.5931103"><ele>1173.0</ele><time>2026-04-25T11:55:03.451Z</time></trkpt><trkpt lat="45.8744544" lon="11.5931189"><ele>1173.0</ele><time>2026-04-25T11:55:04.476Z</time></trkpt><trkpt lat="45.8745664" lon="11.5931382"><ele>1173.2</ele><time>2026-04-25T11:55:05.472Z</time></trkpt><trkpt lat="45.874677" lon="11.5931795"><ele>1173.4</ele><time>2026-04-25T11:55:06.476Z</time></trkpt><trkpt lat="45.8747764" lon="11.5932211"><ele>1173.6000000000001</ele><time>2026-04-25T11:55:07.469Z</time></trkpt><trkpt lat="45.8748675" lon="11.5932658"><ele>1173.8</ele><time>2026-04-25T11:55:08.479Z</time></trkpt><trkpt lat="45.8749461" lon="11.5933038"><ele>1174.0</ele><time>2026-04-25T11:55:09.47Z</time></trkpt><trkpt lat="45.8750203" lon="11.593338"><ele>1174.0</ele><time>2026-04-25T11:55:10.479Z</time></trkpt><trkpt lat="45.8750906" lon="11.5933695"><ele>1174.0</ele><time>2026-04-25T11:55:11.471Z</time></trkpt><trkpt lat="45.8751535" lon="11.5933904"><ele>1174.0</ele><time>2026-04-25T11:55:12.471Z</time></trkpt><trkpt lat="45.8752625" lon="11.5933965"><ele>1174.0</ele><time>2026-04-25T11:55:14.474Z</time></trkpt><trkpt lat="45.8753692" lon="11.5933838"><ele>1174.0</ele><time>2026-04-25T11:55:16.467Z</time></trkpt><trkpt lat="45.8754695" lon="11.5933618"><ele>1175.4</ele><time>2026-04-25T11:55:18.458Z</time></trkpt><trkpt lat="45.8755392" lon="11.5933019"><ele>1176.8000000000002</ele><time>2026-04-25T11:55:20.473Z</time></trkpt><trkpt lat="45.8755396" lon="11.5930523"><ele>1178.1999999999998</ele><time>2026-04-25T11:55:25.464Z</time></trkpt><trkpt lat="45.8755295" lon="11.5929338"><ele>1179.6</ele><time>2026-04-25T11:55:27.462Z</time></trkpt><trkpt lat="45.8755591" lon="11.5927822"><ele>1181.0</ele><time>2026-04-25T11:55:29.47Z</time></trkpt><trkpt lat="45.8755996" lon="11.5927122"><ele>1181.5</ele><time>2026-04-25T11:55:30.479Z</time></trkpt><trkpt lat="45.8756533" lon="11.5926548"><ele>1182.0</ele><time>2026-04-25T11:55:31.469Z</time></trkpt><trkpt lat="45.8757101" lon="11.5926092"><ele>1182.5</ele><time>2026-04-25T11:55:32.465Z</time></trkpt><trkpt lat="45.875801" lon="11.5925793"><ele>1183.0</ele><time>2026-04-25T11:55:34.457Z</time></trkpt><trkpt lat="45.8758638" lon="11.5925891"><ele>1183.5</ele><time>2026-04-25T11:55:36.491Z</time></trkpt><trkpt lat="45.8759269" lon="11.5925923"><ele>1184.0</ele><time>2026-04-25T11:55:42.462Z</time></trkpt><trkpt lat="45.8761447" lon="11.5924138"><ele>1183.0</ele><time>2026-04-25T11:56:25.463Z</time></trkpt><trkpt lat="45.8762117" lon="11.5923016"><ele>1182.0</ele><time>2026-04-25T11:56:27.475Z</time></trkpt><trkpt lat="45.8762756" lon="11.5921723"><ele>1181.0</ele><time>2026-04-25T11:56:29.47Z</time></trkpt><trkpt lat="45.8763254" lon="11.5920339"><ele>1180.0</ele><time>2026-04-25T11:56:31.467Z</time></trkpt><trkpt lat="45.8763591" lon="11.5918946"><ele>1179.0</ele><time>2026-04-25T11:56:33.461Z</time></trkpt><trkpt lat="45.8763803" lon="11.5917813"><ele>1179.0</ele><time>2026-04-25T11:56:35.473Z</time></trkpt><trkpt lat="45.8763884" lon="11.5916698"><ele>1179.0</ele><time>2026-04-25T11:56:37.463Z</time></trkpt><trkpt lat="45.8764023" lon="11.5915269"><ele>1179.0</ele><time>2026-04-25T11:56:39.471Z</time></trkpt><trkpt lat="45.8764066" lon="11.5913869"><ele>1179.0</ele><time>2026-04-25T11:56:41.468Z</time></trkpt><trkpt lat="45.8764082" lon="11.5911032"><ele>1178.6000000000001</ele><time>2026-04-25T11:56:45.458Z</time></trkpt><trkpt lat="45.8764066" lon="11.590935"><ele>1178.2</ele><time>2026-04-25T11:56:47.492Z</time></trkpt><trkpt lat="45.8763999" lon="11.5907808"><ele>1177.8000000000002</ele><time>2026-04-25T11:56:49.467Z</time></trkpt><trkpt lat="45.8763679" lon="11.5905982"><ele>1177.4</ele><time>2026-04-25T11:56:51.464Z</time></trkpt><trkpt lat="45.8763451" lon="11.5904939"><ele>1177.0</ele><time>2026-04-25T11:56:52.456Z</time></trkpt><trkpt lat="45.8763182" lon="11.5903829"><ele>1176.2</ele><time>2026-04-25T11:56:53.464Z</time></trkpt><trkpt lat="45.8762878" lon="11.5902625"><ele>1175.4</ele><time>2026-04-25T11:56:54.469Z</time></trkpt><trkpt lat="45.876256" lon="11.5901211"><ele>1174.6</ele><time>2026-04-25T11:56:55.481Z</time></trkpt><trkpt lat="45.8762309" lon="11.5899752"><ele>1173.8</ele><time>2026-04-25T11:56:56.471Z</time></trkpt><trkpt lat="45.8762144" lon="11.5898326"><ele>1173.0</ele><time>2026-04-25T11:56:57.463Z</time></trkpt><trkpt lat="45.876202" lon="11.5896938"><ele>1173.0</ele><time>2026-04-25T11:56:58.466Z</time></trkpt><trkpt lat="45.8761839" lon="11.5895521"><ele>1173.0</ele><time>2026-04-25T11:56:59.478Z</time></trkpt><trkpt lat="45.8761598" lon="11.589417"><ele>1173.0</ele><time>2026-04-25T11:57:00.466Z</time></trkpt><trkpt lat="45.8761375" lon="11.5892847"><ele>1173.0</ele><time>2026-04-25T11:57:01.468Z</time></trkpt><trkpt lat="45.8761164" lon="11.589154"><ele>1173.0</ele><time>2026-04-25T11:57:02.454Z</time></trkpt><trkpt lat="45.8760885" lon="11.5889177"><ele>1171.8</ele><time>2026-04-25T11:57:04.475Z</time></trkpt><trkpt lat="45.8760828" lon="11.5888115"><ele>1170.6</ele><time>2026-04-25T11:57:05.455Z</time></trkpt><trkpt lat="45.8760826" lon="11.5886424"><ele>1169.4</ele><time>2026-04-25T11:57:07.446Z</time></trkpt><trkpt lat="45.8760747" lon="11.5884731"><ele>1168.2</ele><time>2026-04-25T11:57:09.447Z</time></trkpt><trkpt lat="45.8760593" lon="11.5883554"><ele>1167.0</ele><time>2026-04-25T11:57:11.459Z</time></trkpt><trkpt lat="45.876048" lon="11.5882324"><ele>1167.8</ele><time>2026-04-25T11:57:13.464Z</time></trkpt><trkpt lat="45.8760485" lon="11.5880669"><ele>1168.6</ele><time>2026-04-25T11:57:15.466Z</time></trkpt><trkpt lat="45.8760353" lon="11.5879002"><ele>1169.3999999999999</ele><time>2026-04-25T11:57:17.472Z</time></trkpt><trkpt lat="45.8759921" lon="11.5877557"><ele>1170.2</ele><time>2026-04-25T11:57:19.467Z</time></trkpt><trkpt lat="45.8759214" lon="11.5876401"><ele>1171.0</ele><time>2026-04-25T11:57:21.476Z</time></trkpt><trkpt lat="45.875826" lon="11.587552"><ele>1171.0</ele><time>2026-04-25T11:57:23.461Z</time></trkpt><trkpt lat="45.8757374" lon="11.5872676"><ele>1171.0</ele><time>2026-04-25T11:57:27.47Z</time></trkpt><trkpt lat="45.8758176" lon="11.5871154"><ele>1171.0</ele><time>2026-04-25T11:57:29.449Z</time></trkpt><trkpt lat="45.8758704" lon="11.5870346"><ele>1171.0</ele><time>2026-04-25T11:57:30.47Z</time></trkpt><trkpt lat="45.8759114" lon="11.5869641"><ele>1170.5</ele><time>2026-04-25T11:57:31.45Z</time></trkpt><trkpt lat="45.8759472" lon="11.586878"><ele>1170.0</ele><time>2026-04-25T11:57:32.458Z</time></trkpt><trkpt lat="45.8759672" lon="11.5867816"><ele>1169.5</ele><time>2026-04-25T11:57:33.458Z</time></trkpt><trkpt lat="45.875971" lon="11.586691"><ele>1169.0</ele><time>2026-04-25T11:57:34.446Z</time></trkpt><trkpt lat="45.875954" lon="11.5865174"><ele>1168.5</ele><time>2026-04-25T11:57:36.462Z</time></trkpt><trkpt lat="45.8759332" lon="11.5864316"><ele>1168.0</ele><time>2026-04-25T11:57:37.452Z</time></trkpt><trkpt lat="45.8759025" lon="11.5863392"><ele>1168.0</ele><time>2026-04-25T11:57:38.461Z</time></trkpt><trkpt lat="45.8758692" lon="11.5862335"><ele>1168.0</ele><time>2026-04-25T11:57:39.464Z</time></trkpt><trkpt lat="45.8758411" lon="11.5861272"><ele>1168.0</ele><time>2026-04-25T11:57:40.459Z</time></trkpt><trkpt lat="45.8758192" lon="11.5860078"><ele>1168.0</ele><time>2026-04-25T11:57:41.454Z</time></trkpt><trkpt lat="45.875803" lon="11.5858666"><ele>1168.0</ele><time>2026-04-25T11:57:42.469Z</time></trkpt><trkpt lat="45.8757916" lon="11.5857396"><ele>1168.0</ele><time>2026-04-25T11:57:43.456Z</time></trkpt><trkpt lat="45.8757875" lon="11.5856317"><ele>1167.8</ele><time>2026-04-25T11:57:44.45Z</time></trkpt><trkpt lat="45.8758938" lon="11.5854322"><ele>1167.6</ele><time>2026-04-25T11:57:47.451Z</time></trkpt><trkpt lat="45.8759777" lon="11.5854097"><ele>1167.4</ele><time>2026-04-25T11:57:48.441Z</time></trkpt><trkpt lat="45.8760612" lon="11.5853922"><ele>1167.2</ele><time>2026-04-25T11:57:49.464Z</time></trkpt><trkpt lat="45.8761411" lon="11.5853754"><ele>1167.0</ele><time>2026-04-25T11:57:50.465Z</time></trkpt><trkpt lat="45.8762166" lon="11.5853533"><ele>1163.2</ele><time>2026-04-25T11:57:51.475Z</time></trkpt><trkpt lat="45.8763241" lon="11.5852733"><ele>1159.4</ele><time>2026-04-25T11:57:53.46Z</time></trkpt><trkpt lat="45.8763705" lon="11.5852059"><ele>1155.6</ele><time>2026-04-25T11:57:54.449Z</time></trkpt><trkpt lat="45.8763973" lon="11.5850671"><ele>1151.8</ele><time>2026-04-25T11:57:55.443Z</time></trkpt><trkpt lat="45.8764175" lon="11.5848991"><ele>1148.0</ele><time>2026-04-25T11:57:56.455Z</time></trkpt><trkpt lat="45.876437" lon="11.5847046"><ele>1148.5</ele><time>2026-04-25T11:57:57.448Z</time></trkpt><trkpt lat="45.8764512" lon="11.5845012"><ele>1149.0</ele><time>2026-04-25T11:57:58.448Z</time></trkpt><trkpt lat="45.8764707" lon="11.5843226"><ele>1149.5</ele><time>2026-04-25T11:57:59.444Z</time></trkpt><trkpt lat="45.8764896" lon="11.584178"><ele>1150.0</ele><time>2026-04-25T11:58:00.453Z</time></trkpt><trkpt lat="45.8765045" lon="11.5840573"><ele>1150.0</ele><time>2026-04-25T11:58:01.459Z</time></trkpt><trkpt lat="45.8765134" lon="11.583954"><ele>1150.0</ele><time>2026-04-25T11:58:02.468Z</time></trkpt><trkpt lat="45.8765097" lon="11.5838586"><ele>1150.0</ele><time>2026-04-25T11:58:03.442Z</time></trkpt><trkpt lat="45.876488" lon="11.5837718"><ele>1150.0</ele><time>2026-04-25T11:58:04.455Z</time></trkpt><trkpt lat="45.8764619" lon="11.5836839"><ele>1150.0</ele><time>2026-04-25T11:58:05.461Z</time></trkpt><trkpt lat="45.8763854" lon="11.5835243"><ele>1150.0</ele><time>2026-04-25T11:58:07.451Z</time></trkpt><trkpt lat="45.8763297" lon="11.5834628"><ele>1147.6666666666665</ele><time>2026-04-25T11:58:08.461Z</time></trkpt><trkpt lat="45.8762659" lon="11.5834054"><ele>1145.3333333333333</ele><time>2026-04-25T11:58:09.459Z</time></trkpt><trkpt lat="45.8761992" lon="11.5833421"><ele>1143.0</ele><time>2026-04-25T11:58:10.448Z</time></trkpt><trkpt lat="45.8761292" lon="11.5832744"><ele>1140.6666666666667</ele><time>2026-04-25T11:58:11.453Z</time></trkpt><trkpt lat="45.8760647" lon="11.5832022"><ele>1138.3333333333335</ele><time>2026-04-25T11:58:12.454Z</time></trkpt><trkpt lat="45.8760292" lon="11.5831165"><ele>1136.0</ele><time>2026-04-25T11:58:13.448Z</time></trkpt><trkpt lat="45.8760033" lon="11.5830148"><ele>1136.0</ele><time>2026-04-25T11:58:14.452Z</time></trkpt><trkpt lat="45.8759921" lon="11.5828956"><ele>1136.0</ele><time>2026-04-25T11:58:15.451Z</time></trkpt><trkpt lat="45.8759946" lon="11.5827167"><ele>1136.0</ele><time>2026-04-25T11:58:16.451Z</time></trkpt><trkpt lat="45.8760146" lon="11.582543"><ele>1136.0</ele><time>2026-04-25T11:58:17.45Z</time></trkpt><trkpt lat="45.876048" lon="11.5823869"><ele>1136.0</ele><time>2026-04-25T11:58:18.46Z</time></trkpt><trkpt lat="45.8760771" lon="11.5822575"><ele>1134.5</ele><time>2026-04-25T11:58:19.45Z</time></trkpt><trkpt lat="45.8761056" lon="11.5821567"><ele>1133.0</ele><time>2026-04-25T11:58:20.449Z</time></trkpt><trkpt lat="45.8761296" lon="11.5820596"><ele>1131.5</ele><time>2026-04-25T11:58:21.451Z</time></trkpt><trkpt lat="45.8761405" lon="11.5819587"><ele>1130.0</ele><time>2026-04-25T11:58:22.468Z</time></trkpt><trkpt lat="45.8761264" lon="11.5818402"><ele>1128.5</ele><time>2026-04-25T11:58:23.448Z</time></trkpt><trkpt lat="45.876103" lon="11.5817116"><ele>1127.0</ele><time>2026-04-25T11:58:24.445Z</time></trkpt><trkpt lat="45.8760599" lon="11.5815566"><ele>1127.0</ele><time>2026-04-25T11:58:25.453Z</time></trkpt><trkpt lat="45.8760101" lon="11.5814103"><ele>1127.0</ele><time>2026-04-25T11:58:26.466Z</time></trkpt><trkpt lat="45.8759152" lon="11.5811845"><ele>1127.0</ele><time>2026-04-25T11:58:28.48Z</time></trkpt><trkpt lat="45.8758685" lon="11.581105"><ele>1127.0</ele><time>2026-04-25T11:58:29.482Z</time></trkpt><trkpt lat="45.8758248" lon="11.5810343"><ele>1127.0</ele><time>2026-04-25T11:58:30.476Z</time></trkpt><trkpt lat="45.8757651" lon="11.5808968"><ele>1127.1666666666667</ele><time>2026-04-25T11:58:32.478Z</time></trkpt><trkpt lat="45.8758097" lon="11.5807715"><ele>1127.3333333333335</ele><time>2026-04-25T11:58:34.467Z</time></trkpt><trkpt lat="45.8758612" lon="11.5807061"><ele>1127.5</ele><time>2026-04-25T11:58:35.46Z</time></trkpt><trkpt lat="45.8759077" lon="11.5806202"><ele>1127.6666666666667</ele><time>2026-04-25T11:58:36.465Z</time></trkpt><trkpt lat="45.875971" lon="11.580522"><ele>1127.8333333333333</ele><time>2026-04-25T11:58:37.44Z</time></trkpt><trkpt lat="45.8760316" lon="11.5804027"><ele>1128.0</ele><time>2026-04-25T11:58:38.464Z</time></trkpt><trkpt lat="45.8760721" lon="11.5802983"><ele>1128.0</ele><time>2026-04-25T11:58:39.465Z</time></trkpt><trkpt lat="45.8760888" lon="11.5801953"><ele>1128.0</ele><time>2026-04-25T11:58:40.469Z</time></trkpt><trkpt lat="45.8761098" lon="11.5800762"><ele>1128.0</ele><time>2026-04-25T11:58:41.461Z</time></trkpt><trkpt lat="45.8761094" lon="11.5799405"><ele>1128.0</ele><time>2026-04-25T11:58:42.474Z</time></trkpt><trkpt lat="45.8760917" lon="11.5798175"><ele>1128.0</ele><time>2026-04-25T11:58:43.447Z</time></trkpt><trkpt lat="45.8760628" lon="11.5797092"><ele>1128.0</ele><time>2026-04-25T11:58:44.461Z</time></trkpt><trkpt lat="45.8760249" lon="11.5796078"><ele>1129.0</ele><time>2026-04-25T11:58:45.471Z</time></trkpt><trkpt lat="45.8759933" lon="11.5795035"><ele>1130.0</ele><time>2026-04-25T11:58:46.455Z</time></trkpt><trkpt lat="45.8759585" lon="11.5794147"><ele>1131.0</ele><time>2026-04-25T11:58:47.459Z</time></trkpt><trkpt lat="45.8758859" lon="11.5792502"><ele>1132.0</ele><time>2026-04-25T11:58:49.462Z</time></trkpt><trkpt lat="45.8758721" lon="11.579108"><ele>1133.0</ele><time>2026-04-25T11:58:51.44Z</time></trkpt><trkpt lat="45.8759422" lon="11.5789967"><ele>1133.0</ele><time>2026-04-25T11:58:53.466Z</time></trkpt><trkpt lat="45.8760084" lon="11.5789523"><ele>1133.0</ele><time>2026-04-25T11:58:54.471Z</time></trkpt><trkpt lat="45.8760881" lon="11.5788852"><ele>1133.0</ele><time>2026-04-25T11:58:55.469Z</time></trkpt><trkpt lat="45.8761501" lon="11.5788316"><ele>1133.0</ele><time>2026-04-25T11:58:56.441Z</time></trkpt><trkpt lat="45.8762018" lon="11.5787575"><ele>1133.0</ele><time>2026-04-25T11:58:57.445Z</time></trkpt><trkpt lat="45.8762585" lon="11.5786704"><ele>1133.0</ele><time>2026-04-25T11:58:58.451Z</time></trkpt><trkpt lat="45.8763238" lon="11.5785647"><ele>1135.6</ele><time>2026-04-25T11:58:59.445Z</time></trkpt><trkpt lat="45.876372" lon="11.5784509"><ele>1138.1999999999998</ele><time>2026-04-25T11:59:00.44Z</time></trkpt><trkpt lat="45.8764089" lon="11.5783264"><ele>1140.8</ele><time>2026-04-25T11:59:01.444Z</time></trkpt><trkpt lat="45.8764189" lon="11.57818"><ele>1143.3999999999999</ele><time>2026-04-25T11:59:02.447Z</time></trkpt><trkpt lat="45.8764052" lon="11.5780606"><ele>1146.0</ele><time>2026-04-25T11:59:03.447Z</time></trkpt><trkpt lat="45.8763918" lon="11.5779459"><ele>1148.0</ele><time>2026-04-25T11:59:04.449Z</time></trkpt><trkpt lat="45.8763959" lon="11.577851"><ele>1150.0</ele><time>2026-04-25T11:59:05.452Z</time></trkpt><trkpt lat="45.8764426" lon="11.5777884"><ele>1152.0</ele><time>2026-04-25T11:59:06.452Z</time></trkpt><trkpt lat="45.8765136" lon="11.5777374"><ele>1154.0</ele><time>2026-04-25T11:59:07.445Z</time></trkpt><trkpt lat="45.8765781" lon="11.5776639"><ele>1156.0</ele><time>2026-04-25T11:59:08.46Z</time></trkpt><trkpt lat="45.8766826" lon="11.5774992"><ele>1158.0</ele><time>2026-04-25T11:59:10.471Z</time></trkpt><trkpt lat="45.8767507" lon="11.5773426"><ele>1153.75</ele><time>2026-04-25T11:59:11.445Z</time></trkpt><trkpt lat="45.8768064" lon="11.5771932"><ele>1149.5</ele><time>2026-04-25T11:59:12.467Z</time></trkpt><trkpt lat="45.8768544" lon="11.5770185"><ele>1145.25</ele><time>2026-04-25T11:59:13.451Z</time></trkpt><trkpt lat="45.8769231" lon="11.5768285"><ele>1141.0</ele><time>2026-04-25T11:59:14.478Z</time></trkpt><trkpt lat="45.8769924" lon="11.5766508"><ele>1141.0</ele><time>2026-04-25T11:59:15.451Z</time></trkpt><trkpt lat="45.8770624" lon="11.576492"><ele>1141.0</ele><time>2026-04-25T11:59:16.449Z</time></trkpt><trkpt lat="45.8771403" lon="11.5763656"><ele>1141.0</ele><time>2026-04-25T11:59:17.451Z</time></trkpt><trkpt lat="45.8772387" lon="11.5762441"><ele>1141.0</ele><time>2026-04-25T11:59:18.455Z</time></trkpt><trkpt lat="45.8773443" lon="11.576109"><ele>1138.3333333333333</ele><time>2026-04-25T11:59:19.452Z</time></trkpt><trkpt lat="45.8774736" lon="11.5759562"><ele>1135.6666666666667</ele><time>2026-04-25T11:59:20.466Z</time></trkpt><trkpt lat="45.8776088" lon="11.5757719"><ele>1133.0</ele><time>2026-04-25T11:59:21.447Z</time></trkpt><trkpt lat="45.8777428" lon="11.5755963"><ele>1133.0</ele><time>2026-04-25T11:59:22.478Z</time></trkpt><trkpt lat="45.8778679" lon="11.5754366"><ele>1133.0</ele><time>2026-04-25T11:59:23.472Z</time></trkpt><trkpt lat="45.8779799" lon="11.5752891"><ele>1133.0</ele><time>2026-04-25T11:59:24.448Z</time></trkpt><trkpt lat="45.8780767" lon="11.5751665"><ele>1133.0</ele><time>2026-04-25T11:59:25.461Z</time></trkpt><trkpt lat="45.8781729" lon="11.5750645"><ele>1134.0</ele><time>2026-04-25T11:59:26.459Z</time></trkpt><trkpt lat="45.8782498" lon="11.5750007"><ele>1135.0</ele><time>2026-04-25T11:59:27.449Z</time></trkpt><trkpt lat="45.8783233" lon="11.5749369"><ele>1136.0</ele><time>2026-04-25T11:59:28.455Z</time></trkpt><trkpt lat="45.8783859" lon="11.5748719"><ele>1137.0</ele><time>2026-04-25T11:59:29.459Z</time></trkpt><trkpt lat="45.8785148" lon="11.5747483"><ele>1138.0</ele><time>2026-04-25T11:59:31.458Z</time></trkpt><trkpt lat="45.8786025" lon="11.5746498"><ele>1138.0</ele><time>2026-04-25T11:59:33.456Z</time></trkpt><trkpt lat="45.8786945" lon="11.5745714"><ele>1138.0</ele><time>2026-04-25T11:59:35.46Z</time></trkpt><trkpt lat="45.8787997" lon="11.5744882"><ele>1138.0</ele><time>2026-04-25T11:59:37.459Z</time></trkpt><trkpt lat="45.878858" lon="11.5744424"><ele>1138.0</ele><time>2026-04-25T11:59:38.461Z</time></trkpt><trkpt lat="45.8789143" lon="11.5743973"><ele>1138.0</ele><time>2026-04-25T11:59:39.462Z</time></trkpt><trkpt lat="45.8790169" lon="11.574315"><ele>1138.4</ele><time>2026-04-25T11:59:41.463Z</time></trkpt><trkpt lat="45.8791149" lon="11.5742399"><ele>1138.8</ele><time>2026-04-25T11:59:43.471Z</time></trkpt><trkpt lat="45.8792272" lon="11.5741466"><ele>1139.2</ele><time>2026-04-25T11:59:45.453Z</time></trkpt><trkpt lat="45.8792822" lon="11.5740977"><ele>1139.6</ele><time>2026-04-25T11:59:46.464Z</time></trkpt><trkpt lat="45.8793762" lon="11.5740007"><ele>1140.0</ele><time>2026-04-25T11:59:48.459Z</time></trkpt><trkpt lat="45.8794373" lon="11.5738864"><ele>1140.0</ele><time>2026-04-25T11:59:50.472Z</time></trkpt><trkpt lat="45.8794386" lon="11.5736923"><ele>1140.0</ele><time>2026-04-25T11:59:56.461Z</time></trkpt><trkpt lat="45.8795159" lon="11.5736956"><ele>1140.0</ele><time>2026-04-25T12:00:00.494Z</time></trkpt><trkpt lat="45.8796076" lon="11.5736903"><ele>1140.0</ele><time>2026-04-25T12:00:03.476Z</time></trkpt><trkpt lat="45.8796901" lon="11.5736478"><ele>1140.0</ele><time>2026-04-25T12:00:05.483Z</time></trkpt><trkpt lat="45.8797846" lon="11.5736145"><ele>1147.0</ele><time>2026-04-25T12:00:07.471Z</time></trkpt><trkpt lat="45.8798747" lon="11.5735823"><ele>1147.0</ele><time>2026-04-25T12:00:09.471Z</time></trkpt><trkpt lat="45.8799487" lon="11.5735439"><ele>1147.0</ele><time>2026-04-25T12:00:12.47Z</time></trkpt></trkseg><trkseg><trkpt lat="45.9366145" lon="11.7255298"><ele>1175.4</ele><time>2026-04-25T16:28:22.256Z</time></trkpt></trkseg></trk></gpx>